﻿<?xml version="1.0" encoding="UTF-8" standalone="no" ?>
<gpx xmlns="http://www.topografix.com/GPX/1/1" creator="CompeGPS" version="1.1" xmlns:xsi="http://www.w3.org/2001/XMLSchema-instance" xsi:schemaLocation="http://www.topografix.com/GPX/1/1 http://www.topografix.com/GPX/1/1/gpx.xsd">
  <metadata>
    <link href="http://www.compegps.com">
      <text>CompeGPS TEAM, SL</text>
    </link>
    <time>2024-03-19T22:27:47Z</time>
    <bounds maxlat="38.237150" maxlon="-0.637447" minlat="37.976134" minlon="-1.425972"/>
  </metadata>
  <trk>
    <name>20231008a20240317_RioSegura_02_Cieza-Guardamar_track_ET</name>
    <trkseg>
      <trkpt lat="38.237150" lon="-1.422983">
        <ele>188.1</ele>
        <time>2023-10-08T05:15:27Z</time>
      </trkpt>
      <trkpt lat="38.237028" lon="-1.423181">
        <ele>188.1</ele>
        <time>2023-10-08T05:16:04Z</time>
      </trkpt>
      <trkpt lat="38.236847" lon="-1.423162">
        <ele>188.1</ele>
        <time>2023-10-08T05:16:16Z</time>
      </trkpt>
      <trkpt lat="38.236670" lon="-1.423108">
        <ele>187.1</ele>
        <time>2023-10-08T05:16:31Z</time>
      </trkpt>
      <trkpt lat="38.236586" lon="-1.423315">
        <ele>184.3</ele>
        <time>2023-10-08T05:16:43Z</time>
      </trkpt>
      <trkpt lat="38.236501" lon="-1.423519">
        <ele>177.4</ele>
        <time>2023-10-08T05:17:04Z</time>
      </trkpt>
      <trkpt lat="38.236526" lon="-1.423755">
        <ele>183.5</ele>
        <time>2023-10-08T05:17:15Z</time>
      </trkpt>
      <trkpt lat="38.236489" lon="-1.423995">
        <ele>177.7</ele>
        <time>2023-10-08T05:17:29Z</time>
      </trkpt>
      <trkpt lat="38.236415" lon="-1.424208">
        <ele>177.1</ele>
        <time>2023-10-08T05:17:44Z</time>
      </trkpt>
      <trkpt lat="38.236398" lon="-1.424439">
        <ele>183.4</ele>
        <time>2023-10-08T05:17:56Z</time>
      </trkpt>
      <trkpt lat="38.236326" lon="-1.424653">
        <ele>183.9</ele>
        <time>2023-10-08T05:18:07Z</time>
      </trkpt>
      <trkpt lat="38.236278" lon="-1.424882">
        <ele>184.0</ele>
        <time>2023-10-08T05:18:21Z</time>
      </trkpt>
      <trkpt lat="38.236183" lon="-1.425084">
        <ele>184.4</ele>
        <time>2023-10-08T05:18:34Z</time>
      </trkpt>
      <trkpt lat="38.236096" lon="-1.425287">
        <ele>184.0</ele>
        <time>2023-10-08T05:18:46Z</time>
      </trkpt>
      <trkpt lat="38.235985" lon="-1.425477">
        <ele>184.0</ele>
        <time>2023-10-08T05:18:59Z</time>
      </trkpt>
      <trkpt lat="38.235958" lon="-1.425711">
        <ele>183.6</ele>
        <time>2023-10-08T05:19:10Z</time>
      </trkpt>
      <trkpt lat="38.235822" lon="-1.425862">
        <ele>181.4</ele>
        <time>2023-10-08T05:19:22Z</time>
      </trkpt>
      <trkpt lat="38.235635" lon="-1.425875">
        <ele>178.7</ele>
        <time>2023-10-08T05:19:34Z</time>
      </trkpt>
      <trkpt lat="38.235453" lon="-1.425866">
        <ele>176.7</ele>
        <time>2023-10-08T05:19:49Z</time>
      </trkpt>
      <trkpt lat="38.235274" lon="-1.425882">
        <ele>176.7</ele>
        <time>2023-10-08T05:19:58Z</time>
      </trkpt>
      <trkpt lat="38.235095" lon="-1.425834">
        <ele>173.2</ele>
        <time>2023-10-08T05:20:11Z</time>
      </trkpt>
      <trkpt lat="38.234974" lon="-1.425655">
        <ele>169.5</ele>
        <time>2023-10-08T05:20:25Z</time>
      </trkpt>
      <trkpt lat="38.234807" lon="-1.425743">
        <ele>169.5</ele>
        <time>2023-10-08T05:20:37Z</time>
      </trkpt>
      <trkpt lat="38.234635" lon="-1.425815">
        <ele>176.0</ele>
        <time>2023-10-08T05:20:50Z</time>
      </trkpt>
      <trkpt lat="38.234503" lon="-1.425972">
        <ele>176.1</ele>
        <time>2023-10-08T05:21:02Z</time>
      </trkpt>
      <trkpt lat="38.234354" lon="-1.425834">
        <ele>183.8</ele>
        <time>2023-10-08T05:21:14Z</time>
      </trkpt>
      <trkpt lat="38.234219" lon="-1.425678">
        <ele>165.3</ele>
        <time>2023-10-08T05:21:27Z</time>
      </trkpt>
      <trkpt lat="38.234070" lon="-1.425546">
        <ele>184.2</ele>
        <time>2023-10-08T05:21:40Z</time>
      </trkpt>
      <trkpt lat="38.233923" lon="-1.425409">
        <ele>184.2</ele>
        <time>2023-10-08T05:21:51Z</time>
      </trkpt>
      <trkpt lat="38.233779" lon="-1.425270">
        <ele>183.9</ele>
        <time>2023-10-08T05:22:04Z</time>
      </trkpt>
      <trkpt lat="38.233647" lon="-1.425110">
        <ele>164.4</ele>
        <time>2023-10-08T05:22:17Z</time>
      </trkpt>
      <trkpt lat="38.233526" lon="-1.424931">
        <ele>163.3</ele>
        <time>2023-10-08T05:22:30Z</time>
      </trkpt>
      <trkpt lat="38.233407" lon="-1.424778">
        <ele>163.3</ele>
        <time>2023-10-08T05:22:44Z</time>
      </trkpt>
      <trkpt lat="38.233217" lon="-1.424780">
        <ele>161.3</ele>
        <time>2023-10-08T05:22:57Z</time>
      </trkpt>
      <trkpt lat="38.233066" lon="-1.424784">
        <ele>163.3</ele>
        <time>2023-10-08T05:23:14Z</time>
      </trkpt>
      <trkpt lat="38.233060" lon="-1.424366">
        <ele>164.4</ele>
        <time>2023-10-08T05:23:28Z</time>
      </trkpt>
      <trkpt lat="38.233047" lon="-1.424147">
        <ele>162.6</ele>
        <time>2023-10-08T05:23:44Z</time>
      </trkpt>
      <trkpt lat="38.233057" lon="-1.423915">
        <ele>161.3</ele>
        <time>2023-10-08T05:23:57Z</time>
      </trkpt>
      <trkpt lat="38.233061" lon="-1.423679">
        <ele>161.3</ele>
        <time>2023-10-08T05:24:10Z</time>
      </trkpt>
      <trkpt lat="38.233027" lon="-1.423443">
        <ele>160.3</ele>
        <time>2023-10-08T05:24:22Z</time>
      </trkpt>
      <trkpt lat="38.232998" lon="-1.423216">
        <ele>157.2</ele>
        <time>2023-10-08T05:24:35Z</time>
      </trkpt>
      <trkpt lat="38.232984" lon="-1.422969">
        <ele>163.9</ele>
        <time>2023-10-08T05:24:47Z</time>
      </trkpt>
      <trkpt lat="38.232963" lon="-1.422740">
        <ele>164.3</ele>
        <time>2023-10-08T05:24:59Z</time>
      </trkpt>
      <trkpt lat="38.232913" lon="-1.422512">
        <ele>164.3</ele>
        <time>2023-10-08T05:25:12Z</time>
      </trkpt>
      <trkpt lat="38.232835" lon="-1.422298">
        <ele>164.3</ele>
        <time>2023-10-08T05:25:25Z</time>
      </trkpt>
      <trkpt lat="38.232752" lon="-1.422093">
        <ele>164.3</ele>
        <time>2023-10-08T05:25:38Z</time>
      </trkpt>
      <trkpt lat="38.232668" lon="-1.421884">
        <ele>164.3</ele>
        <time>2023-10-08T05:25:50Z</time>
      </trkpt>
      <trkpt lat="38.232576" lon="-1.421677">
        <ele>164.3</ele>
        <time>2023-10-08T05:26:02Z</time>
      </trkpt>
      <trkpt lat="38.232495" lon="-1.421464">
        <ele>160.3</ele>
        <time>2023-10-08T05:26:15Z</time>
      </trkpt>
      <trkpt lat="38.232414" lon="-1.421251">
        <ele>160.3</ele>
        <time>2023-10-08T05:26:29Z</time>
      </trkpt>
      <trkpt lat="38.232318" lon="-1.421049">
        <ele>160.2</ele>
        <time>2023-10-08T05:26:42Z</time>
      </trkpt>
      <trkpt lat="38.232214" lon="-1.420851">
        <ele>163.7</ele>
        <time>2023-10-08T05:26:53Z</time>
      </trkpt>
      <trkpt lat="38.232173" lon="-1.420623">
        <ele>163.7</ele>
        <time>2023-10-08T05:27:04Z</time>
      </trkpt>
      <trkpt lat="38.232089" lon="-1.420412">
        <ele>163.7</ele>
        <time>2023-10-08T05:27:18Z</time>
      </trkpt>
      <trkpt lat="38.232049" lon="-1.420187">
        <ele>160.6</ele>
        <time>2023-10-08T05:27:30Z</time>
      </trkpt>
      <trkpt lat="38.232014" lon="-1.419953">
        <ele>157.3</ele>
        <time>2023-10-08T05:27:45Z</time>
      </trkpt>
      <trkpt lat="38.231994" lon="-1.419721">
        <ele>157.3</ele>
        <time>2023-10-08T05:27:59Z</time>
      </trkpt>
      <trkpt lat="38.231978" lon="-1.419486">
        <ele>155.3</ele>
        <time>2023-10-08T05:28:11Z</time>
      </trkpt>
      <trkpt lat="38.232008" lon="-1.419253">
        <ele>154.6</ele>
        <time>2023-10-08T05:28:23Z</time>
      </trkpt>
      <trkpt lat="38.232127" lon="-1.419074">
        <ele>153.3</ele>
        <time>2023-10-08T05:28:36Z</time>
      </trkpt>
      <trkpt lat="38.232249" lon="-1.418898">
        <ele>149.3</ele>
        <time>2023-10-08T05:28:52Z</time>
      </trkpt>
      <trkpt lat="38.232371" lon="-1.418725">
        <ele>149.3</ele>
        <time>2023-10-08T05:29:02Z</time>
      </trkpt>
      <trkpt lat="38.232482" lon="-1.418541">
        <ele>149.3</ele>
        <time>2023-10-08T05:29:14Z</time>
      </trkpt>
      <trkpt lat="38.232599" lon="-1.418366">
        <ele>150.3</ele>
        <time>2023-10-08T05:29:26Z</time>
      </trkpt>
      <trkpt lat="38.232723" lon="-1.418197">
        <ele>152.3</ele>
        <time>2023-10-08T05:29:38Z</time>
      </trkpt>
      <trkpt lat="38.232789" lon="-1.417977">
        <ele>153.2</ele>
        <time>2023-10-08T05:29:51Z</time>
      </trkpt>
      <trkpt lat="38.232833" lon="-1.417750">
        <ele>153.3</ele>
        <time>2023-10-08T05:30:03Z</time>
      </trkpt>
      <trkpt lat="38.232903" lon="-1.417535">
        <ele>154.3</ele>
        <time>2023-10-08T05:30:16Z</time>
      </trkpt>
      <trkpt lat="38.232958" lon="-1.417307">
        <ele>153.3</ele>
        <time>2023-10-08T05:30:29Z</time>
      </trkpt>
      <trkpt lat="38.233006" lon="-1.417073">
        <ele>154.3</ele>
        <time>2023-10-08T05:30:42Z</time>
      </trkpt>
      <trkpt lat="38.233044" lon="-1.416849">
        <ele>153.3</ele>
        <time>2023-10-08T05:30:54Z</time>
      </trkpt>
      <trkpt lat="38.233103" lon="-1.416623">
        <ele>153.3</ele>
        <time>2023-10-08T05:31:07Z</time>
      </trkpt>
      <trkpt lat="38.233137" lon="-1.416393">
        <ele>153.3</ele>
        <time>2023-10-08T05:31:20Z</time>
      </trkpt>
      <trkpt lat="38.233126" lon="-1.416161">
        <ele>154.3</ele>
        <time>2023-10-08T05:31:33Z</time>
      </trkpt>
      <trkpt lat="38.233113" lon="-1.415931">
        <ele>157.3</ele>
        <time>2023-10-08T05:31:46Z</time>
      </trkpt>
      <trkpt lat="38.233090" lon="-1.415701">
        <ele>160.2</ele>
        <time>2023-10-08T05:31:57Z</time>
      </trkpt>
      <trkpt lat="38.233017" lon="-1.415487">
        <ele>159.3</ele>
        <time>2023-10-08T05:32:11Z</time>
      </trkpt>
      <trkpt lat="38.233153" lon="-1.415334">
        <ele>164.0</ele>
        <time>2023-10-08T05:32:28Z</time>
      </trkpt>
      <trkpt lat="38.233333" lon="-1.415266">
        <ele>165.9</ele>
        <time>2023-10-08T05:32:43Z</time>
      </trkpt>
      <trkpt lat="38.233144" lon="-1.415263">
        <ele>165.0</ele>
        <time>2023-10-08T05:43:31Z</time>
      </trkpt>
      <trkpt lat="38.232962" lon="-1.415269">
        <ele>164.3</ele>
        <time>2023-10-08T05:43:50Z</time>
      </trkpt>
      <trkpt lat="38.232941" lon="-1.415040">
        <ele>163.3</ele>
        <time>2023-10-08T05:44:07Z</time>
      </trkpt>
      <trkpt lat="38.232896" lon="-1.414813">
        <ele>164.3</ele>
        <time>2023-10-08T05:44:23Z</time>
      </trkpt>
      <trkpt lat="38.232855" lon="-1.414583">
        <ele>165.3</ele>
        <time>2023-10-08T05:44:40Z</time>
      </trkpt>
      <trkpt lat="38.232804" lon="-1.414362">
        <ele>164.3</ele>
        <time>2023-10-08T05:44:54Z</time>
      </trkpt>
      <trkpt lat="38.232762" lon="-1.414135">
        <ele>161.3</ele>
        <time>2023-10-08T05:45:09Z</time>
      </trkpt>
      <trkpt lat="38.232716" lon="-1.413913">
        <ele>166.3</ele>
        <time>2023-10-08T05:45:24Z</time>
      </trkpt>
      <trkpt lat="38.232635" lon="-1.413696">
        <ele>166.3</ele>
        <time>2023-10-08T05:45:39Z</time>
      </trkpt>
      <trkpt lat="38.232535" lon="-1.413497">
        <ele>166.3</ele>
        <time>2023-10-08T05:45:54Z</time>
      </trkpt>
      <trkpt lat="38.232439" lon="-1.413302">
        <ele>166.3</ele>
        <time>2023-10-08T05:46:09Z</time>
      </trkpt>
      <trkpt lat="38.232322" lon="-1.413126">
        <ele>166.3</ele>
        <time>2023-10-08T05:46:23Z</time>
      </trkpt>
      <trkpt lat="38.232151" lon="-1.413043">
        <ele>168.3</ele>
        <time>2023-10-08T05:46:38Z</time>
      </trkpt>
      <trkpt lat="38.231972" lon="-1.412994">
        <ele>168.3</ele>
        <time>2023-10-08T05:46:55Z</time>
      </trkpt>
      <trkpt lat="38.231792" lon="-1.412937">
        <ele>168.3</ele>
        <time>2023-10-08T05:47:11Z</time>
      </trkpt>
      <trkpt lat="38.231606" lon="-1.412886">
        <ele>168.3</ele>
        <time>2023-10-08T05:47:24Z</time>
      </trkpt>
      <trkpt lat="38.231434" lon="-1.412811">
        <ele>168.3</ele>
        <time>2023-10-08T05:47:37Z</time>
      </trkpt>
      <trkpt lat="38.231257" lon="-1.412753">
        <ele>168.3</ele>
        <time>2023-10-08T05:47:50Z</time>
      </trkpt>
      <trkpt lat="38.231082" lon="-1.412692">
        <ele>168.3</ele>
        <time>2023-10-08T05:48:04Z</time>
      </trkpt>
      <trkpt lat="38.230906" lon="-1.412637">
        <ele>160.3</ele>
        <time>2023-10-08T05:48:18Z</time>
      </trkpt>
      <trkpt lat="38.230723" lon="-1.412610">
        <ele>158.3</ele>
        <time>2023-10-08T05:48:32Z</time>
      </trkpt>
      <trkpt lat="38.230538" lon="-1.412633">
        <ele>161.3</ele>
        <time>2023-10-08T05:48:45Z</time>
      </trkpt>
      <trkpt lat="38.230356" lon="-1.412660">
        <ele>160.4</ele>
        <time>2023-10-08T05:48:58Z</time>
      </trkpt>
      <trkpt lat="38.230170" lon="-1.412715">
        <ele>177.4</ele>
        <time>2023-10-08T05:49:12Z</time>
      </trkpt>
      <trkpt lat="38.230031" lon="-1.412859">
        <ele>177.4</ele>
        <time>2023-10-08T05:49:26Z</time>
      </trkpt>
      <trkpt lat="38.229866" lon="-1.412984">
        <ele>162.3</ele>
        <time>2023-10-08T05:49:40Z</time>
      </trkpt>
      <trkpt lat="38.229721" lon="-1.413127">
        <ele>162.3</ele>
        <time>2023-10-08T05:49:53Z</time>
      </trkpt>
      <trkpt lat="38.229588" lon="-1.413292">
        <ele>162.3</ele>
        <time>2023-10-08T05:50:06Z</time>
      </trkpt>
      <trkpt lat="38.229457" lon="-1.413457">
        <ele>162.3</ele>
        <time>2023-10-08T05:50:21Z</time>
      </trkpt>
      <trkpt lat="38.229318" lon="-1.413615">
        <ele>162.3</ele>
        <time>2023-10-08T05:50:35Z</time>
      </trkpt>
      <trkpt lat="38.229187" lon="-1.413781">
        <ele>162.3</ele>
        <time>2023-10-08T05:50:49Z</time>
      </trkpt>
      <trkpt lat="38.229049" lon="-1.413937">
        <ele>162.3</ele>
        <time>2023-10-08T05:51:04Z</time>
      </trkpt>
      <trkpt lat="38.228930" lon="-1.414111">
        <ele>162.3</ele>
        <time>2023-10-08T05:51:18Z</time>
      </trkpt>
      <trkpt lat="38.228823" lon="-1.414302">
        <ele>162.3</ele>
        <time>2023-10-08T05:51:33Z</time>
      </trkpt>
      <trkpt lat="38.228709" lon="-1.414487">
        <ele>159.3</ele>
        <time>2023-10-08T05:51:46Z</time>
      </trkpt>
      <trkpt lat="38.228591" lon="-1.414662">
        <ele>160.3</ele>
        <time>2023-10-08T05:52:00Z</time>
      </trkpt>
      <trkpt lat="38.228486" lon="-1.414857">
        <ele>161.3</ele>
        <time>2023-10-08T05:52:14Z</time>
      </trkpt>
      <trkpt lat="38.228380" lon="-1.415044">
        <ele>162.4</ele>
        <time>2023-10-08T05:52:28Z</time>
      </trkpt>
      <trkpt lat="38.228278" lon="-1.415252">
        <ele>163.3</ele>
        <time>2023-10-08T05:52:42Z</time>
      </trkpt>
      <trkpt lat="38.228182" lon="-1.415455">
        <ele>162.0</ele>
        <time>2023-10-08T05:52:56Z</time>
      </trkpt>
      <trkpt lat="38.228094" lon="-1.415657">
        <ele>162.3</ele>
        <time>2023-10-08T05:53:10Z</time>
      </trkpt>
      <trkpt lat="38.228017" lon="-1.415868">
        <ele>162.6</ele>
        <time>2023-10-08T05:53:24Z</time>
      </trkpt>
      <trkpt lat="38.227924" lon="-1.416066">
        <ele>162.2</ele>
        <time>2023-10-08T05:53:38Z</time>
      </trkpt>
      <trkpt lat="38.227796" lon="-1.416238">
        <ele>162.2</ele>
        <time>2023-10-08T05:53:53Z</time>
      </trkpt>
      <trkpt lat="38.227694" lon="-1.416433">
        <ele>162.2</ele>
        <time>2023-10-08T05:54:07Z</time>
      </trkpt>
      <trkpt lat="38.227565" lon="-1.416598">
        <ele>161.3</ele>
        <time>2023-10-08T05:54:21Z</time>
      </trkpt>
      <trkpt lat="38.227448" lon="-1.416777">
        <ele>161.3</ele>
        <time>2023-10-08T05:54:34Z</time>
      </trkpt>
      <trkpt lat="38.227345" lon="-1.416966">
        <ele>161.3</ele>
        <time>2023-10-08T05:54:49Z</time>
      </trkpt>
      <trkpt lat="38.227226" lon="-1.417146">
        <ele>161.3</ele>
        <time>2023-10-08T05:55:04Z</time>
      </trkpt>
      <trkpt lat="38.227098" lon="-1.417317">
        <ele>161.3</ele>
        <time>2023-10-08T05:55:17Z</time>
      </trkpt>
      <trkpt lat="38.227011" lon="-1.417519">
        <ele>161.3</ele>
        <time>2023-10-08T05:55:31Z</time>
      </trkpt>
      <trkpt lat="38.226939" lon="-1.417731">
        <ele>161.3</ele>
        <time>2023-10-08T05:55:47Z</time>
      </trkpt>
      <trkpt lat="38.226832" lon="-1.417925">
        <ele>161.3</ele>
        <time>2023-10-08T05:56:02Z</time>
      </trkpt>
      <trkpt lat="38.226722" lon="-1.418112">
        <ele>161.3</ele>
        <time>2023-10-08T05:56:17Z</time>
      </trkpt>
      <trkpt lat="38.226593" lon="-1.418275">
        <ele>161.3</ele>
        <time>2023-10-08T05:56:30Z</time>
      </trkpt>
      <trkpt lat="38.226443" lon="-1.418406">
        <ele>161.3</ele>
        <time>2023-10-08T05:56:43Z</time>
      </trkpt>
      <trkpt lat="38.226270" lon="-1.418473">
        <ele>161.3</ele>
        <time>2023-10-08T05:56:58Z</time>
      </trkpt>
      <trkpt lat="38.226089" lon="-1.418465">
        <ele>161.3</ele>
        <time>2023-10-08T05:57:16Z</time>
      </trkpt>
      <trkpt lat="38.225909" lon="-1.418418">
        <ele>160.3</ele>
        <time>2023-10-08T05:57:32Z</time>
      </trkpt>
      <trkpt lat="38.225756" lon="-1.418287">
        <ele>157.3</ele>
        <time>2023-10-08T05:57:45Z</time>
      </trkpt>
      <trkpt lat="38.225612" lon="-1.418148">
        <ele>157.0</ele>
        <time>2023-10-08T05:57:58Z</time>
      </trkpt>
      <trkpt lat="38.225451" lon="-1.418037">
        <ele>158.4</ele>
        <time>2023-10-08T05:58:12Z</time>
      </trkpt>
      <trkpt lat="38.225311" lon="-1.417879">
        <ele>154.3</ele>
        <time>2023-10-08T05:58:27Z</time>
      </trkpt>
      <trkpt lat="38.225171" lon="-1.417725">
        <ele>155.3</ele>
        <time>2023-10-08T05:58:39Z</time>
      </trkpt>
      <trkpt lat="38.225039" lon="-1.417566">
        <ele>157.3</ele>
        <time>2023-10-08T05:58:53Z</time>
      </trkpt>
      <trkpt lat="38.224893" lon="-1.417417">
        <ele>159.3</ele>
        <time>2023-10-08T05:59:06Z</time>
      </trkpt>
      <trkpt lat="38.224751" lon="-1.417276">
        <ele>161.3</ele>
        <time>2023-10-08T05:59:20Z</time>
      </trkpt>
      <trkpt lat="38.224614" lon="-1.417121">
        <ele>161.3</ele>
        <time>2023-10-08T05:59:35Z</time>
      </trkpt>
      <trkpt lat="38.224461" lon="-1.416989">
        <ele>162.3</ele>
        <time>2023-10-08T05:59:49Z</time>
      </trkpt>
      <trkpt lat="38.224296" lon="-1.416889">
        <ele>159.3</ele>
        <time>2023-10-08T06:00:04Z</time>
      </trkpt>
      <trkpt lat="38.224130" lon="-1.416775">
        <ele>160.3</ele>
        <time>2023-10-08T06:00:19Z</time>
      </trkpt>
      <trkpt lat="38.223971" lon="-1.416659">
        <ele>159.6</ele>
        <time>2023-10-08T06:00:34Z</time>
      </trkpt>
      <trkpt lat="38.223823" lon="-1.416524">
        <ele>159.4</ele>
        <time>2023-10-08T06:00:47Z</time>
      </trkpt>
      <trkpt lat="38.223647" lon="-1.416458">
        <ele>161.0</ele>
        <time>2023-10-08T06:01:01Z</time>
      </trkpt>
      <trkpt lat="38.223498" lon="-1.416322">
        <ele>159.3</ele>
        <time>2023-10-08T06:01:15Z</time>
      </trkpt>
      <trkpt lat="38.223336" lon="-1.416208">
        <ele>158.6</ele>
        <time>2023-10-08T06:01:29Z</time>
      </trkpt>
      <trkpt lat="38.223191" lon="-1.416065">
        <ele>159.3</ele>
        <time>2023-10-08T06:01:43Z</time>
      </trkpt>
      <trkpt lat="38.223047" lon="-1.415918">
        <ele>160.3</ele>
        <time>2023-10-08T06:01:57Z</time>
      </trkpt>
      <trkpt lat="38.222898" lon="-1.415779">
        <ele>158.3</ele>
        <time>2023-10-08T06:02:12Z</time>
      </trkpt>
      <trkpt lat="38.222727" lon="-1.415680">
        <ele>159.3</ele>
        <time>2023-10-08T06:02:26Z</time>
      </trkpt>
      <trkpt lat="38.222564" lon="-1.415564">
        <ele>161.3</ele>
        <time>2023-10-08T06:02:40Z</time>
      </trkpt>
      <trkpt lat="38.222405" lon="-1.415453">
        <ele>160.4</ele>
        <time>2023-10-08T06:02:55Z</time>
      </trkpt>
      <trkpt lat="38.222225" lon="-1.415436">
        <ele>159.4</ele>
        <time>2023-10-08T06:03:11Z</time>
      </trkpt>
      <trkpt lat="38.222041" lon="-1.415415">
        <ele>156.3</ele>
        <time>2023-10-08T06:03:28Z</time>
      </trkpt>
      <trkpt lat="38.221863" lon="-1.415478">
        <ele>155.3</ele>
        <time>2023-10-08T06:03:43Z</time>
      </trkpt>
      <trkpt lat="38.221673" lon="-1.415479">
        <ele>155.3</ele>
        <time>2023-10-08T06:03:57Z</time>
      </trkpt>
      <trkpt lat="38.221512" lon="-1.415366">
        <ele>155.3</ele>
        <time>2023-10-08T06:04:12Z</time>
      </trkpt>
      <trkpt lat="38.221323" lon="-1.415361">
        <ele>155.3</ele>
        <time>2023-10-08T06:04:28Z</time>
      </trkpt>
      <trkpt lat="38.221139" lon="-1.415388">
        <ele>155.3</ele>
        <time>2023-10-08T06:04:42Z</time>
      </trkpt>
      <trkpt lat="38.220956" lon="-1.415438">
        <ele>156.0</ele>
        <time>2023-10-08T06:04:57Z</time>
      </trkpt>
      <trkpt lat="38.220778" lon="-1.415487">
        <ele>157.2</ele>
        <time>2023-10-08T06:05:11Z</time>
      </trkpt>
      <trkpt lat="38.220601" lon="-1.415549">
        <ele>157.3</ele>
        <time>2023-10-08T06:05:25Z</time>
      </trkpt>
      <trkpt lat="38.220429" lon="-1.415615">
        <ele>155.6</ele>
        <time>2023-10-08T06:05:39Z</time>
      </trkpt>
      <trkpt lat="38.220249" lon="-1.415641">
        <ele>155.3</ele>
        <time>2023-10-08T06:05:54Z</time>
      </trkpt>
      <trkpt lat="38.220073" lon="-1.415707">
        <ele>155.3</ele>
        <time>2023-10-08T06:06:08Z</time>
      </trkpt>
      <trkpt lat="38.219892" lon="-1.415745">
        <ele>153.4</ele>
        <time>2023-10-08T06:06:22Z</time>
      </trkpt>
      <trkpt lat="38.219711" lon="-1.415755">
        <ele>155.3</ele>
        <time>2023-10-08T06:06:35Z</time>
      </trkpt>
      <trkpt lat="38.219528" lon="-1.415769">
        <ele>151.3</ele>
        <time>2023-10-08T06:06:50Z</time>
      </trkpt>
      <trkpt lat="38.219351" lon="-1.415691">
        <ele>151.3</ele>
        <time>2023-10-08T06:07:05Z</time>
      </trkpt>
      <trkpt lat="38.219175" lon="-1.415642">
        <ele>150.6</ele>
        <time>2023-10-08T06:07:19Z</time>
      </trkpt>
      <trkpt lat="38.218998" lon="-1.415591">
        <ele>147.3</ele>
        <time>2023-10-08T06:07:33Z</time>
      </trkpt>
      <trkpt lat="38.218818" lon="-1.415578">
        <ele>147.3</ele>
        <time>2023-10-08T06:07:46Z</time>
      </trkpt>
      <trkpt lat="38.218637" lon="-1.415560">
        <ele>144.6</ele>
        <time>2023-10-08T06:08:01Z</time>
      </trkpt>
      <trkpt lat="38.218467" lon="-1.415476">
        <ele>144.3</ele>
        <time>2023-10-08T06:08:15Z</time>
      </trkpt>
      <trkpt lat="38.218288" lon="-1.415404">
        <ele>145.0</ele>
        <time>2023-10-08T06:08:28Z</time>
      </trkpt>
      <trkpt lat="38.218127" lon="-1.415282">
        <ele>146.3</ele>
        <time>2023-10-08T06:08:41Z</time>
      </trkpt>
      <trkpt lat="38.217991" lon="-1.415131">
        <ele>153.3</ele>
        <time>2023-10-08T06:08:56Z</time>
      </trkpt>
      <trkpt lat="38.217980" lon="-1.414900">
        <ele>157.4</ele>
        <time>2023-10-08T06:09:17Z</time>
      </trkpt>
      <trkpt lat="38.217947" lon="-1.414667">
        <ele>157.0</ele>
        <time>2023-10-08T06:09:40Z</time>
      </trkpt>
      <trkpt lat="38.218010" lon="-1.414449">
        <ele>156.3</ele>
        <time>2023-10-08T06:09:58Z</time>
      </trkpt>
      <trkpt lat="38.218118" lon="-1.414265">
        <ele>157.4</ele>
        <time>2023-10-08T06:10:17Z</time>
      </trkpt>
      <trkpt lat="38.218210" lon="-1.414065">
        <ele>159.3</ele>
        <time>2023-10-08T06:10:37Z</time>
      </trkpt>
      <trkpt lat="38.218242" lon="-1.413836">
        <ele>158.3</ele>
        <time>2023-10-08T06:10:54Z</time>
      </trkpt>
      <trkpt lat="38.218303" lon="-1.413615">
        <ele>158.1</ele>
        <time>2023-10-08T06:11:12Z</time>
      </trkpt>
      <trkpt lat="38.218312" lon="-1.413385">
        <ele>156.4</ele>
        <time>2023-10-08T06:11:26Z</time>
      </trkpt>
      <trkpt lat="38.218304" lon="-1.413149">
        <ele>157.5</ele>
        <time>2023-10-08T06:11:41Z</time>
      </trkpt>
      <trkpt lat="38.218352" lon="-1.412926">
        <ele>157.2</ele>
        <time>2023-10-08T06:11:55Z</time>
      </trkpt>
      <trkpt lat="38.218356" lon="-1.412691">
        <ele>158.3</ele>
        <time>2023-10-08T06:12:10Z</time>
      </trkpt>
      <trkpt lat="38.218284" lon="-1.412473">
        <ele>156.3</ele>
        <time>2023-10-08T06:12:29Z</time>
      </trkpt>
      <trkpt lat="38.218181" lon="-1.412280">
        <ele>157.2</ele>
        <time>2023-10-08T06:12:43Z</time>
      </trkpt>
      <trkpt lat="38.218143" lon="-1.412047">
        <ele>154.3</ele>
        <time>2023-10-08T06:13:00Z</time>
      </trkpt>
      <trkpt lat="38.218078" lon="-1.411825">
        <ele>155.3</ele>
        <time>2023-10-08T06:13:14Z</time>
      </trkpt>
      <trkpt lat="38.218002" lon="-1.411615">
        <ele>158.3</ele>
        <time>2023-10-08T06:13:29Z</time>
      </trkpt>
      <trkpt lat="38.217986" lon="-1.411381">
        <ele>159.0</ele>
        <time>2023-10-08T06:13:43Z</time>
      </trkpt>
      <trkpt lat="38.217882" lon="-1.411191">
        <ele>159.3</ele>
        <time>2023-10-08T06:13:56Z</time>
      </trkpt>
      <trkpt lat="38.217748" lon="-1.411037">
        <ele>158.3</ele>
        <time>2023-10-08T06:14:12Z</time>
      </trkpt>
      <trkpt lat="38.217598" lon="-1.410905">
        <ele>158.3</ele>
        <time>2023-10-08T06:14:27Z</time>
      </trkpt>
      <trkpt lat="38.217462" lon="-1.410744">
        <ele>158.3</ele>
        <time>2023-10-08T06:14:42Z</time>
      </trkpt>
      <trkpt lat="38.217310" lon="-1.410616">
        <ele>158.3</ele>
        <time>2023-10-08T06:14:57Z</time>
      </trkpt>
      <trkpt lat="38.217145" lon="-1.410509">
        <ele>160.3</ele>
        <time>2023-10-08T06:15:11Z</time>
      </trkpt>
      <trkpt lat="38.216966" lon="-1.410466">
        <ele>160.0</ele>
        <time>2023-10-08T06:15:31Z</time>
      </trkpt>
      <trkpt lat="38.216783" lon="-1.410450">
        <ele>156.3</ele>
        <time>2023-10-08T06:16:10Z</time>
      </trkpt>
      <trkpt lat="38.216620" lon="-1.410342">
        <ele>157.3</ele>
        <time>2023-10-08T06:16:23Z</time>
      </trkpt>
      <trkpt lat="38.216436" lon="-1.410338">
        <ele>155.3</ele>
        <time>2023-10-08T06:16:38Z</time>
      </trkpt>
      <trkpt lat="38.216259" lon="-1.410282">
        <ele>162.4</ele>
        <time>2023-10-08T06:16:51Z</time>
      </trkpt>
      <trkpt lat="38.216073" lon="-1.410277">
        <ele>154.3</ele>
        <time>2023-10-08T06:17:03Z</time>
      </trkpt>
      <trkpt lat="38.215888" lon="-1.410296">
        <ele>156.3</ele>
        <time>2023-10-08T06:17:17Z</time>
      </trkpt>
      <trkpt lat="38.215713" lon="-1.410235">
        <ele>157.3</ele>
        <time>2023-10-08T06:17:32Z</time>
      </trkpt>
      <trkpt lat="38.215536" lon="-1.410185">
        <ele>157.3</ele>
        <time>2023-10-08T06:17:45Z</time>
      </trkpt>
      <trkpt lat="38.215356" lon="-1.410134">
        <ele>156.3</ele>
        <time>2023-10-08T06:18:01Z</time>
      </trkpt>
      <trkpt lat="38.215191" lon="-1.410044">
        <ele>155.3</ele>
        <time>2023-10-08T06:18:17Z</time>
      </trkpt>
      <trkpt lat="38.215101" lon="-1.409841">
        <ele>155.3</ele>
        <time>2023-10-08T06:18:33Z</time>
      </trkpt>
      <trkpt lat="38.215032" lon="-1.409620">
        <ele>155.3</ele>
        <time>2023-10-08T06:18:47Z</time>
      </trkpt>
      <trkpt lat="38.214925" lon="-1.409432">
        <ele>155.3</ele>
        <time>2023-10-08T06:19:01Z</time>
      </trkpt>
      <trkpt lat="38.214777" lon="-1.409294">
        <ele>152.3</ele>
        <time>2023-10-08T06:19:15Z</time>
      </trkpt>
      <trkpt lat="38.214635" lon="-1.409153">
        <ele>151.3</ele>
        <time>2023-10-08T06:19:31Z</time>
      </trkpt>
      <trkpt lat="38.214489" lon="-1.409008">
        <ele>151.3</ele>
        <time>2023-10-08T06:19:45Z</time>
      </trkpt>
      <trkpt lat="38.214358" lon="-1.408840">
        <ele>151.3</ele>
        <time>2023-10-08T06:19:59Z</time>
      </trkpt>
      <trkpt lat="38.214212" lon="-1.408700">
        <ele>151.6</ele>
        <time>2023-10-08T06:20:15Z</time>
      </trkpt>
      <trkpt lat="38.214062" lon="-1.408563">
        <ele>153.0</ele>
        <time>2023-10-08T06:20:32Z</time>
      </trkpt>
      <trkpt lat="38.213909" lon="-1.408437">
        <ele>154.3</ele>
        <time>2023-10-08T06:20:52Z</time>
      </trkpt>
      <trkpt lat="38.213745" lon="-1.408332">
        <ele>154.3</ele>
        <time>2023-10-08T06:21:08Z</time>
      </trkpt>
      <trkpt lat="38.213620" lon="-1.408168">
        <ele>155.3</ele>
        <time>2023-10-08T06:21:51Z</time>
      </trkpt>
      <trkpt lat="38.213439" lon="-1.408171">
        <ele>156.0</ele>
        <time>2023-10-08T06:22:07Z</time>
      </trkpt>
      <trkpt lat="38.213255" lon="-1.408193">
        <ele>156.3</ele>
        <time>2023-10-08T06:22:23Z</time>
      </trkpt>
      <trkpt lat="38.213098" lon="-1.408076">
        <ele>158.0</ele>
        <time>2023-10-08T06:22:35Z</time>
      </trkpt>
      <trkpt lat="38.212930" lon="-1.407981">
        <ele>157.3</ele>
        <time>2023-10-08T06:22:48Z</time>
      </trkpt>
      <trkpt lat="38.212765" lon="-1.407882">
        <ele>156.3</ele>
        <time>2023-10-08T06:23:01Z</time>
      </trkpt>
      <trkpt lat="38.212621" lon="-1.407740">
        <ele>158.3</ele>
        <time>2023-10-08T06:23:15Z</time>
      </trkpt>
      <trkpt lat="38.212471" lon="-1.407600">
        <ele>160.3</ele>
        <time>2023-10-08T06:23:28Z</time>
      </trkpt>
      <trkpt lat="38.212317" lon="-1.407475">
        <ele>160.3</ele>
        <time>2023-10-08T06:23:40Z</time>
      </trkpt>
      <trkpt lat="38.212212" lon="-1.407284">
        <ele>158.3</ele>
        <time>2023-10-08T06:23:55Z</time>
      </trkpt>
      <trkpt lat="38.212080" lon="-1.407130">
        <ele>157.3</ele>
        <time>2023-10-08T06:24:08Z</time>
      </trkpt>
      <trkpt lat="38.211966" lon="-1.406939">
        <ele>156.1</ele>
        <time>2023-10-08T06:24:24Z</time>
      </trkpt>
      <trkpt lat="38.211849" lon="-1.406757">
        <ele>155.3</ele>
        <time>2023-10-08T06:24:37Z</time>
      </trkpt>
      <trkpt lat="38.211726" lon="-1.406582">
        <ele>154.3</ele>
        <time>2023-10-08T06:24:55Z</time>
      </trkpt>
      <trkpt lat="38.211611" lon="-1.406404">
        <ele>154.3</ele>
        <time>2023-10-08T06:25:09Z</time>
      </trkpt>
      <trkpt lat="38.211496" lon="-1.406217">
        <ele>156.1</ele>
        <time>2023-10-08T06:25:22Z</time>
      </trkpt>
      <trkpt lat="38.211392" lon="-1.406027">
        <ele>156.6</ele>
        <time>2023-10-08T06:25:36Z</time>
      </trkpt>
      <trkpt lat="38.211268" lon="-1.405857">
        <ele>157.3</ele>
        <time>2023-10-08T06:25:50Z</time>
      </trkpt>
      <trkpt lat="38.211126" lon="-1.405703">
        <ele>155.3</ele>
        <time>2023-10-08T06:26:05Z</time>
      </trkpt>
      <trkpt lat="38.210955" lon="-1.405630">
        <ele>154.3</ele>
        <time>2023-10-08T06:26:21Z</time>
      </trkpt>
      <trkpt lat="38.210805" lon="-1.405501">
        <ele>155.3</ele>
        <time>2023-10-08T06:26:34Z</time>
      </trkpt>
      <trkpt lat="38.210683" lon="-1.405323">
        <ele>156.3</ele>
        <time>2023-10-08T06:28:17Z</time>
      </trkpt>
      <trkpt lat="38.210535" lon="-1.405183">
        <ele>157.3</ele>
        <time>2023-10-08T06:28:40Z</time>
      </trkpt>
      <trkpt lat="38.210426" lon="-1.404999">
        <ele>157.3</ele>
        <time>2023-10-08T06:28:52Z</time>
      </trkpt>
      <trkpt lat="38.210376" lon="-1.404777">
        <ele>157.3</ele>
        <time>2023-10-08T06:29:25Z</time>
      </trkpt>
      <trkpt lat="38.210271" lon="-1.404591">
        <ele>156.3</ele>
        <time>2023-10-08T06:29:59Z</time>
      </trkpt>
      <trkpt lat="38.210168" lon="-1.404396">
        <ele>156.3</ele>
        <time>2023-10-08T06:30:30Z</time>
      </trkpt>
      <trkpt lat="38.210086" lon="-1.404189">
        <ele>155.3</ele>
        <time>2023-10-08T06:30:46Z</time>
      </trkpt>
      <trkpt lat="38.209994" lon="-1.403988">
        <ele>153.4</ele>
        <time>2023-10-08T06:31:07Z</time>
      </trkpt>
      <trkpt lat="38.209859" lon="-1.403826">
        <ele>153.3</ele>
        <time>2023-10-08T06:31:37Z</time>
      </trkpt>
      <trkpt lat="38.209757" lon="-1.403632">
        <ele>156.3</ele>
        <time>2023-10-08T06:31:57Z</time>
      </trkpt>
      <trkpt lat="38.209647" lon="-1.403442">
        <ele>155.3</ele>
        <time>2023-10-08T06:32:17Z</time>
      </trkpt>
      <trkpt lat="38.209501" lon="-1.403299">
        <ele>153.3</ele>
        <time>2023-10-08T06:32:36Z</time>
      </trkpt>
      <trkpt lat="38.209324" lon="-1.403240">
        <ele>151.3</ele>
        <time>2023-10-08T06:32:49Z</time>
      </trkpt>
      <trkpt lat="38.209146" lon="-1.403173">
        <ele>151.3</ele>
        <time>2023-10-08T06:33:05Z</time>
      </trkpt>
      <trkpt lat="38.208965" lon="-1.403183">
        <ele>154.3</ele>
        <time>2023-10-08T06:33:24Z</time>
      </trkpt>
      <trkpt lat="38.208818" lon="-1.403326">
        <ele>154.4</ele>
        <time>2023-10-08T06:33:38Z</time>
      </trkpt>
      <trkpt lat="38.208681" lon="-1.403478">
        <ele>154.3</ele>
        <time>2023-10-08T06:33:53Z</time>
      </trkpt>
      <trkpt lat="38.208505" lon="-1.403408">
        <ele>155.0</ele>
        <time>2023-10-08T06:34:09Z</time>
      </trkpt>
      <trkpt lat="38.208400" lon="-1.403215">
        <ele>155.0</ele>
        <time>2023-10-08T06:34:30Z</time>
      </trkpt>
      <trkpt lat="38.208243" lon="-1.403342">
        <ele>148.4</ele>
        <time>2023-10-08T06:36:26Z</time>
      </trkpt>
      <trkpt lat="38.208094" lon="-1.403480">
        <ele>148.3</ele>
        <time>2023-10-08T06:36:43Z</time>
      </trkpt>
      <trkpt lat="38.207944" lon="-1.403608">
        <ele>149.2</ele>
        <time>2023-10-08T06:36:58Z</time>
      </trkpt>
      <trkpt lat="38.207812" lon="-1.403765">
        <ele>155.0</ele>
        <time>2023-10-08T06:37:14Z</time>
      </trkpt>
      <trkpt lat="38.207673" lon="-1.403912">
        <ele>155.0</ele>
        <time>2023-10-08T06:37:33Z</time>
      </trkpt>
      <trkpt lat="38.207529" lon="-1.404060">
        <ele>149.3</ele>
        <time>2023-10-08T06:37:48Z</time>
      </trkpt>
      <trkpt lat="38.207395" lon="-1.404218">
        <ele>150.3</ele>
        <time>2023-10-08T06:38:02Z</time>
      </trkpt>
      <trkpt lat="38.207258" lon="-1.404373">
        <ele>150.3</ele>
        <time>2023-10-08T06:38:17Z</time>
      </trkpt>
      <trkpt lat="38.207137" lon="-1.404544">
        <ele>151.3</ele>
        <time>2023-10-08T06:38:31Z</time>
      </trkpt>
      <trkpt lat="38.207017" lon="-1.404740">
        <ele>152.3</ele>
        <time>2023-10-08T06:38:45Z</time>
      </trkpt>
      <trkpt lat="38.206938" lon="-1.404947">
        <ele>153.3</ele>
        <time>2023-10-08T06:39:03Z</time>
      </trkpt>
      <trkpt lat="38.206788" lon="-1.405080">
        <ele>152.3</ele>
        <time>2023-10-08T06:39:23Z</time>
      </trkpt>
      <trkpt lat="38.206653" lon="-1.405240">
        <ele>152.4</ele>
        <time>2023-10-08T06:39:36Z</time>
      </trkpt>
      <trkpt lat="38.206515" lon="-1.405390">
        <ele>153.2</ele>
        <time>2023-10-08T06:39:51Z</time>
      </trkpt>
      <trkpt lat="38.206358" lon="-1.405506">
        <ele>152.0</ele>
        <time>2023-10-08T06:40:02Z</time>
      </trkpt>
      <trkpt lat="38.206179" lon="-1.405554">
        <ele>149.4</ele>
        <time>2023-10-08T06:40:18Z</time>
      </trkpt>
      <trkpt lat="38.205999" lon="-1.405574">
        <ele>150.3</ele>
        <time>2023-10-08T06:40:32Z</time>
      </trkpt>
      <trkpt lat="38.205809" lon="-1.405568">
        <ele>150.3</ele>
        <time>2023-10-08T06:40:49Z</time>
      </trkpt>
      <trkpt lat="38.205641" lon="-1.405657">
        <ele>150.0</ele>
        <time>2023-10-08T06:41:01Z</time>
      </trkpt>
      <trkpt lat="38.205458" lon="-1.405659">
        <ele>150.0</ele>
        <time>2023-10-08T06:41:14Z</time>
      </trkpt>
      <trkpt lat="38.205272" lon="-1.405638">
        <ele>150.0</ele>
        <time>2023-10-08T06:41:26Z</time>
      </trkpt>
      <trkpt lat="38.205088" lon="-1.405607">
        <ele>150.0</ele>
        <time>2023-10-08T06:41:42Z</time>
      </trkpt>
      <trkpt lat="38.204906" lon="-1.405614">
        <ele>150.0</ele>
        <time>2023-10-08T06:41:56Z</time>
      </trkpt>
      <trkpt lat="38.204721" lon="-1.405661">
        <ele>150.0</ele>
        <time>2023-10-08T06:42:09Z</time>
      </trkpt>
      <trkpt lat="38.204541" lon="-1.405674">
        <ele>149.0</ele>
        <time>2023-10-08T06:42:23Z</time>
      </trkpt>
      <trkpt lat="38.204360" lon="-1.405664">
        <ele>149.0</ele>
        <time>2023-10-08T06:42:36Z</time>
      </trkpt>
      <trkpt lat="38.204189" lon="-1.405746">
        <ele>148.0</ele>
        <time>2023-10-08T06:42:50Z</time>
      </trkpt>
      <trkpt lat="38.204006" lon="-1.405724">
        <ele>144.3</ele>
        <time>2023-10-08T06:43:05Z</time>
      </trkpt>
      <trkpt lat="38.203825" lon="-1.405719">
        <ele>146.3</ele>
        <time>2023-10-08T06:43:20Z</time>
      </trkpt>
      <trkpt lat="38.203654" lon="-1.405802">
        <ele>146.6</ele>
        <time>2023-10-08T06:43:32Z</time>
      </trkpt>
      <trkpt lat="38.203472" lon="-1.405777">
        <ele>153.0</ele>
        <time>2023-10-08T06:43:49Z</time>
      </trkpt>
      <trkpt lat="38.203301" lon="-1.405857">
        <ele>155.4</ele>
        <time>2023-10-08T06:44:05Z</time>
      </trkpt>
      <trkpt lat="38.203120" lon="-1.405882">
        <ele>155.4</ele>
        <time>2023-10-08T06:44:17Z</time>
      </trkpt>
      <trkpt lat="38.202944" lon="-1.405814">
        <ele>155.4</ele>
        <time>2023-10-08T06:44:38Z</time>
      </trkpt>
      <trkpt lat="38.202770" lon="-1.405730">
        <ele>155.4</ele>
        <time>2023-10-08T06:44:50Z</time>
      </trkpt>
      <trkpt lat="38.202594" lon="-1.405676">
        <ele>155.4</ele>
        <time>2023-10-08T06:45:03Z</time>
      </trkpt>
      <trkpt lat="38.202420" lon="-1.405609">
        <ele>142.6</ele>
        <time>2023-10-08T06:45:16Z</time>
      </trkpt>
      <trkpt lat="38.202239" lon="-1.405550">
        <ele>153.5</ele>
        <time>2023-10-08T06:45:30Z</time>
      </trkpt>
      <trkpt lat="38.202069" lon="-1.405450">
        <ele>153.6</ele>
        <time>2023-10-08T06:45:50Z</time>
      </trkpt>
      <trkpt lat="38.201890" lon="-1.405396">
        <ele>145.1</ele>
        <time>2023-10-08T06:46:03Z</time>
      </trkpt>
      <trkpt lat="38.201705" lon="-1.405374">
        <ele>153.5</ele>
        <time>2023-10-08T06:46:15Z</time>
      </trkpt>
      <trkpt lat="38.201524" lon="-1.405339">
        <ele>153.5</ele>
        <time>2023-10-08T06:46:29Z</time>
      </trkpt>
      <trkpt lat="38.201344" lon="-1.405300">
        <ele>153.5</ele>
        <time>2023-10-08T06:46:45Z</time>
      </trkpt>
      <trkpt lat="38.201167" lon="-1.405245">
        <ele>153.5</ele>
        <time>2023-10-08T06:47:00Z</time>
      </trkpt>
      <trkpt lat="38.201031" lon="-1.405093">
        <ele>153.5</ele>
        <time>2023-10-08T06:47:12Z</time>
      </trkpt>
      <trkpt lat="38.200919" lon="-1.404908">
        <ele>153.5</ele>
        <time>2023-10-08T06:47:26Z</time>
      </trkpt>
      <trkpt lat="38.200756" lon="-1.404802">
        <ele>153.5</ele>
        <time>2023-10-08T06:47:44Z</time>
      </trkpt>
      <trkpt lat="38.200624" lon="-1.404643">
        <ele>152.3</ele>
        <time>2023-10-08T06:47:57Z</time>
      </trkpt>
      <trkpt lat="38.200489" lon="-1.404487">
        <ele>152.3</ele>
        <time>2023-10-08T06:48:10Z</time>
      </trkpt>
      <trkpt lat="38.200352" lon="-1.404333">
        <ele>152.3</ele>
        <time>2023-10-08T06:48:24Z</time>
      </trkpt>
      <trkpt lat="38.200198" lon="-1.404198">
        <ele>154.7</ele>
        <time>2023-10-08T06:48:44Z</time>
      </trkpt>
      <trkpt lat="38.200041" lon="-1.404078">
        <ele>155.1</ele>
        <time>2023-10-08T06:48:59Z</time>
      </trkpt>
      <trkpt lat="38.200113" lon="-1.403865">
        <ele>154.9</ele>
        <time>2023-10-08T06:49:22Z</time>
      </trkpt>
      <trkpt lat="38.200217" lon="-1.403671">
        <ele>154.9</ele>
        <time>2023-10-08T06:49:35Z</time>
      </trkpt>
      <trkpt lat="38.200295" lon="-1.403455">
        <ele>153.9</ele>
        <time>2023-10-08T06:49:49Z</time>
      </trkpt>
      <trkpt lat="38.200453" lon="-1.403342">
        <ele>154.9</ele>
        <time>2023-10-08T06:50:17Z</time>
      </trkpt>
      <trkpt lat="38.200633" lon="-1.403333">
        <ele>153.9</ele>
        <time>2023-10-08T06:50:28Z</time>
      </trkpt>
      <trkpt lat="38.200457" lon="-1.403291">
        <ele>153.9</ele>
        <time>2023-10-08T06:51:01Z</time>
      </trkpt>
      <trkpt lat="38.200282" lon="-1.403369">
        <ele>153.9</ele>
        <time>2023-10-08T06:51:17Z</time>
      </trkpt>
      <trkpt lat="38.200120" lon="-1.403260">
        <ele>154.9</ele>
        <time>2023-10-08T06:51:30Z</time>
      </trkpt>
      <trkpt lat="38.199994" lon="-1.403089">
        <ele>154.7</ele>
        <time>2023-10-08T06:51:43Z</time>
      </trkpt>
      <trkpt lat="38.199912" lon="-1.402883">
        <ele>154.7</ele>
        <time>2023-10-08T06:51:55Z</time>
      </trkpt>
      <trkpt lat="38.199804" lon="-1.402693">
        <ele>154.7</ele>
        <time>2023-10-08T06:52:09Z</time>
      </trkpt>
      <trkpt lat="38.199700" lon="-1.402499">
        <ele>154.8</ele>
        <time>2023-10-08T06:52:25Z</time>
      </trkpt>
      <trkpt lat="38.199585" lon="-1.402320">
        <ele>139.3</ele>
        <time>2023-10-08T06:52:40Z</time>
      </trkpt>
      <trkpt lat="38.199475" lon="-1.402136">
        <ele>137.3</ele>
        <time>2023-10-08T06:52:57Z</time>
      </trkpt>
      <trkpt lat="38.199368" lon="-1.401950">
        <ele>136.3</ele>
        <time>2023-10-08T06:53:11Z</time>
      </trkpt>
      <trkpt lat="38.199252" lon="-1.401772">
        <ele>138.0</ele>
        <time>2023-10-08T06:53:24Z</time>
      </trkpt>
      <trkpt lat="38.199138" lon="-1.401583">
        <ele>138.3</ele>
        <time>2023-10-08T06:53:38Z</time>
      </trkpt>
      <trkpt lat="38.199043" lon="-1.401383">
        <ele>141.0</ele>
        <time>2023-10-08T06:53:52Z</time>
      </trkpt>
      <trkpt lat="38.198950" lon="-1.401179">
        <ele>139.3</ele>
        <time>2023-10-08T06:54:05Z</time>
      </trkpt>
      <trkpt lat="38.198831" lon="-1.401002">
        <ele>138.3</ele>
        <time>2023-10-08T06:54:20Z</time>
      </trkpt>
      <trkpt lat="38.198743" lon="-1.400795">
        <ele>138.3</ele>
        <time>2023-10-08T06:54:33Z</time>
      </trkpt>
      <trkpt lat="38.198648" lon="-1.400598">
        <ele>139.4</ele>
        <time>2023-10-08T06:54:46Z</time>
      </trkpt>
      <trkpt lat="38.198579" lon="-1.400381">
        <ele>141.2</ele>
        <time>2023-10-08T06:54:58Z</time>
      </trkpt>
      <trkpt lat="38.198507" lon="-1.400161">
        <ele>141.3</ele>
        <time>2023-10-08T06:55:11Z</time>
      </trkpt>
      <trkpt lat="38.198447" lon="-1.399940">
        <ele>143.3</ele>
        <time>2023-10-08T06:55:24Z</time>
      </trkpt>
      <trkpt lat="38.198380" lon="-1.399722">
        <ele>147.3</ele>
        <time>2023-10-08T06:56:00Z</time>
      </trkpt>
      <trkpt lat="38.198326" lon="-1.399498">
        <ele>146.3</ele>
        <time>2023-10-08T06:56:14Z</time>
      </trkpt>
      <trkpt lat="38.198315" lon="-1.399264">
        <ele>145.3</ele>
        <time>2023-10-08T06:56:29Z</time>
      </trkpt>
      <trkpt lat="38.198365" lon="-1.399043">
        <ele>146.3</ele>
        <time>2023-10-08T06:56:43Z</time>
      </trkpt>
      <trkpt lat="38.198470" lon="-1.398855">
        <ele>148.2</ele>
        <time>2023-10-08T06:56:56Z</time>
      </trkpt>
      <trkpt lat="38.198580" lon="-1.398670">
        <ele>149.3</ele>
        <time>2023-10-08T06:57:08Z</time>
      </trkpt>
      <trkpt lat="38.198705" lon="-1.398501">
        <ele>150.3</ele>
        <time>2023-10-08T06:57:21Z</time>
      </trkpt>
      <trkpt lat="38.198843" lon="-1.398354">
        <ele>148.4</ele>
        <time>2023-10-08T06:57:35Z</time>
      </trkpt>
      <trkpt lat="38.199016" lon="-1.398268">
        <ele>150.3</ele>
        <time>2023-10-08T06:57:48Z</time>
      </trkpt>
      <trkpt lat="38.199124" lon="-1.398077">
        <ele>153.2</ele>
        <time>2023-10-08T06:58:05Z</time>
      </trkpt>
      <trkpt lat="38.199208" lon="-1.397871">
        <ele>152.3</ele>
        <time>2023-10-08T06:58:24Z</time>
      </trkpt>
      <trkpt lat="38.199273" lon="-1.397658">
        <ele>152.4</ele>
        <time>2023-10-08T06:58:35Z</time>
      </trkpt>
      <trkpt lat="38.199348" lon="-1.397441">
        <ele>151.3</ele>
        <time>2023-10-08T06:58:51Z</time>
      </trkpt>
      <trkpt lat="38.199387" lon="-1.397217">
        <ele>147.4</ele>
        <time>2023-10-08T06:59:04Z</time>
      </trkpt>
      <trkpt lat="38.199404" lon="-1.396989">
        <ele>143.4</ele>
        <time>2023-10-08T06:59:18Z</time>
      </trkpt>
      <trkpt lat="38.199475" lon="-1.396771">
        <ele>144.3</ele>
        <time>2023-10-08T06:59:32Z</time>
      </trkpt>
      <trkpt lat="38.199533" lon="-1.396549">
        <ele>145.3</ele>
        <time>2023-10-08T06:59:46Z</time>
      </trkpt>
      <trkpt lat="38.199604" lon="-1.396333">
        <ele>144.2</ele>
        <time>2023-10-08T07:00:02Z</time>
      </trkpt>
      <trkpt lat="38.199680" lon="-1.396119">
        <ele>153.7</ele>
        <time>2023-10-08T07:00:16Z</time>
      </trkpt>
      <trkpt lat="38.199754" lon="-1.395903">
        <ele>153.7</ele>
        <time>2023-10-08T07:00:28Z</time>
      </trkpt>
      <trkpt lat="38.199825" lon="-1.395686">
        <ele>153.7</ele>
        <time>2023-10-08T07:00:49Z</time>
      </trkpt>
      <trkpt lat="38.199905" lon="-1.395477">
        <ele>153.7</ele>
        <time>2023-10-08T07:01:02Z</time>
      </trkpt>
      <trkpt lat="38.199995" lon="-1.395275">
        <ele>150.5</ele>
        <time>2023-10-08T07:01:15Z</time>
      </trkpt>
      <trkpt lat="38.200124" lon="-1.395109">
        <ele>153.7</ele>
        <time>2023-10-08T07:01:27Z</time>
      </trkpt>
      <trkpt lat="38.200262" lon="-1.394954">
        <ele>145.4</ele>
        <time>2023-10-08T07:01:41Z</time>
      </trkpt>
      <trkpt lat="38.200421" lon="-1.394820">
        <ele>144.3</ele>
        <time>2023-10-08T07:01:58Z</time>
      </trkpt>
      <trkpt lat="38.200573" lon="-1.394695">
        <ele>161.7</ele>
        <time>2023-10-08T07:02:12Z</time>
      </trkpt>
      <trkpt lat="38.200741" lon="-1.394597">
        <ele>145.3</ele>
        <time>2023-10-08T07:03:05Z</time>
      </trkpt>
      <trkpt lat="38.200930" lon="-1.394574">
        <ele>143.0</ele>
        <time>2023-10-08T07:03:18Z</time>
      </trkpt>
      <trkpt lat="38.201110" lon="-1.394522">
        <ele>144.3</ele>
        <time>2023-10-08T07:04:39Z</time>
      </trkpt>
      <trkpt lat="38.201277" lon="-1.394432">
        <ele>143.3</ele>
        <time>2023-10-08T07:05:00Z</time>
      </trkpt>
      <trkpt lat="38.201383" lon="-1.394250">
        <ele>139.3</ele>
        <time>2023-10-08T07:08:08Z</time>
      </trkpt>
      <trkpt lat="38.201561" lon="-1.394268">
        <ele>141.3</ele>
        <time>2023-10-08T07:09:06Z</time>
      </trkpt>
      <trkpt lat="38.201749" lon="-1.394263">
        <ele>141.3</ele>
        <time>2023-10-08T07:09:19Z</time>
      </trkpt>
      <trkpt lat="38.201929" lon="-1.394226">
        <ele>142.1</ele>
        <time>2023-10-08T07:09:33Z</time>
      </trkpt>
      <trkpt lat="38.202113" lon="-1.394197">
        <ele>141.6</ele>
        <time>2023-10-08T07:09:45Z</time>
      </trkpt>
      <trkpt lat="38.202298" lon="-1.394180">
        <ele>142.3</ele>
        <time>2023-10-08T07:09:58Z</time>
      </trkpt>
      <trkpt lat="38.202477" lon="-1.394157">
        <ele>141.3</ele>
        <time>2023-10-08T07:10:11Z</time>
      </trkpt>
      <trkpt lat="38.202645" lon="-1.394056">
        <ele>142.3</ele>
        <time>2023-10-08T07:10:22Z</time>
      </trkpt>
      <trkpt lat="38.202781" lon="-1.393903">
        <ele>146.2</ele>
        <time>2023-10-08T07:10:36Z</time>
      </trkpt>
      <trkpt lat="38.202922" lon="-1.393760">
        <ele>145.3</ele>
        <time>2023-10-08T07:10:48Z</time>
      </trkpt>
      <trkpt lat="38.203076" lon="-1.393638">
        <ele>142.4</ele>
        <time>2023-10-08T07:11:05Z</time>
      </trkpt>
      <trkpt lat="38.203218" lon="-1.393484">
        <ele>142.3</ele>
        <time>2023-10-08T07:11:20Z</time>
      </trkpt>
      <trkpt lat="38.203271" lon="-1.393253">
        <ele>155.2</ele>
        <time>2023-10-08T07:11:56Z</time>
      </trkpt>
      <trkpt lat="38.203362" lon="-1.393050">
        <ele>149.9</ele>
        <time>2023-10-08T07:12:10Z</time>
      </trkpt>
      <trkpt lat="38.203372" lon="-1.392811">
        <ele>149.9</ele>
        <time>2023-10-08T07:12:25Z</time>
      </trkpt>
      <trkpt lat="38.203330" lon="-1.392580">
        <ele>145.3</ele>
        <time>2023-10-08T07:12:41Z</time>
      </trkpt>
      <trkpt lat="38.203150" lon="-1.392600">
        <ele>143.3</ele>
        <time>2023-10-08T07:13:32Z</time>
      </trkpt>
      <trkpt lat="38.202965" lon="-1.392634">
        <ele>149.9</ele>
        <time>2023-10-08T07:14:06Z</time>
      </trkpt>
      <trkpt lat="38.202800" lon="-1.392535">
        <ele>149.9</ele>
        <time>2023-10-08T07:14:20Z</time>
      </trkpt>
      <trkpt lat="38.202625" lon="-1.392476">
        <ele>170.7</ele>
        <time>2023-10-08T07:14:32Z</time>
      </trkpt>
      <trkpt lat="38.202453" lon="-1.392404">
        <ele>144.3</ele>
        <time>2023-10-08T07:14:52Z</time>
      </trkpt>
      <trkpt lat="38.202275" lon="-1.392353">
        <ele>144.2</ele>
        <time>2023-10-08T07:15:07Z</time>
      </trkpt>
      <trkpt lat="38.202098" lon="-1.392298">
        <ele>144.3</ele>
        <time>2023-10-08T07:15:25Z</time>
      </trkpt>
      <trkpt lat="38.201913" lon="-1.392273">
        <ele>145.3</ele>
        <time>2023-10-08T07:15:37Z</time>
      </trkpt>
      <trkpt lat="38.201772" lon="-1.392121">
        <ele>144.6</ele>
        <time>2023-10-08T07:15:53Z</time>
      </trkpt>
      <trkpt lat="38.201758" lon="-1.391888">
        <ele>147.3</ele>
        <time>2023-10-08T07:16:18Z</time>
      </trkpt>
      <trkpt lat="38.201766" lon="-1.391654">
        <ele>147.3</ele>
        <time>2023-10-08T07:16:30Z</time>
      </trkpt>
      <trkpt lat="38.201759" lon="-1.391421">
        <ele>147.6</ele>
        <time>2023-10-08T07:16:41Z</time>
      </trkpt>
      <trkpt lat="38.201746" lon="-1.391191">
        <ele>149.0</ele>
        <time>2023-10-08T07:16:53Z</time>
      </trkpt>
      <trkpt lat="38.201595" lon="-1.391064">
        <ele>147.4</ele>
        <time>2023-10-08T07:17:09Z</time>
      </trkpt>
      <trkpt lat="38.201602" lon="-1.390834">
        <ele>148.3</ele>
        <time>2023-10-08T07:17:23Z</time>
      </trkpt>
      <trkpt lat="38.201585" lon="-1.390603">
        <ele>149.3</ele>
        <time>2023-10-08T07:17:36Z</time>
      </trkpt>
      <trkpt lat="38.201584" lon="-1.390370">
        <ele>148.3</ele>
        <time>2023-10-08T07:17:50Z</time>
      </trkpt>
      <trkpt lat="38.201589" lon="-1.390133">
        <ele>148.3</ele>
        <time>2023-10-08T07:18:04Z</time>
      </trkpt>
      <trkpt lat="38.201448" lon="-1.389988">
        <ele>144.4</ele>
        <time>2023-10-08T07:18:24Z</time>
      </trkpt>
      <trkpt lat="38.201370" lon="-1.389777">
        <ele>148.6</ele>
        <time>2023-10-08T07:18:40Z</time>
      </trkpt>
      <trkpt lat="38.201343" lon="-1.389546">
        <ele>148.3</ele>
        <time>2023-10-08T07:19:03Z</time>
      </trkpt>
      <trkpt lat="38.201305" lon="-1.389304">
        <ele>149.4</ele>
        <time>2023-10-08T07:19:19Z</time>
      </trkpt>
      <trkpt lat="38.201250" lon="-1.389081">
        <ele>152.4</ele>
        <time>2023-10-08T07:19:35Z</time>
      </trkpt>
      <trkpt lat="38.201185" lon="-1.388864">
        <ele>152.4</ele>
        <time>2023-10-08T07:19:46Z</time>
      </trkpt>
      <trkpt lat="38.201122" lon="-1.388641">
        <ele>153.4</ele>
        <time>2023-10-08T07:19:58Z</time>
      </trkpt>
      <trkpt lat="38.201008" lon="-1.388458">
        <ele>152.4</ele>
        <time>2023-10-08T07:20:11Z</time>
      </trkpt>
      <trkpt lat="38.200905" lon="-1.388263">
        <ele>156.3</ele>
        <time>2023-10-08T07:20:28Z</time>
      </trkpt>
      <trkpt lat="38.200739" lon="-1.388145">
        <ele>156.4</ele>
        <time>2023-10-08T07:20:44Z</time>
      </trkpt>
      <trkpt lat="38.200552" lon="-1.388140">
        <ele>156.4</ele>
        <time>2023-10-08T07:20:57Z</time>
      </trkpt>
      <trkpt lat="38.200369" lon="-1.388118">
        <ele>152.6</ele>
        <time>2023-10-08T07:21:11Z</time>
      </trkpt>
      <trkpt lat="38.200218" lon="-1.387983">
        <ele>151.3</ele>
        <time>2023-10-08T07:21:25Z</time>
      </trkpt>
      <trkpt lat="38.200067" lon="-1.387849">
        <ele>152.4</ele>
        <time>2023-10-08T07:21:38Z</time>
      </trkpt>
      <trkpt lat="38.199915" lon="-1.387722">
        <ele>151.4</ele>
        <time>2023-10-08T07:21:52Z</time>
      </trkpt>
      <trkpt lat="38.199752" lon="-1.387601">
        <ele>149.4</ele>
        <time>2023-10-08T07:22:05Z</time>
      </trkpt>
      <trkpt lat="38.199568" lon="-1.387562">
        <ele>146.4</ele>
        <time>2023-10-08T07:22:20Z</time>
      </trkpt>
      <trkpt lat="38.199386" lon="-1.387533">
        <ele>147.4</ele>
        <time>2023-10-08T07:22:34Z</time>
      </trkpt>
      <trkpt lat="38.199233" lon="-1.387411">
        <ele>146.4</ele>
        <time>2023-10-08T07:22:49Z</time>
      </trkpt>
      <trkpt lat="38.199108" lon="-1.387235">
        <ele>151.4</ele>
        <time>2023-10-08T07:23:19Z</time>
      </trkpt>
      <trkpt lat="38.198937" lon="-1.387163">
        <ele>152.4</ele>
        <time>2023-10-08T07:23:31Z</time>
      </trkpt>
      <trkpt lat="38.198761" lon="-1.387093">
        <ele>151.4</ele>
        <time>2023-10-08T07:23:43Z</time>
      </trkpt>
      <trkpt lat="38.198598" lon="-1.386995">
        <ele>151.4</ele>
        <time>2023-10-08T07:23:56Z</time>
      </trkpt>
      <trkpt lat="38.198428" lon="-1.386902">
        <ele>150.3</ele>
        <time>2023-10-08T07:24:10Z</time>
      </trkpt>
      <trkpt lat="38.198240" lon="-1.386911">
        <ele>151.4</ele>
        <time>2023-10-08T07:24:22Z</time>
      </trkpt>
      <trkpt lat="38.198071" lon="-1.387016">
        <ele>152.4</ele>
        <time>2023-10-08T07:24:34Z</time>
      </trkpt>
      <trkpt lat="38.197897" lon="-1.387079">
        <ele>154.4</ele>
        <time>2023-10-08T07:24:47Z</time>
      </trkpt>
      <trkpt lat="38.197740" lon="-1.387207">
        <ele>153.4</ele>
        <time>2023-10-08T07:25:01Z</time>
      </trkpt>
      <trkpt lat="38.197691" lon="-1.387435">
        <ele>151.3</ele>
        <time>2023-10-08T07:25:14Z</time>
      </trkpt>
      <trkpt lat="38.197600" lon="-1.387634">
        <ele>151.3</ele>
        <time>2023-10-08T07:25:28Z</time>
      </trkpt>
      <trkpt lat="38.197418" lon="-1.387643">
        <ele>152.4</ele>
        <time>2023-10-08T07:25:41Z</time>
      </trkpt>
      <trkpt lat="38.197252" lon="-1.387544">
        <ele>150.6</ele>
        <time>2023-10-08T07:26:00Z</time>
      </trkpt>
      <trkpt lat="38.197152" lon="-1.387348">
        <ele>149.4</ele>
        <time>2023-10-08T07:26:12Z</time>
      </trkpt>
      <trkpt lat="38.197019" lon="-1.387183">
        <ele>150.4</ele>
        <time>2023-10-08T07:26:27Z</time>
      </trkpt>
      <trkpt lat="38.196939" lon="-1.386977">
        <ele>153.4</ele>
        <time>2023-10-08T07:27:26Z</time>
      </trkpt>
      <trkpt lat="38.196902" lon="-1.386752">
        <ele>155.3</ele>
        <time>2023-10-08T07:27:38Z</time>
      </trkpt>
      <trkpt lat="38.196994" lon="-1.386548">
        <ele>153.4</ele>
        <time>2023-10-08T07:27:50Z</time>
      </trkpt>
      <trkpt lat="38.197122" lon="-1.386380">
        <ele>151.6</ele>
        <time>2023-10-08T07:28:04Z</time>
      </trkpt>
      <trkpt lat="38.197216" lon="-1.386183">
        <ele>148.6</ele>
        <time>2023-10-08T07:28:16Z</time>
      </trkpt>
      <trkpt lat="38.197025" lon="-1.386193">
        <ele>155.3</ele>
        <time>2023-10-08T07:28:53Z</time>
      </trkpt>
      <trkpt lat="38.196848" lon="-1.386242">
        <ele>158.4</ele>
        <time>2023-10-08T07:29:08Z</time>
      </trkpt>
      <trkpt lat="38.196666" lon="-1.386213">
        <ele>159.4</ele>
        <time>2023-10-08T07:29:23Z</time>
      </trkpt>
      <trkpt lat="38.196526" lon="-1.386357">
        <ele>161.4</ele>
        <time>2023-10-08T07:29:36Z</time>
      </trkpt>
      <trkpt lat="38.196370" lon="-1.386227">
        <ele>162.4</ele>
        <time>2023-10-08T07:29:48Z</time>
      </trkpt>
      <trkpt lat="38.196185" lon="-1.386245">
        <ele>163.3</ele>
        <time>2023-10-08T07:30:01Z</time>
      </trkpt>
      <trkpt lat="38.196001" lon="-1.386255">
        <ele>163.4</ele>
        <time>2023-10-08T07:30:14Z</time>
      </trkpt>
      <trkpt lat="38.195817" lon="-1.386259">
        <ele>162.4</ele>
        <time>2023-10-08T07:30:27Z</time>
      </trkpt>
      <trkpt lat="38.195641" lon="-1.386215">
        <ele>159.4</ele>
        <time>2023-10-08T07:30:40Z</time>
      </trkpt>
      <trkpt lat="38.195455" lon="-1.386192">
        <ele>161.0</ele>
        <time>2023-10-08T07:30:52Z</time>
      </trkpt>
      <trkpt lat="38.195297" lon="-1.386315">
        <ele>162.4</ele>
        <time>2023-10-08T07:31:05Z</time>
      </trkpt>
      <trkpt lat="38.195115" lon="-1.386342">
        <ele>162.4</ele>
        <time>2023-10-08T07:31:17Z</time>
      </trkpt>
      <trkpt lat="38.194946" lon="-1.386257">
        <ele>166.4</ele>
        <time>2023-10-08T07:31:31Z</time>
      </trkpt>
      <trkpt lat="38.194770" lon="-1.386193">
        <ele>168.3</ele>
        <time>2023-10-08T07:31:43Z</time>
      </trkpt>
      <trkpt lat="38.194582" lon="-1.386157">
        <ele>170.4</ele>
        <time>2023-10-08T07:31:55Z</time>
      </trkpt>
      <trkpt lat="38.194422" lon="-1.386033">
        <ele>167.4</ele>
        <time>2023-10-08T07:32:10Z</time>
      </trkpt>
      <trkpt lat="38.194259" lon="-1.385922">
        <ele>166.4</ele>
        <time>2023-10-08T07:32:24Z</time>
      </trkpt>
      <trkpt lat="38.194101" lon="-1.385810">
        <ele>167.1</ele>
        <time>2023-10-08T07:32:38Z</time>
      </trkpt>
      <trkpt lat="38.193921" lon="-1.385783">
        <ele>167.3</ele>
        <time>2023-10-08T07:32:52Z</time>
      </trkpt>
      <trkpt lat="38.193862" lon="-1.386005">
        <ele>164.4</ele>
        <time>2023-10-08T07:33:16Z</time>
      </trkpt>
      <trkpt lat="38.193743" lon="-1.386183">
        <ele>160.3</ele>
        <time>2023-10-08T07:33:52Z</time>
      </trkpt>
      <trkpt lat="38.193581" lon="-1.386304">
        <ele>160.4</ele>
        <time>2023-10-08T07:34:04Z</time>
      </trkpt>
      <trkpt lat="38.193436" lon="-1.386446">
        <ele>160.4</ele>
        <time>2023-10-08T07:34:16Z</time>
      </trkpt>
      <trkpt lat="38.193275" lon="-1.386555">
        <ele>160.4</ele>
        <time>2023-10-08T07:34:27Z</time>
      </trkpt>
      <trkpt lat="38.193091" lon="-1.386602">
        <ele>160.4</ele>
        <time>2023-10-08T07:34:40Z</time>
      </trkpt>
      <trkpt lat="38.192911" lon="-1.386652">
        <ele>160.4</ele>
        <time>2023-10-08T07:34:52Z</time>
      </trkpt>
      <trkpt lat="38.192737" lon="-1.386731">
        <ele>160.4</ele>
        <time>2023-10-08T07:35:04Z</time>
      </trkpt>
      <trkpt lat="38.192558" lon="-1.386792">
        <ele>158.4</ele>
        <time>2023-10-08T07:35:27Z</time>
      </trkpt>
      <trkpt lat="38.192378" lon="-1.386783">
        <ele>158.4</ele>
        <time>2023-10-08T07:35:40Z</time>
      </trkpt>
      <trkpt lat="38.192199" lon="-1.386747">
        <ele>157.3</ele>
        <time>2023-10-08T07:35:53Z</time>
      </trkpt>
      <trkpt lat="38.192021" lon="-1.386688">
        <ele>157.4</ele>
        <time>2023-10-08T07:36:06Z</time>
      </trkpt>
      <trkpt lat="38.191853" lon="-1.386582">
        <ele>157.4</ele>
        <time>2023-10-08T07:36:21Z</time>
      </trkpt>
      <trkpt lat="38.191716" lon="-1.386426">
        <ele>152.4</ele>
        <time>2023-10-08T07:36:33Z</time>
      </trkpt>
      <trkpt lat="38.191539" lon="-1.386460">
        <ele>149.4</ele>
        <time>2023-10-08T07:36:46Z</time>
      </trkpt>
      <trkpt lat="38.191374" lon="-1.386555">
        <ele>148.4</ele>
        <time>2023-10-08T07:37:07Z</time>
      </trkpt>
      <trkpt lat="38.191193" lon="-1.386574">
        <ele>149.4</ele>
        <time>2023-10-08T07:37:30Z</time>
      </trkpt>
      <trkpt lat="38.191018" lon="-1.386626">
        <ele>149.3</ele>
        <time>2023-10-08T07:37:42Z</time>
      </trkpt>
      <trkpt lat="38.190857" lon="-1.386736">
        <ele>146.4</ele>
        <time>2023-10-08T07:37:55Z</time>
      </trkpt>
      <trkpt lat="38.190673" lon="-1.386790">
        <ele>145.4</ele>
        <time>2023-10-08T07:38:08Z</time>
      </trkpt>
      <trkpt lat="38.190496" lon="-1.386848">
        <ele>146.0</ele>
        <time>2023-10-08T07:38:20Z</time>
      </trkpt>
      <trkpt lat="38.190317" lon="-1.386897">
        <ele>145.4</ele>
        <time>2023-10-08T07:38:27Z</time>
      </trkpt>
      <trkpt lat="38.190130" lon="-1.386905">
        <ele>147.4</ele>
        <time>2023-10-08T07:38:36Z</time>
      </trkpt>
      <trkpt lat="38.189950" lon="-1.386882">
        <ele>149.4</ele>
        <time>2023-10-08T07:38:46Z</time>
      </trkpt>
      <trkpt lat="38.189767" lon="-1.386864">
        <ele>149.4</ele>
        <time>2023-10-08T07:38:59Z</time>
      </trkpt>
      <trkpt lat="38.189581" lon="-1.386878">
        <ele>151.3</ele>
        <time>2023-10-08T07:39:12Z</time>
      </trkpt>
      <trkpt lat="38.189400" lon="-1.386871">
        <ele>152.3</ele>
        <time>2023-10-08T07:39:24Z</time>
      </trkpt>
      <trkpt lat="38.189213" lon="-1.386848">
        <ele>152.4</ele>
        <time>2023-10-08T07:39:36Z</time>
      </trkpt>
      <trkpt lat="38.189025" lon="-1.386841">
        <ele>153.4</ele>
        <time>2023-10-08T07:39:49Z</time>
      </trkpt>
      <trkpt lat="38.188842" lon="-1.386810">
        <ele>153.4</ele>
        <time>2023-10-08T07:40:02Z</time>
      </trkpt>
      <trkpt lat="38.188657" lon="-1.386775">
        <ele>154.4</ele>
        <time>2023-10-08T07:40:14Z</time>
      </trkpt>
      <trkpt lat="38.188469" lon="-1.386761">
        <ele>156.3</ele>
        <time>2023-10-08T07:40:34Z</time>
      </trkpt>
      <trkpt lat="38.188287" lon="-1.386771">
        <ele>157.4</ele>
        <time>2023-10-08T07:40:49Z</time>
      </trkpt>
      <trkpt lat="38.188099" lon="-1.386800">
        <ele>156.4</ele>
        <time>2023-10-08T07:41:01Z</time>
      </trkpt>
      <trkpt lat="38.187910" lon="-1.386785">
        <ele>157.3</ele>
        <time>2023-10-08T07:41:14Z</time>
      </trkpt>
      <trkpt lat="38.187729" lon="-1.386754">
        <ele>158.4</ele>
        <time>2023-10-08T07:41:27Z</time>
      </trkpt>
      <trkpt lat="38.187552" lon="-1.386715">
        <ele>157.6</ele>
        <time>2023-10-08T07:41:50Z</time>
      </trkpt>
      <trkpt lat="38.187463" lon="-1.386503">
        <ele>156.4</ele>
        <time>2023-10-08T07:42:04Z</time>
      </trkpt>
      <trkpt lat="38.187428" lon="-1.386270">
        <ele>154.4</ele>
        <time>2023-10-08T07:42:18Z</time>
      </trkpt>
      <trkpt lat="38.187343" lon="-1.386059">
        <ele>154.4</ele>
        <time>2023-10-08T07:42:37Z</time>
      </trkpt>
      <trkpt lat="38.187250" lon="-1.385853">
        <ele>152.4</ele>
        <time>2023-10-08T07:42:53Z</time>
      </trkpt>
      <trkpt lat="38.187106" lon="-1.385710">
        <ele>152.1</ele>
        <time>2023-10-08T07:43:10Z</time>
      </trkpt>
      <trkpt lat="38.186982" lon="-1.385540">
        <ele>148.4</ele>
        <time>2023-10-08T07:43:29Z</time>
      </trkpt>
      <trkpt lat="38.186859" lon="-1.385364">
        <ele>148.1</ele>
        <time>2023-10-08T07:43:40Z</time>
      </trkpt>
      <trkpt lat="38.186700" lon="-1.385243">
        <ele>145.7</ele>
        <time>2023-10-08T07:43:56Z</time>
      </trkpt>
      <trkpt lat="38.186524" lon="-1.385162">
        <ele>142.4</ele>
        <time>2023-10-08T07:44:12Z</time>
      </trkpt>
      <trkpt lat="38.186343" lon="-1.385124">
        <ele>142.4</ele>
        <time>2023-10-08T07:44:26Z</time>
      </trkpt>
      <trkpt lat="38.186161" lon="-1.385118">
        <ele>142.4</ele>
        <time>2023-10-08T07:44:39Z</time>
      </trkpt>
      <trkpt lat="38.186016" lon="-1.384978">
        <ele>143.4</ele>
        <time>2023-10-08T07:44:54Z</time>
      </trkpt>
      <trkpt lat="38.185861" lon="-1.384847">
        <ele>142.4</ele>
        <time>2023-10-08T07:45:07Z</time>
      </trkpt>
      <trkpt lat="38.185730" lon="-1.384688">
        <ele>142.4</ele>
        <time>2023-10-08T07:45:21Z</time>
      </trkpt>
      <trkpt lat="38.185574" lon="-1.384562">
        <ele>139.4</ele>
        <time>2023-10-08T07:45:43Z</time>
      </trkpt>
      <trkpt lat="38.185404" lon="-1.384484">
        <ele>141.1</ele>
        <time>2023-10-08T07:45:57Z</time>
      </trkpt>
      <trkpt lat="38.185224" lon="-1.384480">
        <ele>141.4</ele>
        <time>2023-10-08T07:46:11Z</time>
      </trkpt>
      <trkpt lat="38.185046" lon="-1.384550">
        <ele>142.4</ele>
        <time>2023-10-08T07:46:32Z</time>
      </trkpt>
      <trkpt lat="38.184900" lon="-1.384685">
        <ele>140.4</ele>
        <time>2023-10-08T07:46:45Z</time>
      </trkpt>
      <trkpt lat="38.184728" lon="-1.384607">
        <ele>141.4</ele>
        <time>2023-10-08T07:47:02Z</time>
      </trkpt>
      <trkpt lat="38.184627" lon="-1.384415">
        <ele>143.4</ele>
        <time>2023-10-08T07:49:48Z</time>
      </trkpt>
      <trkpt lat="38.184517" lon="-1.384234">
        <ele>138.4</ele>
        <time>2023-10-08T07:50:08Z</time>
      </trkpt>
      <trkpt lat="38.184397" lon="-1.384061">
        <ele>137.4</ele>
        <time>2023-10-08T07:50:27Z</time>
      </trkpt>
      <trkpt lat="38.184217" lon="-1.384086">
        <ele>140.1</ele>
        <time>2023-10-08T07:50:45Z</time>
      </trkpt>
      <trkpt lat="38.184042" lon="-1.384025">
        <ele>142.4</ele>
        <time>2023-10-08T07:51:04Z</time>
      </trkpt>
      <trkpt lat="38.183867" lon="-1.383950">
        <ele>147.2</ele>
        <time>2023-10-08T07:51:24Z</time>
      </trkpt>
      <trkpt lat="38.183856" lon="-1.383712">
        <ele>150.3</ele>
        <time>2023-10-08T07:51:54Z</time>
      </trkpt>
      <trkpt lat="38.183885" lon="-1.383481">
        <ele>152.4</ele>
        <time>2023-10-08T07:52:08Z</time>
      </trkpt>
      <trkpt lat="38.183873" lon="-1.383247">
        <ele>151.4</ele>
        <time>2023-10-08T07:52:23Z</time>
      </trkpt>
      <trkpt lat="38.183803" lon="-1.383022">
        <ele>150.4</ele>
        <time>2023-10-08T07:52:42Z</time>
      </trkpt>
      <trkpt lat="38.183743" lon="-1.382802">
        <ele>149.4</ele>
        <time>2023-10-08T07:52:57Z</time>
      </trkpt>
      <trkpt lat="38.183716" lon="-1.382567">
        <ele>147.4</ele>
        <time>2023-10-08T07:53:09Z</time>
      </trkpt>
      <trkpt lat="38.183667" lon="-1.382346">
        <ele>147.4</ele>
        <time>2023-10-08T07:53:20Z</time>
      </trkpt>
      <trkpt lat="38.183536" lon="-1.382186">
        <ele>148.4</ele>
        <time>2023-10-08T07:53:33Z</time>
      </trkpt>
      <trkpt lat="38.183423" lon="-1.382005">
        <ele>149.1</ele>
        <time>2023-10-08T07:53:47Z</time>
      </trkpt>
      <trkpt lat="38.183275" lon="-1.381870">
        <ele>148.4</ele>
        <time>2023-10-08T07:54:00Z</time>
      </trkpt>
      <trkpt lat="38.183126" lon="-1.381740">
        <ele>144.7</ele>
        <time>2023-10-08T07:54:14Z</time>
      </trkpt>
      <trkpt lat="38.183039" lon="-1.381533">
        <ele>145.4</ele>
        <time>2023-10-08T07:54:27Z</time>
      </trkpt>
      <trkpt lat="38.182932" lon="-1.381343">
        <ele>143.4</ele>
        <time>2023-10-08T07:54:41Z</time>
      </trkpt>
      <trkpt lat="38.182814" lon="-1.381165">
        <ele>141.4</ele>
        <time>2023-10-08T07:54:57Z</time>
      </trkpt>
      <trkpt lat="38.182702" lon="-1.380978">
        <ele>139.4</ele>
        <time>2023-10-08T07:55:12Z</time>
      </trkpt>
      <trkpt lat="38.182590" lon="-1.380794">
        <ele>139.4</ele>
        <time>2023-10-08T07:55:26Z</time>
      </trkpt>
      <trkpt lat="38.182476" lon="-1.380611">
        <ele>139.4</ele>
        <time>2023-10-08T07:55:40Z</time>
      </trkpt>
      <trkpt lat="38.182378" lon="-1.380413">
        <ele>138.4</ele>
        <time>2023-10-08T07:55:56Z</time>
      </trkpt>
      <trkpt lat="38.182319" lon="-1.380195">
        <ele>137.4</ele>
        <time>2023-10-08T07:56:12Z</time>
      </trkpt>
      <trkpt lat="38.182226" lon="-1.379991">
        <ele>137.3</ele>
        <time>2023-10-08T07:56:28Z</time>
      </trkpt>
      <trkpt lat="38.182129" lon="-1.379790">
        <ele>142.4</ele>
        <time>2023-10-08T07:57:04Z</time>
      </trkpt>
      <trkpt lat="38.182041" lon="-1.379576">
        <ele>143.4</ele>
        <time>2023-10-08T07:57:16Z</time>
      </trkpt>
      <trkpt lat="38.181931" lon="-1.379393">
        <ele>140.0</ele>
        <time>2023-10-08T07:57:46Z</time>
      </trkpt>
      <trkpt lat="38.181778" lon="-1.379228">
        <ele>140.0</ele>
        <time>2023-10-08T07:57:56Z</time>
      </trkpt>
      <trkpt lat="38.181632" lon="-1.379087">
        <ele>140.0</ele>
        <time>2023-10-08T07:58:08Z</time>
      </trkpt>
      <trkpt lat="38.181494" lon="-1.378936">
        <ele>140.0</ele>
        <time>2023-10-08T07:58:21Z</time>
      </trkpt>
      <trkpt lat="38.181325" lon="-1.378857">
        <ele>140.0</ele>
        <time>2023-10-08T07:59:00Z</time>
      </trkpt>
      <trkpt lat="38.181144" lon="-1.378835">
        <ele>140.0</ele>
        <time>2023-10-08T07:59:23Z</time>
      </trkpt>
      <trkpt lat="38.180961" lon="-1.378823">
        <ele>140.0</ele>
        <time>2023-10-08T07:59:35Z</time>
      </trkpt>
      <trkpt lat="38.180790" lon="-1.378742">
        <ele>140.0</ele>
        <time>2023-10-08T07:59:50Z</time>
      </trkpt>
      <trkpt lat="38.180605" lon="-1.378737">
        <ele>140.0</ele>
        <time>2023-10-08T08:00:09Z</time>
      </trkpt>
      <trkpt lat="38.180419" lon="-1.378733">
        <ele>142.0</ele>
        <time>2023-10-08T08:00:25Z</time>
      </trkpt>
      <trkpt lat="38.179763" lon="-1.378563">
        <ele>142.0</ele>
        <time>2023-10-08T08:00:39Z</time>
      </trkpt>
      <trkpt lat="38.179173" lon="-1.378363">
        <ele>144.0</ele>
        <time>2023-10-08T08:01:04Z</time>
      </trkpt>
      <trkpt lat="38.179039" lon="-1.378422">
        <ele>148.0</ele>
        <time>2023-10-08T08:01:20Z</time>
      </trkpt>
      <trkpt lat="38.178937" lon="-1.378327">
        <ele>150.0</ele>
        <time>2023-10-08T08:02:32Z</time>
      </trkpt>
      <trkpt lat="38.179008" lon="-1.378182">
        <ele>150.0</ele>
        <time>2023-10-08T08:02:52Z</time>
      </trkpt>
      <trkpt lat="38.179036" lon="-1.378031">
        <ele>150.0</ele>
        <time>2023-10-08T08:03:07Z</time>
      </trkpt>
      <trkpt lat="38.179074" lon="-1.377917">
        <ele>150.0</ele>
        <time>2023-10-08T08:03:19Z</time>
      </trkpt>
      <trkpt lat="38.179146" lon="-1.377826">
        <ele>150.0</ele>
        <time>2023-10-08T08:03:34Z</time>
      </trkpt>
      <trkpt lat="38.179200" lon="-1.377676">
        <ele>150.0</ele>
        <time>2023-10-08T08:03:47Z</time>
      </trkpt>
      <trkpt lat="38.179216" lon="-1.377600">
        <ele>150.0</ele>
        <time>2023-10-08T08:03:58Z</time>
      </trkpt>
      <trkpt lat="38.179125" lon="-1.377544">
        <ele>148.0</ele>
        <time>2023-10-08T08:04:18Z</time>
      </trkpt>
      <trkpt lat="38.178949" lon="-1.377453">
        <ele>146.0</ele>
        <time>2023-10-08T08:04:42Z</time>
      </trkpt>
      <trkpt lat="38.178888" lon="-1.377421">
        <ele>145.0</ele>
        <time>2023-10-08T08:04:55Z</time>
      </trkpt>
      <trkpt lat="38.178803" lon="-1.377435">
        <ele>144.0</ele>
        <time>2023-10-08T08:05:08Z</time>
      </trkpt>
      <trkpt lat="38.178677" lon="-1.377367">
        <ele>143.0</ele>
        <time>2023-10-08T08:05:27Z</time>
      </trkpt>
      <trkpt lat="38.178467" lon="-1.377326">
        <ele>142.0</ele>
        <time>2023-10-08T08:05:42Z</time>
      </trkpt>
      <trkpt lat="38.178363" lon="-1.377217">
        <ele>142.0</ele>
        <time>2023-10-08T08:05:54Z</time>
      </trkpt>
      <trkpt lat="38.178256" lon="-1.377117">
        <ele>142.0</ele>
        <time>2023-10-08T08:06:13Z</time>
      </trkpt>
      <trkpt lat="38.178141" lon="-1.376957">
        <ele>143.0</ele>
        <time>2023-10-08T08:06:26Z</time>
      </trkpt>
      <trkpt lat="38.178024" lon="-1.376770">
        <ele>144.0</ele>
        <time>2023-10-08T08:06:39Z</time>
      </trkpt>
      <trkpt lat="38.177912" lon="-1.376587">
        <ele>144.0</ele>
        <time>2023-10-08T08:06:51Z</time>
      </trkpt>
      <trkpt lat="38.177818" lon="-1.376388">
        <ele>144.0</ele>
        <time>2023-10-08T08:07:04Z</time>
      </trkpt>
      <trkpt lat="38.177700" lon="-1.376200">
        <ele>144.0</ele>
        <time>2023-10-08T08:07:19Z</time>
      </trkpt>
      <trkpt lat="38.177550" lon="-1.376074">
        <ele>143.0</ele>
        <time>2023-10-08T08:07:41Z</time>
      </trkpt>
      <trkpt lat="38.177409" lon="-1.375922">
        <ele>142.4</ele>
        <time>2023-10-08T08:08:03Z</time>
      </trkpt>
      <trkpt lat="38.177368" lon="-1.375692">
        <ele>142.0</ele>
        <time>2023-10-08T08:08:19Z</time>
      </trkpt>
      <trkpt lat="38.177281" lon="-1.375477">
        <ele>142.0</ele>
        <time>2023-10-08T08:34:01Z</time>
      </trkpt>
      <trkpt lat="38.177222" lon="-1.375253">
        <ele>142.0</ele>
        <time>2023-10-08T08:34:32Z</time>
      </trkpt>
      <trkpt lat="38.177220" lon="-1.375022">
        <ele>143.0</ele>
        <time>2023-10-08T08:34:47Z</time>
      </trkpt>
      <trkpt lat="38.177195" lon="-1.374794">
        <ele>143.0</ele>
        <time>2023-10-08T08:35:13Z</time>
      </trkpt>
      <trkpt lat="38.177152" lon="-1.374565">
        <ele>144.0</ele>
        <time>2023-10-08T08:35:26Z</time>
      </trkpt>
      <trkpt lat="38.177124" lon="-1.374333">
        <ele>145.0</ele>
        <time>2023-10-08T08:35:48Z</time>
      </trkpt>
      <trkpt lat="38.177079" lon="-1.374110">
        <ele>144.0</ele>
        <time>2023-10-08T08:36:03Z</time>
      </trkpt>
      <trkpt lat="38.177004" lon="-1.373896">
        <ele>144.0</ele>
        <time>2023-10-08T08:36:16Z</time>
      </trkpt>
      <trkpt lat="38.176894" lon="-1.373710">
        <ele>144.0</ele>
        <time>2023-10-08T08:36:28Z</time>
      </trkpt>
      <trkpt lat="38.176858" lon="-1.373483">
        <ele>142.0</ele>
        <time>2023-10-08T08:36:41Z</time>
      </trkpt>
      <trkpt lat="38.176779" lon="-1.373274">
        <ele>142.0</ele>
        <time>2023-10-08T08:36:59Z</time>
      </trkpt>
      <trkpt lat="38.176723" lon="-1.373054">
        <ele>142.0</ele>
        <time>2023-10-08T08:37:14Z</time>
      </trkpt>
      <trkpt lat="38.176704" lon="-1.372820">
        <ele>141.3</ele>
        <time>2023-10-08T08:37:27Z</time>
      </trkpt>
      <trkpt lat="38.176693" lon="-1.372586">
        <ele>141.7</ele>
        <time>2023-10-08T08:37:42Z</time>
      </trkpt>
      <trkpt lat="38.176675" lon="-1.372353">
        <ele>142.4</ele>
        <time>2023-10-08T08:37:56Z</time>
      </trkpt>
      <trkpt lat="38.176670" lon="-1.372116">
        <ele>142.0</ele>
        <time>2023-10-08T08:38:10Z</time>
      </trkpt>
      <trkpt lat="38.176669" lon="-1.371888">
        <ele>143.0</ele>
        <time>2023-10-08T08:38:24Z</time>
      </trkpt>
      <trkpt lat="38.176755" lon="-1.371684">
        <ele>144.0</ele>
        <time>2023-10-08T08:38:39Z</time>
      </trkpt>
      <trkpt lat="38.176825" lon="-1.371469">
        <ele>144.0</ele>
        <time>2023-10-08T08:38:53Z</time>
      </trkpt>
      <trkpt lat="38.176883" lon="-1.371246">
        <ele>144.0</ele>
        <time>2023-10-08T08:39:08Z</time>
      </trkpt>
      <trkpt lat="38.176954" lon="-1.371034">
        <ele>144.0</ele>
        <time>2023-10-08T08:39:23Z</time>
      </trkpt>
      <trkpt lat="38.176998" lon="-1.370805">
        <ele>144.0</ele>
        <time>2023-10-08T08:39:38Z</time>
      </trkpt>
      <trkpt lat="38.176873" lon="-1.370641">
        <ele>143.0</ele>
        <time>2023-10-08T08:39:56Z</time>
      </trkpt>
      <trkpt lat="38.176779" lon="-1.370444">
        <ele>143.0</ele>
        <time>2023-10-08T08:40:11Z</time>
      </trkpt>
      <trkpt lat="38.176619" lon="-1.370341">
        <ele>142.0</ele>
        <time>2023-10-08T08:40:29Z</time>
      </trkpt>
      <trkpt lat="38.176445" lon="-1.370262">
        <ele>142.0</ele>
        <time>2023-10-08T08:40:44Z</time>
      </trkpt>
      <trkpt lat="38.176445" lon="-1.370027">
        <ele>142.0</ele>
        <time>2023-10-08T08:41:01Z</time>
      </trkpt>
      <trkpt lat="38.176413" lon="-1.369326">
        <ele>142.0</ele>
        <time>2023-10-08T08:41:44Z</time>
      </trkpt>
      <trkpt lat="38.176420" lon="-1.369089">
        <ele>143.4</ele>
        <time>2023-10-08T08:41:58Z</time>
      </trkpt>
      <trkpt lat="38.176379" lon="-1.368859">
        <ele>144.4</ele>
        <time>2023-10-08T08:42:13Z</time>
      </trkpt>
      <trkpt lat="38.176364" lon="-1.368623">
        <ele>144.4</ele>
        <time>2023-10-08T08:42:29Z</time>
      </trkpt>
      <trkpt lat="38.176405" lon="-1.368392">
        <ele>144.4</ele>
        <time>2023-10-08T08:42:43Z</time>
      </trkpt>
      <trkpt lat="38.176434" lon="-1.368161">
        <ele>146.4</ele>
        <time>2023-10-08T08:42:58Z</time>
      </trkpt>
      <trkpt lat="38.176479" lon="-1.367937">
        <ele>145.5</ele>
        <time>2023-10-08T08:43:13Z</time>
      </trkpt>
      <trkpt lat="38.176523" lon="-1.367713">
        <ele>143.7</ele>
        <time>2023-10-08T08:43:29Z</time>
      </trkpt>
      <trkpt lat="38.176599" lon="-1.367501">
        <ele>145.4</ele>
        <time>2023-10-08T08:43:43Z</time>
      </trkpt>
      <trkpt lat="38.176675" lon="-1.367293">
        <ele>145.4</ele>
        <time>2023-10-08T08:43:57Z</time>
      </trkpt>
      <trkpt lat="38.176738" lon="-1.367077">
        <ele>146.1</ele>
        <time>2023-10-08T08:44:12Z</time>
      </trkpt>
      <trkpt lat="38.176794" lon="-1.366857">
        <ele>145.4</ele>
        <time>2023-10-08T08:44:26Z</time>
      </trkpt>
      <trkpt lat="38.176880" lon="-1.366648">
        <ele>147.0</ele>
        <time>2023-10-08T08:44:41Z</time>
      </trkpt>
      <trkpt lat="38.176922" lon="-1.366423">
        <ele>148.4</ele>
        <time>2023-10-08T08:44:54Z</time>
      </trkpt>
      <trkpt lat="38.176906" lon="-1.366192">
        <ele>148.4</ele>
        <time>2023-10-08T08:45:10Z</time>
      </trkpt>
      <trkpt lat="38.176916" lon="-1.365957">
        <ele>146.4</ele>
        <time>2023-10-08T08:45:26Z</time>
      </trkpt>
      <trkpt lat="38.177052" lon="-1.365802">
        <ele>145.4</ele>
        <time>2023-10-08T08:45:39Z</time>
      </trkpt>
      <trkpt lat="38.177228" lon="-1.365735">
        <ele>150.4</ele>
        <time>2023-10-08T08:45:53Z</time>
      </trkpt>
      <trkpt lat="38.177392" lon="-1.365632">
        <ele>148.0</ele>
        <time>2023-10-08T08:46:33Z</time>
      </trkpt>
      <trkpt lat="38.177379" lon="-1.365391">
        <ele>149.5</ele>
        <time>2023-10-08T08:46:48Z</time>
      </trkpt>
      <trkpt lat="38.177527" lon="-1.365247">
        <ele>147.4</ele>
        <time>2023-10-08T08:47:04Z</time>
      </trkpt>
      <trkpt lat="38.177711" lon="-1.365248">
        <ele>148.4</ele>
        <time>2023-10-08T08:47:20Z</time>
      </trkpt>
      <trkpt lat="38.177717" lon="-1.365017">
        <ele>151.0</ele>
        <time>2023-10-08T08:47:55Z</time>
      </trkpt>
      <trkpt lat="38.177575" lon="-1.364874">
        <ele>159.0</ele>
        <time>2023-10-08T08:48:18Z</time>
      </trkpt>
      <trkpt lat="38.177447" lon="-1.364705">
        <ele>162.0</ele>
        <time>2023-10-08T08:48:44Z</time>
      </trkpt>
      <trkpt lat="38.177338" lon="-1.364513">
        <ele>170.0</ele>
        <time>2023-10-08T08:49:04Z</time>
      </trkpt>
      <trkpt lat="38.177212" lon="-1.364678">
        <ele>172.0</ele>
        <time>2023-10-08T08:49:30Z</time>
      </trkpt>
      <trkpt lat="38.177103" lon="-1.364934">
        <ele>173.0</ele>
        <time>2023-10-08T08:49:46Z</time>
      </trkpt>
      <trkpt lat="38.176958" lon="-1.365046">
        <ele>174.0</ele>
        <time>2023-10-08T08:50:02Z</time>
      </trkpt>
      <trkpt lat="38.176784" lon="-1.365079">
        <ele>175.0</ele>
        <time>2023-10-08T08:50:23Z</time>
      </trkpt>
      <trkpt lat="38.176618" lon="-1.365148">
        <ele>175.0</ele>
        <time>2023-10-08T08:50:50Z</time>
      </trkpt>
      <trkpt lat="38.176510" lon="-1.365326">
        <ele>175.0</ele>
        <time>2023-10-08T08:51:24Z</time>
      </trkpt>
      <trkpt lat="38.176374" lon="-1.365494">
        <ele>175.0</ele>
        <time>2023-10-08T08:51:49Z</time>
      </trkpt>
      <trkpt lat="38.176254" lon="-1.365667">
        <ele>175.0</ele>
        <time>2023-10-08T08:53:33Z</time>
      </trkpt>
      <trkpt lat="38.176106" lon="-1.365799">
        <ele>170.0</ele>
        <time>2023-10-08T08:54:41Z</time>
      </trkpt>
      <trkpt lat="38.176240" lon="-1.365646">
        <ele>170.0</ele>
        <time>2023-10-08T08:57:28Z</time>
      </trkpt>
      <trkpt lat="38.176362" lon="-1.365460">
        <ele>175.0</ele>
        <time>2023-10-08T08:57:41Z</time>
      </trkpt>
      <trkpt lat="38.176476" lon="-1.365342">
        <ele>175.0</ele>
        <time>2023-10-08T08:57:54Z</time>
      </trkpt>
      <trkpt lat="38.176610" lon="-1.365123">
        <ele>175.0</ele>
        <time>2023-10-08T08:58:06Z</time>
      </trkpt>
      <trkpt lat="38.176780" lon="-1.365030">
        <ele>175.0</ele>
        <time>2023-10-08T08:58:23Z</time>
      </trkpt>
      <trkpt lat="38.176962" lon="-1.364990">
        <ele>175.0</ele>
        <time>2023-10-08T08:58:38Z</time>
      </trkpt>
      <trkpt lat="38.177100" lon="-1.364875">
        <ele>175.0</ele>
        <time>2023-10-08T08:58:52Z</time>
      </trkpt>
      <trkpt lat="38.177173" lon="-1.364697">
        <ele>175.0</ele>
        <time>2023-10-08T08:59:07Z</time>
      </trkpt>
      <trkpt lat="38.177266" lon="-1.364455">
        <ele>175.0</ele>
        <time>2023-10-08T08:59:23Z</time>
      </trkpt>
      <trkpt lat="38.177113" lon="-1.364329">
        <ele>172.0</ele>
        <time>2023-10-08T08:59:40Z</time>
      </trkpt>
      <trkpt lat="38.176973" lon="-1.364179">
        <ele>170.0</ele>
        <time>2023-10-08T08:59:53Z</time>
      </trkpt>
      <trkpt lat="38.176796" lon="-1.364230">
        <ele>170.0</ele>
        <time>2023-10-08T09:00:07Z</time>
      </trkpt>
      <trkpt lat="38.176623" lon="-1.364317">
        <ele>170.3</ele>
        <time>2023-10-08T09:00:25Z</time>
      </trkpt>
      <trkpt lat="38.176470" lon="-1.364451">
        <ele>162.7</ele>
        <time>2023-10-08T09:00:39Z</time>
      </trkpt>
      <trkpt lat="38.176287" lon="-1.364417">
        <ele>158.4</ele>
        <time>2023-10-08T09:00:53Z</time>
      </trkpt>
      <trkpt lat="38.176111" lon="-1.364355">
        <ele>157.0</ele>
        <time>2023-10-08T09:01:07Z</time>
      </trkpt>
      <trkpt lat="38.175939" lon="-1.364269">
        <ele>156.0</ele>
        <time>2023-10-08T09:01:21Z</time>
      </trkpt>
      <trkpt lat="38.175760" lon="-1.364194">
        <ele>155.4</ele>
        <time>2023-10-08T09:01:33Z</time>
      </trkpt>
      <trkpt lat="38.175647" lon="-1.364010">
        <ele>154.4</ele>
        <time>2023-10-08T09:01:45Z</time>
      </trkpt>
      <trkpt lat="38.175575" lon="-1.363785">
        <ele>153.0</ele>
        <time>2023-10-08T09:02:00Z</time>
      </trkpt>
      <trkpt lat="38.175650" lon="-1.363570">
        <ele>154.0</ele>
        <time>2023-10-08T09:02:14Z</time>
      </trkpt>
      <trkpt lat="38.175640" lon="-1.363335">
        <ele>154.0</ele>
        <time>2023-10-08T09:02:30Z</time>
      </trkpt>
      <trkpt lat="38.175664" lon="-1.363101">
        <ele>153.0</ele>
        <time>2023-10-08T09:02:41Z</time>
      </trkpt>
      <trkpt lat="38.175770" lon="-1.362914">
        <ele>150.0</ele>
        <time>2023-10-08T09:02:55Z</time>
      </trkpt>
      <trkpt lat="38.175812" lon="-1.362678">
        <ele>149.0</ele>
        <time>2023-10-08T09:03:09Z</time>
      </trkpt>
      <trkpt lat="38.175865" lon="-1.362450">
        <ele>153.4</ele>
        <time>2023-10-08T09:03:26Z</time>
      </trkpt>
      <trkpt lat="38.176011" lon="-1.362310">
        <ele>153.4</ele>
        <time>2023-10-08T09:03:42Z</time>
      </trkpt>
      <trkpt lat="38.176166" lon="-1.362189">
        <ele>154.4</ele>
        <time>2023-10-08T09:03:57Z</time>
      </trkpt>
      <trkpt lat="38.176329" lon="-1.362085">
        <ele>154.4</ele>
        <time>2023-10-08T09:04:27Z</time>
      </trkpt>
      <trkpt lat="38.176393" lon="-1.361868">
        <ele>151.4</ele>
        <time>2023-10-08T09:04:40Z</time>
      </trkpt>
      <trkpt lat="38.176327" lon="-1.361642">
        <ele>151.4</ele>
        <time>2023-10-08T09:04:54Z</time>
      </trkpt>
      <trkpt lat="38.176246" lon="-1.361437">
        <ele>150.1</ele>
        <time>2023-10-08T09:05:07Z</time>
      </trkpt>
      <trkpt lat="38.176205" lon="-1.361210">
        <ele>149.4</ele>
        <time>2023-10-08T09:05:22Z</time>
      </trkpt>
      <trkpt lat="38.176172" lon="-1.360984">
        <ele>152.4</ele>
        <time>2023-10-08T09:05:34Z</time>
      </trkpt>
      <trkpt lat="38.176001" lon="-1.360900">
        <ele>148.4</ele>
        <time>2023-10-08T09:06:48Z</time>
      </trkpt>
      <trkpt lat="38.175815" lon="-1.360917">
        <ele>147.4</ele>
        <time>2023-10-08T09:07:01Z</time>
      </trkpt>
      <trkpt lat="38.175635" lon="-1.360931">
        <ele>146.4</ele>
        <time>2023-10-08T09:07:16Z</time>
      </trkpt>
      <trkpt lat="38.175655" lon="-1.361160">
        <ele>143.4</ele>
        <time>2023-10-08T09:07:32Z</time>
      </trkpt>
      <trkpt lat="38.175477" lon="-1.361120">
        <ele>144.7</ele>
        <time>2023-10-08T09:07:42Z</time>
      </trkpt>
      <trkpt lat="38.175305" lon="-1.361030">
        <ele>146.4</ele>
        <time>2023-10-08T09:07:56Z</time>
      </trkpt>
      <trkpt lat="38.175129" lon="-1.360952">
        <ele>146.4</ele>
        <time>2023-10-08T09:08:09Z</time>
      </trkpt>
      <trkpt lat="38.174956" lon="-1.360870">
        <ele>145.4</ele>
        <time>2023-10-08T09:08:21Z</time>
      </trkpt>
      <trkpt lat="38.174821" lon="-1.360720">
        <ele>145.4</ele>
        <time>2023-10-08T09:08:36Z</time>
      </trkpt>
      <trkpt lat="38.174640" lon="-1.360713">
        <ele>145.4</ele>
        <time>2023-10-08T09:09:00Z</time>
      </trkpt>
      <trkpt lat="38.174454" lon="-1.360699">
        <ele>142.4</ele>
        <time>2023-10-08T09:09:16Z</time>
      </trkpt>
      <trkpt lat="38.174274" lon="-1.360665">
        <ele>140.5</ele>
        <time>2023-10-08T09:09:31Z</time>
      </trkpt>
      <trkpt lat="38.174107" lon="-1.360573">
        <ele>139.4</ele>
        <time>2023-10-08T09:09:43Z</time>
      </trkpt>
      <trkpt lat="38.173929" lon="-1.360488">
        <ele>139.4</ele>
        <time>2023-10-08T09:10:01Z</time>
      </trkpt>
      <trkpt lat="38.173870" lon="-1.360267">
        <ele>142.4</ele>
        <time>2023-10-08T09:10:33Z</time>
      </trkpt>
      <trkpt lat="38.173890" lon="-1.360031">
        <ele>143.5</ele>
        <time>2023-10-08T09:10:46Z</time>
      </trkpt>
      <trkpt lat="38.173883" lon="-1.359791">
        <ele>143.4</ele>
        <time>2023-10-08T09:10:59Z</time>
      </trkpt>
      <trkpt lat="38.173842" lon="-1.359562">
        <ele>144.4</ele>
        <time>2023-10-08T09:11:10Z</time>
      </trkpt>
      <trkpt lat="38.173800" lon="-1.359332">
        <ele>145.4</ele>
        <time>2023-10-08T09:12:47Z</time>
      </trkpt>
      <trkpt lat="38.173765" lon="-1.359105">
        <ele>145.4</ele>
        <time>2023-10-08T09:13:32Z</time>
      </trkpt>
      <trkpt lat="38.173670" lon="-1.358898">
        <ele>146.4</ele>
        <time>2023-10-08T09:13:48Z</time>
      </trkpt>
      <trkpt lat="38.173551" lon="-1.358700">
        <ele>145.4</ele>
        <time>2023-10-08T09:14:03Z</time>
      </trkpt>
      <trkpt lat="38.173463" lon="-1.358501">
        <ele>144.4</ele>
        <time>2023-10-08T09:14:18Z</time>
      </trkpt>
      <trkpt lat="38.173372" lon="-1.358296">
        <ele>144.4</ele>
        <time>2023-10-08T09:14:34Z</time>
      </trkpt>
      <trkpt lat="38.173362" lon="-1.358065">
        <ele>147.4</ele>
        <time>2023-10-08T09:14:51Z</time>
      </trkpt>
      <trkpt lat="38.173476" lon="-1.357887">
        <ele>148.4</ele>
        <time>2023-10-08T09:15:06Z</time>
      </trkpt>
      <trkpt lat="38.173574" lon="-1.357689">
        <ele>147.4</ele>
        <time>2023-10-08T09:15:23Z</time>
      </trkpt>
      <trkpt lat="38.173657" lon="-1.357483">
        <ele>147.7</ele>
        <time>2023-10-08T09:15:39Z</time>
      </trkpt>
      <trkpt lat="38.173763" lon="-1.357295">
        <ele>149.4</ele>
        <time>2023-10-08T09:15:54Z</time>
      </trkpt>
      <trkpt lat="38.173872" lon="-1.357108">
        <ele>147.4</ele>
        <time>2023-10-08T09:16:11Z</time>
      </trkpt>
      <trkpt lat="38.173975" lon="-1.356912">
        <ele>146.4</ele>
        <time>2023-10-08T09:16:26Z</time>
      </trkpt>
      <trkpt lat="38.174090" lon="-1.356725">
        <ele>148.3</ele>
        <time>2023-10-08T09:16:42Z</time>
      </trkpt>
      <trkpt lat="38.174132" lon="-1.356495">
        <ele>149.4</ele>
        <time>2023-10-08T09:16:56Z</time>
      </trkpt>
      <trkpt lat="38.174145" lon="-1.356258">
        <ele>147.1</ele>
        <time>2023-10-08T09:17:11Z</time>
      </trkpt>
      <trkpt lat="38.174100" lon="-1.356036">
        <ele>148.3</ele>
        <time>2023-10-08T09:17:26Z</time>
      </trkpt>
      <trkpt lat="38.174181" lon="-1.355822">
        <ele>147.4</ele>
        <time>2023-10-08T09:17:43Z</time>
      </trkpt>
      <trkpt lat="38.174336" lon="-1.355703">
        <ele>146.4</ele>
        <time>2023-10-08T09:17:59Z</time>
      </trkpt>
      <trkpt lat="38.174499" lon="-1.355602">
        <ele>151.3</ele>
        <time>2023-10-08T09:18:11Z</time>
      </trkpt>
      <trkpt lat="38.174606" lon="-1.355415">
        <ele>151.0</ele>
        <time>2023-10-08T09:18:27Z</time>
      </trkpt>
      <trkpt lat="38.174564" lon="-1.355188">
        <ele>152.0</ele>
        <time>2023-10-08T09:18:41Z</time>
      </trkpt>
      <trkpt lat="38.174503" lon="-1.354970">
        <ele>153.4</ele>
        <time>2023-10-08T09:18:57Z</time>
      </trkpt>
      <trkpt lat="38.174375" lon="-1.354805">
        <ele>154.0</ele>
        <time>2023-10-08T09:19:13Z</time>
      </trkpt>
      <trkpt lat="38.174259" lon="-1.354628">
        <ele>155.0</ele>
        <time>2023-10-08T09:19:29Z</time>
      </trkpt>
      <trkpt lat="38.174122" lon="-1.354473">
        <ele>155.0</ele>
        <time>2023-10-08T09:19:44Z</time>
      </trkpt>
      <trkpt lat="38.173936" lon="-1.354486">
        <ele>155.0</ele>
        <time>2023-10-08T09:19:59Z</time>
      </trkpt>
      <trkpt lat="38.173777" lon="-1.354595">
        <ele>154.0</ele>
        <time>2023-10-08T09:20:18Z</time>
      </trkpt>
      <trkpt lat="38.173605" lon="-1.354664">
        <ele>153.0</ele>
        <time>2023-10-08T09:20:31Z</time>
      </trkpt>
      <trkpt lat="38.173443" lon="-1.354766">
        <ele>151.7</ele>
        <time>2023-10-08T09:20:45Z</time>
      </trkpt>
      <trkpt lat="38.173288" lon="-1.354893">
        <ele>152.3</ele>
        <time>2023-10-08T09:21:00Z</time>
      </trkpt>
      <trkpt lat="38.173151" lon="-1.355053">
        <ele>152.0</ele>
        <time>2023-10-08T09:21:15Z</time>
      </trkpt>
      <trkpt lat="38.173035" lon="-1.355230">
        <ele>152.0</ele>
        <time>2023-10-08T09:21:31Z</time>
      </trkpt>
      <trkpt lat="38.172901" lon="-1.355393">
        <ele>152.0</ele>
        <time>2023-10-08T09:21:47Z</time>
      </trkpt>
      <trkpt lat="38.172792" lon="-1.355583">
        <ele>152.0</ele>
        <time>2023-10-08T09:22:02Z</time>
      </trkpt>
      <trkpt lat="38.172670" lon="-1.355762">
        <ele>152.0</ele>
        <time>2023-10-08T09:22:17Z</time>
      </trkpt>
      <trkpt lat="38.172515" lon="-1.355896">
        <ele>152.4</ele>
        <time>2023-10-08T09:22:32Z</time>
      </trkpt>
      <trkpt lat="38.172339" lon="-1.355968">
        <ele>151.4</ele>
        <time>2023-10-08T09:22:48Z</time>
      </trkpt>
      <trkpt lat="38.172160" lon="-1.355999">
        <ele>151.4</ele>
        <time>2023-10-08T09:23:06Z</time>
      </trkpt>
      <trkpt lat="38.171995" lon="-1.355904">
        <ele>149.4</ele>
        <time>2023-10-08T09:23:19Z</time>
      </trkpt>
      <trkpt lat="38.171813" lon="-1.355874">
        <ele>149.4</ele>
        <time>2023-10-08T09:23:32Z</time>
      </trkpt>
      <trkpt lat="38.171631" lon="-1.355877">
        <ele>150.4</ele>
        <time>2023-10-08T09:23:46Z</time>
      </trkpt>
      <trkpt lat="38.171450" lon="-1.355855">
        <ele>151.4</ele>
        <time>2023-10-08T09:24:01Z</time>
      </trkpt>
      <trkpt lat="38.171275" lon="-1.355780">
        <ele>151.4</ele>
        <time>2023-10-08T09:24:14Z</time>
      </trkpt>
      <trkpt lat="38.171099" lon="-1.355727">
        <ele>152.5</ele>
        <time>2023-10-08T09:24:51Z</time>
      </trkpt>
      <trkpt lat="38.170909" lon="-1.355692">
        <ele>151.4</ele>
        <time>2023-10-08T09:25:06Z</time>
      </trkpt>
      <trkpt lat="38.170729" lon="-1.355629">
        <ele>151.4</ele>
        <time>2023-10-08T09:25:19Z</time>
      </trkpt>
      <trkpt lat="38.170551" lon="-1.355590">
        <ele>150.4</ele>
        <time>2023-10-08T09:25:55Z</time>
      </trkpt>
      <trkpt lat="38.170371" lon="-1.355542">
        <ele>152.4</ele>
        <time>2023-10-08T09:26:09Z</time>
      </trkpt>
      <trkpt lat="38.170195" lon="-1.355495">
        <ele>153.4</ele>
        <time>2023-10-08T09:26:23Z</time>
      </trkpt>
      <trkpt lat="38.170019" lon="-1.355424">
        <ele>153.4</ele>
        <time>2023-10-08T09:26:37Z</time>
      </trkpt>
      <trkpt lat="38.169852" lon="-1.355328">
        <ele>153.3</ele>
        <time>2023-10-08T09:27:12Z</time>
      </trkpt>
      <trkpt lat="38.169686" lon="-1.355235">
        <ele>151.4</ele>
        <time>2023-10-08T09:27:27Z</time>
      </trkpt>
      <trkpt lat="38.169505" lon="-1.355207">
        <ele>151.4</ele>
        <time>2023-10-08T09:27:39Z</time>
      </trkpt>
      <trkpt lat="38.169321" lon="-1.355176">
        <ele>151.4</ele>
        <time>2023-10-08T09:27:53Z</time>
      </trkpt>
      <trkpt lat="38.169139" lon="-1.355138">
        <ele>153.4</ele>
        <time>2023-10-08T09:28:08Z</time>
      </trkpt>
      <trkpt lat="38.168989" lon="-1.355010">
        <ele>154.3</ele>
        <time>2023-10-08T09:28:23Z</time>
      </trkpt>
      <trkpt lat="38.168814" lon="-1.354943">
        <ele>154.4</ele>
        <time>2023-10-08T09:28:40Z</time>
      </trkpt>
      <trkpt lat="38.168628" lon="-1.354908">
        <ele>154.4</ele>
        <time>2023-10-08T09:28:55Z</time>
      </trkpt>
      <trkpt lat="38.168443" lon="-1.354857">
        <ele>152.4</ele>
        <time>2023-10-08T09:29:10Z</time>
      </trkpt>
      <trkpt lat="38.168310" lon="-1.354697">
        <ele>153.4</ele>
        <time>2023-10-08T09:29:23Z</time>
      </trkpt>
      <trkpt lat="38.168225" lon="-1.354493">
        <ele>155.4</ele>
        <time>2023-10-08T09:29:36Z</time>
      </trkpt>
      <trkpt lat="38.168153" lon="-1.354282">
        <ele>154.5</ele>
        <time>2023-10-08T09:29:50Z</time>
      </trkpt>
      <trkpt lat="38.168082" lon="-1.354067">
        <ele>155.4</ele>
        <time>2023-10-08T09:30:06Z</time>
      </trkpt>
      <trkpt lat="38.168038" lon="-1.353842">
        <ele>153.4</ele>
        <time>2023-10-08T09:30:19Z</time>
      </trkpt>
      <trkpt lat="38.168054" lon="-1.353606">
        <ele>153.4</ele>
        <time>2023-10-08T09:30:32Z</time>
      </trkpt>
      <trkpt lat="38.168073" lon="-1.353373">
        <ele>151.4</ele>
        <time>2023-10-08T09:30:46Z</time>
      </trkpt>
      <trkpt lat="38.167988" lon="-1.353157">
        <ele>149.4</ele>
        <time>2023-10-08T09:31:03Z</time>
      </trkpt>
      <trkpt lat="38.167829" lon="-1.353041">
        <ele>149.4</ele>
        <time>2023-10-08T09:31:16Z</time>
      </trkpt>
      <trkpt lat="38.167690" lon="-1.353187">
        <ele>150.4</ele>
        <time>2023-10-08T09:31:30Z</time>
      </trkpt>
      <trkpt lat="38.167568" lon="-1.353358">
        <ele>150.4</ele>
        <time>2023-10-08T09:31:44Z</time>
      </trkpt>
      <trkpt lat="38.167430" lon="-1.353516">
        <ele>149.4</ele>
        <time>2023-10-08T09:31:59Z</time>
      </trkpt>
      <trkpt lat="38.167244" lon="-1.353508">
        <ele>151.2</ele>
        <time>2023-10-08T09:32:14Z</time>
      </trkpt>
      <trkpt lat="38.167105" lon="-1.353353">
        <ele>153.4</ele>
        <time>2023-10-08T09:32:29Z</time>
      </trkpt>
      <trkpt lat="38.167002" lon="-1.353158">
        <ele>154.4</ele>
        <time>2023-10-08T09:32:45Z</time>
      </trkpt>
      <trkpt lat="38.166934" lon="-1.352938">
        <ele>156.4</ele>
        <time>2023-10-08T09:32:57Z</time>
      </trkpt>
      <trkpt lat="38.166892" lon="-1.352702">
        <ele>157.5</ele>
        <time>2023-10-08T09:33:11Z</time>
      </trkpt>
      <trkpt lat="38.166751" lon="-1.352556">
        <ele>159.4</ele>
        <time>2023-10-08T09:33:31Z</time>
      </trkpt>
      <trkpt lat="38.166596" lon="-1.352430">
        <ele>158.5</ele>
        <time>2023-10-08T09:33:46Z</time>
      </trkpt>
      <trkpt lat="38.166422" lon="-1.352344">
        <ele>157.4</ele>
        <time>2023-10-08T09:34:01Z</time>
      </trkpt>
      <trkpt lat="38.166242" lon="-1.352338">
        <ele>156.7</ele>
        <time>2023-10-08T09:34:16Z</time>
      </trkpt>
      <trkpt lat="38.166070" lon="-1.352248">
        <ele>156.4</ele>
        <time>2023-10-08T09:34:30Z</time>
      </trkpt>
      <trkpt lat="38.165896" lon="-1.352183">
        <ele>157.4</ele>
        <time>2023-10-08T09:34:44Z</time>
      </trkpt>
      <trkpt lat="38.165744" lon="-1.352052">
        <ele>157.1</ele>
        <time>2023-10-08T09:34:59Z</time>
      </trkpt>
      <trkpt lat="38.165583" lon="-1.351941">
        <ele>161.5</ele>
        <time>2023-10-08T09:35:19Z</time>
      </trkpt>
      <trkpt lat="38.165426" lon="-1.351813">
        <ele>159.4</ele>
        <time>2023-10-08T09:35:32Z</time>
      </trkpt>
      <trkpt lat="38.165253" lon="-1.351738">
        <ele>162.4</ele>
        <time>2023-10-08T09:35:49Z</time>
      </trkpt>
      <trkpt lat="38.165071" lon="-1.351720">
        <ele>159.1</ele>
        <time>2023-10-08T09:36:05Z</time>
      </trkpt>
      <trkpt lat="38.164894" lon="-1.351665">
        <ele>160.4</ele>
        <time>2023-10-08T09:36:19Z</time>
      </trkpt>
      <trkpt lat="38.164719" lon="-1.351584">
        <ele>161.4</ele>
        <time>2023-10-08T09:36:33Z</time>
      </trkpt>
      <trkpt lat="38.164555" lon="-1.351473">
        <ele>161.4</ele>
        <time>2023-10-08T09:36:50Z</time>
      </trkpt>
      <trkpt lat="38.164389" lon="-1.351378">
        <ele>159.4</ele>
        <time>2023-10-08T09:37:04Z</time>
      </trkpt>
      <trkpt lat="38.164220" lon="-1.351294">
        <ele>160.4</ele>
        <time>2023-10-08T09:37:19Z</time>
      </trkpt>
      <trkpt lat="38.164038" lon="-1.351251">
        <ele>156.4</ele>
        <time>2023-10-08T09:37:34Z</time>
      </trkpt>
      <trkpt lat="38.163855" lon="-1.351216">
        <ele>161.4</ele>
        <time>2023-10-08T09:37:51Z</time>
      </trkpt>
      <trkpt lat="38.163679" lon="-1.351277">
        <ele>166.3</ele>
        <time>2023-10-08T09:38:05Z</time>
      </trkpt>
      <trkpt lat="38.163506" lon="-1.351344">
        <ele>162.4</ele>
        <time>2023-10-08T09:38:19Z</time>
      </trkpt>
      <trkpt lat="38.163323" lon="-1.351391">
        <ele>154.4</ele>
        <time>2023-10-08T09:38:34Z</time>
      </trkpt>
      <trkpt lat="38.163144" lon="-1.351445">
        <ele>153.3</ele>
        <time>2023-10-08T09:38:49Z</time>
      </trkpt>
      <trkpt lat="38.162971" lon="-1.351515">
        <ele>151.4</ele>
        <time>2023-10-08T09:39:02Z</time>
      </trkpt>
      <trkpt lat="38.162788" lon="-1.351558">
        <ele>146.7</ele>
        <time>2023-10-08T09:39:17Z</time>
      </trkpt>
      <trkpt lat="38.162619" lon="-1.351647">
        <ele>143.4</ele>
        <time>2023-10-08T09:39:32Z</time>
      </trkpt>
      <trkpt lat="38.162468" lon="-1.351776">
        <ele>141.4</ele>
        <time>2023-10-08T09:39:46Z</time>
      </trkpt>
      <trkpt lat="38.162301" lon="-1.351866">
        <ele>145.4</ele>
        <time>2023-10-08T09:40:10Z</time>
      </trkpt>
      <trkpt lat="38.162117" lon="-1.351851">
        <ele>143.1</ele>
        <time>2023-10-08T09:40:23Z</time>
      </trkpt>
      <trkpt lat="38.161932" lon="-1.351835">
        <ele>151.1</ele>
        <time>2023-10-08T09:43:36Z</time>
      </trkpt>
      <trkpt lat="38.161775" lon="-1.351720">
        <ele>148.4</ele>
        <time>2023-10-08T09:44:02Z</time>
      </trkpt>
      <trkpt lat="38.161595" lon="-1.351696">
        <ele>147.4</ele>
        <time>2023-10-08T09:44:26Z</time>
      </trkpt>
      <trkpt lat="38.161355" lon="-1.351684">
        <ele>143.0</ele>
        <time>2023-10-08T09:45:00Z</time>
      </trkpt>
      <trkpt lat="38.161275" lon="-1.351976">
        <ele>139.5</ele>
        <time>2023-10-08T09:45:06Z</time>
      </trkpt>
      <trkpt lat="38.161200" lon="-1.352167">
        <ele>138.5</ele>
        <time>2023-10-08T09:45:07Z</time>
      </trkpt>
      <trkpt lat="38.161095" lon="-1.352370">
        <ele>141.4</ele>
        <time>2023-10-08T09:45:39Z</time>
      </trkpt>
      <trkpt lat="38.160971" lon="-1.352338">
        <ele>141.4</ele>
        <time>2023-10-08T09:45:54Z</time>
      </trkpt>
      <trkpt lat="38.160800" lon="-1.352200">
        <ele>145.0</ele>
        <time>2023-10-08T09:46:05Z</time>
      </trkpt>
      <trkpt lat="38.160627" lon="-1.352154">
        <ele>155.1</ele>
        <time>2023-10-08T09:46:25Z</time>
      </trkpt>
      <trkpt lat="38.160461" lon="-1.352057">
        <ele>157.4</ele>
        <time>2023-10-08T09:46:47Z</time>
      </trkpt>
      <trkpt lat="38.160311" lon="-1.351930">
        <ele>153.1</ele>
        <time>2023-10-08T09:47:02Z</time>
      </trkpt>
      <trkpt lat="38.160183" lon="-1.351750">
        <ele>151.4</ele>
        <time>2023-10-08T09:47:14Z</time>
      </trkpt>
      <trkpt lat="38.160019" lon="-1.351632">
        <ele>152.1</ele>
        <time>2023-10-08T09:47:42Z</time>
      </trkpt>
      <trkpt lat="38.159863" lon="-1.351509">
        <ele>153.1</ele>
        <time>2023-10-08T09:47:56Z</time>
      </trkpt>
      <trkpt lat="38.159716" lon="-1.351367">
        <ele>153.4</ele>
        <time>2023-10-08T09:48:09Z</time>
      </trkpt>
      <trkpt lat="38.159665" lon="-1.351135">
        <ele>154.3</ele>
        <time>2023-10-08T09:48:25Z</time>
      </trkpt>
      <trkpt lat="38.159607" lon="-1.350911">
        <ele>156.4</ele>
        <time>2023-10-08T09:49:24Z</time>
      </trkpt>
      <trkpt lat="38.159577" lon="-1.350676">
        <ele>158.4</ele>
        <time>2023-10-08T09:49:36Z</time>
      </trkpt>
      <trkpt lat="38.159504" lon="-1.350458">
        <ele>160.4</ele>
        <time>2023-10-08T09:49:49Z</time>
      </trkpt>
      <trkpt lat="38.159418" lon="-1.350252">
        <ele>161.4</ele>
        <time>2023-10-08T09:50:02Z</time>
      </trkpt>
      <trkpt lat="38.159307" lon="-1.350057">
        <ele>161.4</ele>
        <time>2023-10-08T09:50:15Z</time>
      </trkpt>
      <trkpt lat="38.159135" lon="-1.350130">
        <ele>164.1</ele>
        <time>2023-10-08T09:50:41Z</time>
      </trkpt>
      <trkpt lat="38.158959" lon="-1.350181">
        <ele>166.4</ele>
        <time>2023-10-08T09:50:58Z</time>
      </trkpt>
      <trkpt lat="38.158793" lon="-1.350270">
        <ele>164.4</ele>
        <time>2023-10-08T09:51:10Z</time>
      </trkpt>
      <trkpt lat="38.158611" lon="-1.350313">
        <ele>164.4</ele>
        <time>2023-10-08T09:51:23Z</time>
      </trkpt>
      <trkpt lat="38.158425" lon="-1.350333">
        <ele>163.4</ele>
        <time>2023-10-08T09:51:37Z</time>
      </trkpt>
      <trkpt lat="38.158249" lon="-1.350382">
        <ele>164.4</ele>
        <time>2023-10-08T09:51:54Z</time>
      </trkpt>
      <trkpt lat="38.158079" lon="-1.350478">
        <ele>165.4</ele>
        <time>2023-10-08T09:52:07Z</time>
      </trkpt>
      <trkpt lat="38.157896" lon="-1.350491">
        <ele>166.4</ele>
        <time>2023-10-08T09:52:20Z</time>
      </trkpt>
      <trkpt lat="38.157718" lon="-1.350538">
        <ele>166.4</ele>
        <time>2023-10-08T09:52:35Z</time>
      </trkpt>
      <trkpt lat="38.157548" lon="-1.350618">
        <ele>166.2</ele>
        <time>2023-10-08T09:52:51Z</time>
      </trkpt>
      <trkpt lat="38.157393" lon="-1.350737">
        <ele>163.7</ele>
        <time>2023-10-08T09:53:07Z</time>
      </trkpt>
      <trkpt lat="38.157270" lon="-1.350919">
        <ele>160.7</ele>
        <time>2023-10-08T09:53:22Z</time>
      </trkpt>
      <trkpt lat="38.157116" lon="-1.351044">
        <ele>158.4</ele>
        <time>2023-10-08T09:53:35Z</time>
      </trkpt>
      <trkpt lat="38.156944" lon="-1.351130">
        <ele>154.4</ele>
        <time>2023-10-08T09:53:50Z</time>
      </trkpt>
      <trkpt lat="38.156752" lon="-1.351096">
        <ele>151.4</ele>
        <time>2023-10-08T09:54:09Z</time>
      </trkpt>
      <trkpt lat="38.156566" lon="-1.351028">
        <ele>151.4</ele>
        <time>2023-10-08T09:54:21Z</time>
      </trkpt>
      <trkpt lat="38.156385" lon="-1.351060">
        <ele>150.1</ele>
        <time>2023-10-08T09:54:35Z</time>
      </trkpt>
      <trkpt lat="38.156206" lon="-1.351008">
        <ele>150.4</ele>
        <time>2023-10-08T09:54:48Z</time>
      </trkpt>
      <trkpt lat="38.156043" lon="-1.350905">
        <ele>148.5</ele>
        <time>2023-10-08T09:55:05Z</time>
      </trkpt>
      <trkpt lat="38.156230" lon="-1.350901">
        <ele>148.4</ele>
        <time>2023-10-08T09:55:32Z</time>
      </trkpt>
      <trkpt lat="38.156413" lon="-1.350954">
        <ele>148.1</ele>
        <time>2023-10-08T09:55:58Z</time>
      </trkpt>
      <trkpt lat="38.156592" lon="-1.350926">
        <ele>147.4</ele>
        <time>2023-10-08T09:56:11Z</time>
      </trkpt>
      <trkpt lat="38.156757" lon="-1.350831">
        <ele>145.4</ele>
        <time>2023-10-08T09:56:24Z</time>
      </trkpt>
      <trkpt lat="38.156885" lon="-1.350664">
        <ele>142.5</ele>
        <time>2023-10-08T09:56:38Z</time>
      </trkpt>
      <trkpt lat="38.157015" lon="-1.350499">
        <ele>139.4</ele>
        <time>2023-10-08T09:56:52Z</time>
      </trkpt>
      <trkpt lat="38.157085" lon="-1.350288">
        <ele>139.4</ele>
        <time>2023-10-08T09:57:11Z</time>
      </trkpt>
      <trkpt lat="38.157104" lon="-1.350057">
        <ele>135.4</ele>
        <time>2023-10-08T09:57:24Z</time>
      </trkpt>
      <trkpt lat="38.157127" lon="-1.349825">
        <ele>134.4</ele>
        <time>2023-10-08T09:57:41Z</time>
      </trkpt>
      <trkpt lat="38.157262" lon="-1.349669">
        <ele>131.4</ele>
        <time>2023-10-08T09:58:00Z</time>
      </trkpt>
      <trkpt lat="38.157449" lon="-1.349650">
        <ele>131.4</ele>
        <time>2023-10-08T09:58:14Z</time>
      </trkpt>
      <trkpt lat="38.157625" lon="-1.349588">
        <ele>130.4</ele>
        <time>2023-10-08T09:58:29Z</time>
      </trkpt>
      <trkpt lat="38.157803" lon="-1.349551">
        <ele>129.4</ele>
        <time>2023-10-08T09:58:44Z</time>
      </trkpt>
      <trkpt lat="38.157982" lon="-1.349516">
        <ele>128.4</ele>
        <time>2023-10-08T09:59:00Z</time>
      </trkpt>
      <trkpt lat="38.158163" lon="-1.349465">
        <ele>126.1</ele>
        <time>2023-10-08T09:59:15Z</time>
      </trkpt>
      <trkpt lat="38.158340" lon="-1.349421">
        <ele>120.4</ele>
        <time>2023-10-08T09:59:31Z</time>
      </trkpt>
      <trkpt lat="38.158511" lon="-1.349341">
        <ele>127.4</ele>
        <time>2023-10-08T09:59:44Z</time>
      </trkpt>
      <trkpt lat="38.158665" lon="-1.349473">
        <ele>126.4</ele>
        <time>2023-10-08T10:00:30Z</time>
      </trkpt>
      <trkpt lat="38.158851" lon="-1.349460">
        <ele>125.7</ele>
        <time>2023-10-08T10:00:49Z</time>
      </trkpt>
      <trkpt lat="38.159030" lon="-1.349492">
        <ele>123.4</ele>
        <time>2023-10-08T10:01:05Z</time>
      </trkpt>
      <trkpt lat="38.159052" lon="-1.349265">
        <ele>129.4</ele>
        <time>2023-10-08T10:05:39Z</time>
      </trkpt>
      <trkpt lat="38.159049" lon="-1.349035">
        <ele>127.7</ele>
        <time>2023-10-08T10:06:04Z</time>
      </trkpt>
      <trkpt lat="38.158894" lon="-1.348918">
        <ele>125.4</ele>
        <time>2023-10-08T10:06:22Z</time>
      </trkpt>
      <trkpt lat="38.158767" lon="-1.348753">
        <ele>123.7</ele>
        <time>2023-10-08T10:06:39Z</time>
      </trkpt>
      <trkpt lat="38.158590" lon="-1.348697">
        <ele>122.4</ele>
        <time>2023-10-08T10:07:06Z</time>
      </trkpt>
      <trkpt lat="38.158413" lon="-1.348641">
        <ele>122.5</ele>
        <time>2023-10-08T10:07:21Z</time>
      </trkpt>
      <trkpt lat="38.158232" lon="-1.348620">
        <ele>121.1</ele>
        <time>2023-10-08T10:08:04Z</time>
      </trkpt>
      <trkpt lat="38.158052" lon="-1.348590">
        <ele>128.4</ele>
        <time>2023-10-08T10:08:39Z</time>
      </trkpt>
      <trkpt lat="38.157892" lon="-1.348709">
        <ele>127.4</ele>
        <time>2023-10-08T10:09:23Z</time>
      </trkpt>
      <trkpt lat="38.157719" lon="-1.348782">
        <ele>122.4</ele>
        <time>2023-10-08T10:10:01Z</time>
      </trkpt>
      <trkpt lat="38.157534" lon="-1.348801">
        <ele>122.4</ele>
        <time>2023-10-08T10:10:23Z</time>
      </trkpt>
      <trkpt lat="38.157354" lon="-1.348792">
        <ele>125.4</ele>
        <time>2023-10-08T10:10:41Z</time>
      </trkpt>
      <trkpt lat="38.157176" lon="-1.348857">
        <ele>124.4</ele>
        <time>2023-10-08T10:11:46Z</time>
      </trkpt>
      <trkpt lat="38.157017" lon="-1.348968">
        <ele>126.1</ele>
        <time>2023-10-08T10:12:01Z</time>
      </trkpt>
      <trkpt lat="38.156835" lon="-1.348971">
        <ele>122.4</ele>
        <time>2023-10-08T10:13:12Z</time>
      </trkpt>
      <trkpt lat="38.156661" lon="-1.349036">
        <ele>122.4</ele>
        <time>2023-10-08T10:13:27Z</time>
      </trkpt>
      <trkpt lat="38.156479" lon="-1.349047">
        <ele>123.4</ele>
        <time>2023-10-08T10:13:41Z</time>
      </trkpt>
      <trkpt lat="38.156302" lon="-1.349102">
        <ele>121.4</ele>
        <time>2023-10-08T10:13:54Z</time>
      </trkpt>
      <trkpt lat="38.156142" lon="-1.349206">
        <ele>121.4</ele>
        <time>2023-10-08T10:14:07Z</time>
      </trkpt>
      <trkpt lat="38.155969" lon="-1.349292">
        <ele>120.3</ele>
        <time>2023-10-08T10:14:23Z</time>
      </trkpt>
      <trkpt lat="38.155790" lon="-1.349237">
        <ele>120.4</ele>
        <time>2023-10-08T10:14:39Z</time>
      </trkpt>
      <trkpt lat="38.155619" lon="-1.349157">
        <ele>121.4</ele>
        <time>2023-10-08T10:14:53Z</time>
      </trkpt>
      <trkpt lat="38.155487" lon="-1.348997">
        <ele>124.4</ele>
        <time>2023-10-08T10:15:14Z</time>
      </trkpt>
      <trkpt lat="38.155467" lon="-1.348763">
        <ele>118.4</ele>
        <time>2023-10-08T10:16:11Z</time>
      </trkpt>
      <trkpt lat="38.155428" lon="-1.348530">
        <ele>119.3</ele>
        <time>2023-10-08T10:16:24Z</time>
      </trkpt>
      <trkpt lat="38.155401" lon="-1.348301">
        <ele>122.4</ele>
        <time>2023-10-08T10:16:36Z</time>
      </trkpt>
      <trkpt lat="38.155331" lon="-1.348087">
        <ele>123.4</ele>
        <time>2023-10-08T10:16:48Z</time>
      </trkpt>
      <trkpt lat="38.155244" lon="-1.347882">
        <ele>121.4</ele>
        <time>2023-10-08T10:17:03Z</time>
      </trkpt>
      <trkpt lat="38.155177" lon="-1.347667">
        <ele>115.7</ele>
        <time>2023-10-08T10:17:16Z</time>
      </trkpt>
      <trkpt lat="38.155088" lon="-1.347469">
        <ele>120.6</ele>
        <time>2023-10-08T10:17:29Z</time>
      </trkpt>
      <trkpt lat="38.155017" lon="-1.347256">
        <ele>121.4</ele>
        <time>2023-10-08T10:17:41Z</time>
      </trkpt>
      <trkpt lat="38.154914" lon="-1.347066">
        <ele>119.5</ele>
        <time>2023-10-08T10:17:54Z</time>
      </trkpt>
      <trkpt lat="38.154829" lon="-1.346850">
        <ele>123.4</ele>
        <time>2023-10-08T10:18:07Z</time>
      </trkpt>
      <trkpt lat="38.154736" lon="-1.346643">
        <ele>121.4</ele>
        <time>2023-10-08T10:18:23Z</time>
      </trkpt>
      <trkpt lat="38.154631" lon="-1.346450">
        <ele>122.4</ele>
        <time>2023-10-08T10:18:36Z</time>
      </trkpt>
      <trkpt lat="38.154526" lon="-1.346254">
        <ele>125.4</ele>
        <time>2023-10-08T10:18:47Z</time>
      </trkpt>
      <trkpt lat="38.154408" lon="-1.346072">
        <ele>126.4</ele>
        <time>2023-10-08T10:18:59Z</time>
      </trkpt>
      <trkpt lat="38.154307" lon="-1.345875">
        <ele>127.4</ele>
        <time>2023-10-08T10:19:11Z</time>
      </trkpt>
      <trkpt lat="38.154198" lon="-1.345686">
        <ele>127.4</ele>
        <time>2023-10-08T10:19:28Z</time>
      </trkpt>
      <trkpt lat="38.154123" lon="-1.345471">
        <ele>127.5</ele>
        <time>2023-10-08T10:19:41Z</time>
      </trkpt>
      <trkpt lat="38.154017" lon="-1.345285">
        <ele>125.7</ele>
        <time>2023-10-08T10:19:58Z</time>
      </trkpt>
      <trkpt lat="38.153879" lon="-1.345124">
        <ele>126.4</ele>
        <time>2023-10-08T10:20:12Z</time>
      </trkpt>
      <trkpt lat="38.153763" lon="-1.344938">
        <ele>127.4</ele>
        <time>2023-10-08T10:20:25Z</time>
      </trkpt>
      <trkpt lat="38.153659" lon="-1.344746">
        <ele>125.7</ele>
        <time>2023-10-08T10:20:39Z</time>
      </trkpt>
      <trkpt lat="38.153534" lon="-1.344558">
        <ele>127.4</ele>
        <time>2023-10-08T10:20:52Z</time>
      </trkpt>
      <trkpt lat="38.153405" lon="-1.344391">
        <ele>127.4</ele>
        <time>2023-10-08T10:21:17Z</time>
      </trkpt>
      <trkpt lat="38.153266" lon="-1.344237">
        <ele>125.4</ele>
        <time>2023-10-08T10:21:29Z</time>
      </trkpt>
      <trkpt lat="38.153121" lon="-1.344094">
        <ele>125.4</ele>
        <time>2023-10-08T10:21:41Z</time>
      </trkpt>
      <trkpt lat="38.152982" lon="-1.343933">
        <ele>125.4</ele>
        <time>2023-10-08T10:21:57Z</time>
      </trkpt>
      <trkpt lat="38.152857" lon="-1.343761">
        <ele>126.4</ele>
        <time>2023-10-08T10:22:12Z</time>
      </trkpt>
      <trkpt lat="38.152728" lon="-1.343594">
        <ele>123.7</ele>
        <time>2023-10-08T10:22:27Z</time>
      </trkpt>
      <trkpt lat="38.152617" lon="-1.343405">
        <ele>124.5</ele>
        <time>2023-10-08T10:22:41Z</time>
      </trkpt>
      <trkpt lat="38.152507" lon="-1.343215">
        <ele>123.4</ele>
        <time>2023-10-08T10:22:57Z</time>
      </trkpt>
      <trkpt lat="38.152393" lon="-1.343027">
        <ele>122.4</ele>
        <time>2023-10-08T10:25:11Z</time>
      </trkpt>
      <trkpt lat="38.152270" lon="-1.342850">
        <ele>123.4</ele>
        <time>2023-10-08T10:25:22Z</time>
      </trkpt>
      <trkpt lat="38.152142" lon="-1.342682">
        <ele>123.2</ele>
        <time>2023-10-08T10:25:37Z</time>
      </trkpt>
      <trkpt lat="38.152012" lon="-1.342507">
        <ele>123.3</ele>
        <time>2023-10-08T10:25:52Z</time>
      </trkpt>
      <trkpt lat="38.151904" lon="-1.342323">
        <ele>124.1</ele>
        <time>2023-10-08T10:26:06Z</time>
      </trkpt>
      <trkpt lat="38.151779" lon="-1.342155">
        <ele>124.4</ele>
        <time>2023-10-08T10:26:20Z</time>
      </trkpt>
      <trkpt lat="38.151656" lon="-1.341982">
        <ele>124.5</ele>
        <time>2023-10-08T10:26:35Z</time>
      </trkpt>
      <trkpt lat="38.151538" lon="-1.341807">
        <ele>126.3</ele>
        <time>2023-10-08T10:26:50Z</time>
      </trkpt>
      <trkpt lat="38.151407" lon="-1.341648">
        <ele>126.4</ele>
        <time>2023-10-08T10:27:05Z</time>
      </trkpt>
      <trkpt lat="38.151308" lon="-1.341454">
        <ele>123.4</ele>
        <time>2023-10-08T10:27:30Z</time>
      </trkpt>
      <trkpt lat="38.151191" lon="-1.341274">
        <ele>124.3</ele>
        <time>2023-10-08T10:27:44Z</time>
      </trkpt>
      <trkpt lat="38.151075" lon="-1.341095">
        <ele>124.4</ele>
        <time>2023-10-08T10:27:58Z</time>
      </trkpt>
      <trkpt lat="38.150955" lon="-1.340914">
        <ele>123.4</ele>
        <time>2023-10-08T10:28:22Z</time>
      </trkpt>
      <trkpt lat="38.150822" lon="-1.340758">
        <ele>122.4</ele>
        <time>2023-10-08T10:28:48Z</time>
      </trkpt>
      <trkpt lat="38.150685" lon="-1.340602">
        <ele>124.4</ele>
        <time>2023-10-08T10:29:04Z</time>
      </trkpt>
      <trkpt lat="38.150561" lon="-1.340431">
        <ele>125.4</ele>
        <time>2023-10-08T10:29:18Z</time>
      </trkpt>
      <trkpt lat="38.150431" lon="-1.340271">
        <ele>126.4</ele>
        <time>2023-10-08T10:29:30Z</time>
      </trkpt>
      <trkpt lat="38.150315" lon="-1.340092">
        <ele>126.4</ele>
        <time>2023-10-08T10:29:45Z</time>
      </trkpt>
      <trkpt lat="38.150196" lon="-1.339914">
        <ele>124.4</ele>
        <time>2023-10-08T10:30:00Z</time>
      </trkpt>
      <trkpt lat="38.150089" lon="-1.339724">
        <ele>122.4</ele>
        <time>2023-10-08T10:30:15Z</time>
      </trkpt>
      <trkpt lat="38.149938" lon="-1.339592">
        <ele>125.4</ele>
        <time>2023-10-08T10:30:30Z</time>
      </trkpt>
      <trkpt lat="38.149777" lon="-1.339485">
        <ele>123.7</ele>
        <time>2023-10-08T10:30:52Z</time>
      </trkpt>
      <trkpt lat="38.149601" lon="-1.339418">
        <ele>122.4</ele>
        <time>2023-10-08T10:32:28Z</time>
      </trkpt>
      <trkpt lat="38.149451" lon="-1.339290">
        <ele>120.4</ele>
        <time>2023-10-08T10:34:13Z</time>
      </trkpt>
      <trkpt lat="38.149280" lon="-1.339203">
        <ele>118.4</ele>
        <time>2023-10-08T10:35:05Z</time>
      </trkpt>
      <trkpt lat="38.149105" lon="-1.339134">
        <ele>122.4</ele>
        <time>2023-10-08T10:35:19Z</time>
      </trkpt>
      <trkpt lat="38.148936" lon="-1.339054">
        <ele>123.5</ele>
        <time>2023-10-08T10:37:14Z</time>
      </trkpt>
      <trkpt lat="38.148799" lon="-1.339203">
        <ele>122.1</ele>
        <time>2023-10-08T10:37:30Z</time>
      </trkpt>
      <trkpt lat="38.148632" lon="-1.339301">
        <ele>120.5</ele>
        <time>2023-10-08T10:37:50Z</time>
      </trkpt>
      <trkpt lat="38.148449" lon="-1.339298">
        <ele>118.4</ele>
        <time>2023-10-08T10:38:08Z</time>
      </trkpt>
      <trkpt lat="38.148270" lon="-1.339337">
        <ele>117.4</ele>
        <time>2023-10-08T10:38:25Z</time>
      </trkpt>
      <trkpt lat="38.148090" lon="-1.339376">
        <ele>119.1</ele>
        <time>2023-10-08T10:38:48Z</time>
      </trkpt>
      <trkpt lat="38.147905" lon="-1.339359">
        <ele>120.4</ele>
        <time>2023-10-08T10:39:03Z</time>
      </trkpt>
      <trkpt lat="38.147726" lon="-1.339419">
        <ele>120.4</ele>
        <time>2023-10-08T10:39:18Z</time>
      </trkpt>
      <trkpt lat="38.147543" lon="-1.339409">
        <ele>118.4</ele>
        <time>2023-10-08T10:39:33Z</time>
      </trkpt>
      <trkpt lat="38.147363" lon="-1.339426">
        <ele>120.4</ele>
        <time>2023-10-08T10:39:47Z</time>
      </trkpt>
      <trkpt lat="38.147182" lon="-1.339429">
        <ele>121.4</ele>
        <time>2023-10-08T10:39:59Z</time>
      </trkpt>
      <trkpt lat="38.146999" lon="-1.339423">
        <ele>121.5</ele>
        <time>2023-10-08T10:40:13Z</time>
      </trkpt>
      <trkpt lat="38.146818" lon="-1.339408">
        <ele>117.4</ele>
        <time>2023-10-08T10:40:29Z</time>
      </trkpt>
      <trkpt lat="38.146639" lon="-1.339388">
        <ele>118.4</ele>
        <time>2023-10-08T10:40:45Z</time>
      </trkpt>
      <trkpt lat="38.146455" lon="-1.339386">
        <ele>118.7</ele>
        <time>2023-10-08T10:40:58Z</time>
      </trkpt>
      <trkpt lat="38.146275" lon="-1.339402">
        <ele>119.4</ele>
        <time>2023-10-08T10:41:12Z</time>
      </trkpt>
      <trkpt lat="38.146097" lon="-1.339363">
        <ele>120.1</ele>
        <time>2023-10-08T10:41:29Z</time>
      </trkpt>
      <trkpt lat="38.146084" lon="-1.339126">
        <ele>125.4</ele>
        <time>2023-10-08T10:41:51Z</time>
      </trkpt>
      <trkpt lat="38.146069" lon="-1.338897">
        <ele>129.5</ele>
        <time>2023-10-08T10:42:13Z</time>
      </trkpt>
      <trkpt lat="38.145906" lon="-1.338787">
        <ele>133.4</ele>
        <time>2023-10-08T10:42:34Z</time>
      </trkpt>
      <trkpt lat="38.145746" lon="-1.338676">
        <ele>137.4</ele>
        <time>2023-10-08T10:42:54Z</time>
      </trkpt>
      <trkpt lat="38.145560" lon="-1.338650">
        <ele>138.5</ele>
        <time>2023-10-08T10:43:11Z</time>
      </trkpt>
      <trkpt lat="38.145375" lon="-1.338692">
        <ele>136.5</ele>
        <time>2023-10-08T10:43:28Z</time>
      </trkpt>
      <trkpt lat="38.145198" lon="-1.338734">
        <ele>135.4</ele>
        <time>2023-10-08T10:43:47Z</time>
      </trkpt>
      <trkpt lat="38.145015" lon="-1.338742">
        <ele>135.3</ele>
        <time>2023-10-08T10:44:05Z</time>
      </trkpt>
      <trkpt lat="38.144832" lon="-1.338739">
        <ele>138.5</ele>
        <time>2023-10-08T10:44:22Z</time>
      </trkpt>
      <trkpt lat="38.144649" lon="-1.338785">
        <ele>136.4</ele>
        <time>2023-10-08T10:44:45Z</time>
      </trkpt>
      <trkpt lat="38.144466" lon="-1.338806">
        <ele>139.4</ele>
        <time>2023-10-08T10:45:00Z</time>
      </trkpt>
      <trkpt lat="38.144289" lon="-1.338868">
        <ele>142.4</ele>
        <time>2023-10-08T10:45:17Z</time>
      </trkpt>
      <trkpt lat="38.144103" lon="-1.338876">
        <ele>145.4</ele>
        <time>2023-10-08T10:45:36Z</time>
      </trkpt>
      <trkpt lat="38.143981" lon="-1.338699">
        <ele>146.4</ele>
        <time>2023-10-08T10:45:53Z</time>
      </trkpt>
      <trkpt lat="38.143815" lon="-1.338581">
        <ele>148.4</ele>
        <time>2023-10-08T10:46:09Z</time>
      </trkpt>
      <trkpt lat="38.143637" lon="-1.338520">
        <ele>147.4</ele>
        <time>2023-10-08T10:46:26Z</time>
      </trkpt>
      <trkpt lat="38.143457" lon="-1.338541">
        <ele>143.5</ele>
        <time>2023-10-08T10:46:42Z</time>
      </trkpt>
      <trkpt lat="38.143333" lon="-1.338715">
        <ele>141.4</ele>
        <time>2023-10-08T10:46:58Z</time>
      </trkpt>
      <trkpt lat="38.143148" lon="-1.338676">
        <ele>140.4</ele>
        <time>2023-10-08T10:47:16Z</time>
      </trkpt>
      <trkpt lat="38.142961" lon="-1.338669">
        <ele>140.1</ele>
        <time>2023-10-08T10:47:30Z</time>
      </trkpt>
      <trkpt lat="38.142833" lon="-1.338505">
        <ele>140.4</ele>
        <time>2023-10-08T10:47:45Z</time>
      </trkpt>
      <trkpt lat="38.142707" lon="-1.338341">
        <ele>139.7</ele>
        <time>2023-10-08T10:48:00Z</time>
      </trkpt>
      <trkpt lat="38.142526" lon="-1.338301">
        <ele>142.3</ele>
        <time>2023-10-08T10:48:21Z</time>
      </trkpt>
      <trkpt lat="38.142345" lon="-1.338300">
        <ele>144.4</ele>
        <time>2023-10-08T10:48:35Z</time>
      </trkpt>
      <trkpt lat="38.142157" lon="-1.338294">
        <ele>144.4</ele>
        <time>2023-10-08T10:48:49Z</time>
      </trkpt>
      <trkpt lat="38.141968" lon="-1.338298">
        <ele>144.7</ele>
        <time>2023-10-08T10:49:04Z</time>
      </trkpt>
      <trkpt lat="38.141814" lon="-1.338417">
        <ele>144.4</ele>
        <time>2023-10-08T10:49:18Z</time>
      </trkpt>
      <trkpt lat="38.141634" lon="-1.338398">
        <ele>143.4</ele>
        <time>2023-10-08T10:49:35Z</time>
      </trkpt>
      <trkpt lat="38.141457" lon="-1.338348">
        <ele>142.7</ele>
        <time>2023-10-08T10:49:50Z</time>
      </trkpt>
      <trkpt lat="38.141278" lon="-1.338379">
        <ele>140.4</ele>
        <time>2023-10-08T10:50:08Z</time>
      </trkpt>
      <trkpt lat="38.141098" lon="-1.338361">
        <ele>141.4</ele>
        <time>2023-10-08T10:50:23Z</time>
      </trkpt>
      <trkpt lat="38.140941" lon="-1.338233">
        <ele>143.4</ele>
        <time>2023-10-08T10:50:38Z</time>
      </trkpt>
      <trkpt lat="38.140782" lon="-1.338110">
        <ele>145.5</ele>
        <time>2023-10-08T10:50:56Z</time>
      </trkpt>
      <trkpt lat="38.140599" lon="-1.338112">
        <ele>146.4</ele>
        <time>2023-10-08T10:51:14Z</time>
      </trkpt>
      <trkpt lat="38.140450" lon="-1.338250">
        <ele>146.4</ele>
        <time>2023-10-08T10:52:46Z</time>
      </trkpt>
      <trkpt lat="38.140453" lon="-1.338014">
        <ele>145.4</ele>
        <time>2023-10-08T10:54:02Z</time>
      </trkpt>
      <trkpt lat="38.140409" lon="-1.337789">
        <ele>143.1</ele>
        <time>2023-10-08T10:54:25Z</time>
      </trkpt>
      <trkpt lat="38.140313" lon="-1.337586">
        <ele>140.4</ele>
        <time>2023-10-08T10:55:25Z</time>
      </trkpt>
      <trkpt lat="38.140158" lon="-1.337443">
        <ele>139.4</ele>
        <time>2023-10-08T10:55:39Z</time>
      </trkpt>
      <trkpt lat="38.140040" lon="-1.337259">
        <ele>140.1</ele>
        <time>2023-10-08T10:55:52Z</time>
      </trkpt>
      <trkpt lat="38.139912" lon="-1.337082">
        <ele>141.3</ele>
        <time>2023-10-08T10:56:04Z</time>
      </trkpt>
      <trkpt lat="38.139774" lon="-1.336932">
        <ele>143.3</ele>
        <time>2023-10-08T10:56:16Z</time>
      </trkpt>
      <trkpt lat="38.139621" lon="-1.336798">
        <ele>142.4</ele>
        <time>2023-10-08T10:56:28Z</time>
      </trkpt>
      <trkpt lat="38.139494" lon="-1.336625">
        <ele>140.3</ele>
        <time>2023-10-08T10:56:40Z</time>
      </trkpt>
      <trkpt lat="38.139396" lon="-1.336419">
        <ele>140.3</ele>
        <time>2023-10-08T10:56:54Z</time>
      </trkpt>
      <trkpt lat="38.139293" lon="-1.336219">
        <ele>139.4</ele>
        <time>2023-10-08T10:57:10Z</time>
      </trkpt>
      <trkpt lat="38.139113" lon="-1.336166">
        <ele>139.4</ele>
        <time>2023-10-08T10:57:23Z</time>
      </trkpt>
      <trkpt lat="38.138934" lon="-1.336194">
        <ele>138.4</ele>
        <time>2023-10-08T10:57:37Z</time>
      </trkpt>
      <trkpt lat="38.138754" lon="-1.336168">
        <ele>136.7</ele>
        <time>2023-10-08T10:57:57Z</time>
      </trkpt>
      <trkpt lat="38.138613" lon="-1.336018">
        <ele>133.4</ele>
        <time>2023-10-08T10:58:10Z</time>
      </trkpt>
      <trkpt lat="38.138532" lon="-1.335806">
        <ele>132.4</ele>
        <time>2023-10-08T10:58:23Z</time>
      </trkpt>
      <trkpt lat="38.138460" lon="-1.335588">
        <ele>129.4</ele>
        <time>2023-10-08T10:58:40Z</time>
      </trkpt>
      <trkpt lat="38.138362" lon="-1.335388">
        <ele>129.4</ele>
        <time>2023-10-08T11:02:22Z</time>
      </trkpt>
      <trkpt lat="38.138247" lon="-1.335207">
        <ele>131.4</ele>
        <time>2023-10-08T11:02:36Z</time>
      </trkpt>
      <trkpt lat="38.138160" lon="-1.335006">
        <ele>134.3</ele>
        <time>2023-10-08T11:02:52Z</time>
      </trkpt>
      <trkpt lat="38.138058" lon="-1.334812">
        <ele>133.4</ele>
        <time>2023-10-08T11:03:54Z</time>
      </trkpt>
      <trkpt lat="38.137914" lon="-1.334664">
        <ele>136.5</ele>
        <time>2023-10-08T11:04:25Z</time>
      </trkpt>
      <trkpt lat="38.137843" lon="-1.334450">
        <ele>134.1</ele>
        <time>2023-10-08T11:04:46Z</time>
      </trkpt>
      <trkpt lat="38.137885" lon="-1.334226">
        <ele>134.4</ele>
        <time>2023-10-08T11:05:33Z</time>
      </trkpt>
      <trkpt lat="38.137934" lon="-1.334003">
        <ele>131.4</ele>
        <time>2023-10-08T11:05:49Z</time>
      </trkpt>
      <trkpt lat="38.137925" lon="-1.333769">
        <ele>135.4</ele>
        <time>2023-10-08T11:06:01Z</time>
      </trkpt>
      <trkpt lat="38.137888" lon="-1.333533">
        <ele>137.3</ele>
        <time>2023-10-08T11:06:13Z</time>
      </trkpt>
      <trkpt lat="38.137879" lon="-1.333299">
        <ele>138.4</ele>
        <time>2023-10-08T11:06:27Z</time>
      </trkpt>
      <trkpt lat="38.137919" lon="-1.333071">
        <ele>136.1</ele>
        <time>2023-10-08T11:06:42Z</time>
      </trkpt>
      <trkpt lat="38.137945" lon="-1.332840">
        <ele>138.4</ele>
        <time>2023-10-08T11:07:00Z</time>
      </trkpt>
      <trkpt lat="38.137931" lon="-1.332608">
        <ele>137.4</ele>
        <time>2023-10-08T11:07:20Z</time>
      </trkpt>
      <trkpt lat="38.137961" lon="-1.332381">
        <ele>130.4</ele>
        <time>2023-10-08T11:08:19Z</time>
      </trkpt>
      <trkpt lat="38.137817" lon="-1.332183">
        <ele>129.7</ele>
        <time>2023-10-08T11:09:04Z</time>
      </trkpt>
      <trkpt lat="38.137890" lon="-1.331927">
        <ele>132.4</ele>
        <time>2023-10-08T11:10:04Z</time>
      </trkpt>
      <trkpt lat="38.137929" lon="-1.331646">
        <ele>130.4</ele>
        <time>2023-10-08T11:10:21Z</time>
      </trkpt>
      <trkpt lat="38.137893" lon="-1.331489">
        <ele>129.4</ele>
        <time>2023-10-08T11:10:41Z</time>
      </trkpt>
      <trkpt lat="38.137745" lon="-1.331347">
        <ele>126.4</ele>
        <time>2023-10-08T11:10:54Z</time>
      </trkpt>
      <trkpt lat="38.137610" lon="-1.331185">
        <ele>125.4</ele>
        <time>2023-10-08T11:11:08Z</time>
      </trkpt>
      <trkpt lat="38.137383" lon="-1.331094">
        <ele>127.4</ele>
        <time>2023-10-08T11:11:33Z</time>
      </trkpt>
      <trkpt lat="38.137237" lon="-1.330990">
        <ele>123.4</ele>
        <time>2023-10-08T11:11:47Z</time>
      </trkpt>
      <trkpt lat="38.137095" lon="-1.330900">
        <ele>119.4</ele>
        <time>2023-10-08T11:12:02Z</time>
      </trkpt>
      <trkpt lat="38.136921" lon="-1.330835">
        <ele>120.5</ele>
        <time>2023-10-08T11:12:19Z</time>
      </trkpt>
      <trkpt lat="38.136751" lon="-1.330761">
        <ele>118.6</ele>
        <time>2023-10-08T11:12:36Z</time>
      </trkpt>
      <trkpt lat="38.136619" lon="-1.330701">
        <ele>119.4</ele>
        <time>2023-10-08T11:12:53Z</time>
      </trkpt>
      <trkpt lat="38.136268" lon="-1.330587">
        <ele>119.4</ele>
        <time>2023-10-08T11:13:09Z</time>
      </trkpt>
      <trkpt lat="38.135918" lon="-1.330369">
        <ele>119.4</ele>
        <time>2023-10-08T11:13:23Z</time>
      </trkpt>
      <trkpt lat="38.135316" lon="-1.330287">
        <ele>116.7</ele>
        <time>2023-10-08T11:13:40Z</time>
      </trkpt>
      <trkpt lat="38.134674" lon="-1.330162">
        <ele>116.7</ele>
        <time>2023-10-08T11:13:55Z</time>
      </trkpt>
      <trkpt lat="38.134285" lon="-1.329964">
        <ele>116.7</ele>
        <time>2023-10-08T11:14:10Z</time>
      </trkpt>
      <trkpt lat="38.134308" lon="-1.329894">
        <ele>116.7</ele>
        <time>2023-10-08T11:14:24Z</time>
      </trkpt>
      <trkpt lat="38.134576" lon="-1.329677">
        <ele>118.4</ele>
        <time>2023-10-08T11:14:40Z</time>
      </trkpt>
      <trkpt lat="38.135127" lon="-1.329365">
        <ele>117.1</ele>
        <time>2023-10-08T11:14:56Z</time>
      </trkpt>
      <trkpt lat="38.135324" lon="-1.329157">
        <ele>117.1</ele>
        <time>2023-10-08T11:15:13Z</time>
      </trkpt>
      <trkpt lat="38.135726" lon="-1.328416">
        <ele>117.1</ele>
        <time>2023-10-08T11:15:25Z</time>
      </trkpt>
      <trkpt lat="38.135940" lon="-1.327951">
        <ele>117.1</ele>
        <time>2023-10-08T11:15:39Z</time>
      </trkpt>
      <trkpt lat="38.136056" lon="-1.327656">
        <ele>117.1</ele>
        <time>2023-10-08T11:15:54Z</time>
      </trkpt>
      <trkpt lat="38.136235" lon="-1.327281">
        <ele>130.3</ele>
        <time>2023-10-08T11:16:09Z</time>
      </trkpt>
      <trkpt lat="38.136399" lon="-1.327052">
        <ele>130.3</ele>
        <time>2023-10-08T11:16:25Z</time>
      </trkpt>
      <trkpt lat="38.136610" lon="-1.326871">
        <ele>130.3</ele>
        <time>2023-10-08T11:16:39Z</time>
      </trkpt>
      <trkpt lat="38.136805" lon="-1.326697">
        <ele>130.3</ele>
        <time>2023-10-08T11:16:53Z</time>
      </trkpt>
      <trkpt lat="38.136968" lon="-1.326543">
        <ele>130.3</ele>
        <time>2023-10-08T11:17:07Z</time>
      </trkpt>
      <trkpt lat="38.137195" lon="-1.326369">
        <ele>116.4</ele>
        <time>2023-10-08T11:17:21Z</time>
      </trkpt>
      <trkpt lat="38.137301" lon="-1.326396">
        <ele>118.4</ele>
        <time>2023-10-08T11:17:34Z</time>
      </trkpt>
      <trkpt lat="38.137377" lon="-1.326309">
        <ele>117.5</ele>
        <time>2023-10-08T11:18:04Z</time>
      </trkpt>
      <trkpt lat="38.137333" lon="-1.326083">
        <ele>117.7</ele>
        <time>2023-10-08T11:18:20Z</time>
      </trkpt>
      <trkpt lat="38.137200" lon="-1.325933">
        <ele>119.4</ele>
        <time>2023-10-08T11:18:50Z</time>
      </trkpt>
      <trkpt lat="38.137137" lon="-1.325704">
        <ele>121.4</ele>
        <time>2023-10-08T11:19:06Z</time>
      </trkpt>
      <trkpt lat="38.137050" lon="-1.325500">
        <ele>123.4</ele>
        <time>2023-10-08T11:19:18Z</time>
      </trkpt>
      <trkpt lat="38.137151" lon="-1.325301">
        <ele>122.4</ele>
        <time>2023-10-08T11:19:31Z</time>
      </trkpt>
      <trkpt lat="38.137315" lon="-1.325193">
        <ele>122.4</ele>
        <time>2023-10-08T11:19:43Z</time>
      </trkpt>
      <trkpt lat="38.137482" lon="-1.325097">
        <ele>119.4</ele>
        <time>2023-10-08T11:19:56Z</time>
      </trkpt>
      <trkpt lat="38.137637" lon="-1.324963">
        <ele>122.1</ele>
        <time>2023-10-08T11:20:08Z</time>
      </trkpt>
      <trkpt lat="38.137799" lon="-1.324852">
        <ele>122.4</ele>
        <time>2023-10-08T11:20:20Z</time>
      </trkpt>
      <trkpt lat="38.137961" lon="-1.324748">
        <ele>125.1</ele>
        <time>2023-10-08T11:20:35Z</time>
      </trkpt>
      <trkpt lat="38.138114" lon="-1.324618">
        <ele>125.3</ele>
        <time>2023-10-08T11:20:48Z</time>
      </trkpt>
      <trkpt lat="38.138250" lon="-1.324467">
        <ele>121.3</ele>
        <time>2023-10-08T11:21:07Z</time>
      </trkpt>
      <trkpt lat="38.138424" lon="-1.324506">
        <ele>121.3</ele>
        <time>2023-10-08T11:21:31Z</time>
      </trkpt>
      <trkpt lat="38.138578" lon="-1.324631">
        <ele>121.3</ele>
        <time>2023-10-08T11:21:43Z</time>
      </trkpt>
      <trkpt lat="38.138731" lon="-1.324755">
        <ele>121.3</ele>
        <time>2023-10-08T11:22:04Z</time>
      </trkpt>
      <trkpt lat="38.138902" lon="-1.324674">
        <ele>121.3</ele>
        <time>2023-10-08T11:22:19Z</time>
      </trkpt>
      <trkpt lat="38.139074" lon="-1.324585">
        <ele>112.3</ele>
        <time>2023-10-08T11:22:34Z</time>
      </trkpt>
      <trkpt lat="38.139238" lon="-1.324473">
        <ele>112.3</ele>
        <time>2023-10-08T11:22:49Z</time>
      </trkpt>
      <trkpt lat="38.139376" lon="-1.324320">
        <ele>112.4</ele>
        <time>2023-10-08T11:23:03Z</time>
      </trkpt>
      <trkpt lat="38.139532" lon="-1.324205">
        <ele>113.2</ele>
        <time>2023-10-08T11:23:19Z</time>
      </trkpt>
      <trkpt lat="38.139707" lon="-1.324131">
        <ele>112.4</ele>
        <time>2023-10-08T11:23:36Z</time>
      </trkpt>
      <trkpt lat="38.139885" lon="-1.324074">
        <ele>112.4</ele>
        <time>2023-10-08T11:23:51Z</time>
      </trkpt>
      <trkpt lat="38.140072" lon="-1.324044">
        <ele>111.4</ele>
        <time>2023-10-08T11:24:04Z</time>
      </trkpt>
      <trkpt lat="38.140239" lon="-1.323946">
        <ele>112.4</ele>
        <time>2023-10-08T11:24:18Z</time>
      </trkpt>
      <trkpt lat="38.140416" lon="-1.323881">
        <ele>114.4</ele>
        <time>2023-10-08T11:24:31Z</time>
      </trkpt>
      <trkpt lat="38.140590" lon="-1.323808">
        <ele>114.4</ele>
        <time>2023-10-08T11:24:47Z</time>
      </trkpt>
      <trkpt lat="38.140755" lon="-1.323689">
        <ele>111.4</ele>
        <time>2023-10-08T11:25:02Z</time>
      </trkpt>
      <trkpt lat="38.140942" lon="-1.323665">
        <ele>112.4</ele>
        <time>2023-10-08T11:25:14Z</time>
      </trkpt>
      <trkpt lat="38.141113" lon="-1.323582">
        <ele>114.4</ele>
        <time>2023-10-08T11:25:27Z</time>
      </trkpt>
      <trkpt lat="38.141289" lon="-1.323510">
        <ele>112.4</ele>
        <time>2023-10-08T11:25:41Z</time>
      </trkpt>
      <trkpt lat="38.141435" lon="-1.323365">
        <ele>113.4</ele>
        <time>2023-10-08T11:26:12Z</time>
      </trkpt>
      <trkpt lat="38.141572" lon="-1.323207">
        <ele>114.4</ele>
        <time>2023-10-08T11:26:28Z</time>
      </trkpt>
      <trkpt lat="38.141627" lon="-1.322984">
        <ele>115.3</ele>
        <time>2023-10-08T11:26:45Z</time>
      </trkpt>
      <trkpt lat="38.141587" lon="-1.322758">
        <ele>114.4</ele>
        <time>2023-10-08T11:27:02Z</time>
      </trkpt>
      <trkpt lat="38.141512" lon="-1.322541">
        <ele>113.4</ele>
        <time>2023-10-08T11:27:18Z</time>
      </trkpt>
      <trkpt lat="38.141336" lon="-1.322480">
        <ele>114.4</ele>
        <time>2023-10-08T11:27:33Z</time>
      </trkpt>
      <trkpt lat="38.141159" lon="-1.322430">
        <ele>113.4</ele>
        <time>2023-10-08T11:27:48Z</time>
      </trkpt>
      <trkpt lat="38.141020" lon="-1.322275">
        <ele>112.4</ele>
        <time>2023-10-08T11:28:03Z</time>
      </trkpt>
      <trkpt lat="38.140889" lon="-1.322105">
        <ele>112.3</ele>
        <time>2023-10-08T11:28:17Z</time>
      </trkpt>
      <trkpt lat="38.140787" lon="-1.321910">
        <ele>112.4</ele>
        <time>2023-10-08T11:28:32Z</time>
      </trkpt>
      <trkpt lat="38.140673" lon="-1.321725">
        <ele>111.4</ele>
        <time>2023-10-08T11:28:47Z</time>
      </trkpt>
      <trkpt lat="38.140606" lon="-1.321507">
        <ele>110.4</ele>
        <time>2023-10-08T11:29:02Z</time>
      </trkpt>
      <trkpt lat="38.140547" lon="-1.321288">
        <ele>112.4</ele>
        <time>2023-10-08T11:29:16Z</time>
      </trkpt>
      <trkpt lat="38.140508" lon="-1.321065">
        <ele>111.4</ele>
        <time>2023-10-08T11:29:31Z</time>
      </trkpt>
      <trkpt lat="38.140441" lon="-1.320839">
        <ele>112.4</ele>
        <time>2023-10-08T11:29:44Z</time>
      </trkpt>
      <trkpt lat="38.140370" lon="-1.320620">
        <ele>110.4</ele>
        <time>2023-10-08T11:30:00Z</time>
      </trkpt>
      <trkpt lat="38.140288" lon="-1.320413">
        <ele>109.4</ele>
        <time>2023-10-08T11:30:21Z</time>
      </trkpt>
      <trkpt lat="38.140217" lon="-1.320200">
        <ele>107.5</ele>
        <time>2023-10-08T11:30:36Z</time>
      </trkpt>
      <trkpt lat="38.140087" lon="-1.320034">
        <ele>109.4</ele>
        <time>2023-10-08T11:30:51Z</time>
      </trkpt>
      <trkpt lat="38.139964" lon="-1.319857">
        <ele>107.4</ele>
        <time>2023-10-08T11:31:06Z</time>
      </trkpt>
      <trkpt lat="38.139810" lon="-1.319731">
        <ele>107.4</ele>
        <time>2023-10-08T11:31:19Z</time>
      </trkpt>
      <trkpt lat="38.139659" lon="-1.319603">
        <ele>111.4</ele>
        <time>2023-10-08T11:31:31Z</time>
      </trkpt>
      <trkpt lat="38.139502" lon="-1.319478">
        <ele>112.4</ele>
        <time>2023-10-08T11:31:44Z</time>
      </trkpt>
      <trkpt lat="38.139330" lon="-1.319399">
        <ele>113.4</ele>
        <time>2023-10-08T11:31:59Z</time>
      </trkpt>
      <trkpt lat="38.139158" lon="-1.319308">
        <ele>115.4</ele>
        <time>2023-10-08T11:32:12Z</time>
      </trkpt>
      <trkpt lat="38.138993" lon="-1.319203">
        <ele>114.4</ele>
        <time>2023-10-08T11:32:27Z</time>
      </trkpt>
      <trkpt lat="38.138809" lon="-1.319180">
        <ele>113.6</ele>
        <time>2023-10-08T11:32:41Z</time>
      </trkpt>
      <trkpt lat="38.138627" lon="-1.319198">
        <ele>114.3</ele>
        <time>2023-10-08T11:32:54Z</time>
      </trkpt>
      <trkpt lat="38.138447" lon="-1.319219">
        <ele>113.2</ele>
        <time>2023-10-08T11:33:27Z</time>
      </trkpt>
      <trkpt lat="38.138273" lon="-1.319139">
        <ele>113.4</ele>
        <time>2023-10-08T11:33:39Z</time>
      </trkpt>
      <trkpt lat="38.138101" lon="-1.319058">
        <ele>112.4</ele>
        <time>2023-10-08T11:33:50Z</time>
      </trkpt>
      <trkpt lat="38.137928" lon="-1.318988">
        <ele>111.4</ele>
        <time>2023-10-08T11:34:03Z</time>
      </trkpt>
      <trkpt lat="38.137748" lon="-1.318948">
        <ele>109.4</ele>
        <time>2023-10-08T11:34:16Z</time>
      </trkpt>
      <trkpt lat="38.137575" lon="-1.318835">
        <ele>112.4</ele>
        <time>2023-10-08T11:34:28Z</time>
      </trkpt>
      <trkpt lat="38.137403" lon="-1.318735">
        <ele>110.4</ele>
        <time>2023-10-08T11:34:40Z</time>
      </trkpt>
      <trkpt lat="38.137248" lon="-1.318620">
        <ele>111.4</ele>
        <time>2023-10-08T11:34:52Z</time>
      </trkpt>
      <trkpt lat="38.137080" lon="-1.318520">
        <ele>112.7</ele>
        <time>2023-10-08T11:35:06Z</time>
      </trkpt>
      <trkpt lat="38.136918" lon="-1.318404">
        <ele>112.4</ele>
        <time>2023-10-08T11:35:19Z</time>
      </trkpt>
      <trkpt lat="38.136748" lon="-1.318313">
        <ele>112.1</ele>
        <time>2023-10-08T11:35:34Z</time>
      </trkpt>
      <trkpt lat="38.136574" lon="-1.318229">
        <ele>111.4</ele>
        <time>2023-10-08T11:35:48Z</time>
      </trkpt>
      <trkpt lat="38.136401" lon="-1.318145">
        <ele>112.3</ele>
        <time>2023-10-08T11:36:03Z</time>
      </trkpt>
      <trkpt lat="38.136243" lon="-1.318034">
        <ele>113.4</ele>
        <time>2023-10-08T11:36:16Z</time>
      </trkpt>
      <trkpt lat="38.136086" lon="-1.317918">
        <ele>110.4</ele>
        <time>2023-10-08T11:36:32Z</time>
      </trkpt>
      <trkpt lat="38.135916" lon="-1.317834">
        <ele>112.2</ele>
        <time>2023-10-08T11:36:47Z</time>
      </trkpt>
      <trkpt lat="38.135755" lon="-1.317728">
        <ele>110.4</ele>
        <time>2023-10-08T11:37:01Z</time>
      </trkpt>
      <trkpt lat="38.135599" lon="-1.317609">
        <ele>109.4</ele>
        <time>2023-10-08T11:37:17Z</time>
      </trkpt>
      <trkpt lat="38.135434" lon="-1.317498">
        <ele>109.4</ele>
        <time>2023-10-08T11:37:31Z</time>
      </trkpt>
      <trkpt lat="38.135270" lon="-1.317396">
        <ele>110.4</ele>
        <time>2023-10-08T11:37:46Z</time>
      </trkpt>
      <trkpt lat="38.135098" lon="-1.317308">
        <ele>111.4</ele>
        <time>2023-10-08T11:38:00Z</time>
      </trkpt>
      <trkpt lat="38.134929" lon="-1.317219">
        <ele>110.4</ele>
        <time>2023-10-08T11:38:15Z</time>
      </trkpt>
      <trkpt lat="38.134769" lon="-1.317113">
        <ele>111.4</ele>
        <time>2023-10-08T11:38:30Z</time>
      </trkpt>
      <trkpt lat="38.134599" lon="-1.317035">
        <ele>112.4</ele>
        <time>2023-10-08T11:38:44Z</time>
      </trkpt>
      <trkpt lat="38.134430" lon="-1.316939">
        <ele>111.4</ele>
        <time>2023-10-08T11:39:00Z</time>
      </trkpt>
      <trkpt lat="38.134271" lon="-1.316822">
        <ele>109.4</ele>
        <time>2023-10-08T11:39:15Z</time>
      </trkpt>
      <trkpt lat="38.134112" lon="-1.316698">
        <ele>109.4</ele>
        <time>2023-10-08T11:39:30Z</time>
      </trkpt>
      <trkpt lat="38.133953" lon="-1.316583">
        <ele>108.4</ele>
        <time>2023-10-08T11:39:44Z</time>
      </trkpt>
      <trkpt lat="38.133795" lon="-1.316471">
        <ele>109.4</ele>
        <time>2023-10-08T11:39:58Z</time>
      </trkpt>
      <trkpt lat="38.133645" lon="-1.316345">
        <ele>108.5</ele>
        <time>2023-10-08T11:40:11Z</time>
      </trkpt>
      <trkpt lat="38.133487" lon="-1.316228">
        <ele>110.4</ele>
        <time>2023-10-08T11:40:26Z</time>
      </trkpt>
      <trkpt lat="38.133327" lon="-1.316116">
        <ele>109.4</ele>
        <time>2023-10-08T11:40:41Z</time>
      </trkpt>
      <trkpt lat="38.133155" lon="-1.316033">
        <ele>111.4</ele>
        <time>2023-10-08T11:40:55Z</time>
      </trkpt>
      <trkpt lat="38.132991" lon="-1.315933">
        <ele>108.5</ele>
        <time>2023-10-08T11:41:09Z</time>
      </trkpt>
      <trkpt lat="38.132828" lon="-1.315832">
        <ele>108.4</ele>
        <time>2023-10-08T11:41:23Z</time>
      </trkpt>
      <trkpt lat="38.132666" lon="-1.315715">
        <ele>121.2</ele>
        <time>2023-10-08T11:41:39Z</time>
      </trkpt>
      <trkpt lat="38.132508" lon="-1.315603">
        <ele>114.3</ele>
        <time>2023-10-08T11:41:52Z</time>
      </trkpt>
      <trkpt lat="38.132351" lon="-1.315484">
        <ele>118.4</ele>
        <time>2023-10-08T11:42:07Z</time>
      </trkpt>
      <trkpt lat="38.132183" lon="-1.315384">
        <ele>119.4</ele>
        <time>2023-10-08T11:42:22Z</time>
      </trkpt>
      <trkpt lat="38.132016" lon="-1.315291">
        <ele>117.4</ele>
        <time>2023-10-08T11:42:35Z</time>
      </trkpt>
      <trkpt lat="38.131840" lon="-1.315189">
        <ele>116.1</ele>
        <time>2023-10-08T11:42:51Z</time>
      </trkpt>
      <trkpt lat="38.131669" lon="-1.315106">
        <ele>116.4</ele>
        <time>2023-10-08T11:43:06Z</time>
      </trkpt>
      <trkpt lat="38.131492" lon="-1.315054">
        <ele>115.4</ele>
        <time>2023-10-08T11:43:18Z</time>
      </trkpt>
      <trkpt lat="38.131329" lon="-1.314947">
        <ele>116.4</ele>
        <time>2023-10-08T11:43:33Z</time>
      </trkpt>
      <trkpt lat="38.131160" lon="-1.314841">
        <ele>116.4</ele>
        <time>2023-10-08T11:43:48Z</time>
      </trkpt>
      <trkpt lat="38.130998" lon="-1.314742">
        <ele>114.4</ele>
        <time>2023-10-08T11:44:02Z</time>
      </trkpt>
      <trkpt lat="38.130847" lon="-1.314617">
        <ele>112.3</ele>
        <time>2023-10-08T11:44:16Z</time>
      </trkpt>
      <trkpt lat="38.130697" lon="-1.314484">
        <ele>110.5</ele>
        <time>2023-10-08T11:44:30Z</time>
      </trkpt>
      <trkpt lat="38.130542" lon="-1.314354">
        <ele>109.4</ele>
        <time>2023-10-08T11:45:36Z</time>
      </trkpt>
      <trkpt lat="38.130392" lon="-1.314219">
        <ele>108.4</ele>
        <time>2023-10-08T11:45:47Z</time>
      </trkpt>
      <trkpt lat="38.130231" lon="-1.314113">
        <ele>110.4</ele>
        <time>2023-10-08T11:45:59Z</time>
      </trkpt>
      <trkpt lat="38.130062" lon="-1.314020">
        <ele>107.4</ele>
        <time>2023-10-08T11:46:11Z</time>
      </trkpt>
      <trkpt lat="38.129884" lon="-1.313984">
        <ele>105.4</ele>
        <time>2023-10-08T11:46:24Z</time>
      </trkpt>
      <trkpt lat="38.129693" lon="-1.313983">
        <ele>105.7</ele>
        <time>2023-10-08T11:46:38Z</time>
      </trkpt>
      <trkpt lat="38.129529" lon="-1.313885">
        <ele>105.4</ele>
        <time>2023-10-08T11:47:22Z</time>
      </trkpt>
      <trkpt lat="38.129357" lon="-1.313809">
        <ele>104.2</ele>
        <time>2023-10-08T11:47:35Z</time>
      </trkpt>
      <trkpt lat="38.129194" lon="-1.313713">
        <ele>98.6</ele>
        <time>2023-10-08T11:47:50Z</time>
      </trkpt>
      <trkpt lat="38.129053" lon="-1.313572">
        <ele>99.4</ele>
        <time>2023-10-08T11:48:21Z</time>
      </trkpt>
      <trkpt lat="38.128949" lon="-1.313378">
        <ele>103.7</ele>
        <time>2023-10-08T11:50:02Z</time>
      </trkpt>
      <trkpt lat="38.128816" lon="-1.313220">
        <ele>103.4</ele>
        <time>2023-10-08T11:50:18Z</time>
      </trkpt>
      <trkpt lat="38.128672" lon="-1.313079">
        <ele>102.1</ele>
        <time>2023-10-08T11:50:35Z</time>
      </trkpt>
      <trkpt lat="38.128545" lon="-1.312914">
        <ele>105.4</ele>
        <time>2023-10-08T11:50:51Z</time>
      </trkpt>
      <trkpt lat="38.128433" lon="-1.312727">
        <ele>105.5</ele>
        <time>2023-10-08T11:51:07Z</time>
      </trkpt>
      <trkpt lat="38.128376" lon="-1.312505">
        <ele>107.1</ele>
        <time>2023-10-08T11:51:22Z</time>
      </trkpt>
      <trkpt lat="38.128317" lon="-1.312282">
        <ele>107.5</ele>
        <time>2023-10-08T11:51:38Z</time>
      </trkpt>
      <trkpt lat="38.128253" lon="-1.312048">
        <ele>106.4</ele>
        <time>2023-10-08T11:51:56Z</time>
      </trkpt>
      <trkpt lat="38.128176" lon="-1.311828">
        <ele>105.4</ele>
        <time>2023-10-08T11:52:11Z</time>
      </trkpt>
      <trkpt lat="38.128100" lon="-1.311621">
        <ele>105.4</ele>
        <time>2023-10-08T11:52:24Z</time>
      </trkpt>
      <trkpt lat="38.128004" lon="-1.311407">
        <ele>105.1</ele>
        <time>2023-10-08T11:52:39Z</time>
      </trkpt>
      <trkpt lat="38.127911" lon="-1.311204">
        <ele>103.7</ele>
        <time>2023-10-08T11:52:54Z</time>
      </trkpt>
      <trkpt lat="38.127798" lon="-1.311019">
        <ele>108.2</ele>
        <time>2023-10-08T11:53:09Z</time>
      </trkpt>
      <trkpt lat="38.127691" lon="-1.310830">
        <ele>124.1</ele>
        <time>2023-10-08T11:53:25Z</time>
      </trkpt>
      <trkpt lat="38.127582" lon="-1.310641">
        <ele>124.1</ele>
        <time>2023-10-08T11:53:40Z</time>
      </trkpt>
      <trkpt lat="38.127471" lon="-1.310451">
        <ele>113.3</ele>
        <time>2023-10-08T11:53:55Z</time>
      </trkpt>
      <trkpt lat="38.127373" lon="-1.310249">
        <ele>104.4</ele>
        <time>2023-10-08T11:54:10Z</time>
      </trkpt>
      <trkpt lat="38.127272" lon="-1.310043">
        <ele>116.7</ele>
        <time>2023-10-08T11:54:25Z</time>
      </trkpt>
      <trkpt lat="38.127155" lon="-1.309850">
        <ele>113.2</ele>
        <time>2023-10-08T11:54:40Z</time>
      </trkpt>
      <trkpt lat="38.127057" lon="-1.309658">
        <ele>106.5</ele>
        <time>2023-10-08T11:54:54Z</time>
      </trkpt>
      <trkpt lat="38.126979" lon="-1.309448">
        <ele>105.5</ele>
        <time>2023-10-08T11:55:09Z</time>
      </trkpt>
      <trkpt lat="38.126903" lon="-1.309239">
        <ele>105.2</ele>
        <time>2023-10-08T11:55:23Z</time>
      </trkpt>
      <trkpt lat="38.126862" lon="-1.309010">
        <ele>106.4</ele>
        <time>2023-10-08T11:55:38Z</time>
      </trkpt>
      <trkpt lat="38.126741" lon="-1.308824">
        <ele>106.5</ele>
        <time>2023-10-08T11:55:53Z</time>
      </trkpt>
      <trkpt lat="38.126562" lon="-1.308777">
        <ele>108.2</ele>
        <time>2023-10-08T11:56:09Z</time>
      </trkpt>
      <trkpt lat="38.126380" lon="-1.308824">
        <ele>109.4</ele>
        <time>2023-10-08T11:56:25Z</time>
      </trkpt>
      <trkpt lat="38.126525" lon="-1.308673">
        <ele>123.2</ele>
        <time>2023-10-08T11:56:46Z</time>
      </trkpt>
      <trkpt lat="38.126666" lon="-1.308519">
        <ele>123.2</ele>
        <time>2023-10-08T11:57:01Z</time>
      </trkpt>
      <trkpt lat="38.126767" lon="-1.308327">
        <ele>123.2</ele>
        <time>2023-10-08T11:57:16Z</time>
      </trkpt>
      <trkpt lat="38.126831" lon="-1.308112">
        <ele>112.4</ele>
        <time>2023-10-08T11:57:32Z</time>
      </trkpt>
      <trkpt lat="38.126885" lon="-1.307892">
        <ele>111.4</ele>
        <time>2023-10-08T11:57:47Z</time>
      </trkpt>
      <trkpt lat="38.126942" lon="-1.307663">
        <ele>110.4</ele>
        <time>2023-10-08T11:58:03Z</time>
      </trkpt>
      <trkpt lat="38.127025" lon="-1.307450">
        <ele>109.5</ele>
        <time>2023-10-08T11:58:20Z</time>
      </trkpt>
      <trkpt lat="38.127115" lon="-1.307235">
        <ele>106.5</ele>
        <time>2023-10-08T11:58:36Z</time>
      </trkpt>
      <trkpt lat="38.127223" lon="-1.307049">
        <ele>107.4</ele>
        <time>2023-10-08T11:58:50Z</time>
      </trkpt>
      <trkpt lat="38.127346" lon="-1.306875">
        <ele>106.4</ele>
        <time>2023-10-08T11:59:04Z</time>
      </trkpt>
      <trkpt lat="38.127504" lon="-1.306746">
        <ele>107.4</ele>
        <time>2023-10-08T11:59:18Z</time>
      </trkpt>
      <trkpt lat="38.127679" lon="-1.306668">
        <ele>108.4</ele>
        <time>2023-10-08T11:59:32Z</time>
      </trkpt>
      <trkpt lat="38.127862" lon="-1.306681">
        <ele>107.4</ele>
        <time>2023-10-08T11:59:49Z</time>
      </trkpt>
      <trkpt lat="38.128049" lon="-1.306730">
        <ele>104.5</ele>
        <time>2023-10-08T12:00:05Z</time>
      </trkpt>
      <trkpt lat="38.128233" lon="-1.306754">
        <ele>102.5</ele>
        <time>2023-10-08T12:00:20Z</time>
      </trkpt>
      <trkpt lat="38.128417" lon="-1.306784">
        <ele>100.8</ele>
        <time>2023-10-08T12:00:35Z</time>
      </trkpt>
      <trkpt lat="38.128598" lon="-1.306843">
        <ele>101.4</ele>
        <time>2023-10-08T12:00:48Z</time>
      </trkpt>
      <trkpt lat="38.128762" lon="-1.306955">
        <ele>100.4</ele>
        <time>2023-10-08T12:01:03Z</time>
      </trkpt>
      <trkpt lat="38.128925" lon="-1.307068">
        <ele>101.4</ele>
        <time>2023-10-08T12:01:21Z</time>
      </trkpt>
      <trkpt lat="38.129095" lon="-1.307172">
        <ele>101.4</ele>
        <time>2023-10-08T12:01:37Z</time>
      </trkpt>
      <trkpt lat="38.129226" lon="-1.307343">
        <ele>101.5</ele>
        <time>2023-10-08T12:01:53Z</time>
      </trkpt>
      <trkpt lat="38.129393" lon="-1.307464">
        <ele>104.4</ele>
        <time>2023-10-08T12:02:10Z</time>
      </trkpt>
      <trkpt lat="38.129571" lon="-1.307553">
        <ele>107.2</ele>
        <time>2023-10-08T12:02:27Z</time>
      </trkpt>
      <trkpt lat="38.129754" lon="-1.307573">
        <ele>106.4</ele>
        <time>2023-10-08T12:02:43Z</time>
      </trkpt>
      <trkpt lat="38.129923" lon="-1.307467">
        <ele>102.5</ele>
        <time>2023-10-08T12:02:59Z</time>
      </trkpt>
      <trkpt lat="38.130053" lon="-1.307289">
        <ele>101.4</ele>
        <time>2023-10-08T12:03:14Z</time>
      </trkpt>
      <trkpt lat="38.130152" lon="-1.307091">
        <ele>98.5</ele>
        <time>2023-10-08T12:03:30Z</time>
      </trkpt>
      <trkpt lat="38.130196" lon="-1.306865">
        <ele>98.4</ele>
        <time>2023-10-08T12:03:44Z</time>
      </trkpt>
      <trkpt lat="38.130265" lon="-1.306643">
        <ele>97.5</ele>
        <time>2023-10-08T12:03:59Z</time>
      </trkpt>
      <trkpt lat="38.130350" lon="-1.306423">
        <ele>98.4</ele>
        <time>2023-10-08T12:04:14Z</time>
      </trkpt>
      <trkpt lat="38.130412" lon="-1.306201">
        <ele>97.5</ele>
        <time>2023-10-08T12:04:28Z</time>
      </trkpt>
      <trkpt lat="38.130418" lon="-1.305958">
        <ele>96.4</ele>
        <time>2023-10-08T12:04:44Z</time>
      </trkpt>
      <trkpt lat="38.130420" lon="-1.305717">
        <ele>102.1</ele>
        <time>2023-10-08T12:05:01Z</time>
      </trkpt>
      <trkpt lat="38.130364" lon="-1.305494">
        <ele>103.4</ele>
        <time>2023-10-08T12:05:16Z</time>
      </trkpt>
      <trkpt lat="38.130242" lon="-1.305310">
        <ele>98.8</ele>
        <time>2023-10-08T12:05:33Z</time>
      </trkpt>
      <trkpt lat="38.130143" lon="-1.305115">
        <ele>103.4</ele>
        <time>2023-10-08T12:05:48Z</time>
      </trkpt>
      <trkpt lat="38.129994" lon="-1.304961">
        <ele>103.4</ele>
        <time>2023-10-08T12:06:04Z</time>
      </trkpt>
      <trkpt lat="38.129816" lon="-1.304881">
        <ele>105.3</ele>
        <time>2023-10-08T12:06:19Z</time>
      </trkpt>
      <trkpt lat="38.129638" lon="-1.304810">
        <ele>105.3</ele>
        <time>2023-10-08T12:06:34Z</time>
      </trkpt>
      <trkpt lat="38.129489" lon="-1.304662">
        <ele>105.3</ele>
        <time>2023-10-08T12:06:51Z</time>
      </trkpt>
      <trkpt lat="38.129332" lon="-1.304521">
        <ele>105.3</ele>
        <time>2023-10-08T12:07:07Z</time>
      </trkpt>
      <trkpt lat="38.129197" lon="-1.304355">
        <ele>104.8</ele>
        <time>2023-10-08T12:07:26Z</time>
      </trkpt>
      <trkpt lat="38.129073" lon="-1.304186">
        <ele>108.6</ele>
        <time>2023-10-08T12:07:49Z</time>
      </trkpt>
      <trkpt lat="38.128920" lon="-1.304043">
        <ele>108.6</ele>
        <time>2023-10-08T12:08:03Z</time>
      </trkpt>
      <trkpt lat="38.128803" lon="-1.303868">
        <ele>104.8</ele>
        <time>2023-10-08T12:08:40Z</time>
      </trkpt>
      <trkpt lat="38.128667" lon="-1.303717">
        <ele>104.4</ele>
        <time>2023-10-08T12:10:56Z</time>
      </trkpt>
      <trkpt lat="38.128500" lon="-1.303616">
        <ele>102.8</ele>
        <time>2023-10-08T12:11:16Z</time>
      </trkpt>
      <trkpt lat="38.128373" lon="-1.303447">
        <ele>104.6</ele>
        <time>2023-10-08T12:11:34Z</time>
      </trkpt>
      <trkpt lat="38.128251" lon="-1.303272">
        <ele>104.6</ele>
        <time>2023-10-08T12:11:53Z</time>
      </trkpt>
      <trkpt lat="38.128136" lon="-1.303088">
        <ele>104.8</ele>
        <time>2023-10-08T12:12:15Z</time>
      </trkpt>
      <trkpt lat="38.127982" lon="-1.302953">
        <ele>104.8</ele>
        <time>2023-10-08T12:12:32Z</time>
      </trkpt>
      <trkpt lat="38.127826" lon="-1.302828">
        <ele>104.8</ele>
        <time>2023-10-08T12:12:48Z</time>
      </trkpt>
      <trkpt lat="38.127672" lon="-1.302707">
        <ele>106.4</ele>
        <time>2023-10-08T12:13:04Z</time>
      </trkpt>
      <trkpt lat="38.127495" lon="-1.302625">
        <ele>106.4</ele>
        <time>2023-10-08T12:13:18Z</time>
      </trkpt>
      <trkpt lat="38.127315" lon="-1.302550">
        <ele>106.4</ele>
        <time>2023-10-08T12:13:31Z</time>
      </trkpt>
      <trkpt lat="38.127137" lon="-1.302595">
        <ele>106.4</ele>
        <time>2023-10-08T12:13:53Z</time>
      </trkpt>
      <trkpt lat="38.126979" lon="-1.302473">
        <ele>106.4</ele>
        <time>2023-10-08T12:14:08Z</time>
      </trkpt>
      <trkpt lat="38.126827" lon="-1.302341">
        <ele>106.4</ele>
        <time>2023-10-08T12:14:22Z</time>
      </trkpt>
      <trkpt lat="38.126676" lon="-1.302197">
        <ele>106.4</ele>
        <time>2023-10-08T12:14:38Z</time>
      </trkpt>
      <trkpt lat="38.126547" lon="-1.302029">
        <ele>106.4</ele>
        <time>2023-10-08T12:14:53Z</time>
      </trkpt>
      <trkpt lat="38.126412" lon="-1.301862">
        <ele>106.4</ele>
        <time>2023-10-08T12:15:07Z</time>
      </trkpt>
      <trkpt lat="38.126278" lon="-1.301706">
        <ele>106.4</ele>
        <time>2023-10-08T12:15:20Z</time>
      </trkpt>
      <trkpt lat="38.126151" lon="-1.301534">
        <ele>106.4</ele>
        <time>2023-10-08T12:15:35Z</time>
      </trkpt>
      <trkpt lat="38.126026" lon="-1.301369">
        <ele>106.4</ele>
        <time>2023-10-08T12:15:50Z</time>
      </trkpt>
      <trkpt lat="38.125909" lon="-1.301187">
        <ele>106.4</ele>
        <time>2023-10-08T12:16:05Z</time>
      </trkpt>
      <trkpt lat="38.125795" lon="-1.300983">
        <ele>106.4</ele>
        <time>2023-10-08T12:16:20Z</time>
      </trkpt>
      <trkpt lat="38.125649" lon="-1.300833">
        <ele>106.4</ele>
        <time>2023-10-08T12:16:36Z</time>
      </trkpt>
      <trkpt lat="38.125503" lon="-1.300696">
        <ele>106.4</ele>
        <time>2023-10-08T12:16:51Z</time>
      </trkpt>
      <trkpt lat="38.125375" lon="-1.300522">
        <ele>106.4</ele>
        <time>2023-10-08T12:17:05Z</time>
      </trkpt>
      <trkpt lat="38.125277" lon="-1.300327">
        <ele>102.5</ele>
        <time>2023-10-08T12:17:19Z</time>
      </trkpt>
      <trkpt lat="38.125178" lon="-1.300120">
        <ele>102.5</ele>
        <time>2023-10-08T12:17:34Z</time>
      </trkpt>
      <trkpt lat="38.125072" lon="-1.299924">
        <ele>101.4</ele>
        <time>2023-10-08T12:17:48Z</time>
      </trkpt>
      <trkpt lat="38.124983" lon="-1.299722">
        <ele>100.4</ele>
        <time>2023-10-08T12:18:02Z</time>
      </trkpt>
      <trkpt lat="38.124903" lon="-1.299502">
        <ele>98.5</ele>
        <time>2023-10-08T12:18:17Z</time>
      </trkpt>
      <trkpt lat="38.124842" lon="-1.299274">
        <ele>97.5</ele>
        <time>2023-10-08T12:18:31Z</time>
      </trkpt>
      <trkpt lat="38.124824" lon="-1.299032">
        <ele>97.4</ele>
        <time>2023-10-08T12:18:47Z</time>
      </trkpt>
      <trkpt lat="38.124852" lon="-1.298797">
        <ele>99.4</ele>
        <time>2023-10-08T12:19:02Z</time>
      </trkpt>
      <trkpt lat="38.124806" lon="-1.298559">
        <ele>100.4</ele>
        <time>2023-10-08T12:19:16Z</time>
      </trkpt>
      <trkpt lat="38.124764" lon="-1.298326">
        <ele>99.4</ele>
        <time>2023-10-08T12:19:30Z</time>
      </trkpt>
      <trkpt lat="38.124701" lon="-1.298103">
        <ele>103.4</ele>
        <time>2023-10-08T12:19:46Z</time>
      </trkpt>
      <trkpt lat="38.124648" lon="-1.297879">
        <ele>105.5</ele>
        <time>2023-10-08T12:20:01Z</time>
      </trkpt>
      <trkpt lat="38.124580" lon="-1.297665">
        <ele>106.5</ele>
        <time>2023-10-08T12:20:16Z</time>
      </trkpt>
      <trkpt lat="38.124518" lon="-1.297440">
        <ele>105.1</ele>
        <time>2023-10-08T12:20:31Z</time>
      </trkpt>
      <trkpt lat="38.124438" lon="-1.297218">
        <ele>105.1</ele>
        <time>2023-10-08T12:20:49Z</time>
      </trkpt>
      <trkpt lat="38.124337" lon="-1.297008">
        <ele>105.1</ele>
        <time>2023-10-08T12:21:04Z</time>
      </trkpt>
      <trkpt lat="38.124216" lon="-1.296816">
        <ele>105.1</ele>
        <time>2023-10-08T12:21:21Z</time>
      </trkpt>
      <trkpt lat="38.124070" lon="-1.296676">
        <ele>105.1</ele>
        <time>2023-10-08T12:21:38Z</time>
      </trkpt>
      <trkpt lat="38.124222" lon="-1.296541">
        <ele>107.1</ele>
        <time>2023-10-08T12:21:51Z</time>
      </trkpt>
      <trkpt lat="38.124376" lon="-1.296413">
        <ele>105.1</ele>
        <time>2023-10-08T12:22:08Z</time>
      </trkpt>
      <trkpt lat="38.124465" lon="-1.296213">
        <ele>103.5</ele>
        <time>2023-10-08T12:22:26Z</time>
      </trkpt>
      <trkpt lat="38.124436" lon="-1.295759">
        <ele>102.1</ele>
        <time>2023-10-08T12:22:40Z</time>
      </trkpt>
      <trkpt lat="38.124321" lon="-1.295126">
        <ele>102.4</ele>
        <time>2023-10-08T12:22:58Z</time>
      </trkpt>
      <trkpt lat="38.124130" lon="-1.294445">
        <ele>101.5</ele>
        <time>2023-10-08T12:23:12Z</time>
      </trkpt>
      <trkpt lat="38.123785" lon="-1.294056">
        <ele>101.5</ele>
        <time>2023-10-08T12:23:28Z</time>
      </trkpt>
      <trkpt lat="38.123272" lon="-1.294046">
        <ele>101.4</ele>
        <time>2023-10-08T12:23:44Z</time>
      </trkpt>
      <trkpt lat="38.122805" lon="-1.293598">
        <ele>102.6</ele>
        <time>1970-01-01T00:00:00Z</time>
      </trkpt>
      <trkpt lat="38.122380" lon="-1.293412">
        <ele>98.6</ele>
        <time>2023-11-19T06:33:35Z</time>
      </trkpt>
      <trkpt lat="38.121776" lon="-1.293282">
        <ele>98.6</ele>
        <time>2023-11-19T06:33:52Z</time>
      </trkpt>
      <trkpt lat="38.121334" lon="-1.293227">
        <ele>98.6</ele>
        <time>2023-11-19T06:34:04Z</time>
      </trkpt>
      <trkpt lat="38.121012" lon="-1.293189">
        <ele>104.5</ele>
        <time>2023-11-19T06:34:25Z</time>
      </trkpt>
      <trkpt lat="38.120581" lon="-1.293111">
        <ele>101.1</ele>
        <time>2023-11-19T06:36:04Z</time>
      </trkpt>
      <trkpt lat="38.120209" lon="-1.293082">
        <ele>101.1</ele>
        <time>2023-11-19T06:36:26Z</time>
      </trkpt>
      <trkpt lat="38.119929" lon="-1.293061">
        <ele>101.1</ele>
        <time>2023-11-19T06:36:45Z</time>
      </trkpt>
      <trkpt lat="38.119467" lon="-1.293033">
        <ele>101.1</ele>
        <time>2023-11-19T06:37:01Z</time>
      </trkpt>
      <trkpt lat="38.118927" lon="-1.292947">
        <ele>100.7</ele>
        <time>2023-11-19T06:37:16Z</time>
      </trkpt>
      <trkpt lat="38.118665" lon="-1.292926">
        <ele>99.4</ele>
        <time>2023-11-19T06:37:33Z</time>
      </trkpt>
      <trkpt lat="38.118310" lon="-1.292937">
        <ele>101.1</ele>
        <time>2023-11-19T06:37:49Z</time>
      </trkpt>
      <trkpt lat="38.117939" lon="-1.293001">
        <ele>107.1</ele>
        <time>2023-11-19T06:38:04Z</time>
      </trkpt>
      <trkpt lat="38.117677" lon="-1.293141">
        <ele>101.1</ele>
        <time>2023-11-19T06:38:21Z</time>
      </trkpt>
      <trkpt lat="38.117500" lon="-1.293205">
        <ele>103.9</ele>
        <time>2023-11-19T06:38:38Z</time>
      </trkpt>
      <trkpt lat="38.117264" lon="-1.293366">
        <ele>104.2</ele>
        <time>2023-11-19T06:38:55Z</time>
      </trkpt>
      <trkpt lat="38.117103" lon="-1.293441">
        <ele>100.6</ele>
        <time>2023-11-19T06:39:11Z</time>
      </trkpt>
      <trkpt lat="38.116858" lon="-1.293516">
        <ele>99.5</ele>
        <time>2023-11-19T06:39:30Z</time>
      </trkpt>
      <trkpt lat="38.116639" lon="-1.293634">
        <ele>100.0</ele>
        <time>2023-11-19T06:39:49Z</time>
      </trkpt>
      <trkpt lat="38.116445" lon="-1.293742">
        <ele>99.3</ele>
        <time>2023-11-19T06:40:06Z</time>
      </trkpt>
      <trkpt lat="38.116160" lon="-1.293918">
        <ele>99.2</ele>
        <time>2023-11-19T06:40:26Z</time>
      </trkpt>
      <trkpt lat="38.115862" lon="-1.294131">
        <ele>99.2</ele>
        <time>2023-11-19T06:40:43Z</time>
      </trkpt>
      <trkpt lat="38.115633" lon="-1.294269">
        <ele>98.6</ele>
        <time>2023-11-19T06:41:16Z</time>
      </trkpt>
      <trkpt lat="38.115271" lon="-1.294515">
        <ele>98.6</ele>
        <time>2023-11-19T06:41:29Z</time>
      </trkpt>
      <trkpt lat="38.115241" lon="-1.294828">
        <ele>99.4</ele>
        <time>2023-11-19T06:41:57Z</time>
      </trkpt>
      <trkpt lat="38.115183" lon="-1.294800">
        <ele>99.4</ele>
        <time>2023-11-19T06:42:24Z</time>
      </trkpt>
      <trkpt lat="38.115059" lon="-1.294617">
        <ele>100.2</ele>
        <time>2023-11-19T06:44:29Z</time>
      </trkpt>
      <trkpt lat="38.114887" lon="-1.294703">
        <ele>100.5</ele>
        <time>2023-11-19T06:44:44Z</time>
      </trkpt>
      <trkpt lat="38.114704" lon="-1.294688">
        <ele>100.5</ele>
        <time>2023-11-19T06:44:58Z</time>
      </trkpt>
      <trkpt lat="38.114518" lon="-1.294675">
        <ele>97.8</ele>
        <time>2023-11-19T06:45:12Z</time>
      </trkpt>
      <trkpt lat="38.114336" lon="-1.294659">
        <ele>99.4</ele>
        <time>2023-11-19T06:45:27Z</time>
      </trkpt>
      <trkpt lat="38.114154" lon="-1.294642">
        <ele>91.5</ele>
        <time>2023-11-19T06:45:44Z</time>
      </trkpt>
      <trkpt lat="38.113974" lon="-1.294632">
        <ele>99.4</ele>
        <time>2023-11-19T06:45:58Z</time>
      </trkpt>
      <trkpt lat="38.113790" lon="-1.294641">
        <ele>100.2</ele>
        <time>2023-11-19T06:46:12Z</time>
      </trkpt>
      <trkpt lat="38.113608" lon="-1.294629">
        <ele>97.4</ele>
        <time>2023-11-19T06:46:28Z</time>
      </trkpt>
      <trkpt lat="38.113435" lon="-1.294549">
        <ele>97.4</ele>
        <time>2023-11-19T06:46:42Z</time>
      </trkpt>
      <trkpt lat="38.113254" lon="-1.294516">
        <ele>97.7</ele>
        <time>2023-11-19T06:46:58Z</time>
      </trkpt>
      <trkpt lat="38.113069" lon="-1.294487">
        <ele>97.4</ele>
        <time>2023-11-19T06:47:16Z</time>
      </trkpt>
      <trkpt lat="38.112889" lon="-1.294437">
        <ele>97.7</ele>
        <time>2023-11-19T06:47:30Z</time>
      </trkpt>
      <trkpt lat="38.112711" lon="-1.294384">
        <ele>97.7</ele>
        <time>2023-11-19T06:47:48Z</time>
      </trkpt>
      <trkpt lat="38.112526" lon="-1.294330">
        <ele>97.7</ele>
        <time>2023-11-19T06:48:04Z</time>
      </trkpt>
      <trkpt lat="38.112365" lon="-1.294226">
        <ele>97.7</ele>
        <time>2023-11-19T06:48:14Z</time>
      </trkpt>
      <trkpt lat="38.112208" lon="-1.294106">
        <ele>97.7</ele>
        <time>2023-11-19T06:48:30Z</time>
      </trkpt>
      <trkpt lat="38.112051" lon="-1.293988">
        <ele>97.7</ele>
        <time>2023-11-19T06:48:44Z</time>
      </trkpt>
      <trkpt lat="38.111883" lon="-1.293905">
        <ele>90.5</ele>
        <time>2023-11-19T06:48:57Z</time>
      </trkpt>
      <trkpt lat="38.111704" lon="-1.293919">
        <ele>88.6</ele>
        <time>2023-11-19T06:49:14Z</time>
      </trkpt>
      <trkpt lat="38.111524" lon="-1.293869">
        <ele>97.0</ele>
        <time>2023-11-19T06:49:29Z</time>
      </trkpt>
      <trkpt lat="38.111390" lon="-1.293715">
        <ele>97.0</ele>
        <time>2023-11-19T06:49:52Z</time>
      </trkpt>
      <trkpt lat="38.111216" lon="-1.293645">
        <ele>90.4</ele>
        <time>2023-11-19T06:50:13Z</time>
      </trkpt>
      <trkpt lat="38.111038" lon="-1.293590">
        <ele>93.5</ele>
        <time>2023-11-19T06:50:27Z</time>
      </trkpt>
      <trkpt lat="38.110870" lon="-1.293493">
        <ele>94.5</ele>
        <time>2023-11-19T06:50:45Z</time>
      </trkpt>
      <trkpt lat="38.110706" lon="-1.293391">
        <ele>94.3</ele>
        <time>2023-11-19T06:51:01Z</time>
      </trkpt>
      <trkpt lat="38.110523" lon="-1.293352">
        <ele>92.5</ele>
        <time>2023-11-19T06:51:27Z</time>
      </trkpt>
      <trkpt lat="38.110373" lon="-1.293220">
        <ele>92.5</ele>
        <time>2023-11-19T06:51:37Z</time>
      </trkpt>
      <trkpt lat="38.110199" lon="-1.293139">
        <ele>94.2</ele>
        <time>2023-11-19T06:51:50Z</time>
      </trkpt>
      <trkpt lat="38.110031" lon="-1.293057">
        <ele>94.2</ele>
        <time>2023-11-19T06:52:04Z</time>
      </trkpt>
      <trkpt lat="38.109855" lon="-1.292988">
        <ele>94.2</ele>
        <time>2023-11-19T06:52:21Z</time>
      </trkpt>
      <trkpt lat="38.109674" lon="-1.293002">
        <ele>91.4</ele>
        <time>2023-11-19T06:52:45Z</time>
      </trkpt>
      <trkpt lat="38.109492" lon="-1.293027">
        <ele>89.5</ele>
        <time>2023-11-19T06:52:59Z</time>
      </trkpt>
      <trkpt lat="38.109318" lon="-1.293100">
        <ele>89.5</ele>
        <time>2023-11-19T06:53:12Z</time>
      </trkpt>
      <trkpt lat="38.109146" lon="-1.293172">
        <ele>88.5</ele>
        <time>2023-11-19T06:53:25Z</time>
      </trkpt>
      <trkpt lat="38.108973" lon="-1.293265">
        <ele>92.5</ele>
        <time>2023-11-19T06:53:37Z</time>
      </trkpt>
      <trkpt lat="38.108854" lon="-1.293444">
        <ele>91.5</ele>
        <time>2023-11-19T06:53:53Z</time>
      </trkpt>
      <trkpt lat="38.108680" lon="-1.293504">
        <ele>90.5</ele>
        <time>2023-11-19T06:54:09Z</time>
      </trkpt>
      <trkpt lat="38.108499" lon="-1.293534">
        <ele>90.5</ele>
        <time>2023-11-19T06:54:24Z</time>
      </trkpt>
      <trkpt lat="38.108357" lon="-1.293684">
        <ele>89.5</ele>
        <time>2023-11-19T06:54:39Z</time>
      </trkpt>
      <trkpt lat="38.108262" lon="-1.293887">
        <ele>88.4</ele>
        <time>2023-11-19T06:54:52Z</time>
      </trkpt>
      <trkpt lat="38.108202" lon="-1.294106">
        <ele>90.4</ele>
        <time>2023-11-19T06:55:05Z</time>
      </trkpt>
      <trkpt lat="38.108101" lon="-1.294306">
        <ele>90.4</ele>
        <time>2023-11-19T06:55:19Z</time>
      </trkpt>
      <trkpt lat="38.108008" lon="-1.294503">
        <ele>90.6</ele>
        <time>2023-11-19T06:56:34Z</time>
      </trkpt>
      <trkpt lat="38.107936" lon="-1.294713">
        <ele>88.2</ele>
        <time>2023-11-19T06:56:49Z</time>
      </trkpt>
      <trkpt lat="38.107896" lon="-1.294942">
        <ele>88.5</ele>
        <time>2023-11-19T06:57:03Z</time>
      </trkpt>
      <trkpt lat="38.107838" lon="-1.295161">
        <ele>88.5</ele>
        <time>2023-11-19T06:57:20Z</time>
      </trkpt>
      <trkpt lat="38.107784" lon="-1.295385">
        <ele>87.5</ele>
        <time>2023-11-19T06:57:35Z</time>
      </trkpt>
      <trkpt lat="38.107739" lon="-1.295609">
        <ele>92.0</ele>
        <time>2023-11-19T06:57:50Z</time>
      </trkpt>
      <trkpt lat="38.107671" lon="-1.295822">
        <ele>88.2</ele>
        <time>2023-11-19T06:58:21Z</time>
      </trkpt>
      <trkpt lat="38.107605" lon="-1.296036">
        <ele>91.9</ele>
        <time>2023-11-19T06:58:38Z</time>
      </trkpt>
      <trkpt lat="38.107539" lon="-1.296251">
        <ele>92.1</ele>
        <time>2023-11-19T06:58:52Z</time>
      </trkpt>
      <trkpt lat="38.107508" lon="-1.296483">
        <ele>92.1</ele>
        <time>2023-11-19T06:59:02Z</time>
      </trkpt>
      <trkpt lat="38.107473" lon="-1.296713">
        <ele>92.1</ele>
        <time>2023-11-19T06:59:18Z</time>
      </trkpt>
      <trkpt lat="38.107463" lon="-1.296947">
        <ele>92.1</ele>
        <time>2023-11-19T06:59:33Z</time>
      </trkpt>
      <trkpt lat="38.107441" lon="-1.297182">
        <ele>92.1</ele>
        <time>2023-11-19T06:59:48Z</time>
      </trkpt>
      <trkpt lat="38.107437" lon="-1.297419">
        <ele>89.7</ele>
        <time>2023-11-19T07:00:03Z</time>
      </trkpt>
      <trkpt lat="38.107414" lon="-1.297650">
        <ele>91.4</ele>
        <time>2023-11-19T07:00:18Z</time>
      </trkpt>
      <trkpt lat="38.107382" lon="-1.297884">
        <ele>91.9</ele>
        <time>2023-11-19T07:00:33Z</time>
      </trkpt>
      <trkpt lat="38.107337" lon="-1.298113">
        <ele>91.9</ele>
        <time>2023-11-19T07:00:46Z</time>
      </trkpt>
      <trkpt lat="38.107309" lon="-1.298342">
        <ele>91.9</ele>
        <time>2023-11-19T07:00:59Z</time>
      </trkpt>
      <trkpt lat="38.107274" lon="-1.298566">
        <ele>91.9</ele>
        <time>2023-11-19T07:01:12Z</time>
      </trkpt>
      <trkpt lat="38.107204" lon="-1.298779">
        <ele>91.9</ele>
        <time>2023-11-19T07:01:28Z</time>
      </trkpt>
      <trkpt lat="38.107133" lon="-1.299000">
        <ele>91.9</ele>
        <time>2023-11-19T07:01:42Z</time>
      </trkpt>
      <trkpt lat="38.107062" lon="-1.299221">
        <ele>89.5</ele>
        <time>2023-11-19T07:01:55Z</time>
      </trkpt>
      <trkpt lat="38.106976" lon="-1.299428">
        <ele>87.5</ele>
        <time>2023-11-19T07:02:11Z</time>
      </trkpt>
      <trkpt lat="38.106857" lon="-1.299615">
        <ele>86.5</ele>
        <time>2023-11-19T07:02:26Z</time>
      </trkpt>
      <trkpt lat="38.106719" lon="-1.299767">
        <ele>89.5</ele>
        <time>2023-11-19T07:02:39Z</time>
      </trkpt>
      <trkpt lat="38.106581" lon="-1.299916">
        <ele>91.5</ele>
        <time>2023-11-19T07:02:56Z</time>
      </trkpt>
      <trkpt lat="38.106411" lon="-1.299991">
        <ele>91.5</ele>
        <time>2023-11-19T07:03:15Z</time>
      </trkpt>
      <trkpt lat="38.106231" lon="-1.300013">
        <ele>91.5</ele>
        <time>2023-11-19T07:03:33Z</time>
      </trkpt>
      <trkpt lat="38.106051" lon="-1.300027">
        <ele>90.8</ele>
        <time>2023-11-19T07:03:53Z</time>
      </trkpt>
      <trkpt lat="38.105870" lon="-1.300027">
        <ele>91.4</ele>
        <time>2023-11-19T07:04:07Z</time>
      </trkpt>
      <trkpt lat="38.105685" lon="-1.300012">
        <ele>93.4</ele>
        <time>2023-11-19T07:04:24Z</time>
      </trkpt>
      <trkpt lat="38.105503" lon="-1.299992">
        <ele>92.8</ele>
        <time>2023-11-19T07:04:37Z</time>
      </trkpt>
      <trkpt lat="38.105325" lon="-1.299923">
        <ele>89.6</ele>
        <time>2023-11-19T07:05:11Z</time>
      </trkpt>
      <trkpt lat="38.105148" lon="-1.299840">
        <ele>87.5</ele>
        <time>2023-11-19T07:05:29Z</time>
      </trkpt>
      <trkpt lat="38.105000" lon="-1.299693">
        <ele>84.5</ele>
        <time>2023-11-19T07:05:44Z</time>
      </trkpt>
      <trkpt lat="38.104846" lon="-1.299561">
        <ele>85.5</ele>
        <time>2023-11-19T07:05:58Z</time>
      </trkpt>
      <trkpt lat="38.104685" lon="-1.299459">
        <ele>83.4</ele>
        <time>2023-11-19T07:06:11Z</time>
      </trkpt>
      <trkpt lat="38.104510" lon="-1.299371">
        <ele>87.5</ele>
        <time>2023-11-19T07:06:42Z</time>
      </trkpt>
      <trkpt lat="38.104352" lon="-1.299257">
        <ele>86.5</ele>
        <time>2023-11-19T07:06:57Z</time>
      </trkpt>
      <trkpt lat="38.104192" lon="-1.299131">
        <ele>92.0</ele>
        <time>2023-11-19T07:07:11Z</time>
      </trkpt>
      <trkpt lat="38.104001" lon="-1.299086">
        <ele>86.5</ele>
        <time>2023-11-19T07:08:30Z</time>
      </trkpt>
      <trkpt lat="38.103829" lon="-1.299002">
        <ele>90.9</ele>
        <time>2023-11-19T07:08:43Z</time>
      </trkpt>
      <trkpt lat="38.103659" lon="-1.298888">
        <ele>91.5</ele>
        <time>2023-11-19T07:08:56Z</time>
      </trkpt>
      <trkpt lat="38.103478" lon="-1.298806">
        <ele>86.8</ele>
        <time>2023-11-19T07:09:16Z</time>
      </trkpt>
      <trkpt lat="38.103320" lon="-1.298683">
        <ele>88.4</ele>
        <time>2023-11-19T07:09:28Z</time>
      </trkpt>
      <trkpt lat="38.103161" lon="-1.298571">
        <ele>89.7</ele>
        <time>2023-11-19T07:09:41Z</time>
      </trkpt>
      <trkpt lat="38.102995" lon="-1.298461">
        <ele>89.5</ele>
        <time>2023-11-19T07:09:53Z</time>
      </trkpt>
      <trkpt lat="38.102829" lon="-1.298346">
        <ele>88.5</ele>
        <time>2023-11-19T07:10:06Z</time>
      </trkpt>
      <trkpt lat="38.102661" lon="-1.298224">
        <ele>87.5</ele>
        <time>2023-11-19T07:10:19Z</time>
      </trkpt>
      <trkpt lat="38.102492" lon="-1.298117">
        <ele>85.8</ele>
        <time>2023-11-19T07:10:32Z</time>
      </trkpt>
      <trkpt lat="38.102331" lon="-1.298005">
        <ele>88.1</ele>
        <time>2023-11-19T07:10:43Z</time>
      </trkpt>
      <trkpt lat="38.102158" lon="-1.297901">
        <ele>89.5</ele>
        <time>2023-11-19T07:10:55Z</time>
      </trkpt>
      <trkpt lat="38.101976" lon="-1.297910">
        <ele>89.6</ele>
        <time>2023-11-19T07:11:09Z</time>
      </trkpt>
      <trkpt lat="38.101847" lon="-1.297742">
        <ele>86.6</ele>
        <time>2023-11-19T07:11:25Z</time>
      </trkpt>
      <trkpt lat="38.101698" lon="-1.297578">
        <ele>88.5</ele>
        <time>2023-11-19T07:11:38Z</time>
      </trkpt>
      <trkpt lat="38.101541" lon="-1.297459">
        <ele>88.5</ele>
        <time>2023-11-19T07:11:50Z</time>
      </trkpt>
      <trkpt lat="38.101369" lon="-1.297364">
        <ele>92.9</ele>
        <time>2023-11-19T07:12:04Z</time>
      </trkpt>
      <trkpt lat="38.101189" lon="-1.297263">
        <ele>92.9</ele>
        <time>2023-11-19T07:12:31Z</time>
      </trkpt>
      <trkpt lat="38.101042" lon="-1.297129">
        <ele>92.9</ele>
        <time>2023-11-19T07:12:45Z</time>
      </trkpt>
      <trkpt lat="38.100868" lon="-1.297044">
        <ele>92.9</ele>
        <time>2023-11-19T07:12:59Z</time>
      </trkpt>
      <trkpt lat="38.100785" lon="-1.296825">
        <ele>92.9</ele>
        <time>2023-11-19T07:13:28Z</time>
      </trkpt>
      <trkpt lat="38.100781" lon="-1.296583">
        <ele>85.6</ele>
        <time>2023-11-19T07:13:44Z</time>
      </trkpt>
      <trkpt lat="38.100758" lon="-1.296337">
        <ele>87.4</ele>
        <time>2023-11-19T07:13:57Z</time>
      </trkpt>
      <trkpt lat="38.100721" lon="-1.296099">
        <ele>88.8</ele>
        <time>2023-11-19T07:14:20Z</time>
      </trkpt>
      <trkpt lat="38.100746" lon="-1.295864">
        <ele>88.2</ele>
        <time>2023-11-19T07:14:33Z</time>
      </trkpt>
      <trkpt lat="38.100726" lon="-1.295631">
        <ele>85.6</ele>
        <time>2023-11-19T07:14:46Z</time>
      </trkpt>
      <trkpt lat="38.100704" lon="-1.295404">
        <ele>87.5</ele>
        <time>2023-11-19T07:15:04Z</time>
      </trkpt>
      <trkpt lat="38.100622" lon="-1.295184">
        <ele>102.6</ele>
        <time>2023-11-19T07:15:19Z</time>
      </trkpt>
      <trkpt lat="38.100616" lon="-1.294954">
        <ele>102.6</ele>
        <time>2023-11-19T07:15:31Z</time>
      </trkpt>
      <trkpt lat="38.100594" lon="-1.294711">
        <ele>102.6</ele>
        <time>2023-11-19T07:15:44Z</time>
      </trkpt>
      <trkpt lat="38.100538" lon="-1.294483">
        <ele>102.6</ele>
        <time>2023-11-19T07:15:57Z</time>
      </trkpt>
      <trkpt lat="38.100498" lon="-1.294244">
        <ele>102.6</ele>
        <time>2023-11-19T07:16:10Z</time>
      </trkpt>
      <trkpt lat="38.100441" lon="-1.294013">
        <ele>102.6</ele>
        <time>2023-11-19T07:16:24Z</time>
      </trkpt>
      <trkpt lat="38.100425" lon="-1.293769">
        <ele>84.5</ele>
        <time>2023-11-19T07:16:36Z</time>
      </trkpt>
      <trkpt lat="38.100364" lon="-1.293542">
        <ele>81.7</ele>
        <time>2023-11-19T07:16:49Z</time>
      </trkpt>
      <trkpt lat="38.100328" lon="-1.293302">
        <ele>83.4</ele>
        <time>2023-11-19T07:17:02Z</time>
      </trkpt>
      <trkpt lat="38.100311" lon="-1.293073">
        <ele>82.6</ele>
        <time>2023-11-19T07:17:14Z</time>
      </trkpt>
      <trkpt lat="38.100321" lon="-1.292832">
        <ele>83.2</ele>
        <time>2023-11-19T07:17:27Z</time>
      </trkpt>
      <trkpt lat="38.100355" lon="-1.292601">
        <ele>84.5</ele>
        <time>2023-11-19T07:17:41Z</time>
      </trkpt>
      <trkpt lat="38.100364" lon="-1.292365">
        <ele>90.4</ele>
        <time>2023-11-19T07:17:54Z</time>
      </trkpt>
      <trkpt lat="38.100363" lon="-1.292133">
        <ele>91.5</ele>
        <time>2023-11-19T07:18:07Z</time>
      </trkpt>
      <trkpt lat="38.100387" lon="-1.291901">
        <ele>92.5</ele>
        <time>2023-11-19T07:18:20Z</time>
      </trkpt>
      <trkpt lat="38.100414" lon="-1.291658">
        <ele>93.5</ele>
        <time>2023-11-19T07:18:34Z</time>
      </trkpt>
      <trkpt lat="38.100450" lon="-1.291421">
        <ele>95.4</ele>
        <time>2023-11-19T07:18:48Z</time>
      </trkpt>
      <trkpt lat="38.100458" lon="-1.291184">
        <ele>95.5</ele>
        <time>2023-11-19T07:19:02Z</time>
      </trkpt>
      <trkpt lat="38.100424" lon="-1.290942">
        <ele>92.6</ele>
        <time>2023-11-19T07:19:18Z</time>
      </trkpt>
      <trkpt lat="38.100424" lon="-1.290698">
        <ele>90.6</ele>
        <time>2023-11-19T07:19:32Z</time>
      </trkpt>
      <trkpt lat="38.100427" lon="-1.290456">
        <ele>92.4</ele>
        <time>2023-11-19T07:19:47Z</time>
      </trkpt>
      <trkpt lat="38.100355" lon="-1.290236">
        <ele>92.5</ele>
        <time>2023-11-19T07:20:40Z</time>
      </trkpt>
      <trkpt lat="38.100236" lon="-1.290046">
        <ele>94.5</ele>
        <time>2023-11-19T07:21:06Z</time>
      </trkpt>
      <trkpt lat="38.100158" lon="-1.289838">
        <ele>92.5</ele>
        <time>2023-11-19T07:21:30Z</time>
      </trkpt>
      <trkpt lat="38.100315" lon="-1.289723">
        <ele>92.4</ele>
        <time>2023-11-19T07:21:45Z</time>
      </trkpt>
      <trkpt lat="38.100403" lon="-1.289507">
        <ele>93.5</ele>
        <time>2023-11-19T07:22:14Z</time>
      </trkpt>
      <trkpt lat="38.100513" lon="-1.289304">
        <ele>91.4</ele>
        <time>2023-11-19T07:22:31Z</time>
      </trkpt>
      <trkpt lat="38.100605" lon="-1.289092">
        <ele>92.4</ele>
        <time>2023-11-19T07:22:43Z</time>
      </trkpt>
      <trkpt lat="38.100694" lon="-1.288874">
        <ele>90.5</ele>
        <time>2023-11-19T07:22:56Z</time>
      </trkpt>
      <trkpt lat="38.100762" lon="-1.288652">
        <ele>89.5</ele>
        <time>2023-11-19T07:23:08Z</time>
      </trkpt>
      <trkpt lat="38.100855" lon="-1.288442">
        <ele>88.5</ele>
        <time>2023-11-19T07:23:21Z</time>
      </trkpt>
      <trkpt lat="38.100946" lon="-1.288244">
        <ele>87.4</ele>
        <time>2023-11-19T07:23:33Z</time>
      </trkpt>
      <trkpt lat="38.101032" lon="-1.288039">
        <ele>88.5</ele>
        <time>2023-11-19T07:23:44Z</time>
      </trkpt>
      <trkpt lat="38.101125" lon="-1.287825">
        <ele>90.5</ele>
        <time>2023-11-19T07:23:57Z</time>
      </trkpt>
      <trkpt lat="38.101197" lon="-1.287606">
        <ele>89.5</ele>
        <time>2023-11-19T07:24:10Z</time>
      </trkpt>
      <trkpt lat="38.101283" lon="-1.287396">
        <ele>88.5</ele>
        <time>2023-11-19T07:24:22Z</time>
      </trkpt>
      <trkpt lat="38.101370" lon="-1.287189">
        <ele>86.8</ele>
        <time>2023-11-19T07:24:34Z</time>
      </trkpt>
      <trkpt lat="38.101456" lon="-1.286979">
        <ele>86.5</ele>
        <time>2023-11-19T07:24:47Z</time>
      </trkpt>
      <trkpt lat="38.101546" lon="-1.286770">
        <ele>86.5</ele>
        <time>2023-11-19T07:25:00Z</time>
      </trkpt>
      <trkpt lat="38.101639" lon="-1.286572">
        <ele>86.5</ele>
        <time>2023-11-19T07:25:12Z</time>
      </trkpt>
      <trkpt lat="38.101729" lon="-1.286362">
        <ele>85.2</ele>
        <time>2023-11-19T07:25:26Z</time>
      </trkpt>
      <trkpt lat="38.101868" lon="-1.286194">
        <ele>84.5</ele>
        <time>2023-11-19T07:25:39Z</time>
      </trkpt>
      <trkpt lat="38.102006" lon="-1.286018">
        <ele>83.5</ele>
        <time>2023-11-19T07:25:51Z</time>
      </trkpt>
      <trkpt lat="38.102065" lon="-1.285801">
        <ele>83.5</ele>
        <time>2023-11-19T07:26:05Z</time>
      </trkpt>
      <trkpt lat="38.102158" lon="-1.285592">
        <ele>83.2</ele>
        <time>2023-11-19T07:26:18Z</time>
      </trkpt>
      <trkpt lat="38.102229" lon="-1.285370">
        <ele>105.3</ele>
        <time>2023-11-19T07:26:32Z</time>
      </trkpt>
      <trkpt lat="38.102279" lon="-1.285144">
        <ele>105.4</ele>
        <time>2023-11-19T07:26:50Z</time>
      </trkpt>
      <trkpt lat="38.102277" lon="-1.284906">
        <ele>105.4</ele>
        <time>2023-11-19T07:27:04Z</time>
      </trkpt>
      <trkpt lat="38.102248" lon="-1.284673">
        <ele>105.4</ele>
        <time>2023-11-19T07:27:17Z</time>
      </trkpt>
      <trkpt lat="38.102253" lon="-1.284442">
        <ele>105.4</ele>
        <time>2023-11-19T07:27:33Z</time>
      </trkpt>
      <trkpt lat="38.102283" lon="-1.284201">
        <ele>83.3</ele>
        <time>2023-11-19T07:28:11Z</time>
      </trkpt>
      <trkpt lat="38.102344" lon="-1.283983">
        <ele>81.7</ele>
        <time>2023-11-19T07:28:24Z</time>
      </trkpt>
      <trkpt lat="38.102468" lon="-1.283814">
        <ele>87.4</ele>
        <time>2023-11-19T07:28:40Z</time>
      </trkpt>
      <trkpt lat="38.102649" lon="-1.283787">
        <ele>87.8</ele>
        <time>2023-11-19T07:29:18Z</time>
      </trkpt>
      <trkpt lat="38.102814" lon="-1.283899">
        <ele>88.2</ele>
        <time>2023-11-19T07:30:02Z</time>
      </trkpt>
      <trkpt lat="38.102994" lon="-1.283909">
        <ele>91.5</ele>
        <time>2023-11-19T07:30:14Z</time>
      </trkpt>
      <trkpt lat="38.103167" lon="-1.283983">
        <ele>91.6</ele>
        <time>2023-11-19T07:30:27Z</time>
      </trkpt>
      <trkpt lat="38.103218" lon="-1.283754">
        <ele>90.2</ele>
        <time>2023-11-19T07:30:51Z</time>
      </trkpt>
      <trkpt lat="38.103087" lon="-1.283594">
        <ele>91.5</ele>
        <time>2023-11-19T07:31:08Z</time>
      </trkpt>
      <trkpt lat="38.103000" lon="-1.283381">
        <ele>94.9</ele>
        <time>2023-11-19T07:31:23Z</time>
      </trkpt>
      <trkpt lat="38.102933" lon="-1.283165">
        <ele>95.0</ele>
        <time>2023-11-19T07:31:37Z</time>
      </trkpt>
      <trkpt lat="38.102845" lon="-1.282952">
        <ele>95.0</ele>
        <time>2023-11-19T07:31:57Z</time>
      </trkpt>
      <trkpt lat="38.102838" lon="-1.282715">
        <ele>95.0</ele>
        <time>2023-11-19T07:32:14Z</time>
      </trkpt>
      <trkpt lat="38.102780" lon="-1.282483">
        <ele>95.0</ele>
        <time>2023-11-19T07:32:29Z</time>
      </trkpt>
      <trkpt lat="38.102739" lon="-1.282257">
        <ele>95.0</ele>
        <time>2023-11-19T07:32:43Z</time>
      </trkpt>
      <trkpt lat="38.102746" lon="-1.282012">
        <ele>81.8</ele>
        <time>2023-11-19T07:32:58Z</time>
      </trkpt>
      <trkpt lat="38.102792" lon="-1.281789">
        <ele>78.5</ele>
        <time>2023-11-19T07:33:11Z</time>
      </trkpt>
      <trkpt lat="38.102816" lon="-1.281547">
        <ele>78.5</ele>
        <time>2023-11-19T07:33:26Z</time>
      </trkpt>
      <trkpt lat="38.102845" lon="-1.281314">
        <ele>78.5</ele>
        <time>2023-11-19T07:33:40Z</time>
      </trkpt>
      <trkpt lat="38.102876" lon="-1.281088">
        <ele>79.4</ele>
        <time>2023-11-19T07:33:55Z</time>
      </trkpt>
      <trkpt lat="38.102922" lon="-1.280857">
        <ele>77.8</ele>
        <time>2023-11-19T07:34:09Z</time>
      </trkpt>
      <trkpt lat="38.102971" lon="-1.280621">
        <ele>75.8</ele>
        <time>2023-11-19T07:34:23Z</time>
      </trkpt>
      <trkpt lat="38.103037" lon="-1.280406">
        <ele>75.5</ele>
        <time>2023-11-19T07:34:38Z</time>
      </trkpt>
      <trkpt lat="38.103084" lon="-1.280170">
        <ele>72.2</ele>
        <time>2023-11-19T07:34:54Z</time>
      </trkpt>
      <trkpt lat="38.103132" lon="-1.279942">
        <ele>71.3</ele>
        <time>2023-11-19T07:35:06Z</time>
      </trkpt>
      <trkpt lat="38.103199" lon="-1.279724">
        <ele>74.4</ele>
        <time>2023-11-19T07:35:19Z</time>
      </trkpt>
      <trkpt lat="38.103252" lon="-1.279501">
        <ele>74.5</ele>
        <time>2023-11-19T07:35:34Z</time>
      </trkpt>
      <trkpt lat="38.103255" lon="-1.279261">
        <ele>73.5</ele>
        <time>2023-11-19T07:35:48Z</time>
      </trkpt>
      <trkpt lat="38.103287" lon="-1.279027">
        <ele>77.5</ele>
        <time>2023-11-19T07:36:00Z</time>
      </trkpt>
      <trkpt lat="38.103328" lon="-1.278796">
        <ele>77.5</ele>
        <time>2023-11-19T07:36:15Z</time>
      </trkpt>
      <trkpt lat="38.103402" lon="-1.278579">
        <ele>77.5</ele>
        <time>2023-11-19T07:36:31Z</time>
      </trkpt>
      <trkpt lat="38.103463" lon="-1.278356">
        <ele>76.3</ele>
        <time>2023-11-19T07:36:45Z</time>
      </trkpt>
      <trkpt lat="38.103535" lon="-1.278129">
        <ele>79.4</ele>
        <time>2023-11-19T07:36:59Z</time>
      </trkpt>
      <trkpt lat="38.103659" lon="-1.277946">
        <ele>78.5</ele>
        <time>2023-11-19T07:37:16Z</time>
      </trkpt>
      <trkpt lat="38.103796" lon="-1.277774">
        <ele>79.5</ele>
        <time>2023-11-19T07:37:30Z</time>
      </trkpt>
      <trkpt lat="38.103926" lon="-1.277602">
        <ele>78.8</ele>
        <time>2023-11-19T07:37:45Z</time>
      </trkpt>
      <trkpt lat="38.104025" lon="-1.277401">
        <ele>78.6</ele>
        <time>2023-11-19T07:38:00Z</time>
      </trkpt>
      <trkpt lat="38.104095" lon="-1.277176">
        <ele>80.4</ele>
        <time>2023-11-19T07:38:15Z</time>
      </trkpt>
      <trkpt lat="38.104162" lon="-1.276962">
        <ele>85.4</ele>
        <time>2023-11-19T07:38:30Z</time>
      </trkpt>
      <trkpt lat="38.104233" lon="-1.276741">
        <ele>86.4</ele>
        <time>2023-11-19T07:38:48Z</time>
      </trkpt>
      <trkpt lat="38.104293" lon="-1.276520">
        <ele>85.5</ele>
        <time>2023-11-19T07:39:08Z</time>
      </trkpt>
      <trkpt lat="38.104350" lon="-1.276299">
        <ele>81.8</ele>
        <time>2023-11-19T07:39:24Z</time>
      </trkpt>
      <trkpt lat="38.104447" lon="-1.276095">
        <ele>81.2</ele>
        <time>2023-11-19T07:40:23Z</time>
      </trkpt>
      <trkpt lat="38.104404" lon="-1.275869">
        <ele>83.5</ele>
        <time>2023-11-19T07:41:56Z</time>
      </trkpt>
      <trkpt lat="38.104444" lon="-1.275639">
        <ele>86.4</ele>
        <time>2023-11-19T07:42:07Z</time>
      </trkpt>
      <trkpt lat="38.104450" lon="-1.275405">
        <ele>85.5</ele>
        <time>2023-11-19T07:42:20Z</time>
      </trkpt>
      <trkpt lat="38.104455" lon="-1.275160">
        <ele>85.5</ele>
        <time>2023-11-19T07:42:37Z</time>
      </trkpt>
      <trkpt lat="38.104434" lon="-1.274928">
        <ele>81.8</ele>
        <time>2023-11-19T07:42:53Z</time>
      </trkpt>
      <trkpt lat="38.104403" lon="-1.274690">
        <ele>77.8</ele>
        <time>2023-11-19T07:43:06Z</time>
      </trkpt>
      <trkpt lat="38.104360" lon="-1.274464">
        <ele>83.5</ele>
        <time>2023-11-19T07:43:35Z</time>
      </trkpt>
      <trkpt lat="38.104354" lon="-1.274226">
        <ele>82.2</ele>
        <time>2023-11-19T07:43:48Z</time>
      </trkpt>
      <trkpt lat="38.104348" lon="-1.273988">
        <ele>81.5</ele>
        <time>2023-11-19T07:44:00Z</time>
      </trkpt>
      <trkpt lat="38.104355" lon="-1.273751">
        <ele>81.8</ele>
        <time>2023-11-19T07:44:12Z</time>
      </trkpt>
      <trkpt lat="38.104343" lon="-1.273512">
        <ele>77.6</ele>
        <time>2023-11-19T07:44:25Z</time>
      </trkpt>
      <trkpt lat="38.104340" lon="-1.273270">
        <ele>76.5</ele>
        <time>2023-11-19T07:44:38Z</time>
      </trkpt>
      <trkpt lat="38.104342" lon="-1.273033">
        <ele>77.5</ele>
        <time>2023-11-19T07:44:51Z</time>
      </trkpt>
      <trkpt lat="38.104331" lon="-1.272804">
        <ele>80.7</ele>
        <time>2023-11-19T07:45:02Z</time>
      </trkpt>
      <trkpt lat="38.104316" lon="-1.272569">
        <ele>82.5</ele>
        <time>2023-11-19T07:45:14Z</time>
      </trkpt>
      <trkpt lat="38.104255" lon="-1.272343">
        <ele>84.5</ele>
        <time>2023-11-19T07:45:26Z</time>
      </trkpt>
      <trkpt lat="38.104144" lon="-1.272162">
        <ele>84.5</ele>
        <time>2023-11-19T07:45:38Z</time>
      </trkpt>
      <trkpt lat="38.103996" lon="-1.272019">
        <ele>88.4</ele>
        <time>2023-11-19T07:45:50Z</time>
      </trkpt>
      <trkpt lat="38.103835" lon="-1.271893">
        <ele>88.5</ele>
        <time>2023-11-19T07:46:04Z</time>
      </trkpt>
      <trkpt lat="38.103662" lon="-1.271795">
        <ele>87.5</ele>
        <time>2023-11-19T07:46:18Z</time>
      </trkpt>
      <trkpt lat="38.103493" lon="-1.271679">
        <ele>85.5</ele>
        <time>2023-11-19T07:46:33Z</time>
      </trkpt>
      <trkpt lat="38.103324" lon="-1.271561">
        <ele>86.5</ele>
        <time>2023-11-19T07:46:47Z</time>
      </trkpt>
      <trkpt lat="38.103179" lon="-1.271413">
        <ele>87.5</ele>
        <time>2023-11-19T07:47:01Z</time>
      </trkpt>
      <trkpt lat="38.103024" lon="-1.271279">
        <ele>87.8</ele>
        <time>2023-11-19T07:47:15Z</time>
      </trkpt>
      <trkpt lat="38.102874" lon="-1.271122">
        <ele>87.5</ele>
        <time>2023-11-19T07:47:30Z</time>
      </trkpt>
      <trkpt lat="38.102706" lon="-1.271005">
        <ele>86.5</ele>
        <time>2023-11-19T07:47:42Z</time>
      </trkpt>
      <trkpt lat="38.102555" lon="-1.270874">
        <ele>86.5</ele>
        <time>2023-11-19T07:47:55Z</time>
      </trkpt>
      <trkpt lat="38.102394" lon="-1.270754">
        <ele>86.5</ele>
        <time>2023-11-19T07:48:08Z</time>
      </trkpt>
      <trkpt lat="38.102231" lon="-1.270646">
        <ele>87.5</ele>
        <time>2023-11-19T07:48:20Z</time>
      </trkpt>
      <trkpt lat="38.102068" lon="-1.270531">
        <ele>88.5</ele>
        <time>2023-11-19T07:48:33Z</time>
      </trkpt>
      <trkpt lat="38.101897" lon="-1.270431">
        <ele>88.8</ele>
        <time>2023-11-19T07:48:46Z</time>
      </trkpt>
      <trkpt lat="38.101727" lon="-1.270351">
        <ele>87.5</ele>
        <time>2023-11-19T07:48:59Z</time>
      </trkpt>
      <trkpt lat="38.101554" lon="-1.270256">
        <ele>88.5</ele>
        <time>2023-11-19T07:49:12Z</time>
      </trkpt>
      <trkpt lat="38.101365" lon="-1.270182">
        <ele>86.5</ele>
        <time>2023-11-19T07:49:25Z</time>
      </trkpt>
      <trkpt lat="38.101188" lon="-1.270100">
        <ele>84.5</ele>
        <time>2023-11-19T07:49:38Z</time>
      </trkpt>
      <trkpt lat="38.100997" lon="-1.270053">
        <ele>84.5</ele>
        <time>2023-11-19T07:49:53Z</time>
      </trkpt>
      <trkpt lat="38.100819" lon="-1.269980">
        <ele>85.4</ele>
        <time>2023-11-19T07:50:06Z</time>
      </trkpt>
      <trkpt lat="38.100643" lon="-1.269926">
        <ele>84.5</ele>
        <time>2023-11-19T07:50:21Z</time>
      </trkpt>
      <trkpt lat="38.100459" lon="-1.269891">
        <ele>84.5</ele>
        <time>2023-11-19T07:50:33Z</time>
      </trkpt>
      <trkpt lat="38.100283" lon="-1.269806">
        <ele>85.7</ele>
        <time>2023-11-19T07:50:46Z</time>
      </trkpt>
      <trkpt lat="38.100091" lon="-1.269789">
        <ele>84.6</ele>
        <time>2023-11-19T07:51:01Z</time>
      </trkpt>
      <trkpt lat="38.099902" lon="-1.269778">
        <ele>81.6</ele>
        <time>2023-11-19T07:51:15Z</time>
      </trkpt>
      <trkpt lat="38.099712" lon="-1.269751">
        <ele>83.5</ele>
        <time>2023-11-19T07:51:28Z</time>
      </trkpt>
      <trkpt lat="38.099515" lon="-1.269731">
        <ele>82.7</ele>
        <time>2023-11-19T07:51:41Z</time>
      </trkpt>
      <trkpt lat="38.099326" lon="-1.269741">
        <ele>83.5</ele>
        <time>2023-11-19T07:51:55Z</time>
      </trkpt>
      <trkpt lat="38.099153" lon="-1.269820">
        <ele>82.6</ele>
        <time>2023-11-19T07:52:07Z</time>
      </trkpt>
      <trkpt lat="38.098976" lon="-1.269893">
        <ele>83.5</ele>
        <time>2023-11-19T07:52:20Z</time>
      </trkpt>
      <trkpt lat="38.098795" lon="-1.269987">
        <ele>83.5</ele>
        <time>2023-11-19T07:52:33Z</time>
      </trkpt>
      <trkpt lat="38.098614" lon="-1.270037">
        <ele>83.5</ele>
        <time>2023-11-19T07:52:46Z</time>
      </trkpt>
      <trkpt lat="38.098433" lon="-1.270050">
        <ele>83.7</ele>
        <time>2023-11-19T07:53:15Z</time>
      </trkpt>
      <trkpt lat="38.098252" lon="-1.269994">
        <ele>85.5</ele>
        <time>2023-11-19T07:54:55Z</time>
      </trkpt>
      <trkpt lat="38.098070" lon="-1.269951">
        <ele>84.7</ele>
        <time>2023-11-19T07:55:13Z</time>
      </trkpt>
      <trkpt lat="38.097893" lon="-1.269901">
        <ele>84.5</ele>
        <time>2023-11-19T07:55:27Z</time>
      </trkpt>
      <trkpt lat="38.097707" lon="-1.269856">
        <ele>86.8</ele>
        <time>2023-11-19T07:55:40Z</time>
      </trkpt>
      <trkpt lat="38.097527" lon="-1.269815">
        <ele>85.4</ele>
        <time>2023-11-19T07:55:54Z</time>
      </trkpt>
      <trkpt lat="38.097351" lon="-1.269744">
        <ele>85.2</ele>
        <time>2023-11-19T07:56:08Z</time>
      </trkpt>
      <trkpt lat="38.097191" lon="-1.269635">
        <ele>83.8</ele>
        <time>2023-11-19T07:56:23Z</time>
      </trkpt>
      <trkpt lat="38.097020" lon="-1.269530">
        <ele>83.5</ele>
        <time>2023-11-19T07:56:40Z</time>
      </trkpt>
      <trkpt lat="38.096873" lon="-1.269370">
        <ele>85.5</ele>
        <time>2023-11-19T07:56:55Z</time>
      </trkpt>
      <trkpt lat="38.096727" lon="-1.269228">
        <ele>84.5</ele>
        <time>2023-11-19T07:57:10Z</time>
      </trkpt>
      <trkpt lat="38.096584" lon="-1.269081">
        <ele>87.5</ele>
        <time>2023-11-19T07:57:24Z</time>
      </trkpt>
      <trkpt lat="38.096442" lon="-1.268926">
        <ele>88.4</ele>
        <time>2023-11-19T07:57:39Z</time>
      </trkpt>
      <trkpt lat="38.096342" lon="-1.268716">
        <ele>86.5</ele>
        <time>2023-11-19T07:57:54Z</time>
      </trkpt>
      <trkpt lat="38.096243" lon="-1.268544">
        <ele>87.5</ele>
        <time>2023-11-19T07:58:09Z</time>
      </trkpt>
      <trkpt lat="38.096153" lon="-1.268392">
        <ele>86.5</ele>
        <time>2023-11-19T07:58:24Z</time>
      </trkpt>
      <trkpt lat="38.096064" lon="-1.268309">
        <ele>86.5</ele>
        <time>2023-11-19T07:58:43Z</time>
      </trkpt>
      <trkpt lat="38.095930" lon="-1.268269">
        <ele>88.5</ele>
        <time>2023-11-19T07:58:59Z</time>
      </trkpt>
      <trkpt lat="38.095856" lon="-1.268046">
        <ele>89.5</ele>
        <time>2023-11-19T07:59:15Z</time>
      </trkpt>
      <trkpt lat="38.095806" lon="-1.267814">
        <ele>88.5</ele>
        <time>2023-11-19T07:59:29Z</time>
      </trkpt>
      <trkpt lat="38.095794" lon="-1.267585">
        <ele>87.5</ele>
        <time>2023-11-19T07:59:43Z</time>
      </trkpt>
      <trkpt lat="38.095834" lon="-1.267351">
        <ele>87.2</ele>
        <time>2023-11-19T07:59:57Z</time>
      </trkpt>
      <trkpt lat="38.095850" lon="-1.267110">
        <ele>81.9</ele>
        <time>2023-11-19T08:00:12Z</time>
      </trkpt>
      <trkpt lat="38.095853" lon="-1.266871">
        <ele>81.9</ele>
        <time>2023-11-19T08:00:25Z</time>
      </trkpt>
      <trkpt lat="38.095845" lon="-1.266628">
        <ele>81.9</ele>
        <time>2023-11-19T08:00:41Z</time>
      </trkpt>
      <trkpt lat="38.095880" lon="-1.266401">
        <ele>81.9</ele>
        <time>2023-11-19T08:00:55Z</time>
      </trkpt>
      <trkpt lat="38.095949" lon="-1.266186">
        <ele>81.9</ele>
        <time>2023-11-19T08:01:09Z</time>
      </trkpt>
      <trkpt lat="38.095993" lon="-1.265956">
        <ele>82.3</ele>
        <time>2023-11-19T08:01:24Z</time>
      </trkpt>
      <trkpt lat="38.095968" lon="-1.265718">
        <ele>88.5</ele>
        <time>2023-11-19T08:01:39Z</time>
      </trkpt>
      <trkpt lat="38.095975" lon="-1.265489">
        <ele>88.5</ele>
        <time>2023-11-19T08:01:53Z</time>
      </trkpt>
      <trkpt lat="38.095960" lon="-1.265260">
        <ele>86.6</ele>
        <time>2023-11-19T08:02:07Z</time>
      </trkpt>
      <trkpt lat="38.095932" lon="-1.265023">
        <ele>87.5</ele>
        <time>2023-11-19T08:02:22Z</time>
      </trkpt>
      <trkpt lat="38.095891" lon="-1.264788">
        <ele>87.5</ele>
        <time>2023-11-19T08:02:37Z</time>
      </trkpt>
      <trkpt lat="38.095827" lon="-1.264570">
        <ele>86.5</ele>
        <time>2023-11-19T08:02:52Z</time>
      </trkpt>
      <trkpt lat="38.095743" lon="-1.264359">
        <ele>85.8</ele>
        <time>2023-11-19T08:03:07Z</time>
      </trkpt>
      <trkpt lat="38.095634" lon="-1.264172">
        <ele>87.5</ele>
        <time>2023-11-19T08:03:22Z</time>
      </trkpt>
      <trkpt lat="38.095506" lon="-1.264006">
        <ele>87.5</ele>
        <time>2023-11-19T08:03:37Z</time>
      </trkpt>
      <trkpt lat="38.095421" lon="-1.263804">
        <ele>88.6</ele>
        <time>2023-11-19T08:03:50Z</time>
      </trkpt>
      <trkpt lat="38.095335" lon="-1.263594">
        <ele>86.5</ele>
        <time>2023-11-19T08:04:06Z</time>
      </trkpt>
      <trkpt lat="38.095257" lon="-1.263373">
        <ele>89.5</ele>
        <time>2023-11-19T08:04:20Z</time>
      </trkpt>
      <trkpt lat="38.095172" lon="-1.263170">
        <ele>89.5</ele>
        <time>2023-11-19T08:04:33Z</time>
      </trkpt>
      <trkpt lat="38.095077" lon="-1.262975">
        <ele>88.5</ele>
        <time>2023-11-19T08:04:51Z</time>
      </trkpt>
      <trkpt lat="38.094997" lon="-1.262770">
        <ele>87.4</ele>
        <time>2023-11-19T08:05:06Z</time>
      </trkpt>
      <trkpt lat="38.094873" lon="-1.262587">
        <ele>84.5</ele>
        <time>2023-11-19T08:05:22Z</time>
      </trkpt>
      <trkpt lat="38.094739" lon="-1.262403">
        <ele>82.6</ele>
        <time>2023-11-19T08:05:36Z</time>
      </trkpt>
      <trkpt lat="38.094596" lon="-1.262238">
        <ele>83.5</ele>
        <time>2023-11-19T08:05:51Z</time>
      </trkpt>
      <trkpt lat="38.094449" lon="-1.262080">
        <ele>82.5</ele>
        <time>2023-11-19T08:06:06Z</time>
      </trkpt>
      <trkpt lat="38.094301" lon="-1.261931">
        <ele>82.5</ele>
        <time>2023-11-19T08:06:21Z</time>
      </trkpt>
      <trkpt lat="38.094142" lon="-1.261791">
        <ele>83.4</ele>
        <time>2023-11-19T08:06:41Z</time>
      </trkpt>
      <trkpt lat="38.093997" lon="-1.261638">
        <ele>83.5</ele>
        <time>2023-11-19T08:06:53Z</time>
      </trkpt>
      <trkpt lat="38.093855" lon="-1.261493">
        <ele>88.4</ele>
        <time>2023-11-19T08:07:06Z</time>
      </trkpt>
      <trkpt lat="38.093706" lon="-1.261355">
        <ele>88.7</ele>
        <time>2023-11-19T08:07:20Z</time>
      </trkpt>
      <trkpt lat="38.093562" lon="-1.261210">
        <ele>87.5</ele>
        <time>2023-11-19T08:07:35Z</time>
      </trkpt>
      <trkpt lat="38.093397" lon="-1.261109">
        <ele>87.5</ele>
        <time>2023-11-19T08:07:50Z</time>
      </trkpt>
      <trkpt lat="38.093215" lon="-1.261116">
        <ele>88.5</ele>
        <time>2023-11-19T08:08:04Z</time>
      </trkpt>
      <trkpt lat="38.093084" lon="-1.261275">
        <ele>88.5</ele>
        <time>2023-11-19T08:08:17Z</time>
      </trkpt>
      <trkpt lat="38.092967" lon="-1.261462">
        <ele>88.5</ele>
        <time>2023-11-19T08:08:32Z</time>
      </trkpt>
      <trkpt lat="38.092822" lon="-1.261607">
        <ele>88.5</ele>
        <time>2023-11-19T08:08:49Z</time>
      </trkpt>
      <trkpt lat="38.092654" lon="-1.261708">
        <ele>86.5</ele>
        <time>2023-11-19T08:09:03Z</time>
      </trkpt>
      <trkpt lat="38.092629" lon="-1.261949">
        <ele>80.4</ele>
        <time>2023-11-19T08:09:23Z</time>
      </trkpt>
      <trkpt lat="38.092572" lon="-1.262170">
        <ele>80.4</ele>
        <time>2023-11-19T08:09:41Z</time>
      </trkpt>
      <trkpt lat="38.092479" lon="-1.262367">
        <ele>80.4</ele>
        <time>2023-11-19T08:09:55Z</time>
      </trkpt>
      <trkpt lat="38.092405" lon="-1.262577">
        <ele>80.4</ele>
        <time>2023-11-19T08:10:09Z</time>
      </trkpt>
      <trkpt lat="38.092320" lon="-1.262790">
        <ele>80.4</ele>
        <time>2023-11-19T08:10:24Z</time>
      </trkpt>
      <trkpt lat="38.092199" lon="-1.262970">
        <ele>80.4</ele>
        <time>2023-11-19T08:10:39Z</time>
      </trkpt>
      <trkpt lat="38.092048" lon="-1.263101">
        <ele>80.4</ele>
        <time>2023-11-19T08:10:54Z</time>
      </trkpt>
      <trkpt lat="38.091882" lon="-1.263196">
        <ele>80.4</ele>
        <time>2023-11-19T08:11:08Z</time>
      </trkpt>
      <trkpt lat="38.091711" lon="-1.263270">
        <ele>80.4</ele>
        <time>2023-11-19T08:11:23Z</time>
      </trkpt>
      <trkpt lat="38.091551" lon="-1.263386">
        <ele>84.5</ele>
        <time>2023-11-19T08:11:36Z</time>
      </trkpt>
      <trkpt lat="38.091397" lon="-1.263520">
        <ele>81.5</ele>
        <time>2023-11-19T08:11:51Z</time>
      </trkpt>
      <trkpt lat="38.091245" lon="-1.263660">
        <ele>83.3</ele>
        <time>2023-11-19T08:12:05Z</time>
      </trkpt>
      <trkpt lat="38.091102" lon="-1.263812">
        <ele>84.5</ele>
        <time>2023-11-19T08:12:19Z</time>
      </trkpt>
      <trkpt lat="38.090969" lon="-1.263970">
        <ele>84.5</ele>
        <time>2023-11-19T08:12:34Z</time>
      </trkpt>
      <trkpt lat="38.090825" lon="-1.264133">
        <ele>85.5</ele>
        <time>2023-11-19T08:12:49Z</time>
      </trkpt>
      <trkpt lat="38.090679" lon="-1.264267">
        <ele>86.5</ele>
        <time>2023-11-19T08:13:03Z</time>
      </trkpt>
      <trkpt lat="38.090522" lon="-1.264396">
        <ele>86.5</ele>
        <time>2023-11-19T08:13:17Z</time>
      </trkpt>
      <trkpt lat="38.090335" lon="-1.264406">
        <ele>86.6</ele>
        <time>2023-11-19T08:13:31Z</time>
      </trkpt>
      <trkpt lat="38.090157" lon="-1.264330">
        <ele>88.5</ele>
        <time>2023-11-19T08:13:46Z</time>
      </trkpt>
      <trkpt lat="38.089997" lon="-1.264197">
        <ele>87.5</ele>
        <time>2023-11-19T08:14:00Z</time>
      </trkpt>
      <trkpt lat="38.089858" lon="-1.264043">
        <ele>86.6</ele>
        <time>2023-11-19T08:14:14Z</time>
      </trkpt>
      <trkpt lat="38.089725" lon="-1.263887">
        <ele>87.5</ele>
        <time>2023-11-19T08:14:27Z</time>
      </trkpt>
      <trkpt lat="38.089589" lon="-1.263726">
        <ele>89.2</ele>
        <time>2023-11-19T08:14:42Z</time>
      </trkpt>
      <trkpt lat="38.089446" lon="-1.263573">
        <ele>87.5</ele>
        <time>2023-11-19T08:14:58Z</time>
      </trkpt>
      <trkpt lat="38.089303" lon="-1.263413">
        <ele>88.2</ele>
        <time>2023-11-19T08:15:12Z</time>
      </trkpt>
      <trkpt lat="38.089167" lon="-1.263254">
        <ele>88.5</ele>
        <time>2023-11-19T08:15:26Z</time>
      </trkpt>
      <trkpt lat="38.089039" lon="-1.263076">
        <ele>89.5</ele>
        <time>2023-11-19T08:15:41Z</time>
      </trkpt>
      <trkpt lat="38.088917" lon="-1.262896">
        <ele>89.5</ele>
        <time>2023-11-19T08:15:55Z</time>
      </trkpt>
      <trkpt lat="38.088791" lon="-1.262718">
        <ele>88.5</ele>
        <time>2023-11-19T08:16:11Z</time>
      </trkpt>
      <trkpt lat="38.088671" lon="-1.262540">
        <ele>90.5</ele>
        <time>2023-11-19T08:16:25Z</time>
      </trkpt>
      <trkpt lat="38.088587" lon="-1.262331">
        <ele>90.5</ele>
        <time>2023-11-19T08:16:39Z</time>
      </trkpt>
      <trkpt lat="38.088518" lon="-1.262105">
        <ele>89.5</ele>
        <time>2023-11-19T08:16:54Z</time>
      </trkpt>
      <trkpt lat="38.088467" lon="-1.261885">
        <ele>88.5</ele>
        <time>2023-11-19T08:17:09Z</time>
      </trkpt>
      <trkpt lat="38.088420" lon="-1.261661">
        <ele>88.5</ele>
        <time>2023-11-19T08:17:23Z</time>
      </trkpt>
      <trkpt lat="38.088387" lon="-1.261423">
        <ele>87.5</ele>
        <time>2023-11-19T08:17:38Z</time>
      </trkpt>
      <trkpt lat="38.088366" lon="-1.261194">
        <ele>86.8</ele>
        <time>2023-11-19T08:17:52Z</time>
      </trkpt>
      <trkpt lat="38.088351" lon="-1.260961">
        <ele>86.8</ele>
        <time>2023-11-19T08:18:07Z</time>
      </trkpt>
      <trkpt lat="38.088307" lon="-1.260739">
        <ele>87.5</ele>
        <time>2023-11-19T08:18:21Z</time>
      </trkpt>
      <trkpt lat="38.088239" lon="-1.260526">
        <ele>89.5</ele>
        <time>2023-11-19T08:18:35Z</time>
      </trkpt>
      <trkpt lat="38.088183" lon="-1.260307">
        <ele>87.6</ele>
        <time>2023-11-19T08:18:52Z</time>
      </trkpt>
      <trkpt lat="38.088087" lon="-1.260098">
        <ele>88.4</ele>
        <time>2023-11-19T08:19:06Z</time>
      </trkpt>
      <trkpt lat="38.088001" lon="-1.259883">
        <ele>86.8</ele>
        <time>2023-11-19T08:19:21Z</time>
      </trkpt>
      <trkpt lat="38.087910" lon="-1.259683">
        <ele>87.5</ele>
        <time>2023-11-19T08:19:35Z</time>
      </trkpt>
      <trkpt lat="38.087828" lon="-1.259479">
        <ele>88.0</ele>
        <time>2023-11-19T08:19:49Z</time>
      </trkpt>
      <trkpt lat="38.087744" lon="-1.259276">
        <ele>87.3</ele>
        <time>2023-11-19T08:20:04Z</time>
      </trkpt>
      <trkpt lat="38.087652" lon="-1.259070">
        <ele>88.5</ele>
        <time>2023-11-19T08:20:20Z</time>
      </trkpt>
      <trkpt lat="38.087554" lon="-1.258877">
        <ele>88.2</ele>
        <time>2023-11-19T08:20:34Z</time>
      </trkpt>
      <trkpt lat="38.087446" lon="-1.258687">
        <ele>88.5</ele>
        <time>2023-11-19T08:20:48Z</time>
      </trkpt>
      <trkpt lat="38.087318" lon="-1.258510">
        <ele>88.0</ele>
        <time>2023-11-19T08:21:02Z</time>
      </trkpt>
      <trkpt lat="38.087162" lon="-1.258385">
        <ele>87.9</ele>
        <time>2023-11-19T08:21:17Z</time>
      </trkpt>
      <trkpt lat="38.086990" lon="-1.258286">
        <ele>87.9</ele>
        <time>2023-11-19T08:21:33Z</time>
      </trkpt>
      <trkpt lat="38.086817" lon="-1.258205">
        <ele>87.9</ele>
        <time>2023-11-19T08:21:47Z</time>
      </trkpt>
      <trkpt lat="38.086637" lon="-1.258129">
        <ele>87.9</ele>
        <time>2023-11-19T08:22:02Z</time>
      </trkpt>
      <trkpt lat="38.086465" lon="-1.258060">
        <ele>87.9</ele>
        <time>2023-11-19T08:22:17Z</time>
      </trkpt>
      <trkpt lat="38.086290" lon="-1.257993">
        <ele>89.5</ele>
        <time>2023-11-19T08:22:32Z</time>
      </trkpt>
      <trkpt lat="38.086106" lon="-1.257932">
        <ele>88.5</ele>
        <time>2023-11-19T08:22:47Z</time>
      </trkpt>
      <trkpt lat="38.085930" lon="-1.257870">
        <ele>88.5</ele>
        <time>2023-11-19T08:23:03Z</time>
      </trkpt>
      <trkpt lat="38.085740" lon="-1.257837">
        <ele>88.5</ele>
        <time>2023-11-19T08:23:18Z</time>
      </trkpt>
      <trkpt lat="38.085547" lon="-1.257833">
        <ele>84.5</ele>
        <time>2023-11-19T08:23:33Z</time>
      </trkpt>
      <trkpt lat="38.085366" lon="-1.257850">
        <ele>86.5</ele>
        <time>2023-11-19T08:23:52Z</time>
      </trkpt>
      <trkpt lat="38.085177" lon="-1.257841">
        <ele>84.5</ele>
        <time>2023-11-19T08:24:35Z</time>
      </trkpt>
      <trkpt lat="38.084987" lon="-1.257823">
        <ele>87.5</ele>
        <time>2023-11-19T08:24:55Z</time>
      </trkpt>
      <trkpt lat="38.084800" lon="-1.257834">
        <ele>83.9</ele>
        <time>2023-11-19T08:25:15Z</time>
      </trkpt>
      <trkpt lat="38.084612" lon="-1.257850">
        <ele>79.2</ele>
        <time>2023-11-19T08:25:57Z</time>
      </trkpt>
      <trkpt lat="38.084426" lon="-1.257891">
        <ele>79.2</ele>
        <time>2023-11-19T08:26:21Z</time>
      </trkpt>
      <trkpt lat="38.084248" lon="-1.257914">
        <ele>79.2</ele>
        <time>2023-11-19T08:26:37Z</time>
      </trkpt>
      <trkpt lat="38.084070" lon="-1.257958">
        <ele>79.5</ele>
        <time>2023-11-19T08:26:51Z</time>
      </trkpt>
      <trkpt lat="38.083891" lon="-1.257979">
        <ele>84.5</ele>
        <time>2023-11-19T08:27:09Z</time>
      </trkpt>
      <trkpt lat="38.083698" lon="-1.257990">
        <ele>83.6</ele>
        <time>2023-11-19T08:27:21Z</time>
      </trkpt>
      <trkpt lat="38.083516" lon="-1.258008">
        <ele>83.6</ele>
        <time>2023-11-19T08:27:37Z</time>
      </trkpt>
      <trkpt lat="38.083327" lon="-1.258042">
        <ele>83.6</ele>
        <time>2023-11-19T08:27:51Z</time>
      </trkpt>
      <trkpt lat="38.083140" lon="-1.258084">
        <ele>83.6</ele>
        <time>2023-11-19T08:28:05Z</time>
      </trkpt>
      <trkpt lat="38.082963" lon="-1.258158">
        <ele>83.6</ele>
        <time>2023-11-19T08:28:18Z</time>
      </trkpt>
      <trkpt lat="38.082786" lon="-1.258246">
        <ele>83.6</ele>
        <time>2023-11-19T08:28:39Z</time>
      </trkpt>
      <trkpt lat="38.082602" lon="-1.258306">
        <ele>83.6</ele>
        <time>2023-11-19T08:28:57Z</time>
      </trkpt>
      <trkpt lat="38.082426" lon="-1.258377">
        <ele>83.6</ele>
        <time>2023-11-19T08:29:15Z</time>
      </trkpt>
      <trkpt lat="38.082258" lon="-1.258469">
        <ele>83.6</ele>
        <time>2023-11-19T08:29:29Z</time>
      </trkpt>
      <trkpt lat="38.082084" lon="-1.258533">
        <ele>83.6</ele>
        <time>2023-11-19T08:29:41Z</time>
      </trkpt>
      <trkpt lat="38.081904" lon="-1.258613">
        <ele>82.0</ele>
        <time>2023-11-19T08:30:00Z</time>
      </trkpt>
      <trkpt lat="38.081722" lon="-1.258690">
        <ele>82.0</ele>
        <time>2023-11-19T08:30:13Z</time>
      </trkpt>
      <trkpt lat="38.081552" lon="-1.258780">
        <ele>87.5</ele>
        <time>2023-11-19T08:30:31Z</time>
      </trkpt>
      <trkpt lat="38.081400" lon="-1.258916">
        <ele>82.0</ele>
        <time>2023-11-19T08:30:46Z</time>
      </trkpt>
      <trkpt lat="38.081231" lon="-1.258984">
        <ele>82.0</ele>
        <time>2023-11-19T08:31:00Z</time>
      </trkpt>
      <trkpt lat="38.081051" lon="-1.259040">
        <ele>82.0</ele>
        <time>2023-11-19T08:31:14Z</time>
      </trkpt>
      <trkpt lat="38.080879" lon="-1.259129">
        <ele>81.6</ele>
        <time>2023-11-19T08:31:45Z</time>
      </trkpt>
      <trkpt lat="38.080716" lon="-1.259243">
        <ele>86.4</ele>
        <time>2023-11-19T08:31:58Z</time>
      </trkpt>
      <trkpt lat="38.080539" lon="-1.259345">
        <ele>85.8</ele>
        <time>2023-11-19T08:32:10Z</time>
      </trkpt>
      <trkpt lat="38.080364" lon="-1.259459">
        <ele>78.0</ele>
        <time>2023-11-19T08:32:23Z</time>
      </trkpt>
      <trkpt lat="38.080216" lon="-1.259605">
        <ele>77.5</ele>
        <time>2023-11-19T08:32:35Z</time>
      </trkpt>
      <trkpt lat="38.080048" lon="-1.259713">
        <ele>77.0</ele>
        <time>2023-11-19T08:32:48Z</time>
      </trkpt>
      <trkpt lat="38.079875" lon="-1.259811">
        <ele>77.0</ele>
        <time>2023-11-19T08:33:03Z</time>
      </trkpt>
      <trkpt lat="38.079702" lon="-1.259919">
        <ele>78.0</ele>
        <time>2023-11-19T08:33:18Z</time>
      </trkpt>
      <trkpt lat="38.079822" lon="-1.259743">
        <ele>86.4</ele>
        <time>2023-11-19T08:35:16Z</time>
      </trkpt>
      <trkpt lat="38.079893" lon="-1.259611">
        <ele>77.5</ele>
        <time>2023-11-19T08:39:15Z</time>
      </trkpt>
      <trkpt lat="38.079810" lon="-1.259452">
        <ele>77.5</ele>
        <time>2023-11-19T09:03:42Z</time>
      </trkpt>
      <trkpt lat="38.079596" lon="-1.259367">
        <ele>77.4</ele>
        <time>2023-11-19T09:03:56Z</time>
      </trkpt>
      <trkpt lat="38.079673" lon="-1.259556">
        <ele>77.4</ele>
        <time>2023-11-19T09:04:22Z</time>
      </trkpt>
      <trkpt lat="38.079792" lon="-1.259634">
        <ele>77.0</ele>
        <time>2023-11-19T09:04:36Z</time>
      </trkpt>
      <trkpt lat="38.079744" lon="-1.259782">
        <ele>78.0</ele>
        <time>2023-11-19T09:05:06Z</time>
      </trkpt>
      <trkpt lat="38.079632" lon="-1.259960">
        <ele>77.1</ele>
        <time>2023-11-19T09:05:24Z</time>
      </trkpt>
      <trkpt lat="38.079452" lon="-1.260055">
        <ele>77.0</ele>
        <time>2023-11-19T09:05:41Z</time>
      </trkpt>
      <trkpt lat="38.079287" lon="-1.260138">
        <ele>77.0</ele>
        <time>2023-11-19T09:06:00Z</time>
      </trkpt>
      <trkpt lat="38.079117" lon="-1.260235">
        <ele>77.0</ele>
        <time>2023-11-19T09:06:19Z</time>
      </trkpt>
      <trkpt lat="38.078944" lon="-1.260305">
        <ele>77.0</ele>
        <time>2023-11-19T09:06:38Z</time>
      </trkpt>
      <trkpt lat="38.078771" lon="-1.260399">
        <ele>77.0</ele>
        <time>2023-11-19T09:06:55Z</time>
      </trkpt>
      <trkpt lat="38.078585" lon="-1.260464">
        <ele>77.0</ele>
        <time>2023-11-19T09:07:10Z</time>
      </trkpt>
      <trkpt lat="38.078410" lon="-1.260537">
        <ele>77.0</ele>
        <time>2023-11-19T09:07:25Z</time>
      </trkpt>
      <trkpt lat="38.078241" lon="-1.260619">
        <ele>77.0</ele>
        <time>2023-11-19T09:07:41Z</time>
      </trkpt>
      <trkpt lat="38.078068" lon="-1.260715">
        <ele>77.0</ele>
        <time>2023-11-19T09:07:58Z</time>
      </trkpt>
      <trkpt lat="38.077894" lon="-1.260809">
        <ele>77.0</ele>
        <time>2023-11-19T09:08:13Z</time>
      </trkpt>
      <trkpt lat="38.077724" lon="-1.260919">
        <ele>84.5</ele>
        <time>2023-11-19T09:08:30Z</time>
      </trkpt>
      <trkpt lat="38.077554" lon="-1.261013">
        <ele>82.5</ele>
        <time>2023-11-19T09:08:46Z</time>
      </trkpt>
      <trkpt lat="38.077377" lon="-1.261068">
        <ele>83.5</ele>
        <time>2023-11-19T09:09:02Z</time>
      </trkpt>
      <trkpt lat="38.077210" lon="-1.261183">
        <ele>82.5</ele>
        <time>2023-11-19T09:09:17Z</time>
      </trkpt>
      <trkpt lat="38.077047" lon="-1.261287">
        <ele>82.5</ele>
        <time>2023-11-19T09:09:33Z</time>
      </trkpt>
      <trkpt lat="38.076881" lon="-1.261379">
        <ele>83.5</ele>
        <time>2023-11-19T09:09:47Z</time>
      </trkpt>
      <trkpt lat="38.076707" lon="-1.261479">
        <ele>84.5</ele>
        <time>2023-11-19T09:10:02Z</time>
      </trkpt>
      <trkpt lat="38.076535" lon="-1.261563">
        <ele>83.5</ele>
        <time>2023-11-19T09:10:17Z</time>
      </trkpt>
      <trkpt lat="38.076372" lon="-1.261668">
        <ele>84.5</ele>
        <time>2023-11-19T09:10:33Z</time>
      </trkpt>
      <trkpt lat="38.076207" lon="-1.261763">
        <ele>83.5</ele>
        <time>2023-11-19T09:10:49Z</time>
      </trkpt>
      <trkpt lat="38.076039" lon="-1.261851">
        <ele>83.5</ele>
        <time>2023-11-19T09:11:02Z</time>
      </trkpt>
      <trkpt lat="38.075875" lon="-1.261952">
        <ele>83.4</ele>
        <time>2023-11-19T09:11:16Z</time>
      </trkpt>
      <trkpt lat="38.075705" lon="-1.262037">
        <ele>84.5</ele>
        <time>2023-11-19T09:11:31Z</time>
      </trkpt>
      <trkpt lat="38.075524" lon="-1.262078">
        <ele>85.5</ele>
        <time>2023-11-19T09:11:46Z</time>
      </trkpt>
      <trkpt lat="38.075336" lon="-1.262106">
        <ele>84.5</ele>
        <time>2023-11-19T09:12:02Z</time>
      </trkpt>
      <trkpt lat="38.075144" lon="-1.262091">
        <ele>84.5</ele>
        <time>2023-11-19T09:12:18Z</time>
      </trkpt>
      <trkpt lat="38.074955" lon="-1.262102">
        <ele>84.5</ele>
        <time>2023-11-19T09:12:34Z</time>
      </trkpt>
      <trkpt lat="38.074781" lon="-1.262039">
        <ele>83.5</ele>
        <time>2023-11-19T09:12:50Z</time>
      </trkpt>
      <trkpt lat="38.074666" lon="-1.261847">
        <ele>82.5</ele>
        <time>2023-11-19T09:13:04Z</time>
      </trkpt>
      <trkpt lat="38.074658" lon="-1.261611">
        <ele>82.5</ele>
        <time>2023-11-19T09:13:19Z</time>
      </trkpt>
      <trkpt lat="38.074711" lon="-1.261374">
        <ele>80.5</ele>
        <time>2023-11-19T09:13:33Z</time>
      </trkpt>
      <trkpt lat="38.074733" lon="-1.261138">
        <ele>80.5</ele>
        <time>2023-11-19T09:13:48Z</time>
      </trkpt>
      <trkpt lat="38.074730" lon="-1.260901">
        <ele>81.2</ele>
        <time>2023-11-19T09:14:03Z</time>
      </trkpt>
      <trkpt lat="38.074712" lon="-1.260670">
        <ele>81.5</ele>
        <time>2023-11-19T09:14:17Z</time>
      </trkpt>
      <trkpt lat="38.074672" lon="-1.260439">
        <ele>81.2</ele>
        <time>2023-11-19T09:14:32Z</time>
      </trkpt>
      <trkpt lat="38.074645" lon="-1.260201">
        <ele>80.5</ele>
        <time>2023-11-19T09:14:47Z</time>
      </trkpt>
      <trkpt lat="38.074611" lon="-1.259972">
        <ele>81.6</ele>
        <time>2023-11-19T09:15:02Z</time>
      </trkpt>
      <trkpt lat="38.074560" lon="-1.259740">
        <ele>81.4</ele>
        <time>2023-11-19T09:15:18Z</time>
      </trkpt>
      <trkpt lat="38.074533" lon="-1.259513">
        <ele>82.5</ele>
        <time>2023-11-19T09:15:33Z</time>
      </trkpt>
      <trkpt lat="38.074491" lon="-1.259276">
        <ele>81.2</ele>
        <time>2023-11-19T09:15:48Z</time>
      </trkpt>
      <trkpt lat="38.074452" lon="-1.259048">
        <ele>81.5</ele>
        <time>2023-11-19T09:16:04Z</time>
      </trkpt>
      <trkpt lat="38.074418" lon="-1.258809">
        <ele>81.6</ele>
        <time>2023-11-19T09:16:18Z</time>
      </trkpt>
      <trkpt lat="38.074434" lon="-1.258574">
        <ele>81.4</ele>
        <time>2023-11-19T09:16:34Z</time>
      </trkpt>
      <trkpt lat="38.074526" lon="-1.258363">
        <ele>79.5</ele>
        <time>2023-11-19T09:16:49Z</time>
      </trkpt>
      <trkpt lat="38.074603" lon="-1.258147">
        <ele>78.5</ele>
        <time>2023-11-19T09:17:03Z</time>
      </trkpt>
      <trkpt lat="38.074694" lon="-1.257941">
        <ele>77.7</ele>
        <time>2023-11-19T09:17:16Z</time>
      </trkpt>
      <trkpt lat="38.074789" lon="-1.257736">
        <ele>77.5</ele>
        <time>2023-11-19T09:17:30Z</time>
      </trkpt>
      <trkpt lat="38.074878" lon="-1.257525">
        <ele>76.5</ele>
        <time>2023-11-19T09:17:44Z</time>
      </trkpt>
      <trkpt lat="38.074980" lon="-1.257333">
        <ele>76.5</ele>
        <time>2023-11-19T09:17:58Z</time>
      </trkpt>
      <trkpt lat="38.075088" lon="-1.257141">
        <ele>76.5</ele>
        <time>2023-11-19T09:18:13Z</time>
      </trkpt>
      <trkpt lat="38.075180" lon="-1.256934">
        <ele>76.5</ele>
        <time>2023-11-19T09:18:27Z</time>
      </trkpt>
      <trkpt lat="38.075283" lon="-1.256737">
        <ele>75.6</ele>
        <time>2023-11-19T09:18:42Z</time>
      </trkpt>
      <trkpt lat="38.075377" lon="-1.256534">
        <ele>77.5</ele>
        <time>2023-11-19T09:18:56Z</time>
      </trkpt>
      <trkpt lat="38.075419" lon="-1.256309">
        <ele>76.8</ele>
        <time>2023-11-19T09:19:09Z</time>
      </trkpt>
      <trkpt lat="38.075445" lon="-1.256077">
        <ele>79.2</ele>
        <time>2023-11-19T09:19:25Z</time>
      </trkpt>
      <trkpt lat="38.075376" lon="-1.255865">
        <ele>79.2</ele>
        <time>2023-11-19T09:19:39Z</time>
      </trkpt>
      <trkpt lat="38.075258" lon="-1.255691">
        <ele>79.2</ele>
        <time>2023-11-19T09:19:52Z</time>
      </trkpt>
      <trkpt lat="38.075122" lon="-1.255541">
        <ele>79.2</ele>
        <time>2023-11-19T09:20:05Z</time>
      </trkpt>
      <trkpt lat="38.074968" lon="-1.255395">
        <ele>79.2</ele>
        <time>2023-11-19T09:20:19Z</time>
      </trkpt>
      <trkpt lat="38.074797" lon="-1.255289">
        <ele>75.5</ele>
        <time>2023-11-19T09:20:34Z</time>
      </trkpt>
      <trkpt lat="38.074632" lon="-1.255156">
        <ele>79.5</ele>
        <time>2023-11-19T09:20:47Z</time>
      </trkpt>
      <trkpt lat="38.074464" lon="-1.255053">
        <ele>80.5</ele>
        <time>2023-11-19T09:21:00Z</time>
      </trkpt>
      <trkpt lat="38.074283" lon="-1.254984">
        <ele>80.5</ele>
        <time>2023-11-19T09:21:17Z</time>
      </trkpt>
      <trkpt lat="38.074106" lon="-1.254889">
        <ele>80.5</ele>
        <time>2023-11-19T09:21:32Z</time>
      </trkpt>
      <trkpt lat="38.073977" lon="-1.254718">
        <ele>78.6</ele>
        <time>2023-11-19T09:21:45Z</time>
      </trkpt>
      <trkpt lat="38.073944" lon="-1.254484">
        <ele>78.7</ele>
        <time>2023-11-19T09:21:59Z</time>
      </trkpt>
      <trkpt lat="38.073897" lon="-1.254259">
        <ele>78.2</ele>
        <time>2023-11-19T09:22:16Z</time>
      </trkpt>
      <trkpt lat="38.073846" lon="-1.254040">
        <ele>78.2</ele>
        <time>2023-11-19T09:22:28Z</time>
      </trkpt>
      <trkpt lat="38.073742" lon="-1.253848">
        <ele>78.2</ele>
        <time>2023-11-19T09:22:42Z</time>
      </trkpt>
      <trkpt lat="38.073613" lon="-1.253673">
        <ele>78.2</ele>
        <time>2023-11-19T09:22:59Z</time>
      </trkpt>
      <trkpt lat="38.073474" lon="-1.253507">
        <ele>78.2</ele>
        <time>2023-11-19T09:23:14Z</time>
      </trkpt>
      <trkpt lat="38.073360" lon="-1.253328">
        <ele>79.5</ele>
        <time>2023-11-19T09:23:27Z</time>
      </trkpt>
      <trkpt lat="38.073241" lon="-1.253155">
        <ele>78.8</ele>
        <time>2023-11-19T09:23:41Z</time>
      </trkpt>
      <trkpt lat="38.073112" lon="-1.252976">
        <ele>76.2</ele>
        <time>2023-11-19T09:23:55Z</time>
      </trkpt>
      <trkpt lat="38.072979" lon="-1.252816">
        <ele>78.2</ele>
        <time>2023-11-19T09:24:09Z</time>
      </trkpt>
      <trkpt lat="38.072834" lon="-1.252670">
        <ele>78.2</ele>
        <time>2023-11-19T09:24:24Z</time>
      </trkpt>
      <trkpt lat="38.072687" lon="-1.252534">
        <ele>78.2</ele>
        <time>2023-11-19T09:24:38Z</time>
      </trkpt>
      <trkpt lat="38.072528" lon="-1.252419">
        <ele>78.2</ele>
        <time>2023-11-19T09:24:52Z</time>
      </trkpt>
      <trkpt lat="38.072362" lon="-1.252322">
        <ele>78.2</ele>
        <time>2023-11-19T09:25:06Z</time>
      </trkpt>
      <trkpt lat="38.072189" lon="-1.252219">
        <ele>78.2</ele>
        <time>2023-11-19T09:25:21Z</time>
      </trkpt>
      <trkpt lat="38.072022" lon="-1.252117">
        <ele>78.2</ele>
        <time>2023-11-19T09:25:35Z</time>
      </trkpt>
      <trkpt lat="38.071854" lon="-1.252022">
        <ele>78.2</ele>
        <time>2023-11-19T09:25:50Z</time>
      </trkpt>
      <trkpt lat="38.071696" lon="-1.251910">
        <ele>78.5</ele>
        <time>2023-11-19T09:26:10Z</time>
      </trkpt>
      <trkpt lat="38.071531" lon="-1.251814">
        <ele>78.5</ele>
        <time>2023-11-19T09:26:23Z</time>
      </trkpt>
      <trkpt lat="38.071363" lon="-1.251728">
        <ele>79.5</ele>
        <time>2023-11-19T09:26:36Z</time>
      </trkpt>
      <trkpt lat="38.071191" lon="-1.251652">
        <ele>78.5</ele>
        <time>2023-11-19T09:26:50Z</time>
      </trkpt>
      <trkpt lat="38.071009" lon="-1.251576">
        <ele>76.4</ele>
        <time>2023-11-19T09:27:12Z</time>
      </trkpt>
      <trkpt lat="38.070826" lon="-1.251523">
        <ele>76.5</ele>
        <time>2023-11-19T09:27:31Z</time>
      </trkpt>
      <trkpt lat="38.070651" lon="-1.251446">
        <ele>78.5</ele>
        <time>2023-11-19T09:27:45Z</time>
      </trkpt>
      <trkpt lat="38.070471" lon="-1.251383">
        <ele>79.5</ele>
        <time>2023-11-19T09:28:00Z</time>
      </trkpt>
      <trkpt lat="38.070326" lon="-1.251247">
        <ele>78.5</ele>
        <time>2023-11-19T09:28:16Z</time>
      </trkpt>
      <trkpt lat="38.070187" lon="-1.251099">
        <ele>77.3</ele>
        <time>2023-11-19T09:28:31Z</time>
      </trkpt>
      <trkpt lat="38.070009" lon="-1.251033">
        <ele>77.5</ele>
        <time>2023-11-19T09:28:54Z</time>
      </trkpt>
      <trkpt lat="38.069855" lon="-1.250916">
        <ele>76.5</ele>
        <time>2023-11-19T09:29:12Z</time>
      </trkpt>
      <trkpt lat="38.069691" lon="-1.250812">
        <ele>76.5</ele>
        <time>2023-11-19T09:29:26Z</time>
      </trkpt>
      <trkpt lat="38.069520" lon="-1.250724">
        <ele>76.5</ele>
        <time>2023-11-19T09:29:41Z</time>
      </trkpt>
      <trkpt lat="38.069346" lon="-1.250636">
        <ele>79.4</ele>
        <time>2023-11-19T09:29:59Z</time>
      </trkpt>
      <trkpt lat="38.069173" lon="-1.250556">
        <ele>80.5</ele>
        <time>2023-11-19T09:30:14Z</time>
      </trkpt>
      <trkpt lat="38.068995" lon="-1.250491">
        <ele>80.5</ele>
        <time>2023-11-19T09:30:29Z</time>
      </trkpt>
      <trkpt lat="38.068819" lon="-1.250446">
        <ele>80.5</ele>
        <time>2023-11-19T09:30:45Z</time>
      </trkpt>
      <trkpt lat="38.068632" lon="-1.250382">
        <ele>80.5</ele>
        <time>2023-11-19T09:31:00Z</time>
      </trkpt>
      <trkpt lat="38.068451" lon="-1.250316">
        <ele>81.5</ele>
        <time>2023-11-19T09:31:17Z</time>
      </trkpt>
      <trkpt lat="38.068270" lon="-1.250245">
        <ele>82.5</ele>
        <time>2023-11-19T09:31:32Z</time>
      </trkpt>
      <trkpt lat="38.068132" lon="-1.250095">
        <ele>81.8</ele>
        <time>2023-11-19T09:31:46Z</time>
      </trkpt>
      <trkpt lat="38.068033" lon="-1.249895">
        <ele>80.4</ele>
        <time>2023-11-19T09:32:05Z</time>
      </trkpt>
      <trkpt lat="38.067986" lon="-1.249673">
        <ele>77.5</ele>
        <time>2023-11-19T09:32:19Z</time>
      </trkpt>
      <trkpt lat="38.067916" lon="-1.249462">
        <ele>78.5</ele>
        <time>2023-11-19T09:32:33Z</time>
      </trkpt>
      <trkpt lat="38.067866" lon="-1.249242">
        <ele>78.8</ele>
        <time>2023-11-19T09:32:46Z</time>
      </trkpt>
      <trkpt lat="38.067796" lon="-1.249027">
        <ele>78.5</ele>
        <time>2023-11-19T09:33:00Z</time>
      </trkpt>
      <trkpt lat="38.067730" lon="-1.248802">
        <ele>78.5</ele>
        <time>2023-11-19T09:33:14Z</time>
      </trkpt>
      <trkpt lat="38.067665" lon="-1.248580">
        <ele>78.5</ele>
        <time>2023-11-19T09:33:29Z</time>
      </trkpt>
      <trkpt lat="38.067610" lon="-1.248348">
        <ele>77.5</ele>
        <time>2023-11-19T09:33:43Z</time>
      </trkpt>
      <trkpt lat="38.067558" lon="-1.248125">
        <ele>77.5</ele>
        <time>2023-11-19T09:33:57Z</time>
      </trkpt>
      <trkpt lat="38.067520" lon="-1.247891">
        <ele>79.5</ele>
        <time>2023-11-19T09:34:13Z</time>
      </trkpt>
      <trkpt lat="38.067488" lon="-1.247654">
        <ele>82.2</ele>
        <time>2023-11-19T09:34:37Z</time>
      </trkpt>
      <trkpt lat="38.067471" lon="-1.247417">
        <ele>81.4</ele>
        <time>2023-11-19T09:34:51Z</time>
      </trkpt>
      <trkpt lat="38.067437" lon="-1.247184">
        <ele>78.5</ele>
        <time>2023-11-19T09:35:06Z</time>
      </trkpt>
      <trkpt lat="38.067387" lon="-1.246964">
        <ele>75.5</ele>
        <time>2023-11-19T09:35:18Z</time>
      </trkpt>
      <trkpt lat="38.067388" lon="-1.246724">
        <ele>75.8</ele>
        <time>2023-11-19T09:35:31Z</time>
      </trkpt>
      <trkpt lat="38.067360" lon="-1.246489">
        <ele>78.2</ele>
        <time>2023-11-19T09:35:46Z</time>
      </trkpt>
      <trkpt lat="38.067274" lon="-1.246279">
        <ele>77.5</ele>
        <time>2023-11-19T09:36:03Z</time>
      </trkpt>
      <trkpt lat="38.067186" lon="-1.246074">
        <ele>79.6</ele>
        <time>2023-11-19T09:36:26Z</time>
      </trkpt>
      <trkpt lat="38.067105" lon="-1.245863">
        <ele>78.5</ele>
        <time>2023-11-19T09:36:45Z</time>
      </trkpt>
      <trkpt lat="38.067060" lon="-1.245633">
        <ele>78.5</ele>
        <time>2023-11-19T09:37:02Z</time>
      </trkpt>
      <trkpt lat="38.067052" lon="-1.245404">
        <ele>78.5</ele>
        <time>2023-11-19T09:37:21Z</time>
      </trkpt>
      <trkpt lat="38.067092" lon="-1.245174">
        <ele>75.6</ele>
        <time>2023-11-19T09:37:37Z</time>
      </trkpt>
      <trkpt lat="38.067154" lon="-1.244957">
        <ele>77.5</ele>
        <time>2023-11-19T09:37:53Z</time>
      </trkpt>
      <trkpt lat="38.067214" lon="-1.244735">
        <ele>79.5</ele>
        <time>2023-11-19T09:38:09Z</time>
      </trkpt>
      <trkpt lat="38.067312" lon="-1.244542">
        <ele>79.8</ele>
        <time>2023-11-19T09:38:24Z</time>
      </trkpt>
      <trkpt lat="38.067461" lon="-1.244397">
        <ele>78.5</ele>
        <time>2023-11-19T09:38:41Z</time>
      </trkpt>
      <trkpt lat="38.067642" lon="-1.244305">
        <ele>77.5</ele>
        <time>2023-11-19T09:38:57Z</time>
      </trkpt>
      <trkpt lat="38.067825" lon="-1.244251">
        <ele>77.5</ele>
        <time>2023-11-19T09:39:14Z</time>
      </trkpt>
      <trkpt lat="38.068001" lon="-1.244185">
        <ele>77.4</ele>
        <time>2023-11-19T09:39:28Z</time>
      </trkpt>
      <trkpt lat="38.068185" lon="-1.244126">
        <ele>77.5</ele>
        <time>2023-11-19T09:39:44Z</time>
      </trkpt>
      <trkpt lat="38.068371" lon="-1.244072">
        <ele>76.8</ele>
        <time>2023-11-19T09:39:59Z</time>
      </trkpt>
      <trkpt lat="38.068545" lon="-1.244001">
        <ele>76.7</ele>
        <time>2023-11-19T09:40:14Z</time>
      </trkpt>
      <trkpt lat="38.068719" lon="-1.243921">
        <ele>76.5</ele>
        <time>2023-11-19T09:40:30Z</time>
      </trkpt>
      <trkpt lat="38.068885" lon="-1.243822">
        <ele>77.5</ele>
        <time>2023-11-19T09:40:44Z</time>
      </trkpt>
      <trkpt lat="38.069048" lon="-1.243714">
        <ele>78.5</ele>
        <time>2023-11-19T09:40:58Z</time>
      </trkpt>
      <trkpt lat="38.069204" lon="-1.243583">
        <ele>77.5</ele>
        <time>2023-11-19T09:41:13Z</time>
      </trkpt>
      <trkpt lat="38.069351" lon="-1.243425">
        <ele>79.5</ele>
        <time>2023-11-19T09:41:28Z</time>
      </trkpt>
      <trkpt lat="38.069456" lon="-1.243224">
        <ele>77.5</ele>
        <time>2023-11-19T09:41:43Z</time>
      </trkpt>
      <trkpt lat="38.069556" lon="-1.243015">
        <ele>77.7</ele>
        <time>2023-11-19T09:41:58Z</time>
      </trkpt>
      <trkpt lat="38.069625" lon="-1.242793">
        <ele>76.4</ele>
        <time>2023-11-19T09:42:13Z</time>
      </trkpt>
      <trkpt lat="38.069671" lon="-1.242571">
        <ele>76.5</ele>
        <time>2023-11-19T09:42:27Z</time>
      </trkpt>
      <trkpt lat="38.069644" lon="-1.242343">
        <ele>76.5</ele>
        <time>2023-11-19T09:42:42Z</time>
      </trkpt>
      <trkpt lat="38.069487" lon="-1.242198">
        <ele>76.8</ele>
        <time>2023-11-19T09:42:57Z</time>
      </trkpt>
      <trkpt lat="38.069326" lon="-1.242065">
        <ele>80.2</ele>
        <time>2023-11-19T09:43:11Z</time>
      </trkpt>
      <trkpt lat="38.069180" lon="-1.241914">
        <ele>78.2</ele>
        <time>2023-11-19T09:43:26Z</time>
      </trkpt>
      <trkpt lat="38.069002" lon="-1.241835">
        <ele>77.7</ele>
        <time>2023-11-19T09:43:41Z</time>
      </trkpt>
      <trkpt lat="38.068834" lon="-1.241919">
        <ele>74.0</ele>
        <time>2023-11-19T09:46:16Z</time>
      </trkpt>
      <trkpt lat="38.068722" lon="-1.241733">
        <ele>66.5</ele>
        <time>2023-11-19T09:47:49Z</time>
      </trkpt>
      <trkpt lat="38.068581" lon="-1.241581">
        <ele>67.6</ele>
        <time>2023-11-19T09:48:07Z</time>
      </trkpt>
      <trkpt lat="38.068427" lon="-1.241462">
        <ele>70.5</ele>
        <time>2023-11-19T09:48:32Z</time>
      </trkpt>
      <trkpt lat="38.068284" lon="-1.241317">
        <ele>71.8</ele>
        <time>2023-11-19T09:49:39Z</time>
      </trkpt>
      <trkpt lat="38.068162" lon="-1.241148">
        <ele>71.5</ele>
        <time>2023-11-19T09:50:12Z</time>
      </trkpt>
      <trkpt lat="38.068011" lon="-1.241013">
        <ele>73.5</ele>
        <time>2023-11-19T09:50:30Z</time>
      </trkpt>
      <trkpt lat="38.067874" lon="-1.240844">
        <ele>76.5</ele>
        <time>2023-11-19T09:50:44Z</time>
      </trkpt>
      <trkpt lat="38.067744" lon="-1.240684">
        <ele>78.5</ele>
        <time>2023-11-19T09:51:01Z</time>
      </trkpt>
      <trkpt lat="38.067601" lon="-1.240523">
        <ele>75.5</ele>
        <time>2023-11-19T09:51:20Z</time>
      </trkpt>
      <trkpt lat="38.067483" lon="-1.240343">
        <ele>75.4</ele>
        <time>2023-11-19T09:51:36Z</time>
      </trkpt>
      <trkpt lat="38.067374" lon="-1.240161">
        <ele>74.4</ele>
        <time>2023-11-19T09:51:50Z</time>
      </trkpt>
      <trkpt lat="38.067255" lon="-1.239986">
        <ele>71.9</ele>
        <time>2023-11-19T09:52:30Z</time>
      </trkpt>
      <trkpt lat="38.067128" lon="-1.239821">
        <ele>73.8</ele>
        <time>2023-11-19T09:52:45Z</time>
      </trkpt>
      <trkpt lat="38.066982" lon="-1.239675">
        <ele>77.6</ele>
        <time>2023-11-19T09:53:02Z</time>
      </trkpt>
      <trkpt lat="38.066819" lon="-1.239564">
        <ele>77.7</ele>
        <time>2023-11-19T09:53:17Z</time>
      </trkpt>
      <trkpt lat="38.066653" lon="-1.239469">
        <ele>77.7</ele>
        <time>2023-11-19T09:53:32Z</time>
      </trkpt>
      <trkpt lat="38.066465" lon="-1.239417">
        <ele>77.7</ele>
        <time>2023-11-19T09:53:47Z</time>
      </trkpt>
      <trkpt lat="38.066284" lon="-1.239367">
        <ele>77.7</ele>
        <time>2023-11-19T09:54:02Z</time>
      </trkpt>
      <trkpt lat="38.066106" lon="-1.239330">
        <ele>77.7</ele>
        <time>2023-11-19T09:54:16Z</time>
      </trkpt>
      <trkpt lat="38.065917" lon="-1.239293">
        <ele>77.4</ele>
        <time>2023-11-19T09:54:31Z</time>
      </trkpt>
      <trkpt lat="38.065738" lon="-1.239218">
        <ele>77.4</ele>
        <time>2023-11-19T09:54:46Z</time>
      </trkpt>
      <trkpt lat="38.065563" lon="-1.239158">
        <ele>77.5</ele>
        <time>2023-11-19T09:55:00Z</time>
      </trkpt>
      <trkpt lat="38.065385" lon="-1.239092">
        <ele>78.5</ele>
        <time>2023-11-19T09:55:14Z</time>
      </trkpt>
      <trkpt lat="38.065204" lon="-1.239008">
        <ele>79.2</ele>
        <time>2023-11-19T09:55:29Z</time>
      </trkpt>
      <trkpt lat="38.065054" lon="-1.238863">
        <ele>75.6</ele>
        <time>2023-11-19T09:56:08Z</time>
      </trkpt>
      <trkpt lat="38.064879" lon="-1.238800">
        <ele>76.2</ele>
        <time>2023-11-19T09:56:28Z</time>
      </trkpt>
      <trkpt lat="38.064689" lon="-1.238762">
        <ele>76.8</ele>
        <time>2023-11-19T09:56:44Z</time>
      </trkpt>
      <trkpt lat="38.064504" lon="-1.238707">
        <ele>76.8</ele>
        <time>2023-11-19T09:56:59Z</time>
      </trkpt>
      <trkpt lat="38.064335" lon="-1.238603">
        <ele>75.8</ele>
        <time>2023-11-19T09:57:19Z</time>
      </trkpt>
      <trkpt lat="38.064165" lon="-1.238505">
        <ele>75.5</ele>
        <time>2023-11-19T09:57:34Z</time>
      </trkpt>
      <trkpt lat="38.063988" lon="-1.238427">
        <ele>78.5</ele>
        <time>2023-11-19T09:59:45Z</time>
      </trkpt>
      <trkpt lat="38.063823" lon="-1.238314">
        <ele>77.6</ele>
        <time>2023-11-19T10:00:02Z</time>
      </trkpt>
      <trkpt lat="38.063668" lon="-1.238183">
        <ele>76.6</ele>
        <time>2023-11-19T10:00:19Z</time>
      </trkpt>
      <trkpt lat="38.063515" lon="-1.238049">
        <ele>76.5</ele>
        <time>2023-11-19T10:00:36Z</time>
      </trkpt>
      <trkpt lat="38.063348" lon="-1.237934">
        <ele>76.8</ele>
        <time>2023-11-19T10:00:53Z</time>
      </trkpt>
      <trkpt lat="38.063176" lon="-1.237845">
        <ele>77.5</ele>
        <time>2023-11-19T10:01:09Z</time>
      </trkpt>
      <trkpt lat="38.062999" lon="-1.237762">
        <ele>78.5</ele>
        <time>2023-11-19T10:01:25Z</time>
      </trkpt>
      <trkpt lat="38.062824" lon="-1.237689">
        <ele>77.5</ele>
        <time>2023-11-19T10:01:40Z</time>
      </trkpt>
      <trkpt lat="38.062650" lon="-1.237592">
        <ele>76.5</ele>
        <time>2023-11-19T10:01:58Z</time>
      </trkpt>
      <trkpt lat="38.062478" lon="-1.237515">
        <ele>75.3</ele>
        <time>2023-11-19T10:02:14Z</time>
      </trkpt>
      <trkpt lat="38.062309" lon="-1.237415">
        <ele>73.5</ele>
        <time>2023-11-19T10:02:39Z</time>
      </trkpt>
      <trkpt lat="38.062144" lon="-1.237295">
        <ele>69.5</ele>
        <time>2023-11-19T10:02:56Z</time>
      </trkpt>
      <trkpt lat="38.061987" lon="-1.237158">
        <ele>70.5</ele>
        <time>2023-11-19T10:03:10Z</time>
      </trkpt>
      <trkpt lat="38.061835" lon="-1.237010">
        <ele>72.5</ele>
        <time>2023-11-19T10:03:25Z</time>
      </trkpt>
      <trkpt lat="38.061659" lon="-1.236926">
        <ele>73.7</ele>
        <time>2023-11-19T10:03:41Z</time>
      </trkpt>
      <trkpt lat="38.061479" lon="-1.236853">
        <ele>74.7</ele>
        <time>2023-11-19T10:03:56Z</time>
      </trkpt>
      <trkpt lat="38.061292" lon="-1.236826">
        <ele>75.7</ele>
        <time>2023-11-19T10:04:13Z</time>
      </trkpt>
      <trkpt lat="38.061106" lon="-1.236844">
        <ele>74.5</ele>
        <time>2023-11-19T10:04:28Z</time>
      </trkpt>
      <trkpt lat="38.060917" lon="-1.236905">
        <ele>74.5</ele>
        <time>2023-11-19T10:04:42Z</time>
      </trkpt>
      <trkpt lat="38.060731" lon="-1.236955">
        <ele>73.5</ele>
        <time>2023-11-19T10:04:57Z</time>
      </trkpt>
      <trkpt lat="38.060555" lon="-1.237019">
        <ele>76.2</ele>
        <time>2023-11-19T10:05:10Z</time>
      </trkpt>
      <trkpt lat="38.060370" lon="-1.237046">
        <ele>76.5</ele>
        <time>2023-11-19T10:05:24Z</time>
      </trkpt>
      <trkpt lat="38.060185" lon="-1.236984">
        <ele>75.8</ele>
        <time>2023-11-19T10:05:40Z</time>
      </trkpt>
      <trkpt lat="38.060015" lon="-1.236882">
        <ele>74.1</ele>
        <time>2023-11-19T10:05:55Z</time>
      </trkpt>
      <trkpt lat="38.059841" lon="-1.236796">
        <ele>73.3</ele>
        <time>2023-11-19T10:06:11Z</time>
      </trkpt>
      <trkpt lat="38.059687" lon="-1.236658">
        <ele>73.3</ele>
        <time>2023-11-19T10:06:28Z</time>
      </trkpt>
      <trkpt lat="38.059535" lon="-1.236518">
        <ele>73.3</ele>
        <time>2023-11-19T10:06:43Z</time>
      </trkpt>
      <trkpt lat="38.059387" lon="-1.236385">
        <ele>73.3</ele>
        <time>2023-11-19T10:06:57Z</time>
      </trkpt>
      <trkpt lat="38.059231" lon="-1.236265">
        <ele>73.3</ele>
        <time>2023-11-19T10:07:11Z</time>
      </trkpt>
      <trkpt lat="38.059069" lon="-1.236135">
        <ele>73.5</ele>
        <time>2023-11-19T10:07:26Z</time>
      </trkpt>
      <trkpt lat="38.058900" lon="-1.236021">
        <ele>73.5</ele>
        <time>2023-11-19T10:07:41Z</time>
      </trkpt>
      <trkpt lat="38.058753" lon="-1.235883">
        <ele>74.5</ele>
        <time>2023-11-19T10:07:55Z</time>
      </trkpt>
      <trkpt lat="38.058596" lon="-1.235755">
        <ele>73.8</ele>
        <time>2023-11-19T10:08:10Z</time>
      </trkpt>
      <trkpt lat="38.058447" lon="-1.235625">
        <ele>73.5</ele>
        <time>2023-11-19T10:08:24Z</time>
      </trkpt>
      <trkpt lat="38.058293" lon="-1.235498">
        <ele>72.6</ele>
        <time>2023-11-19T10:08:39Z</time>
      </trkpt>
      <trkpt lat="38.058131" lon="-1.235374">
        <ele>72.5</ele>
        <time>2023-11-19T10:08:53Z</time>
      </trkpt>
      <trkpt lat="38.057975" lon="-1.235246">
        <ele>73.5</ele>
        <time>2023-11-19T10:09:08Z</time>
      </trkpt>
      <trkpt lat="38.057822" lon="-1.235107">
        <ele>73.5</ele>
        <time>2023-11-19T10:09:24Z</time>
      </trkpt>
      <trkpt lat="38.057650" lon="-1.235004">
        <ele>71.8</ele>
        <time>2023-11-19T10:09:41Z</time>
      </trkpt>
      <trkpt lat="38.057483" lon="-1.234903">
        <ele>70.6</ele>
        <time>2023-11-19T10:09:55Z</time>
      </trkpt>
      <trkpt lat="38.057306" lon="-1.234832">
        <ele>69.6</ele>
        <time>2023-11-19T10:10:10Z</time>
      </trkpt>
      <trkpt lat="38.057131" lon="-1.234754">
        <ele>71.5</ele>
        <time>2023-11-19T10:10:25Z</time>
      </trkpt>
      <trkpt lat="38.056960" lon="-1.234671">
        <ele>72.5</ele>
        <time>2023-11-19T10:10:39Z</time>
      </trkpt>
      <trkpt lat="38.056788" lon="-1.234565">
        <ele>73.5</ele>
        <time>2023-11-19T10:10:55Z</time>
      </trkpt>
      <trkpt lat="38.056636" lon="-1.234422">
        <ele>73.3</ele>
        <time>2023-11-19T10:11:12Z</time>
      </trkpt>
      <trkpt lat="38.056471" lon="-1.234310">
        <ele>73.4</ele>
        <time>2023-11-19T10:11:27Z</time>
      </trkpt>
      <trkpt lat="38.056335" lon="-1.234157">
        <ele>73.4</ele>
        <time>2023-11-19T10:11:41Z</time>
      </trkpt>
      <trkpt lat="38.056206" lon="-1.233993">
        <ele>71.4</ele>
        <time>2023-11-19T10:11:56Z</time>
      </trkpt>
      <trkpt lat="38.056081" lon="-1.233823">
        <ele>71.5</ele>
        <time>2023-11-19T10:12:11Z</time>
      </trkpt>
      <trkpt lat="38.055981" lon="-1.233618">
        <ele>72.5</ele>
        <time>2023-11-19T10:12:26Z</time>
      </trkpt>
      <trkpt lat="38.055895" lon="-1.233403">
        <ele>73.4</ele>
        <time>2023-11-19T10:12:41Z</time>
      </trkpt>
      <trkpt lat="38.055822" lon="-1.233187">
        <ele>73.4</ele>
        <time>2023-11-19T10:12:56Z</time>
      </trkpt>
      <trkpt lat="38.055741" lon="-1.232967">
        <ele>73.4</ele>
        <time>2023-11-19T10:13:11Z</time>
      </trkpt>
      <trkpt lat="38.055665" lon="-1.232742">
        <ele>73.4</ele>
        <time>2023-11-19T10:13:27Z</time>
      </trkpt>
      <trkpt lat="38.055595" lon="-1.232530">
        <ele>73.4</ele>
        <time>2023-11-19T10:13:41Z</time>
      </trkpt>
      <trkpt lat="38.055533" lon="-1.232315">
        <ele>73.4</ele>
        <time>2023-11-19T10:13:55Z</time>
      </trkpt>
      <trkpt lat="38.055467" lon="-1.232089">
        <ele>70.7</ele>
        <time>2023-11-19T10:14:11Z</time>
      </trkpt>
      <trkpt lat="38.055401" lon="-1.231872">
        <ele>69.5</ele>
        <time>2023-11-19T10:14:25Z</time>
      </trkpt>
      <trkpt lat="38.055315" lon="-1.231665">
        <ele>70.6</ele>
        <time>2023-11-19T10:14:40Z</time>
      </trkpt>
      <trkpt lat="38.055203" lon="-1.231477">
        <ele>71.5</ele>
        <time>2023-11-19T10:14:54Z</time>
      </trkpt>
      <trkpt lat="38.055063" lon="-1.231324">
        <ele>71.8</ele>
        <time>2023-11-19T10:15:09Z</time>
      </trkpt>
      <trkpt lat="38.054897" lon="-1.231224">
        <ele>70.5</ele>
        <time>2023-11-19T10:15:24Z</time>
      </trkpt>
      <trkpt lat="38.054734" lon="-1.231126">
        <ele>70.6</ele>
        <time>2023-11-19T10:15:41Z</time>
      </trkpt>
      <trkpt lat="38.054557" lon="-1.231077">
        <ele>71.5</ele>
        <time>2023-11-19T10:15:55Z</time>
      </trkpt>
      <trkpt lat="38.054379" lon="-1.230998">
        <ele>71.2</ele>
        <time>2023-11-19T10:16:11Z</time>
      </trkpt>
      <trkpt lat="38.054201" lon="-1.230952">
        <ele>69.8</ele>
        <time>2023-11-19T10:16:27Z</time>
      </trkpt>
      <trkpt lat="38.054033" lon="-1.230867">
        <ele>72.5</ele>
        <time>2023-11-19T10:16:42Z</time>
      </trkpt>
      <trkpt lat="38.053870" lon="-1.230729">
        <ele>71.2</ele>
        <time>2023-11-19T10:17:04Z</time>
      </trkpt>
      <trkpt lat="38.053737" lon="-1.230571">
        <ele>69.8</ele>
        <time>2023-11-19T10:17:21Z</time>
      </trkpt>
      <trkpt lat="38.053583" lon="-1.230421">
        <ele>66.4</ele>
        <time>2023-11-19T10:17:34Z</time>
      </trkpt>
      <trkpt lat="38.053435" lon="-1.230270">
        <ele>67.4</ele>
        <time>2023-11-19T10:17:47Z</time>
      </trkpt>
      <trkpt lat="38.053288" lon="-1.230135">
        <ele>73.5</ele>
        <time>2023-11-19T10:18:09Z</time>
      </trkpt>
      <trkpt lat="38.053104" lon="-1.230085">
        <ele>73.5</ele>
        <time>2023-11-19T10:18:45Z</time>
      </trkpt>
      <trkpt lat="38.052914" lon="-1.230043">
        <ele>73.5</ele>
        <time>2023-11-19T10:18:59Z</time>
      </trkpt>
      <trkpt lat="38.052733" lon="-1.230068">
        <ele>69.6</ele>
        <time>2023-11-19T10:19:12Z</time>
      </trkpt>
      <trkpt lat="38.052553" lon="-1.230130">
        <ele>73.5</ele>
        <time>2023-11-19T10:19:26Z</time>
      </trkpt>
      <trkpt lat="38.052391" lon="-1.230276">
        <ele>72.8</ele>
        <time>2023-11-19T10:19:44Z</time>
      </trkpt>
      <trkpt lat="38.052263" lon="-1.230439">
        <ele>70.5</ele>
        <time>2023-11-19T10:19:56Z</time>
      </trkpt>
      <trkpt lat="38.052131" lon="-1.230594">
        <ele>69.6</ele>
        <time>2023-11-19T10:20:12Z</time>
      </trkpt>
      <trkpt lat="38.052024" lon="-1.230780">
        <ele>70.5</ele>
        <time>2023-11-19T10:20:37Z</time>
      </trkpt>
      <trkpt lat="38.051909" lon="-1.230974">
        <ele>72.4</ele>
        <time>2023-11-19T10:20:59Z</time>
      </trkpt>
      <trkpt lat="38.051773" lon="-1.231139">
        <ele>72.4</ele>
        <time>2023-11-19T10:21:21Z</time>
      </trkpt>
      <trkpt lat="38.051648" lon="-1.231317">
        <ele>72.2</ele>
        <time>2023-11-19T10:21:35Z</time>
      </trkpt>
      <trkpt lat="38.051561" lon="-1.231526">
        <ele>72.2</ele>
        <time>2023-11-19T10:21:48Z</time>
      </trkpt>
      <trkpt lat="38.051464" lon="-1.231721">
        <ele>72.2</ele>
        <time>2023-11-19T10:22:02Z</time>
      </trkpt>
      <trkpt lat="38.051368" lon="-1.231920">
        <ele>72.2</ele>
        <time>2023-11-19T10:22:17Z</time>
      </trkpt>
      <trkpt lat="38.051264" lon="-1.232116">
        <ele>72.5</ele>
        <time>2023-11-19T10:22:30Z</time>
      </trkpt>
      <trkpt lat="38.051169" lon="-1.232327">
        <ele>72.5</ele>
        <time>2023-11-19T10:22:45Z</time>
      </trkpt>
      <trkpt lat="38.051069" lon="-1.232529">
        <ele>72.5</ele>
        <time>2023-11-19T10:23:00Z</time>
      </trkpt>
      <trkpt lat="38.050980" lon="-1.232730">
        <ele>72.5</ele>
        <time>2023-11-19T10:23:14Z</time>
      </trkpt>
      <trkpt lat="38.050889" lon="-1.232930">
        <ele>72.5</ele>
        <time>2023-11-19T10:23:28Z</time>
      </trkpt>
      <trkpt lat="38.050811" lon="-1.233143">
        <ele>72.5</ele>
        <time>2023-11-19T10:23:42Z</time>
      </trkpt>
      <trkpt lat="38.050743" lon="-1.233366">
        <ele>72.5</ele>
        <time>2023-11-19T10:23:57Z</time>
      </trkpt>
      <trkpt lat="38.050628" lon="-1.233549">
        <ele>73.9</ele>
        <time>2023-11-19T10:24:15Z</time>
      </trkpt>
      <trkpt lat="38.050443" lon="-1.233587">
        <ele>73.9</ele>
        <time>2023-11-19T10:24:31Z</time>
      </trkpt>
      <trkpt lat="38.050305" lon="-1.233428">
        <ele>73.9</ele>
        <time>2023-11-19T10:24:46Z</time>
      </trkpt>
      <trkpt lat="38.050186" lon="-1.233250">
        <ele>73.9</ele>
        <time>2023-11-19T10:25:01Z</time>
      </trkpt>
      <trkpt lat="38.050069" lon="-1.233073">
        <ele>73.9</ele>
        <time>2023-11-19T10:25:15Z</time>
      </trkpt>
      <trkpt lat="38.049926" lon="-1.232917">
        <ele>73.9</ele>
        <time>2023-11-19T10:25:30Z</time>
      </trkpt>
      <trkpt lat="38.049779" lon="-1.232786">
        <ele>66.5</ele>
        <time>2023-11-19T10:25:45Z</time>
      </trkpt>
      <trkpt lat="38.049619" lon="-1.232651">
        <ele>70.2</ele>
        <time>2023-11-19T10:26:00Z</time>
      </trkpt>
      <trkpt lat="38.049461" lon="-1.232534">
        <ele>71.5</ele>
        <time>2023-11-19T10:26:15Z</time>
      </trkpt>
      <trkpt lat="38.049315" lon="-1.232398">
        <ele>70.6</ele>
        <time>2023-11-19T10:26:30Z</time>
      </trkpt>
      <trkpt lat="38.049157" lon="-1.232288">
        <ele>69.5</ele>
        <time>2023-11-19T10:26:45Z</time>
      </trkpt>
      <trkpt lat="38.049014" lon="-1.232128">
        <ele>68.5</ele>
        <time>2023-11-19T10:27:00Z</time>
      </trkpt>
      <trkpt lat="38.048891" lon="-1.231953">
        <ele>68.5</ele>
        <time>2023-11-19T10:27:15Z</time>
      </trkpt>
      <trkpt lat="38.048756" lon="-1.231785">
        <ele>66.6</ele>
        <time>2023-11-19T10:27:31Z</time>
      </trkpt>
      <trkpt lat="38.048610" lon="-1.231628">
        <ele>66.5</ele>
        <time>2023-11-19T10:27:46Z</time>
      </trkpt>
      <trkpt lat="38.048490" lon="-1.231455">
        <ele>67.8</ele>
        <time>2023-11-19T10:28:00Z</time>
      </trkpt>
      <trkpt lat="38.048375" lon="-1.231268">
        <ele>72.1</ele>
        <time>2023-11-19T10:28:15Z</time>
      </trkpt>
      <trkpt lat="38.048262" lon="-1.231076">
        <ele>72.2</ele>
        <time>2023-11-19T10:28:31Z</time>
      </trkpt>
      <trkpt lat="38.048146" lon="-1.230883">
        <ele>67.5</ele>
        <time>2023-11-19T10:28:48Z</time>
      </trkpt>
      <trkpt lat="38.048048" lon="-1.230678">
        <ele>67.6</ele>
        <time>2023-11-19T10:29:01Z</time>
      </trkpt>
      <trkpt lat="38.047954" lon="-1.230481">
        <ele>68.5</ele>
        <time>2023-11-19T10:29:15Z</time>
      </trkpt>
      <trkpt lat="38.047879" lon="-1.230267">
        <ele>68.4</ele>
        <time>2023-11-19T10:29:29Z</time>
      </trkpt>
      <trkpt lat="38.047894" lon="-1.230034">
        <ele>68.2</ele>
        <time>2023-11-19T10:29:43Z</time>
      </trkpt>
      <trkpt lat="38.047986" lon="-1.229828">
        <ele>68.5</ele>
        <time>2023-11-19T10:29:57Z</time>
      </trkpt>
      <trkpt lat="38.048085" lon="-1.229631">
        <ele>69.5</ele>
        <time>2023-11-19T10:30:11Z</time>
      </trkpt>
      <trkpt lat="38.048180" lon="-1.229426">
        <ele>71.5</ele>
        <time>2023-11-19T10:30:26Z</time>
      </trkpt>
      <trkpt lat="38.048283" lon="-1.229231">
        <ele>69.2</ele>
        <time>2023-11-19T10:30:41Z</time>
      </trkpt>
      <trkpt lat="38.048398" lon="-1.229050">
        <ele>68.5</ele>
        <time>2023-11-19T10:30:56Z</time>
      </trkpt>
      <trkpt lat="38.048529" lon="-1.228877">
        <ele>69.6</ele>
        <time>2023-11-19T10:31:12Z</time>
      </trkpt>
      <trkpt lat="38.048656" lon="-1.228704">
        <ele>68.5</ele>
        <time>2023-11-19T10:31:28Z</time>
      </trkpt>
      <trkpt lat="38.048791" lon="-1.228546">
        <ele>68.5</ele>
        <time>2023-11-19T10:31:44Z</time>
      </trkpt>
      <trkpt lat="38.048945" lon="-1.228410">
        <ele>69.5</ele>
        <time>2023-11-19T10:31:59Z</time>
      </trkpt>
      <trkpt lat="38.049109" lon="-1.228295">
        <ele>70.4</ele>
        <time>2023-11-19T10:32:15Z</time>
      </trkpt>
      <trkpt lat="38.049262" lon="-1.228173">
        <ele>71.5</ele>
        <time>2023-11-19T10:32:30Z</time>
      </trkpt>
      <trkpt lat="38.049426" lon="-1.228060">
        <ele>71.5</ele>
        <time>2023-11-19T10:32:44Z</time>
      </trkpt>
      <trkpt lat="38.049595" lon="-1.227934">
        <ele>72.5</ele>
        <time>2023-11-19T10:32:59Z</time>
      </trkpt>
      <trkpt lat="38.049762" lon="-1.227801">
        <ele>71.5</ele>
        <time>2023-11-19T10:33:14Z</time>
      </trkpt>
      <trkpt lat="38.049913" lon="-1.227663">
        <ele>70.5</ele>
        <time>2023-11-19T10:33:28Z</time>
      </trkpt>
      <trkpt lat="38.050054" lon="-1.227515">
        <ele>68.6</ele>
        <time>2023-11-19T10:33:42Z</time>
      </trkpt>
      <trkpt lat="38.050172" lon="-1.227331">
        <ele>69.5</ele>
        <time>2023-11-19T10:33:56Z</time>
      </trkpt>
      <trkpt lat="38.050266" lon="-1.227125">
        <ele>69.5</ele>
        <time>2023-11-19T10:34:10Z</time>
      </trkpt>
      <trkpt lat="38.050348" lon="-1.226920">
        <ele>68.5</ele>
        <time>2023-11-19T10:34:24Z</time>
      </trkpt>
      <trkpt lat="38.050435" lon="-1.226709">
        <ele>67.5</ele>
        <time>2023-11-19T10:34:38Z</time>
      </trkpt>
      <trkpt lat="38.050505" lon="-1.226491">
        <ele>67.6</ele>
        <time>2023-11-19T10:34:52Z</time>
      </trkpt>
      <trkpt lat="38.050490" lon="-1.226255">
        <ele>66.8</ele>
        <time>2023-11-19T10:35:08Z</time>
      </trkpt>
      <trkpt lat="38.050352" lon="-1.226098">
        <ele>65.4</ele>
        <time>2023-11-19T10:35:24Z</time>
      </trkpt>
      <trkpt lat="38.050207" lon="-1.225931">
        <ele>65.2</ele>
        <time>2023-11-19T10:35:38Z</time>
      </trkpt>
      <trkpt lat="38.050060" lon="-1.225788">
        <ele>66.5</ele>
        <time>2023-11-19T10:35:56Z</time>
      </trkpt>
      <trkpt lat="38.049967" lon="-1.225633">
        <ele>69.2</ele>
        <time>2023-11-19T10:36:22Z</time>
      </trkpt>
      <trkpt lat="38.050090" lon="-1.225440">
        <ele>68.5</ele>
        <time>2023-11-19T10:41:13Z</time>
      </trkpt>
      <trkpt lat="38.049959" lon="-1.225612">
        <ele>72.7</ele>
        <time>2023-11-19T10:43:35Z</time>
      </trkpt>
      <trkpt lat="38.049811" lon="-1.225509">
        <ele>69.5</ele>
        <time>2023-11-19T10:44:32Z</time>
      </trkpt>
      <trkpt lat="38.049660" lon="-1.225377">
        <ele>69.5</ele>
        <time>2023-11-19T10:45:01Z</time>
      </trkpt>
      <trkpt lat="38.049543" lon="-1.225191">
        <ele>68.8</ele>
        <time>2023-11-19T10:45:21Z</time>
      </trkpt>
      <trkpt lat="38.049445" lon="-1.224981">
        <ele>67.8</ele>
        <time>2023-11-19T10:46:02Z</time>
      </trkpt>
      <trkpt lat="38.049342" lon="-1.224790">
        <ele>65.5</ele>
        <time>2023-11-19T10:46:16Z</time>
      </trkpt>
      <trkpt lat="38.049240" lon="-1.224582">
        <ele>65.5</ele>
        <time>2023-11-19T10:46:30Z</time>
      </trkpt>
      <trkpt lat="38.049151" lon="-1.224379">
        <ele>65.5</ele>
        <time>2023-11-19T10:46:44Z</time>
      </trkpt>
      <trkpt lat="38.049148" lon="-1.224148">
        <ele>66.5</ele>
        <time>2023-11-19T10:47:33Z</time>
      </trkpt>
      <trkpt lat="38.049192" lon="-1.223926">
        <ele>66.3</ele>
        <time>2023-11-19T10:47:45Z</time>
      </trkpt>
      <trkpt lat="38.049262" lon="-1.223711">
        <ele>65.5</ele>
        <time>2023-11-19T10:47:58Z</time>
      </trkpt>
      <trkpt lat="38.049330" lon="-1.223481">
        <ele>64.5</ele>
        <time>2023-11-19T10:48:13Z</time>
      </trkpt>
      <trkpt lat="38.049378" lon="-1.223259">
        <ele>65.5</ele>
        <time>2023-11-19T10:48:25Z</time>
      </trkpt>
      <trkpt lat="38.049420" lon="-1.223037">
        <ele>65.5</ele>
        <time>2023-11-19T10:48:41Z</time>
      </trkpt>
      <trkpt lat="38.049460" lon="-1.222802">
        <ele>65.5</ele>
        <time>2023-11-19T10:48:55Z</time>
      </trkpt>
      <trkpt lat="38.049508" lon="-1.222569">
        <ele>66.2</ele>
        <time>2023-11-19T10:49:44Z</time>
      </trkpt>
      <trkpt lat="38.049539" lon="-1.222327">
        <ele>62.6</ele>
        <time>2023-11-19T10:49:56Z</time>
      </trkpt>
      <trkpt lat="38.049593" lon="-1.222100">
        <ele>62.5</ele>
        <time>2023-11-19T10:50:21Z</time>
      </trkpt>
      <trkpt lat="38.049617" lon="-1.221870">
        <ele>61.5</ele>
        <time>2023-11-19T10:50:34Z</time>
      </trkpt>
      <trkpt lat="38.049637" lon="-1.221623">
        <ele>61.5</ele>
        <time>2023-11-19T10:50:47Z</time>
      </trkpt>
      <trkpt lat="38.049615" lon="-1.221383">
        <ele>61.5</ele>
        <time>2023-11-19T10:50:59Z</time>
      </trkpt>
      <trkpt lat="38.049576" lon="-1.221153">
        <ele>63.4</ele>
        <time>2023-11-19T10:51:12Z</time>
      </trkpt>
      <trkpt lat="38.049500" lon="-1.220932">
        <ele>63.5</ele>
        <time>2023-11-19T10:51:24Z</time>
      </trkpt>
      <trkpt lat="38.049445" lon="-1.220707">
        <ele>63.5</ele>
        <time>2023-11-19T10:51:36Z</time>
      </trkpt>
      <trkpt lat="38.049405" lon="-1.220484">
        <ele>63.8</ele>
        <time>2023-11-19T10:51:48Z</time>
      </trkpt>
      <trkpt lat="38.049344" lon="-1.220254">
        <ele>64.5</ele>
        <time>2023-11-19T10:52:03Z</time>
      </trkpt>
      <trkpt lat="38.049297" lon="-1.220032">
        <ele>64.5</ele>
        <time>2023-11-19T10:52:29Z</time>
      </trkpt>
      <trkpt lat="38.049222" lon="-1.219811">
        <ele>64.3</ele>
        <time>2023-11-19T10:52:43Z</time>
      </trkpt>
      <trkpt lat="38.049155" lon="-1.219581">
        <ele>61.6</ele>
        <time>2023-11-19T10:52:58Z</time>
      </trkpt>
      <trkpt lat="38.049111" lon="-1.219359">
        <ele>61.5</ele>
        <time>2023-11-19T10:53:10Z</time>
      </trkpt>
      <trkpt lat="38.049027" lon="-1.219144">
        <ele>60.5</ele>
        <time>2023-11-19T10:53:23Z</time>
      </trkpt>
      <trkpt lat="38.048921" lon="-1.218945">
        <ele>62.2</ele>
        <time>2023-11-19T10:53:35Z</time>
      </trkpt>
      <trkpt lat="38.048813" lon="-1.218755">
        <ele>62.5</ele>
        <time>2023-11-19T10:53:47Z</time>
      </trkpt>
      <trkpt lat="38.048735" lon="-1.218538">
        <ele>64.5</ele>
        <time>2023-11-19T10:54:01Z</time>
      </trkpt>
      <trkpt lat="38.048643" lon="-1.218333">
        <ele>64.5</ele>
        <time>2023-11-19T10:54:31Z</time>
      </trkpt>
      <trkpt lat="38.048583" lon="-1.218117">
        <ele>64.5</ele>
        <time>2023-11-19T10:54:44Z</time>
      </trkpt>
      <trkpt lat="38.048543" lon="-1.217867">
        <ele>64.5</ele>
        <time>2023-11-19T10:54:59Z</time>
      </trkpt>
      <trkpt lat="38.048530" lon="-1.217631">
        <ele>64.5</ele>
        <time>2023-11-19T10:55:12Z</time>
      </trkpt>
      <trkpt lat="38.048483" lon="-1.217401">
        <ele>63.5</ele>
        <time>2023-11-19T10:55:26Z</time>
      </trkpt>
      <trkpt lat="38.048467" lon="-1.217162">
        <ele>63.5</ele>
        <time>2023-11-19T10:55:39Z</time>
      </trkpt>
      <trkpt lat="38.048453" lon="-1.216935">
        <ele>64.5</ele>
        <time>2023-11-19T10:55:51Z</time>
      </trkpt>
      <trkpt lat="38.048420" lon="-1.216708">
        <ele>64.5</ele>
        <time>2023-11-19T10:56:05Z</time>
      </trkpt>
      <trkpt lat="38.048407" lon="-1.216479">
        <ele>64.5</ele>
        <time>2023-11-19T10:56:24Z</time>
      </trkpt>
      <trkpt lat="38.048386" lon="-1.216241">
        <ele>63.2</ele>
        <time>2023-11-19T10:56:43Z</time>
      </trkpt>
      <trkpt lat="38.048375" lon="-1.216004">
        <ele>63.5</ele>
        <time>2023-11-19T10:56:58Z</time>
      </trkpt>
      <trkpt lat="38.048348" lon="-1.215767">
        <ele>64.5</ele>
        <time>2023-11-19T10:57:13Z</time>
      </trkpt>
      <trkpt lat="38.048317" lon="-1.215533">
        <ele>63.5</ele>
        <time>2023-11-19T10:57:28Z</time>
      </trkpt>
      <trkpt lat="38.048272" lon="-1.215307">
        <ele>63.8</ele>
        <time>2023-11-19T10:57:42Z</time>
      </trkpt>
      <trkpt lat="38.048234" lon="-1.215083">
        <ele>65.5</ele>
        <time>2023-11-19T10:57:59Z</time>
      </trkpt>
      <trkpt lat="38.048195" lon="-1.214857">
        <ele>62.6</ele>
        <time>2023-11-19T10:58:15Z</time>
      </trkpt>
      <trkpt lat="38.048136" lon="-1.214634">
        <ele>63.4</ele>
        <time>2023-11-19T10:58:30Z</time>
      </trkpt>
      <trkpt lat="38.048072" lon="-1.214413">
        <ele>63.5</ele>
        <time>2023-11-19T10:58:45Z</time>
      </trkpt>
      <trkpt lat="38.047998" lon="-1.214196">
        <ele>64.5</ele>
        <time>2023-11-19T10:59:00Z</time>
      </trkpt>
      <trkpt lat="38.047922" lon="-1.213979">
        <ele>67.4</ele>
        <time>2023-11-19T10:59:15Z</time>
      </trkpt>
      <trkpt lat="38.047851" lon="-1.213764">
        <ele>66.5</ele>
        <time>2023-11-19T10:59:29Z</time>
      </trkpt>
      <trkpt lat="38.047757" lon="-1.213553">
        <ele>68.2</ele>
        <time>2023-11-19T10:59:43Z</time>
      </trkpt>
      <trkpt lat="38.047685" lon="-1.213340">
        <ele>66.5</ele>
        <time>2023-11-19T10:59:57Z</time>
      </trkpt>
      <trkpt lat="38.047616" lon="-1.213109">
        <ele>66.4</ele>
        <time>2023-11-19T11:00:12Z</time>
      </trkpt>
      <trkpt lat="38.047473" lon="-1.212966">
        <ele>66.5</ele>
        <time>2023-11-19T11:00:25Z</time>
      </trkpt>
      <trkpt lat="38.047298" lon="-1.212885">
        <ele>67.3</ele>
        <time>2023-11-19T11:00:39Z</time>
      </trkpt>
      <trkpt lat="38.047111" lon="-1.212884">
        <ele>66.5</ele>
        <time>2023-11-19T11:00:52Z</time>
      </trkpt>
      <trkpt lat="38.046932" lon="-1.212920">
        <ele>64.6</ele>
        <time>2023-11-19T11:01:40Z</time>
      </trkpt>
      <trkpt lat="38.046760" lon="-1.213024">
        <ele>65.2</ele>
        <time>2023-11-19T11:02:08Z</time>
      </trkpt>
      <trkpt lat="38.046580" lon="-1.212953">
        <ele>63.5</ele>
        <time>2023-11-19T11:02:26Z</time>
      </trkpt>
      <trkpt lat="38.046406" lon="-1.212875">
        <ele>65.5</ele>
        <time>2023-11-19T11:02:38Z</time>
      </trkpt>
      <trkpt lat="38.046226" lon="-1.212945">
        <ele>66.2</ele>
        <time>2023-11-19T11:02:50Z</time>
      </trkpt>
      <trkpt lat="38.046030" lon="-1.212979">
        <ele>66.5</ele>
        <time>2023-11-19T11:03:05Z</time>
      </trkpt>
      <trkpt lat="38.045834" lon="-1.213004">
        <ele>69.2</ele>
        <time>2023-11-19T11:03:25Z</time>
      </trkpt>
      <trkpt lat="38.045649" lon="-1.213010">
        <ele>69.5</ele>
        <time>2023-11-19T11:03:40Z</time>
      </trkpt>
      <trkpt lat="38.045468" lon="-1.213033">
        <ele>68.5</ele>
        <time>2023-11-19T11:03:54Z</time>
      </trkpt>
      <trkpt lat="38.045290" lon="-1.213059">
        <ele>68.5</ele>
        <time>2023-11-19T11:04:06Z</time>
      </trkpt>
      <trkpt lat="38.045105" lon="-1.213114">
        <ele>70.5</ele>
        <time>2023-11-19T11:04:20Z</time>
      </trkpt>
      <trkpt lat="38.044928" lon="-1.213156">
        <ele>70.5</ele>
        <time>2023-11-19T11:04:32Z</time>
      </trkpt>
      <trkpt lat="38.044749" lon="-1.213224">
        <ele>68.5</ele>
        <time>2023-11-19T11:04:45Z</time>
      </trkpt>
      <trkpt lat="38.044571" lon="-1.213306">
        <ele>66.5</ele>
        <time>2023-11-19T11:04:59Z</time>
      </trkpt>
      <trkpt lat="38.044390" lon="-1.213355">
        <ele>68.4</ele>
        <time>2023-11-19T11:05:13Z</time>
      </trkpt>
      <trkpt lat="38.044216" lon="-1.213452">
        <ele>65.6</ele>
        <time>2023-11-19T11:05:33Z</time>
      </trkpt>
      <trkpt lat="38.044068" lon="-1.213583">
        <ele>65.4</ele>
        <time>2023-11-19T11:05:48Z</time>
      </trkpt>
      <trkpt lat="38.043899" lon="-1.213686">
        <ele>64.2</ele>
        <time>2023-11-19T11:07:21Z</time>
      </trkpt>
      <trkpt lat="38.043727" lon="-1.213784">
        <ele>63.5</ele>
        <time>2023-11-19T11:07:42Z</time>
      </trkpt>
      <trkpt lat="38.043553" lon="-1.213876">
        <ele>62.6</ele>
        <time>2023-11-19T11:08:01Z</time>
      </trkpt>
      <trkpt lat="38.043399" lon="-1.214008">
        <ele>61.6</ele>
        <time>2023-11-19T11:08:15Z</time>
      </trkpt>
      <trkpt lat="38.043247" lon="-1.214139">
        <ele>63.2</ele>
        <time>2023-11-19T11:08:30Z</time>
      </trkpt>
      <trkpt lat="38.043091" lon="-1.214276">
        <ele>64.5</ele>
        <time>2023-11-19T11:08:47Z</time>
      </trkpt>
      <trkpt lat="38.042944" lon="-1.214424">
        <ele>64.4</ele>
        <time>2023-11-19T11:09:04Z</time>
      </trkpt>
      <trkpt lat="38.042793" lon="-1.214550">
        <ele>65.2</ele>
        <time>2023-11-19T11:09:19Z</time>
      </trkpt>
      <trkpt lat="38.042658" lon="-1.214705">
        <ele>64.8</ele>
        <time>2023-11-19T11:09:33Z</time>
      </trkpt>
      <trkpt lat="38.042524" lon="-1.214868">
        <ele>65.5</ele>
        <time>2023-11-19T11:09:48Z</time>
      </trkpt>
      <trkpt lat="38.042384" lon="-1.215025">
        <ele>65.5</ele>
        <time>2023-11-19T11:10:02Z</time>
      </trkpt>
      <trkpt lat="38.042262" lon="-1.215194">
        <ele>65.5</ele>
        <time>2023-11-19T11:10:18Z</time>
      </trkpt>
      <trkpt lat="38.042134" lon="-1.215360">
        <ele>64.6</ele>
        <time>2023-11-19T11:10:33Z</time>
      </trkpt>
      <trkpt lat="38.042004" lon="-1.215522">
        <ele>66.4</ele>
        <time>2023-11-19T11:10:48Z</time>
      </trkpt>
      <trkpt lat="38.041874" lon="-1.215691">
        <ele>65.5</ele>
        <time>2023-11-19T11:11:04Z</time>
      </trkpt>
      <trkpt lat="38.041739" lon="-1.215853">
        <ele>65.5</ele>
        <time>2023-11-19T11:11:21Z</time>
      </trkpt>
      <trkpt lat="38.041595" lon="-1.215995">
        <ele>62.9</ele>
        <time>2023-11-19T11:11:53Z</time>
      </trkpt>
      <trkpt lat="38.041466" lon="-1.216163">
        <ele>62.6</ele>
        <time>2023-11-19T11:12:35Z</time>
      </trkpt>
      <trkpt lat="38.041326" lon="-1.216334">
        <ele>61.5</ele>
        <time>2023-11-19T11:12:52Z</time>
      </trkpt>
      <trkpt lat="38.041213" lon="-1.216530">
        <ele>61.6</ele>
        <time>2023-11-19T11:13:08Z</time>
      </trkpt>
      <trkpt lat="38.041113" lon="-1.216721">
        <ele>63.3</ele>
        <time>2023-11-19T11:13:25Z</time>
      </trkpt>
      <trkpt lat="38.041009" lon="-1.216923">
        <ele>64.5</ele>
        <time>2023-11-19T11:13:40Z</time>
      </trkpt>
      <trkpt lat="38.040922" lon="-1.217124">
        <ele>62.8</ele>
        <time>2023-11-19T11:13:55Z</time>
      </trkpt>
      <trkpt lat="38.040839" lon="-1.217328">
        <ele>63.5</ele>
        <time>2023-11-19T11:14:11Z</time>
      </trkpt>
      <trkpt lat="38.040770" lon="-1.217544">
        <ele>64.8</ele>
        <time>2023-11-19T11:14:25Z</time>
      </trkpt>
      <trkpt lat="38.040709" lon="-1.217775">
        <ele>65.5</ele>
        <time>2023-11-19T11:14:40Z</time>
      </trkpt>
      <trkpt lat="38.040658" lon="-1.217997">
        <ele>65.5</ele>
        <time>2023-11-19T11:14:55Z</time>
      </trkpt>
      <trkpt lat="38.040596" lon="-1.218213">
        <ele>64.6</ele>
        <time>2023-11-19T11:15:10Z</time>
      </trkpt>
      <trkpt lat="38.040563" lon="-1.218442">
        <ele>64.8</ele>
        <time>2023-11-19T11:15:24Z</time>
      </trkpt>
      <trkpt lat="38.040524" lon="-1.218677">
        <ele>66.5</ele>
        <time>2023-11-19T11:15:39Z</time>
      </trkpt>
      <trkpt lat="38.040486" lon="-1.218913">
        <ele>65.5</ele>
        <time>2023-11-19T11:15:55Z</time>
      </trkpt>
      <trkpt lat="38.040467" lon="-1.219148">
        <ele>65.8</ele>
        <time>2023-11-19T11:16:11Z</time>
      </trkpt>
      <trkpt lat="38.040434" lon="-1.219385">
        <ele>65.5</ele>
        <time>2023-11-19T11:16:26Z</time>
      </trkpt>
      <trkpt lat="38.040392" lon="-1.219610">
        <ele>64.6</ele>
        <time>2023-11-19T11:16:43Z</time>
      </trkpt>
      <trkpt lat="38.040335" lon="-1.219836">
        <ele>65.5</ele>
        <time>2023-11-19T11:16:59Z</time>
      </trkpt>
      <trkpt lat="38.040242" lon="-1.220038">
        <ele>64.6</ele>
        <time>2023-11-19T11:17:14Z</time>
      </trkpt>
      <trkpt lat="38.040136" lon="-1.220223">
        <ele>63.5</ele>
        <time>2023-11-19T11:17:29Z</time>
      </trkpt>
      <trkpt lat="38.040011" lon="-1.220390">
        <ele>63.2</ele>
        <time>2023-11-19T11:17:46Z</time>
      </trkpt>
      <trkpt lat="38.039899" lon="-1.220585">
        <ele>63.5</ele>
        <time>2023-11-19T11:18:00Z</time>
      </trkpt>
      <trkpt lat="38.039799" lon="-1.220784">
        <ele>64.5</ele>
        <time>2023-11-19T11:18:16Z</time>
      </trkpt>
      <trkpt lat="38.039696" lon="-1.220978">
        <ele>65.8</ele>
        <time>2023-11-19T11:18:31Z</time>
      </trkpt>
      <trkpt lat="38.039582" lon="-1.221158">
        <ele>64.6</ele>
        <time>2023-11-19T11:18:45Z</time>
      </trkpt>
      <trkpt lat="38.039475" lon="-1.221360">
        <ele>65.3</ele>
        <time>2023-11-19T11:19:00Z</time>
      </trkpt>
      <trkpt lat="38.039350" lon="-1.221537">
        <ele>66.2</ele>
        <time>2023-11-19T11:19:15Z</time>
      </trkpt>
      <trkpt lat="38.039221" lon="-1.221713">
        <ele>66.4</ele>
        <time>2023-11-19T11:19:30Z</time>
      </trkpt>
      <trkpt lat="38.039110" lon="-1.221909">
        <ele>66.5</ele>
        <time>2023-11-19T11:19:45Z</time>
      </trkpt>
      <trkpt lat="38.038986" lon="-1.222078">
        <ele>65.8</ele>
        <time>2023-11-19T11:20:01Z</time>
      </trkpt>
      <trkpt lat="38.038889" lon="-1.222289">
        <ele>67.5</ele>
        <time>2023-11-19T11:20:16Z</time>
      </trkpt>
      <trkpt lat="38.038788" lon="-1.222481">
        <ele>66.5</ele>
        <time>2023-11-19T11:20:31Z</time>
      </trkpt>
      <trkpt lat="38.038681" lon="-1.222672">
        <ele>66.5</ele>
        <time>2023-11-19T11:20:46Z</time>
      </trkpt>
      <trkpt lat="38.038576" lon="-1.222863">
        <ele>67.5</ele>
        <time>2023-11-19T11:21:01Z</time>
      </trkpt>
      <trkpt lat="38.038458" lon="-1.223051">
        <ele>67.8</ele>
        <time>2023-11-19T11:21:16Z</time>
      </trkpt>
      <trkpt lat="38.038307" lon="-1.223203">
        <ele>65.5</ele>
        <time>2023-11-19T11:21:39Z</time>
      </trkpt>
      <trkpt lat="38.038179" lon="-1.223369">
        <ele>64.6</ele>
        <time>2023-11-19T11:21:55Z</time>
      </trkpt>
      <trkpt lat="38.038007" lon="-1.223468">
        <ele>65.5</ele>
        <time>2023-11-19T11:22:16Z</time>
      </trkpt>
      <trkpt lat="38.037827" lon="-1.223528">
        <ele>63.3</ele>
        <time>2023-11-19T11:22:45Z</time>
      </trkpt>
      <trkpt lat="38.037645" lon="-1.223582">
        <ele>61.5</ele>
        <time>2023-11-19T11:23:02Z</time>
      </trkpt>
      <trkpt lat="38.037465" lon="-1.223599">
        <ele>61.5</ele>
        <time>2023-11-19T11:23:18Z</time>
      </trkpt>
      <trkpt lat="38.037278" lon="-1.223591">
        <ele>62.8</ele>
        <time>2023-11-19T11:23:34Z</time>
      </trkpt>
      <trkpt lat="38.037088" lon="-1.223537">
        <ele>60.3</ele>
        <time>2023-11-19T11:23:50Z</time>
      </trkpt>
      <trkpt lat="38.036909" lon="-1.223470">
        <ele>63.5</ele>
        <time>2023-11-19T11:24:05Z</time>
      </trkpt>
      <trkpt lat="38.036738" lon="-1.223389">
        <ele>65.2</ele>
        <time>2023-11-19T11:24:21Z</time>
      </trkpt>
      <trkpt lat="38.036563" lon="-1.223332">
        <ele>65.5</ele>
        <time>2023-11-19T11:24:36Z</time>
      </trkpt>
      <trkpt lat="38.036377" lon="-1.223276">
        <ele>64.5</ele>
        <time>2023-11-19T11:24:53Z</time>
      </trkpt>
      <trkpt lat="38.036203" lon="-1.223214">
        <ele>64.5</ele>
        <time>2023-11-19T11:25:08Z</time>
      </trkpt>
      <trkpt lat="38.036028" lon="-1.223152">
        <ele>64.5</ele>
        <time>2023-11-19T11:25:23Z</time>
      </trkpt>
      <trkpt lat="38.035841" lon="-1.223138">
        <ele>62.9</ele>
        <time>2023-11-19T11:25:41Z</time>
      </trkpt>
      <trkpt lat="38.035656" lon="-1.223156">
        <ele>61.6</ele>
        <time>2023-11-19T11:25:56Z</time>
      </trkpt>
      <trkpt lat="38.035474" lon="-1.223198">
        <ele>61.5</ele>
        <time>2023-11-19T11:26:10Z</time>
      </trkpt>
      <trkpt lat="38.035293" lon="-1.223248">
        <ele>61.5</ele>
        <time>2023-11-19T11:26:26Z</time>
      </trkpt>
      <trkpt lat="38.035114" lon="-1.223262">
        <ele>61.2</ele>
        <time>2023-11-19T11:26:41Z</time>
      </trkpt>
      <trkpt lat="38.034927" lon="-1.223220">
        <ele>62.5</ele>
        <time>2023-11-19T11:27:02Z</time>
      </trkpt>
      <trkpt lat="38.034747" lon="-1.223205">
        <ele>60.5</ele>
        <time>2023-11-19T11:27:20Z</time>
      </trkpt>
      <trkpt lat="38.034570" lon="-1.223168">
        <ele>61.5</ele>
        <time>2023-11-19T11:27:35Z</time>
      </trkpt>
      <trkpt lat="38.034384" lon="-1.223119">
        <ele>62.4</ele>
        <time>2023-11-19T11:27:51Z</time>
      </trkpt>
      <trkpt lat="38.034200" lon="-1.223084">
        <ele>64.5</ele>
        <time>2023-11-19T11:28:07Z</time>
      </trkpt>
      <trkpt lat="38.034017" lon="-1.223054">
        <ele>64.8</ele>
        <time>2023-11-19T11:28:22Z</time>
      </trkpt>
      <trkpt lat="38.033830" lon="-1.223012">
        <ele>66.5</ele>
        <time>2023-11-19T11:28:40Z</time>
      </trkpt>
      <trkpt lat="38.033659" lon="-1.222939">
        <ele>65.6</ele>
        <time>2023-11-19T11:28:54Z</time>
      </trkpt>
      <trkpt lat="38.033596" lon="-1.222724">
        <ele>64.5</ele>
        <time>2023-11-19T11:29:11Z</time>
      </trkpt>
      <trkpt lat="38.033598" lon="-1.222484">
        <ele>62.5</ele>
        <time>2023-11-19T11:29:27Z</time>
      </trkpt>
      <trkpt lat="38.033605" lon="-1.222251">
        <ele>61.6</ele>
        <time>2023-11-19T11:29:44Z</time>
      </trkpt>
      <trkpt lat="38.033615" lon="-1.222012">
        <ele>59.8</ele>
        <time>2023-11-19T11:30:00Z</time>
      </trkpt>
      <trkpt lat="38.033628" lon="-1.221779">
        <ele>60.5</ele>
        <time>2023-11-19T11:30:15Z</time>
      </trkpt>
      <trkpt lat="38.033662" lon="-1.221544">
        <ele>61.5</ele>
        <time>2023-11-19T11:30:31Z</time>
      </trkpt>
      <trkpt lat="38.033729" lon="-1.221327">
        <ele>63.2</ele>
        <time>2023-11-19T11:30:48Z</time>
      </trkpt>
      <trkpt lat="38.033790" lon="-1.221095">
        <ele>63.5</ele>
        <time>2023-11-19T11:31:04Z</time>
      </trkpt>
      <trkpt lat="38.033870" lon="-1.220883">
        <ele>64.5</ele>
        <time>2023-11-19T11:31:19Z</time>
      </trkpt>
      <trkpt lat="38.033975" lon="-1.220692">
        <ele>64.5</ele>
        <time>2023-11-19T11:31:34Z</time>
      </trkpt>
      <trkpt lat="38.034078" lon="-1.220491">
        <ele>64.8</ele>
        <time>2023-11-19T11:31:51Z</time>
      </trkpt>
      <trkpt lat="38.034178" lon="-1.220289">
        <ele>64.5</ele>
        <time>2023-11-19T11:32:07Z</time>
      </trkpt>
      <trkpt lat="38.034278" lon="-1.220092">
        <ele>64.5</ele>
        <time>2023-11-19T11:32:22Z</time>
      </trkpt>
      <trkpt lat="38.034391" lon="-1.219899">
        <ele>64.5</ele>
        <time>2023-11-19T11:32:39Z</time>
      </trkpt>
      <trkpt lat="38.034467" lon="-1.219688">
        <ele>63.5</ele>
        <time>2023-11-19T11:32:54Z</time>
      </trkpt>
      <trkpt lat="38.034545" lon="-1.219481">
        <ele>63.5</ele>
        <time>2023-11-19T11:33:09Z</time>
      </trkpt>
      <trkpt lat="38.034635" lon="-1.219269">
        <ele>65.5</ele>
        <time>2023-11-19T11:33:26Z</time>
      </trkpt>
      <trkpt lat="38.034712" lon="-1.219053">
        <ele>62.5</ele>
        <time>2023-11-19T11:33:42Z</time>
      </trkpt>
      <trkpt lat="38.034800" lon="-1.218849">
        <ele>64.5</ele>
        <time>2023-11-19T11:34:01Z</time>
      </trkpt>
      <trkpt lat="38.034851" lon="-1.218620">
        <ele>63.5</ele>
        <time>2023-11-19T11:34:15Z</time>
      </trkpt>
      <trkpt lat="38.034900" lon="-1.218398">
        <ele>64.5</ele>
        <time>2023-11-19T11:34:30Z</time>
      </trkpt>
      <trkpt lat="38.034976" lon="-1.218180">
        <ele>65.6</ele>
        <time>2023-11-19T11:34:47Z</time>
      </trkpt>
      <trkpt lat="38.035064" lon="-1.217973">
        <ele>65.5</ele>
        <time>2023-11-19T11:35:02Z</time>
      </trkpt>
      <trkpt lat="38.035111" lon="-1.217748">
        <ele>64.5</ele>
        <time>2023-11-19T11:35:18Z</time>
      </trkpt>
      <trkpt lat="38.035161" lon="-1.217515">
        <ele>64.4</ele>
        <time>2023-11-19T11:35:34Z</time>
      </trkpt>
      <trkpt lat="38.035109" lon="-1.217290">
        <ele>63.5</ele>
        <time>2023-11-19T11:35:51Z</time>
      </trkpt>
      <trkpt lat="38.034996" lon="-1.217098">
        <ele>64.5</ele>
        <time>2023-11-19T11:36:06Z</time>
      </trkpt>
      <trkpt lat="38.034878" lon="-1.216921">
        <ele>59.8</ele>
        <time>2023-11-19T11:36:21Z</time>
      </trkpt>
      <trkpt lat="38.034753" lon="-1.216744">
        <ele>60.5</ele>
        <time>2023-11-19T11:36:37Z</time>
      </trkpt>
      <trkpt lat="38.034630" lon="-1.216564">
        <ele>61.4</ele>
        <time>2023-11-19T11:36:53Z</time>
      </trkpt>
      <trkpt lat="38.034511" lon="-1.216385">
        <ele>59.5</ele>
        <time>2023-11-19T11:37:09Z</time>
      </trkpt>
      <trkpt lat="38.034383" lon="-1.216212">
        <ele>60.2</ele>
        <time>2023-11-19T11:37:25Z</time>
      </trkpt>
      <trkpt lat="38.034246" lon="-1.216046">
        <ele>59.5</ele>
        <time>2023-11-19T11:37:39Z</time>
      </trkpt>
      <trkpt lat="38.034103" lon="-1.215897">
        <ele>59.5</ele>
        <time>2023-11-19T11:37:54Z</time>
      </trkpt>
      <trkpt lat="38.033959" lon="-1.215744">
        <ele>59.5</ele>
        <time>2023-11-19T11:38:10Z</time>
      </trkpt>
      <trkpt lat="38.033801" lon="-1.215590">
        <ele>59.5</ele>
        <time>2023-11-19T11:38:27Z</time>
      </trkpt>
      <trkpt lat="38.033645" lon="-1.215461">
        <ele>58.5</ele>
        <time>2023-11-19T11:38:42Z</time>
      </trkpt>
      <trkpt lat="38.033499" lon="-1.215324">
        <ele>59.5</ele>
        <time>2023-11-19T11:38:57Z</time>
      </trkpt>
      <trkpt lat="38.033336" lon="-1.215217">
        <ele>60.5</ele>
        <time>2023-11-19T11:39:12Z</time>
      </trkpt>
      <trkpt lat="38.033159" lon="-1.215154">
        <ele>60.5</ele>
        <time>2023-11-19T11:39:27Z</time>
      </trkpt>
      <trkpt lat="38.032985" lon="-1.215094">
        <ele>60.5</ele>
        <time>2023-11-19T11:39:41Z</time>
      </trkpt>
      <trkpt lat="38.032818" lon="-1.215008">
        <ele>61.5</ele>
        <time>2023-11-19T11:39:56Z</time>
      </trkpt>
      <trkpt lat="38.032649" lon="-1.214928">
        <ele>60.5</ele>
        <time>2023-11-19T11:40:11Z</time>
      </trkpt>
      <trkpt lat="38.032483" lon="-1.214830">
        <ele>60.5</ele>
        <time>2023-11-19T11:40:25Z</time>
      </trkpt>
      <trkpt lat="38.032311" lon="-1.214762">
        <ele>58.5</ele>
        <time>2023-11-19T11:40:41Z</time>
      </trkpt>
      <trkpt lat="38.032126" lon="-1.214697">
        <ele>59.5</ele>
        <time>2023-11-19T11:40:56Z</time>
      </trkpt>
      <trkpt lat="38.031948" lon="-1.214659">
        <ele>59.5</ele>
        <time>2023-11-19T11:41:10Z</time>
      </trkpt>
      <trkpt lat="38.031761" lon="-1.214628">
        <ele>60.5</ele>
        <time>2023-11-19T11:41:27Z</time>
      </trkpt>
      <trkpt lat="38.031579" lon="-1.214674">
        <ele>61.6</ele>
        <time>2023-11-19T11:41:43Z</time>
      </trkpt>
      <trkpt lat="38.031408" lon="-1.214767">
        <ele>62.6</ele>
        <time>2023-11-19T11:41:58Z</time>
      </trkpt>
      <trkpt lat="38.031264" lon="-1.214919">
        <ele>60.7</ele>
        <time>2023-11-19T11:42:14Z</time>
      </trkpt>
      <trkpt lat="38.031125" lon="-1.215069">
        <ele>60.6</ele>
        <time>2023-11-19T11:42:55Z</time>
      </trkpt>
      <trkpt lat="38.030996" lon="-1.215236">
        <ele>61.5</ele>
        <time>2023-11-19T11:43:09Z</time>
      </trkpt>
      <trkpt lat="38.030883" lon="-1.215426">
        <ele>62.5</ele>
        <time>2023-11-19T11:43:23Z</time>
      </trkpt>
      <trkpt lat="38.030797" lon="-1.215632">
        <ele>64.5</ele>
        <time>2023-11-19T11:43:38Z</time>
      </trkpt>
      <trkpt lat="38.030691" lon="-1.215830">
        <ele>63.5</ele>
        <time>2023-11-19T11:43:54Z</time>
      </trkpt>
      <trkpt lat="38.030551" lon="-1.215979">
        <ele>60.8</ele>
        <time>2023-11-19T11:44:10Z</time>
      </trkpt>
      <trkpt lat="38.030408" lon="-1.216128">
        <ele>57.5</ele>
        <time>2023-11-19T11:44:26Z</time>
      </trkpt>
      <trkpt lat="38.030269" lon="-1.216283">
        <ele>57.8</ele>
        <time>2023-11-19T11:44:41Z</time>
      </trkpt>
      <trkpt lat="38.030125" lon="-1.216434">
        <ele>57.5</ele>
        <time>2023-11-19T11:44:57Z</time>
      </trkpt>
      <trkpt lat="38.029948" lon="-1.216532">
        <ele>57.5</ele>
        <time>2023-11-19T11:45:12Z</time>
      </trkpt>
      <trkpt lat="38.029775" lon="-1.216630">
        <ele>60.4</ele>
        <time>2023-11-19T11:45:28Z</time>
      </trkpt>
      <trkpt lat="38.029603" lon="-1.216718">
        <ele>59.5</ele>
        <time>2023-11-19T11:45:45Z</time>
      </trkpt>
      <trkpt lat="38.029436" lon="-1.216811">
        <ele>58.6</ele>
        <time>2023-11-19T11:46:01Z</time>
      </trkpt>
      <trkpt lat="38.029273" lon="-1.216932">
        <ele>58.5</ele>
        <time>2023-11-19T11:46:16Z</time>
      </trkpt>
      <trkpt lat="38.029115" lon="-1.217056">
        <ele>59.2</ele>
        <time>2023-11-19T11:46:31Z</time>
      </trkpt>
      <trkpt lat="38.028957" lon="-1.217180">
        <ele>59.4</ele>
        <time>2023-11-19T11:46:50Z</time>
      </trkpt>
      <trkpt lat="38.028783" lon="-1.217267">
        <ele>59.6</ele>
        <time>2023-11-19T11:47:05Z</time>
      </trkpt>
      <trkpt lat="38.028605" lon="-1.217323">
        <ele>59.6</ele>
        <time>2023-11-19T11:47:20Z</time>
      </trkpt>
      <trkpt lat="38.028424" lon="-1.217361">
        <ele>59.5</ele>
        <time>2023-11-19T11:47:35Z</time>
      </trkpt>
      <trkpt lat="38.028246" lon="-1.217403">
        <ele>60.5</ele>
        <time>2023-11-19T11:47:49Z</time>
      </trkpt>
      <trkpt lat="38.028055" lon="-1.217420">
        <ele>58.5</ele>
        <time>2023-11-19T11:48:06Z</time>
      </trkpt>
      <trkpt lat="38.027863" lon="-1.217429">
        <ele>56.5</ele>
        <time>2023-11-19T11:48:22Z</time>
      </trkpt>
      <trkpt lat="38.027676" lon="-1.217460">
        <ele>57.5</ele>
        <time>2023-11-19T11:48:36Z</time>
      </trkpt>
      <trkpt lat="38.027487" lon="-1.217456">
        <ele>57.5</ele>
        <time>2023-11-19T11:48:51Z</time>
      </trkpt>
      <trkpt lat="38.027303" lon="-1.217422">
        <ele>57.5</ele>
        <time>2023-11-19T11:49:06Z</time>
      </trkpt>
      <trkpt lat="38.027124" lon="-1.217378">
        <ele>56.5</ele>
        <time>2023-11-19T11:49:23Z</time>
      </trkpt>
      <trkpt lat="38.026945" lon="-1.217314">
        <ele>55.5</ele>
        <time>2023-11-19T11:49:36Z</time>
      </trkpt>
      <trkpt lat="38.026769" lon="-1.217255">
        <ele>57.5</ele>
        <time>2023-11-19T11:49:51Z</time>
      </trkpt>
      <trkpt lat="38.026590" lon="-1.217157">
        <ele>57.5</ele>
        <time>2023-11-19T11:50:06Z</time>
      </trkpt>
      <trkpt lat="38.026428" lon="-1.217050">
        <ele>57.2</ele>
        <time>2023-11-19T11:50:21Z</time>
      </trkpt>
      <trkpt lat="38.026274" lon="-1.216916">
        <ele>57.5</ele>
        <time>2023-11-19T11:50:38Z</time>
      </trkpt>
      <trkpt lat="38.026146" lon="-1.216740">
        <ele>58.5</ele>
        <time>2023-11-19T11:50:53Z</time>
      </trkpt>
      <trkpt lat="38.026002" lon="-1.216588">
        <ele>57.6</ele>
        <time>2023-11-19T11:51:08Z</time>
      </trkpt>
      <trkpt lat="38.025857" lon="-1.216447">
        <ele>56.5</ele>
        <time>2023-11-19T11:51:22Z</time>
      </trkpt>
      <trkpt lat="38.025725" lon="-1.216287">
        <ele>56.5</ele>
        <time>2023-11-19T11:51:39Z</time>
      </trkpt>
      <trkpt lat="38.025599" lon="-1.216121">
        <ele>56.2</ele>
        <time>2023-11-19T11:51:54Z</time>
      </trkpt>
      <trkpt lat="38.025468" lon="-1.215942">
        <ele>57.2</ele>
        <time>2023-11-19T11:52:09Z</time>
      </trkpt>
      <trkpt lat="38.025357" lon="-1.215743">
        <ele>57.5</ele>
        <time>2023-11-19T11:52:25Z</time>
      </trkpt>
      <trkpt lat="38.025245" lon="-1.215552">
        <ele>58.5</ele>
        <time>2023-11-19T11:52:40Z</time>
      </trkpt>
      <trkpt lat="38.025151" lon="-1.215357">
        <ele>60.5</ele>
        <time>2023-11-19T11:52:58Z</time>
      </trkpt>
      <trkpt lat="38.025042" lon="-1.215171">
        <ele>59.5</ele>
        <time>2023-11-19T11:53:14Z</time>
      </trkpt>
      <trkpt lat="38.024927" lon="-1.214981">
        <ele>62.3</ele>
        <time>2023-11-19T11:53:29Z</time>
      </trkpt>
      <trkpt lat="38.024795" lon="-1.214821">
        <ele>61.6</ele>
        <time>2023-11-19T11:53:45Z</time>
      </trkpt>
      <trkpt lat="38.024671" lon="-1.214649">
        <ele>59.5</ele>
        <time>2023-11-19T11:54:00Z</time>
      </trkpt>
      <trkpt lat="38.024530" lon="-1.214507">
        <ele>58.9</ele>
        <time>2023-11-19T11:54:17Z</time>
      </trkpt>
      <trkpt lat="38.024398" lon="-1.214346">
        <ele>58.5</ele>
        <time>2023-11-19T11:54:34Z</time>
      </trkpt>
      <trkpt lat="38.024254" lon="-1.214207">
        <ele>58.2</ele>
        <time>2023-11-19T11:54:50Z</time>
      </trkpt>
      <trkpt lat="38.024114" lon="-1.214057">
        <ele>58.5</ele>
        <time>2023-11-19T11:55:08Z</time>
      </trkpt>
      <trkpt lat="38.024006" lon="-1.213962">
        <ele>56.5</ele>
        <time>2023-11-19T11:56:52Z</time>
      </trkpt>
      <trkpt lat="38.023860" lon="-1.213896">
        <ele>58.5</ele>
        <time>2023-11-19T12:02:00Z</time>
      </trkpt>
      <trkpt lat="38.023747" lon="-1.213703">
        <ele>58.2</ele>
        <time>2023-11-19T12:02:18Z</time>
      </trkpt>
      <trkpt lat="38.023612" lon="-1.213535">
        <ele>58.5</ele>
        <time>2023-11-19T12:02:39Z</time>
      </trkpt>
      <trkpt lat="38.023484" lon="-1.213363">
        <ele>58.5</ele>
        <time>2023-11-19T12:02:57Z</time>
      </trkpt>
      <trkpt lat="38.023343" lon="-1.213211">
        <ele>59.5</ele>
        <time>2023-11-19T12:03:15Z</time>
      </trkpt>
      <trkpt lat="38.023213" lon="-1.213051">
        <ele>58.5</ele>
        <time>2023-11-19T12:03:35Z</time>
      </trkpt>
      <trkpt lat="38.023093" lon="-1.212870">
        <ele>59.2</ele>
        <time>2023-11-19T12:03:52Z</time>
      </trkpt>
      <trkpt lat="38.022940" lon="-1.212735">
        <ele>59.8</ele>
        <time>2023-11-19T12:04:11Z</time>
      </trkpt>
      <trkpt lat="38.022793" lon="-1.212578">
        <ele>59.5</ele>
        <time>2023-11-19T12:05:15Z</time>
      </trkpt>
      <trkpt lat="38.022700" lon="-1.212383">
        <ele>58.5</ele>
        <time>2023-11-19T12:05:32Z</time>
      </trkpt>
      <trkpt lat="38.022548" lon="-1.212250">
        <ele>58.6</ele>
        <time>2023-11-19T12:06:07Z</time>
      </trkpt>
      <trkpt lat="38.022420" lon="-1.212065">
        <ele>57.6</ele>
        <time>2023-11-19T12:06:23Z</time>
      </trkpt>
      <trkpt lat="38.022303" lon="-1.211889">
        <ele>58.5</ele>
        <time>2023-11-19T12:06:37Z</time>
      </trkpt>
      <trkpt lat="38.022177" lon="-1.211713">
        <ele>61.4</ele>
        <time>2023-11-19T12:06:57Z</time>
      </trkpt>
      <trkpt lat="38.022053" lon="-1.211544">
        <ele>59.7</ele>
        <time>2023-11-19T12:07:15Z</time>
      </trkpt>
      <trkpt lat="38.021925" lon="-1.211365">
        <ele>57.5</ele>
        <time>2023-11-19T12:07:30Z</time>
      </trkpt>
      <trkpt lat="38.021805" lon="-1.211185">
        <ele>61.2</ele>
        <time>2023-11-19T12:07:46Z</time>
      </trkpt>
      <trkpt lat="38.021711" lon="-1.210974">
        <ele>64.3</ele>
        <time>2023-11-19T12:07:59Z</time>
      </trkpt>
      <trkpt lat="38.021621" lon="-1.210773">
        <ele>62.5</ele>
        <time>2023-11-19T12:08:12Z</time>
      </trkpt>
      <trkpt lat="38.021484" lon="-1.210621">
        <ele>61.5</ele>
        <time>2023-11-19T12:08:25Z</time>
      </trkpt>
      <trkpt lat="38.021385" lon="-1.210425">
        <ele>62.5</ele>
        <time>2023-11-19T12:08:37Z</time>
      </trkpt>
      <trkpt lat="38.021268" lon="-1.210250">
        <ele>62.5</ele>
        <time>2023-11-19T12:08:49Z</time>
      </trkpt>
      <trkpt lat="38.021153" lon="-1.210068">
        <ele>61.5</ele>
        <time>2023-11-19T12:09:02Z</time>
      </trkpt>
      <trkpt lat="38.021087" lon="-1.209852">
        <ele>59.5</ele>
        <time>2023-11-19T12:09:14Z</time>
      </trkpt>
      <trkpt lat="38.020898" lon="-1.209834">
        <ele>60.5</ele>
        <time>2023-11-19T12:09:29Z</time>
      </trkpt>
      <trkpt lat="38.020709" lon="-1.209859">
        <ele>61.5</ele>
        <time>2023-11-19T12:09:41Z</time>
      </trkpt>
      <trkpt lat="38.020532" lon="-1.209914">
        <ele>62.5</ele>
        <time>2023-11-19T12:09:55Z</time>
      </trkpt>
      <trkpt lat="38.020393" lon="-1.210060">
        <ele>61.5</ele>
        <time>2023-11-19T12:10:29Z</time>
      </trkpt>
      <trkpt lat="38.020313" lon="-1.210270">
        <ele>62.3</ele>
        <time>2023-11-19T12:10:44Z</time>
      </trkpt>
      <trkpt lat="38.020257" lon="-1.210491">
        <ele>62.5</ele>
        <time>2023-11-19T12:11:03Z</time>
      </trkpt>
      <trkpt lat="38.020159" lon="-1.210683">
        <ele>64.6</ele>
        <time>2023-11-19T12:11:20Z</time>
      </trkpt>
      <trkpt lat="38.019992" lon="-1.210804">
        <ele>62.5</ele>
        <time>2023-11-19T12:11:35Z</time>
      </trkpt>
      <trkpt lat="38.020094" lon="-1.210994">
        <ele>63.5</ele>
        <time>2023-11-19T12:12:10Z</time>
      </trkpt>
      <trkpt lat="38.020049" lon="-1.211224">
        <ele>63.2</ele>
        <time>2023-11-19T12:12:27Z</time>
      </trkpt>
      <trkpt lat="38.019983" lon="-1.211455">
        <ele>63.4</ele>
        <time>2023-11-19T12:12:43Z</time>
      </trkpt>
      <trkpt lat="38.019886" lon="-1.211666">
        <ele>61.5</ele>
        <time>2023-11-19T12:13:04Z</time>
      </trkpt>
      <trkpt lat="38.019807" lon="-1.211877">
        <ele>60.5</ele>
        <time>2023-11-19T12:13:20Z</time>
      </trkpt>
      <trkpt lat="38.019722" lon="-1.212093">
        <ele>60.5</ele>
        <time>2023-11-19T12:13:38Z</time>
      </trkpt>
      <trkpt lat="38.019639" lon="-1.212306">
        <ele>60.4</ele>
        <time>2023-11-19T12:13:57Z</time>
      </trkpt>
      <trkpt lat="38.019585" lon="-1.212531">
        <ele>58.5</ele>
        <time>2023-11-19T12:14:15Z</time>
      </trkpt>
      <trkpt lat="38.019539" lon="-1.212756">
        <ele>57.6</ele>
        <time>2023-11-19T12:14:32Z</time>
      </trkpt>
      <trkpt lat="38.019484" lon="-1.212982">
        <ele>56.5</ele>
        <time>2023-11-19T12:14:49Z</time>
      </trkpt>
      <trkpt lat="38.019442" lon="-1.213209">
        <ele>56.6</ele>
        <time>2023-11-19T12:15:05Z</time>
      </trkpt>
      <trkpt lat="38.019394" lon="-1.213442">
        <ele>57.5</ele>
        <time>2023-11-19T12:15:22Z</time>
      </trkpt>
      <trkpt lat="38.019372" lon="-1.213671">
        <ele>56.8</ele>
        <time>2023-11-19T12:15:38Z</time>
      </trkpt>
      <trkpt lat="38.019372" lon="-1.213915">
        <ele>57.5</ele>
        <time>2023-11-19T12:15:54Z</time>
      </trkpt>
      <trkpt lat="38.019374" lon="-1.214145">
        <ele>58.5</ele>
        <time>2023-11-19T12:16:11Z</time>
      </trkpt>
      <trkpt lat="38.019391" lon="-1.214378">
        <ele>55.8</ele>
        <time>2023-11-19T12:16:29Z</time>
      </trkpt>
      <trkpt lat="38.019424" lon="-1.214609">
        <ele>57.5</ele>
        <time>2023-11-19T12:16:45Z</time>
      </trkpt>
      <trkpt lat="38.019470" lon="-1.214834">
        <ele>60.2</ele>
        <time>2023-11-19T12:17:00Z</time>
      </trkpt>
      <trkpt lat="38.019531" lon="-1.215062">
        <ele>61.5</ele>
        <time>2023-11-19T12:17:17Z</time>
      </trkpt>
      <trkpt lat="38.019605" lon="-1.215288">
        <ele>63.5</ele>
        <time>2023-11-19T12:17:34Z</time>
      </trkpt>
      <trkpt lat="38.019659" lon="-1.215507">
        <ele>63.5</ele>
        <time>2023-11-19T12:17:49Z</time>
      </trkpt>
      <trkpt lat="38.019703" lon="-1.215733">
        <ele>62.5</ele>
        <time>2023-11-19T12:18:05Z</time>
      </trkpt>
      <trkpt lat="38.019792" lon="-1.215935">
        <ele>61.4</ele>
        <time>2023-11-19T12:18:22Z</time>
      </trkpt>
      <trkpt lat="38.019881" lon="-1.216138">
        <ele>61.5</ele>
        <time>2023-11-19T12:18:37Z</time>
      </trkpt>
      <trkpt lat="38.019966" lon="-1.216340">
        <ele>58.5</ele>
        <time>2023-11-19T12:18:54Z</time>
      </trkpt>
      <trkpt lat="38.020051" lon="-1.216547">
        <ele>58.2</ele>
        <time>2023-11-19T12:19:09Z</time>
      </trkpt>
      <trkpt lat="38.020102" lon="-1.216768">
        <ele>57.6</ele>
        <time>2023-11-19T12:19:24Z</time>
      </trkpt>
      <trkpt lat="38.020052" lon="-1.216989">
        <ele>58.5</ele>
        <time>2023-11-19T12:19:39Z</time>
      </trkpt>
      <trkpt lat="38.019878" lon="-1.217062">
        <ele>58.5</ele>
        <time>2023-11-19T12:19:53Z</time>
      </trkpt>
      <trkpt lat="38.019696" lon="-1.217037">
        <ele>59.5</ele>
        <time>2023-11-19T12:20:09Z</time>
      </trkpt>
      <trkpt lat="38.019517" lon="-1.217007">
        <ele>58.5</ele>
        <time>2023-11-19T12:20:26Z</time>
      </trkpt>
      <trkpt lat="38.019330" lon="-1.217017">
        <ele>59.8</ele>
        <time>2023-11-19T12:20:41Z</time>
      </trkpt>
      <trkpt lat="38.019150" lon="-1.217008">
        <ele>57.5</ele>
        <time>2023-11-19T12:20:57Z</time>
      </trkpt>
      <trkpt lat="38.018963" lon="-1.217004">
        <ele>57.5</ele>
        <time>2023-11-19T12:21:13Z</time>
      </trkpt>
      <trkpt lat="38.018778" lon="-1.217016">
        <ele>54.6</ele>
        <time>2023-11-19T12:21:29Z</time>
      </trkpt>
      <trkpt lat="38.018592" lon="-1.217026">
        <ele>52.5</ele>
        <time>2023-11-19T12:21:47Z</time>
      </trkpt>
      <trkpt lat="38.018413" lon="-1.217011">
        <ele>51.6</ele>
        <time>2023-11-19T12:22:02Z</time>
      </trkpt>
      <trkpt lat="38.018223" lon="-1.217034">
        <ele>52.5</ele>
        <time>2023-11-19T12:22:18Z</time>
      </trkpt>
      <trkpt lat="38.018036" lon="-1.217058">
        <ele>54.2</ele>
        <time>2023-11-19T12:22:34Z</time>
      </trkpt>
      <trkpt lat="38.017848" lon="-1.217063">
        <ele>56.4</ele>
        <time>2023-11-19T12:22:49Z</time>
      </trkpt>
      <trkpt lat="38.017660" lon="-1.217084">
        <ele>60.5</ele>
        <time>2023-11-19T12:23:03Z</time>
      </trkpt>
      <trkpt lat="38.017479" lon="-1.217104">
        <ele>58.9</ele>
        <time>2023-11-19T12:23:18Z</time>
      </trkpt>
      <trkpt lat="38.017288" lon="-1.217102">
        <ele>57.5</ele>
        <time>2023-11-19T12:23:35Z</time>
      </trkpt>
      <trkpt lat="38.017108" lon="-1.217141">
        <ele>56.5</ele>
        <time>2023-11-19T12:23:51Z</time>
      </trkpt>
      <trkpt lat="38.016921" lon="-1.217173">
        <ele>58.5</ele>
        <time>2023-11-19T12:24:06Z</time>
      </trkpt>
      <trkpt lat="38.016734" lon="-1.217201">
        <ele>58.5</ele>
        <time>2023-11-19T12:24:21Z</time>
      </trkpt>
      <trkpt lat="38.016548" lon="-1.217231">
        <ele>59.5</ele>
        <time>2023-11-19T12:24:37Z</time>
      </trkpt>
      <trkpt lat="38.016366" lon="-1.217284">
        <ele>58.6</ele>
        <time>2023-11-19T12:24:53Z</time>
      </trkpt>
      <trkpt lat="38.016185" lon="-1.217345">
        <ele>54.5</ele>
        <time>2023-11-19T12:25:09Z</time>
      </trkpt>
      <trkpt lat="38.016015" lon="-1.217421">
        <ele>54.5</ele>
        <time>2023-11-19T12:25:23Z</time>
      </trkpt>
      <trkpt lat="38.015838" lon="-1.217506">
        <ele>56.5</ele>
        <time>2023-11-19T12:25:40Z</time>
      </trkpt>
      <trkpt lat="38.015666" lon="-1.217587">
        <ele>58.6</ele>
        <time>2023-11-19T12:25:53Z</time>
      </trkpt>
      <trkpt lat="38.015500" lon="-1.217691">
        <ele>59.5</ele>
        <time>2023-11-19T12:26:08Z</time>
      </trkpt>
      <trkpt lat="38.015336" lon="-1.217796">
        <ele>62.4</ele>
        <time>2023-11-19T12:26:23Z</time>
      </trkpt>
      <trkpt lat="38.015161" lon="-1.217874">
        <ele>62.6</ele>
        <time>2023-11-19T12:26:38Z</time>
      </trkpt>
      <trkpt lat="38.015001" lon="-1.217986">
        <ele>62.5</ele>
        <time>2023-11-19T12:26:55Z</time>
      </trkpt>
      <trkpt lat="38.014824" lon="-1.218070">
        <ele>60.5</ele>
        <time>2023-11-19T12:27:11Z</time>
      </trkpt>
      <trkpt lat="38.014654" lon="-1.218162">
        <ele>62.4</ele>
        <time>2023-11-19T12:27:27Z</time>
      </trkpt>
      <trkpt lat="38.014484" lon="-1.218248">
        <ele>64.2</ele>
        <time>2023-11-19T12:27:41Z</time>
      </trkpt>
      <trkpt lat="38.014315" lon="-1.218355">
        <ele>62.5</ele>
        <time>2023-11-19T12:27:57Z</time>
      </trkpt>
      <trkpt lat="38.014129" lon="-1.218420">
        <ele>63.5</ele>
        <time>2023-11-19T12:28:10Z</time>
      </trkpt>
      <trkpt lat="38.013958" lon="-1.218528">
        <ele>64.5</ele>
        <time>2023-11-19T12:28:25Z</time>
      </trkpt>
      <trkpt lat="38.013792" lon="-1.218637">
        <ele>64.5</ele>
        <time>2023-11-19T12:28:40Z</time>
      </trkpt>
      <trkpt lat="38.013627" lon="-1.218742">
        <ele>63.5</ele>
        <time>2023-11-19T12:28:56Z</time>
      </trkpt>
      <trkpt lat="38.013459" lon="-1.218845">
        <ele>62.8</ele>
        <time>2023-11-19T12:29:11Z</time>
      </trkpt>
      <trkpt lat="38.013286" lon="-1.218936">
        <ele>64.5</ele>
        <time>2023-11-19T12:29:26Z</time>
      </trkpt>
      <trkpt lat="38.013122" lon="-1.219045">
        <ele>64.5</ele>
        <time>2023-11-19T12:29:41Z</time>
      </trkpt>
      <trkpt lat="38.012944" lon="-1.219075">
        <ele>62.9</ele>
        <time>2023-11-19T12:29:55Z</time>
      </trkpt>
      <trkpt lat="38.012789" lon="-1.218958">
        <ele>60.8</ele>
        <time>2023-11-19T12:30:11Z</time>
      </trkpt>
      <trkpt lat="38.012659" lon="-1.218783">
        <ele>60.5</ele>
        <time>2023-11-19T12:30:28Z</time>
      </trkpt>
      <trkpt lat="38.012541" lon="-1.218596">
        <ele>59.5</ele>
        <time>2023-11-19T12:30:48Z</time>
      </trkpt>
      <trkpt lat="38.012425" lon="-1.218405">
        <ele>56.5</ele>
        <time>2023-11-19T12:31:06Z</time>
      </trkpt>
      <trkpt lat="38.012351" lon="-1.218189">
        <ele>56.2</ele>
        <time>2023-11-19T12:31:34Z</time>
      </trkpt>
      <trkpt lat="38.012322" lon="-1.217946">
        <ele>55.8</ele>
        <time>2023-11-19T12:31:56Z</time>
      </trkpt>
      <trkpt lat="38.012379" lon="-1.217727">
        <ele>58.5</ele>
        <time>2023-11-19T12:32:12Z</time>
      </trkpt>
      <trkpt lat="38.012463" lon="-1.217520">
        <ele>61.2</ele>
        <time>2023-11-19T12:32:31Z</time>
      </trkpt>
      <trkpt lat="38.012558" lon="-1.217318">
        <ele>60.5</ele>
        <time>2023-11-19T12:32:47Z</time>
      </trkpt>
      <trkpt lat="38.012652" lon="-1.217114">
        <ele>62.5</ele>
        <time>2023-11-19T12:33:03Z</time>
      </trkpt>
      <trkpt lat="38.012718" lon="-1.216894">
        <ele>61.8</ele>
        <time>2023-11-19T12:33:21Z</time>
      </trkpt>
      <trkpt lat="38.012775" lon="-1.216666">
        <ele>60.5</ele>
        <time>2023-11-19T12:33:38Z</time>
      </trkpt>
      <trkpt lat="38.012846" lon="-1.216456">
        <ele>60.5</ele>
        <time>2023-11-19T12:33:55Z</time>
      </trkpt>
      <trkpt lat="38.012961" lon="-1.216274">
        <ele>62.4</ele>
        <time>2023-11-19T12:34:11Z</time>
      </trkpt>
      <trkpt lat="38.013059" lon="-1.216069">
        <ele>60.6</ele>
        <time>2023-11-19T12:34:28Z</time>
      </trkpt>
      <trkpt lat="38.013135" lon="-1.215859">
        <ele>60.5</ele>
        <time>2023-11-19T12:34:44Z</time>
      </trkpt>
      <trkpt lat="38.013203" lon="-1.215643">
        <ele>61.5</ele>
        <time>2023-11-19T12:35:01Z</time>
      </trkpt>
      <trkpt lat="38.013230" lon="-1.215416">
        <ele>60.8</ele>
        <time>2023-11-19T12:35:17Z</time>
      </trkpt>
      <trkpt lat="38.013230" lon="-1.215177">
        <ele>60.8</ele>
        <time>2023-11-19T12:35:32Z</time>
      </trkpt>
      <trkpt lat="38.013242" lon="-1.214947">
        <ele>60.5</ele>
        <time>2023-11-19T12:35:51Z</time>
      </trkpt>
      <trkpt lat="38.013232" lon="-1.214712">
        <ele>60.5</ele>
        <time>2023-11-19T12:36:08Z</time>
      </trkpt>
      <trkpt lat="38.013157" lon="-1.214494">
        <ele>58.6</ele>
        <time>2023-11-19T12:36:25Z</time>
      </trkpt>
      <trkpt lat="38.013011" lon="-1.214359">
        <ele>59.4</ele>
        <time>2023-11-19T12:36:40Z</time>
      </trkpt>
      <trkpt lat="38.012839" lon="-1.214262">
        <ele>61.5</ele>
        <time>2023-11-19T12:36:57Z</time>
      </trkpt>
      <trkpt lat="38.012657" lon="-1.214205">
        <ele>61.6</ele>
        <time>2023-11-19T12:37:14Z</time>
      </trkpt>
      <trkpt lat="38.012486" lon="-1.214138">
        <ele>61.5</ele>
        <time>2023-11-19T12:37:30Z</time>
      </trkpt>
      <trkpt lat="38.012312" lon="-1.214038">
        <ele>61.5</ele>
        <time>2023-11-19T12:37:54Z</time>
      </trkpt>
      <trkpt lat="38.012157" lon="-1.213911">
        <ele>61.5</ele>
        <time>2023-11-19T12:38:11Z</time>
      </trkpt>
      <trkpt lat="38.011980" lon="-1.213817">
        <ele>61.5</ele>
        <time>2023-11-19T12:38:27Z</time>
      </trkpt>
      <trkpt lat="38.011813" lon="-1.213708">
        <ele>60.5</ele>
        <time>2023-11-19T12:38:48Z</time>
      </trkpt>
      <trkpt lat="38.011647" lon="-1.213584">
        <ele>59.5</ele>
        <time>2023-11-19T12:39:12Z</time>
      </trkpt>
      <trkpt lat="38.011513" lon="-1.213418">
        <ele>59.6</ele>
        <time>2023-11-19T12:39:31Z</time>
      </trkpt>
      <trkpt lat="38.011430" lon="-1.213204">
        <ele>57.5</ele>
        <time>2023-11-19T12:40:19Z</time>
      </trkpt>
      <trkpt lat="38.011273" lon="-1.213081">
        <ele>59.7</ele>
        <time>2023-11-19T12:40:42Z</time>
      </trkpt>
      <trkpt lat="38.011087" lon="-1.213118">
        <ele>60.5</ele>
        <time>2023-11-19T12:40:56Z</time>
      </trkpt>
      <trkpt lat="38.010911" lon="-1.213189">
        <ele>61.8</ele>
        <time>2023-11-19T12:41:54Z</time>
      </trkpt>
      <trkpt lat="38.010803" lon="-1.213395">
        <ele>59.5</ele>
        <time>2023-11-19T12:42:11Z</time>
      </trkpt>
      <trkpt lat="38.010620" lon="-1.213458">
        <ele>61.5</ele>
        <time>2023-11-19T12:42:26Z</time>
      </trkpt>
      <trkpt lat="38.010451" lon="-1.213541">
        <ele>60.5</ele>
        <time>2023-11-19T12:42:45Z</time>
      </trkpt>
      <trkpt lat="38.010271" lon="-1.213593">
        <ele>61.5</ele>
        <time>2023-11-19T12:43:01Z</time>
      </trkpt>
      <trkpt lat="38.010085" lon="-1.213678">
        <ele>62.2</ele>
        <time>2023-11-19T12:43:18Z</time>
      </trkpt>
      <trkpt lat="38.009902" lon="-1.213701">
        <ele>60.8</ele>
        <time>2023-11-19T12:43:54Z</time>
      </trkpt>
      <trkpt lat="38.009734" lon="-1.213806">
        <ele>61.5</ele>
        <time>2023-11-19T12:44:11Z</time>
      </trkpt>
      <trkpt lat="38.009571" lon="-1.213930">
        <ele>61.5</ele>
        <time>2023-11-19T12:44:27Z</time>
      </trkpt>
      <trkpt lat="38.009414" lon="-1.214058">
        <ele>62.5</ele>
        <time>2023-11-19T12:44:44Z</time>
      </trkpt>
      <trkpt lat="38.009274" lon="-1.214212">
        <ele>62.5</ele>
        <time>2023-11-19T12:44:59Z</time>
      </trkpt>
      <trkpt lat="38.009126" lon="-1.214348">
        <ele>62.5</ele>
        <time>2023-11-19T12:45:15Z</time>
      </trkpt>
      <trkpt lat="38.008961" lon="-1.214455">
        <ele>62.5</ele>
        <time>2023-11-19T12:45:30Z</time>
      </trkpt>
      <trkpt lat="38.008800" lon="-1.214563">
        <ele>64.2</ele>
        <time>2023-11-19T12:45:44Z</time>
      </trkpt>
      <trkpt lat="38.008639" lon="-1.214668">
        <ele>62.5</ele>
        <time>2023-11-19T12:46:02Z</time>
      </trkpt>
      <trkpt lat="38.008472" lon="-1.214759">
        <ele>63.2</ele>
        <time>2023-11-19T12:46:16Z</time>
      </trkpt>
      <trkpt lat="38.008297" lon="-1.214842">
        <ele>62.6</ele>
        <time>2023-11-19T12:46:34Z</time>
      </trkpt>
      <trkpt lat="38.008134" lon="-1.214945">
        <ele>61.2</ele>
        <time>2023-11-19T12:46:52Z</time>
      </trkpt>
      <trkpt lat="38.007962" lon="-1.215021">
        <ele>61.5</ele>
        <time>2023-11-19T12:47:07Z</time>
      </trkpt>
      <trkpt lat="38.007791" lon="-1.215130">
        <ele>60.5</ele>
        <time>2023-11-19T12:47:23Z</time>
      </trkpt>
      <trkpt lat="38.007622" lon="-1.215229">
        <ele>60.5</ele>
        <time>2023-11-19T12:47:51Z</time>
      </trkpt>
      <trkpt lat="38.007459" lon="-1.215336">
        <ele>59.6</ele>
        <time>2023-11-19T12:48:10Z</time>
      </trkpt>
      <trkpt lat="38.007290" lon="-1.215444">
        <ele>60.5</ele>
        <time>2023-11-19T12:48:30Z</time>
      </trkpt>
      <trkpt lat="38.007124" lon="-1.215559">
        <ele>61.5</ele>
        <time>2023-11-19T12:48:49Z</time>
      </trkpt>
      <trkpt lat="38.006976" lon="-1.215700">
        <ele>59.5</ele>
        <time>2023-11-19T12:49:10Z</time>
      </trkpt>
      <trkpt lat="38.006830" lon="-1.215841">
        <ele>61.5</ele>
        <time>2023-11-19T12:49:31Z</time>
      </trkpt>
      <trkpt lat="38.006668" lon="-1.215958">
        <ele>60.5</ele>
        <time>2023-11-19T12:49:48Z</time>
      </trkpt>
      <trkpt lat="38.006515" lon="-1.216093">
        <ele>61.6</ele>
        <time>2023-11-19T12:50:06Z</time>
      </trkpt>
      <trkpt lat="38.006366" lon="-1.216229">
        <ele>60.8</ele>
        <time>2023-11-19T12:50:24Z</time>
      </trkpt>
      <trkpt lat="38.006221" lon="-1.216379">
        <ele>59.5</ele>
        <time>2023-11-19T12:50:43Z</time>
      </trkpt>
      <trkpt lat="38.006050" lon="-1.216490">
        <ele>60.5</ele>
        <time>2023-11-19T12:51:00Z</time>
      </trkpt>
      <trkpt lat="38.005899" lon="-1.216618">
        <ele>61.5</ele>
        <time>2023-11-19T12:51:58Z</time>
      </trkpt>
      <trkpt lat="38.005751" lon="-1.216747">
        <ele>61.5</ele>
        <time>2023-11-19T12:52:12Z</time>
      </trkpt>
      <trkpt lat="38.005590" lon="-1.216868">
        <ele>60.6</ele>
        <time>2023-11-19T12:52:25Z</time>
      </trkpt>
      <trkpt lat="38.005429" lon="-1.216980">
        <ele>59.6</ele>
        <time>2023-11-19T12:52:58Z</time>
      </trkpt>
      <trkpt lat="38.005253" lon="-1.217035">
        <ele>61.5</ele>
        <time>2023-11-19T12:53:12Z</time>
      </trkpt>
      <trkpt lat="38.005069" lon="-1.217085">
        <ele>62.5</ele>
        <time>2023-11-19T12:53:26Z</time>
      </trkpt>
      <trkpt lat="38.004882" lon="-1.217083">
        <ele>62.5</ele>
        <time>2023-11-19T12:53:39Z</time>
      </trkpt>
      <trkpt lat="38.004689" lon="-1.217073">
        <ele>62.5</ele>
        <time>2023-11-19T12:54:04Z</time>
      </trkpt>
      <trkpt lat="38.004508" lon="-1.217061">
        <ele>63.5</ele>
        <time>2023-11-19T12:54:19Z</time>
      </trkpt>
      <trkpt lat="38.004325" lon="-1.217131">
        <ele>60.6</ele>
        <time>2023-11-19T12:54:33Z</time>
      </trkpt>
      <trkpt lat="38.004140" lon="-1.217196">
        <ele>60.6</ele>
        <time>2023-11-19T12:54:46Z</time>
      </trkpt>
      <trkpt lat="38.003957" lon="-1.217200">
        <ele>63.2</ele>
        <time>2023-11-19T12:54:57Z</time>
      </trkpt>
      <trkpt lat="38.003765" lon="-1.217187">
        <ele>64.5</ele>
        <time>2023-11-19T12:55:11Z</time>
      </trkpt>
      <trkpt lat="38.003602" lon="-1.217076">
        <ele>62.6</ele>
        <time>2023-11-19T12:55:27Z</time>
      </trkpt>
      <trkpt lat="38.003426" lon="-1.216979">
        <ele>60.5</ele>
        <time>2023-11-19T12:55:59Z</time>
      </trkpt>
      <trkpt lat="38.003262" lon="-1.216882">
        <ele>61.5</ele>
        <time>2023-11-19T12:56:14Z</time>
      </trkpt>
      <trkpt lat="38.003083" lon="-1.216816">
        <ele>61.5</ele>
        <time>2023-11-19T12:56:31Z</time>
      </trkpt>
      <trkpt lat="38.002905" lon="-1.216727">
        <ele>60.5</ele>
        <time>2023-11-19T12:56:47Z</time>
      </trkpt>
      <trkpt lat="38.002722" lon="-1.216650">
        <ele>60.2</ele>
        <time>2023-11-19T12:57:04Z</time>
      </trkpt>
      <trkpt lat="38.002546" lon="-1.216596">
        <ele>62.2</ele>
        <time>2023-11-19T12:57:21Z</time>
      </trkpt>
      <trkpt lat="38.002362" lon="-1.216566">
        <ele>58.5</ele>
        <time>2023-11-19T12:57:41Z</time>
      </trkpt>
      <trkpt lat="38.002183" lon="-1.216498">
        <ele>61.2</ele>
        <time>2023-11-19T13:00:44Z</time>
      </trkpt>
      <trkpt lat="38.002004" lon="-1.216459">
        <ele>56.7</ele>
        <time>2023-11-19T13:01:02Z</time>
      </trkpt>
      <trkpt lat="38.001819" lon="-1.216417">
        <ele>57.5</ele>
        <time>2023-11-19T13:01:17Z</time>
      </trkpt>
      <trkpt lat="38.001632" lon="-1.216384">
        <ele>59.5</ele>
        <time>2023-11-19T13:01:31Z</time>
      </trkpt>
      <trkpt lat="38.001452" lon="-1.216319">
        <ele>59.6</ele>
        <time>2023-11-19T13:01:47Z</time>
      </trkpt>
      <trkpt lat="38.001277" lon="-1.216266">
        <ele>59.5</ele>
        <time>2023-11-19T13:02:02Z</time>
      </trkpt>
      <trkpt lat="38.001136" lon="-1.216122">
        <ele>58.2</ele>
        <time>2023-11-19T13:02:19Z</time>
      </trkpt>
      <trkpt lat="38.000971" lon="-1.216014">
        <ele>58.6</ele>
        <time>2023-11-19T13:02:33Z</time>
      </trkpt>
      <trkpt lat="38.000783" lon="-1.216000">
        <ele>59.6</ele>
        <time>2023-11-19T13:02:48Z</time>
      </trkpt>
      <trkpt lat="38.000602" lon="-1.216065">
        <ele>56.8</ele>
        <time>2023-11-19T13:03:03Z</time>
      </trkpt>
      <trkpt lat="38.000438" lon="-1.216176">
        <ele>56.5</ele>
        <time>2023-11-19T13:03:17Z</time>
      </trkpt>
      <trkpt lat="38.000284" lon="-1.216306">
        <ele>56.5</ele>
        <time>2023-11-19T13:03:33Z</time>
      </trkpt>
      <trkpt lat="38.000127" lon="-1.216439">
        <ele>56.8</ele>
        <time>2023-11-19T13:03:47Z</time>
      </trkpt>
      <trkpt lat="37.999992" lon="-1.216596">
        <ele>57.3</ele>
        <time>2023-11-19T13:04:02Z</time>
      </trkpt>
      <trkpt lat="37.999866" lon="-1.216764">
        <ele>59.6</ele>
        <time>2023-11-19T13:04:16Z</time>
      </trkpt>
      <trkpt lat="37.999732" lon="-1.216938">
        <ele>60.0</ele>
        <time>2023-11-19T13:04:31Z</time>
      </trkpt>
      <trkpt lat="37.999592" lon="-1.217098">
        <ele>60.7</ele>
        <time>2023-11-19T13:04:46Z</time>
      </trkpt>
      <trkpt lat="37.999400" lon="-1.217123">
        <ele>60.7</ele>
        <time>2023-11-19T13:05:06Z</time>
      </trkpt>
      <trkpt lat="37.999241" lon="-1.217014">
        <ele>58.0</ele>
        <time>2023-11-19T13:05:25Z</time>
      </trkpt>
      <trkpt lat="37.999206" lon="-1.216772">
        <ele>59.7</ele>
        <time>2023-11-19T13:05:38Z</time>
      </trkpt>
      <trkpt lat="37.999150" lon="-1.216546">
        <ele>61.7</ele>
        <time>2023-11-19T13:05:54Z</time>
      </trkpt>
      <trkpt lat="37.998967" lon="-1.216522">
        <ele>64.6</ele>
        <time>2023-11-19T13:08:49Z</time>
      </trkpt>
      <trkpt lat="37.998781" lon="-1.216515">
        <ele>64.0</ele>
        <time>2023-11-19T13:09:03Z</time>
      </trkpt>
      <trkpt lat="37.998609" lon="-1.216411">
        <ele>65.7</ele>
        <time>2023-11-19T13:09:18Z</time>
      </trkpt>
      <trkpt lat="37.998419" lon="-1.216432">
        <ele>62.3</ele>
        <time>2023-11-19T13:10:04Z</time>
      </trkpt>
      <trkpt lat="37.998243" lon="-1.216484">
        <ele>61.6</ele>
        <time>2023-11-19T13:10:19Z</time>
      </trkpt>
      <trkpt lat="37.998062" lon="-1.216496">
        <ele>61.7</ele>
        <time>2023-11-19T13:10:53Z</time>
      </trkpt>
      <trkpt lat="37.997883" lon="-1.216567">
        <ele>62.6</ele>
        <time>2023-11-19T13:11:12Z</time>
      </trkpt>
      <trkpt lat="37.997765" lon="-1.216742">
        <ele>64.9</ele>
        <time>2023-11-19T13:11:27Z</time>
      </trkpt>
      <trkpt lat="37.997612" lon="-1.216867">
        <ele>64.0</ele>
        <time>2023-11-19T13:11:42Z</time>
      </trkpt>
      <trkpt lat="37.997470" lon="-1.217019">
        <ele>62.7</ele>
        <time>2023-11-19T13:11:55Z</time>
      </trkpt>
      <trkpt lat="37.997381" lon="-1.217223">
        <ele>60.7</ele>
        <time>2023-11-19T13:12:09Z</time>
      </trkpt>
      <trkpt lat="37.997270" lon="-1.217411">
        <ele>53.8</ele>
        <time>2023-11-19T13:12:52Z</time>
      </trkpt>
      <trkpt lat="37.997239" lon="-1.217637">
        <ele>54.6</ele>
        <time>2023-11-19T13:13:12Z</time>
      </trkpt>
      <trkpt lat="37.997242" lon="-1.217868">
        <ele>60.9</ele>
        <time>2023-11-19T13:14:18Z</time>
      </trkpt>
      <trkpt lat="37.997257" lon="-1.218104">
        <ele>58.7</ele>
        <time>2023-11-19T13:14:31Z</time>
      </trkpt>
      <trkpt lat="37.997249" lon="-1.218341">
        <ele>54.9</ele>
        <time>2023-11-19T13:14:46Z</time>
      </trkpt>
      <trkpt lat="37.997284" lon="-1.218576">
        <ele>53.7</ele>
        <time>2023-11-19T13:14:58Z</time>
      </trkpt>
      <trkpt lat="37.997314" lon="-1.218819">
        <ele>54.5</ele>
        <time>2023-11-19T13:15:11Z</time>
      </trkpt>
      <trkpt lat="37.997255" lon="-1.219031">
        <ele>54.0</ele>
        <time>2023-11-19T13:15:43Z</time>
      </trkpt>
      <trkpt lat="37.997217" lon="-1.219245">
        <ele>53.3</ele>
        <time>2023-11-19T13:16:01Z</time>
      </trkpt>
      <trkpt lat="37.997217" lon="-1.219466">
        <ele>52.9</ele>
        <time>2023-11-19T13:16:30Z</time>
      </trkpt>
      <trkpt lat="37.997197" lon="-1.219242">
        <ele>55.6</ele>
        <time>2023-11-19T13:17:25Z</time>
      </trkpt>
      <trkpt lat="37.997220" lon="-1.219006">
        <ele>56.0</ele>
        <time>2023-11-19T13:17:55Z</time>
      </trkpt>
      <trkpt lat="37.997284" lon="-1.218785">
        <ele>55.7</ele>
        <time>2023-11-19T13:18:09Z</time>
      </trkpt>
      <trkpt lat="37.997255" lon="-1.218547">
        <ele>57.3</ele>
        <time>2023-11-19T13:18:23Z</time>
      </trkpt>
      <trkpt lat="37.997192" lon="-1.218381">
        <ele>59.0</ele>
        <time>2023-11-19T13:18:35Z</time>
      </trkpt>
      <trkpt lat="37.997115" lon="-1.218400">
        <ele>55.3</ele>
        <time>2024-01-14T07:10:13Z</time>
      </trkpt>
      <trkpt lat="37.997020" lon="-1.218428">
        <ele>53.7</ele>
        <time>2024-01-14T07:10:26Z</time>
      </trkpt>
      <trkpt lat="37.996839" lon="-1.218413">
        <ele>50.7</ele>
        <time>2024-01-14T07:10:41Z</time>
      </trkpt>
      <trkpt lat="37.996667" lon="-1.218337">
        <ele>47.3</ele>
        <time>2024-01-14T07:11:01Z</time>
      </trkpt>
      <trkpt lat="37.996489" lon="-1.218291">
        <ele>46.7</ele>
        <time>2024-01-14T07:11:15Z</time>
      </trkpt>
      <trkpt lat="37.996308" lon="-1.218253">
        <ele>49.6</ele>
        <time>2024-01-14T07:11:28Z</time>
      </trkpt>
      <trkpt lat="37.996137" lon="-1.218285">
        <ele>50.7</ele>
        <time>2024-01-14T07:11:43Z</time>
      </trkpt>
      <trkpt lat="37.995955" lon="-1.218268">
        <ele>48.7</ele>
        <time>2024-01-14T07:11:58Z</time>
      </trkpt>
      <trkpt lat="37.995771" lon="-1.218161">
        <ele>48.9</ele>
        <time>2024-01-14T07:12:16Z</time>
      </trkpt>
      <trkpt lat="37.995964" lon="-1.218199">
        <ele>55.6</ele>
        <time>2024-01-14T07:19:35Z</time>
      </trkpt>
      <trkpt lat="37.996120" lon="-1.218202">
        <ele>55.6</ele>
        <time>2024-01-14T07:19:47Z</time>
      </trkpt>
      <trkpt lat="37.996306" lon="-1.218202">
        <ele>55.7</ele>
        <time>2024-01-14T07:20:01Z</time>
      </trkpt>
      <trkpt lat="37.996484" lon="-1.218251">
        <ele>57.7</ele>
        <time>2024-01-14T07:20:15Z</time>
      </trkpt>
      <trkpt lat="37.996671" lon="-1.218272">
        <ele>56.7</ele>
        <time>2024-01-14T07:20:30Z</time>
      </trkpt>
      <trkpt lat="37.996854" lon="-1.218301">
        <ele>56.7</ele>
        <time>2024-01-14T07:20:44Z</time>
      </trkpt>
      <trkpt lat="37.997039" lon="-1.218361">
        <ele>57.7</ele>
        <time>2024-01-14T07:20:59Z</time>
      </trkpt>
      <trkpt lat="37.997157" lon="-1.218262">
        <ele>57.7</ele>
        <time>2024-01-14T07:21:15Z</time>
      </trkpt>
      <trkpt lat="37.997183" lon="-1.218051">
        <ele>56.7</ele>
        <time>2024-01-14T07:21:35Z</time>
      </trkpt>
      <trkpt lat="37.997190" lon="-1.217822">
        <ele>54.7</ele>
        <time>2024-01-14T07:21:49Z</time>
      </trkpt>
      <trkpt lat="37.997198" lon="-1.217584">
        <ele>53.7</ele>
        <time>2024-01-14T07:22:03Z</time>
      </trkpt>
      <trkpt lat="37.997169" lon="-1.217356">
        <ele>50.7</ele>
        <time>2024-01-14T07:22:29Z</time>
      </trkpt>
      <trkpt lat="37.997061" lon="-1.217170">
        <ele>50.6</ele>
        <time>2024-01-14T07:22:45Z</time>
      </trkpt>
      <trkpt lat="37.996891" lon="-1.217087">
        <ele>49.7</ele>
        <time>2024-01-14T07:23:04Z</time>
      </trkpt>
      <trkpt lat="37.996721" lon="-1.217012">
        <ele>48.7</ele>
        <time>2024-01-14T07:23:17Z</time>
      </trkpt>
      <trkpt lat="37.996555" lon="-1.216901">
        <ele>48.6</ele>
        <time>2024-01-14T07:23:33Z</time>
      </trkpt>
      <trkpt lat="37.996389" lon="-1.216804">
        <ele>47.7</ele>
        <time>2024-01-14T07:23:50Z</time>
      </trkpt>
      <trkpt lat="37.996229" lon="-1.216694">
        <ele>47.7</ele>
        <time>2024-01-14T07:24:06Z</time>
      </trkpt>
      <trkpt lat="37.996078" lon="-1.216559">
        <ele>51.7</ele>
        <time>2024-01-14T07:25:10Z</time>
      </trkpt>
      <trkpt lat="37.995924" lon="-1.216435">
        <ele>49.7</ele>
        <time>2024-01-14T07:25:25Z</time>
      </trkpt>
      <trkpt lat="37.995764" lon="-1.216326">
        <ele>49.7</ele>
        <time>2024-01-14T07:25:40Z</time>
      </trkpt>
      <trkpt lat="37.995672" lon="-1.216125">
        <ele>50.0</ele>
        <time>2024-01-14T07:25:52Z</time>
      </trkpt>
      <trkpt lat="37.995565" lon="-1.215937">
        <ele>51.6</ele>
        <time>2024-01-14T07:26:13Z</time>
      </trkpt>
      <trkpt lat="37.995457" lon="-1.215751">
        <ele>49.6</ele>
        <time>2024-01-14T07:26:28Z</time>
      </trkpt>
      <trkpt lat="37.995368" lon="-1.215550">
        <ele>51.7</ele>
        <time>2024-01-14T07:26:45Z</time>
      </trkpt>
      <trkpt lat="37.995276" lon="-1.215352">
        <ele>51.7</ele>
        <time>2024-01-14T07:27:13Z</time>
      </trkpt>
      <trkpt lat="37.995180" lon="-1.215154">
        <ele>50.7</ele>
        <time>2024-01-14T07:27:26Z</time>
      </trkpt>
      <trkpt lat="37.995071" lon="-1.214972">
        <ele>48.7</ele>
        <time>2024-01-14T07:27:41Z</time>
      </trkpt>
      <trkpt lat="37.994967" lon="-1.214780">
        <ele>49.7</ele>
        <time>2024-01-14T07:27:56Z</time>
      </trkpt>
      <trkpt lat="37.994897" lon="-1.214561">
        <ele>49.7</ele>
        <time>2024-01-14T07:28:10Z</time>
      </trkpt>
      <trkpt lat="37.994829" lon="-1.214348">
        <ele>50.3</ele>
        <time>2024-01-14T07:28:24Z</time>
      </trkpt>
      <trkpt lat="37.994787" lon="-1.214125">
        <ele>49.7</ele>
        <time>2024-01-14T07:28:38Z</time>
      </trkpt>
      <trkpt lat="37.994741" lon="-1.213896">
        <ele>51.6</ele>
        <time>2024-01-14T07:28:52Z</time>
      </trkpt>
      <trkpt lat="37.994700" lon="-1.213669">
        <ele>51.7</ele>
        <time>2024-01-14T07:29:08Z</time>
      </trkpt>
      <trkpt lat="37.994665" lon="-1.213441">
        <ele>54.6</ele>
        <time>2024-01-14T07:29:22Z</time>
      </trkpt>
      <trkpt lat="37.994629" lon="-1.213210">
        <ele>54.7</ele>
        <time>2024-01-14T07:29:41Z</time>
      </trkpt>
      <trkpt lat="37.994537" lon="-1.213010">
        <ele>54.3</ele>
        <time>2024-01-14T07:29:57Z</time>
      </trkpt>
      <trkpt lat="37.994493" lon="-1.212780">
        <ele>52.7</ele>
        <time>2024-01-14T07:30:11Z</time>
      </trkpt>
      <trkpt lat="37.994400" lon="-1.212583">
        <ele>51.9</ele>
        <time>2024-01-14T07:30:26Z</time>
      </trkpt>
      <trkpt lat="37.994299" lon="-1.212387">
        <ele>49.7</ele>
        <time>2024-01-14T07:30:43Z</time>
      </trkpt>
      <trkpt lat="37.994215" lon="-1.212184">
        <ele>51.7</ele>
        <time>2024-01-14T07:31:01Z</time>
      </trkpt>
      <trkpt lat="37.994140" lon="-1.211967">
        <ele>53.7</ele>
        <time>2024-01-14T07:31:16Z</time>
      </trkpt>
      <trkpt lat="37.994063" lon="-1.211752">
        <ele>51.7</ele>
        <time>2024-01-14T07:31:31Z</time>
      </trkpt>
      <trkpt lat="37.993962" lon="-1.211558">
        <ele>47.7</ele>
        <time>2024-01-14T07:31:49Z</time>
      </trkpt>
      <trkpt lat="37.993860" lon="-1.211366">
        <ele>46.6</ele>
        <time>2024-01-14T07:32:06Z</time>
      </trkpt>
      <trkpt lat="37.993764" lon="-1.211163">
        <ele>46.7</ele>
        <time>2024-01-14T07:32:22Z</time>
      </trkpt>
      <trkpt lat="37.993661" lon="-1.210974">
        <ele>47.7</ele>
        <time>2024-01-14T07:32:37Z</time>
      </trkpt>
      <trkpt lat="37.993540" lon="-1.210801">
        <ele>47.7</ele>
        <time>2024-01-14T07:33:55Z</time>
      </trkpt>
      <trkpt lat="37.993409" lon="-1.210643">
        <ele>45.0</ele>
        <time>2024-01-14T07:34:09Z</time>
      </trkpt>
      <trkpt lat="37.993299" lon="-1.210456">
        <ele>45.6</ele>
        <time>2024-01-14T07:34:20Z</time>
      </trkpt>
      <trkpt lat="37.993158" lon="-1.210299">
        <ele>46.3</ele>
        <time>2024-01-14T07:34:37Z</time>
      </trkpt>
      <trkpt lat="37.993049" lon="-1.210118">
        <ele>45.7</ele>
        <time>2024-01-14T07:34:48Z</time>
      </trkpt>
      <trkpt lat="37.992904" lon="-1.209977">
        <ele>48.6</ele>
        <time>2024-01-14T07:35:00Z</time>
      </trkpt>
      <trkpt lat="37.992762" lon="-1.209820">
        <ele>46.7</ele>
        <time>2024-01-14T07:35:12Z</time>
      </trkpt>
      <trkpt lat="37.992620" lon="-1.209668">
        <ele>47.7</ele>
        <time>2024-01-14T07:35:24Z</time>
      </trkpt>
      <trkpt lat="37.992491" lon="-1.209500">
        <ele>47.7</ele>
        <time>2024-01-14T07:35:37Z</time>
      </trkpt>
      <trkpt lat="37.992348" lon="-1.209349">
        <ele>47.7</ele>
        <time>2024-01-14T07:35:49Z</time>
      </trkpt>
      <trkpt lat="37.992209" lon="-1.209186">
        <ele>46.7</ele>
        <time>2024-01-14T07:36:01Z</time>
      </trkpt>
      <trkpt lat="37.992077" lon="-1.209022">
        <ele>45.6</ele>
        <time>2024-01-14T07:36:14Z</time>
      </trkpt>
      <trkpt lat="37.991934" lon="-1.208875">
        <ele>46.7</ele>
        <time>2024-01-14T07:36:27Z</time>
      </trkpt>
      <trkpt lat="37.991792" lon="-1.208714">
        <ele>45.7</ele>
        <time>2024-01-14T07:36:38Z</time>
      </trkpt>
      <trkpt lat="37.991647" lon="-1.208570">
        <ele>46.0</ele>
        <time>2024-01-14T07:36:53Z</time>
      </trkpt>
      <trkpt lat="37.991501" lon="-1.208417">
        <ele>46.7</ele>
        <time>2024-01-14T07:37:05Z</time>
      </trkpt>
      <trkpt lat="37.991349" lon="-1.208293">
        <ele>45.7</ele>
        <time>2024-01-14T07:37:18Z</time>
      </trkpt>
      <trkpt lat="37.991188" lon="-1.208181">
        <ele>46.9</ele>
        <time>2024-01-14T07:37:30Z</time>
      </trkpt>
      <trkpt lat="37.991029" lon="-1.208071">
        <ele>47.6</ele>
        <time>2024-01-14T07:37:45Z</time>
      </trkpt>
      <trkpt lat="37.989894" lon="-1.207325">
        <ele>46.7</ele>
        <time>2024-01-14T07:39:37Z</time>
      </trkpt>
      <trkpt lat="37.989748" lon="-1.207186">
        <ele>45.7</ele>
        <time>2024-01-14T07:39:52Z</time>
      </trkpt>
      <trkpt lat="37.989583" lon="-1.207088">
        <ele>47.6</ele>
        <time>2024-01-14T07:40:14Z</time>
      </trkpt>
      <trkpt lat="37.989411" lon="-1.207014">
        <ele>47.6</ele>
        <time>2024-01-14T07:40:33Z</time>
      </trkpt>
      <trkpt lat="37.989237" lon="-1.207083">
        <ele>46.4</ele>
        <time>2024-01-14T07:41:36Z</time>
      </trkpt>
      <trkpt lat="37.989060" lon="-1.207153">
        <ele>45.7</ele>
        <time>2024-01-14T07:41:53Z</time>
      </trkpt>
      <trkpt lat="37.988890" lon="-1.207242">
        <ele>47.7</ele>
        <time>2024-01-14T07:42:10Z</time>
      </trkpt>
      <trkpt lat="37.988719" lon="-1.207332">
        <ele>47.0</ele>
        <time>2024-01-14T07:42:29Z</time>
      </trkpt>
      <trkpt lat="37.988551" lon="-1.207417">
        <ele>47.7</ele>
        <time>2024-01-14T07:42:42Z</time>
      </trkpt>
      <trkpt lat="37.988377" lon="-1.207503">
        <ele>47.7</ele>
        <time>2024-01-14T07:42:58Z</time>
      </trkpt>
      <trkpt lat="37.988210" lon="-1.207593">
        <ele>47.0</ele>
        <time>2024-01-14T07:43:13Z</time>
      </trkpt>
      <trkpt lat="37.988042" lon="-1.207681">
        <ele>47.7</ele>
        <time>2024-01-14T07:43:28Z</time>
      </trkpt>
      <trkpt lat="37.987869" lon="-1.207749">
        <ele>47.7</ele>
        <time>2024-01-14T07:43:42Z</time>
      </trkpt>
      <trkpt lat="37.987705" lon="-1.207849">
        <ele>48.7</ele>
        <time>2024-01-14T07:43:57Z</time>
      </trkpt>
      <trkpt lat="37.987540" lon="-1.207951">
        <ele>49.7</ele>
        <time>2024-01-14T07:44:13Z</time>
      </trkpt>
      <trkpt lat="37.987380" lon="-1.208063">
        <ele>48.7</ele>
        <time>2024-01-14T07:44:26Z</time>
      </trkpt>
      <trkpt lat="37.987214" lon="-1.208171">
        <ele>47.7</ele>
        <time>2024-01-14T07:44:42Z</time>
      </trkpt>
      <trkpt lat="37.987055" lon="-1.208280">
        <ele>47.7</ele>
        <time>2024-01-14T07:44:56Z</time>
      </trkpt>
      <trkpt lat="37.986881" lon="-1.208362">
        <ele>47.7</ele>
        <time>2024-01-14T07:45:09Z</time>
      </trkpt>
      <trkpt lat="37.986733" lon="-1.208500">
        <ele>46.7</ele>
        <time>2024-01-14T07:45:25Z</time>
      </trkpt>
      <trkpt lat="37.986577" lon="-1.208625">
        <ele>46.7</ele>
        <time>2024-01-14T07:45:40Z</time>
      </trkpt>
      <trkpt lat="37.986442" lon="-1.208786">
        <ele>48.7</ele>
        <time>2024-01-14T07:45:54Z</time>
      </trkpt>
      <trkpt lat="37.986320" lon="-1.208957">
        <ele>48.7</ele>
        <time>2024-01-14T07:46:07Z</time>
      </trkpt>
      <trkpt lat="37.986207" lon="-1.209135">
        <ele>50.6</ele>
        <time>2024-01-14T07:46:20Z</time>
      </trkpt>
      <trkpt lat="37.986075" lon="-1.209298">
        <ele>51.7</ele>
        <time>2024-01-14T07:47:00Z</time>
      </trkpt>
      <trkpt lat="37.985971" lon="-1.209485">
        <ele>54.3</ele>
        <time>2024-01-14T07:47:15Z</time>
      </trkpt>
      <trkpt lat="37.985875" lon="-1.209687">
        <ele>52.7</ele>
        <time>2024-01-14T07:47:29Z</time>
      </trkpt>
      <trkpt lat="37.985766" lon="-1.209871">
        <ele>53.7</ele>
        <time>2024-01-14T07:47:43Z</time>
      </trkpt>
      <trkpt lat="37.985696" lon="-1.210083">
        <ele>59.5</ele>
        <time>2024-01-14T07:47:58Z</time>
      </trkpt>
      <trkpt lat="37.985634" lon="-1.210300">
        <ele>59.5</ele>
        <time>2024-01-14T07:48:13Z</time>
      </trkpt>
      <trkpt lat="37.985568" lon="-1.210513">
        <ele>59.5</ele>
        <time>2024-01-14T07:48:28Z</time>
      </trkpt>
      <trkpt lat="37.985504" lon="-1.210731">
        <ele>58.8</ele>
        <time>2024-01-14T07:48:42Z</time>
      </trkpt>
      <trkpt lat="37.985445" lon="-1.210957">
        <ele>58.8</ele>
        <time>2024-01-14T07:48:57Z</time>
      </trkpt>
      <trkpt lat="37.985386" lon="-1.211176">
        <ele>59.5</ele>
        <time>2024-01-14T07:49:10Z</time>
      </trkpt>
      <trkpt lat="37.985312" lon="-1.211386">
        <ele>47.7</ele>
        <time>2024-01-14T07:49:24Z</time>
      </trkpt>
      <trkpt lat="37.985214" lon="-1.211581">
        <ele>58.3</ele>
        <time>2024-01-14T07:49:38Z</time>
      </trkpt>
      <trkpt lat="37.985086" lon="-1.211744">
        <ele>58.8</ele>
        <time>2024-01-14T07:49:51Z</time>
      </trkpt>
      <trkpt lat="37.984946" lon="-1.211889">
        <ele>58.6</ele>
        <time>2024-01-14T07:50:05Z</time>
      </trkpt>
      <trkpt lat="37.984780" lon="-1.211979">
        <ele>58.5</ele>
        <time>2024-01-14T07:50:18Z</time>
      </trkpt>
      <trkpt lat="37.984600" lon="-1.212036">
        <ele>58.5</ele>
        <time>2024-01-14T07:50:32Z</time>
      </trkpt>
      <trkpt lat="37.984418" lon="-1.212060">
        <ele>58.5</ele>
        <time>2024-01-14T07:50:47Z</time>
      </trkpt>
      <trkpt lat="37.984234" lon="-1.212098">
        <ele>58.5</ele>
        <time>2024-01-14T07:51:01Z</time>
      </trkpt>
      <trkpt lat="37.984050" lon="-1.212094">
        <ele>59.2</ele>
        <time>2024-01-14T07:51:16Z</time>
      </trkpt>
      <trkpt lat="37.983866" lon="-1.212109">
        <ele>46.7</ele>
        <time>2024-01-14T07:51:31Z</time>
      </trkpt>
      <trkpt lat="37.983676" lon="-1.212122">
        <ele>47.0</ele>
        <time>2024-01-14T07:51:45Z</time>
      </trkpt>
      <trkpt lat="37.983500" lon="-1.212170">
        <ele>46.6</ele>
        <time>2024-01-14T07:51:59Z</time>
      </trkpt>
      <trkpt lat="37.983321" lon="-1.212204">
        <ele>45.7</ele>
        <time>2024-01-14T07:52:14Z</time>
      </trkpt>
      <trkpt lat="37.983150" lon="-1.212281">
        <ele>46.6</ele>
        <time>2024-01-14T07:52:33Z</time>
      </trkpt>
      <trkpt lat="37.982967" lon="-1.212312">
        <ele>59.5</ele>
        <time>2024-01-14T07:52:47Z</time>
      </trkpt>
      <trkpt lat="37.982785" lon="-1.212390">
        <ele>59.5</ele>
        <time>2024-01-14T07:53:02Z</time>
      </trkpt>
      <trkpt lat="37.982613" lon="-1.212456">
        <ele>59.5</ele>
        <time>2024-01-14T07:53:14Z</time>
      </trkpt>
      <trkpt lat="37.982262" lon="-1.212557">
        <ele>45.6</ele>
        <time>2024-01-14T07:54:02Z</time>
      </trkpt>
      <trkpt lat="37.982101" lon="-1.212660">
        <ele>47.6</ele>
        <time>2024-01-14T07:54:18Z</time>
      </trkpt>
      <trkpt lat="37.981941" lon="-1.212786">
        <ele>59.5</ele>
        <time>2024-01-14T07:54:31Z</time>
      </trkpt>
      <trkpt lat="37.981774" lon="-1.212872">
        <ele>59.5</ele>
        <time>2024-01-14T07:54:43Z</time>
      </trkpt>
      <trkpt lat="37.981610" lon="-1.212982">
        <ele>59.5</ele>
        <time>2024-01-14T07:54:55Z</time>
      </trkpt>
      <trkpt lat="37.981443" lon="-1.213079">
        <ele>59.5</ele>
        <time>2024-01-14T07:55:08Z</time>
      </trkpt>
      <trkpt lat="37.981279" lon="-1.213180">
        <ele>59.5</ele>
        <time>2024-01-14T07:55:21Z</time>
      </trkpt>
      <trkpt lat="37.981124" lon="-1.213309">
        <ele>54.2</ele>
        <time>2024-01-14T07:55:34Z</time>
      </trkpt>
      <trkpt lat="37.980962" lon="-1.213423">
        <ele>54.2</ele>
        <time>2024-01-14T07:55:47Z</time>
      </trkpt>
      <trkpt lat="37.980425" lon="-1.213540">
        <ele>54.2</ele>
        <time>2024-01-14T07:56:26Z</time>
      </trkpt>
      <trkpt lat="37.980244" lon="-1.213482">
        <ele>46.6</ele>
        <time>2024-01-14T07:56:40Z</time>
      </trkpt>
      <trkpt lat="37.980083" lon="-1.213371">
        <ele>44.6</ele>
        <time>2024-01-14T07:56:53Z</time>
      </trkpt>
      <trkpt lat="37.979941" lon="-1.213228">
        <ele>45.6</ele>
        <time>2024-01-14T07:57:06Z</time>
      </trkpt>
      <trkpt lat="37.979822" lon="-1.213051">
        <ele>46.6</ele>
        <time>2024-01-14T07:57:17Z</time>
      </trkpt>
      <trkpt lat="37.979745" lon="-1.212838">
        <ele>46.6</ele>
        <time>2024-01-14T07:57:31Z</time>
      </trkpt>
      <trkpt lat="37.979719" lon="-1.212605">
        <ele>46.7</ele>
        <time>2024-01-14T07:57:44Z</time>
      </trkpt>
      <trkpt lat="37.979710" lon="-1.212369">
        <ele>46.6</ele>
        <time>2024-01-14T07:57:58Z</time>
      </trkpt>
      <trkpt lat="37.979722" lon="-1.211894">
        <ele>48.6</ele>
        <time>2024-01-14T07:58:24Z</time>
      </trkpt>
      <trkpt lat="37.979681" lon="-1.210746">
        <ele>48.7</ele>
        <time>2024-01-14T07:59:42Z</time>
      </trkpt>
      <trkpt lat="37.979645" lon="-1.210521">
        <ele>46.6</ele>
        <time>2024-01-14T07:59:55Z</time>
      </trkpt>
      <trkpt lat="37.979607" lon="-1.210294">
        <ele>46.6</ele>
        <time>2024-01-14T08:00:08Z</time>
      </trkpt>
      <trkpt lat="37.979580" lon="-1.210067">
        <ele>46.6</ele>
        <time>2024-01-14T08:00:26Z</time>
      </trkpt>
      <trkpt lat="37.979523" lon="-1.209847">
        <ele>45.7</ele>
        <time>2024-01-14T08:00:43Z</time>
      </trkpt>
      <trkpt lat="37.978966" lon="-1.208380">
        <ele>48.9</ele>
        <time>2024-01-14T08:05:51Z</time>
      </trkpt>
      <trkpt lat="37.978922" lon="-1.208158">
        <ele>47.7</ele>
        <time>2024-01-14T08:06:06Z</time>
      </trkpt>
      <trkpt lat="37.978863" lon="-1.207937">
        <ele>46.7</ele>
        <time>2024-01-14T08:06:24Z</time>
      </trkpt>
      <trkpt lat="37.978819" lon="-1.207705">
        <ele>48.6</ele>
        <time>2024-01-14T08:06:41Z</time>
      </trkpt>
      <trkpt lat="37.978761" lon="-1.207482">
        <ele>59.2</ele>
        <time>2024-01-14T08:06:57Z</time>
      </trkpt>
      <trkpt lat="37.978474" lon="-1.206389">
        <ele>43.7</ele>
        <time>2024-01-14T08:09:26Z</time>
      </trkpt>
      <trkpt lat="37.978329" lon="-1.206238">
        <ele>45.7</ele>
        <time>2024-01-14T08:09:37Z</time>
      </trkpt>
      <trkpt lat="37.978210" lon="-1.206037">
        <ele>58.1</ele>
        <time>2024-01-14T08:10:10Z</time>
      </trkpt>
      <trkpt lat="37.978100" lon="-1.205853">
        <ele>58.3</ele>
        <time>2024-01-14T08:10:21Z</time>
      </trkpt>
      <trkpt lat="37.977986" lon="-1.205668">
        <ele>58.3</ele>
        <time>2024-01-14T08:10:34Z</time>
      </trkpt>
      <trkpt lat="37.977880" lon="-1.205479">
        <ele>58.3</ele>
        <time>2024-01-14T08:10:48Z</time>
      </trkpt>
      <trkpt lat="37.977763" lon="-1.205304">
        <ele>58.3</ele>
        <time>2024-01-14T08:11:01Z</time>
      </trkpt>
      <trkpt lat="37.977639" lon="-1.205114">
        <ele>58.3</ele>
        <time>2024-01-14T08:11:14Z</time>
      </trkpt>
      <trkpt lat="37.977521" lon="-1.204924">
        <ele>59.0</ele>
        <time>2024-01-14T08:11:27Z</time>
      </trkpt>
      <trkpt lat="37.977409" lon="-1.204745">
        <ele>59.0</ele>
        <time>2024-01-14T08:11:39Z</time>
      </trkpt>
      <trkpt lat="37.977347" lon="-1.204528">
        <ele>59.0</ele>
        <time>2024-01-14T08:11:51Z</time>
      </trkpt>
      <trkpt lat="37.977320" lon="-1.204291">
        <ele>59.0</ele>
        <time>2024-01-14T08:12:04Z</time>
      </trkpt>
      <trkpt lat="37.977323" lon="-1.204059">
        <ele>59.0</ele>
        <time>2024-01-14T08:12:17Z</time>
      </trkpt>
      <trkpt lat="37.977400" lon="-1.203846">
        <ele>58.7</ele>
        <time>2024-01-14T08:12:30Z</time>
      </trkpt>
      <trkpt lat="37.977524" lon="-1.203678">
        <ele>58.7</ele>
        <time>2024-01-14T08:12:41Z</time>
      </trkpt>
      <trkpt lat="37.977619" lon="-1.203479">
        <ele>58.7</ele>
        <time>2024-01-14T08:12:54Z</time>
      </trkpt>
      <trkpt lat="37.977721" lon="-1.203284">
        <ele>58.7</ele>
        <time>2024-01-14T08:13:06Z</time>
      </trkpt>
      <trkpt lat="37.977846" lon="-1.203115">
        <ele>58.7</ele>
        <time>2024-01-14T08:13:23Z</time>
      </trkpt>
      <trkpt lat="37.977958" lon="-1.202931">
        <ele>58.7</ele>
        <time>2024-01-14T08:13:36Z</time>
      </trkpt>
      <trkpt lat="37.978101" lon="-1.202789">
        <ele>56.2</ele>
        <time>2024-01-14T08:14:00Z</time>
      </trkpt>
      <trkpt lat="37.978233" lon="-1.202621">
        <ele>56.0</ele>
        <time>2024-01-14T08:14:12Z</time>
      </trkpt>
      <trkpt lat="37.978377" lon="-1.202474">
        <ele>47.7</ele>
        <time>2024-01-14T08:14:25Z</time>
      </trkpt>
      <trkpt lat="37.978530" lon="-1.202337">
        <ele>48.7</ele>
        <time>2024-01-14T08:14:37Z</time>
      </trkpt>
      <trkpt lat="37.978680" lon="-1.202208">
        <ele>47.7</ele>
        <time>2024-01-14T08:14:49Z</time>
      </trkpt>
      <trkpt lat="37.978850" lon="-1.202099">
        <ele>48.7</ele>
        <time>2024-01-14T08:15:02Z</time>
      </trkpt>
      <trkpt lat="37.979016" lon="-1.201985">
        <ele>47.7</ele>
        <time>2024-01-14T08:15:15Z</time>
      </trkpt>
      <trkpt lat="37.979194" lon="-1.201940">
        <ele>47.7</ele>
        <time>2024-01-14T08:15:40Z</time>
      </trkpt>
      <trkpt lat="37.979358" lon="-1.201846">
        <ele>44.8</ele>
        <time>2024-01-14T08:16:09Z</time>
      </trkpt>
      <trkpt lat="37.979534" lon="-1.201771">
        <ele>46.7</ele>
        <time>2024-01-14T08:16:21Z</time>
      </trkpt>
      <trkpt lat="37.979717" lon="-1.201711">
        <ele>47.7</ele>
        <time>2024-01-14T08:16:33Z</time>
      </trkpt>
      <trkpt lat="37.979903" lon="-1.201665">
        <ele>48.7</ele>
        <time>2024-01-14T08:16:45Z</time>
      </trkpt>
      <trkpt lat="37.980082" lon="-1.201615">
        <ele>48.4</ele>
        <time>2024-01-14T08:16:58Z</time>
      </trkpt>
      <trkpt lat="37.980262" lon="-1.201594">
        <ele>47.7</ele>
        <time>2024-01-14T08:17:12Z</time>
      </trkpt>
      <trkpt lat="37.980449" lon="-1.201549">
        <ele>46.7</ele>
        <time>2024-01-14T08:17:26Z</time>
      </trkpt>
      <trkpt lat="37.980631" lon="-1.201487">
        <ele>56.4</ele>
        <time>2024-01-14T08:17:39Z</time>
      </trkpt>
      <trkpt lat="37.980805" lon="-1.201410">
        <ele>56.4</ele>
        <time>2024-01-14T08:17:53Z</time>
      </trkpt>
      <trkpt lat="37.980981" lon="-1.201355">
        <ele>46.8</ele>
        <time>2024-01-14T08:18:06Z</time>
      </trkpt>
      <trkpt lat="37.981149" lon="-1.201251">
        <ele>47.7</ele>
        <time>2024-01-14T08:18:20Z</time>
      </trkpt>
      <trkpt lat="37.981313" lon="-1.201147">
        <ele>47.7</ele>
        <time>2024-01-14T08:18:35Z</time>
      </trkpt>
      <trkpt lat="37.981463" lon="-1.201014">
        <ele>48.8</ele>
        <time>2024-01-14T08:18:49Z</time>
      </trkpt>
      <trkpt lat="37.981611" lon="-1.200880">
        <ele>51.7</ele>
        <time>2024-01-14T08:19:03Z</time>
      </trkpt>
      <trkpt lat="37.981766" lon="-1.200745">
        <ele>51.4</ele>
        <time>2024-01-14T08:19:18Z</time>
      </trkpt>
      <trkpt lat="37.981921" lon="-1.200614">
        <ele>50.7</ele>
        <time>2024-01-14T08:19:32Z</time>
      </trkpt>
      <trkpt lat="37.982067" lon="-1.200478">
        <ele>50.7</ele>
        <time>2024-01-14T08:19:46Z</time>
      </trkpt>
      <trkpt lat="37.982220" lon="-1.200337">
        <ele>52.7</ele>
        <time>2024-01-14T08:20:01Z</time>
      </trkpt>
      <trkpt lat="37.982372" lon="-1.200201">
        <ele>50.7</ele>
        <time>2024-01-14T08:20:18Z</time>
      </trkpt>
      <trkpt lat="37.982518" lon="-1.200065">
        <ele>50.7</ele>
        <time>2024-01-14T08:20:32Z</time>
      </trkpt>
      <trkpt lat="37.982667" lon="-1.199918">
        <ele>51.7</ele>
        <time>2024-01-14T08:20:47Z</time>
      </trkpt>
      <trkpt lat="37.982822" lon="-1.199801">
        <ele>50.7</ele>
        <time>2024-01-14T08:21:01Z</time>
      </trkpt>
      <trkpt lat="37.982985" lon="-1.199702">
        <ele>51.7</ele>
        <time>2024-01-14T08:21:16Z</time>
      </trkpt>
      <trkpt lat="37.983147" lon="-1.199590">
        <ele>52.7</ele>
        <time>2024-01-14T08:21:30Z</time>
      </trkpt>
      <trkpt lat="37.983307" lon="-1.199479">
        <ele>50.7</ele>
        <time>2024-01-14T08:21:44Z</time>
      </trkpt>
      <trkpt lat="37.983476" lon="-1.199389">
        <ele>52.6</ele>
        <time>2024-01-14T08:21:59Z</time>
      </trkpt>
      <trkpt lat="37.983616" lon="-1.199231">
        <ele>52.6</ele>
        <time>2024-01-14T08:22:14Z</time>
      </trkpt>
      <trkpt lat="37.983719" lon="-1.199037">
        <ele>52.6</ele>
        <time>2024-01-14T08:22:29Z</time>
      </trkpt>
      <trkpt lat="37.983774" lon="-1.198812">
        <ele>52.6</ele>
        <time>2024-01-14T08:22:44Z</time>
      </trkpt>
      <trkpt lat="37.983776" lon="-1.198569">
        <ele>52.6</ele>
        <time>2024-01-14T08:23:00Z</time>
      </trkpt>
      <trkpt lat="37.983711" lon="-1.198355">
        <ele>52.6</ele>
        <time>2024-01-14T08:23:14Z</time>
      </trkpt>
      <trkpt lat="37.983660" lon="-1.198128">
        <ele>52.6</ele>
        <time>2024-01-14T08:23:28Z</time>
      </trkpt>
      <trkpt lat="37.983590" lon="-1.197911">
        <ele>52.6</ele>
        <time>2024-01-14T08:23:44Z</time>
      </trkpt>
      <trkpt lat="37.983521" lon="-1.197692">
        <ele>52.6</ele>
        <time>2024-01-14T08:23:58Z</time>
      </trkpt>
      <trkpt lat="37.983429" lon="-1.197495">
        <ele>52.6</ele>
        <time>2024-01-14T08:24:12Z</time>
      </trkpt>
      <trkpt lat="37.983370" lon="-1.197272">
        <ele>52.6</ele>
        <time>2024-01-14T08:24:28Z</time>
      </trkpt>
      <trkpt lat="37.983288" lon="-1.197063">
        <ele>52.6</ele>
        <time>2024-01-14T08:24:42Z</time>
      </trkpt>
      <trkpt lat="37.983230" lon="-1.196839">
        <ele>52.6</ele>
        <time>2024-01-14T08:24:58Z</time>
      </trkpt>
      <trkpt lat="37.983162" lon="-1.196615">
        <ele>52.6</ele>
        <time>2024-01-14T08:25:16Z</time>
      </trkpt>
      <trkpt lat="37.983092" lon="-1.196405">
        <ele>46.7</ele>
        <time>2024-01-14T08:25:32Z</time>
      </trkpt>
      <trkpt lat="37.983022" lon="-1.196193">
        <ele>47.7</ele>
        <time>2024-01-14T08:25:46Z</time>
      </trkpt>
      <trkpt lat="37.982955" lon="-1.195981">
        <ele>47.7</ele>
        <time>2024-01-14T08:26:00Z</time>
      </trkpt>
      <trkpt lat="37.982908" lon="-1.195757">
        <ele>47.7</ele>
        <time>2024-01-14T08:26:16Z</time>
      </trkpt>
      <trkpt lat="37.982861" lon="-1.195532">
        <ele>48.6</ele>
        <time>2024-01-14T08:26:30Z</time>
      </trkpt>
      <trkpt lat="37.982837" lon="-1.195304">
        <ele>47.7</ele>
        <time>2024-01-14T08:26:46Z</time>
      </trkpt>
      <trkpt lat="37.982838" lon="-1.195070">
        <ele>47.6</ele>
        <time>2024-01-14T08:27:01Z</time>
      </trkpt>
      <trkpt lat="37.982840" lon="-1.194834">
        <ele>48.7</ele>
        <time>2024-01-14T08:27:16Z</time>
      </trkpt>
      <trkpt lat="37.982855" lon="-1.194606">
        <ele>48.7</ele>
        <time>2024-01-14T08:27:30Z</time>
      </trkpt>
      <trkpt lat="37.982884" lon="-1.194377">
        <ele>49.6</ele>
        <time>2024-01-14T08:27:48Z</time>
      </trkpt>
      <trkpt lat="37.982886" lon="-1.194145">
        <ele>50.7</ele>
        <time>2024-01-14T08:28:18Z</time>
      </trkpt>
      <trkpt lat="37.982894" lon="-1.193909">
        <ele>48.7</ele>
        <time>2024-01-14T08:28:38Z</time>
      </trkpt>
      <trkpt lat="37.982911" lon="-1.193674">
        <ele>49.7</ele>
        <time>2024-01-14T08:28:51Z</time>
      </trkpt>
      <trkpt lat="37.982933" lon="-1.193442">
        <ele>50.4</ele>
        <time>2024-01-14T08:29:03Z</time>
      </trkpt>
      <trkpt lat="37.982984" lon="-1.193218">
        <ele>50.7</ele>
        <time>2024-01-14T08:29:15Z</time>
      </trkpt>
      <trkpt lat="37.983053" lon="-1.192999">
        <ele>49.7</ele>
        <time>2024-01-14T08:29:29Z</time>
      </trkpt>
      <trkpt lat="37.983121" lon="-1.192782">
        <ele>50.7</ele>
        <time>2024-01-14T08:29:42Z</time>
      </trkpt>
      <trkpt lat="37.983167" lon="-1.192566">
        <ele>48.7</ele>
        <time>2024-01-14T08:29:57Z</time>
      </trkpt>
      <trkpt lat="37.983252" lon="-1.192352">
        <ele>49.8</ele>
        <time>2024-01-14T08:30:14Z</time>
      </trkpt>
      <trkpt lat="37.983304" lon="-1.192115">
        <ele>52.5</ele>
        <time>2024-01-14T08:30:28Z</time>
      </trkpt>
      <trkpt lat="37.983366" lon="-1.191892">
        <ele>53.9</ele>
        <time>2024-01-14T08:30:43Z</time>
      </trkpt>
      <trkpt lat="37.983397" lon="-1.191666">
        <ele>51.7</ele>
        <time>2024-01-14T08:30:58Z</time>
      </trkpt>
      <trkpt lat="37.983468" lon="-1.191451">
        <ele>51.7</ele>
        <time>2024-01-14T08:31:13Z</time>
      </trkpt>
      <trkpt lat="37.983473" lon="-1.191216">
        <ele>51.7</ele>
        <time>2024-01-14T08:31:26Z</time>
      </trkpt>
      <trkpt lat="37.983475" lon="-1.190979">
        <ele>42.7</ele>
        <time>2024-01-14T08:31:43Z</time>
      </trkpt>
      <trkpt lat="37.983482" lon="-1.190745">
        <ele>44.7</ele>
        <time>2024-01-14T08:31:55Z</time>
      </trkpt>
      <trkpt lat="37.983477" lon="-1.190513">
        <ele>46.7</ele>
        <time>2024-01-14T08:32:09Z</time>
      </trkpt>
      <trkpt lat="37.983473" lon="-1.190280">
        <ele>47.7</ele>
        <time>2024-01-14T08:32:23Z</time>
      </trkpt>
      <trkpt lat="37.983483" lon="-1.190045">
        <ele>48.7</ele>
        <time>2024-01-14T08:32:41Z</time>
      </trkpt>
      <trkpt lat="37.983510" lon="-1.189889">
        <ele>50.7</ele>
        <time>2024-01-14T08:33:06Z</time>
      </trkpt>
      <trkpt lat="37.983525" lon="-1.189710">
        <ele>49.7</ele>
        <time>2024-01-14T08:34:07Z</time>
      </trkpt>
      <trkpt lat="37.983471" lon="-1.189486">
        <ele>47.7</ele>
        <time>2024-01-14T08:34:20Z</time>
      </trkpt>
      <trkpt lat="37.983461" lon="-1.189255">
        <ele>48.6</ele>
        <time>2024-01-14T08:34:33Z</time>
      </trkpt>
      <trkpt lat="37.983457" lon="-1.189020">
        <ele>48.0</ele>
        <time>2024-01-14T08:34:46Z</time>
      </trkpt>
      <trkpt lat="37.983450" lon="-1.188790">
        <ele>47.7</ele>
        <time>2024-01-14T08:34:59Z</time>
      </trkpt>
      <trkpt lat="37.983431" lon="-1.188558">
        <ele>45.7</ele>
        <time>2024-01-14T08:35:11Z</time>
      </trkpt>
      <trkpt lat="37.983426" lon="-1.188329">
        <ele>47.7</ele>
        <time>2024-01-14T08:35:23Z</time>
      </trkpt>
      <trkpt lat="37.983428" lon="-1.188090">
        <ele>48.7</ele>
        <time>2024-01-14T08:35:36Z</time>
      </trkpt>
      <trkpt lat="37.983439" lon="-1.187856">
        <ele>50.7</ele>
        <time>2024-01-14T08:35:50Z</time>
      </trkpt>
      <trkpt lat="37.983426" lon="-1.187622">
        <ele>48.7</ele>
        <time>2024-01-14T08:36:06Z</time>
      </trkpt>
      <trkpt lat="37.983415" lon="-1.187389">
        <ele>47.8</ele>
        <time>2024-01-14T08:36:17Z</time>
      </trkpt>
      <trkpt lat="37.983396" lon="-1.187150">
        <ele>47.7</ele>
        <time>2024-01-14T08:36:30Z</time>
      </trkpt>
      <trkpt lat="37.983392" lon="-1.186920">
        <ele>46.7</ele>
        <time>2024-01-14T08:36:44Z</time>
      </trkpt>
      <trkpt lat="37.983371" lon="-1.186681">
        <ele>47.7</ele>
        <time>2024-01-14T08:36:55Z</time>
      </trkpt>
      <trkpt lat="37.983357" lon="-1.186448">
        <ele>45.8</ele>
        <time>2024-01-14T08:37:07Z</time>
      </trkpt>
      <trkpt lat="37.983338" lon="-1.186219">
        <ele>44.7</ele>
        <time>2024-01-14T08:37:19Z</time>
      </trkpt>
      <trkpt lat="37.983302" lon="-1.185994">
        <ele>44.7</ele>
        <time>2024-01-14T08:37:30Z</time>
      </trkpt>
      <trkpt lat="37.983256" lon="-1.185768">
        <ele>43.7</ele>
        <time>2024-01-14T08:37:42Z</time>
      </trkpt>
      <trkpt lat="37.983204" lon="-1.185539">
        <ele>46.4</ele>
        <time>2024-01-14T08:37:56Z</time>
      </trkpt>
      <trkpt lat="37.983152" lon="-1.185317">
        <ele>46.0</ele>
        <time>2024-01-14T08:38:12Z</time>
      </trkpt>
      <trkpt lat="37.983095" lon="-1.185098">
        <ele>45.7</ele>
        <time>2024-01-14T08:38:31Z</time>
      </trkpt>
      <trkpt lat="37.983032" lon="-1.184879">
        <ele>46.7</ele>
        <time>2024-01-14T08:38:51Z</time>
      </trkpt>
      <trkpt lat="37.982968" lon="-1.184661">
        <ele>47.0</ele>
        <time>2024-01-14T08:39:06Z</time>
      </trkpt>
      <trkpt lat="37.982843" lon="-1.184486">
        <ele>50.7</ele>
        <time>2024-01-14T08:40:30Z</time>
      </trkpt>
      <trkpt lat="37.982720" lon="-1.184315">
        <ele>50.7</ele>
        <time>2024-01-14T08:40:46Z</time>
      </trkpt>
      <trkpt lat="37.982598" lon="-1.184128">
        <ele>50.7</ele>
        <time>2024-01-14T08:41:23Z</time>
      </trkpt>
      <trkpt lat="37.982460" lon="-1.183965">
        <ele>50.3</ele>
        <time>2024-01-14T08:41:38Z</time>
      </trkpt>
      <trkpt lat="37.982350" lon="-1.183785">
        <ele>50.9</ele>
        <time>2024-01-14T08:41:57Z</time>
      </trkpt>
      <trkpt lat="37.982226" lon="-1.183607">
        <ele>50.7</ele>
        <time>2024-01-14T08:42:11Z</time>
      </trkpt>
      <trkpt lat="37.982079" lon="-1.183470">
        <ele>50.7</ele>
        <time>2024-01-14T08:42:24Z</time>
      </trkpt>
      <trkpt lat="37.981941" lon="-1.183315">
        <ele>50.9</ele>
        <time>2024-01-14T08:42:41Z</time>
      </trkpt>
      <trkpt lat="37.981795" lon="-1.183165">
        <ele>50.8</ele>
        <time>2024-01-14T08:42:54Z</time>
      </trkpt>
      <trkpt lat="37.981653" lon="-1.183015">
        <ele>50.8</ele>
        <time>2024-01-14T08:43:10Z</time>
      </trkpt>
      <trkpt lat="37.981510" lon="-1.182856">
        <ele>50.8</ele>
        <time>2024-01-14T08:43:23Z</time>
      </trkpt>
      <trkpt lat="37.981391" lon="-1.182682">
        <ele>50.6</ele>
        <time>2024-01-14T08:43:37Z</time>
      </trkpt>
      <trkpt lat="37.981258" lon="-1.182527">
        <ele>48.7</ele>
        <time>2024-01-14T08:43:49Z</time>
      </trkpt>
      <trkpt lat="37.981112" lon="-1.182393">
        <ele>50.7</ele>
        <time>2024-01-14T08:44:03Z</time>
      </trkpt>
      <trkpt lat="37.980966" lon="-1.182248">
        <ele>51.8</ele>
        <time>2024-01-14T08:44:16Z</time>
      </trkpt>
      <trkpt lat="37.980832" lon="-1.182087">
        <ele>44.7</ele>
        <time>2024-01-14T08:44:30Z</time>
      </trkpt>
      <trkpt lat="37.980695" lon="-1.181936">
        <ele>50.7</ele>
        <time>2024-01-14T08:44:43Z</time>
      </trkpt>
      <trkpt lat="37.980560" lon="-1.181780">
        <ele>50.7</ele>
        <time>2024-01-14T08:44:57Z</time>
      </trkpt>
      <trkpt lat="37.980418" lon="-1.181632">
        <ele>49.8</ele>
        <time>2024-01-14T08:45:10Z</time>
      </trkpt>
      <trkpt lat="37.980276" lon="-1.181471">
        <ele>49.8</ele>
        <time>2024-01-14T08:45:24Z</time>
      </trkpt>
      <trkpt lat="37.980126" lon="-1.181331">
        <ele>50.5</ele>
        <time>2024-01-14T08:45:37Z</time>
      </trkpt>
      <trkpt lat="37.979989" lon="-1.181175">
        <ele>49.6</ele>
        <time>2024-01-14T08:45:51Z</time>
      </trkpt>
      <trkpt lat="37.979859" lon="-1.181014">
        <ele>49.6</ele>
        <time>2024-01-14T08:46:05Z</time>
      </trkpt>
      <trkpt lat="37.979717" lon="-1.180863">
        <ele>51.6</ele>
        <time>2024-01-14T08:46:18Z</time>
      </trkpt>
      <trkpt lat="37.979610" lon="-1.180675">
        <ele>51.6</ele>
        <time>2024-01-14T08:46:31Z</time>
      </trkpt>
      <trkpt lat="37.979503" lon="-1.180479">
        <ele>51.6</ele>
        <time>2024-01-14T08:46:43Z</time>
      </trkpt>
      <trkpt lat="37.979465" lon="-1.180254">
        <ele>51.6</ele>
        <time>2024-01-14T08:46:55Z</time>
      </trkpt>
      <trkpt lat="37.979448" lon="-1.180019">
        <ele>51.6</ele>
        <time>2024-01-14T08:47:09Z</time>
      </trkpt>
      <trkpt lat="37.979472" lon="-1.179789">
        <ele>51.6</ele>
        <time>2024-01-14T08:47:22Z</time>
      </trkpt>
      <trkpt lat="37.979486" lon="-1.179557">
        <ele>51.9</ele>
        <time>2024-01-14T08:47:36Z</time>
      </trkpt>
      <trkpt lat="37.979492" lon="-1.179329">
        <ele>51.9</ele>
        <time>2024-01-14T08:47:51Z</time>
      </trkpt>
      <trkpt lat="37.979535" lon="-1.179105">
        <ele>51.9</ele>
        <time>2024-01-14T08:48:05Z</time>
      </trkpt>
      <trkpt lat="37.979551" lon="-1.178873">
        <ele>51.0</ele>
        <time>2024-01-14T08:48:20Z</time>
      </trkpt>
      <trkpt lat="37.979572" lon="-1.178637">
        <ele>51.0</ele>
        <time>2024-01-14T08:48:34Z</time>
      </trkpt>
      <trkpt lat="37.979570" lon="-1.178400">
        <ele>51.7</ele>
        <time>2024-01-14T08:48:48Z</time>
      </trkpt>
      <trkpt lat="37.979563" lon="-1.178170">
        <ele>48.7</ele>
        <time>2024-01-14T08:49:01Z</time>
      </trkpt>
      <trkpt lat="37.979503" lon="-1.177945">
        <ele>49.8</ele>
        <time>2024-01-14T08:49:17Z</time>
      </trkpt>
      <trkpt lat="37.979475" lon="-1.177714">
        <ele>49.2</ele>
        <time>2024-01-14T08:49:29Z</time>
      </trkpt>
      <trkpt lat="37.979428" lon="-1.177486">
        <ele>49.2</ele>
        <time>2024-01-14T08:49:41Z</time>
      </trkpt>
      <trkpt lat="37.979382" lon="-1.177264">
        <ele>51.6</ele>
        <time>2024-01-14T08:49:56Z</time>
      </trkpt>
      <trkpt lat="37.979349" lon="-1.177036">
        <ele>50.5</ele>
        <time>2024-01-14T08:50:10Z</time>
      </trkpt>
      <trkpt lat="37.979313" lon="-1.176805">
        <ele>51.6</ele>
        <time>2024-01-14T08:50:24Z</time>
      </trkpt>
      <trkpt lat="37.979321" lon="-1.176570">
        <ele>51.6</ele>
        <time>2024-01-14T08:50:37Z</time>
      </trkpt>
      <trkpt lat="37.979328" lon="-1.176102">
        <ele>48.8</ele>
        <time>2024-01-14T08:51:33Z</time>
      </trkpt>
      <trkpt lat="37.979353" lon="-1.175872">
        <ele>54.1</ele>
        <time>2024-01-14T08:52:04Z</time>
      </trkpt>
      <trkpt lat="37.979380" lon="-1.175635">
        <ele>50.6</ele>
        <time>2024-01-14T08:52:20Z</time>
      </trkpt>
      <trkpt lat="37.979421" lon="-1.175406">
        <ele>48.7</ele>
        <time>2024-01-14T08:52:40Z</time>
      </trkpt>
      <trkpt lat="37.979480" lon="-1.175187">
        <ele>51.6</ele>
        <time>2024-01-14T08:52:55Z</time>
      </trkpt>
      <trkpt lat="37.979538" lon="-1.174963">
        <ele>51.0</ele>
        <time>2024-01-14T08:53:10Z</time>
      </trkpt>
      <trkpt lat="37.979622" lon="-1.174761">
        <ele>51.0</ele>
        <time>2024-01-14T08:53:25Z</time>
      </trkpt>
      <trkpt lat="37.979708" lon="-1.174552">
        <ele>51.0</ele>
        <time>2024-01-14T08:53:41Z</time>
      </trkpt>
      <trkpt lat="37.979823" lon="-1.174374">
        <ele>48.8</ele>
        <time>2024-01-14T08:54:09Z</time>
      </trkpt>
      <trkpt lat="37.979928" lon="-1.174178">
        <ele>48.8</ele>
        <time>2024-01-14T08:54:23Z</time>
      </trkpt>
      <trkpt lat="37.980014" lon="-1.173977">
        <ele>48.8</ele>
        <time>2024-01-14T08:54:35Z</time>
      </trkpt>
      <trkpt lat="37.980658" lon="-1.172577">
        <ele>43.1</ele>
        <time>2024-01-14T08:56:06Z</time>
      </trkpt>
      <trkpt lat="37.980766" lon="-1.172392">
        <ele>49.7</ele>
        <time>2024-01-14T08:56:20Z</time>
      </trkpt>
      <trkpt lat="37.980883" lon="-1.172216">
        <ele>48.7</ele>
        <time>2024-01-14T08:56:34Z</time>
      </trkpt>
      <trkpt lat="37.981045" lon="-1.172097">
        <ele>47.7</ele>
        <time>2024-01-14T08:56:50Z</time>
      </trkpt>
      <trkpt lat="37.981192" lon="-1.171961">
        <ele>48.7</ele>
        <time>2024-01-14T08:57:03Z</time>
      </trkpt>
      <trkpt lat="37.981370" lon="-1.171896">
        <ele>48.6</ele>
        <time>2024-01-14T08:57:16Z</time>
      </trkpt>
      <trkpt lat="37.981552" lon="-1.171867">
        <ele>48.7</ele>
        <time>2024-01-14T08:57:30Z</time>
      </trkpt>
      <trkpt lat="37.981734" lon="-1.171881">
        <ele>48.7</ele>
        <time>2024-01-14T08:57:43Z</time>
      </trkpt>
      <trkpt lat="37.981912" lon="-1.171946">
        <ele>46.7</ele>
        <time>2024-01-14T08:58:04Z</time>
      </trkpt>
      <trkpt lat="37.982090" lon="-1.172013">
        <ele>46.7</ele>
        <time>2024-01-14T08:58:18Z</time>
      </trkpt>
      <trkpt lat="37.982271" lon="-1.172076">
        <ele>49.7</ele>
        <time>2024-01-14T08:58:32Z</time>
      </trkpt>
      <trkpt lat="37.982436" lon="-1.172176">
        <ele>48.7</ele>
        <time>2024-01-14T08:58:46Z</time>
      </trkpt>
      <trkpt lat="37.982529" lon="-1.172228">
        <ele>47.7</ele>
        <time>2024-01-14T08:59:05Z</time>
      </trkpt>
      <trkpt lat="37.982633" lon="-1.172272">
        <ele>46.7</ele>
        <time>2024-01-14T09:00:11Z</time>
      </trkpt>
      <trkpt lat="37.982818" lon="-1.172286">
        <ele>47.7</ele>
        <time>2024-01-14T09:00:22Z</time>
      </trkpt>
      <trkpt lat="37.982992" lon="-1.172350">
        <ele>46.8</ele>
        <time>2024-01-14T09:00:35Z</time>
      </trkpt>
      <trkpt lat="37.983170" lon="-1.172389">
        <ele>48.6</ele>
        <time>2024-01-14T09:00:46Z</time>
      </trkpt>
      <trkpt lat="37.983350" lon="-1.172398">
        <ele>47.8</ele>
        <time>2024-01-14T09:00:59Z</time>
      </trkpt>
      <trkpt lat="37.983537" lon="-1.172393">
        <ele>48.7</ele>
        <time>2024-01-14T09:01:13Z</time>
      </trkpt>
      <trkpt lat="37.983717" lon="-1.172376">
        <ele>49.6</ele>
        <time>2024-01-14T09:01:25Z</time>
      </trkpt>
      <trkpt lat="37.983899" lon="-1.172332">
        <ele>49.6</ele>
        <time>2024-01-14T09:01:39Z</time>
      </trkpt>
      <trkpt lat="37.984080" lon="-1.172277">
        <ele>48.7</ele>
        <time>2024-01-14T09:01:52Z</time>
      </trkpt>
      <trkpt lat="37.984260" lon="-1.172221">
        <ele>48.7</ele>
        <time>2024-01-14T09:02:05Z</time>
      </trkpt>
      <trkpt lat="37.984440" lon="-1.172155">
        <ele>50.2</ele>
        <time>2024-01-14T09:02:19Z</time>
      </trkpt>
      <trkpt lat="37.984603" lon="-1.172052">
        <ele>48.4</ele>
        <time>2024-01-14T09:02:42Z</time>
      </trkpt>
      <trkpt lat="37.984713" lon="-1.171951">
        <ele>48.4</ele>
        <time>2024-01-14T09:26:09Z</time>
      </trkpt>
      <trkpt lat="37.984766" lon="-1.171849">
        <ele>48.4</ele>
        <time>2024-01-14T09:26:48Z</time>
      </trkpt>
      <trkpt lat="37.984847" lon="-1.171633">
        <ele>48.4</ele>
        <time>2024-01-14T09:27:23Z</time>
      </trkpt>
      <trkpt lat="37.984892" lon="-1.171409">
        <ele>47.8</ele>
        <time>2024-01-14T09:27:34Z</time>
      </trkpt>
      <trkpt lat="37.984897" lon="-1.171175">
        <ele>46.7</ele>
        <time>2024-01-14T09:27:49Z</time>
      </trkpt>
      <trkpt lat="37.984947" lon="-1.170955">
        <ele>47.7</ele>
        <time>2024-01-14T09:28:02Z</time>
      </trkpt>
      <trkpt lat="37.984974" lon="-1.170726">
        <ele>47.7</ele>
        <time>2024-01-14T09:28:18Z</time>
      </trkpt>
      <trkpt lat="37.984965" lon="-1.170496">
        <ele>48.7</ele>
        <time>2024-01-14T09:28:30Z</time>
      </trkpt>
      <trkpt lat="37.984984" lon="-1.170258">
        <ele>47.7</ele>
        <time>2024-01-14T09:28:44Z</time>
      </trkpt>
      <trkpt lat="37.985013" lon="-1.170031">
        <ele>45.7</ele>
        <time>2024-01-14T09:28:58Z</time>
      </trkpt>
      <trkpt lat="37.985032" lon="-1.169803">
        <ele>48.9</ele>
        <time>2024-01-14T09:29:58Z</time>
      </trkpt>
      <trkpt lat="37.984999" lon="-1.169576">
        <ele>48.9</ele>
        <time>2024-01-14T09:30:09Z</time>
      </trkpt>
      <trkpt lat="37.985007" lon="-1.169341">
        <ele>48.9</ele>
        <time>2024-01-14T09:30:23Z</time>
      </trkpt>
      <trkpt lat="37.985015" lon="-1.169108">
        <ele>48.9</ele>
        <time>2024-01-14T09:30:35Z</time>
      </trkpt>
      <trkpt lat="37.985051" lon="-1.168879">
        <ele>48.9</ele>
        <time>2024-01-14T09:30:47Z</time>
      </trkpt>
      <trkpt lat="37.985054" lon="-1.168651">
        <ele>46.7</ele>
        <time>2024-01-14T09:30:59Z</time>
      </trkpt>
      <trkpt lat="37.985057" lon="-1.168414">
        <ele>46.7</ele>
        <time>2024-01-14T09:31:11Z</time>
      </trkpt>
      <trkpt lat="37.985077" lon="-1.168181">
        <ele>48.7</ele>
        <time>2024-01-14T09:31:24Z</time>
      </trkpt>
      <trkpt lat="37.985101" lon="-1.167949">
        <ele>48.0</ele>
        <time>2024-01-14T09:31:38Z</time>
      </trkpt>
      <trkpt lat="37.985186" lon="-1.166543">
        <ele>47.4</ele>
        <time>2024-01-14T09:32:55Z</time>
      </trkpt>
      <trkpt lat="37.985205" lon="-1.166311">
        <ele>47.9</ele>
        <time>2024-01-14T09:33:08Z</time>
      </trkpt>
      <trkpt lat="37.985186" lon="-1.166082">
        <ele>50.7</ele>
        <time>2024-01-14T09:33:21Z</time>
      </trkpt>
      <trkpt lat="37.985202" lon="-1.165848">
        <ele>48.0</ele>
        <time>2024-01-14T09:33:35Z</time>
      </trkpt>
      <trkpt lat="37.985219" lon="-1.165615">
        <ele>47.7</ele>
        <time>2024-01-14T09:33:48Z</time>
      </trkpt>
      <trkpt lat="37.985223" lon="-1.165379">
        <ele>44.7</ele>
        <time>2024-01-14T09:34:01Z</time>
      </trkpt>
      <trkpt lat="37.985238" lon="-1.165127">
        <ele>45.7</ele>
        <time>2024-01-14T09:34:14Z</time>
      </trkpt>
      <trkpt lat="37.985276" lon="-1.164905">
        <ele>46.7</ele>
        <time>2024-01-14T09:34:27Z</time>
      </trkpt>
      <trkpt lat="37.985263" lon="-1.164670">
        <ele>44.7</ele>
        <time>2024-01-14T09:34:40Z</time>
      </trkpt>
      <trkpt lat="37.985267" lon="-1.164438">
        <ele>45.7</ele>
        <time>2024-01-14T09:34:53Z</time>
      </trkpt>
      <trkpt lat="37.985265" lon="-1.164200">
        <ele>45.7</ele>
        <time>2024-01-14T09:35:05Z</time>
      </trkpt>
      <trkpt lat="37.985275" lon="-1.163966">
        <ele>46.7</ele>
        <time>2024-01-14T09:35:17Z</time>
      </trkpt>
      <trkpt lat="37.985290" lon="-1.163730">
        <ele>47.7</ele>
        <time>2024-01-14T09:35:29Z</time>
      </trkpt>
      <trkpt lat="37.985301" lon="-1.163495">
        <ele>47.7</ele>
        <time>2024-01-14T09:35:41Z</time>
      </trkpt>
      <trkpt lat="37.985317" lon="-1.163263">
        <ele>47.7</ele>
        <time>2024-01-14T09:35:55Z</time>
      </trkpt>
      <trkpt lat="37.985339" lon="-1.163022">
        <ele>46.7</ele>
        <time>2024-01-14T09:36:07Z</time>
      </trkpt>
      <trkpt lat="37.985341" lon="-1.162785">
        <ele>47.7</ele>
        <time>2024-01-14T09:36:20Z</time>
      </trkpt>
      <trkpt lat="37.985339" lon="-1.162550">
        <ele>47.7</ele>
        <time>2024-01-14T09:36:32Z</time>
      </trkpt>
      <trkpt lat="37.985346" lon="-1.162322">
        <ele>47.4</ele>
        <time>2024-01-14T09:36:44Z</time>
      </trkpt>
      <trkpt lat="37.985365" lon="-1.162089">
        <ele>45.7</ele>
        <time>2024-01-14T09:36:57Z</time>
      </trkpt>
      <trkpt lat="37.985364" lon="-1.161857">
        <ele>45.7</ele>
        <time>2024-01-14T09:37:10Z</time>
      </trkpt>
      <trkpt lat="37.985334" lon="-1.161624">
        <ele>46.7</ele>
        <time>2024-01-14T09:37:22Z</time>
      </trkpt>
      <trkpt lat="37.985294" lon="-1.161395">
        <ele>45.7</ele>
        <time>2024-01-14T09:37:35Z</time>
      </trkpt>
      <trkpt lat="37.985228" lon="-1.161164">
        <ele>45.7</ele>
        <time>2024-01-14T09:37:47Z</time>
      </trkpt>
      <trkpt lat="37.985148" lon="-1.160954">
        <ele>44.8</ele>
        <time>2024-01-14T09:38:01Z</time>
      </trkpt>
      <trkpt lat="37.985066" lon="-1.160739">
        <ele>46.7</ele>
        <time>2024-01-14T09:38:14Z</time>
      </trkpt>
      <trkpt lat="37.984964" lon="-1.160551">
        <ele>48.2</ele>
        <time>2024-01-14T09:38:26Z</time>
      </trkpt>
      <trkpt lat="37.984848" lon="-1.160364">
        <ele>48.2</ele>
        <time>2024-01-14T09:38:39Z</time>
      </trkpt>
      <trkpt lat="37.984714" lon="-1.160207">
        <ele>48.2</ele>
        <time>2024-01-14T09:38:52Z</time>
      </trkpt>
      <trkpt lat="37.984577" lon="-1.160059">
        <ele>44.7</ele>
        <time>2024-01-14T09:39:06Z</time>
      </trkpt>
      <trkpt lat="37.984423" lon="-1.159928">
        <ele>47.8</ele>
        <time>2024-01-14T09:39:19Z</time>
      </trkpt>
      <trkpt lat="37.984259" lon="-1.159819">
        <ele>47.3</ele>
        <time>2024-01-14T09:39:32Z</time>
      </trkpt>
      <trkpt lat="37.984103" lon="-1.159701">
        <ele>47.3</ele>
        <time>2024-01-14T09:39:47Z</time>
      </trkpt>
      <trkpt lat="37.983929" lon="-1.159628">
        <ele>47.3</ele>
        <time>2024-01-14T09:40:03Z</time>
      </trkpt>
      <trkpt lat="37.983761" lon="-1.159540">
        <ele>47.3</ele>
        <time>2024-01-14T09:40:17Z</time>
      </trkpt>
      <trkpt lat="37.983590" lon="-1.159467">
        <ele>47.3</ele>
        <time>2024-01-14T09:40:31Z</time>
      </trkpt>
      <trkpt lat="37.983429" lon="-1.159365">
        <ele>47.3</ele>
        <time>2024-01-14T09:40:48Z</time>
      </trkpt>
      <trkpt lat="37.983256" lon="-1.159289">
        <ele>47.3</ele>
        <time>2024-01-14T09:41:00Z</time>
      </trkpt>
      <trkpt lat="37.983082" lon="-1.159222">
        <ele>47.3</ele>
        <time>2024-01-14T09:41:13Z</time>
      </trkpt>
      <trkpt lat="37.982910" lon="-1.159146">
        <ele>47.3</ele>
        <time>2024-01-14T09:41:27Z</time>
      </trkpt>
      <trkpt lat="37.982730" lon="-1.159078">
        <ele>45.4</ele>
        <time>2024-01-14T09:41:41Z</time>
      </trkpt>
      <trkpt lat="37.982563" lon="-1.158994">
        <ele>48.1</ele>
        <time>2024-01-14T09:41:55Z</time>
      </trkpt>
      <trkpt lat="37.982381" lon="-1.158961">
        <ele>47.3</ele>
        <time>2024-01-14T09:42:09Z</time>
      </trkpt>
      <trkpt lat="37.982210" lon="-1.158887">
        <ele>45.4</ele>
        <time>2024-01-14T09:42:50Z</time>
      </trkpt>
      <trkpt lat="37.982025" lon="-1.158885">
        <ele>46.6</ele>
        <time>2024-01-14T09:43:02Z</time>
      </trkpt>
      <trkpt lat="37.981844" lon="-1.158887">
        <ele>47.3</ele>
        <time>2024-01-14T09:43:22Z</time>
      </trkpt>
      <trkpt lat="37.981664" lon="-1.158880">
        <ele>47.3</ele>
        <time>2024-01-14T09:43:49Z</time>
      </trkpt>
      <trkpt lat="37.981482" lon="-1.158898">
        <ele>47.3</ele>
        <time>2024-01-14T09:44:07Z</time>
      </trkpt>
      <trkpt lat="37.981302" lon="-1.158931">
        <ele>47.3</ele>
        <time>2024-01-14T09:44:21Z</time>
      </trkpt>
      <trkpt lat="37.981133" lon="-1.159017">
        <ele>47.3</ele>
        <time>2024-01-14T09:44:38Z</time>
      </trkpt>
      <trkpt lat="37.980955" lon="-1.159079">
        <ele>47.3</ele>
        <time>2024-01-14T09:44:53Z</time>
      </trkpt>
      <trkpt lat="37.980778" lon="-1.159144">
        <ele>47.9</ele>
        <time>2024-01-14T09:45:08Z</time>
      </trkpt>
      <trkpt lat="37.980597" lon="-1.159180">
        <ele>47.6</ele>
        <time>2024-01-14T09:45:24Z</time>
      </trkpt>
      <trkpt lat="37.980423" lon="-1.159241">
        <ele>47.6</ele>
        <time>2024-01-14T09:45:37Z</time>
      </trkpt>
      <trkpt lat="37.980241" lon="-1.159240">
        <ele>47.5</ele>
        <time>2024-01-14T09:45:53Z</time>
      </trkpt>
      <trkpt lat="37.980060" lon="-1.159232">
        <ele>47.3</ele>
        <time>2024-01-14T09:46:08Z</time>
      </trkpt>
      <trkpt lat="37.979884" lon="-1.159180">
        <ele>47.3</ele>
        <time>2024-01-14T09:46:24Z</time>
      </trkpt>
      <trkpt lat="37.979702" lon="-1.159132">
        <ele>47.6</ele>
        <time>2024-01-14T09:46:41Z</time>
      </trkpt>
      <trkpt lat="37.979532" lon="-1.159058">
        <ele>47.3</ele>
        <time>2024-01-14T09:46:55Z</time>
      </trkpt>
      <trkpt lat="37.979368" lon="-1.158960">
        <ele>47.3</ele>
        <time>2024-01-14T09:47:10Z</time>
      </trkpt>
      <trkpt lat="37.979211" lon="-1.158839">
        <ele>47.3</ele>
        <time>2024-01-14T09:47:25Z</time>
      </trkpt>
      <trkpt lat="37.979056" lon="-1.158705">
        <ele>47.9</ele>
        <time>2024-01-14T09:47:40Z</time>
      </trkpt>
      <trkpt lat="37.978912" lon="-1.158554">
        <ele>47.4</ele>
        <time>2024-01-14T09:47:54Z</time>
      </trkpt>
      <trkpt lat="37.978781" lon="-1.158394">
        <ele>47.9</ele>
        <time>2024-01-14T09:48:09Z</time>
      </trkpt>
      <trkpt lat="37.978668" lon="-1.158215">
        <ele>47.4</ele>
        <time>2024-01-14T09:48:23Z</time>
      </trkpt>
      <trkpt lat="37.978563" lon="-1.158021">
        <ele>47.9</ele>
        <time>2024-01-14T09:48:39Z</time>
      </trkpt>
      <trkpt lat="37.978460" lon="-1.157832">
        <ele>47.4</ele>
        <time>2024-01-14T09:48:54Z</time>
      </trkpt>
      <trkpt lat="37.978361" lon="-1.157640">
        <ele>46.7</ele>
        <time>2024-01-14T09:49:09Z</time>
      </trkpt>
      <trkpt lat="37.978229" lon="-1.157468">
        <ele>46.5</ele>
        <time>2024-01-14T09:49:27Z</time>
      </trkpt>
      <trkpt lat="37.978131" lon="-1.157275">
        <ele>47.8</ele>
        <time>2024-01-14T09:49:41Z</time>
      </trkpt>
      <trkpt lat="37.978037" lon="-1.157079">
        <ele>46.7</ele>
        <time>2024-01-14T09:49:56Z</time>
      </trkpt>
      <trkpt lat="37.977937" lon="-1.156871">
        <ele>46.7</ele>
        <time>2024-01-14T09:50:13Z</time>
      </trkpt>
      <trkpt lat="37.977834" lon="-1.156675">
        <ele>45.7</ele>
        <time>2024-01-14T09:50:29Z</time>
      </trkpt>
      <trkpt lat="37.977720" lon="-1.156487">
        <ele>47.0</ele>
        <time>2024-01-14T09:50:45Z</time>
      </trkpt>
      <trkpt lat="37.977607" lon="-1.156304">
        <ele>44.7</ele>
        <time>2024-01-14T09:51:00Z</time>
      </trkpt>
      <trkpt lat="37.977490" lon="-1.156126">
        <ele>44.8</ele>
        <time>2024-01-14T09:51:15Z</time>
      </trkpt>
      <trkpt lat="37.977380" lon="-1.155942">
        <ele>44.7</ele>
        <time>2024-01-14T09:51:29Z</time>
      </trkpt>
      <trkpt lat="37.977249" lon="-1.155778">
        <ele>50.0</ele>
        <time>2024-01-14T09:51:46Z</time>
      </trkpt>
      <trkpt lat="37.977108" lon="-1.155618">
        <ele>50.0</ele>
        <time>2024-01-14T09:52:02Z</time>
      </trkpt>
      <trkpt lat="37.976978" lon="-1.155450">
        <ele>49.3</ele>
        <time>2024-01-14T09:52:18Z</time>
      </trkpt>
      <trkpt lat="37.976836" lon="-1.155307">
        <ele>50.0</ele>
        <time>2024-01-14T09:52:35Z</time>
      </trkpt>
      <trkpt lat="37.976674" lon="-1.155201">
        <ele>50.0</ele>
        <time>2024-01-14T09:52:49Z</time>
      </trkpt>
      <trkpt lat="37.976516" lon="-1.155070">
        <ele>50.0</ele>
        <time>2024-01-14T09:53:05Z</time>
      </trkpt>
      <trkpt lat="37.976379" lon="-1.154914">
        <ele>47.1</ele>
        <time>2024-01-14T09:53:19Z</time>
      </trkpt>
      <trkpt lat="37.976266" lon="-1.154722">
        <ele>50.0</ele>
        <time>2024-01-14T09:53:34Z</time>
      </trkpt>
      <trkpt lat="37.976187" lon="-1.154507">
        <ele>50.0</ele>
        <time>2024-01-14T09:53:50Z</time>
      </trkpt>
      <trkpt lat="37.976142" lon="-1.154278">
        <ele>46.7</ele>
        <time>2024-01-14T09:54:04Z</time>
      </trkpt>
      <trkpt lat="37.976134" lon="-1.154046">
        <ele>50.0</ele>
        <time>2024-01-14T09:54:18Z</time>
      </trkpt>
      <trkpt lat="37.976171" lon="-1.153814">
        <ele>50.0</ele>
        <time>2024-01-14T09:54:33Z</time>
      </trkpt>
      <trkpt lat="37.976226" lon="-1.153593">
        <ele>47.1</ele>
        <time>2024-01-14T09:54:48Z</time>
      </trkpt>
      <trkpt lat="37.976289" lon="-1.153378">
        <ele>47.1</ele>
        <time>2024-01-14T09:55:04Z</time>
      </trkpt>
      <trkpt lat="37.976381" lon="-1.153174">
        <ele>47.1</ele>
        <time>2024-01-14T09:55:19Z</time>
      </trkpt>
      <trkpt lat="37.976478" lon="-1.152974">
        <ele>47.0</ele>
        <time>2024-01-14T09:55:34Z</time>
      </trkpt>
      <trkpt lat="37.976572" lon="-1.152779">
        <ele>47.0</ele>
        <time>2024-01-14T09:55:49Z</time>
      </trkpt>
      <trkpt lat="37.976674" lon="-1.152587">
        <ele>46.7</ele>
        <time>2024-01-14T09:56:03Z</time>
      </trkpt>
      <trkpt lat="37.976768" lon="-1.152391">
        <ele>47.7</ele>
        <time>2024-01-14T09:56:17Z</time>
      </trkpt>
      <trkpt lat="37.976873" lon="-1.152197">
        <ele>48.7</ele>
        <time>2024-01-14T09:56:33Z</time>
      </trkpt>
      <trkpt lat="37.976961" lon="-1.151989">
        <ele>47.7</ele>
        <time>2024-01-14T09:56:48Z</time>
      </trkpt>
      <trkpt lat="37.977061" lon="-1.151793">
        <ele>47.0</ele>
        <time>2024-01-14T09:57:03Z</time>
      </trkpt>
      <trkpt lat="37.977183" lon="-1.151610">
        <ele>47.1</ele>
        <time>2024-01-14T09:57:19Z</time>
      </trkpt>
      <trkpt lat="37.977303" lon="-1.151434">
        <ele>47.1</ele>
        <time>2024-01-14T09:57:34Z</time>
      </trkpt>
      <trkpt lat="37.977426" lon="-1.151261">
        <ele>47.1</ele>
        <time>2024-01-14T09:57:49Z</time>
      </trkpt>
      <trkpt lat="37.977560" lon="-1.151108">
        <ele>46.4</ele>
        <time>2024-01-14T09:58:05Z</time>
      </trkpt>
      <trkpt lat="37.977704" lon="-1.150969">
        <ele>47.1</ele>
        <time>2024-01-14T09:58:21Z</time>
      </trkpt>
      <trkpt lat="37.977851" lon="-1.150829">
        <ele>46.4</ele>
        <time>2024-01-14T09:58:36Z</time>
      </trkpt>
      <trkpt lat="37.978010" lon="-1.150703">
        <ele>45.8</ele>
        <time>2024-01-14T09:58:51Z</time>
      </trkpt>
      <trkpt lat="37.978152" lon="-1.150548">
        <ele>45.7</ele>
        <time>2024-01-14T09:59:07Z</time>
      </trkpt>
      <trkpt lat="37.978300" lon="-1.150417">
        <ele>46.7</ele>
        <time>2024-01-14T09:59:21Z</time>
      </trkpt>
      <trkpt lat="37.978438" lon="-1.150261">
        <ele>46.7</ele>
        <time>2024-01-14T09:59:37Z</time>
      </trkpt>
      <trkpt lat="37.978579" lon="-1.150118">
        <ele>46.7</ele>
        <time>2024-01-14T09:59:52Z</time>
      </trkpt>
      <trkpt lat="37.978694" lon="-1.149941">
        <ele>45.8</ele>
        <time>2024-01-14T10:00:08Z</time>
      </trkpt>
      <trkpt lat="37.978810" lon="-1.149763">
        <ele>45.7</ele>
        <time>2024-01-14T10:00:23Z</time>
      </trkpt>
      <trkpt lat="37.978935" lon="-1.149596">
        <ele>44.7</ele>
        <time>2024-01-14T10:00:39Z</time>
      </trkpt>
      <trkpt lat="37.979054" lon="-1.149415">
        <ele>46.7</ele>
        <time>2024-01-14T10:00:55Z</time>
      </trkpt>
      <trkpt lat="37.979190" lon="-1.149254">
        <ele>44.7</ele>
        <time>2024-01-14T10:01:11Z</time>
      </trkpt>
      <trkpt lat="37.979320" lon="-1.149092">
        <ele>46.4</ele>
        <time>2024-01-14T10:01:25Z</time>
      </trkpt>
      <trkpt lat="37.979448" lon="-1.148922">
        <ele>46.7</ele>
        <time>2024-01-14T10:01:40Z</time>
      </trkpt>
      <trkpt lat="37.979580" lon="-1.148760">
        <ele>47.0</ele>
        <time>2024-01-14T10:01:55Z</time>
      </trkpt>
      <trkpt lat="37.979726" lon="-1.148609">
        <ele>45.8</ele>
        <time>2024-01-14T10:02:11Z</time>
      </trkpt>
      <trkpt lat="37.979866" lon="-1.148458">
        <ele>46.5</ele>
        <time>2024-01-14T10:02:27Z</time>
      </trkpt>
      <trkpt lat="37.980018" lon="-1.148316">
        <ele>46.8</ele>
        <time>2024-01-14T10:02:44Z</time>
      </trkpt>
      <trkpt lat="37.980148" lon="-1.148154">
        <ele>46.8</ele>
        <time>2024-01-14T10:02:58Z</time>
      </trkpt>
      <trkpt lat="37.980291" lon="-1.148009">
        <ele>46.8</ele>
        <time>2024-01-14T10:03:14Z</time>
      </trkpt>
      <trkpt lat="37.980441" lon="-1.147879">
        <ele>46.8</ele>
        <time>2024-01-14T10:03:29Z</time>
      </trkpt>
      <trkpt lat="37.980606" lon="-1.147757">
        <ele>46.8</ele>
        <time>2024-01-14T10:03:44Z</time>
      </trkpt>
      <trkpt lat="37.980763" lon="-1.147630">
        <ele>44.7</ele>
        <time>2024-01-14T10:04:00Z</time>
      </trkpt>
      <trkpt lat="37.980917" lon="-1.147506">
        <ele>46.8</ele>
        <time>2024-01-14T10:04:15Z</time>
      </trkpt>
      <trkpt lat="37.981066" lon="-1.147369">
        <ele>46.8</ele>
        <time>2024-01-14T10:04:31Z</time>
      </trkpt>
      <trkpt lat="37.981216" lon="-1.147228">
        <ele>46.8</ele>
        <time>2024-01-14T10:04:46Z</time>
      </trkpt>
      <trkpt lat="37.981372" lon="-1.147107">
        <ele>46.5</ele>
        <time>2024-01-14T10:05:00Z</time>
      </trkpt>
      <trkpt lat="37.981515" lon="-1.146964">
        <ele>46.5</ele>
        <time>2024-01-14T10:05:16Z</time>
      </trkpt>
      <trkpt lat="37.981650" lon="-1.146804">
        <ele>46.5</ele>
        <time>2024-01-14T10:05:30Z</time>
      </trkpt>
      <trkpt lat="37.981756" lon="-1.146615">
        <ele>46.5</ele>
        <time>2024-01-14T10:05:55Z</time>
      </trkpt>
      <trkpt lat="37.981842" lon="-1.146400">
        <ele>46.5</ele>
        <time>2024-01-14T10:06:09Z</time>
      </trkpt>
      <trkpt lat="37.981939" lon="-1.146208">
        <ele>46.5</ele>
        <time>2024-01-14T10:06:31Z</time>
      </trkpt>
      <trkpt lat="37.981993" lon="-1.145988">
        <ele>46.5</ele>
        <time>2024-01-14T10:06:44Z</time>
      </trkpt>
      <trkpt lat="37.982042" lon="-1.145758">
        <ele>46.8</ele>
        <time>2024-01-14T10:07:01Z</time>
      </trkpt>
      <trkpt lat="37.982061" lon="-1.145521">
        <ele>46.8</ele>
        <time>2024-01-14T10:07:16Z</time>
      </trkpt>
      <trkpt lat="37.982054" lon="-1.145291">
        <ele>46.8</ele>
        <time>2024-01-14T10:07:30Z</time>
      </trkpt>
      <trkpt lat="37.982021" lon="-1.145053">
        <ele>46.8</ele>
        <time>2024-01-14T10:07:45Z</time>
      </trkpt>
      <trkpt lat="37.981987" lon="-1.144819">
        <ele>46.8</ele>
        <time>2024-01-14T10:08:01Z</time>
      </trkpt>
      <trkpt lat="37.981927" lon="-1.144598">
        <ele>46.4</ele>
        <time>2024-01-14T10:08:16Z</time>
      </trkpt>
      <trkpt lat="37.981849" lon="-1.144377">
        <ele>46.4</ele>
        <time>2024-01-14T10:08:32Z</time>
      </trkpt>
      <trkpt lat="37.981755" lon="-1.144171">
        <ele>46.4</ele>
        <time>2024-01-14T10:08:47Z</time>
      </trkpt>
      <trkpt lat="37.981641" lon="-1.143981">
        <ele>46.4</ele>
        <time>2024-01-14T10:09:02Z</time>
      </trkpt>
      <trkpt lat="37.981536" lon="-1.143789">
        <ele>46.4</ele>
        <time>2024-01-14T10:09:16Z</time>
      </trkpt>
      <trkpt lat="37.981432" lon="-1.143586">
        <ele>46.4</ele>
        <time>2024-01-14T10:09:31Z</time>
      </trkpt>
      <trkpt lat="37.981330" lon="-1.143397">
        <ele>45.2</ele>
        <time>2024-01-14T10:09:44Z</time>
      </trkpt>
      <trkpt lat="37.981221" lon="-1.143215">
        <ele>45.0</ele>
        <time>2024-01-14T10:09:58Z</time>
      </trkpt>
      <trkpt lat="37.981114" lon="-1.143022">
        <ele>44.6</ele>
        <time>2024-01-14T10:10:14Z</time>
      </trkpt>
      <trkpt lat="37.980979" lon="-1.142860">
        <ele>42.0</ele>
        <time>2024-01-14T10:11:45Z</time>
      </trkpt>
      <trkpt lat="37.980860" lon="-1.142669">
        <ele>43.4</ele>
        <time>2024-01-14T10:11:56Z</time>
      </trkpt>
      <trkpt lat="37.980737" lon="-1.142481">
        <ele>43.7</ele>
        <time>2024-01-14T10:12:09Z</time>
      </trkpt>
      <trkpt lat="37.980624" lon="-1.142301">
        <ele>45.9</ele>
        <time>2024-01-14T10:12:21Z</time>
      </trkpt>
      <trkpt lat="37.980507" lon="-1.142110">
        <ele>45.9</ele>
        <time>2024-01-14T10:12:34Z</time>
      </trkpt>
      <trkpt lat="37.980375" lon="-1.141938">
        <ele>45.6</ele>
        <time>2024-01-14T10:12:47Z</time>
      </trkpt>
      <trkpt lat="37.980234" lon="-1.141772">
        <ele>44.7</ele>
        <time>2024-01-14T10:12:59Z</time>
      </trkpt>
      <trkpt lat="37.980087" lon="-1.141636">
        <ele>44.7</ele>
        <time>2024-01-14T10:13:11Z</time>
      </trkpt>
      <trkpt lat="37.979938" lon="-1.141497">
        <ele>46.0</ele>
        <time>2024-01-14T10:13:23Z</time>
      </trkpt>
      <trkpt lat="37.979806" lon="-1.141335">
        <ele>44.6</ele>
        <time>2024-01-14T10:13:35Z</time>
      </trkpt>
      <trkpt lat="37.979662" lon="-1.141188">
        <ele>41.8</ele>
        <time>2024-01-14T10:13:49Z</time>
      </trkpt>
      <trkpt lat="37.979551" lon="-1.141004">
        <ele>45.6</ele>
        <time>2024-01-14T10:14:02Z</time>
      </trkpt>
      <trkpt lat="37.979404" lon="-1.140870">
        <ele>46.2</ele>
        <time>2024-01-14T10:14:23Z</time>
      </trkpt>
      <trkpt lat="37.979240" lon="-1.140740">
        <ele>45.9</ele>
        <time>2024-01-14T10:14:37Z</time>
      </trkpt>
      <trkpt lat="37.979102" lon="-1.140589">
        <ele>45.7</ele>
        <time>2024-01-14T10:14:49Z</time>
      </trkpt>
      <trkpt lat="37.978982" lon="-1.140407">
        <ele>45.5</ele>
        <time>2024-01-14T10:15:01Z</time>
      </trkpt>
      <trkpt lat="37.978897" lon="-1.140188">
        <ele>45.0</ele>
        <time>2024-01-14T10:15:15Z</time>
      </trkpt>
      <trkpt lat="37.978843" lon="-1.139964">
        <ele>43.8</ele>
        <time>2024-01-14T10:15:29Z</time>
      </trkpt>
      <trkpt lat="37.978814" lon="-1.139738">
        <ele>45.9</ele>
        <time>2024-01-14T10:15:43Z</time>
      </trkpt>
      <trkpt lat="37.978797" lon="-1.139503">
        <ele>46.7</ele>
        <time>2024-01-14T10:15:58Z</time>
      </trkpt>
      <trkpt lat="37.978811" lon="-1.139266">
        <ele>46.2</ele>
        <time>2024-01-14T10:16:13Z</time>
      </trkpt>
      <trkpt lat="37.978846" lon="-1.139041">
        <ele>46.2</ele>
        <time>2024-01-14T10:16:27Z</time>
      </trkpt>
      <trkpt lat="37.978888" lon="-1.138819">
        <ele>45.8</ele>
        <time>2024-01-14T10:16:41Z</time>
      </trkpt>
      <trkpt lat="37.978971" lon="-1.138608">
        <ele>45.9</ele>
        <time>2024-01-14T10:16:56Z</time>
      </trkpt>
      <trkpt lat="37.979041" lon="-1.138375">
        <ele>46.2</ele>
        <time>2024-01-14T10:17:11Z</time>
      </trkpt>
      <trkpt lat="37.979115" lon="-1.138164">
        <ele>46.6</ele>
        <time>2024-01-14T10:17:26Z</time>
      </trkpt>
      <trkpt lat="37.979195" lon="-1.137958">
        <ele>46.2</ele>
        <time>2024-01-14T10:17:54Z</time>
      </trkpt>
      <trkpt lat="37.979281" lon="-1.137748">
        <ele>46.2</ele>
        <time>2024-01-14T10:18:12Z</time>
      </trkpt>
      <trkpt lat="37.979364" lon="-1.137537">
        <ele>46.2</ele>
        <time>2024-01-14T10:18:35Z</time>
      </trkpt>
      <trkpt lat="37.979450" lon="-1.137317">
        <ele>46.2</ele>
        <time>2024-01-14T10:19:15Z</time>
      </trkpt>
      <trkpt lat="37.979511" lon="-1.137090">
        <ele>46.2</ele>
        <time>2024-01-14T10:19:27Z</time>
      </trkpt>
      <trkpt lat="37.979582" lon="-1.136874">
        <ele>46.2</ele>
        <time>2024-01-14T10:19:44Z</time>
      </trkpt>
      <trkpt lat="37.979654" lon="-1.136662">
        <ele>43.7</ele>
        <time>2024-01-14T10:20:04Z</time>
      </trkpt>
      <trkpt lat="37.979732" lon="-1.136442">
        <ele>44.4</ele>
        <time>2024-01-14T10:20:23Z</time>
      </trkpt>
      <trkpt lat="37.979854" lon="-1.136270">
        <ele>45.1</ele>
        <time>2024-01-14T10:22:34Z</time>
      </trkpt>
      <trkpt lat="37.979886" lon="-1.136036">
        <ele>42.7</ele>
        <time>2024-01-14T10:24:08Z</time>
      </trkpt>
      <trkpt lat="37.979995" lon="-1.135848">
        <ele>45.1</ele>
        <time>2024-01-14T10:24:25Z</time>
      </trkpt>
      <trkpt lat="37.980133" lon="-1.135695">
        <ele>44.4</ele>
        <time>2024-01-14T10:24:53Z</time>
      </trkpt>
      <trkpt lat="37.980257" lon="-1.135507">
        <ele>45.9</ele>
        <time>2024-01-14T10:25:12Z</time>
      </trkpt>
      <trkpt lat="37.980393" lon="-1.135345">
        <ele>45.9</ele>
        <time>2024-01-14T10:25:37Z</time>
      </trkpt>
      <trkpt lat="37.980532" lon="-1.135199">
        <ele>45.8</ele>
        <time>2024-01-14T10:25:50Z</time>
      </trkpt>
      <trkpt lat="37.980681" lon="-1.135060">
        <ele>44.6</ele>
        <time>2024-01-14T10:26:08Z</time>
      </trkpt>
      <trkpt lat="37.980822" lon="-1.134917">
        <ele>44.9</ele>
        <time>2024-01-14T10:26:24Z</time>
      </trkpt>
      <trkpt lat="37.980988" lon="-1.134827">
        <ele>46.2</ele>
        <time>2024-01-14T10:27:41Z</time>
      </trkpt>
      <trkpt lat="37.981143" lon="-1.134692">
        <ele>45.6</ele>
        <time>2024-01-14T10:27:59Z</time>
      </trkpt>
      <trkpt lat="37.981309" lon="-1.134578">
        <ele>44.8</ele>
        <time>2024-01-14T10:28:18Z</time>
      </trkpt>
      <trkpt lat="37.981468" lon="-1.134469">
        <ele>44.7</ele>
        <time>2024-01-14T10:28:35Z</time>
      </trkpt>
      <trkpt lat="37.981631" lon="-1.134365">
        <ele>44.7</ele>
        <time>2024-01-14T10:28:50Z</time>
      </trkpt>
      <trkpt lat="37.981784" lon="-1.134243">
        <ele>44.9</ele>
        <time>2024-01-14T10:29:07Z</time>
      </trkpt>
      <trkpt lat="37.981930" lon="-1.134101">
        <ele>44.6</ele>
        <time>2024-01-14T10:30:23Z</time>
      </trkpt>
      <trkpt lat="37.982090" lon="-1.133986">
        <ele>44.6</ele>
        <time>2024-01-14T10:31:26Z</time>
      </trkpt>
      <trkpt lat="37.982237" lon="-1.133853">
        <ele>44.6</ele>
        <time>2024-01-14T10:31:56Z</time>
      </trkpt>
      <trkpt lat="37.982390" lon="-1.133732">
        <ele>44.6</ele>
        <time>2024-01-14T10:32:22Z</time>
      </trkpt>
      <trkpt lat="37.982515" lon="-1.133556">
        <ele>44.5</ele>
        <time>2024-01-14T10:33:24Z</time>
      </trkpt>
      <trkpt lat="37.982654" lon="-1.133409">
        <ele>44.6</ele>
        <time>2024-01-14T10:33:47Z</time>
      </trkpt>
      <trkpt lat="37.982788" lon="-1.133251">
        <ele>44.1</ele>
        <time>2024-01-14T10:34:30Z</time>
      </trkpt>
      <trkpt lat="37.982966" lon="-1.133187">
        <ele>44.8</ele>
        <time>2024-01-14T10:35:46Z</time>
      </trkpt>
      <trkpt lat="37.983013" lon="-1.132964">
        <ele>45.0</ele>
        <time>2024-01-14T10:36:12Z</time>
      </trkpt>
      <trkpt lat="37.982953" lon="-1.132746">
        <ele>45.1</ele>
        <time>2024-01-14T10:36:44Z</time>
      </trkpt>
      <trkpt lat="37.983003" lon="-1.132517">
        <ele>45.2</ele>
        <time>2024-01-14T10:37:12Z</time>
      </trkpt>
      <trkpt lat="37.982991" lon="-1.132277">
        <ele>45.6</ele>
        <time>2024-01-14T10:37:33Z</time>
      </trkpt>
      <trkpt lat="37.983025" lon="-1.132040">
        <ele>45.6</ele>
        <time>2024-01-14T10:37:45Z</time>
      </trkpt>
      <trkpt lat="37.983013" lon="-1.131810">
        <ele>46.0</ele>
        <time>2024-01-14T10:38:04Z</time>
      </trkpt>
      <trkpt lat="37.983029" lon="-1.131583">
        <ele>47.4</ele>
        <time>2024-01-14T10:38:22Z</time>
      </trkpt>
      <trkpt lat="37.983074" lon="-1.131360">
        <ele>45.4</ele>
        <time>2024-01-14T10:38:49Z</time>
      </trkpt>
      <trkpt lat="37.983162" lon="-1.131143">
        <ele>44.8</ele>
        <time>2024-01-14T10:39:03Z</time>
      </trkpt>
      <trkpt lat="37.983348" lon="-1.131100">
        <ele>44.8</ele>
        <time>2024-01-14T10:40:50Z</time>
      </trkpt>
      <trkpt lat="37.983383" lon="-1.130866">
        <ele>44.5</ele>
        <time>2024-01-14T10:44:22Z</time>
      </trkpt>
      <trkpt lat="37.983593" lon="-1.130837">
        <ele>44.1</ele>
        <time>2024-01-14T10:44:59Z</time>
      </trkpt>
      <trkpt lat="37.983637" lon="-1.130583">
        <ele>44.1</ele>
        <time>2024-01-14T10:45:14Z</time>
      </trkpt>
      <trkpt lat="37.983706" lon="-1.130360">
        <ele>43.9</ele>
        <time>2024-01-14T10:45:31Z</time>
      </trkpt>
      <trkpt lat="37.983744" lon="-1.130128">
        <ele>43.8</ele>
        <time>2024-01-14T10:45:50Z</time>
      </trkpt>
      <trkpt lat="37.983818" lon="-1.129908">
        <ele>43.8</ele>
        <time>2024-01-14T10:46:12Z</time>
      </trkpt>
      <trkpt lat="37.983972" lon="-1.129776">
        <ele>43.5</ele>
        <time>2024-01-14T10:47:12Z</time>
      </trkpt>
      <trkpt lat="37.983995" lon="-1.129500">
        <ele>43.5</ele>
        <time>2024-01-14T10:55:23Z</time>
      </trkpt>
      <trkpt lat="37.983890" lon="-1.129481">
        <ele>43.5</ele>
        <time>2024-01-14T10:57:11Z</time>
      </trkpt>
      <trkpt lat="37.983886" lon="-1.129782">
        <ele>43.5</ele>
        <time>2024-01-14T10:57:33Z</time>
      </trkpt>
      <trkpt lat="37.983749" lon="-1.129892">
        <ele>43.5</ele>
        <time>2024-01-14T10:57:50Z</time>
      </trkpt>
      <trkpt lat="37.983426" lon="-1.129951">
        <ele>44.0</ele>
        <time>2024-01-14T10:58:16Z</time>
      </trkpt>
      <trkpt lat="37.983289" lon="-1.129962">
        <ele>45.3</ele>
        <time>2024-01-14T10:58:39Z</time>
      </trkpt>
      <trkpt lat="37.983267" lon="-1.129560">
        <ele>45.5</ele>
        <time>2024-01-14T10:59:13Z</time>
      </trkpt>
      <trkpt lat="37.983110" lon="-1.129434">
        <ele>45.3</ele>
        <time>2024-01-14T10:59:30Z</time>
      </trkpt>
      <trkpt lat="37.982922" lon="-1.129416">
        <ele>45.3</ele>
        <time>2024-01-14T11:00:24Z</time>
      </trkpt>
      <trkpt lat="37.982746" lon="-1.129346">
        <ele>45.3</ele>
        <time>2024-01-14T11:00:43Z</time>
      </trkpt>
      <trkpt lat="37.982649" lon="-1.129148">
        <ele>45.5</ele>
        <time>2024-01-14T11:01:51Z</time>
      </trkpt>
      <trkpt lat="37.982570" lon="-1.128931">
        <ele>45.5</ele>
        <time>2024-01-14T11:02:07Z</time>
      </trkpt>
      <trkpt lat="37.982482" lon="-1.128732">
        <ele>45.5</ele>
        <time>2024-01-14T11:02:24Z</time>
      </trkpt>
      <trkpt lat="37.982426" lon="-1.128504">
        <ele>45.5</ele>
        <time>2024-01-14T11:02:59Z</time>
      </trkpt>
      <trkpt lat="37.982345" lon="-1.128289">
        <ele>45.2</ele>
        <time>2024-01-14T11:03:19Z</time>
      </trkpt>
      <trkpt lat="37.982231" lon="-1.128106">
        <ele>45.2</ele>
        <time>2024-01-14T11:03:34Z</time>
      </trkpt>
      <trkpt lat="37.982123" lon="-1.127915">
        <ele>45.2</ele>
        <time>2024-01-14T11:03:49Z</time>
      </trkpt>
      <trkpt lat="37.982015" lon="-1.127717">
        <ele>45.2</ele>
        <time>2024-01-14T11:04:17Z</time>
      </trkpt>
      <trkpt lat="37.981903" lon="-1.127517">
        <ele>45.0</ele>
        <time>2024-01-14T11:04:33Z</time>
      </trkpt>
      <trkpt lat="37.981809" lon="-1.127322">
        <ele>45.2</ele>
        <time>2024-01-14T11:04:46Z</time>
      </trkpt>
      <trkpt lat="37.981722" lon="-1.127118">
        <ele>45.2</ele>
        <time>2024-01-14T11:05:01Z</time>
      </trkpt>
      <trkpt lat="37.981639" lon="-1.126899">
        <ele>45.2</ele>
        <time>2024-01-14T11:05:21Z</time>
      </trkpt>
      <trkpt lat="37.981555" lon="-1.126688">
        <ele>45.2</ele>
        <time>2024-01-14T11:05:43Z</time>
      </trkpt>
      <trkpt lat="37.981460" lon="-1.126483">
        <ele>45.0</ele>
        <time>2024-01-14T11:06:07Z</time>
      </trkpt>
      <trkpt lat="37.981373" lon="-1.126267">
        <ele>45.7</ele>
        <time>2024-01-14T11:06:20Z</time>
      </trkpt>
      <trkpt lat="37.981310" lon="-1.126049">
        <ele>45.7</ele>
        <time>2024-01-14T11:06:34Z</time>
      </trkpt>
      <trkpt lat="37.981275" lon="-1.125817">
        <ele>45.7</ele>
        <time>2024-01-14T11:06:48Z</time>
      </trkpt>
      <trkpt lat="37.981262" lon="-1.125576">
        <ele>45.5</ele>
        <time>2024-01-14T11:07:02Z</time>
      </trkpt>
      <trkpt lat="37.981235" lon="-1.125335">
        <ele>45.5</ele>
        <time>2024-01-14T11:07:15Z</time>
      </trkpt>
      <trkpt lat="37.981239" lon="-1.125101">
        <ele>45.5</ele>
        <time>2024-01-14T11:07:29Z</time>
      </trkpt>
      <trkpt lat="37.981258" lon="-1.124868">
        <ele>45.5</ele>
        <time>2024-01-14T11:07:43Z</time>
      </trkpt>
      <trkpt lat="37.981297" lon="-1.124633">
        <ele>45.5</ele>
        <time>2024-01-14T11:07:59Z</time>
      </trkpt>
      <trkpt lat="37.981351" lon="-1.124411">
        <ele>52.0</ele>
        <time>2024-01-14T11:08:14Z</time>
      </trkpt>
      <trkpt lat="37.981372" lon="-1.124168">
        <ele>46.2</ele>
        <time>2024-01-14T11:08:28Z</time>
      </trkpt>
      <trkpt lat="37.981414" lon="-1.123936">
        <ele>45.2</ele>
        <time>2024-01-14T11:08:43Z</time>
      </trkpt>
      <trkpt lat="37.981437" lon="-1.123704">
        <ele>45.2</ele>
        <time>2024-01-14T11:08:58Z</time>
      </trkpt>
      <trkpt lat="37.981481" lon="-1.123472">
        <ele>46.0</ele>
        <time>2024-01-14T11:09:13Z</time>
      </trkpt>
      <trkpt lat="37.981528" lon="-1.123249">
        <ele>45.8</ele>
        <time>2024-01-14T11:09:28Z</time>
      </trkpt>
      <trkpt lat="37.981559" lon="-1.123024">
        <ele>45.2</ele>
        <time>2024-01-14T11:09:44Z</time>
      </trkpt>
      <trkpt lat="37.981597" lon="-1.122801">
        <ele>45.2</ele>
        <time>2024-01-14T11:10:00Z</time>
      </trkpt>
      <trkpt lat="37.981645" lon="-1.122575">
        <ele>45.5</ele>
        <time>2024-01-14T11:10:17Z</time>
      </trkpt>
      <trkpt lat="37.981685" lon="-1.122346">
        <ele>45.5</ele>
        <time>2024-01-14T11:10:32Z</time>
      </trkpt>
      <trkpt lat="37.981732" lon="-1.122120">
        <ele>53.2</ele>
        <time>2024-01-14T11:10:47Z</time>
      </trkpt>
      <trkpt lat="37.981768" lon="-1.121895">
        <ele>44.0</ele>
        <time>2024-01-14T11:11:59Z</time>
      </trkpt>
      <trkpt lat="37.981787" lon="-1.121664">
        <ele>44.0</ele>
        <time>2024-01-14T11:12:16Z</time>
      </trkpt>
      <trkpt lat="37.981829" lon="-1.121430">
        <ele>45.0</ele>
        <time>2024-01-14T11:13:23Z</time>
      </trkpt>
      <trkpt lat="37.981863" lon="-1.121194">
        <ele>45.5</ele>
        <time>2024-01-14T11:13:39Z</time>
      </trkpt>
      <trkpt lat="37.981893" lon="-1.120960">
        <ele>44.8</ele>
        <time>2024-01-14T11:13:56Z</time>
      </trkpt>
      <trkpt lat="37.981925" lon="-1.120726">
        <ele>44.8</ele>
        <time>2024-01-14T11:14:11Z</time>
      </trkpt>
      <trkpt lat="37.981956" lon="-1.120496">
        <ele>44.7</ele>
        <time>2024-01-14T11:14:29Z</time>
      </trkpt>
      <trkpt lat="37.981974" lon="-1.120261">
        <ele>45.8</ele>
        <time>2024-01-14T11:14:46Z</time>
      </trkpt>
      <trkpt lat="37.982027" lon="-1.120039">
        <ele>44.7</ele>
        <time>2024-01-14T11:15:12Z</time>
      </trkpt>
      <trkpt lat="37.982072" lon="-1.119804">
        <ele>44.6</ele>
        <time>2024-01-14T11:15:24Z</time>
      </trkpt>
      <trkpt lat="37.982113" lon="-1.119576">
        <ele>44.6</ele>
        <time>2024-01-14T11:15:39Z</time>
      </trkpt>
      <trkpt lat="37.982162" lon="-1.119343">
        <ele>44.5</ele>
        <time>2024-01-14T11:15:57Z</time>
      </trkpt>
      <trkpt lat="37.982187" lon="-1.119107">
        <ele>44.5</ele>
        <time>2024-01-14T11:16:13Z</time>
      </trkpt>
      <trkpt lat="37.982224" lon="-1.118882">
        <ele>44.5</ele>
        <time>2024-01-14T11:16:31Z</time>
      </trkpt>
      <trkpt lat="37.982220" lon="-1.118650">
        <ele>44.6</ele>
        <time>2024-01-14T11:18:17Z</time>
      </trkpt>
      <trkpt lat="37.982214" lon="-1.118419">
        <ele>44.7</ele>
        <time>2024-01-14T11:19:38Z</time>
      </trkpt>
      <trkpt lat="37.982250" lon="-1.118189">
        <ele>44.6</ele>
        <time>2024-01-14T11:19:51Z</time>
      </trkpt>
      <trkpt lat="37.982274" lon="-1.117948">
        <ele>44.6</ele>
        <time>2024-01-14T11:20:05Z</time>
      </trkpt>
      <trkpt lat="37.982311" lon="-1.117713">
        <ele>44.5</ele>
        <time>2024-01-14T11:20:19Z</time>
      </trkpt>
      <trkpt lat="37.982353" lon="-1.117488">
        <ele>44.8</ele>
        <time>2024-01-14T11:20:39Z</time>
      </trkpt>
      <trkpt lat="37.982426" lon="-1.117014">
        <ele>44.4</ele>
        <time>2024-01-14T11:21:08Z</time>
      </trkpt>
      <trkpt lat="37.982458" lon="-1.116776">
        <ele>44.5</ele>
        <time>2024-01-14T11:21:22Z</time>
      </trkpt>
      <trkpt lat="37.982499" lon="-1.116550">
        <ele>44.6</ele>
        <time>2024-01-14T11:21:39Z</time>
      </trkpt>
      <trkpt lat="37.982522" lon="-1.116324">
        <ele>44.6</ele>
        <time>2024-01-14T11:22:14Z</time>
      </trkpt>
      <trkpt lat="37.982586" lon="-1.116105">
        <ele>44.6</ele>
        <time>2024-01-14T11:22:37Z</time>
      </trkpt>
      <trkpt lat="37.982605" lon="-1.115873">
        <ele>44.6</ele>
        <time>2024-01-14T11:22:50Z</time>
      </trkpt>
      <trkpt lat="37.982631" lon="-1.115634">
        <ele>38.9</ele>
        <time>2024-01-14T11:23:03Z</time>
      </trkpt>
      <trkpt lat="37.982663" lon="-1.115397">
        <ele>38.8</ele>
        <time>2024-01-14T11:23:16Z</time>
      </trkpt>
      <trkpt lat="37.982686" lon="-1.115156">
        <ele>39.5</ele>
        <time>2024-01-14T11:23:29Z</time>
      </trkpt>
      <trkpt lat="37.982725" lon="-1.114931">
        <ele>37.5</ele>
        <time>2024-01-14T11:23:42Z</time>
      </trkpt>
      <trkpt lat="37.982733" lon="-1.114699">
        <ele>39.8</ele>
        <time>2024-01-14T11:23:55Z</time>
      </trkpt>
      <trkpt lat="37.982742" lon="-1.114461">
        <ele>42.8</ele>
        <time>2024-01-14T11:24:10Z</time>
      </trkpt>
      <trkpt lat="37.982759" lon="-1.114232">
        <ele>39.8</ele>
        <time>2024-01-14T11:24:27Z</time>
      </trkpt>
      <trkpt lat="37.982800" lon="-1.114005">
        <ele>38.8</ele>
        <time>2024-01-14T11:24:45Z</time>
      </trkpt>
      <trkpt lat="37.982823" lon="-1.113761">
        <ele>41.8</ele>
        <time>2024-01-14T11:24:59Z</time>
      </trkpt>
      <trkpt lat="37.982851" lon="-1.113520">
        <ele>43.8</ele>
        <time>2024-01-14T11:25:13Z</time>
      </trkpt>
      <trkpt lat="37.982875" lon="-1.113283">
        <ele>40.9</ele>
        <time>2024-01-14T11:25:29Z</time>
      </trkpt>
      <trkpt lat="37.982895" lon="-1.113056">
        <ele>40.1</ele>
        <time>2024-01-14T11:25:42Z</time>
      </trkpt>
      <trkpt lat="37.982913" lon="-1.112821">
        <ele>40.5</ele>
        <time>2024-01-14T11:25:55Z</time>
      </trkpt>
      <trkpt lat="37.982889" lon="-1.112580">
        <ele>41.5</ele>
        <time>2024-01-14T11:26:08Z</time>
      </trkpt>
      <trkpt lat="37.982898" lon="-1.112341">
        <ele>42.7</ele>
        <time>2024-01-14T11:26:23Z</time>
      </trkpt>
      <trkpt lat="37.982934" lon="-1.112109">
        <ele>40.8</ele>
        <time>2024-01-14T11:26:39Z</time>
      </trkpt>
      <trkpt lat="37.983016" lon="-1.111904">
        <ele>40.8</ele>
        <time>2024-01-14T11:26:56Z</time>
      </trkpt>
      <trkpt lat="37.983066" lon="-1.111527">
        <ele>41.8</ele>
        <time>2024-01-14T11:29:29Z</time>
      </trkpt>
      <trkpt lat="37.983082" lon="-1.111299">
        <ele>43.0</ele>
        <time>2024-01-14T11:29:49Z</time>
      </trkpt>
      <trkpt lat="37.983099" lon="-1.111062">
        <ele>43.8</ele>
        <time>2024-01-14T11:30:07Z</time>
      </trkpt>
      <trkpt lat="37.983121" lon="-1.110827">
        <ele>42.7</ele>
        <time>2024-01-14T11:30:25Z</time>
      </trkpt>
      <trkpt lat="37.983147" lon="-1.110592">
        <ele>40.9</ele>
        <time>2024-01-14T11:30:42Z</time>
      </trkpt>
      <trkpt lat="37.983161" lon="-1.110360">
        <ele>41.7</ele>
        <time>2024-01-14T11:30:59Z</time>
      </trkpt>
      <trkpt lat="37.983184" lon="-1.110123">
        <ele>41.1</ele>
        <time>2024-01-14T11:31:17Z</time>
      </trkpt>
      <trkpt lat="37.983194" lon="-1.109871">
        <ele>43.5</ele>
        <time>2024-01-14T11:31:34Z</time>
      </trkpt>
      <trkpt lat="37.983220" lon="-1.109632">
        <ele>43.5</ele>
        <time>2024-01-14T11:31:50Z</time>
      </trkpt>
      <trkpt lat="37.983245" lon="-1.109399">
        <ele>43.8</ele>
        <time>2024-01-14T11:32:05Z</time>
      </trkpt>
      <trkpt lat="37.983251" lon="-1.109155">
        <ele>44.7</ele>
        <time>2024-01-14T11:32:21Z</time>
      </trkpt>
      <trkpt lat="37.983278" lon="-1.108929">
        <ele>44.7</ele>
        <time>2024-01-14T11:32:36Z</time>
      </trkpt>
      <trkpt lat="37.983330" lon="-1.108705">
        <ele>41.8</ele>
        <time>2024-01-14T11:32:53Z</time>
      </trkpt>
      <trkpt lat="37.983385" lon="-1.108480">
        <ele>41.8</ele>
        <time>2024-01-14T11:33:08Z</time>
      </trkpt>
      <trkpt lat="37.983434" lon="-1.108251">
        <ele>40.8</ele>
        <time>2024-01-14T11:33:24Z</time>
      </trkpt>
      <trkpt lat="37.983524" lon="-1.108037">
        <ele>41.8</ele>
        <time>2024-01-14T11:33:44Z</time>
      </trkpt>
      <trkpt lat="37.983650" lon="-1.107873">
        <ele>37.8</ele>
        <time>2024-01-14T11:33:59Z</time>
      </trkpt>
      <trkpt lat="37.983723" lon="-1.107649">
        <ele>38.8</ele>
        <time>2024-01-14T11:34:15Z</time>
      </trkpt>
      <trkpt lat="37.983778" lon="-1.107423">
        <ele>34.8</ele>
        <time>2024-01-14T11:34:31Z</time>
      </trkpt>
      <trkpt lat="37.983803" lon="-1.107187">
        <ele>38.5</ele>
        <time>2024-01-14T11:34:44Z</time>
      </trkpt>
      <trkpt lat="37.983812" lon="-1.106946">
        <ele>43.8</ele>
        <time>2024-01-14T11:34:58Z</time>
      </trkpt>
      <trkpt lat="37.983852" lon="-1.106721">
        <ele>44.8</ele>
        <time>2024-01-14T11:35:24Z</time>
      </trkpt>
      <trkpt lat="37.983921" lon="-1.106508">
        <ele>45.8</ele>
        <time>2024-01-14T11:35:43Z</time>
      </trkpt>
      <trkpt lat="37.983973" lon="-1.106281">
        <ele>41.8</ele>
        <time>2024-01-14T11:36:01Z</time>
      </trkpt>
      <trkpt lat="37.984033" lon="-1.106050">
        <ele>40.5</ele>
        <time>2024-01-14T11:36:39Z</time>
      </trkpt>
      <trkpt lat="37.984093" lon="-1.105827">
        <ele>43.7</ele>
        <time>2024-01-14T11:36:51Z</time>
      </trkpt>
      <trkpt lat="37.984153" lon="-1.105601">
        <ele>43.1</ele>
        <time>2024-01-14T11:37:05Z</time>
      </trkpt>
      <trkpt lat="37.984212" lon="-1.105382">
        <ele>41.8</ele>
        <time>2024-01-14T11:37:18Z</time>
      </trkpt>
      <trkpt lat="37.984274" lon="-1.105161">
        <ele>42.8</ele>
        <time>2024-01-14T11:37:31Z</time>
      </trkpt>
      <trkpt lat="37.984341" lon="-1.104944">
        <ele>41.8</ele>
        <time>2024-01-14T11:37:43Z</time>
      </trkpt>
      <trkpt lat="37.984414" lon="-1.104735">
        <ele>41.7</ele>
        <time>2024-01-14T11:37:56Z</time>
      </trkpt>
      <trkpt lat="37.984473" lon="-1.104513">
        <ele>42.8</ele>
        <time>2024-01-14T11:38:09Z</time>
      </trkpt>
      <trkpt lat="37.984571" lon="-1.104305">
        <ele>41.8</ele>
        <time>2024-01-14T11:38:23Z</time>
      </trkpt>
      <trkpt lat="37.984653" lon="-1.104100">
        <ele>41.8</ele>
        <time>2024-01-14T11:38:38Z</time>
      </trkpt>
      <trkpt lat="37.984744" lon="-1.103886">
        <ele>40.7</ele>
        <time>2024-01-14T11:38:56Z</time>
      </trkpt>
      <trkpt lat="37.984846" lon="-1.103692">
        <ele>42.8</ele>
        <time>2024-01-14T11:39:12Z</time>
      </trkpt>
      <trkpt lat="37.984957" lon="-1.103511">
        <ele>42.8</ele>
        <time>2024-01-14T11:39:27Z</time>
      </trkpt>
      <trkpt lat="37.985080" lon="-1.103330">
        <ele>43.8</ele>
        <time>2024-01-14T11:39:42Z</time>
      </trkpt>
      <trkpt lat="37.985228" lon="-1.103174">
        <ele>44.1</ele>
        <time>2024-01-14T11:39:57Z</time>
      </trkpt>
      <trkpt lat="37.985363" lon="-1.103019">
        <ele>41.8</ele>
        <time>2024-01-14T11:40:11Z</time>
      </trkpt>
      <trkpt lat="37.985500" lon="-1.102855">
        <ele>42.1</ele>
        <time>2024-01-14T11:40:25Z</time>
      </trkpt>
      <trkpt lat="37.985649" lon="-1.102706">
        <ele>43.7</ele>
        <time>2024-01-14T11:40:41Z</time>
      </trkpt>
      <trkpt lat="37.985776" lon="-1.102538">
        <ele>42.8</ele>
        <time>2024-01-14T11:40:56Z</time>
      </trkpt>
      <trkpt lat="37.985912" lon="-1.102381">
        <ele>42.8</ele>
        <time>2024-01-14T11:41:10Z</time>
      </trkpt>
      <trkpt lat="37.986044" lon="-1.102224">
        <ele>42.8</ele>
        <time>2024-01-14T11:41:23Z</time>
      </trkpt>
      <trkpt lat="37.986155" lon="-1.102036">
        <ele>42.8</ele>
        <time>2024-01-14T11:41:37Z</time>
      </trkpt>
      <trkpt lat="37.986263" lon="-1.101833">
        <ele>40.8</ele>
        <time>2024-01-14T11:41:51Z</time>
      </trkpt>
      <trkpt lat="37.986343" lon="-1.101618">
        <ele>40.8</ele>
        <time>2024-01-14T11:42:05Z</time>
      </trkpt>
      <trkpt lat="37.986419" lon="-1.101406">
        <ele>41.8</ele>
        <time>2024-01-14T11:42:18Z</time>
      </trkpt>
      <trkpt lat="37.986467" lon="-1.101179">
        <ele>41.8</ele>
        <time>2024-01-14T11:42:32Z</time>
      </trkpt>
      <trkpt lat="37.986505" lon="-1.100940">
        <ele>40.7</ele>
        <time>2024-01-14T11:42:46Z</time>
      </trkpt>
      <trkpt lat="37.986505" lon="-1.100709">
        <ele>39.9</ele>
        <time>2024-01-14T11:42:59Z</time>
      </trkpt>
      <trkpt lat="37.986507" lon="-1.100474">
        <ele>41.8</ele>
        <time>2024-01-14T11:43:13Z</time>
      </trkpt>
      <trkpt lat="37.986502" lon="-1.100237">
        <ele>42.1</ele>
        <time>2024-01-14T11:43:27Z</time>
      </trkpt>
      <trkpt lat="37.986484" lon="-1.099993">
        <ele>40.9</ele>
        <time>2024-01-14T11:43:41Z</time>
      </trkpt>
      <trkpt lat="37.986463" lon="-1.099759">
        <ele>40.8</ele>
        <time>2024-01-14T11:43:54Z</time>
      </trkpt>
      <trkpt lat="37.986427" lon="-1.099519">
        <ele>38.8</ele>
        <time>2024-01-14T11:44:09Z</time>
      </trkpt>
      <trkpt lat="37.986435" lon="-1.099287">
        <ele>40.7</ele>
        <time>2024-01-14T11:44:22Z</time>
      </trkpt>
      <trkpt lat="37.986444" lon="-1.099058">
        <ele>43.8</ele>
        <time>2024-01-14T11:44:36Z</time>
      </trkpt>
      <trkpt lat="37.986447" lon="-1.098828">
        <ele>44.8</ele>
        <time>2024-01-14T11:44:49Z</time>
      </trkpt>
      <trkpt lat="37.986431" lon="-1.098583">
        <ele>42.8</ele>
        <time>2024-01-14T11:45:04Z</time>
      </trkpt>
      <trkpt lat="37.986450" lon="-1.098346">
        <ele>41.1</ele>
        <time>2024-01-14T11:45:19Z</time>
      </trkpt>
      <trkpt lat="37.986439" lon="-1.098116">
        <ele>40.8</ele>
        <time>2024-01-14T11:45:33Z</time>
      </trkpt>
      <trkpt lat="37.986401" lon="-1.097883">
        <ele>39.8</ele>
        <time>2024-01-14T11:45:47Z</time>
      </trkpt>
      <trkpt lat="37.986354" lon="-1.097663">
        <ele>39.8</ele>
        <time>2024-01-14T11:46:01Z</time>
      </trkpt>
      <trkpt lat="37.986393" lon="-1.097430">
        <ele>40.8</ele>
        <time>2024-01-14T11:46:15Z</time>
      </trkpt>
      <trkpt lat="37.986436" lon="-1.097207">
        <ele>39.8</ele>
        <time>2024-01-14T11:46:29Z</time>
      </trkpt>
      <trkpt lat="37.986474" lon="-1.096976">
        <ele>39.8</ele>
        <time>2024-01-14T11:46:43Z</time>
      </trkpt>
      <trkpt lat="37.986523" lon="-1.096742">
        <ele>40.5</ele>
        <time>2024-01-14T11:46:57Z</time>
      </trkpt>
      <trkpt lat="37.986571" lon="-1.096515">
        <ele>43.7</ele>
        <time>2024-01-14T11:47:10Z</time>
      </trkpt>
      <trkpt lat="37.986646" lon="-1.096299">
        <ele>42.8</ele>
        <time>2024-01-14T11:47:25Z</time>
      </trkpt>
      <trkpt lat="37.986686" lon="-1.096074">
        <ele>40.8</ele>
        <time>2024-01-14T11:48:08Z</time>
      </trkpt>
      <trkpt lat="37.986764" lon="-1.095856">
        <ele>39.8</ele>
        <time>2024-01-14T11:48:25Z</time>
      </trkpt>
      <trkpt lat="37.986826" lon="-1.095636">
        <ele>40.8</ele>
        <time>2024-01-14T11:48:40Z</time>
      </trkpt>
      <trkpt lat="37.986888" lon="-1.095404">
        <ele>39.8</ele>
        <time>2024-01-14T11:48:55Z</time>
      </trkpt>
      <trkpt lat="37.986956" lon="-1.095190">
        <ele>39.8</ele>
        <time>2024-01-14T11:49:09Z</time>
      </trkpt>
      <trkpt lat="37.987032" lon="-1.094979">
        <ele>39.8</ele>
        <time>2024-01-14T11:49:24Z</time>
      </trkpt>
      <trkpt lat="37.987086" lon="-1.094758">
        <ele>39.8</ele>
        <time>2024-01-14T11:49:38Z</time>
      </trkpt>
      <trkpt lat="37.987147" lon="-1.094539">
        <ele>39.5</ele>
        <time>2024-01-14T11:49:53Z</time>
      </trkpt>
      <trkpt lat="37.987202" lon="-1.094321">
        <ele>39.7</ele>
        <time>2024-01-14T11:50:07Z</time>
      </trkpt>
      <trkpt lat="37.987267" lon="-1.094083">
        <ele>40.8</ele>
        <time>2024-01-14T11:50:22Z</time>
      </trkpt>
      <trkpt lat="37.987315" lon="-1.093854">
        <ele>41.5</ele>
        <time>2024-01-14T11:50:37Z</time>
      </trkpt>
      <trkpt lat="37.987363" lon="-1.093633">
        <ele>43.8</ele>
        <time>2024-01-14T11:50:50Z</time>
      </trkpt>
      <trkpt lat="37.987415" lon="-1.093412">
        <ele>41.8</ele>
        <time>2024-01-14T11:51:05Z</time>
      </trkpt>
      <trkpt lat="37.987469" lon="-1.093186">
        <ele>40.8</ele>
        <time>2024-01-14T11:51:20Z</time>
      </trkpt>
      <trkpt lat="37.987513" lon="-1.092949">
        <ele>39.8</ele>
        <time>2024-01-14T11:51:35Z</time>
      </trkpt>
      <trkpt lat="37.987567" lon="-1.092717">
        <ele>40.8</ele>
        <time>2024-01-14T11:51:49Z</time>
      </trkpt>
      <trkpt lat="37.987634" lon="-1.092494">
        <ele>41.8</ele>
        <time>2024-01-14T11:52:03Z</time>
      </trkpt>
      <trkpt lat="37.987688" lon="-1.092276">
        <ele>42.1</ele>
        <time>2024-01-14T11:52:17Z</time>
      </trkpt>
      <trkpt lat="37.987761" lon="-1.092055">
        <ele>43.6</ele>
        <time>2024-01-14T11:52:32Z</time>
      </trkpt>
      <trkpt lat="37.987835" lon="-1.091835">
        <ele>42.8</ele>
        <time>2024-01-14T11:52:46Z</time>
      </trkpt>
      <trkpt lat="37.987937" lon="-1.091638">
        <ele>41.9</ele>
        <time>2024-01-14T11:53:00Z</time>
      </trkpt>
      <trkpt lat="37.988036" lon="-1.091447">
        <ele>41.8</ele>
        <time>2024-01-14T11:53:14Z</time>
      </trkpt>
      <trkpt lat="37.988164" lon="-1.091264">
        <ele>41.1</ele>
        <time>2024-01-14T11:53:29Z</time>
      </trkpt>
      <trkpt lat="37.988287" lon="-1.091095">
        <ele>40.8</ele>
        <time>2024-01-14T11:53:43Z</time>
      </trkpt>
      <trkpt lat="37.988426" lon="-1.090926">
        <ele>41.8</ele>
        <time>2024-01-14T11:53:58Z</time>
      </trkpt>
      <trkpt lat="37.988561" lon="-1.090772">
        <ele>40.8</ele>
        <time>2024-01-14T11:54:12Z</time>
      </trkpt>
      <trkpt lat="37.988708" lon="-1.090620">
        <ele>41.8</ele>
        <time>2024-01-14T11:54:27Z</time>
      </trkpt>
      <trkpt lat="37.988860" lon="-1.090490">
        <ele>41.8</ele>
        <time>2024-01-14T11:54:44Z</time>
      </trkpt>
      <trkpt lat="37.989010" lon="-1.090345">
        <ele>38.8</ele>
        <time>2024-01-14T11:58:43Z</time>
      </trkpt>
      <trkpt lat="37.989167" lon="-1.090208">
        <ele>38.8</ele>
        <time>2024-01-14T11:59:00Z</time>
      </trkpt>
      <trkpt lat="37.989324" lon="-1.090081">
        <ele>40.8</ele>
        <time>2024-01-14T11:59:16Z</time>
      </trkpt>
      <trkpt lat="37.989488" lon="-1.089981">
        <ele>40.8</ele>
        <time>2024-01-14T11:59:36Z</time>
      </trkpt>
      <trkpt lat="37.989634" lon="-1.089842">
        <ele>40.7</ele>
        <time>2024-01-14T12:00:01Z</time>
      </trkpt>
      <trkpt lat="37.989781" lon="-1.089702">
        <ele>40.8</ele>
        <time>2024-01-14T12:00:19Z</time>
      </trkpt>
      <trkpt lat="37.989926" lon="-1.089557">
        <ele>41.8</ele>
        <time>2024-01-14T12:00:35Z</time>
      </trkpt>
      <trkpt lat="37.990075" lon="-1.089414">
        <ele>40.9</ele>
        <time>2024-01-14T12:00:55Z</time>
      </trkpt>
      <trkpt lat="37.990226" lon="-1.089268">
        <ele>38.8</ele>
        <time>2024-01-14T12:01:14Z</time>
      </trkpt>
      <trkpt lat="37.990364" lon="-1.089101">
        <ele>39.8</ele>
        <time>2024-01-14T12:01:39Z</time>
      </trkpt>
      <trkpt lat="37.990494" lon="-1.088938">
        <ele>38.8</ele>
        <time>2024-01-14T12:01:55Z</time>
      </trkpt>
      <trkpt lat="37.990615" lon="-1.088761">
        <ele>40.1</ele>
        <time>2024-01-14T12:03:27Z</time>
      </trkpt>
      <trkpt lat="37.990727" lon="-1.088582">
        <ele>39.8</ele>
        <time>2024-01-14T12:03:41Z</time>
      </trkpt>
      <trkpt lat="37.990843" lon="-1.088399">
        <ele>39.5</ele>
        <time>2024-01-14T12:03:56Z</time>
      </trkpt>
      <trkpt lat="37.990957" lon="-1.088218">
        <ele>40.8</ele>
        <time>2024-01-14T12:04:11Z</time>
      </trkpt>
      <trkpt lat="37.991073" lon="-1.088043">
        <ele>39.8</ele>
        <time>2024-01-14T12:04:26Z</time>
      </trkpt>
      <trkpt lat="37.991186" lon="-1.087854">
        <ele>40.8</ele>
        <time>2024-01-14T12:04:41Z</time>
      </trkpt>
      <trkpt lat="37.991326" lon="-1.087687">
        <ele>41.8</ele>
        <time>2024-01-14T12:04:56Z</time>
      </trkpt>
      <trkpt lat="37.991457" lon="-1.087510">
        <ele>39.9</ele>
        <time>2024-01-14T12:05:12Z</time>
      </trkpt>
      <trkpt lat="37.991583" lon="-1.087327">
        <ele>40.8</ele>
        <time>2024-01-14T12:05:47Z</time>
      </trkpt>
      <trkpt lat="37.991738" lon="-1.087206">
        <ele>40.8</ele>
        <time>2024-01-14T12:06:00Z</time>
      </trkpt>
      <trkpt lat="37.991885" lon="-1.087062">
        <ele>39.8</ele>
        <time>2024-01-14T12:07:02Z</time>
      </trkpt>
      <trkpt lat="37.992030" lon="-1.086913">
        <ele>38.8</ele>
        <time>2024-01-14T12:07:15Z</time>
      </trkpt>
      <trkpt lat="37.992178" lon="-1.086763">
        <ele>39.8</ele>
        <time>2024-01-14T12:07:28Z</time>
      </trkpt>
      <trkpt lat="37.992343" lon="-1.086639">
        <ele>38.8</ele>
        <time>2024-01-14T12:07:42Z</time>
      </trkpt>
      <trkpt lat="37.992506" lon="-1.086511">
        <ele>38.8</ele>
        <time>2024-01-14T12:07:55Z</time>
      </trkpt>
      <trkpt lat="37.992669" lon="-1.086395">
        <ele>39.7</ele>
        <time>2024-01-14T12:08:08Z</time>
      </trkpt>
      <trkpt lat="37.992838" lon="-1.086277">
        <ele>39.8</ele>
        <time>2024-01-14T12:08:22Z</time>
      </trkpt>
      <trkpt lat="37.993004" lon="-1.086180">
        <ele>39.9</ele>
        <time>2024-01-14T12:08:35Z</time>
      </trkpt>
      <trkpt lat="37.993173" lon="-1.086093">
        <ele>40.7</ele>
        <time>2024-01-14T12:08:48Z</time>
      </trkpt>
      <trkpt lat="37.993346" lon="-1.086005">
        <ele>39.8</ele>
        <time>2024-01-14T12:09:01Z</time>
      </trkpt>
      <trkpt lat="37.993521" lon="-1.085926">
        <ele>39.8</ele>
        <time>2024-01-14T12:09:14Z</time>
      </trkpt>
      <trkpt lat="37.993694" lon="-1.085839">
        <ele>39.8</ele>
        <time>2024-01-14T12:09:27Z</time>
      </trkpt>
      <trkpt lat="37.993872" lon="-1.085787">
        <ele>39.8</ele>
        <time>2024-01-14T12:09:40Z</time>
      </trkpt>
      <trkpt lat="37.994035" lon="-1.085680">
        <ele>39.8</ele>
        <time>2024-01-14T12:09:53Z</time>
      </trkpt>
      <trkpt lat="37.994205" lon="-1.085594">
        <ele>39.8</ele>
        <time>2024-01-14T12:10:06Z</time>
      </trkpt>
      <trkpt lat="37.994374" lon="-1.085492">
        <ele>38.8</ele>
        <time>2024-01-14T12:10:19Z</time>
      </trkpt>
      <trkpt lat="37.994518" lon="-1.085344">
        <ele>38.8</ele>
        <time>2024-01-14T12:10:32Z</time>
      </trkpt>
      <trkpt lat="37.994648" lon="-1.085184">
        <ele>38.9</ele>
        <time>2024-01-14T12:10:46Z</time>
      </trkpt>
      <trkpt lat="37.994763" lon="-1.085003">
        <ele>39.8</ele>
        <time>2024-01-14T12:11:00Z</time>
      </trkpt>
      <trkpt lat="37.994857" lon="-1.084791">
        <ele>39.5</ele>
        <time>2024-01-14T12:11:16Z</time>
      </trkpt>
      <trkpt lat="37.994934" lon="-1.084574">
        <ele>39.7</ele>
        <time>2024-01-14T12:11:31Z</time>
      </trkpt>
      <trkpt lat="37.995001" lon="-1.084352">
        <ele>39.8</ele>
        <time>2024-01-14T12:11:46Z</time>
      </trkpt>
      <trkpt lat="37.995057" lon="-1.084132">
        <ele>39.8</ele>
        <time>2024-01-14T12:12:01Z</time>
      </trkpt>
      <trkpt lat="37.995114" lon="-1.083902">
        <ele>38.9</ele>
        <time>2024-01-14T12:12:16Z</time>
      </trkpt>
      <trkpt lat="37.995145" lon="-1.083663">
        <ele>38.8</ele>
        <time>2024-01-14T12:12:30Z</time>
      </trkpt>
      <trkpt lat="37.995171" lon="-1.083436">
        <ele>38.7</ele>
        <time>2024-01-14T12:12:43Z</time>
      </trkpt>
      <trkpt lat="37.995165" lon="-1.083204">
        <ele>39.8</ele>
        <time>2024-01-14T12:12:57Z</time>
      </trkpt>
      <trkpt lat="37.995147" lon="-1.082966">
        <ele>38.8</ele>
        <time>2024-01-14T12:13:13Z</time>
      </trkpt>
      <trkpt lat="37.995137" lon="-1.082727">
        <ele>36.9</ele>
        <time>2024-01-14T12:13:29Z</time>
      </trkpt>
      <trkpt lat="37.995099" lon="-1.082502">
        <ele>37.8</ele>
        <time>2024-01-14T12:13:43Z</time>
      </trkpt>
      <trkpt lat="37.995054" lon="-1.082266">
        <ele>38.5</ele>
        <time>2024-01-14T12:13:58Z</time>
      </trkpt>
      <trkpt lat="37.995002" lon="-1.082044">
        <ele>36.9</ele>
        <time>2024-01-14T12:14:12Z</time>
      </trkpt>
      <trkpt lat="37.994939" lon="-1.081822">
        <ele>37.9</ele>
        <time>2024-01-14T12:14:26Z</time>
      </trkpt>
      <trkpt lat="37.994851" lon="-1.081606">
        <ele>37.1</ele>
        <time>2024-01-14T12:14:41Z</time>
      </trkpt>
      <trkpt lat="37.994748" lon="-1.081402">
        <ele>37.9</ele>
        <time>2024-01-14T12:14:56Z</time>
      </trkpt>
      <trkpt lat="37.994643" lon="-1.081214">
        <ele>37.8</ele>
        <time>2024-01-14T12:15:11Z</time>
      </trkpt>
      <trkpt lat="37.994517" lon="-1.081036">
        <ele>36.8</ele>
        <time>2024-01-14T12:15:27Z</time>
      </trkpt>
      <trkpt lat="37.994391" lon="-1.080867">
        <ele>36.9</ele>
        <time>2024-01-14T12:15:42Z</time>
      </trkpt>
      <trkpt lat="37.994267" lon="-1.080699">
        <ele>35.9</ele>
        <time>2024-01-14T12:15:57Z</time>
      </trkpt>
      <trkpt lat="37.994125" lon="-1.080560">
        <ele>36.8</ele>
        <time>2024-01-14T12:16:11Z</time>
      </trkpt>
      <trkpt lat="37.993964" lon="-1.080423">
        <ele>35.8</ele>
        <time>2024-01-14T12:16:26Z</time>
      </trkpt>
      <trkpt lat="37.993797" lon="-1.080320">
        <ele>36.7</ele>
        <time>2024-01-14T12:16:40Z</time>
      </trkpt>
      <trkpt lat="37.993629" lon="-1.080229">
        <ele>36.6</ele>
        <time>2024-01-14T12:16:54Z</time>
      </trkpt>
      <trkpt lat="37.993469" lon="-1.080112">
        <ele>36.7</ele>
        <time>2024-01-14T12:17:09Z</time>
      </trkpt>
      <trkpt lat="37.993300" lon="-1.080005">
        <ele>35.8</ele>
        <time>2024-01-14T12:17:25Z</time>
      </trkpt>
      <trkpt lat="37.993140" lon="-1.079885">
        <ele>36.8</ele>
        <time>2024-01-14T12:17:40Z</time>
      </trkpt>
      <trkpt lat="37.992987" lon="-1.079754">
        <ele>36.8</ele>
        <time>2024-01-14T12:17:55Z</time>
      </trkpt>
      <trkpt lat="37.992864" lon="-1.079586">
        <ele>35.7</ele>
        <time>2024-01-14T12:20:54Z</time>
      </trkpt>
      <trkpt lat="37.992750" lon="-1.079409">
        <ele>37.5</ele>
        <time>2024-01-14T12:22:08Z</time>
      </trkpt>
      <trkpt lat="37.992658" lon="-1.079210">
        <ele>35.8</ele>
        <time>2024-01-14T12:25:16Z</time>
      </trkpt>
      <trkpt lat="37.992621" lon="-1.078970">
        <ele>38.8</ele>
        <time>2024-01-14T12:27:38Z</time>
      </trkpt>
      <trkpt lat="37.992564" lon="-1.078751">
        <ele>37.8</ele>
        <time>2024-01-14T12:27:55Z</time>
      </trkpt>
      <trkpt lat="37.992498" lon="-1.078525">
        <ele>38.8</ele>
        <time>2024-01-14T12:28:11Z</time>
      </trkpt>
      <trkpt lat="37.992443" lon="-1.078297">
        <ele>37.9</ele>
        <time>2024-01-14T12:28:27Z</time>
      </trkpt>
      <trkpt lat="37.992386" lon="-1.078080">
        <ele>36.9</ele>
        <time>2024-01-14T12:28:43Z</time>
      </trkpt>
      <trkpt lat="37.992315" lon="-1.077852">
        <ele>37.8</ele>
        <time>2024-01-14T12:29:00Z</time>
      </trkpt>
      <trkpt lat="37.992251" lon="-1.077635">
        <ele>37.8</ele>
        <time>2024-01-14T12:29:20Z</time>
      </trkpt>
      <trkpt lat="37.992162" lon="-1.077426">
        <ele>35.8</ele>
        <time>2024-01-14T12:29:40Z</time>
      </trkpt>
      <trkpt lat="37.992033" lon="-1.077260">
        <ele>36.1</ele>
        <time>2024-01-14T12:29:57Z</time>
      </trkpt>
      <trkpt lat="37.991894" lon="-1.077111">
        <ele>36.8</ele>
        <time>2024-01-14T12:30:12Z</time>
      </trkpt>
      <trkpt lat="37.991752" lon="-1.076969">
        <ele>35.8</ele>
        <time>2024-01-14T12:30:27Z</time>
      </trkpt>
      <trkpt lat="37.991618" lon="-1.076811">
        <ele>38.4</ele>
        <time>2024-01-14T12:30:43Z</time>
      </trkpt>
      <trkpt lat="37.991475" lon="-1.076669">
        <ele>40.2</ele>
        <time>2024-01-14T12:30:58Z</time>
      </trkpt>
      <trkpt lat="37.991317" lon="-1.076543">
        <ele>40.2</ele>
        <time>2024-01-14T12:31:13Z</time>
      </trkpt>
      <trkpt lat="37.991173" lon="-1.076404">
        <ele>40.2</ele>
        <time>2024-01-14T12:31:27Z</time>
      </trkpt>
      <trkpt lat="37.991072" lon="-1.076210">
        <ele>35.0</ele>
        <time>2024-01-14T12:31:41Z</time>
      </trkpt>
      <trkpt lat="37.991013" lon="-1.075989">
        <ele>35.6</ele>
        <time>2024-01-14T12:32:00Z</time>
      </trkpt>
      <trkpt lat="37.990968" lon="-1.075767">
        <ele>35.8</ele>
        <time>2024-01-14T12:32:16Z</time>
      </trkpt>
      <trkpt lat="37.990969" lon="-1.075534">
        <ele>36.8</ele>
        <time>2024-01-14T12:32:31Z</time>
      </trkpt>
      <trkpt lat="37.990986" lon="-1.075305">
        <ele>37.8</ele>
        <time>2024-01-14T12:32:47Z</time>
      </trkpt>
      <trkpt lat="37.991042" lon="-1.075078">
        <ele>37.5</ele>
        <time>2024-01-14T12:33:02Z</time>
      </trkpt>
      <trkpt lat="37.991083" lon="-1.074851">
        <ele>38.8</ele>
        <time>2024-01-14T12:33:18Z</time>
      </trkpt>
      <trkpt lat="37.991156" lon="-1.074630">
        <ele>38.8</ele>
        <time>2024-01-14T12:33:33Z</time>
      </trkpt>
      <trkpt lat="37.991227" lon="-1.074411">
        <ele>40.1</ele>
        <time>2024-01-14T12:33:47Z</time>
      </trkpt>
      <trkpt lat="37.991311" lon="-1.074199">
        <ele>40.1</ele>
        <time>2024-01-14T12:34:01Z</time>
      </trkpt>
      <trkpt lat="37.991409" lon="-1.074002">
        <ele>40.1</ele>
        <time>2024-01-14T12:34:17Z</time>
      </trkpt>
      <trkpt lat="37.991513" lon="-1.073804">
        <ele>40.1</ele>
        <time>2024-01-14T12:34:31Z</time>
      </trkpt>
      <trkpt lat="37.991613" lon="-1.073603">
        <ele>40.1</ele>
        <time>2024-01-14T12:34:46Z</time>
      </trkpt>
      <trkpt lat="37.991743" lon="-1.073420">
        <ele>40.1</ele>
        <time>2024-01-14T12:35:01Z</time>
      </trkpt>
      <trkpt lat="37.991877" lon="-1.073246">
        <ele>40.1</ele>
        <time>2024-01-14T12:35:18Z</time>
      </trkpt>
      <trkpt lat="37.992011" lon="-1.073093">
        <ele>40.1</ele>
        <time>2024-01-14T12:35:31Z</time>
      </trkpt>
      <trkpt lat="37.992156" lon="-1.072952">
        <ele>40.1</ele>
        <time>2024-01-14T12:35:45Z</time>
      </trkpt>
      <trkpt lat="37.992297" lon="-1.072808">
        <ele>40.1</ele>
        <time>2024-01-14T12:36:00Z</time>
      </trkpt>
      <trkpt lat="37.992452" lon="-1.072681">
        <ele>38.8</ele>
        <time>2024-01-14T12:36:14Z</time>
      </trkpt>
      <trkpt lat="37.992607" lon="-1.072544">
        <ele>39.8</ele>
        <time>2024-01-14T12:36:30Z</time>
      </trkpt>
      <trkpt lat="37.992760" lon="-1.072395">
        <ele>39.8</ele>
        <time>2024-01-14T12:36:45Z</time>
      </trkpt>
      <trkpt lat="37.992909" lon="-1.072262">
        <ele>39.8</ele>
        <time>2024-01-14T12:37:00Z</time>
      </trkpt>
      <trkpt lat="37.993070" lon="-1.072145">
        <ele>39.5</ele>
        <time>2024-01-14T12:37:15Z</time>
      </trkpt>
      <trkpt lat="37.993232" lon="-1.072021">
        <ele>37.5</ele>
        <time>2024-01-14T12:37:31Z</time>
      </trkpt>
      <trkpt lat="37.993371" lon="-1.071872">
        <ele>35.8</ele>
        <time>2024-01-14T12:37:45Z</time>
      </trkpt>
      <trkpt lat="37.993523" lon="-1.071733">
        <ele>37.8</ele>
        <time>2024-01-14T12:38:46Z</time>
      </trkpt>
      <trkpt lat="37.993672" lon="-1.071596">
        <ele>36.7</ele>
        <time>2024-01-14T12:40:13Z</time>
      </trkpt>
      <trkpt lat="37.993726" lon="-1.071375">
        <ele>39.8</ele>
        <time>2024-01-14T12:41:48Z</time>
      </trkpt>
      <trkpt lat="37.993850" lon="-1.071196">
        <ele>37.8</ele>
        <time>2024-01-14T12:42:02Z</time>
      </trkpt>
      <trkpt lat="37.993976" lon="-1.071013">
        <ele>36.8</ele>
        <time>2024-01-14T12:42:17Z</time>
      </trkpt>
      <trkpt lat="37.994087" lon="-1.070827">
        <ele>37.8</ele>
        <time>2024-01-14T12:42:31Z</time>
      </trkpt>
      <trkpt lat="37.994178" lon="-1.070622">
        <ele>38.8</ele>
        <time>2024-01-14T12:42:45Z</time>
      </trkpt>
      <trkpt lat="37.994244" lon="-1.070397">
        <ele>39.8</ele>
        <time>2024-01-14T12:42:59Z</time>
      </trkpt>
      <trkpt lat="37.994308" lon="-1.070174">
        <ele>39.8</ele>
        <time>2024-01-14T12:43:14Z</time>
      </trkpt>
      <trkpt lat="37.994383" lon="-1.069961">
        <ele>39.8</ele>
        <time>2024-01-14T12:43:28Z</time>
      </trkpt>
      <trkpt lat="37.994451" lon="-1.069736">
        <ele>38.8</ele>
        <time>2024-01-14T12:43:42Z</time>
      </trkpt>
      <trkpt lat="37.994523" lon="-1.069518">
        <ele>39.5</ele>
        <time>2024-01-14T12:43:56Z</time>
      </trkpt>
      <trkpt lat="37.994595" lon="-1.069294">
        <ele>38.8</ele>
        <time>2024-01-14T12:44:11Z</time>
      </trkpt>
      <trkpt lat="37.994665" lon="-1.069059">
        <ele>37.8</ele>
        <time>2024-01-14T12:44:26Z</time>
      </trkpt>
      <trkpt lat="37.994733" lon="-1.068841">
        <ele>38.8</ele>
        <time>2024-01-14T12:44:39Z</time>
      </trkpt>
      <trkpt lat="37.994851" lon="-1.068648">
        <ele>39.8</ele>
        <time>2024-01-14T12:44:53Z</time>
      </trkpt>
      <trkpt lat="37.994959" lon="-1.068452">
        <ele>39.8</ele>
        <time>2024-01-14T12:45:07Z</time>
      </trkpt>
      <trkpt lat="37.995074" lon="-1.068260">
        <ele>39.8</ele>
        <time>2024-01-14T12:45:22Z</time>
      </trkpt>
      <trkpt lat="37.995201" lon="-1.068076">
        <ele>39.1</ele>
        <time>2024-01-14T12:45:36Z</time>
      </trkpt>
      <trkpt lat="37.995330" lon="-1.067894">
        <ele>38.8</ele>
        <time>2024-01-14T12:45:50Z</time>
      </trkpt>
      <trkpt lat="37.995377" lon="-1.067661">
        <ele>39.7</ele>
        <time>2024-01-14T12:46:13Z</time>
      </trkpt>
      <trkpt lat="37.995442" lon="-1.067448">
        <ele>39.8</ele>
        <time>2024-01-14T12:46:27Z</time>
      </trkpt>
      <trkpt lat="37.995505" lon="-1.067224">
        <ele>38.9</ele>
        <time>2024-01-14T12:46:42Z</time>
      </trkpt>
      <trkpt lat="37.995552" lon="-1.067003">
        <ele>37.8</ele>
        <time>2024-01-14T12:46:56Z</time>
      </trkpt>
      <trkpt lat="37.995587" lon="-1.066774">
        <ele>39.0</ele>
        <time>2024-01-14T12:47:11Z</time>
      </trkpt>
      <trkpt lat="37.995604" lon="-1.066539">
        <ele>39.5</ele>
        <time>2024-01-14T12:47:26Z</time>
      </trkpt>
      <trkpt lat="37.995646" lon="-1.066310">
        <ele>37.8</ele>
        <time>2024-01-14T12:47:40Z</time>
      </trkpt>
      <trkpt lat="37.995693" lon="-1.066079">
        <ele>37.6</ele>
        <time>2024-01-14T12:47:55Z</time>
      </trkpt>
      <trkpt lat="37.995788" lon="-1.065880">
        <ele>37.8</ele>
        <time>2024-01-14T12:48:09Z</time>
      </trkpt>
      <trkpt lat="37.995918" lon="-1.065713">
        <ele>36.8</ele>
        <time>2024-01-14T12:48:23Z</time>
      </trkpt>
      <trkpt lat="37.996076" lon="-1.065593">
        <ele>36.8</ele>
        <time>2024-01-14T12:48:37Z</time>
      </trkpt>
      <trkpt lat="37.996249" lon="-1.065489">
        <ele>41.9</ele>
        <time>2024-01-14T12:48:52Z</time>
      </trkpt>
      <trkpt lat="37.996418" lon="-1.065384">
        <ele>39.5</ele>
        <time>2024-01-14T12:49:07Z</time>
      </trkpt>
      <trkpt lat="37.996590" lon="-1.065276">
        <ele>41.9</ele>
        <time>2024-01-14T12:49:21Z</time>
      </trkpt>
      <trkpt lat="37.996762" lon="-1.065206">
        <ele>41.9</ele>
        <time>2024-01-14T12:49:34Z</time>
      </trkpt>
      <trkpt lat="37.996947" lon="-1.065132">
        <ele>41.9</ele>
        <time>2024-01-14T12:49:49Z</time>
      </trkpt>
      <trkpt lat="37.997114" lon="-1.065028">
        <ele>41.9</ele>
        <time>2024-01-14T12:50:04Z</time>
      </trkpt>
      <trkpt lat="37.997283" lon="-1.064933">
        <ele>41.9</ele>
        <time>2024-01-14T12:50:19Z</time>
      </trkpt>
      <trkpt lat="37.997433" lon="-1.064804">
        <ele>41.9</ele>
        <time>2024-01-14T12:50:33Z</time>
      </trkpt>
      <trkpt lat="37.997569" lon="-1.064632">
        <ele>41.9</ele>
        <time>2024-01-14T12:50:47Z</time>
      </trkpt>
      <trkpt lat="37.997696" lon="-1.064468">
        <ele>41.9</ele>
        <time>2024-01-14T12:51:01Z</time>
      </trkpt>
      <trkpt lat="37.997811" lon="-1.064277">
        <ele>36.9</ele>
        <time>2024-01-14T12:51:15Z</time>
      </trkpt>
      <trkpt lat="37.997919" lon="-1.064080">
        <ele>37.1</ele>
        <time>2024-01-14T12:51:29Z</time>
      </trkpt>
      <trkpt lat="37.998030" lon="-1.063897">
        <ele>36.8</ele>
        <time>2024-01-14T12:51:43Z</time>
      </trkpt>
      <trkpt lat="37.998132" lon="-1.063687">
        <ele>36.8</ele>
        <time>2024-01-14T12:52:02Z</time>
      </trkpt>
      <trkpt lat="37.998246" lon="-1.063502">
        <ele>35.9</ele>
        <time>2024-01-14T12:52:16Z</time>
      </trkpt>
      <trkpt lat="37.998350" lon="-1.063312">
        <ele>37.8</ele>
        <time>2024-01-14T12:52:30Z</time>
      </trkpt>
      <trkpt lat="37.998438" lon="-1.063111">
        <ele>37.8</ele>
        <time>2024-01-14T12:52:48Z</time>
      </trkpt>
      <trkpt lat="37.998494" lon="-1.062888">
        <ele>36.4</ele>
        <time>2024-01-14T12:53:30Z</time>
      </trkpt>
      <trkpt lat="37.998555" lon="-1.062667">
        <ele>35.9</ele>
        <time>2024-01-14T12:53:55Z</time>
      </trkpt>
      <trkpt lat="37.998575" lon="-1.062438">
        <ele>36.8</ele>
        <time>2024-01-14T12:54:09Z</time>
      </trkpt>
      <trkpt lat="37.998593" lon="-1.062195">
        <ele>37.8</ele>
        <time>2024-01-14T12:54:24Z</time>
      </trkpt>
      <trkpt lat="37.998609" lon="-1.061953">
        <ele>38.8</ele>
        <time>2024-01-14T12:54:39Z</time>
      </trkpt>
      <trkpt lat="37.998618" lon="-1.061723">
        <ele>38.8</ele>
        <time>2024-01-14T12:54:53Z</time>
      </trkpt>
      <trkpt lat="37.998630" lon="-1.061487">
        <ele>38.6</ele>
        <time>2024-01-14T12:55:07Z</time>
      </trkpt>
      <trkpt lat="37.998647" lon="-1.061246">
        <ele>38.7</ele>
        <time>2024-01-14T12:55:21Z</time>
      </trkpt>
      <trkpt lat="37.998647" lon="-1.061009">
        <ele>38.7</ele>
        <time>2024-01-14T12:55:36Z</time>
      </trkpt>
      <trkpt lat="37.998638" lon="-1.060774">
        <ele>39.1</ele>
        <time>2024-01-14T12:55:50Z</time>
      </trkpt>
      <trkpt lat="37.998624" lon="-1.060542">
        <ele>38.8</ele>
        <time>2024-01-14T12:56:04Z</time>
      </trkpt>
      <trkpt lat="37.998618" lon="-1.060311">
        <ele>38.8</ele>
        <time>2024-01-14T12:56:18Z</time>
      </trkpt>
      <trkpt lat="37.998605" lon="-1.060071">
        <ele>37.9</ele>
        <time>2024-01-14T12:56:34Z</time>
      </trkpt>
      <trkpt lat="37.998609" lon="-1.059840">
        <ele>37.8</ele>
        <time>2024-01-14T12:56:48Z</time>
      </trkpt>
      <trkpt lat="37.998644" lon="-1.059600">
        <ele>38.6</ele>
        <time>2024-01-14T12:57:03Z</time>
      </trkpt>
      <trkpt lat="37.998725" lon="-1.059387">
        <ele>36.9</ele>
        <time>2024-01-14T12:57:16Z</time>
      </trkpt>
      <trkpt lat="37.998820" lon="-1.059188">
        <ele>37.8</ele>
        <time>2024-01-14T12:57:30Z</time>
      </trkpt>
      <trkpt lat="37.998926" lon="-1.058991">
        <ele>36.8</ele>
        <time>2024-01-14T12:57:44Z</time>
      </trkpt>
      <trkpt lat="37.999060" lon="-1.058838">
        <ele>35.8</ele>
        <time>2024-01-14T12:57:58Z</time>
      </trkpt>
      <trkpt lat="37.999203" lon="-1.058684">
        <ele>35.2</ele>
        <time>2024-01-14T12:58:12Z</time>
      </trkpt>
      <trkpt lat="37.999355" lon="-1.058550">
        <ele>34.9</ele>
        <time>2024-01-14T12:58:27Z</time>
      </trkpt>
      <trkpt lat="37.999517" lon="-1.058420">
        <ele>34.8</ele>
        <time>2024-01-14T12:58:42Z</time>
      </trkpt>
      <trkpt lat="37.999671" lon="-1.058278">
        <ele>33.9</ele>
        <time>2024-01-14T12:59:04Z</time>
      </trkpt>
      <trkpt lat="37.999835" lon="-1.058155">
        <ele>34.8</ele>
        <time>2024-01-14T12:59:18Z</time>
      </trkpt>
      <trkpt lat="37.999998" lon="-1.058052">
        <ele>38.6</ele>
        <time>2024-01-14T12:59:39Z</time>
      </trkpt>
      <trkpt lat="38.000137" lon="-1.057897">
        <ele>38.7</ele>
        <time>2024-01-14T12:59:55Z</time>
      </trkpt>
      <trkpt lat="38.000281" lon="-1.057760">
        <ele>38.3</ele>
        <time>2024-01-14T13:00:50Z</time>
      </trkpt>
      <trkpt lat="38.000408" lon="-1.057587">
        <ele>38.3</ele>
        <time>2024-01-14T13:01:04Z</time>
      </trkpt>
      <trkpt lat="38.000562" lon="-1.057465">
        <ele>38.3</ele>
        <time>2024-01-14T13:02:01Z</time>
      </trkpt>
      <trkpt lat="38.000687" lon="-1.057290">
        <ele>31.6</ele>
        <time>2024-01-14T13:02:32Z</time>
      </trkpt>
      <trkpt lat="38.000844" lon="-1.057158">
        <ele>31.5</ele>
        <time>2024-01-14T13:02:44Z</time>
      </trkpt>
      <trkpt lat="38.001013" lon="-1.057056">
        <ele>37.8</ele>
        <time>2024-01-14T13:02:58Z</time>
      </trkpt>
      <trkpt lat="38.001150" lon="-1.056885">
        <ele>33.5</ele>
        <time>2024-01-14T13:03:24Z</time>
      </trkpt>
      <trkpt lat="38.001293" lon="-1.056735">
        <ele>37.3</ele>
        <time>2024-01-14T13:03:36Z</time>
      </trkpt>
      <trkpt lat="38.001448" lon="-1.056588">
        <ele>38.5</ele>
        <time>2024-01-14T13:03:49Z</time>
      </trkpt>
      <trkpt lat="38.001601" lon="-1.056447">
        <ele>38.5</ele>
        <time>2024-01-14T13:04:02Z</time>
      </trkpt>
      <trkpt lat="38.001749" lon="-1.056302">
        <ele>37.9</ele>
        <time>2024-01-14T13:04:15Z</time>
      </trkpt>
      <trkpt lat="38.001902" lon="-1.056150">
        <ele>37.9</ele>
        <time>2024-01-14T13:04:28Z</time>
      </trkpt>
      <trkpt lat="38.002062" lon="-1.056011">
        <ele>37.9</ele>
        <time>2024-01-14T13:04:41Z</time>
      </trkpt>
      <trkpt lat="38.002346" lon="-1.055718">
        <ele>37.9</ele>
        <time>2024-01-14T13:05:38Z</time>
      </trkpt>
      <trkpt lat="38.002504" lon="-1.055592">
        <ele>37.9</ele>
        <time>2024-01-14T13:05:51Z</time>
      </trkpt>
      <trkpt lat="38.002668" lon="-1.055439">
        <ele>36.6</ele>
        <time>2024-01-14T13:06:05Z</time>
      </trkpt>
      <trkpt lat="38.002827" lon="-1.055285">
        <ele>37.5</ele>
        <time>2024-01-14T13:06:20Z</time>
      </trkpt>
      <trkpt lat="38.002989" lon="-1.055175">
        <ele>37.5</ele>
        <time>2024-01-14T13:06:32Z</time>
      </trkpt>
      <trkpt lat="38.003155" lon="-1.055081">
        <ele>38.5</ele>
        <time>2024-01-14T13:06:45Z</time>
      </trkpt>
      <trkpt lat="38.003338" lon="-1.055004">
        <ele>39.6</ele>
        <time>2024-01-14T13:06:59Z</time>
      </trkpt>
      <trkpt lat="38.003513" lon="-1.054922">
        <ele>39.3</ele>
        <time>2024-01-14T13:07:12Z</time>
      </trkpt>
      <trkpt lat="38.003692" lon="-1.054845">
        <ele>38.6</ele>
        <time>2024-01-14T13:07:25Z</time>
      </trkpt>
      <trkpt lat="38.003874" lon="-1.054764">
        <ele>38.6</ele>
        <time>2024-01-14T13:07:38Z</time>
      </trkpt>
      <trkpt lat="38.004045" lon="-1.054661">
        <ele>37.6</ele>
        <time>2024-01-14T13:07:51Z</time>
      </trkpt>
      <trkpt lat="38.004215" lon="-1.054564">
        <ele>37.6</ele>
        <time>2024-01-14T13:08:04Z</time>
      </trkpt>
      <trkpt lat="38.004368" lon="-1.054440">
        <ele>37.6</ele>
        <time>2024-01-14T13:08:16Z</time>
      </trkpt>
      <trkpt lat="38.004514" lon="-1.054300">
        <ele>35.9</ele>
        <time>2024-01-14T13:08:28Z</time>
      </trkpt>
      <trkpt lat="38.004657" lon="-1.054133">
        <ele>36.6</ele>
        <time>2024-01-14T13:08:41Z</time>
      </trkpt>
      <trkpt lat="38.004787" lon="-1.053970">
        <ele>35.6</ele>
        <time>2024-01-14T13:08:54Z</time>
      </trkpt>
      <trkpt lat="38.004901" lon="-1.053771">
        <ele>35.7</ele>
        <time>2024-01-14T13:09:07Z</time>
      </trkpt>
      <trkpt lat="38.004999" lon="-1.053569">
        <ele>36.6</ele>
        <time>2024-01-14T13:09:20Z</time>
      </trkpt>
      <trkpt lat="38.005085" lon="-1.053353">
        <ele>36.6</ele>
        <time>2024-01-14T13:09:33Z</time>
      </trkpt>
      <trkpt lat="38.005156" lon="-1.053127">
        <ele>34.6</ele>
        <time>2024-01-14T13:10:00Z</time>
      </trkpt>
      <trkpt lat="38.005218" lon="-1.052904">
        <ele>34.6</ele>
        <time>2024-01-14T13:10:12Z</time>
      </trkpt>
      <trkpt lat="38.005258" lon="-1.052667">
        <ele>34.9</ele>
        <time>2024-01-14T13:10:25Z</time>
      </trkpt>
      <trkpt lat="38.005272" lon="-1.052432">
        <ele>35.6</ele>
        <time>2024-01-14T13:10:38Z</time>
      </trkpt>
      <trkpt lat="38.005274" lon="-1.052188">
        <ele>36.6</ele>
        <time>2024-01-14T13:10:51Z</time>
      </trkpt>
      <trkpt lat="38.005285" lon="-1.051946">
        <ele>36.9</ele>
        <time>2024-01-14T13:11:04Z</time>
      </trkpt>
      <trkpt lat="38.005285" lon="-1.051707">
        <ele>36.6</ele>
        <time>2024-01-14T13:11:17Z</time>
      </trkpt>
      <trkpt lat="38.005296" lon="-1.051461">
        <ele>37.0</ele>
        <time>2024-01-14T13:11:30Z</time>
      </trkpt>
      <trkpt lat="38.005302" lon="-1.051228">
        <ele>37.1</ele>
        <time>2024-01-14T13:11:42Z</time>
      </trkpt>
      <trkpt lat="38.005324" lon="-1.050986">
        <ele>37.1</ele>
        <time>2024-01-14T13:11:55Z</time>
      </trkpt>
      <trkpt lat="38.005339" lon="-1.050751">
        <ele>35.6</ele>
        <time>2024-01-14T13:12:08Z</time>
      </trkpt>
      <trkpt lat="38.005363" lon="-1.050518">
        <ele>35.6</ele>
        <time>2024-01-14T13:12:21Z</time>
      </trkpt>
      <trkpt lat="38.005402" lon="-1.050289">
        <ele>36.3</ele>
        <time>2024-01-14T13:12:34Z</time>
      </trkpt>
      <trkpt lat="38.005436" lon="-1.050064">
        <ele>35.6</ele>
        <time>2024-01-14T13:12:46Z</time>
      </trkpt>
      <trkpt lat="38.005492" lon="-1.049831">
        <ele>36.6</ele>
        <time>2024-01-14T13:12:59Z</time>
      </trkpt>
      <trkpt lat="38.005566" lon="-1.049609">
        <ele>35.6</ele>
        <time>2024-01-14T13:13:12Z</time>
      </trkpt>
      <trkpt lat="38.005663" lon="-1.049413">
        <ele>34.6</ele>
        <time>2024-01-14T13:13:25Z</time>
      </trkpt>
      <trkpt lat="38.005781" lon="-1.049223">
        <ele>32.6</ele>
        <time>2024-01-14T13:13:38Z</time>
      </trkpt>
      <trkpt lat="38.005921" lon="-1.049069">
        <ele>32.6</ele>
        <time>2024-01-14T13:13:51Z</time>
      </trkpt>
      <trkpt lat="38.006067" lon="-1.048920">
        <ele>33.3</ele>
        <time>2024-01-14T13:14:04Z</time>
      </trkpt>
      <trkpt lat="38.006251" lon="-1.048869">
        <ele>33.6</ele>
        <time>2024-01-14T13:14:17Z</time>
      </trkpt>
      <trkpt lat="38.006434" lon="-1.048836">
        <ele>31.6</ele>
        <time>2024-01-14T13:14:30Z</time>
      </trkpt>
      <trkpt lat="38.006616" lon="-1.048840">
        <ele>32.5</ele>
        <time>2024-01-14T13:14:42Z</time>
      </trkpt>
      <trkpt lat="38.006795" lon="-1.048861">
        <ele>32.5</ele>
        <time>2024-01-14T13:14:53Z</time>
      </trkpt>
      <trkpt lat="38.006974" lon="-1.048888">
        <ele>32.6</ele>
        <time>2024-01-14T13:15:05Z</time>
      </trkpt>
      <trkpt lat="38.007153" lon="-1.048903">
        <ele>32.6</ele>
        <time>2024-01-14T13:15:17Z</time>
      </trkpt>
      <trkpt lat="38.007335" lon="-1.048917">
        <ele>32.6</ele>
        <time>2024-01-14T13:15:30Z</time>
      </trkpt>
      <trkpt lat="38.007525" lon="-1.048904">
        <ele>32.6</ele>
        <time>2024-01-14T13:15:43Z</time>
      </trkpt>
      <trkpt lat="38.007711" lon="-1.048879">
        <ele>32.6</ele>
        <time>2024-01-14T13:15:56Z</time>
      </trkpt>
      <trkpt lat="38.007892" lon="-1.048856">
        <ele>32.8</ele>
        <time>2024-01-14T13:16:09Z</time>
      </trkpt>
      <trkpt lat="38.008076" lon="-1.048815">
        <ele>31.6</ele>
        <time>2024-01-14T13:16:21Z</time>
      </trkpt>
      <trkpt lat="38.008253" lon="-1.048745">
        <ele>32.3</ele>
        <time>2024-01-14T13:16:35Z</time>
      </trkpt>
      <trkpt lat="38.008424" lon="-1.048646">
        <ele>31.6</ele>
        <time>2024-01-14T13:16:48Z</time>
      </trkpt>
      <trkpt lat="38.008594" lon="-1.048544">
        <ele>34.4</ele>
        <time>2024-01-14T13:17:02Z</time>
      </trkpt>
      <trkpt lat="38.008746" lon="-1.048419">
        <ele>34.7</ele>
        <time>2024-01-14T13:17:15Z</time>
      </trkpt>
      <trkpt lat="38.008880" lon="-1.048257">
        <ele>34.7</ele>
        <time>2024-01-14T13:17:29Z</time>
      </trkpt>
      <trkpt lat="38.009003" lon="-1.048071">
        <ele>32.6</ele>
        <time>2024-01-14T13:17:44Z</time>
      </trkpt>
      <trkpt lat="38.009100" lon="-1.047867">
        <ele>32.6</ele>
        <time>2024-01-14T13:17:58Z</time>
      </trkpt>
      <trkpt lat="38.009193" lon="-1.047658">
        <ele>32.6</ele>
        <time>2024-01-14T13:18:13Z</time>
      </trkpt>
      <trkpt lat="38.009300" lon="-1.047475">
        <ele>32.6</ele>
        <time>2024-01-14T13:18:25Z</time>
      </trkpt>
      <trkpt lat="38.009414" lon="-1.047279">
        <ele>36.8</ele>
        <time>2024-01-14T13:18:38Z</time>
      </trkpt>
      <trkpt lat="38.009538" lon="-1.047083">
        <ele>34.7</ele>
        <time>2024-01-14T13:18:52Z</time>
      </trkpt>
      <trkpt lat="38.009659" lon="-1.046905">
        <ele>36.9</ele>
        <time>2024-01-14T13:19:05Z</time>
      </trkpt>
      <trkpt lat="38.009796" lon="-1.046755">
        <ele>36.9</ele>
        <time>2024-01-14T13:19:17Z</time>
      </trkpt>
      <trkpt lat="38.009948" lon="-1.046619">
        <ele>35.4</ele>
        <time>2024-01-14T13:19:30Z</time>
      </trkpt>
      <trkpt lat="38.010087" lon="-1.046472">
        <ele>36.3</ele>
        <time>2024-01-14T13:19:42Z</time>
      </trkpt>
      <trkpt lat="38.010244" lon="-1.046339">
        <ele>36.9</ele>
        <time>2024-01-14T13:19:55Z</time>
      </trkpt>
      <trkpt lat="38.010400" lon="-1.046208">
        <ele>36.8</ele>
        <time>2024-01-14T13:20:41Z</time>
      </trkpt>
      <trkpt lat="38.010560" lon="-1.046086">
        <ele>36.8</ele>
        <time>2024-01-14T13:20:55Z</time>
      </trkpt>
      <trkpt lat="38.010703" lon="-1.045937">
        <ele>37.0</ele>
        <time>2024-01-14T13:21:09Z</time>
      </trkpt>
      <trkpt lat="38.010858" lon="-1.045815">
        <ele>36.8</ele>
        <time>2024-01-14T13:21:23Z</time>
      </trkpt>
      <trkpt lat="38.011007" lon="-1.045688">
        <ele>36.5</ele>
        <time>2024-01-14T13:21:36Z</time>
      </trkpt>
      <trkpt lat="38.011166" lon="-1.045558">
        <ele>29.6</ele>
        <time>2024-01-14T13:21:51Z</time>
      </trkpt>
      <trkpt lat="38.011327" lon="-1.045434">
        <ele>29.6</ele>
        <time>2024-01-14T13:22:04Z</time>
      </trkpt>
      <trkpt lat="38.011473" lon="-1.045289">
        <ele>30.5</ele>
        <time>2024-01-14T13:22:17Z</time>
      </trkpt>
      <trkpt lat="38.011622" lon="-1.045149">
        <ele>28.6</ele>
        <time>2024-01-14T13:22:31Z</time>
      </trkpt>
      <trkpt lat="38.011776" lon="-1.045022">
        <ele>30.6</ele>
        <time>2024-01-14T13:22:44Z</time>
      </trkpt>
      <trkpt lat="38.011932" lon="-1.044892">
        <ele>30.3</ele>
        <time>2024-01-14T13:22:58Z</time>
      </trkpt>
      <trkpt lat="38.012083" lon="-1.044750">
        <ele>32.6</ele>
        <time>2024-01-14T13:23:13Z</time>
      </trkpt>
      <trkpt lat="38.012234" lon="-1.044608">
        <ele>31.6</ele>
        <time>2024-01-14T13:23:27Z</time>
      </trkpt>
      <trkpt lat="38.012394" lon="-1.044491">
        <ele>31.6</ele>
        <time>2024-01-14T13:23:40Z</time>
      </trkpt>
      <trkpt lat="38.012546" lon="-1.044362">
        <ele>30.6</ele>
        <time>2024-01-14T13:23:54Z</time>
      </trkpt>
      <trkpt lat="38.012713" lon="-1.044249">
        <ele>36.5</ele>
        <time>2024-01-14T13:24:09Z</time>
      </trkpt>
      <trkpt lat="38.012868" lon="-1.044109">
        <ele>36.6</ele>
        <time>2024-01-14T13:24:24Z</time>
      </trkpt>
      <trkpt lat="38.013009" lon="-1.043962">
        <ele>34.7</ele>
        <time>2024-01-14T13:24:38Z</time>
      </trkpt>
      <trkpt lat="38.013160" lon="-1.043822">
        <ele>34.7</ele>
        <time>2024-01-14T13:24:53Z</time>
      </trkpt>
      <trkpt lat="38.013313" lon="-1.043671">
        <ele>34.7</ele>
        <time>2024-01-14T13:25:08Z</time>
      </trkpt>
      <trkpt lat="38.013468" lon="-1.043541">
        <ele>34.7</ele>
        <time>2024-01-14T13:25:21Z</time>
      </trkpt>
      <trkpt lat="38.013614" lon="-1.043406">
        <ele>32.3</ele>
        <time>2024-01-14T13:25:35Z</time>
      </trkpt>
      <trkpt lat="38.013762" lon="-1.043276">
        <ele>31.6</ele>
        <time>2024-01-14T13:25:48Z</time>
      </trkpt>
      <trkpt lat="38.013915" lon="-1.043142">
        <ele>36.5</ele>
        <time>2024-01-14T13:26:01Z</time>
      </trkpt>
      <trkpt lat="38.014061" lon="-1.042993">
        <ele>36.5</ele>
        <time>2024-01-14T13:26:16Z</time>
      </trkpt>
      <trkpt lat="38.014216" lon="-1.042859">
        <ele>36.7</ele>
        <time>2024-01-14T13:26:34Z</time>
      </trkpt>
      <trkpt lat="38.014695" lon="-1.042472">
        <ele>36.6</ele>
        <time>2024-01-14T13:27:17Z</time>
      </trkpt>
      <trkpt lat="38.014842" lon="-1.042325">
        <ele>36.7</ele>
        <time>2024-01-14T13:27:39Z</time>
      </trkpt>
      <trkpt lat="38.014990" lon="-1.042184">
        <ele>36.7</ele>
        <time>2024-01-14T13:27:53Z</time>
      </trkpt>
      <trkpt lat="38.015136" lon="-1.042041">
        <ele>36.7</ele>
        <time>2024-01-14T13:28:07Z</time>
      </trkpt>
      <trkpt lat="38.015279" lon="-1.041892">
        <ele>36.5</ele>
        <time>2024-01-14T13:28:21Z</time>
      </trkpt>
      <trkpt lat="38.015423" lon="-1.041750">
        <ele>36.0</ele>
        <time>2024-01-14T13:28:35Z</time>
      </trkpt>
      <trkpt lat="38.015576" lon="-1.041615">
        <ele>36.0</ele>
        <time>2024-01-14T13:28:49Z</time>
      </trkpt>
      <trkpt lat="38.015898" lon="-1.041381">
        <ele>30.7</ele>
        <time>2024-01-14T13:29:19Z</time>
      </trkpt>
      <trkpt lat="38.016060" lon="-1.041264">
        <ele>29.5</ele>
        <time>2024-01-14T13:29:34Z</time>
      </trkpt>
      <trkpt lat="38.016226" lon="-1.041148">
        <ele>29.6</ele>
        <time>2024-01-14T13:29:49Z</time>
      </trkpt>
      <trkpt lat="38.016388" lon="-1.041030">
        <ele>35.5</ele>
        <time>2024-01-14T13:30:05Z</time>
      </trkpt>
      <trkpt lat="38.016560" lon="-1.040935">
        <ele>35.5</ele>
        <time>2024-01-14T13:30:20Z</time>
      </trkpt>
      <trkpt lat="38.016726" lon="-1.040833">
        <ele>35.5</ele>
        <time>2024-01-14T13:30:35Z</time>
      </trkpt>
      <trkpt lat="38.016893" lon="-1.040744">
        <ele>35.7</ele>
        <time>2024-01-14T13:30:50Z</time>
      </trkpt>
      <trkpt lat="38.017226" lon="-1.040540">
        <ele>36.1</ele>
        <time>2024-01-14T13:31:33Z</time>
      </trkpt>
      <trkpt lat="38.017381" lon="-1.040408">
        <ele>35.2</ele>
        <time>2024-01-14T13:31:48Z</time>
      </trkpt>
      <trkpt lat="38.017542" lon="-1.040300">
        <ele>35.2</ele>
        <time>2024-01-14T13:32:03Z</time>
      </trkpt>
      <trkpt lat="38.017712" lon="-1.040211">
        <ele>35.2</ele>
        <time>2024-01-14T13:32:18Z</time>
      </trkpt>
      <trkpt lat="38.017887" lon="-1.040114">
        <ele>36.1</ele>
        <time>2024-01-14T13:32:32Z</time>
      </trkpt>
      <trkpt lat="38.018059" lon="-1.040038">
        <ele>36.1</ele>
        <time>2024-01-14T13:32:46Z</time>
      </trkpt>
      <trkpt lat="38.018235" lon="-1.039943">
        <ele>36.1</ele>
        <time>2024-01-14T13:33:02Z</time>
      </trkpt>
      <trkpt lat="38.018408" lon="-1.039853">
        <ele>36.1</ele>
        <time>2024-01-14T13:33:18Z</time>
      </trkpt>
      <trkpt lat="38.018587" lon="-1.039775">
        <ele>32.2</ele>
        <time>2024-01-14T13:33:34Z</time>
      </trkpt>
      <trkpt lat="38.018758" lon="-1.039695">
        <ele>36.1</ele>
        <time>2024-01-14T13:33:49Z</time>
      </trkpt>
      <trkpt lat="38.018940" lon="-1.039620">
        <ele>36.1</ele>
        <time>2024-01-14T13:34:05Z</time>
      </trkpt>
      <trkpt lat="38.019122" lon="-1.039560">
        <ele>35.6</ele>
        <time>2024-01-14T13:34:20Z</time>
      </trkpt>
      <trkpt lat="38.019293" lon="-1.039486">
        <ele>36.1</ele>
        <time>2024-01-14T13:34:34Z</time>
      </trkpt>
      <trkpt lat="38.019469" lon="-1.039430">
        <ele>36.1</ele>
        <time>2024-01-14T13:34:49Z</time>
      </trkpt>
      <trkpt lat="38.019655" lon="-1.039371">
        <ele>36.1</ele>
        <time>2024-01-14T13:35:04Z</time>
      </trkpt>
      <trkpt lat="38.019832" lon="-1.039315">
        <ele>35.6</ele>
        <time>2024-01-14T13:35:18Z</time>
      </trkpt>
      <trkpt lat="38.020015" lon="-1.039276">
        <ele>36.1</ele>
        <time>2024-01-14T13:35:34Z</time>
      </trkpt>
      <trkpt lat="38.020198" lon="-1.039236">
        <ele>35.2</ele>
        <time>2024-01-14T13:35:49Z</time>
      </trkpt>
      <trkpt lat="38.020382" lon="-1.039219">
        <ele>35.2</ele>
        <time>2024-01-14T13:36:03Z</time>
      </trkpt>
      <trkpt lat="38.020568" lon="-1.039179">
        <ele>35.2</ele>
        <time>2024-01-14T13:36:18Z</time>
      </trkpt>
      <trkpt lat="38.020753" lon="-1.039138">
        <ele>34.6</ele>
        <time>2024-01-14T13:36:33Z</time>
      </trkpt>
      <trkpt lat="38.020935" lon="-1.039112">
        <ele>35.2</ele>
        <time>2024-01-14T13:36:48Z</time>
      </trkpt>
      <trkpt lat="38.021121" lon="-1.039083">
        <ele>35.2</ele>
        <time>2024-01-14T13:37:03Z</time>
      </trkpt>
      <trkpt lat="38.021311" lon="-1.039052">
        <ele>34.8</ele>
        <time>2024-01-14T13:37:18Z</time>
      </trkpt>
      <trkpt lat="38.021493" lon="-1.039021">
        <ele>34.8</ele>
        <time>2024-01-14T13:37:35Z</time>
      </trkpt>
      <trkpt lat="38.021678" lon="-1.038984">
        <ele>34.8</ele>
        <time>2024-01-14T13:37:49Z</time>
      </trkpt>
      <trkpt lat="38.021865" lon="-1.038983">
        <ele>34.8</ele>
        <time>2024-01-14T13:38:13Z</time>
      </trkpt>
      <trkpt lat="38.022225" lon="-1.038916">
        <ele>31.2</ele>
        <time>2024-01-14T13:38:44Z</time>
      </trkpt>
      <trkpt lat="38.022776" lon="-1.038835">
        <ele>29.3</ele>
        <time>2024-01-14T13:39:35Z</time>
      </trkpt>
      <trkpt lat="38.022960" lon="-1.038766">
        <ele>28.8</ele>
        <time>2024-01-14T13:39:51Z</time>
      </trkpt>
      <trkpt lat="38.023139" lon="-1.038720">
        <ele>29.6</ele>
        <time>2024-01-14T13:40:05Z</time>
      </trkpt>
      <trkpt lat="38.023313" lon="-1.038661">
        <ele>29.6</ele>
        <time>2024-01-14T13:40:20Z</time>
      </trkpt>
      <trkpt lat="38.023494" lon="-1.038623">
        <ele>30.6</ele>
        <time>2024-01-14T13:40:41Z</time>
      </trkpt>
      <trkpt lat="38.023674" lon="-1.038592">
        <ele>30.5</ele>
        <time>2024-01-14T13:41:04Z</time>
      </trkpt>
      <trkpt lat="38.023832" lon="-1.038644">
        <ele>34.8</ele>
        <time>2024-01-14T13:41:45Z</time>
      </trkpt>
      <trkpt lat="38.023870" lon="-1.038826">
        <ele>36.6</ele>
        <time>2024-01-14T13:42:07Z</time>
      </trkpt>
      <trkpt lat="38.023947" lon="-1.038794">
        <ele>34.3</ele>
        <time>2024-02-04T06:59:58Z</time>
      </trkpt>
      <trkpt lat="38.023906" lon="-1.038629">
        <ele>34.3</ele>
        <time>2024-02-04T07:00:30Z</time>
      </trkpt>
      <trkpt lat="38.023993" lon="-1.038497">
        <ele>34.9</ele>
        <time>2024-02-04T07:13:11Z</time>
      </trkpt>
      <trkpt lat="38.024174" lon="-1.038472">
        <ele>34.6</ele>
        <time>2024-02-04T07:13:26Z</time>
      </trkpt>
      <trkpt lat="38.024353" lon="-1.038428">
        <ele>34.9</ele>
        <time>2024-02-04T07:13:48Z</time>
      </trkpt>
      <trkpt lat="38.024532" lon="-1.038381">
        <ele>34.9</ele>
        <time>2024-02-04T07:14:02Z</time>
      </trkpt>
      <trkpt lat="38.024711" lon="-1.038359">
        <ele>34.9</ele>
        <time>2024-02-04T07:14:15Z</time>
      </trkpt>
      <trkpt lat="38.024893" lon="-1.038323">
        <ele>33.6</ele>
        <time>2024-02-04T07:14:31Z</time>
      </trkpt>
      <trkpt lat="38.025073" lon="-1.038287">
        <ele>34.6</ele>
        <time>2024-02-04T07:14:47Z</time>
      </trkpt>
      <trkpt lat="38.025251" lon="-1.038334">
        <ele>31.6</ele>
        <time>2024-02-04T07:15:02Z</time>
      </trkpt>
      <trkpt lat="38.025424" lon="-1.038267">
        <ele>30.5</ele>
        <time>2024-02-04T07:15:17Z</time>
      </trkpt>
      <trkpt lat="38.025583" lon="-1.038149">
        <ele>33.3</ele>
        <time>2024-02-04T07:15:32Z</time>
      </trkpt>
      <trkpt lat="38.025729" lon="-1.038007">
        <ele>31.6</ele>
        <time>2024-02-04T07:15:59Z</time>
      </trkpt>
      <trkpt lat="38.025874" lon="-1.037869">
        <ele>31.6</ele>
        <time>2024-02-04T07:16:15Z</time>
      </trkpt>
      <trkpt lat="38.025974" lon="-1.037672">
        <ele>31.5</ele>
        <time>2024-02-04T07:16:28Z</time>
      </trkpt>
      <trkpt lat="38.026112" lon="-1.037520">
        <ele>28.6</ele>
        <time>2024-02-04T07:16:43Z</time>
      </trkpt>
      <trkpt lat="38.026197" lon="-1.037315">
        <ele>28.9</ele>
        <time>2024-02-04T07:16:57Z</time>
      </trkpt>
      <trkpt lat="38.026295" lon="-1.037121">
        <ele>27.6</ele>
        <time>2024-02-04T07:17:10Z</time>
      </trkpt>
      <trkpt lat="38.026353" lon="-1.036904">
        <ele>28.6</ele>
        <time>2024-02-04T07:17:23Z</time>
      </trkpt>
      <trkpt lat="38.026431" lon="-1.036696">
        <ele>29.6</ele>
        <time>2024-02-04T07:17:38Z</time>
      </trkpt>
      <trkpt lat="38.026508" lon="-1.036481">
        <ele>29.6</ele>
        <time>2024-02-04T07:17:52Z</time>
      </trkpt>
      <trkpt lat="38.026565" lon="-1.036257">
        <ele>30.5</ele>
        <time>2024-02-04T07:18:05Z</time>
      </trkpt>
      <trkpt lat="38.026637" lon="-1.036045">
        <ele>31.6</ele>
        <time>2024-02-04T07:18:18Z</time>
      </trkpt>
      <trkpt lat="38.026697" lon="-1.035827">
        <ele>30.6</ele>
        <time>2024-02-04T07:18:31Z</time>
      </trkpt>
      <trkpt lat="38.026787" lon="-1.035629">
        <ele>31.6</ele>
        <time>2024-02-04T07:18:46Z</time>
      </trkpt>
      <trkpt lat="38.026875" lon="-1.035429">
        <ele>31.5</ele>
        <time>2024-02-04T07:19:01Z</time>
      </trkpt>
      <trkpt lat="38.026946" lon="-1.035211">
        <ele>31.6</ele>
        <time>2024-02-04T07:19:14Z</time>
      </trkpt>
      <trkpt lat="38.027015" lon="-1.034995">
        <ele>30.6</ele>
        <time>2024-02-04T07:19:28Z</time>
      </trkpt>
      <trkpt lat="38.027099" lon="-1.034783">
        <ele>31.6</ele>
        <time>2024-02-04T07:19:43Z</time>
      </trkpt>
      <trkpt lat="38.027197" lon="-1.034583">
        <ele>31.6</ele>
        <time>2024-02-04T07:19:57Z</time>
      </trkpt>
      <trkpt lat="38.027246" lon="-1.034352">
        <ele>33.8</ele>
        <time>2024-02-04T07:20:12Z</time>
      </trkpt>
      <trkpt lat="38.027303" lon="-1.034131">
        <ele>31.8</ele>
        <time>2024-02-04T07:20:27Z</time>
      </trkpt>
      <trkpt lat="38.027386" lon="-1.033919">
        <ele>33.5</ele>
        <time>2024-02-04T07:20:42Z</time>
      </trkpt>
      <trkpt lat="38.027448" lon="-1.033700">
        <ele>30.6</ele>
        <time>2024-02-04T07:22:12Z</time>
      </trkpt>
      <trkpt lat="38.027506" lon="-1.033483">
        <ele>32.6</ele>
        <time>2024-02-04T07:22:30Z</time>
      </trkpt>
      <trkpt lat="38.027590" lon="-1.033261">
        <ele>32.9</ele>
        <time>2024-02-04T07:22:42Z</time>
      </trkpt>
      <trkpt lat="38.027647" lon="-1.033044">
        <ele>32.6</ele>
        <time>2024-02-04T07:22:54Z</time>
      </trkpt>
      <trkpt lat="38.027737" lon="-1.032830">
        <ele>32.6</ele>
        <time>2024-02-04T07:23:21Z</time>
      </trkpt>
      <trkpt lat="38.027815" lon="-1.032617">
        <ele>31.6</ele>
        <time>2024-02-04T07:23:33Z</time>
      </trkpt>
      <trkpt lat="38.027889" lon="-1.032405">
        <ele>30.9</ele>
        <time>2024-02-04T07:23:45Z</time>
      </trkpt>
      <trkpt lat="38.027957" lon="-1.032192">
        <ele>30.6</ele>
        <time>2024-02-04T07:23:58Z</time>
      </trkpt>
      <trkpt lat="38.028033" lon="-1.031981">
        <ele>31.5</ele>
        <time>2024-02-04T07:24:10Z</time>
      </trkpt>
      <trkpt lat="38.028094" lon="-1.031764">
        <ele>31.5</ele>
        <time>2024-02-04T07:24:30Z</time>
      </trkpt>
      <trkpt lat="38.028179" lon="-1.031556">
        <ele>30.6</ele>
        <time>2024-02-04T07:24:44Z</time>
      </trkpt>
      <trkpt lat="38.028245" lon="-1.031338">
        <ele>32.6</ele>
        <time>2024-02-04T07:24:56Z</time>
      </trkpt>
      <trkpt lat="38.028338" lon="-1.031133">
        <ele>32.7</ele>
        <time>2024-02-04T07:25:09Z</time>
      </trkpt>
      <trkpt lat="38.028409" lon="-1.030913">
        <ele>34.5</ele>
        <time>2024-02-04T07:25:21Z</time>
      </trkpt>
      <trkpt lat="38.028468" lon="-1.030693">
        <ele>34.7</ele>
        <time>2024-02-04T07:25:33Z</time>
      </trkpt>
      <trkpt lat="38.028534" lon="-1.030475">
        <ele>34.5</ele>
        <time>2024-02-04T07:25:45Z</time>
      </trkpt>
      <trkpt lat="38.028608" lon="-1.030265">
        <ele>35.6</ele>
        <time>2024-02-04T07:25:57Z</time>
      </trkpt>
      <trkpt lat="38.028717" lon="-1.030072">
        <ele>34.7</ele>
        <time>2024-02-04T07:26:12Z</time>
      </trkpt>
      <trkpt lat="38.028802" lon="-1.029861">
        <ele>34.7</ele>
        <time>2024-02-04T07:26:25Z</time>
      </trkpt>
      <trkpt lat="38.028850" lon="-1.029634">
        <ele>34.7</ele>
        <time>2024-02-04T07:26:36Z</time>
      </trkpt>
      <trkpt lat="38.028904" lon="-1.029413">
        <ele>34.7</ele>
        <time>2024-02-04T07:26:48Z</time>
      </trkpt>
      <trkpt lat="38.028971" lon="-1.029199">
        <ele>34.7</ele>
        <time>2024-02-04T07:27:00Z</time>
      </trkpt>
      <trkpt lat="38.029050" lon="-1.028993">
        <ele>34.7</ele>
        <time>2024-02-04T07:27:15Z</time>
      </trkpt>
      <trkpt lat="38.029123" lon="-1.028778">
        <ele>34.6</ele>
        <time>2024-02-04T07:27:32Z</time>
      </trkpt>
      <trkpt lat="38.029199" lon="-1.028570">
        <ele>33.6</ele>
        <time>2024-02-04T07:27:50Z</time>
      </trkpt>
      <trkpt lat="38.029274" lon="-1.028358">
        <ele>35.6</ele>
        <time>2024-02-04T07:28:06Z</time>
      </trkpt>
      <trkpt lat="38.029332" lon="-1.028133">
        <ele>35.6</ele>
        <time>2024-02-04T07:28:22Z</time>
      </trkpt>
      <trkpt lat="38.029410" lon="-1.027915">
        <ele>34.9</ele>
        <time>2024-02-04T07:28:37Z</time>
      </trkpt>
      <trkpt lat="38.029502" lon="-1.027711">
        <ele>33.6</ele>
        <time>2024-02-04T07:28:51Z</time>
      </trkpt>
      <trkpt lat="38.029635" lon="-1.027551">
        <ele>34.6</ele>
        <time>2024-02-04T07:29:07Z</time>
      </trkpt>
      <trkpt lat="38.029774" lon="-1.027402">
        <ele>33.6</ele>
        <time>2024-02-04T07:29:21Z</time>
      </trkpt>
      <trkpt lat="38.029924" lon="-1.027269">
        <ele>32.6</ele>
        <time>2024-02-04T07:29:35Z</time>
      </trkpt>
      <trkpt lat="38.030073" lon="-1.027135">
        <ele>36.6</ele>
        <time>2024-02-04T07:29:49Z</time>
      </trkpt>
      <trkpt lat="38.030223" lon="-1.026998">
        <ele>35.5</ele>
        <time>2024-02-04T07:30:03Z</time>
      </trkpt>
      <trkpt lat="38.030381" lon="-1.026888">
        <ele>35.6</ele>
        <time>2024-02-04T07:30:18Z</time>
      </trkpt>
      <trkpt lat="38.030544" lon="-1.026787">
        <ele>35.6</ele>
        <time>2024-02-04T07:30:34Z</time>
      </trkpt>
      <trkpt lat="38.030705" lon="-1.026680">
        <ele>35.6</ele>
        <time>2024-02-04T07:30:48Z</time>
      </trkpt>
      <trkpt lat="38.030869" lon="-1.026561">
        <ele>34.6</ele>
        <time>2024-02-04T07:31:03Z</time>
      </trkpt>
      <trkpt lat="38.031033" lon="-1.026454">
        <ele>32.7</ele>
        <time>2024-02-04T07:31:16Z</time>
      </trkpt>
      <trkpt lat="38.031190" lon="-1.026341">
        <ele>32.6</ele>
        <time>2024-02-04T07:31:30Z</time>
      </trkpt>
      <trkpt lat="38.031354" lon="-1.026227">
        <ele>33.8</ele>
        <time>2024-02-04T07:31:46Z</time>
      </trkpt>
      <trkpt lat="38.031511" lon="-1.026106">
        <ele>33.8</ele>
        <time>2024-02-04T07:31:59Z</time>
      </trkpt>
      <trkpt lat="38.031666" lon="-1.025971">
        <ele>33.8</ele>
        <time>2024-02-04T07:32:14Z</time>
      </trkpt>
      <trkpt lat="38.031822" lon="-1.025844">
        <ele>33.8</ele>
        <time>2024-02-04T07:32:29Z</time>
      </trkpt>
      <trkpt lat="38.031968" lon="-1.025707">
        <ele>32.2</ele>
        <time>2024-02-04T07:32:42Z</time>
      </trkpt>
      <trkpt lat="38.032103" lon="-1.025545">
        <ele>30.6</ele>
        <time>2024-02-04T07:32:56Z</time>
      </trkpt>
      <trkpt lat="38.032237" lon="-1.025379">
        <ele>30.6</ele>
        <time>2024-02-04T07:33:10Z</time>
      </trkpt>
      <trkpt lat="38.032376" lon="-1.025213">
        <ele>32.2</ele>
        <time>2024-02-04T07:33:25Z</time>
      </trkpt>
      <trkpt lat="38.032501" lon="-1.025040">
        <ele>33.8</ele>
        <time>2024-02-04T07:33:39Z</time>
      </trkpt>
      <trkpt lat="38.032579" lon="-1.024833">
        <ele>33.8</ele>
        <time>2024-02-04T07:33:51Z</time>
      </trkpt>
      <trkpt lat="38.032625" lon="-1.024609">
        <ele>33.8</ele>
        <time>2024-02-04T07:34:05Z</time>
      </trkpt>
      <trkpt lat="38.032650" lon="-1.024379">
        <ele>33.8</ele>
        <time>2024-02-04T07:34:18Z</time>
      </trkpt>
      <trkpt lat="38.032643" lon="-1.024144">
        <ele>33.8</ele>
        <time>2024-02-04T07:34:31Z</time>
      </trkpt>
      <trkpt lat="38.032611" lon="-1.023911">
        <ele>30.6</ele>
        <time>2024-02-04T07:34:43Z</time>
      </trkpt>
      <trkpt lat="38.032544" lon="-1.023690">
        <ele>30.8</ele>
        <time>2024-02-04T07:34:57Z</time>
      </trkpt>
      <trkpt lat="38.032473" lon="-1.023479">
        <ele>31.6</ele>
        <time>2024-02-04T07:35:12Z</time>
      </trkpt>
      <trkpt lat="38.032387" lon="-1.023268">
        <ele>31.6</ele>
        <time>2024-02-04T07:35:24Z</time>
      </trkpt>
      <trkpt lat="38.032337" lon="-1.023046">
        <ele>32.3</ele>
        <time>2024-02-04T07:35:38Z</time>
      </trkpt>
      <trkpt lat="38.032265" lon="-1.022831">
        <ele>33.2</ele>
        <time>2024-02-04T07:35:51Z</time>
      </trkpt>
      <trkpt lat="38.032165" lon="-1.022634">
        <ele>33.2</ele>
        <time>2024-02-04T07:36:03Z</time>
      </trkpt>
      <trkpt lat="38.032066" lon="-1.022442">
        <ele>33.2</ele>
        <time>2024-02-04T07:36:16Z</time>
      </trkpt>
      <trkpt lat="38.031973" lon="-1.022238">
        <ele>33.2</ele>
        <time>2024-02-04T07:36:30Z</time>
      </trkpt>
      <trkpt lat="38.031900" lon="-1.022025">
        <ele>33.2</ele>
        <time>2024-02-04T07:36:44Z</time>
      </trkpt>
      <trkpt lat="38.031851" lon="-1.021796">
        <ele>33.2</ele>
        <time>2024-02-04T07:36:58Z</time>
      </trkpt>
      <trkpt lat="38.031824" lon="-1.021567">
        <ele>33.2</ele>
        <time>2024-02-04T07:37:10Z</time>
      </trkpt>
      <trkpt lat="38.031836" lon="-1.021328">
        <ele>34.6</ele>
        <time>2024-02-04T07:37:24Z</time>
      </trkpt>
      <trkpt lat="38.031878" lon="-1.021101">
        <ele>35.6</ele>
        <time>2024-02-04T07:37:38Z</time>
      </trkpt>
      <trkpt lat="38.031963" lon="-1.020895">
        <ele>32.6</ele>
        <time>2024-02-04T07:37:49Z</time>
      </trkpt>
      <trkpt lat="38.032072" lon="-1.020704">
        <ele>35.5</ele>
        <time>2024-02-04T07:38:02Z</time>
      </trkpt>
      <trkpt lat="38.032171" lon="-1.020514">
        <ele>35.6</ele>
        <time>2024-02-04T07:38:15Z</time>
      </trkpt>
      <trkpt lat="38.032309" lon="-1.020364">
        <ele>34.6</ele>
        <time>2024-02-04T07:38:28Z</time>
      </trkpt>
      <trkpt lat="38.032439" lon="-1.020200">
        <ele>34.6</ele>
        <time>2024-02-04T07:38:42Z</time>
      </trkpt>
      <trkpt lat="38.032584" lon="-1.020060">
        <ele>33.6</ele>
        <time>2024-02-04T07:38:55Z</time>
      </trkpt>
      <trkpt lat="38.032733" lon="-1.019911">
        <ele>32.9</ele>
        <time>2024-02-04T07:39:07Z</time>
      </trkpt>
      <trkpt lat="38.032889" lon="-1.019779">
        <ele>32.6</ele>
        <time>2024-02-04T07:39:21Z</time>
      </trkpt>
      <trkpt lat="38.033021" lon="-1.019621">
        <ele>30.6</ele>
        <time>2024-02-04T07:39:33Z</time>
      </trkpt>
      <trkpt lat="38.033150" lon="-1.019450">
        <ele>31.6</ele>
        <time>2024-02-04T07:39:49Z</time>
      </trkpt>
      <trkpt lat="38.033301" lon="-1.019316">
        <ele>33.3</ele>
        <time>2024-02-04T07:40:01Z</time>
      </trkpt>
      <trkpt lat="38.033440" lon="-1.019160">
        <ele>33.6</ele>
        <time>2024-02-04T07:40:14Z</time>
      </trkpt>
      <trkpt lat="38.033560" lon="-1.018988">
        <ele>32.6</ele>
        <time>2024-02-04T07:40:27Z</time>
      </trkpt>
      <trkpt lat="38.033686" lon="-1.018812">
        <ele>33.6</ele>
        <time>2024-02-04T07:40:40Z</time>
      </trkpt>
      <trkpt lat="38.033790" lon="-1.018616">
        <ele>33.6</ele>
        <time>2024-02-04T07:40:53Z</time>
      </trkpt>
      <trkpt lat="38.033895" lon="-1.018427">
        <ele>34.5</ele>
        <time>2024-02-04T07:41:06Z</time>
      </trkpt>
      <trkpt lat="38.033989" lon="-1.018224">
        <ele>34.6</ele>
        <time>2024-02-04T07:41:18Z</time>
      </trkpt>
      <trkpt lat="38.034090" lon="-1.018025">
        <ele>36.6</ele>
        <time>2024-02-04T07:41:32Z</time>
      </trkpt>
      <trkpt lat="38.034178" lon="-1.017821">
        <ele>34.6</ele>
        <time>2024-02-04T07:41:44Z</time>
      </trkpt>
      <trkpt lat="38.034270" lon="-1.017617">
        <ele>32.6</ele>
        <time>2024-02-04T07:41:56Z</time>
      </trkpt>
      <trkpt lat="38.034355" lon="-1.017413">
        <ele>31.6</ele>
        <time>2024-02-04T07:42:09Z</time>
      </trkpt>
      <trkpt lat="38.034437" lon="-1.017200">
        <ele>32.5</ele>
        <time>2024-02-04T07:42:22Z</time>
      </trkpt>
      <trkpt lat="38.034488" lon="-1.016970">
        <ele>33.6</ele>
        <time>2024-02-04T07:42:36Z</time>
      </trkpt>
      <trkpt lat="38.034527" lon="-1.016740">
        <ele>32.6</ele>
        <time>2024-02-04T07:42:47Z</time>
      </trkpt>
      <trkpt lat="38.034601" lon="-1.016526">
        <ele>33.3</ele>
        <time>2024-02-04T07:42:59Z</time>
      </trkpt>
      <trkpt lat="38.034657" lon="-1.016300">
        <ele>34.6</ele>
        <time>2024-02-04T07:43:12Z</time>
      </trkpt>
      <trkpt lat="38.034681" lon="-1.016072">
        <ele>35.6</ele>
        <time>2024-02-04T07:43:24Z</time>
      </trkpt>
      <trkpt lat="38.034730" lon="-1.015848">
        <ele>37.5</ele>
        <time>2024-02-04T07:43:37Z</time>
      </trkpt>
      <trkpt lat="38.034779" lon="-1.015625">
        <ele>34.6</ele>
        <time>2024-02-04T07:43:50Z</time>
      </trkpt>
      <trkpt lat="38.034826" lon="-1.015400">
        <ele>32.9</ele>
        <time>2024-02-04T07:44:03Z</time>
      </trkpt>
      <trkpt lat="38.034891" lon="-1.015177">
        <ele>34.6</ele>
        <time>2024-02-04T07:44:17Z</time>
      </trkpt>
      <trkpt lat="38.034949" lon="-1.014954">
        <ele>35.6</ele>
        <time>2024-02-04T07:44:31Z</time>
      </trkpt>
      <trkpt lat="38.035063" lon="-1.014770">
        <ele>36.6</ele>
        <time>2024-02-04T07:44:47Z</time>
      </trkpt>
      <trkpt lat="38.035172" lon="-1.014578">
        <ele>35.6</ele>
        <time>2024-02-04T07:45:02Z</time>
      </trkpt>
      <trkpt lat="38.035273" lon="-1.014386">
        <ele>33.6</ele>
        <time>2024-02-04T07:45:16Z</time>
      </trkpt>
      <trkpt lat="38.035378" lon="-1.014200">
        <ele>32.6</ele>
        <time>2024-02-04T07:45:30Z</time>
      </trkpt>
      <trkpt lat="38.035510" lon="-1.014035">
        <ele>31.6</ele>
        <time>2024-02-04T07:45:43Z</time>
      </trkpt>
      <trkpt lat="38.035669" lon="-1.013914">
        <ele>31.6</ele>
        <time>2024-02-04T07:45:58Z</time>
      </trkpt>
      <trkpt lat="38.035828" lon="-1.013797">
        <ele>31.6</ele>
        <time>2024-02-04T07:46:15Z</time>
      </trkpt>
      <trkpt lat="38.035989" lon="-1.013682">
        <ele>35.8</ele>
        <time>2024-02-04T07:46:29Z</time>
      </trkpt>
      <trkpt lat="38.036166" lon="-1.013616">
        <ele>35.8</ele>
        <time>2024-02-04T07:46:43Z</time>
      </trkpt>
      <trkpt lat="38.036329" lon="-1.013521">
        <ele>35.8</ele>
        <time>2024-02-04T07:46:56Z</time>
      </trkpt>
      <trkpt lat="38.036504" lon="-1.013458">
        <ele>35.8</ele>
        <time>2024-02-04T07:47:11Z</time>
      </trkpt>
      <trkpt lat="38.036665" lon="-1.013356">
        <ele>35.8</ele>
        <time>2024-02-04T07:47:24Z</time>
      </trkpt>
      <trkpt lat="38.036838" lon="-1.013279">
        <ele>34.8</ele>
        <time>2024-02-04T07:47:39Z</time>
      </trkpt>
      <trkpt lat="38.037012" lon="-1.013195">
        <ele>34.8</ele>
        <time>2024-02-04T07:47:54Z</time>
      </trkpt>
      <trkpt lat="38.037183" lon="-1.013116">
        <ele>34.7</ele>
        <time>2024-02-04T07:48:09Z</time>
      </trkpt>
      <trkpt lat="38.037359" lon="-1.013061">
        <ele>34.7</ele>
        <time>2024-02-04T07:48:23Z</time>
      </trkpt>
      <trkpt lat="38.037524" lon="-1.012948">
        <ele>34.7</ele>
        <time>2024-02-04T07:48:39Z</time>
      </trkpt>
      <trkpt lat="38.037697" lon="-1.012867">
        <ele>32.7</ele>
        <time>2024-02-04T07:48:52Z</time>
      </trkpt>
      <trkpt lat="38.037868" lon="-1.012784">
        <ele>32.3</ele>
        <time>2024-02-04T07:49:07Z</time>
      </trkpt>
      <trkpt lat="38.038041" lon="-1.012708">
        <ele>32.3</ele>
        <time>2024-02-04T07:49:21Z</time>
      </trkpt>
      <trkpt lat="38.038208" lon="-1.012592">
        <ele>32.7</ele>
        <time>2024-02-04T07:49:47Z</time>
      </trkpt>
      <trkpt lat="38.038365" lon="-1.012467">
        <ele>31.8</ele>
        <time>2024-02-04T07:50:12Z</time>
      </trkpt>
      <trkpt lat="38.038516" lon="-1.012312">
        <ele>32.5</ele>
        <time>2024-02-04T07:50:24Z</time>
      </trkpt>
      <trkpt lat="38.038678" lon="-1.012201">
        <ele>32.5</ele>
        <time>2024-02-04T07:50:35Z</time>
      </trkpt>
      <trkpt lat="38.038833" lon="-1.012082">
        <ele>32.5</ele>
        <time>2024-02-04T07:50:47Z</time>
      </trkpt>
      <trkpt lat="38.038970" lon="-1.011930">
        <ele>32.5</ele>
        <time>2024-02-04T07:51:01Z</time>
      </trkpt>
      <trkpt lat="38.039138" lon="-1.011824">
        <ele>31.8</ele>
        <time>2024-02-04T07:51:15Z</time>
      </trkpt>
      <trkpt lat="38.039296" lon="-1.011698">
        <ele>31.8</ele>
        <time>2024-02-04T07:51:30Z</time>
      </trkpt>
      <trkpt lat="38.039445" lon="-1.011565">
        <ele>31.8</ele>
        <time>2024-02-04T07:51:44Z</time>
      </trkpt>
      <trkpt lat="38.039597" lon="-1.011433">
        <ele>31.8</ele>
        <time>2024-02-04T07:51:58Z</time>
      </trkpt>
      <trkpt lat="38.039748" lon="-1.011303">
        <ele>32.4</ele>
        <time>2024-02-04T07:52:19Z</time>
      </trkpt>
      <trkpt lat="38.039866" lon="-1.011133">
        <ele>32.3</ele>
        <time>2024-02-04T08:00:09Z</time>
      </trkpt>
      <trkpt lat="38.039994" lon="-1.010959">
        <ele>33.0</ele>
        <time>2024-02-04T08:04:05Z</time>
      </trkpt>
      <trkpt lat="38.040176" lon="-1.010910">
        <ele>33.0</ele>
        <time>2024-02-04T08:04:39Z</time>
      </trkpt>
      <trkpt lat="38.040350" lon="-1.010827">
        <ele>33.0</ele>
        <time>2024-02-04T08:04:55Z</time>
      </trkpt>
      <trkpt lat="38.040533" lon="-1.010795">
        <ele>33.0</ele>
        <time>2024-02-04T08:05:09Z</time>
      </trkpt>
      <trkpt lat="38.040717" lon="-1.010759">
        <ele>33.0</ele>
        <time>2024-02-04T08:05:21Z</time>
      </trkpt>
      <trkpt lat="38.040901" lon="-1.010724">
        <ele>33.0</ele>
        <time>2024-02-04T08:05:33Z</time>
      </trkpt>
      <trkpt lat="38.041084" lon="-1.010683">
        <ele>33.0</ele>
        <time>2024-02-04T08:05:50Z</time>
      </trkpt>
      <trkpt lat="38.041273" lon="-1.010687">
        <ele>34.6</ele>
        <time>2024-02-04T08:06:01Z</time>
      </trkpt>
      <trkpt lat="38.041455" lon="-1.010648">
        <ele>28.8</ele>
        <time>2024-02-04T08:06:15Z</time>
      </trkpt>
      <trkpt lat="38.041639" lon="-1.010622">
        <ele>28.9</ele>
        <time>2024-02-04T08:06:28Z</time>
      </trkpt>
      <trkpt lat="38.041830" lon="-1.010607">
        <ele>29.0</ele>
        <time>2024-02-04T08:06:42Z</time>
      </trkpt>
      <trkpt lat="38.042014" lon="-1.010573">
        <ele>29.0</ele>
        <time>2024-02-04T08:06:54Z</time>
      </trkpt>
      <trkpt lat="38.042199" lon="-1.010522">
        <ele>29.0</ele>
        <time>2024-02-04T08:07:08Z</time>
      </trkpt>
      <trkpt lat="38.042373" lon="-1.010458">
        <ele>29.0</ele>
        <time>2024-02-04T08:07:20Z</time>
      </trkpt>
      <trkpt lat="38.042541" lon="-1.010370">
        <ele>29.0</ele>
        <time>2024-02-04T08:07:33Z</time>
      </trkpt>
      <trkpt lat="38.042722" lon="-1.010318">
        <ele>29.0</ele>
        <time>2024-02-04T08:07:47Z</time>
      </trkpt>
      <trkpt lat="38.042896" lon="-1.010244">
        <ele>35.5</ele>
        <time>2024-02-04T08:08:00Z</time>
      </trkpt>
      <trkpt lat="38.043074" lon="-1.010176">
        <ele>37.5</ele>
        <time>2024-02-04T08:08:13Z</time>
      </trkpt>
      <trkpt lat="38.043247" lon="-1.010089">
        <ele>36.6</ele>
        <time>2024-02-04T08:08:26Z</time>
      </trkpt>
      <trkpt lat="38.043416" lon="-1.009999">
        <ele>33.6</ele>
        <time>2024-02-04T08:08:39Z</time>
      </trkpt>
      <trkpt lat="38.043599" lon="-1.009894">
        <ele>33.6</ele>
        <time>2024-02-04T08:10:11Z</time>
      </trkpt>
      <trkpt lat="38.043760" lon="-1.009785">
        <ele>36.6</ele>
        <time>2024-02-04T08:10:22Z</time>
      </trkpt>
      <trkpt lat="38.043924" lon="-1.009690">
        <ele>37.3</ele>
        <time>2024-02-04T08:10:34Z</time>
      </trkpt>
      <trkpt lat="38.044089" lon="-1.009593">
        <ele>36.6</ele>
        <time>2024-02-04T08:10:46Z</time>
      </trkpt>
      <trkpt lat="38.044247" lon="-1.009478">
        <ele>36.6</ele>
        <time>2024-02-04T08:10:59Z</time>
      </trkpt>
      <trkpt lat="38.044418" lon="-1.009368">
        <ele>35.6</ele>
        <time>2024-02-04T08:11:12Z</time>
      </trkpt>
      <trkpt lat="38.044575" lon="-1.009233">
        <ele>34.6</ele>
        <time>2024-02-04T08:11:25Z</time>
      </trkpt>
      <trkpt lat="38.044726" lon="-1.009098">
        <ele>34.6</ele>
        <time>2024-02-04T08:11:36Z</time>
      </trkpt>
      <trkpt lat="38.044868" lon="-1.008939">
        <ele>34.6</ele>
        <time>2024-02-04T08:11:49Z</time>
      </trkpt>
      <trkpt lat="38.045025" lon="-1.008818">
        <ele>34.7</ele>
        <time>2024-02-04T08:12:01Z</time>
      </trkpt>
      <trkpt lat="38.045157" lon="-1.008652">
        <ele>30.5</ele>
        <time>2024-02-04T08:12:13Z</time>
      </trkpt>
      <trkpt lat="38.045272" lon="-1.008470">
        <ele>30.5</ele>
        <time>2024-02-04T08:12:25Z</time>
      </trkpt>
      <trkpt lat="38.045381" lon="-1.008282">
        <ele>30.5</ele>
        <time>2024-02-04T08:12:37Z</time>
      </trkpt>
      <trkpt lat="38.045494" lon="-1.008101">
        <ele>30.5</ele>
        <time>2024-02-04T08:12:49Z</time>
      </trkpt>
      <trkpt lat="38.045620" lon="-1.007930">
        <ele>30.5</ele>
        <time>2024-02-04T08:13:12Z</time>
      </trkpt>
      <trkpt lat="38.045751" lon="-1.007769">
        <ele>32.7</ele>
        <time>2024-02-04T08:13:25Z</time>
      </trkpt>
      <trkpt lat="38.045889" lon="-1.007617">
        <ele>32.7</ele>
        <time>2024-02-04T08:13:37Z</time>
      </trkpt>
      <trkpt lat="38.046048" lon="-1.007497">
        <ele>32.7</ele>
        <time>2024-02-04T08:13:50Z</time>
      </trkpt>
      <trkpt lat="38.046190" lon="-1.007352">
        <ele>33.3</ele>
        <time>2024-02-04T08:14:12Z</time>
      </trkpt>
      <trkpt lat="38.046356" lon="-1.007245">
        <ele>33.4</ele>
        <time>2024-02-04T08:14:33Z</time>
      </trkpt>
      <trkpt lat="38.046467" lon="-1.007159">
        <ele>33.4</ele>
        <time>2024-02-04T08:14:46Z</time>
      </trkpt>
      <trkpt lat="38.046631" lon="-1.007056">
        <ele>33.4</ele>
        <time>2024-02-04T08:15:00Z</time>
      </trkpt>
      <trkpt lat="38.046701" lon="-1.006904">
        <ele>33.4</ele>
        <time>2024-02-04T08:15:16Z</time>
      </trkpt>
      <trkpt lat="38.046882" lon="-1.006860">
        <ele>33.4</ele>
        <time>2024-02-04T08:15:29Z</time>
      </trkpt>
      <trkpt lat="38.047048" lon="-1.006758">
        <ele>32.1</ele>
        <time>2024-02-04T08:15:42Z</time>
      </trkpt>
      <trkpt lat="38.047217" lon="-1.006680">
        <ele>32.1</ele>
        <time>2024-02-04T08:15:56Z</time>
      </trkpt>
      <trkpt lat="38.047400" lon="-1.006667">
        <ele>32.1</ele>
        <time>2024-02-04T08:16:09Z</time>
      </trkpt>
      <trkpt lat="38.047512" lon="-1.006848">
        <ele>31.2</ele>
        <time>2024-02-04T08:16:22Z</time>
      </trkpt>
      <trkpt lat="38.047699" lon="-1.006844">
        <ele>31.5</ele>
        <time>2024-02-04T08:16:40Z</time>
      </trkpt>
      <trkpt lat="38.047856" lon="-1.006724">
        <ele>31.5</ele>
        <time>2024-02-04T08:16:58Z</time>
      </trkpt>
      <trkpt lat="38.048019" lon="-1.006616">
        <ele>32.9</ele>
        <time>2024-02-04T08:17:11Z</time>
      </trkpt>
      <trkpt lat="38.048190" lon="-1.006533">
        <ele>33.0</ele>
        <time>2024-02-04T08:17:25Z</time>
      </trkpt>
      <trkpt lat="38.048374" lon="-1.006501">
        <ele>33.0</ele>
        <time>2024-02-04T08:17:41Z</time>
      </trkpt>
      <trkpt lat="38.048537" lon="-1.006388">
        <ele>33.0</ele>
        <time>2024-02-04T08:17:54Z</time>
      </trkpt>
      <trkpt lat="38.048708" lon="-1.006316">
        <ele>33.0</ele>
        <time>2024-02-04T08:18:09Z</time>
      </trkpt>
      <trkpt lat="38.048875" lon="-1.006225">
        <ele>33.0</ele>
        <time>2024-02-04T08:18:23Z</time>
      </trkpt>
      <trkpt lat="38.049048" lon="-1.006135">
        <ele>32.7</ele>
        <time>2024-02-04T08:18:35Z</time>
      </trkpt>
      <trkpt lat="38.049201" lon="-1.005992">
        <ele>32.6</ele>
        <time>2024-02-04T08:18:50Z</time>
      </trkpt>
      <trkpt lat="38.049354" lon="-1.005865">
        <ele>32.3</ele>
        <time>2024-02-04T08:19:04Z</time>
      </trkpt>
      <trkpt lat="38.049500" lon="-1.005728">
        <ele>32.3</ele>
        <time>2024-02-04T08:19:18Z</time>
      </trkpt>
      <trkpt lat="38.049642" lon="-1.005574">
        <ele>32.5</ele>
        <time>2024-02-04T08:19:31Z</time>
      </trkpt>
      <trkpt lat="38.049745" lon="-1.005381">
        <ele>32.3</ele>
        <time>2024-02-04T08:19:44Z</time>
      </trkpt>
      <trkpt lat="38.049840" lon="-1.005184">
        <ele>32.3</ele>
        <time>2024-02-04T08:20:00Z</time>
      </trkpt>
      <trkpt lat="38.049944" lon="-1.004985">
        <ele>32.3</ele>
        <time>2024-02-04T08:20:13Z</time>
      </trkpt>
      <trkpt lat="38.050062" lon="-1.004809">
        <ele>32.3</ele>
        <time>2024-02-04T08:20:25Z</time>
      </trkpt>
      <trkpt lat="38.050211" lon="-1.004679">
        <ele>38.5</ele>
        <time>2024-02-04T08:20:57Z</time>
      </trkpt>
      <trkpt lat="38.050367" lon="-1.004563">
        <ele>36.6</ele>
        <time>2024-02-04T08:21:09Z</time>
      </trkpt>
      <trkpt lat="38.050527" lon="-1.004447">
        <ele>33.4</ele>
        <time>2024-02-04T08:21:21Z</time>
      </trkpt>
      <trkpt lat="38.050675" lon="-1.004312">
        <ele>33.4</ele>
        <time>2024-02-04T08:21:33Z</time>
      </trkpt>
      <trkpt lat="38.050829" lon="-1.004194">
        <ele>33.4</ele>
        <time>2024-02-04T08:21:44Z</time>
      </trkpt>
      <trkpt lat="38.050983" lon="-1.004083">
        <ele>33.4</ele>
        <time>2024-02-04T08:21:58Z</time>
      </trkpt>
      <trkpt lat="38.051149" lon="-1.003973">
        <ele>33.4</ele>
        <time>2024-02-04T08:22:12Z</time>
      </trkpt>
      <trkpt lat="38.051327" lon="-1.003880">
        <ele>33.4</ele>
        <time>2024-02-04T08:22:24Z</time>
      </trkpt>
      <trkpt lat="38.051503" lon="-1.003817">
        <ele>36.8</ele>
        <time>2024-02-04T08:22:46Z</time>
      </trkpt>
      <trkpt lat="38.051684" lon="-1.003772">
        <ele>34.7</ele>
        <time>2024-02-04T08:22:59Z</time>
      </trkpt>
      <trkpt lat="38.051871" lon="-1.003753">
        <ele>35.6</ele>
        <time>2024-02-04T08:23:12Z</time>
      </trkpt>
      <trkpt lat="38.052051" lon="-1.003714">
        <ele>37.6</ele>
        <time>2024-02-04T08:23:24Z</time>
      </trkpt>
      <trkpt lat="38.052231" lon="-1.003684">
        <ele>37.6</ele>
        <time>2024-02-04T08:23:36Z</time>
      </trkpt>
      <trkpt lat="38.052412" lon="-1.003682">
        <ele>36.6</ele>
        <time>2024-02-04T08:23:47Z</time>
      </trkpt>
      <trkpt lat="38.052596" lon="-1.003654">
        <ele>37.3</ele>
        <time>2024-02-04T08:24:00Z</time>
      </trkpt>
      <trkpt lat="38.052780" lon="-1.003653">
        <ele>36.8</ele>
        <time>2024-02-04T08:24:13Z</time>
      </trkpt>
      <trkpt lat="38.052957" lon="-1.003714">
        <ele>38.6</ele>
        <time>2024-02-04T08:24:59Z</time>
      </trkpt>
      <trkpt lat="38.053132" lon="-1.003633">
        <ele>37.6</ele>
        <time>2024-02-04T08:26:10Z</time>
      </trkpt>
      <trkpt lat="38.053312" lon="-1.003585">
        <ele>37.6</ele>
        <time>2024-02-04T08:26:22Z</time>
      </trkpt>
      <trkpt lat="38.053491" lon="-1.003548">
        <ele>36.6</ele>
        <time>2024-02-04T08:26:36Z</time>
      </trkpt>
      <trkpt lat="38.053683" lon="-1.003538">
        <ele>36.6</ele>
        <time>2024-02-04T08:26:49Z</time>
      </trkpt>
      <trkpt lat="38.053870" lon="-1.003491">
        <ele>34.6</ele>
        <time>2024-02-04T08:27:01Z</time>
      </trkpt>
      <trkpt lat="38.054050" lon="-1.003461">
        <ele>33.6</ele>
        <time>2024-02-04T08:27:14Z</time>
      </trkpt>
      <trkpt lat="38.054230" lon="-1.003438">
        <ele>37.3</ele>
        <time>2024-02-04T08:27:27Z</time>
      </trkpt>
      <trkpt lat="38.054416" lon="-1.003416">
        <ele>38.8</ele>
        <time>2024-02-04T08:27:40Z</time>
      </trkpt>
      <trkpt lat="38.054598" lon="-1.003397">
        <ele>34.6</ele>
        <time>2024-02-04T08:29:38Z</time>
      </trkpt>
      <trkpt lat="38.054783" lon="-1.003403">
        <ele>31.9</ele>
        <time>2024-02-04T08:29:52Z</time>
      </trkpt>
      <trkpt lat="38.054965" lon="-1.003371">
        <ele>33.9</ele>
        <time>2024-02-04T08:30:25Z</time>
      </trkpt>
      <trkpt lat="38.055149" lon="-1.003361">
        <ele>32.5</ele>
        <time>2024-02-04T08:30:41Z</time>
      </trkpt>
      <trkpt lat="38.055334" lon="-1.003335">
        <ele>32.6</ele>
        <time>2024-02-04T08:30:53Z</time>
      </trkpt>
      <trkpt lat="38.055513" lon="-1.003279">
        <ele>34.6</ele>
        <time>2024-02-04T08:31:04Z</time>
      </trkpt>
      <trkpt lat="38.055687" lon="-1.003295">
        <ele>34.6</ele>
        <time>2024-02-04T08:31:17Z</time>
      </trkpt>
      <trkpt lat="38.055854" lon="-1.003263">
        <ele>33.6</ele>
        <time>2024-02-04T08:31:44Z</time>
      </trkpt>
      <trkpt lat="38.056025" lon="-1.003188">
        <ele>35.6</ele>
        <time>2024-02-04T08:31:57Z</time>
      </trkpt>
      <trkpt lat="38.056215" lon="-1.003172">
        <ele>34.5</ele>
        <time>2024-02-04T08:32:08Z</time>
      </trkpt>
      <trkpt lat="38.056415" lon="-1.003075">
        <ele>34.6</ele>
        <time>2024-02-04T08:32:20Z</time>
      </trkpt>
      <trkpt lat="38.056573" lon="-1.003025">
        <ele>36.6</ele>
        <time>2024-02-04T08:32:33Z</time>
      </trkpt>
      <trkpt lat="38.056736" lon="-1.002934">
        <ele>37.5</ele>
        <time>2024-02-04T08:32:44Z</time>
      </trkpt>
      <trkpt lat="38.056896" lon="-1.002811">
        <ele>37.6</ele>
        <time>2024-02-04T08:32:56Z</time>
      </trkpt>
      <trkpt lat="38.057065" lon="-1.002726">
        <ele>36.8</ele>
        <time>2024-02-04T08:33:07Z</time>
      </trkpt>
      <trkpt lat="38.057240" lon="-1.002626">
        <ele>37.6</ele>
        <time>2024-02-04T08:33:21Z</time>
      </trkpt>
      <trkpt lat="38.057397" lon="-1.002501">
        <ele>35.6</ele>
        <time>2024-02-04T08:33:38Z</time>
      </trkpt>
      <trkpt lat="38.057560" lon="-1.002375">
        <ele>33.6</ele>
        <time>2024-02-04T08:33:50Z</time>
      </trkpt>
      <trkpt lat="38.057710" lon="-1.002244">
        <ele>34.6</ele>
        <time>2024-02-04T08:34:03Z</time>
      </trkpt>
      <trkpt lat="38.057868" lon="-1.002122">
        <ele>32.6</ele>
        <time>2024-02-04T08:34:16Z</time>
      </trkpt>
      <trkpt lat="38.057998" lon="-1.001963">
        <ele>32.6</ele>
        <time>2024-02-04T08:34:28Z</time>
      </trkpt>
      <trkpt lat="38.058156" lon="-1.001829">
        <ele>32.6</ele>
        <time>2024-02-04T08:34:41Z</time>
      </trkpt>
      <trkpt lat="38.058287" lon="-1.001666">
        <ele>32.6</ele>
        <time>2024-02-04T08:34:54Z</time>
      </trkpt>
      <trkpt lat="38.058404" lon="-1.001487">
        <ele>34.6</ele>
        <time>2024-02-04T08:35:06Z</time>
      </trkpt>
      <trkpt lat="38.058529" lon="-1.001306">
        <ele>36.6</ele>
        <time>2024-02-04T08:35:20Z</time>
      </trkpt>
      <trkpt lat="38.058653" lon="-1.001132">
        <ele>33.6</ele>
        <time>2024-02-04T08:35:37Z</time>
      </trkpt>
      <trkpt lat="38.058776" lon="-1.000963">
        <ele>33.6</ele>
        <time>2024-02-04T08:35:48Z</time>
      </trkpt>
      <trkpt lat="38.058871" lon="-1.000768">
        <ele>34.6</ele>
        <time>2024-02-04T08:36:01Z</time>
      </trkpt>
      <trkpt lat="38.058971" lon="-1.000577">
        <ele>35.6</ele>
        <time>2024-02-04T08:36:14Z</time>
      </trkpt>
      <trkpt lat="38.059067" lon="-1.000382">
        <ele>35.6</ele>
        <time>2024-02-04T08:36:26Z</time>
      </trkpt>
      <trkpt lat="38.059163" lon="-1.000180">
        <ele>35.6</ele>
        <time>2024-02-04T08:36:39Z</time>
      </trkpt>
      <trkpt lat="38.059258" lon="-0.999977">
        <ele>35.6</ele>
        <time>2024-02-04T08:36:53Z</time>
      </trkpt>
      <trkpt lat="38.059341" lon="-0.999774">
        <ele>36.6</ele>
        <time>2024-02-04T08:37:06Z</time>
      </trkpt>
      <trkpt lat="38.059422" lon="-0.999568">
        <ele>38.5</ele>
        <time>2024-02-04T08:37:19Z</time>
      </trkpt>
      <trkpt lat="38.059528" lon="-0.999378">
        <ele>36.6</ele>
        <time>2024-02-04T08:37:32Z</time>
      </trkpt>
      <trkpt lat="38.059641" lon="-0.999197">
        <ele>35.6</ele>
        <time>2024-02-04T08:37:46Z</time>
      </trkpt>
      <trkpt lat="38.059717" lon="-0.998989">
        <ele>34.6</ele>
        <time>2024-02-04T08:38:00Z</time>
      </trkpt>
      <trkpt lat="38.059800" lon="-0.998781">
        <ele>35.6</ele>
        <time>2024-02-04T08:38:12Z</time>
      </trkpt>
      <trkpt lat="38.059878" lon="-0.998569">
        <ele>35.6</ele>
        <time>2024-02-04T08:38:26Z</time>
      </trkpt>
      <trkpt lat="38.059975" lon="-0.998365">
        <ele>36.6</ele>
        <time>2024-02-04T08:38:39Z</time>
      </trkpt>
      <trkpt lat="38.060086" lon="-0.998171">
        <ele>36.6</ele>
        <time>2024-02-04T08:38:51Z</time>
      </trkpt>
      <trkpt lat="38.060189" lon="-0.997983">
        <ele>37.6</ele>
        <time>2024-02-04T08:39:04Z</time>
      </trkpt>
      <trkpt lat="38.060308" lon="-0.997803">
        <ele>37.6</ele>
        <time>2024-02-04T08:39:17Z</time>
      </trkpt>
      <trkpt lat="38.060426" lon="-0.997628">
        <ele>37.6</ele>
        <time>2024-02-04T08:39:29Z</time>
      </trkpt>
      <trkpt lat="38.060568" lon="-0.997483">
        <ele>37.5</ele>
        <time>2024-02-04T08:39:43Z</time>
      </trkpt>
      <trkpt lat="38.060720" lon="-0.997337">
        <ele>38.5</ele>
        <time>2024-02-04T08:39:57Z</time>
      </trkpt>
      <trkpt lat="38.060878" lon="-0.997204">
        <ele>35.6</ele>
        <time>2024-02-04T08:40:11Z</time>
      </trkpt>
      <trkpt lat="38.061037" lon="-0.997085">
        <ele>36.5</ele>
        <time>2024-02-04T08:40:24Z</time>
      </trkpt>
      <trkpt lat="38.061206" lon="-0.996992">
        <ele>38.3</ele>
        <time>2024-02-04T08:40:40Z</time>
      </trkpt>
      <trkpt lat="38.061381" lon="-0.996917">
        <ele>37.6</ele>
        <time>2024-02-04T08:40:54Z</time>
      </trkpt>
      <trkpt lat="38.061566" lon="-0.996919">
        <ele>35.6</ele>
        <time>2024-02-04T08:41:25Z</time>
      </trkpt>
      <trkpt lat="38.061739" lon="-0.996825">
        <ele>35.6</ele>
        <time>2024-02-04T08:41:39Z</time>
      </trkpt>
      <trkpt lat="38.061923" lon="-0.996767">
        <ele>37.6</ele>
        <time>2024-02-04T08:41:52Z</time>
      </trkpt>
      <trkpt lat="38.062110" lon="-0.996760">
        <ele>36.6</ele>
        <time>2024-02-04T08:42:05Z</time>
      </trkpt>
      <trkpt lat="38.062292" lon="-0.996752">
        <ele>36.6</ele>
        <time>2024-02-04T08:42:18Z</time>
      </trkpt>
      <trkpt lat="38.062475" lon="-0.996775">
        <ele>36.6</ele>
        <time>2024-02-04T08:42:39Z</time>
      </trkpt>
      <trkpt lat="38.062660" lon="-0.996787">
        <ele>36.6</ele>
        <time>2024-02-04T08:43:35Z</time>
      </trkpt>
      <trkpt lat="38.062846" lon="-0.996810">
        <ele>38.6</ele>
        <time>2024-02-04T08:43:46Z</time>
      </trkpt>
      <trkpt lat="38.063032" lon="-0.996808">
        <ele>36.6</ele>
        <time>2024-02-04T08:43:59Z</time>
      </trkpt>
      <trkpt lat="38.063214" lon="-0.996778">
        <ele>35.6</ele>
        <time>2024-02-04T08:44:12Z</time>
      </trkpt>
      <trkpt lat="38.063394" lon="-0.996806">
        <ele>37.6</ele>
        <time>2024-02-04T08:44:22Z</time>
      </trkpt>
      <trkpt lat="38.063577" lon="-0.996803">
        <ele>36.6</ele>
        <time>2024-02-04T08:44:35Z</time>
      </trkpt>
      <trkpt lat="38.063757" lon="-0.996766">
        <ele>36.6</ele>
        <time>2024-02-04T08:44:50Z</time>
      </trkpt>
      <trkpt lat="38.063940" lon="-0.996693">
        <ele>35.6</ele>
        <time>2024-02-04T08:45:02Z</time>
      </trkpt>
      <trkpt lat="38.064118" lon="-0.996653">
        <ele>36.5</ele>
        <time>2024-02-04T08:45:14Z</time>
      </trkpt>
      <trkpt lat="38.064287" lon="-0.996563">
        <ele>36.6</ele>
        <time>2024-02-04T08:45:26Z</time>
      </trkpt>
      <trkpt lat="38.064457" lon="-0.996468">
        <ele>36.5</ele>
        <time>2024-02-04T08:45:38Z</time>
      </trkpt>
      <trkpt lat="38.064634" lon="-0.996370">
        <ele>35.6</ele>
        <time>2024-02-04T08:45:50Z</time>
      </trkpt>
      <trkpt lat="38.064792" lon="-0.996253">
        <ele>35.6</ele>
        <time>2024-02-04T08:46:03Z</time>
      </trkpt>
      <trkpt lat="38.064942" lon="-0.996123">
        <ele>35.6</ele>
        <time>2024-02-04T08:46:15Z</time>
      </trkpt>
      <trkpt lat="38.065098" lon="-0.995998">
        <ele>35.6</ele>
        <time>2024-02-04T08:46:28Z</time>
      </trkpt>
      <trkpt lat="38.065231" lon="-0.995835">
        <ele>35.5</ele>
        <time>2024-02-04T08:46:40Z</time>
      </trkpt>
      <trkpt lat="38.065366" lon="-0.995672">
        <ele>35.6</ele>
        <time>2024-02-04T08:46:52Z</time>
      </trkpt>
      <trkpt lat="38.065498" lon="-0.995511">
        <ele>35.6</ele>
        <time>2024-02-04T08:47:04Z</time>
      </trkpt>
      <trkpt lat="38.065611" lon="-0.995322">
        <ele>36.6</ele>
        <time>2024-02-04T08:47:17Z</time>
      </trkpt>
      <trkpt lat="38.065727" lon="-0.995138">
        <ele>33.6</ele>
        <time>2024-02-04T08:47:29Z</time>
      </trkpt>
      <trkpt lat="38.065814" lon="-0.994927">
        <ele>35.6</ele>
        <time>2024-02-04T08:47:41Z</time>
      </trkpt>
      <trkpt lat="38.065907" lon="-0.994730">
        <ele>36.6</ele>
        <time>2024-02-04T08:47:53Z</time>
      </trkpt>
      <trkpt lat="38.066004" lon="-0.994537">
        <ele>36.6</ele>
        <time>2024-02-04T08:48:06Z</time>
      </trkpt>
      <trkpt lat="38.066088" lon="-0.994329">
        <ele>36.5</ele>
        <time>2024-02-04T08:48:19Z</time>
      </trkpt>
      <trkpt lat="38.066189" lon="-0.994123">
        <ele>36.6</ele>
        <time>2024-02-04T08:48:31Z</time>
      </trkpt>
      <trkpt lat="38.066295" lon="-0.993917">
        <ele>35.3</ele>
        <time>2024-02-04T08:48:44Z</time>
      </trkpt>
      <trkpt lat="38.066377" lon="-0.993713">
        <ele>35.6</ele>
        <time>2024-02-04T08:48:57Z</time>
      </trkpt>
      <trkpt lat="38.066463" lon="-0.993501">
        <ele>34.6</ele>
        <time>2024-02-04T08:49:09Z</time>
      </trkpt>
      <trkpt lat="38.066557" lon="-0.993296">
        <ele>34.6</ele>
        <time>2024-02-04T08:49:22Z</time>
      </trkpt>
      <trkpt lat="38.066658" lon="-0.993096">
        <ele>33.6</ele>
        <time>2024-02-04T08:49:35Z</time>
      </trkpt>
      <trkpt lat="38.066747" lon="-0.992895">
        <ele>35.9</ele>
        <time>2024-02-04T08:49:47Z</time>
      </trkpt>
      <trkpt lat="38.066828" lon="-0.992686">
        <ele>37.5</ele>
        <time>2024-02-04T08:49:59Z</time>
      </trkpt>
      <trkpt lat="38.066926" lon="-0.992488">
        <ele>36.6</ele>
        <time>2024-02-04T08:50:12Z</time>
      </trkpt>
      <trkpt lat="38.067004" lon="-0.992281">
        <ele>36.6</ele>
        <time>2024-02-04T08:50:24Z</time>
      </trkpt>
      <trkpt lat="38.067115" lon="-0.992099">
        <ele>37.5</ele>
        <time>2024-02-04T08:50:37Z</time>
      </trkpt>
      <trkpt lat="38.067207" lon="-0.991895">
        <ele>36.6</ele>
        <time>2024-02-04T08:50:49Z</time>
      </trkpt>
      <trkpt lat="38.067303" lon="-0.991691">
        <ele>36.6</ele>
        <time>2024-02-04T08:51:02Z</time>
      </trkpt>
      <trkpt lat="38.067394" lon="-0.991488">
        <ele>30.5</ele>
        <time>2024-02-04T08:51:14Z</time>
      </trkpt>
      <trkpt lat="38.067475" lon="-0.991277">
        <ele>30.5</ele>
        <time>2024-02-04T08:51:27Z</time>
      </trkpt>
      <trkpt lat="38.067582" lon="-0.991089">
        <ele>30.5</ele>
        <time>2024-02-04T08:51:39Z</time>
      </trkpt>
      <trkpt lat="38.067667" lon="-0.990880">
        <ele>30.5</ele>
        <time>2024-02-04T08:51:51Z</time>
      </trkpt>
      <trkpt lat="38.067755" lon="-0.990679">
        <ele>30.5</ele>
        <time>2024-02-04T08:52:03Z</time>
      </trkpt>
      <trkpt lat="38.067861" lon="-0.990493">
        <ele>31.5</ele>
        <time>2024-02-04T08:52:16Z</time>
      </trkpt>
      <trkpt lat="38.067939" lon="-0.990286">
        <ele>31.5</ele>
        <time>2024-02-04T08:52:29Z</time>
      </trkpt>
      <trkpt lat="38.068032" lon="-0.990073">
        <ele>36.6</ele>
        <time>2024-02-04T08:52:42Z</time>
      </trkpt>
      <trkpt lat="38.068129" lon="-0.989876">
        <ele>35.6</ele>
        <time>2024-02-04T08:52:55Z</time>
      </trkpt>
      <trkpt lat="38.068216" lon="-0.989666">
        <ele>35.6</ele>
        <time>2024-02-04T08:53:08Z</time>
      </trkpt>
      <trkpt lat="38.068298" lon="-0.989451">
        <ele>35.3</ele>
        <time>2024-02-04T08:53:21Z</time>
      </trkpt>
      <trkpt lat="38.068389" lon="-0.989252">
        <ele>35.6</ele>
        <time>2024-02-04T08:53:34Z</time>
      </trkpt>
      <trkpt lat="38.068487" lon="-0.989050">
        <ele>35.6</ele>
        <time>2024-02-04T08:53:48Z</time>
      </trkpt>
      <trkpt lat="38.068574" lon="-0.988839">
        <ele>36.6</ele>
        <time>2024-02-04T08:54:02Z</time>
      </trkpt>
      <trkpt lat="38.068687" lon="-0.988653">
        <ele>36.6</ele>
        <time>2024-02-04T08:54:14Z</time>
      </trkpt>
      <trkpt lat="38.068813" lon="-0.988485">
        <ele>36.6</ele>
        <time>2024-02-04T08:54:35Z</time>
      </trkpt>
      <trkpt lat="38.068909" lon="-0.988284">
        <ele>35.6</ele>
        <time>2024-02-04T08:54:47Z</time>
      </trkpt>
      <trkpt lat="38.069034" lon="-0.988119">
        <ele>35.6</ele>
        <time>2024-02-04T08:55:00Z</time>
      </trkpt>
      <trkpt lat="38.069161" lon="-0.987948">
        <ele>36.6</ele>
        <time>2024-02-04T08:55:13Z</time>
      </trkpt>
      <trkpt lat="38.069314" lon="-0.987819">
        <ele>36.6</ele>
        <time>2024-02-04T08:55:25Z</time>
      </trkpt>
      <trkpt lat="38.069452" lon="-0.987673">
        <ele>36.6</ele>
        <time>2024-02-04T08:55:37Z</time>
      </trkpt>
      <trkpt lat="38.069593" lon="-0.987523">
        <ele>36.6</ele>
        <time>2024-02-04T08:55:49Z</time>
      </trkpt>
      <trkpt lat="38.069745" lon="-0.987379">
        <ele>36.7</ele>
        <time>2024-02-04T08:56:01Z</time>
      </trkpt>
      <trkpt lat="38.069891" lon="-0.987232">
        <ele>36.5</ele>
        <time>2024-02-04T08:56:14Z</time>
      </trkpt>
      <trkpt lat="38.070039" lon="-0.987093">
        <ele>36.5</ele>
        <time>2024-02-04T08:56:26Z</time>
      </trkpt>
      <trkpt lat="38.070188" lon="-0.986948">
        <ele>35.6</ele>
        <time>2024-02-04T08:56:42Z</time>
      </trkpt>
      <trkpt lat="38.070295" lon="-0.986765">
        <ele>35.6</ele>
        <time>2024-02-04T08:56:54Z</time>
      </trkpt>
      <trkpt lat="38.070423" lon="-0.986588">
        <ele>36.5</ele>
        <time>2024-02-04T08:57:08Z</time>
      </trkpt>
      <trkpt lat="38.070525" lon="-0.986396">
        <ele>34.6</ele>
        <time>2024-02-04T08:57:21Z</time>
      </trkpt>
      <trkpt lat="38.070634" lon="-0.986212">
        <ele>35.9</ele>
        <time>2024-02-04T08:57:36Z</time>
      </trkpt>
      <trkpt lat="38.070732" lon="-0.986012">
        <ele>35.4</ele>
        <time>2024-02-04T08:57:48Z</time>
      </trkpt>
      <trkpt lat="38.070814" lon="-0.985805">
        <ele>34.3</ele>
        <time>2024-02-04T08:58:03Z</time>
      </trkpt>
      <trkpt lat="38.070872" lon="-0.985588">
        <ele>34.6</ele>
        <time>2024-02-04T08:58:16Z</time>
      </trkpt>
      <trkpt lat="38.070940" lon="-0.985362">
        <ele>32.6</ele>
        <time>2024-02-04T08:58:30Z</time>
      </trkpt>
      <trkpt lat="38.070988" lon="-0.985132">
        <ele>31.7</ele>
        <time>2024-02-04T08:58:44Z</time>
      </trkpt>
      <trkpt lat="38.071039" lon="-0.984912">
        <ele>32.6</ele>
        <time>2024-02-04T08:58:59Z</time>
      </trkpt>
      <trkpt lat="38.071077" lon="-0.984687">
        <ele>35.5</ele>
        <time>2024-02-04T08:59:12Z</time>
      </trkpt>
      <trkpt lat="38.071099" lon="-0.984459">
        <ele>30.3</ele>
        <time>2024-02-04T08:59:27Z</time>
      </trkpt>
      <trkpt lat="38.071099" lon="-0.984228">
        <ele>27.9</ele>
        <time>2024-02-04T08:59:40Z</time>
      </trkpt>
      <trkpt lat="38.071127" lon="-0.983988">
        <ele>27.9</ele>
        <time>2024-02-04T08:59:54Z</time>
      </trkpt>
      <trkpt lat="38.071118" lon="-0.983753">
        <ele>27.9</ele>
        <time>2024-02-04T09:00:12Z</time>
      </trkpt>
      <trkpt lat="38.071134" lon="-0.983523">
        <ele>27.9</ele>
        <time>2024-02-04T09:00:26Z</time>
      </trkpt>
      <trkpt lat="38.071143" lon="-0.983291">
        <ele>27.9</ele>
        <time>2024-02-04T09:00:40Z</time>
      </trkpt>
      <trkpt lat="38.071119" lon="-0.983056">
        <ele>27.9</ele>
        <time>2024-02-04T09:00:52Z</time>
      </trkpt>
      <trkpt lat="38.071118" lon="-0.982827">
        <ele>27.9</ele>
        <time>2024-02-04T09:01:09Z</time>
      </trkpt>
      <trkpt lat="38.071117" lon="-0.982591">
        <ele>27.9</ele>
        <time>2024-02-04T09:01:20Z</time>
      </trkpt>
      <trkpt lat="38.071134" lon="-0.982355">
        <ele>27.9</ele>
        <time>2024-02-04T09:01:33Z</time>
      </trkpt>
      <trkpt lat="38.071156" lon="-0.982121">
        <ele>27.9</ele>
        <time>2024-02-04T09:01:46Z</time>
      </trkpt>
      <trkpt lat="38.071205" lon="-0.981897">
        <ele>27.9</ele>
        <time>2024-02-04T09:01:59Z</time>
      </trkpt>
      <trkpt lat="38.071257" lon="-0.981676">
        <ele>27.9</ele>
        <time>2024-02-04T09:02:11Z</time>
      </trkpt>
      <trkpt lat="38.071320" lon="-0.981461">
        <ele>27.9</ele>
        <time>2024-02-04T09:02:24Z</time>
      </trkpt>
      <trkpt lat="38.071405" lon="-0.981253">
        <ele>36.6</ele>
        <time>2024-02-04T09:02:37Z</time>
      </trkpt>
      <trkpt lat="38.071508" lon="-0.981064">
        <ele>36.6</ele>
        <time>2024-02-04T09:02:50Z</time>
      </trkpt>
      <trkpt lat="38.071605" lon="-0.980861">
        <ele>36.6</ele>
        <time>2024-02-04T09:03:02Z</time>
      </trkpt>
      <trkpt lat="38.071709" lon="-0.980663">
        <ele>37.5</ele>
        <time>2024-02-04T09:03:14Z</time>
      </trkpt>
      <trkpt lat="38.071830" lon="-0.980486">
        <ele>38.6</ele>
        <time>2024-02-04T09:03:28Z</time>
      </trkpt>
      <trkpt lat="38.071963" lon="-0.980317">
        <ele>36.6</ele>
        <time>2024-02-04T09:03:41Z</time>
      </trkpt>
      <trkpt lat="38.072095" lon="-0.980160">
        <ele>34.9</ele>
        <time>2024-02-04T09:03:53Z</time>
      </trkpt>
      <trkpt lat="38.072239" lon="-0.980022">
        <ele>34.6</ele>
        <time>2024-02-04T09:04:05Z</time>
      </trkpt>
      <trkpt lat="38.072398" lon="-0.979899">
        <ele>35.6</ele>
        <time>2024-02-04T09:04:19Z</time>
      </trkpt>
      <trkpt lat="38.072542" lon="-0.979755">
        <ele>35.6</ele>
        <time>2024-02-04T09:04:31Z</time>
      </trkpt>
      <trkpt lat="38.072679" lon="-0.979602">
        <ele>36.6</ele>
        <time>2024-02-04T09:04:44Z</time>
      </trkpt>
      <trkpt lat="38.072806" lon="-0.979439">
        <ele>36.6</ele>
        <time>2024-02-04T09:04:56Z</time>
      </trkpt>
      <trkpt lat="38.072946" lon="-0.979280">
        <ele>34.6</ele>
        <time>2024-02-04T09:05:09Z</time>
      </trkpt>
      <trkpt lat="38.073065" lon="-0.979102">
        <ele>34.6</ele>
        <time>2024-02-04T09:05:22Z</time>
      </trkpt>
      <trkpt lat="38.073170" lon="-0.978912">
        <ele>34.6</ele>
        <time>2024-02-04T09:05:34Z</time>
      </trkpt>
      <trkpt lat="38.073278" lon="-0.978726">
        <ele>35.6</ele>
        <time>2024-02-04T09:05:46Z</time>
      </trkpt>
      <trkpt lat="38.073376" lon="-0.978530">
        <ele>34.6</ele>
        <time>2024-02-04T09:05:59Z</time>
      </trkpt>
      <trkpt lat="38.073479" lon="-0.978341">
        <ele>35.6</ele>
        <time>2024-02-04T09:06:11Z</time>
      </trkpt>
      <trkpt lat="38.073569" lon="-0.978141">
        <ele>36.6</ele>
        <time>2024-02-04T09:06:23Z</time>
      </trkpt>
      <trkpt lat="38.073662" lon="-0.977942">
        <ele>37.3</ele>
        <time>2024-02-04T09:06:35Z</time>
      </trkpt>
      <trkpt lat="38.073764" lon="-0.977744">
        <ele>36.6</ele>
        <time>2024-02-04T09:06:48Z</time>
      </trkpt>
      <trkpt lat="38.073853" lon="-0.977544">
        <ele>36.3</ele>
        <time>2024-02-04T09:07:00Z</time>
      </trkpt>
      <trkpt lat="38.073925" lon="-0.977324">
        <ele>35.6</ele>
        <time>2024-02-04T09:07:13Z</time>
      </trkpt>
      <trkpt lat="38.074030" lon="-0.977131">
        <ele>36.9</ele>
        <time>2024-02-04T09:07:25Z</time>
      </trkpt>
      <trkpt lat="38.074130" lon="-0.976933">
        <ele>36.6</ele>
        <time>2024-02-04T09:07:38Z</time>
      </trkpt>
      <trkpt lat="38.074242" lon="-0.976746">
        <ele>35.5</ele>
        <time>2024-02-04T09:07:51Z</time>
      </trkpt>
      <trkpt lat="38.074357" lon="-0.976558">
        <ele>36.3</ele>
        <time>2024-02-04T09:08:03Z</time>
      </trkpt>
      <trkpt lat="38.074463" lon="-0.976368">
        <ele>37.6</ele>
        <time>2024-02-04T09:08:16Z</time>
      </trkpt>
      <trkpt lat="38.074585" lon="-0.976194">
        <ele>36.5</ele>
        <time>2024-02-04T09:09:06Z</time>
      </trkpt>
      <trkpt lat="38.074706" lon="-0.976025">
        <ele>36.6</ele>
        <time>2024-02-04T09:09:18Z</time>
      </trkpt>
      <trkpt lat="38.074786" lon="-0.975813">
        <ele>37.6</ele>
        <time>2024-02-04T09:09:30Z</time>
      </trkpt>
      <trkpt lat="38.074874" lon="-0.975609">
        <ele>35.9</ele>
        <time>2024-02-04T09:09:42Z</time>
      </trkpt>
      <trkpt lat="38.074951" lon="-0.975386">
        <ele>36.6</ele>
        <time>2024-02-04T09:09:55Z</time>
      </trkpt>
      <trkpt lat="38.075019" lon="-0.975165">
        <ele>36.6</ele>
        <time>2024-02-04T09:10:08Z</time>
      </trkpt>
      <trkpt lat="38.075068" lon="-0.974939">
        <ele>36.6</ele>
        <time>2024-02-04T09:10:21Z</time>
      </trkpt>
      <trkpt lat="38.075110" lon="-0.974709">
        <ele>34.7</ele>
        <time>2024-02-04T09:10:34Z</time>
      </trkpt>
      <trkpt lat="38.075147" lon="-0.974481">
        <ele>35.6</ele>
        <time>2024-02-04T09:10:47Z</time>
      </trkpt>
      <trkpt lat="38.075173" lon="-0.974249">
        <ele>33.6</ele>
        <time>2024-02-04T09:11:00Z</time>
      </trkpt>
      <trkpt lat="38.075190" lon="-0.974005">
        <ele>33.6</ele>
        <time>2024-02-04T09:11:12Z</time>
      </trkpt>
      <trkpt lat="38.075208" lon="-0.973766">
        <ele>31.7</ele>
        <time>2024-02-04T09:11:25Z</time>
      </trkpt>
      <trkpt lat="38.075220" lon="-0.973527">
        <ele>32.6</ele>
        <time>2024-02-04T09:11:38Z</time>
      </trkpt>
      <trkpt lat="38.075236" lon="-0.973300">
        <ele>33.6</ele>
        <time>2024-02-04T09:11:49Z</time>
      </trkpt>
      <trkpt lat="38.075262" lon="-0.973063">
        <ele>34.9</ele>
        <time>2024-02-04T09:12:02Z</time>
      </trkpt>
      <trkpt lat="38.075300" lon="-0.972830">
        <ele>35.6</ele>
        <time>2024-02-04T09:12:15Z</time>
      </trkpt>
      <trkpt lat="38.075352" lon="-0.972601">
        <ele>36.6</ele>
        <time>2024-02-04T09:12:28Z</time>
      </trkpt>
      <trkpt lat="38.075423" lon="-0.972385">
        <ele>36.6</ele>
        <time>2024-02-04T09:12:40Z</time>
      </trkpt>
      <trkpt lat="38.075491" lon="-0.972171">
        <ele>37.6</ele>
        <time>2024-02-04T09:12:53Z</time>
      </trkpt>
      <trkpt lat="38.075600" lon="-0.971981">
        <ele>36.6</ele>
        <time>2024-02-04T09:13:06Z</time>
      </trkpt>
      <trkpt lat="38.075716" lon="-0.971791">
        <ele>38.6</ele>
        <time>2024-02-04T09:13:21Z</time>
      </trkpt>
      <trkpt lat="38.075797" lon="-0.971585">
        <ele>37.6</ele>
        <time>2024-02-04T09:13:35Z</time>
      </trkpt>
      <trkpt lat="38.075907" lon="-0.971404">
        <ele>28.0</ele>
        <time>2024-02-04T09:13:54Z</time>
      </trkpt>
      <trkpt lat="38.076044" lon="-0.971249">
        <ele>28.2</ele>
        <time>2024-02-04T09:14:12Z</time>
      </trkpt>
      <trkpt lat="38.076220" lon="-0.971204">
        <ele>28.2</ele>
        <time>2024-02-04T09:14:28Z</time>
      </trkpt>
      <trkpt lat="38.076390" lon="-0.971128">
        <ele>28.0</ele>
        <time>2024-02-04T09:14:43Z</time>
      </trkpt>
      <trkpt lat="38.076549" lon="-0.971250">
        <ele>32.9</ele>
        <time>2024-02-04T09:14:59Z</time>
      </trkpt>
      <trkpt lat="38.076716" lon="-0.971300">
        <ele>34.6</ele>
        <time>2024-02-04T09:17:05Z</time>
      </trkpt>
      <trkpt lat="38.076700" lon="-0.971119">
        <ele>36.9</ele>
        <time>2024-02-04T09:19:16Z</time>
      </trkpt>
      <trkpt lat="38.076843" lon="-0.970988">
        <ele>35.3</ele>
        <time>2024-02-04T09:19:57Z</time>
      </trkpt>
      <trkpt lat="38.076925" lon="-0.970786">
        <ele>32.8</ele>
        <time>2024-02-04T09:20:47Z</time>
      </trkpt>
      <trkpt lat="38.076840" lon="-0.970580">
        <ele>35.6</ele>
        <time>2024-02-04T09:22:42Z</time>
      </trkpt>
      <trkpt lat="38.076959" lon="-0.970416">
        <ele>35.6</ele>
        <time>2024-02-04T09:22:55Z</time>
      </trkpt>
      <trkpt lat="38.077100" lon="-0.970255">
        <ele>33.6</ele>
        <time>2024-02-04T09:40:50Z</time>
      </trkpt>
      <trkpt lat="38.077232" lon="-0.970125">
        <ele>34.7</ele>
        <time>2024-02-04T09:42:51Z</time>
      </trkpt>
      <trkpt lat="38.077388" lon="-0.969999">
        <ele>35.6</ele>
        <time>2024-02-04T09:43:25Z</time>
      </trkpt>
      <trkpt lat="38.077548" lon="-0.969872">
        <ele>34.5</ele>
        <time>2024-02-04T09:43:40Z</time>
      </trkpt>
      <trkpt lat="38.077694" lon="-0.969727">
        <ele>31.9</ele>
        <time>2024-02-04T09:44:10Z</time>
      </trkpt>
      <trkpt lat="38.077833" lon="-0.969566">
        <ele>32.6</ele>
        <time>2024-02-04T09:44:22Z</time>
      </trkpt>
      <trkpt lat="38.077947" lon="-0.969383">
        <ele>32.6</ele>
        <time>2024-02-04T09:44:36Z</time>
      </trkpt>
      <trkpt lat="38.078091" lon="-0.969242">
        <ele>33.6</ele>
        <time>2024-02-04T09:44:50Z</time>
      </trkpt>
      <trkpt lat="38.078243" lon="-0.969109">
        <ele>32.6</ele>
        <time>2024-02-04T09:45:05Z</time>
      </trkpt>
      <trkpt lat="38.078397" lon="-0.968981">
        <ele>34.6</ele>
        <time>2024-02-04T09:45:18Z</time>
      </trkpt>
      <trkpt lat="38.078548" lon="-0.968847">
        <ele>34.6</ele>
        <time>2024-02-04T09:45:32Z</time>
      </trkpt>
      <trkpt lat="38.078692" lon="-0.968693">
        <ele>35.6</ele>
        <time>2024-02-04T09:45:47Z</time>
      </trkpt>
      <trkpt lat="38.078845" lon="-0.968561">
        <ele>34.7</ele>
        <time>2024-02-04T09:46:01Z</time>
      </trkpt>
      <trkpt lat="38.079002" lon="-0.968438">
        <ele>35.6</ele>
        <time>2024-02-04T09:46:14Z</time>
      </trkpt>
      <trkpt lat="38.079159" lon="-0.968323">
        <ele>35.6</ele>
        <time>2024-02-04T09:46:27Z</time>
      </trkpt>
      <trkpt lat="38.079326" lon="-0.968238">
        <ele>34.6</ele>
        <time>2024-02-04T09:46:40Z</time>
      </trkpt>
      <trkpt lat="38.079471" lon="-0.968078">
        <ele>32.6</ele>
        <time>2024-02-04T09:47:03Z</time>
      </trkpt>
      <trkpt lat="38.079631" lon="-0.967967">
        <ele>33.5</ele>
        <time>2024-02-04T09:47:16Z</time>
      </trkpt>
      <trkpt lat="38.079801" lon="-0.967851">
        <ele>33.6</ele>
        <time>2024-02-04T09:47:29Z</time>
      </trkpt>
      <trkpt lat="38.079957" lon="-0.967737">
        <ele>34.6</ele>
        <time>2024-02-04T09:47:42Z</time>
      </trkpt>
      <trkpt lat="38.080117" lon="-0.967632">
        <ele>34.6</ele>
        <time>2024-02-04T09:47:55Z</time>
      </trkpt>
      <trkpt lat="38.080270" lon="-0.967498">
        <ele>34.6</ele>
        <time>2024-02-04T09:48:09Z</time>
      </trkpt>
      <trkpt lat="38.080432" lon="-0.967390">
        <ele>32.7</ele>
        <time>2024-02-04T09:48:25Z</time>
      </trkpt>
      <trkpt lat="38.080594" lon="-0.967284">
        <ele>33.6</ele>
        <time>2024-02-04T09:48:41Z</time>
      </trkpt>
      <trkpt lat="38.080749" lon="-0.967167">
        <ele>33.3</ele>
        <time>2024-02-04T09:48:55Z</time>
      </trkpt>
      <trkpt lat="38.080905" lon="-0.967044">
        <ele>34.6</ele>
        <time>2024-02-04T09:49:10Z</time>
      </trkpt>
      <trkpt lat="38.081074" lon="-0.966939">
        <ele>34.6</ele>
        <time>2024-02-04T09:49:25Z</time>
      </trkpt>
      <trkpt lat="38.081236" lon="-0.966822">
        <ele>34.6</ele>
        <time>2024-02-04T09:49:41Z</time>
      </trkpt>
      <trkpt lat="38.081391" lon="-0.966698">
        <ele>33.6</ele>
        <time>2024-02-04T09:49:57Z</time>
      </trkpt>
      <trkpt lat="38.081549" lon="-0.966584">
        <ele>33.6</ele>
        <time>2024-02-04T09:50:11Z</time>
      </trkpt>
      <trkpt lat="38.081705" lon="-0.966466">
        <ele>34.6</ele>
        <time>2024-02-04T09:50:26Z</time>
      </trkpt>
      <trkpt lat="38.081862" lon="-0.966347">
        <ele>25.3</ele>
        <time>2024-02-04T09:50:41Z</time>
      </trkpt>
      <trkpt lat="38.082011" lon="-0.966218">
        <ele>25.3</ele>
        <time>2024-02-04T09:50:56Z</time>
      </trkpt>
      <trkpt lat="38.082152" lon="-0.966075">
        <ele>25.3</ele>
        <time>2024-02-04T09:51:14Z</time>
      </trkpt>
      <trkpt lat="38.082286" lon="-0.965922">
        <ele>32.6</ele>
        <time>2024-02-04T09:51:33Z</time>
      </trkpt>
      <trkpt lat="38.082431" lon="-0.965788">
        <ele>32.3</ele>
        <time>2024-02-04T09:51:56Z</time>
      </trkpt>
      <trkpt lat="38.082553" lon="-0.965606">
        <ele>31.6</ele>
        <time>2024-02-04T09:52:11Z</time>
      </trkpt>
      <trkpt lat="38.082675" lon="-0.965435">
        <ele>32.6</ele>
        <time>2024-02-04T09:52:27Z</time>
      </trkpt>
      <trkpt lat="38.082810" lon="-0.965270">
        <ele>32.6</ele>
        <time>2024-02-04T09:52:42Z</time>
      </trkpt>
      <trkpt lat="38.082918" lon="-0.965080">
        <ele>33.6</ele>
        <time>2024-02-04T09:52:57Z</time>
      </trkpt>
      <trkpt lat="38.083020" lon="-0.964888">
        <ele>31.6</ele>
        <time>2024-02-04T09:53:14Z</time>
      </trkpt>
      <trkpt lat="38.083137" lon="-0.964713">
        <ele>32.5</ele>
        <time>2024-02-04T09:53:29Z</time>
      </trkpt>
      <trkpt lat="38.083223" lon="-0.964511">
        <ele>32.7</ele>
        <time>2024-02-04T09:53:43Z</time>
      </trkpt>
      <trkpt lat="38.083303" lon="-0.964303">
        <ele>32.6</ele>
        <time>2024-02-04T09:53:59Z</time>
      </trkpt>
      <trkpt lat="38.083392" lon="-0.964103">
        <ele>32.6</ele>
        <time>2024-02-04T09:54:13Z</time>
      </trkpt>
      <trkpt lat="38.083468" lon="-0.963894">
        <ele>33.6</ele>
        <time>2024-02-04T09:54:28Z</time>
      </trkpt>
      <trkpt lat="38.083553" lon="-0.963684">
        <ele>32.6</ele>
        <time>2024-02-04T09:54:43Z</time>
      </trkpt>
      <trkpt lat="38.083637" lon="-0.963476">
        <ele>31.6</ele>
        <time>2024-02-04T09:54:58Z</time>
      </trkpt>
      <trkpt lat="38.083685" lon="-0.963249">
        <ele>32.6</ele>
        <time>2024-02-04T09:55:12Z</time>
      </trkpt>
      <trkpt lat="38.083763" lon="-0.963035">
        <ele>33.6</ele>
        <time>2024-02-04T09:55:28Z</time>
      </trkpt>
      <trkpt lat="38.083825" lon="-0.962809">
        <ele>32.6</ele>
        <time>2024-02-04T09:55:44Z</time>
      </trkpt>
      <trkpt lat="38.083891" lon="-0.962589">
        <ele>32.6</ele>
        <time>2024-02-04T09:55:58Z</time>
      </trkpt>
      <trkpt lat="38.083964" lon="-0.962370">
        <ele>31.6</ele>
        <time>2024-02-04T09:56:13Z</time>
      </trkpt>
      <trkpt lat="38.084051" lon="-0.962163">
        <ele>31.6</ele>
        <time>2024-02-04T09:56:27Z</time>
      </trkpt>
      <trkpt lat="38.084153" lon="-0.961970">
        <ele>30.6</ele>
        <time>2024-02-04T09:56:42Z</time>
      </trkpt>
      <trkpt lat="38.084261" lon="-0.961786">
        <ele>31.6</ele>
        <time>2024-02-04T09:56:54Z</time>
      </trkpt>
      <trkpt lat="38.084377" lon="-0.961602">
        <ele>32.6</ele>
        <time>2024-02-04T09:57:08Z</time>
      </trkpt>
      <trkpt lat="38.084510" lon="-0.961436">
        <ele>31.6</ele>
        <time>2024-02-04T09:57:22Z</time>
      </trkpt>
      <trkpt lat="38.084649" lon="-0.961286">
        <ele>27.1</ele>
        <time>2024-02-04T09:57:37Z</time>
      </trkpt>
      <trkpt lat="38.084802" lon="-0.961153">
        <ele>27.1</ele>
        <time>2024-02-04T09:57:51Z</time>
      </trkpt>
      <trkpt lat="38.084964" lon="-0.961038">
        <ele>27.1</ele>
        <time>2024-02-04T09:58:05Z</time>
      </trkpt>
      <trkpt lat="38.085126" lon="-0.960938">
        <ele>27.1</ele>
        <time>2024-02-04T09:58:19Z</time>
      </trkpt>
      <trkpt lat="38.085280" lon="-0.960816">
        <ele>27.1</ele>
        <time>2024-02-04T09:58:33Z</time>
      </trkpt>
      <trkpt lat="38.085445" lon="-0.960724">
        <ele>27.1</ele>
        <time>2024-02-04T09:58:47Z</time>
      </trkpt>
      <trkpt lat="38.085609" lon="-0.960618">
        <ele>28.6</ele>
        <time>2024-02-04T09:59:01Z</time>
      </trkpt>
      <trkpt lat="38.085775" lon="-0.960506">
        <ele>30.6</ele>
        <time>2024-02-04T09:59:16Z</time>
      </trkpt>
      <trkpt lat="38.085944" lon="-0.960407">
        <ele>30.9</ele>
        <time>2024-02-04T09:59:29Z</time>
      </trkpt>
      <trkpt lat="38.086107" lon="-0.960285">
        <ele>29.6</ele>
        <time>2024-02-04T09:59:43Z</time>
      </trkpt>
      <trkpt lat="38.086253" lon="-0.960147">
        <ele>29.6</ele>
        <time>2024-02-04T09:59:57Z</time>
      </trkpt>
      <trkpt lat="38.086395" lon="-0.959997">
        <ele>29.6</ele>
        <time>2024-02-04T10:00:11Z</time>
      </trkpt>
      <trkpt lat="38.086537" lon="-0.959838">
        <ele>27.6</ele>
        <time>2024-02-04T10:00:25Z</time>
      </trkpt>
      <trkpt lat="38.086659" lon="-0.959664">
        <ele>27.6</ele>
        <time>2024-02-04T10:00:40Z</time>
      </trkpt>
      <trkpt lat="38.086764" lon="-0.959477">
        <ele>28.6</ele>
        <time>2024-02-04T10:00:55Z</time>
      </trkpt>
      <trkpt lat="38.086873" lon="-0.959289">
        <ele>26.0</ele>
        <time>2024-02-04T10:01:09Z</time>
      </trkpt>
      <trkpt lat="38.086950" lon="-0.959150">
        <ele>25.9</ele>
        <time>2024-02-04T10:01:36Z</time>
      </trkpt>
      <trkpt lat="38.087050" lon="-0.958962">
        <ele>25.9</ele>
        <time>2024-02-04T10:02:08Z</time>
      </trkpt>
      <trkpt lat="38.087110" lon="-0.958806">
        <ele>25.9</ele>
        <time>2024-02-04T10:02:25Z</time>
      </trkpt>
      <trkpt lat="38.087188" lon="-0.958594">
        <ele>25.9</ele>
        <time>2024-02-04T10:02:38Z</time>
      </trkpt>
      <trkpt lat="38.087258" lon="-0.958378">
        <ele>25.9</ele>
        <time>2024-02-04T10:02:49Z</time>
      </trkpt>
      <trkpt lat="38.087300" lon="-0.958147">
        <ele>32.6</ele>
        <time>2024-02-04T10:03:02Z</time>
      </trkpt>
      <trkpt lat="38.087334" lon="-0.958064">
        <ele>29.7</ele>
        <time>2024-02-04T10:03:19Z</time>
      </trkpt>
      <trkpt lat="38.087352" lon="-0.957990">
        <ele>29.6</ele>
        <time>2024-02-04T10:03:31Z</time>
      </trkpt>
      <trkpt lat="38.087368" lon="-0.957943">
        <ele>29.5</ele>
        <time>2024-02-04T10:04:39Z</time>
      </trkpt>
      <trkpt lat="38.087380" lon="-0.957851">
        <ele>31.6</ele>
        <time>2024-02-04T10:04:52Z</time>
      </trkpt>
      <trkpt lat="38.087368" lon="-0.957618">
        <ele>31.6</ele>
        <time>2024-02-04T10:05:03Z</time>
      </trkpt>
      <trkpt lat="38.087393" lon="-0.957387">
        <ele>31.7</ele>
        <time>2024-02-04T10:05:14Z</time>
      </trkpt>
      <trkpt lat="38.087396" lon="-0.957148">
        <ele>27.3</ele>
        <time>2024-02-04T10:05:26Z</time>
      </trkpt>
      <trkpt lat="38.087385" lon="-0.956915">
        <ele>27.3</ele>
        <time>2024-02-04T10:05:41Z</time>
      </trkpt>
      <trkpt lat="38.087354" lon="-0.956685">
        <ele>27.3</ele>
        <time>2024-02-04T10:05:53Z</time>
      </trkpt>
      <trkpt lat="38.087371" lon="-0.956426">
        <ele>27.3</ele>
        <time>2024-02-04T10:06:05Z</time>
      </trkpt>
      <trkpt lat="38.087321" lon="-0.956222">
        <ele>27.3</ele>
        <time>2024-02-04T10:06:16Z</time>
      </trkpt>
      <trkpt lat="38.087233" lon="-0.956004">
        <ele>27.3</ele>
        <time>2024-02-04T10:06:28Z</time>
      </trkpt>
      <trkpt lat="38.087165" lon="-0.955785">
        <ele>27.3</ele>
        <time>2024-02-04T10:06:40Z</time>
      </trkpt>
      <trkpt lat="38.087100" lon="-0.955566">
        <ele>25.5</ele>
        <time>2024-02-04T10:06:52Z</time>
      </trkpt>
      <trkpt lat="38.087012" lon="-0.955358">
        <ele>28.2</ele>
        <time>2024-02-04T10:07:04Z</time>
      </trkpt>
      <trkpt lat="38.086920" lon="-0.955128">
        <ele>30.3</ele>
        <time>2024-02-04T10:07:17Z</time>
      </trkpt>
      <trkpt lat="38.086833" lon="-0.954907">
        <ele>27.3</ele>
        <time>2024-02-04T10:07:29Z</time>
      </trkpt>
      <trkpt lat="38.086737" lon="-0.954702">
        <ele>28.8</ele>
        <time>2024-02-04T10:07:41Z</time>
      </trkpt>
      <trkpt lat="38.086634" lon="-0.954504">
        <ele>28.8</ele>
        <time>2024-02-04T10:07:53Z</time>
      </trkpt>
      <trkpt lat="38.086515" lon="-0.954308">
        <ele>28.6</ele>
        <time>2024-02-04T10:08:06Z</time>
      </trkpt>
      <trkpt lat="38.086403" lon="-0.954117">
        <ele>29.6</ele>
        <time>2024-02-04T10:08:18Z</time>
      </trkpt>
      <trkpt lat="38.086302" lon="-0.953906">
        <ele>25.3</ele>
        <time>2024-02-04T10:08:31Z</time>
      </trkpt>
      <trkpt lat="38.086199" lon="-0.953698">
        <ele>28.9</ele>
        <time>2024-02-04T10:08:43Z</time>
      </trkpt>
      <trkpt lat="38.086081" lon="-0.953505">
        <ele>28.2</ele>
        <time>2024-02-04T10:08:55Z</time>
      </trkpt>
      <trkpt lat="38.085974" lon="-0.953305">
        <ele>27.6</ele>
        <time>2024-02-04T10:09:08Z</time>
      </trkpt>
      <trkpt lat="38.085866" lon="-0.953116">
        <ele>27.6</ele>
        <time>2024-02-04T10:09:20Z</time>
      </trkpt>
      <trkpt lat="38.085738" lon="-0.952952">
        <ele>28.2</ele>
        <time>2024-02-04T10:09:31Z</time>
      </trkpt>
      <trkpt lat="38.085519" lon="-0.952583">
        <ele>26.6</ele>
        <time>2024-02-04T10:09:55Z</time>
      </trkpt>
      <trkpt lat="38.085509" lon="-0.952353">
        <ele>26.4</ele>
        <time>2024-02-04T10:10:37Z</time>
      </trkpt>
      <trkpt lat="38.085539" lon="-0.952116">
        <ele>26.6</ele>
        <time>2024-02-04T10:11:00Z</time>
      </trkpt>
      <trkpt lat="38.085456" lon="-0.951911">
        <ele>24.9</ele>
        <time>2024-02-04T10:11:28Z</time>
      </trkpt>
      <trkpt lat="38.085274" lon="-0.951842">
        <ele>25.0</ele>
        <time>2024-02-04T10:11:54Z</time>
      </trkpt>
      <trkpt lat="38.085088" lon="-0.951806">
        <ele>26.6</ele>
        <time>2024-02-04T10:12:12Z</time>
      </trkpt>
      <trkpt lat="38.084910" lon="-0.951878">
        <ele>24.8</ele>
        <time>2024-02-04T10:12:30Z</time>
      </trkpt>
      <trkpt lat="38.084727" lon="-0.951855">
        <ele>28.8</ele>
        <time>2024-02-04T10:12:46Z</time>
      </trkpt>
      <trkpt lat="38.084556" lon="-0.951756">
        <ele>28.8</ele>
        <time>2024-02-04T10:13:01Z</time>
      </trkpt>
      <trkpt lat="38.084412" lon="-0.951615">
        <ele>27.5</ele>
        <time>2024-02-04T10:13:17Z</time>
      </trkpt>
      <trkpt lat="38.084350" lon="-0.951393">
        <ele>28.0</ele>
        <time>2024-02-04T10:13:37Z</time>
      </trkpt>
      <trkpt lat="38.084304" lon="-0.951165">
        <ele>28.8</ele>
        <time>2024-02-04T10:13:54Z</time>
      </trkpt>
      <trkpt lat="38.084300" lon="-0.950924">
        <ele>27.1</ele>
        <time>2024-02-04T10:14:10Z</time>
      </trkpt>
      <trkpt lat="38.084313" lon="-0.950692">
        <ele>27.1</ele>
        <time>2024-02-04T10:14:27Z</time>
      </trkpt>
      <trkpt lat="38.084322" lon="-0.950454">
        <ele>27.1</ele>
        <time>2024-02-04T10:14:44Z</time>
      </trkpt>
      <trkpt lat="38.084352" lon="-0.950223">
        <ele>27.1</ele>
        <time>2024-02-04T10:15:00Z</time>
      </trkpt>
      <trkpt lat="38.084397" lon="-0.949994">
        <ele>27.1</ele>
        <time>2024-02-04T10:15:15Z</time>
      </trkpt>
      <trkpt lat="38.084470" lon="-0.949784">
        <ele>25.5</ele>
        <time>2024-02-04T10:15:32Z</time>
      </trkpt>
      <trkpt lat="38.084543" lon="-0.949560">
        <ele>25.5</ele>
        <time>2024-02-04T10:15:52Z</time>
      </trkpt>
      <trkpt lat="38.084554" lon="-0.949319">
        <ele>25.3</ele>
        <time>2024-02-04T10:16:08Z</time>
      </trkpt>
      <trkpt lat="38.084668" lon="-0.949124">
        <ele>25.2</ele>
        <time>2024-02-04T10:16:24Z</time>
      </trkpt>
      <trkpt lat="38.084772" lon="-0.948936">
        <ele>24.9</ele>
        <time>2024-02-04T10:16:39Z</time>
      </trkpt>
      <trkpt lat="38.084853" lon="-0.948715">
        <ele>24.9</ele>
        <time>2024-02-04T10:16:54Z</time>
      </trkpt>
      <trkpt lat="38.084941" lon="-0.948501">
        <ele>24.8</ele>
        <time>2024-02-04T10:17:11Z</time>
      </trkpt>
      <trkpt lat="38.085012" lon="-0.948279">
        <ele>23.7</ele>
        <time>2024-02-04T10:17:28Z</time>
      </trkpt>
      <trkpt lat="38.084983" lon="-0.948050">
        <ele>24.4</ele>
        <time>2024-02-04T10:18:22Z</time>
      </trkpt>
      <trkpt lat="38.085083" lon="-0.947857">
        <ele>24.8</ele>
        <time>2024-02-04T10:21:08Z</time>
      </trkpt>
      <trkpt lat="38.085101" lon="-0.947626">
        <ele>24.0</ele>
        <time>2024-02-04T10:21:37Z</time>
      </trkpt>
      <trkpt lat="38.085123" lon="-0.947386">
        <ele>24.2</ele>
        <time>2024-02-04T10:22:12Z</time>
      </trkpt>
      <trkpt lat="38.085170" lon="-0.947161">
        <ele>24.2</ele>
        <time>2024-02-04T10:22:31Z</time>
      </trkpt>
      <trkpt lat="38.085204" lon="-0.946937">
        <ele>25.5</ele>
        <time>2024-02-04T10:22:59Z</time>
      </trkpt>
      <trkpt lat="38.085275" lon="-0.946726">
        <ele>25.1</ele>
        <time>2024-02-04T10:25:20Z</time>
      </trkpt>
      <trkpt lat="38.085292" lon="-0.946490">
        <ele>25.2</ele>
        <time>2024-02-04T10:25:56Z</time>
      </trkpt>
      <trkpt lat="38.085316" lon="-0.946244">
        <ele>24.5</ele>
        <time>2024-02-04T10:26:31Z</time>
      </trkpt>
      <trkpt lat="38.085343" lon="-0.945999">
        <ele>24.7</ele>
        <time>2024-02-04T10:26:56Z</time>
      </trkpt>
      <trkpt lat="38.085370" lon="-0.945767">
        <ele>24.6</ele>
        <time>2024-02-04T10:27:23Z</time>
      </trkpt>
      <trkpt lat="38.085275" lon="-0.945565">
        <ele>25.0</ele>
        <time>2024-02-04T10:28:06Z</time>
      </trkpt>
      <trkpt lat="38.085192" lon="-0.945357">
        <ele>24.8</ele>
        <time>2024-02-04T10:28:48Z</time>
      </trkpt>
      <trkpt lat="38.085091" lon="-0.945156">
        <ele>24.6</ele>
        <time>2024-02-04T10:29:04Z</time>
      </trkpt>
      <trkpt lat="38.084970" lon="-0.944971">
        <ele>24.2</ele>
        <time>2024-02-04T10:29:21Z</time>
      </trkpt>
      <trkpt lat="38.084873" lon="-0.944778">
        <ele>24.3</ele>
        <time>2024-02-04T10:29:36Z</time>
      </trkpt>
      <trkpt lat="38.084822" lon="-0.944558">
        <ele>24.4</ele>
        <time>2024-02-04T10:29:58Z</time>
      </trkpt>
      <trkpt lat="38.084692" lon="-0.944379">
        <ele>24.5</ele>
        <time>2024-02-04T10:30:15Z</time>
      </trkpt>
      <trkpt lat="38.084569" lon="-0.944207">
        <ele>24.7</ele>
        <time>2024-02-04T10:30:30Z</time>
      </trkpt>
      <trkpt lat="38.084458" lon="-0.944022">
        <ele>24.7</ele>
        <time>2024-02-04T10:30:47Z</time>
      </trkpt>
      <trkpt lat="38.084345" lon="-0.943839">
        <ele>24.7</ele>
        <time>2024-02-04T10:31:03Z</time>
      </trkpt>
      <trkpt lat="38.084247" lon="-0.943643">
        <ele>24.7</ele>
        <time>2024-02-04T10:31:19Z</time>
      </trkpt>
      <trkpt lat="38.084158" lon="-0.943434">
        <ele>24.7</ele>
        <time>2024-02-04T10:31:35Z</time>
      </trkpt>
      <trkpt lat="38.084104" lon="-0.943201">
        <ele>25.0</ele>
        <time>2024-02-04T10:31:51Z</time>
      </trkpt>
      <trkpt lat="38.084095" lon="-0.942970">
        <ele>28.6</ele>
        <time>2024-02-04T10:32:05Z</time>
      </trkpt>
      <trkpt lat="38.084132" lon="-0.942731">
        <ele>25.1</ele>
        <time>2024-02-04T10:32:20Z</time>
      </trkpt>
      <trkpt lat="38.084226" lon="-0.942523">
        <ele>25.1</ele>
        <time>2024-02-04T10:32:33Z</time>
      </trkpt>
      <trkpt lat="38.084385" lon="-0.942416">
        <ele>24.3</ele>
        <time>2024-02-04T10:32:56Z</time>
      </trkpt>
      <trkpt lat="38.084505" lon="-0.942242">
        <ele>24.4</ele>
        <time>2024-02-04T10:33:33Z</time>
      </trkpt>
      <trkpt lat="38.084634" lon="-0.942061">
        <ele>25.1</ele>
        <time>2024-02-04T10:33:46Z</time>
      </trkpt>
      <trkpt lat="38.084854" lon="-0.941696">
        <ele>26.2</ele>
        <time>2024-02-04T10:34:42Z</time>
      </trkpt>
      <trkpt lat="38.084871" lon="-0.941455">
        <ele>23.4</ele>
        <time>2024-02-04T10:34:56Z</time>
      </trkpt>
      <trkpt lat="38.084885" lon="-0.941225">
        <ele>23.6</ele>
        <time>2024-02-04T10:35:09Z</time>
      </trkpt>
      <trkpt lat="38.084904" lon="-0.940996">
        <ele>23.7</ele>
        <time>2024-02-04T10:35:22Z</time>
      </trkpt>
      <trkpt lat="38.084897" lon="-0.940755">
        <ele>23.7</ele>
        <time>2024-02-04T10:35:36Z</time>
      </trkpt>
      <trkpt lat="38.084881" lon="-0.940525">
        <ele>24.5</ele>
        <time>2024-02-04T10:35:49Z</time>
      </trkpt>
      <trkpt lat="38.084904" lon="-0.940290">
        <ele>24.2</ele>
        <time>2024-02-04T10:36:03Z</time>
      </trkpt>
      <trkpt lat="38.084923" lon="-0.940053">
        <ele>24.5</ele>
        <time>2024-02-04T10:36:18Z</time>
      </trkpt>
      <trkpt lat="38.084891" lon="-0.939815">
        <ele>24.6</ele>
        <time>2024-02-04T10:36:35Z</time>
      </trkpt>
      <trkpt lat="38.084877" lon="-0.939587">
        <ele>24.6</ele>
        <time>2024-02-04T10:36:51Z</time>
      </trkpt>
      <trkpt lat="38.084986" lon="-0.939400">
        <ele>25.0</ele>
        <time>2024-02-04T10:37:11Z</time>
      </trkpt>
      <trkpt lat="38.085165" lon="-0.939373">
        <ele>24.6</ele>
        <time>2024-02-04T10:37:26Z</time>
      </trkpt>
      <trkpt lat="38.085050" lon="-0.939186">
        <ele>24.6</ele>
        <time>2024-02-04T10:37:54Z</time>
      </trkpt>
      <trkpt lat="38.084874" lon="-0.939248">
        <ele>24.6</ele>
        <time>2024-02-04T10:38:11Z</time>
      </trkpt>
      <trkpt lat="38.084694" lon="-0.939300">
        <ele>24.8</ele>
        <time>2024-02-04T10:38:32Z</time>
      </trkpt>
      <trkpt lat="38.084513" lon="-0.939354">
        <ele>25.2</ele>
        <time>2024-02-04T10:38:54Z</time>
      </trkpt>
      <trkpt lat="38.084331" lon="-0.939371">
        <ele>25.3</ele>
        <time>2024-02-04T10:39:09Z</time>
      </trkpt>
      <trkpt lat="38.084206" lon="-0.939197">
        <ele>25.4</ele>
        <time>2024-02-04T10:39:27Z</time>
      </trkpt>
      <trkpt lat="38.084026" lon="-0.939226">
        <ele>25.3</ele>
        <time>2024-02-04T10:39:43Z</time>
      </trkpt>
      <trkpt lat="38.083838" lon="-0.939273">
        <ele>25.2</ele>
        <time>2024-02-04T10:39:59Z</time>
      </trkpt>
      <trkpt lat="38.083653" lon="-0.939306">
        <ele>25.0</ele>
        <time>2024-02-04T10:40:17Z</time>
      </trkpt>
      <trkpt lat="38.083470" lon="-0.939337">
        <ele>24.9</ele>
        <time>2024-02-04T10:40:32Z</time>
      </trkpt>
      <trkpt lat="38.083289" lon="-0.939357">
        <ele>24.7</ele>
        <time>2024-02-04T10:40:47Z</time>
      </trkpt>
      <trkpt lat="38.083118" lon="-0.939261">
        <ele>24.6</ele>
        <time>2024-02-04T10:41:03Z</time>
      </trkpt>
      <trkpt lat="38.082980" lon="-0.939414">
        <ele>24.5</ele>
        <time>2024-02-04T10:41:23Z</time>
      </trkpt>
      <trkpt lat="38.082795" lon="-0.939446">
        <ele>24.2</ele>
        <time>2024-02-04T10:41:41Z</time>
      </trkpt>
      <trkpt lat="38.082611" lon="-0.939474">
        <ele>24.2</ele>
        <time>2024-02-04T10:41:59Z</time>
      </trkpt>
      <trkpt lat="38.082431" lon="-0.939443">
        <ele>24.0</ele>
        <time>2024-02-04T10:42:15Z</time>
      </trkpt>
      <trkpt lat="38.082359" lon="-0.939229">
        <ele>24.0</ele>
        <time>2024-02-04T10:42:31Z</time>
      </trkpt>
      <trkpt lat="38.082246" lon="-0.939041">
        <ele>24.0</ele>
        <time>2024-02-04T10:42:55Z</time>
      </trkpt>
      <trkpt lat="38.082182" lon="-0.938819">
        <ele>24.0</ele>
        <time>2024-02-04T10:43:17Z</time>
      </trkpt>
      <trkpt lat="38.082143" lon="-0.938596">
        <ele>24.9</ele>
        <time>2024-02-04T10:43:37Z</time>
      </trkpt>
      <trkpt lat="38.082101" lon="-0.938362">
        <ele>27.8</ele>
        <time>2024-02-04T10:43:59Z</time>
      </trkpt>
      <trkpt lat="38.082031" lon="-0.938146">
        <ele>28.7</ele>
        <time>2024-02-04T10:44:18Z</time>
      </trkpt>
      <trkpt lat="38.081922" lon="-0.937956">
        <ele>28.7</ele>
        <time>2024-02-04T10:44:36Z</time>
      </trkpt>
      <trkpt lat="38.081810" lon="-0.937765">
        <ele>26.4</ele>
        <time>2024-02-04T10:44:55Z</time>
      </trkpt>
      <trkpt lat="38.081686" lon="-0.937586">
        <ele>24.1</ele>
        <time>2024-02-04T10:45:16Z</time>
      </trkpt>
      <trkpt lat="38.081590" lon="-0.937390">
        <ele>23.9</ele>
        <time>2024-02-04T10:45:32Z</time>
      </trkpt>
      <trkpt lat="38.081646" lon="-0.937273">
        <ele>22.9</ele>
        <time>2024-02-04T10:46:01Z</time>
      </trkpt>
      <trkpt lat="38.081755" lon="-0.937209">
        <ele>23.9</ele>
        <time>2024-02-04T10:48:51Z</time>
      </trkpt>
      <trkpt lat="38.081903" lon="-0.937347">
        <ele>23.9</ele>
        <time>2024-02-04T10:59:56Z</time>
      </trkpt>
      <trkpt lat="38.082148" lon="-0.937242">
        <ele>23.9</ele>
        <time>2024-02-04T11:00:16Z</time>
      </trkpt>
      <trkpt lat="38.082128" lon="-0.937083">
        <ele>23.9</ele>
        <time>2024-02-04T11:00:35Z</time>
      </trkpt>
      <trkpt lat="38.082099" lon="-0.936845">
        <ele>23.9</ele>
        <time>2024-02-04T11:00:52Z</time>
      </trkpt>
      <trkpt lat="38.082071" lon="-0.936609">
        <ele>28.1</ele>
        <time>2024-02-04T11:01:13Z</time>
      </trkpt>
      <trkpt lat="38.082018" lon="-0.936383">
        <ele>23.5</ele>
        <time>2024-02-04T11:01:29Z</time>
      </trkpt>
      <trkpt lat="38.081973" lon="-0.936158">
        <ele>23.5</ele>
        <time>2024-02-04T11:01:45Z</time>
      </trkpt>
      <trkpt lat="38.081920" lon="-0.935935">
        <ele>23.5</ele>
        <time>2024-02-04T11:02:01Z</time>
      </trkpt>
      <trkpt lat="38.081859" lon="-0.935706">
        <ele>23.5</ele>
        <time>2024-02-04T11:02:19Z</time>
      </trkpt>
      <trkpt lat="38.081759" lon="-0.935346">
        <ele>23.3</ele>
        <time>2024-02-04T11:02:36Z</time>
      </trkpt>
      <trkpt lat="38.081868" lon="-0.935289">
        <ele>24.3</ele>
        <time>2024-02-04T11:02:58Z</time>
      </trkpt>
      <trkpt lat="38.082051" lon="-0.935212">
        <ele>24.3</ele>
        <time>2024-02-04T11:03:15Z</time>
      </trkpt>
      <trkpt lat="38.082232" lon="-0.935155">
        <ele>24.9</ele>
        <time>2024-02-04T11:03:33Z</time>
      </trkpt>
      <trkpt lat="38.082416" lon="-0.935095">
        <ele>25.6</ele>
        <time>2024-02-04T11:03:50Z</time>
      </trkpt>
      <trkpt lat="38.082535" lon="-0.934923">
        <ele>23.6</ele>
        <time>2024-02-04T11:04:17Z</time>
      </trkpt>
      <trkpt lat="38.082432" lon="-0.934722">
        <ele>24.6</ele>
        <time>2024-02-04T11:04:33Z</time>
      </trkpt>
      <trkpt lat="38.082352" lon="-0.934509">
        <ele>25.6</ele>
        <time>2024-02-04T11:04:49Z</time>
      </trkpt>
      <trkpt lat="38.082271" lon="-0.934296">
        <ele>25.6</ele>
        <time>2024-02-04T11:05:04Z</time>
      </trkpt>
      <trkpt lat="38.082177" lon="-0.934095">
        <ele>24.6</ele>
        <time>2024-02-04T11:05:22Z</time>
      </trkpt>
      <trkpt lat="38.082076" lon="-0.933888">
        <ele>24.6</ele>
        <time>2024-02-04T11:05:38Z</time>
      </trkpt>
      <trkpt lat="38.082015" lon="-0.933661">
        <ele>25.6</ele>
        <time>2024-02-04T11:05:55Z</time>
      </trkpt>
      <trkpt lat="38.081964" lon="-0.933432">
        <ele>25.6</ele>
        <time>2024-02-04T11:06:10Z</time>
      </trkpt>
      <trkpt lat="38.081920" lon="-0.933197">
        <ele>24.6</ele>
        <time>2024-02-04T11:06:25Z</time>
      </trkpt>
      <trkpt lat="38.081886" lon="-0.932969">
        <ele>23.6</ele>
        <time>2024-02-04T11:06:41Z</time>
      </trkpt>
      <trkpt lat="38.081890" lon="-0.932735">
        <ele>23.6</ele>
        <time>2024-02-04T11:06:56Z</time>
      </trkpt>
      <trkpt lat="38.081896" lon="-0.932507">
        <ele>22.7</ele>
        <time>2024-02-04T11:07:11Z</time>
      </trkpt>
      <trkpt lat="38.081930" lon="-0.932264">
        <ele>24.6</ele>
        <time>2024-02-04T11:07:28Z</time>
      </trkpt>
      <trkpt lat="38.081978" lon="-0.932027">
        <ele>23.0</ele>
        <time>2024-02-04T11:07:45Z</time>
      </trkpt>
      <trkpt lat="38.082048" lon="-0.931798">
        <ele>23.0</ele>
        <time>2024-02-04T11:08:00Z</time>
      </trkpt>
      <trkpt lat="38.082134" lon="-0.931591">
        <ele>22.2</ele>
        <time>2024-02-04T11:08:14Z</time>
      </trkpt>
      <trkpt lat="38.082226" lon="-0.931390">
        <ele>23.9</ele>
        <time>2024-02-04T11:08:29Z</time>
      </trkpt>
      <trkpt lat="38.082336" lon="-0.931187">
        <ele>28.7</ele>
        <time>2024-02-04T11:08:44Z</time>
      </trkpt>
      <trkpt lat="38.082458" lon="-0.931007">
        <ele>28.6</ele>
        <time>2024-02-04T11:08:59Z</time>
      </trkpt>
      <trkpt lat="38.082607" lon="-0.930856">
        <ele>28.9</ele>
        <time>2024-02-04T11:09:16Z</time>
      </trkpt>
      <trkpt lat="38.082757" lon="-0.930708">
        <ele>27.6</ele>
        <time>2024-02-04T11:09:31Z</time>
      </trkpt>
      <trkpt lat="38.082910" lon="-0.930561">
        <ele>21.5</ele>
        <time>2024-02-04T11:09:47Z</time>
      </trkpt>
      <trkpt lat="38.083061" lon="-0.930423">
        <ele>21.5</ele>
        <time>2024-02-04T11:10:03Z</time>
      </trkpt>
      <trkpt lat="38.083219" lon="-0.930294">
        <ele>27.9</ele>
        <time>2024-02-04T11:10:19Z</time>
      </trkpt>
      <trkpt lat="38.083378" lon="-0.930186">
        <ele>26.6</ele>
        <time>2024-02-04T11:10:34Z</time>
      </trkpt>
      <trkpt lat="38.083538" lon="-0.930061">
        <ele>21.5</ele>
        <time>2024-02-04T11:10:50Z</time>
      </trkpt>
      <trkpt lat="38.083695" lon="-0.929921">
        <ele>21.5</ele>
        <time>2024-02-04T11:11:05Z</time>
      </trkpt>
      <trkpt lat="38.083848" lon="-0.929797">
        <ele>21.5</ele>
        <time>2024-02-04T11:11:21Z</time>
      </trkpt>
      <trkpt lat="38.084005" lon="-0.929673">
        <ele>24.4</ele>
        <time>2024-02-04T11:11:36Z</time>
      </trkpt>
      <trkpt lat="38.084158" lon="-0.929530">
        <ele>27.6</ele>
        <time>2024-02-04T11:11:54Z</time>
      </trkpt>
      <trkpt lat="38.084312" lon="-0.929400">
        <ele>26.6</ele>
        <time>2024-02-04T11:12:10Z</time>
      </trkpt>
      <trkpt lat="38.084463" lon="-0.929274">
        <ele>26.9</ele>
        <time>2024-02-04T11:12:26Z</time>
      </trkpt>
      <trkpt lat="38.084622" lon="-0.929147">
        <ele>25.7</ele>
        <time>2024-02-04T11:12:42Z</time>
      </trkpt>
      <trkpt lat="38.084781" lon="-0.929017">
        <ele>25.6</ele>
        <time>2024-02-04T11:12:59Z</time>
      </trkpt>
      <trkpt lat="38.084934" lon="-0.928893">
        <ele>25.7</ele>
        <time>2024-02-04T11:13:18Z</time>
      </trkpt>
      <trkpt lat="38.085084" lon="-0.928766">
        <ele>24.6</ele>
        <time>2024-02-04T11:13:39Z</time>
      </trkpt>
      <trkpt lat="38.085226" lon="-0.928624">
        <ele>23.6</ele>
        <time>2024-02-04T11:14:02Z</time>
      </trkpt>
      <trkpt lat="38.085365" lon="-0.928475">
        <ele>24.5</ele>
        <time>2024-02-04T11:14:21Z</time>
      </trkpt>
      <trkpt lat="38.085497" lon="-0.928319">
        <ele>25.4</ele>
        <time>2024-02-04T11:14:38Z</time>
      </trkpt>
      <trkpt lat="38.085616" lon="-0.928136">
        <ele>25.6</ele>
        <time>2024-02-04T11:14:55Z</time>
      </trkpt>
      <trkpt lat="38.085728" lon="-0.927942">
        <ele>25.6</ele>
        <time>2024-02-04T11:15:10Z</time>
      </trkpt>
      <trkpt lat="38.085826" lon="-0.927743">
        <ele>26.6</ele>
        <time>2024-02-04T11:15:26Z</time>
      </trkpt>
      <trkpt lat="38.085898" lon="-0.927519">
        <ele>25.9</ele>
        <time>2024-02-04T11:15:42Z</time>
      </trkpt>
      <trkpt lat="38.085973" lon="-0.927306">
        <ele>23.6</ele>
        <time>2024-02-04T11:15:58Z</time>
      </trkpt>
      <trkpt lat="38.086035" lon="-0.927087">
        <ele>24.6</ele>
        <time>2024-02-04T11:16:13Z</time>
      </trkpt>
      <trkpt lat="38.086086" lon="-0.926854">
        <ele>25.6</ele>
        <time>2024-02-04T11:16:29Z</time>
      </trkpt>
      <trkpt lat="38.086107" lon="-0.926623">
        <ele>25.6</ele>
        <time>2024-02-04T11:16:44Z</time>
      </trkpt>
      <trkpt lat="38.086134" lon="-0.926389">
        <ele>23.9</ele>
        <time>2024-02-04T11:16:58Z</time>
      </trkpt>
      <trkpt lat="38.086150" lon="-0.926157">
        <ele>23.6</ele>
        <time>2024-02-04T11:17:12Z</time>
      </trkpt>
      <trkpt lat="38.086186" lon="-0.925932">
        <ele>22.8</ele>
        <time>2024-02-04T11:17:27Z</time>
      </trkpt>
      <trkpt lat="38.086202" lon="-0.925699">
        <ele>21.9</ele>
        <time>2024-02-04T11:17:42Z</time>
      </trkpt>
      <trkpt lat="38.086232" lon="-0.925474">
        <ele>21.6</ele>
        <time>2024-02-04T11:17:57Z</time>
      </trkpt>
      <trkpt lat="38.086262" lon="-0.925236">
        <ele>22.6</ele>
        <time>2024-02-04T11:18:12Z</time>
      </trkpt>
      <trkpt lat="38.086279" lon="-0.925000">
        <ele>22.6</ele>
        <time>2024-02-04T11:18:27Z</time>
      </trkpt>
      <trkpt lat="38.086293" lon="-0.924771">
        <ele>23.6</ele>
        <time>2024-02-04T11:18:43Z</time>
      </trkpt>
      <trkpt lat="38.086316" lon="-0.924540">
        <ele>23.6</ele>
        <time>2024-02-04T11:18:58Z</time>
      </trkpt>
      <trkpt lat="38.086339" lon="-0.924301">
        <ele>22.6</ele>
        <time>2024-02-04T11:19:14Z</time>
      </trkpt>
      <trkpt lat="38.086367" lon="-0.924075">
        <ele>20.7</ele>
        <time>2024-02-04T11:19:29Z</time>
      </trkpt>
      <trkpt lat="38.086389" lon="-0.923842">
        <ele>21.6</ele>
        <time>2024-02-04T11:19:44Z</time>
      </trkpt>
      <trkpt lat="38.086422" lon="-0.923613">
        <ele>21.6</ele>
        <time>2024-02-04T11:19:59Z</time>
      </trkpt>
      <trkpt lat="38.086442" lon="-0.923376">
        <ele>21.9</ele>
        <time>2024-02-04T11:20:15Z</time>
      </trkpt>
      <trkpt lat="38.086464" lon="-0.923146">
        <ele>21.6</ele>
        <time>2024-02-04T11:20:29Z</time>
      </trkpt>
      <trkpt lat="38.086482" lon="-0.922905">
        <ele>21.6</ele>
        <time>2024-02-04T11:20:44Z</time>
      </trkpt>
      <trkpt lat="38.086501" lon="-0.922665">
        <ele>21.6</ele>
        <time>2024-02-04T11:20:59Z</time>
      </trkpt>
      <trkpt lat="38.086512" lon="-0.922423">
        <ele>21.6</ele>
        <time>2024-02-04T11:21:16Z</time>
      </trkpt>
      <trkpt lat="38.086556" lon="-0.922192">
        <ele>21.6</ele>
        <time>2024-02-04T11:21:31Z</time>
      </trkpt>
      <trkpt lat="38.086584" lon="-0.921962">
        <ele>20.7</ele>
        <time>2024-02-04T11:21:46Z</time>
      </trkpt>
      <trkpt lat="38.086612" lon="-0.921733">
        <ele>21.5</ele>
        <time>2024-02-04T11:22:00Z</time>
      </trkpt>
      <trkpt lat="38.086635" lon="-0.921496">
        <ele>21.7</ele>
        <time>2024-02-04T11:22:16Z</time>
      </trkpt>
      <trkpt lat="38.086676" lon="-0.921269">
        <ele>21.6</ele>
        <time>2024-02-04T11:22:36Z</time>
      </trkpt>
      <trkpt lat="38.086698" lon="-0.921038">
        <ele>21.6</ele>
        <time>2024-02-04T11:22:49Z</time>
      </trkpt>
      <trkpt lat="38.086718" lon="-0.920807">
        <ele>22.6</ele>
        <time>2024-02-04T11:23:04Z</time>
      </trkpt>
      <trkpt lat="38.086737" lon="-0.920572">
        <ele>22.6</ele>
        <time>2024-02-04T11:23:18Z</time>
      </trkpt>
      <trkpt lat="38.086766" lon="-0.920327">
        <ele>22.6</ele>
        <time>2024-02-04T11:23:33Z</time>
      </trkpt>
      <trkpt lat="38.086819" lon="-0.920105">
        <ele>21.6</ele>
        <time>2024-02-04T11:23:52Z</time>
      </trkpt>
      <trkpt lat="38.086820" lon="-0.919872">
        <ele>20.6</ele>
        <time>2024-02-04T11:24:10Z</time>
      </trkpt>
      <trkpt lat="38.086826" lon="-0.919629">
        <ele>21.6</ele>
        <time>2024-02-04T11:24:23Z</time>
      </trkpt>
      <trkpt lat="38.086850" lon="-0.919396">
        <ele>22.6</ele>
        <time>2024-02-04T11:24:36Z</time>
      </trkpt>
      <trkpt lat="38.086869" lon="-0.919153">
        <ele>23.6</ele>
        <time>2024-02-04T11:24:50Z</time>
      </trkpt>
      <trkpt lat="38.086890" lon="-0.918924">
        <ele>22.2</ele>
        <time>2024-02-04T11:25:03Z</time>
      </trkpt>
      <trkpt lat="38.086906" lon="-0.918692">
        <ele>22.3</ele>
        <time>2024-02-04T11:25:17Z</time>
      </trkpt>
      <trkpt lat="38.086938" lon="-0.918464">
        <ele>22.2</ele>
        <time>2024-02-04T11:25:32Z</time>
      </trkpt>
      <trkpt lat="38.086962" lon="-0.918231">
        <ele>24.4</ele>
        <time>2024-02-04T11:25:47Z</time>
      </trkpt>
      <trkpt lat="38.086974" lon="-0.917996">
        <ele>22.4</ele>
        <time>2024-02-04T11:26:02Z</time>
      </trkpt>
      <trkpt lat="38.086990" lon="-0.917767">
        <ele>21.6</ele>
        <time>2024-02-04T11:26:18Z</time>
      </trkpt>
      <trkpt lat="38.087029" lon="-0.917529">
        <ele>21.6</ele>
        <time>2024-02-04T11:26:39Z</time>
      </trkpt>
      <trkpt lat="38.087046" lon="-0.917292">
        <ele>22.6</ele>
        <time>2024-02-04T11:26:55Z</time>
      </trkpt>
      <trkpt lat="38.087066" lon="-0.917062">
        <ele>23.3</ele>
        <time>2024-02-04T11:27:09Z</time>
      </trkpt>
      <trkpt lat="38.087109" lon="-0.916827">
        <ele>21.6</ele>
        <time>2024-02-04T11:27:23Z</time>
      </trkpt>
      <trkpt lat="38.087133" lon="-0.916598">
        <ele>23.3</ele>
        <time>2024-02-04T11:27:37Z</time>
      </trkpt>
      <trkpt lat="38.087165" lon="-0.916370">
        <ele>23.6</ele>
        <time>2024-02-04T11:27:52Z</time>
      </trkpt>
      <trkpt lat="38.087188" lon="-0.916132">
        <ele>22.6</ele>
        <time>2024-02-04T11:28:08Z</time>
      </trkpt>
      <trkpt lat="38.087201" lon="-0.915903">
        <ele>21.6</ele>
        <time>2024-02-04T11:28:23Z</time>
      </trkpt>
      <trkpt lat="38.087217" lon="-0.915666">
        <ele>19.7</ele>
        <time>2024-02-04T11:28:39Z</time>
      </trkpt>
      <trkpt lat="38.087238" lon="-0.915436">
        <ele>22.6</ele>
        <time>2024-02-04T11:28:54Z</time>
      </trkpt>
      <trkpt lat="38.087264" lon="-0.915197">
        <ele>24.6</ele>
        <time>2024-02-04T11:29:10Z</time>
      </trkpt>
      <trkpt lat="38.087283" lon="-0.914955">
        <ele>22.6</ele>
        <time>2024-02-04T11:29:27Z</time>
      </trkpt>
      <trkpt lat="38.087297" lon="-0.914720">
        <ele>23.6</ele>
        <time>2024-02-04T11:29:43Z</time>
      </trkpt>
      <trkpt lat="38.087316" lon="-0.914489">
        <ele>24.6</ele>
        <time>2024-02-04T11:29:59Z</time>
      </trkpt>
      <trkpt lat="38.087358" lon="-0.914262">
        <ele>23.6</ele>
        <time>2024-02-04T11:30:14Z</time>
      </trkpt>
      <trkpt lat="38.087385" lon="-0.914019">
        <ele>22.7</ele>
        <time>2024-02-04T11:30:30Z</time>
      </trkpt>
      <trkpt lat="38.087411" lon="-0.913788">
        <ele>21.4</ele>
        <time>2024-02-04T11:30:46Z</time>
      </trkpt>
      <trkpt lat="38.087431" lon="-0.913550">
        <ele>21.4</ele>
        <time>2024-02-04T11:31:03Z</time>
      </trkpt>
      <trkpt lat="38.087454" lon="-0.913314">
        <ele>21.4</ele>
        <time>2024-02-04T11:31:19Z</time>
      </trkpt>
      <trkpt lat="38.087470" lon="-0.913084">
        <ele>21.4</ele>
        <time>2024-02-04T11:31:36Z</time>
      </trkpt>
      <trkpt lat="38.087470" lon="-0.912841">
        <ele>21.4</ele>
        <time>2024-02-04T11:31:52Z</time>
      </trkpt>
      <trkpt lat="38.087470" lon="-0.912608">
        <ele>22.6</ele>
        <time>2024-02-04T11:32:07Z</time>
      </trkpt>
      <trkpt lat="38.087468" lon="-0.912377">
        <ele>21.6</ele>
        <time>2024-02-04T11:32:24Z</time>
      </trkpt>
      <trkpt lat="38.087444" lon="-0.912138">
        <ele>22.6</ele>
        <time>2024-02-04T11:32:39Z</time>
      </trkpt>
      <trkpt lat="38.087424" lon="-0.911908">
        <ele>22.6</ele>
        <time>2024-02-04T11:32:55Z</time>
      </trkpt>
      <trkpt lat="38.087399" lon="-0.911676">
        <ele>21.7</ele>
        <time>2024-02-04T11:33:11Z</time>
      </trkpt>
      <trkpt lat="38.087348" lon="-0.911453">
        <ele>22.6</ele>
        <time>2024-02-04T11:33:28Z</time>
      </trkpt>
      <trkpt lat="38.087289" lon="-0.911220">
        <ele>21.6</ele>
        <time>2024-02-04T11:33:45Z</time>
      </trkpt>
      <trkpt lat="38.087231" lon="-0.910997">
        <ele>23.6</ele>
        <time>2024-02-04T11:34:00Z</time>
      </trkpt>
      <trkpt lat="38.087176" lon="-0.910776">
        <ele>24.7</ele>
        <time>2024-02-04T11:34:19Z</time>
      </trkpt>
      <trkpt lat="38.087106" lon="-0.910539">
        <ele>25.6</ele>
        <time>2024-02-04T11:35:18Z</time>
      </trkpt>
      <trkpt lat="38.087033" lon="-0.910326">
        <ele>24.6</ele>
        <time>2024-02-04T11:35:32Z</time>
      </trkpt>
      <trkpt lat="38.086952" lon="-0.910122">
        <ele>24.6</ele>
        <time>2024-02-04T11:35:44Z</time>
      </trkpt>
      <trkpt lat="38.086857" lon="-0.909906">
        <ele>24.6</ele>
        <time>2024-02-04T11:35:57Z</time>
      </trkpt>
      <trkpt lat="38.086760" lon="-0.909701">
        <ele>24.7</ele>
        <time>2024-02-04T11:36:10Z</time>
      </trkpt>
      <trkpt lat="38.086693" lon="-0.909480">
        <ele>24.6</ele>
        <time>2024-02-04T11:36:23Z</time>
      </trkpt>
      <trkpt lat="38.086631" lon="-0.909257">
        <ele>24.9</ele>
        <time>2024-02-04T11:36:36Z</time>
      </trkpt>
      <trkpt lat="38.086542" lon="-0.909056">
        <ele>24.6</ele>
        <time>2024-02-04T11:37:09Z</time>
      </trkpt>
      <trkpt lat="38.086502" lon="-0.908828">
        <ele>21.6</ele>
        <time>2024-02-04T11:39:09Z</time>
      </trkpt>
      <trkpt lat="38.086466" lon="-0.908599">
        <ele>21.7</ele>
        <time>2024-02-04T11:39:27Z</time>
      </trkpt>
      <trkpt lat="38.086418" lon="-0.908354">
        <ele>21.3</ele>
        <time>2024-02-04T11:39:49Z</time>
      </trkpt>
      <trkpt lat="38.086401" lon="-0.908116">
        <ele>20.6</ele>
        <time>2024-02-04T11:40:05Z</time>
      </trkpt>
      <trkpt lat="38.086379" lon="-0.907879">
        <ele>20.6</ele>
        <time>2024-02-04T11:40:19Z</time>
      </trkpt>
      <trkpt lat="38.086370" lon="-0.907650">
        <ele>21.6</ele>
        <time>2024-02-04T11:40:32Z</time>
      </trkpt>
      <trkpt lat="38.086353" lon="-0.907419">
        <ele>20.6</ele>
        <time>2024-02-04T11:40:48Z</time>
      </trkpt>
      <trkpt lat="38.086338" lon="-0.907182">
        <ele>18.6</ele>
        <time>2024-02-04T11:41:02Z</time>
      </trkpt>
      <trkpt lat="38.086353" lon="-0.906949">
        <ele>19.6</ele>
        <time>2024-02-04T11:41:16Z</time>
      </trkpt>
      <trkpt lat="38.086367" lon="-0.906711">
        <ele>20.6</ele>
        <time>2024-02-04T11:41:30Z</time>
      </trkpt>
      <trkpt lat="38.086407" lon="-0.906485">
        <ele>20.6</ele>
        <time>2024-02-04T11:41:43Z</time>
      </trkpt>
      <trkpt lat="38.086443" lon="-0.906250">
        <ele>20.6</ele>
        <time>2024-02-04T11:41:57Z</time>
      </trkpt>
      <trkpt lat="38.086454" lon="-0.906022">
        <ele>20.6</ele>
        <time>2024-02-04T11:42:11Z</time>
      </trkpt>
      <trkpt lat="38.086458" lon="-0.905789">
        <ele>20.6</ele>
        <time>2024-02-04T11:42:25Z</time>
      </trkpt>
      <trkpt lat="38.086458" lon="-0.905546">
        <ele>19.6</ele>
        <time>2024-02-04T11:42:41Z</time>
      </trkpt>
      <trkpt lat="38.086454" lon="-0.905308">
        <ele>21.3</ele>
        <time>2024-02-04T11:42:56Z</time>
      </trkpt>
      <trkpt lat="38.086431" lon="-0.905076">
        <ele>22.7</ele>
        <time>2024-02-04T11:43:13Z</time>
      </trkpt>
      <trkpt lat="38.086404" lon="-0.904849">
        <ele>22.6</ele>
        <time>2024-02-04T11:43:30Z</time>
      </trkpt>
      <trkpt lat="38.086366" lon="-0.904623">
        <ele>21.9</ele>
        <time>2024-02-04T11:43:45Z</time>
      </trkpt>
      <trkpt lat="38.086343" lon="-0.904389">
        <ele>21.6</ele>
        <time>2024-02-04T11:44:02Z</time>
      </trkpt>
      <trkpt lat="38.086317" lon="-0.904153">
        <ele>21.6</ele>
        <time>2024-02-04T11:44:17Z</time>
      </trkpt>
      <trkpt lat="38.086285" lon="-0.903917">
        <ele>20.6</ele>
        <time>2024-02-04T11:44:33Z</time>
      </trkpt>
      <trkpt lat="38.086241" lon="-0.903682">
        <ele>22.3</ele>
        <time>2024-02-04T11:44:48Z</time>
      </trkpt>
      <trkpt lat="38.086195" lon="-0.903454">
        <ele>22.6</ele>
        <time>2024-02-04T11:45:03Z</time>
      </trkpt>
      <trkpt lat="38.086168" lon="-0.903221">
        <ele>21.6</ele>
        <time>2024-02-04T11:45:19Z</time>
      </trkpt>
      <trkpt lat="38.086127" lon="-0.902984">
        <ele>23.3</ele>
        <time>2024-02-04T11:45:34Z</time>
      </trkpt>
      <trkpt lat="38.086084" lon="-0.902746">
        <ele>23.6</ele>
        <time>2024-02-04T11:45:50Z</time>
      </trkpt>
      <trkpt lat="38.086045" lon="-0.902513">
        <ele>29.2</ele>
        <time>2024-02-04T11:46:05Z</time>
      </trkpt>
      <trkpt lat="38.085999" lon="-0.902279">
        <ele>31.2</ele>
        <time>2024-02-04T11:46:21Z</time>
      </trkpt>
      <trkpt lat="38.085943" lon="-0.902054">
        <ele>31.2</ele>
        <time>2024-02-04T11:46:35Z</time>
      </trkpt>
      <trkpt lat="38.085876" lon="-0.901824">
        <ele>31.2</ele>
        <time>2024-02-04T11:46:51Z</time>
      </trkpt>
      <trkpt lat="38.085797" lon="-0.901611">
        <ele>31.2</ele>
        <time>2024-02-04T11:47:07Z</time>
      </trkpt>
      <trkpt lat="38.085717" lon="-0.901395">
        <ele>22.5</ele>
        <time>2024-02-04T11:47:22Z</time>
      </trkpt>
      <trkpt lat="38.085627" lon="-0.901186">
        <ele>22.6</ele>
        <time>2024-02-04T11:47:38Z</time>
      </trkpt>
      <trkpt lat="38.085524" lon="-0.900984">
        <ele>20.6</ele>
        <time>2024-02-04T11:47:53Z</time>
      </trkpt>
      <trkpt lat="38.085431" lon="-0.900786">
        <ele>22.3</ele>
        <time>2024-02-04T11:48:11Z</time>
      </trkpt>
      <trkpt lat="38.085328" lon="-0.900598">
        <ele>22.6</ele>
        <time>2024-02-04T11:48:27Z</time>
      </trkpt>
      <trkpt lat="38.085212" lon="-0.900415">
        <ele>21.3</ele>
        <time>2024-02-04T11:48:51Z</time>
      </trkpt>
      <trkpt lat="38.085109" lon="-0.900216">
        <ele>21.3</ele>
        <time>2024-02-04T11:49:05Z</time>
      </trkpt>
      <trkpt lat="38.085004" lon="-0.900017">
        <ele>21.3</ele>
        <time>2024-02-04T11:49:18Z</time>
      </trkpt>
      <trkpt lat="38.084884" lon="-0.899843">
        <ele>21.3</ele>
        <time>2024-02-04T11:49:31Z</time>
      </trkpt>
      <trkpt lat="38.084783" lon="-0.899627">
        <ele>21.3</ele>
        <time>2024-02-04T11:49:46Z</time>
      </trkpt>
      <trkpt lat="38.084629" lon="-0.899422">
        <ele>21.3</ele>
        <time>2024-02-04T11:50:10Z</time>
      </trkpt>
      <trkpt lat="38.084829" lon="-0.899338">
        <ele>24.4</ele>
        <time>2024-02-04T11:51:16Z</time>
      </trkpt>
      <trkpt lat="38.085000" lon="-0.899283">
        <ele>24.6</ele>
        <time>2024-02-04T11:51:42Z</time>
      </trkpt>
      <trkpt lat="38.085260" lon="-0.899161">
        <ele>23.6</ele>
        <time>2024-02-04T11:52:00Z</time>
      </trkpt>
      <trkpt lat="38.085154" lon="-0.898926">
        <ele>19.9</ele>
        <time>2024-02-04T11:52:32Z</time>
      </trkpt>
      <trkpt lat="38.085032" lon="-0.898742">
        <ele>19.9</ele>
        <time>2024-02-04T11:52:50Z</time>
      </trkpt>
      <trkpt lat="38.084919" lon="-0.898548">
        <ele>19.9</ele>
        <time>2024-02-04T11:53:08Z</time>
      </trkpt>
      <trkpt lat="38.084818" lon="-0.898349">
        <ele>19.9</ele>
        <time>2024-02-04T11:53:24Z</time>
      </trkpt>
      <trkpt lat="38.084711" lon="-0.898154">
        <ele>19.9</ele>
        <time>2024-02-04T11:53:40Z</time>
      </trkpt>
      <trkpt lat="38.084596" lon="-0.897962">
        <ele>19.9</ele>
        <time>2024-02-04T11:53:58Z</time>
      </trkpt>
      <trkpt lat="38.084483" lon="-0.897772">
        <ele>19.9</ele>
        <time>2024-02-04T11:54:15Z</time>
      </trkpt>
      <trkpt lat="38.084375" lon="-0.897582">
        <ele>22.4</ele>
        <time>2024-02-04T11:54:31Z</time>
      </trkpt>
      <trkpt lat="38.084276" lon="-0.897389">
        <ele>21.6</ele>
        <time>2024-02-04T11:54:46Z</time>
      </trkpt>
      <trkpt lat="38.084180" lon="-0.897196">
        <ele>23.6</ele>
        <time>2024-02-04T11:55:01Z</time>
      </trkpt>
      <trkpt lat="38.084067" lon="-0.897007">
        <ele>23.6</ele>
        <time>2024-02-04T11:55:17Z</time>
      </trkpt>
      <trkpt lat="38.083947" lon="-0.896816">
        <ele>22.6</ele>
        <time>2024-02-04T11:55:33Z</time>
      </trkpt>
      <trkpt lat="38.083841" lon="-0.896625">
        <ele>22.6</ele>
        <time>2024-02-04T11:55:48Z</time>
      </trkpt>
      <trkpt lat="38.083735" lon="-0.896430">
        <ele>24.6</ele>
        <time>2024-02-04T11:56:03Z</time>
      </trkpt>
      <trkpt lat="38.083630" lon="-0.896229">
        <ele>23.7</ele>
        <time>2024-02-04T11:56:19Z</time>
      </trkpt>
      <trkpt lat="38.083515" lon="-0.896037">
        <ele>24.6</ele>
        <time>2024-02-04T11:56:34Z</time>
      </trkpt>
      <trkpt lat="38.083404" lon="-0.895845">
        <ele>24.6</ele>
        <time>2024-02-04T11:56:49Z</time>
      </trkpt>
      <trkpt lat="38.083296" lon="-0.895648">
        <ele>25.5</ele>
        <time>2024-02-04T11:57:04Z</time>
      </trkpt>
      <trkpt lat="38.083179" lon="-0.895456">
        <ele>24.6</ele>
        <time>2024-02-04T11:57:20Z</time>
      </trkpt>
      <trkpt lat="38.083073" lon="-0.895259">
        <ele>24.6</ele>
        <time>2024-02-04T11:57:34Z</time>
      </trkpt>
      <trkpt lat="38.082964" lon="-0.895058">
        <ele>24.3</ele>
        <time>2024-02-04T11:57:49Z</time>
      </trkpt>
      <trkpt lat="38.082857" lon="-0.894862">
        <ele>24.5</ele>
        <time>2024-02-04T11:58:04Z</time>
      </trkpt>
      <trkpt lat="38.082754" lon="-0.894671">
        <ele>23.6</ele>
        <time>2024-02-04T11:58:18Z</time>
      </trkpt>
      <trkpt lat="38.082655" lon="-0.894469">
        <ele>25.5</ele>
        <time>2024-02-04T11:58:33Z</time>
      </trkpt>
      <trkpt lat="38.082529" lon="-0.894284">
        <ele>25.6</ele>
        <time>2024-02-04T11:58:48Z</time>
      </trkpt>
      <trkpt lat="38.082414" lon="-0.894091">
        <ele>25.6</ele>
        <time>2024-02-04T11:59:03Z</time>
      </trkpt>
      <trkpt lat="38.082309" lon="-0.893898">
        <ele>25.6</ele>
        <time>2024-02-04T11:59:18Z</time>
      </trkpt>
      <trkpt lat="38.082196" lon="-0.893702">
        <ele>25.6</ele>
        <time>2024-02-04T11:59:33Z</time>
      </trkpt>
      <trkpt lat="38.082088" lon="-0.893513">
        <ele>24.8</ele>
        <time>2024-02-04T11:59:48Z</time>
      </trkpt>
      <trkpt lat="38.081964" lon="-0.893343">
        <ele>24.5</ele>
        <time>2024-02-04T12:00:03Z</time>
      </trkpt>
      <trkpt lat="38.081838" lon="-0.893162">
        <ele>24.6</ele>
        <time>2024-02-04T12:00:18Z</time>
      </trkpt>
      <trkpt lat="38.081711" lon="-0.892994">
        <ele>23.6</ele>
        <time>2024-02-04T12:00:33Z</time>
      </trkpt>
      <trkpt lat="38.081580" lon="-0.892835">
        <ele>22.6</ele>
        <time>2024-02-04T12:00:48Z</time>
      </trkpt>
      <trkpt lat="38.081438" lon="-0.892680">
        <ele>21.6</ele>
        <time>2024-02-04T12:01:03Z</time>
      </trkpt>
      <trkpt lat="38.081296" lon="-0.892529">
        <ele>22.7</ele>
        <time>2024-02-04T12:01:19Z</time>
      </trkpt>
      <trkpt lat="38.081154" lon="-0.892377">
        <ele>22.3</ele>
        <time>2024-02-04T12:01:34Z</time>
      </trkpt>
      <trkpt lat="38.081014" lon="-0.892224">
        <ele>23.6</ele>
        <time>2024-02-04T12:01:49Z</time>
      </trkpt>
      <trkpt lat="38.080870" lon="-0.892070">
        <ele>24.6</ele>
        <time>2024-02-04T12:02:04Z</time>
      </trkpt>
      <trkpt lat="38.080725" lon="-0.891928">
        <ele>23.6</ele>
        <time>2024-02-04T12:02:19Z</time>
      </trkpt>
      <trkpt lat="38.080582" lon="-0.891770">
        <ele>23.6</ele>
        <time>2024-02-04T12:02:34Z</time>
      </trkpt>
      <trkpt lat="38.080448" lon="-0.891610">
        <ele>22.6</ele>
        <time>2024-02-04T12:02:49Z</time>
      </trkpt>
      <trkpt lat="38.080311" lon="-0.891453">
        <ele>21.9</ele>
        <time>2024-02-04T12:03:03Z</time>
      </trkpt>
      <trkpt lat="38.080165" lon="-0.891312">
        <ele>23.5</ele>
        <time>2024-02-04T12:03:18Z</time>
      </trkpt>
      <trkpt lat="38.080027" lon="-0.891153">
        <ele>23.6</ele>
        <time>2024-02-04T12:03:32Z</time>
      </trkpt>
      <trkpt lat="38.079884" lon="-0.890999">
        <ele>22.7</ele>
        <time>2024-02-04T12:03:47Z</time>
      </trkpt>
      <trkpt lat="38.079741" lon="-0.890839">
        <ele>21.6</ele>
        <time>2024-02-04T12:04:03Z</time>
      </trkpt>
      <trkpt lat="38.079602" lon="-0.890690">
        <ele>21.6</ele>
        <time>2024-02-04T12:04:17Z</time>
      </trkpt>
      <trkpt lat="38.079469" lon="-0.890517">
        <ele>21.6</ele>
        <time>2024-02-04T12:04:33Z</time>
      </trkpt>
      <trkpt lat="38.079326" lon="-0.890379">
        <ele>22.6</ele>
        <time>2024-02-04T12:04:47Z</time>
      </trkpt>
      <trkpt lat="38.079180" lon="-0.890235">
        <ele>21.4</ele>
        <time>2024-02-04T12:05:02Z</time>
      </trkpt>
      <trkpt lat="38.079034" lon="-0.890082">
        <ele>21.6</ele>
        <time>2024-02-04T12:05:18Z</time>
      </trkpt>
      <trkpt lat="38.078894" lon="-0.889925">
        <ele>21.6</ele>
        <time>2024-02-04T12:05:33Z</time>
      </trkpt>
      <trkpt lat="38.078753" lon="-0.889766">
        <ele>22.6</ele>
        <time>2024-02-04T12:05:48Z</time>
      </trkpt>
      <trkpt lat="38.078606" lon="-0.889612">
        <ele>23.6</ele>
        <time>2024-02-04T12:06:03Z</time>
      </trkpt>
      <trkpt lat="38.078465" lon="-0.889468">
        <ele>22.9</ele>
        <time>2024-02-04T12:06:17Z</time>
      </trkpt>
      <trkpt lat="38.078323" lon="-0.889309">
        <ele>23.6</ele>
        <time>2024-02-04T12:06:32Z</time>
      </trkpt>
      <trkpt lat="38.078178" lon="-0.889154">
        <ele>23.6</ele>
        <time>2024-02-04T12:06:47Z</time>
      </trkpt>
      <trkpt lat="38.078044" lon="-0.889001">
        <ele>22.5</ele>
        <time>2024-02-04T12:07:02Z</time>
      </trkpt>
      <trkpt lat="38.077902" lon="-0.888846">
        <ele>23.6</ele>
        <time>2024-02-04T12:07:16Z</time>
      </trkpt>
      <trkpt lat="38.077774" lon="-0.888682">
        <ele>23.3</ele>
        <time>2024-02-04T12:07:31Z</time>
      </trkpt>
      <trkpt lat="38.077634" lon="-0.888526">
        <ele>22.6</ele>
        <time>2024-02-04T12:07:46Z</time>
      </trkpt>
      <trkpt lat="38.077502" lon="-0.888360">
        <ele>20.7</ele>
        <time>2024-02-04T12:08:01Z</time>
      </trkpt>
      <trkpt lat="38.077385" lon="-0.888179">
        <ele>20.6</ele>
        <time>2024-02-04T12:08:16Z</time>
      </trkpt>
      <trkpt lat="38.077263" lon="-0.887995">
        <ele>21.5</ele>
        <time>2024-02-04T12:08:31Z</time>
      </trkpt>
      <trkpt lat="38.077148" lon="-0.887806">
        <ele>22.6</ele>
        <time>2024-02-04T12:08:46Z</time>
      </trkpt>
      <trkpt lat="38.077052" lon="-0.887603">
        <ele>21.6</ele>
        <time>2024-02-04T12:09:02Z</time>
      </trkpt>
      <trkpt lat="38.076958" lon="-0.887396">
        <ele>18.9</ele>
        <time>2024-02-04T12:09:21Z</time>
      </trkpt>
      <trkpt lat="38.076878" lon="-0.887191">
        <ele>18.6</ele>
        <time>2024-02-04T12:09:33Z</time>
      </trkpt>
      <trkpt lat="38.076793" lon="-0.886979">
        <ele>18.6</ele>
        <time>2024-02-04T12:09:48Z</time>
      </trkpt>
      <trkpt lat="38.076704" lon="-0.886768">
        <ele>18.6</ele>
        <time>2024-02-04T12:10:03Z</time>
      </trkpt>
      <trkpt lat="38.076624" lon="-0.886563">
        <ele>18.5</ele>
        <time>2024-02-04T12:10:16Z</time>
      </trkpt>
      <trkpt lat="38.076550" lon="-0.886350">
        <ele>20.6</ele>
        <time>2024-02-04T12:10:31Z</time>
      </trkpt>
      <trkpt lat="38.076471" lon="-0.886130">
        <ele>21.6</ele>
        <time>2024-02-04T12:10:46Z</time>
      </trkpt>
      <trkpt lat="38.076381" lon="-0.885917">
        <ele>21.7</ele>
        <time>2024-02-04T12:11:01Z</time>
      </trkpt>
      <trkpt lat="38.076289" lon="-0.885706">
        <ele>22.6</ele>
        <time>2024-02-04T12:11:16Z</time>
      </trkpt>
      <trkpt lat="38.076212" lon="-0.885496">
        <ele>22.6</ele>
        <time>2024-02-04T12:11:31Z</time>
      </trkpt>
      <trkpt lat="38.076134" lon="-0.885280">
        <ele>21.6</ele>
        <time>2024-02-04T12:11:46Z</time>
      </trkpt>
      <trkpt lat="38.076064" lon="-0.885056">
        <ele>20.9</ele>
        <time>2024-02-04T12:12:01Z</time>
      </trkpt>
      <trkpt lat="38.076008" lon="-0.884836">
        <ele>20.6</ele>
        <time>2024-02-04T12:12:16Z</time>
      </trkpt>
      <trkpt lat="38.075958" lon="-0.884602">
        <ele>17.9</ele>
        <time>2024-02-04T12:12:35Z</time>
      </trkpt>
      <trkpt lat="38.075906" lon="-0.884382">
        <ele>16.6</ele>
        <time>2024-02-04T12:12:49Z</time>
      </trkpt>
      <trkpt lat="38.075851" lon="-0.884150">
        <ele>16.6</ele>
        <time>2024-02-04T12:13:05Z</time>
      </trkpt>
      <trkpt lat="38.075804" lon="-0.883926">
        <ele>17.3</ele>
        <time>2024-02-04T12:13:19Z</time>
      </trkpt>
      <trkpt lat="38.075771" lon="-0.883696">
        <ele>18.4</ele>
        <time>2024-02-04T12:13:34Z</time>
      </trkpt>
      <trkpt lat="38.075737" lon="-0.883467">
        <ele>16.6</ele>
        <time>2024-02-04T12:13:49Z</time>
      </trkpt>
      <trkpt lat="38.075712" lon="-0.883226">
        <ele>16.8</ele>
        <time>2024-02-04T12:14:04Z</time>
      </trkpt>
      <trkpt lat="38.075689" lon="-0.882990">
        <ele>16.6</ele>
        <time>2024-02-04T12:14:19Z</time>
      </trkpt>
      <trkpt lat="38.075659" lon="-0.882750">
        <ele>16.6</ele>
        <time>2024-02-04T12:14:35Z</time>
      </trkpt>
      <trkpt lat="38.075641" lon="-0.882522">
        <ele>15.5</ele>
        <time>2024-02-04T12:14:50Z</time>
      </trkpt>
      <trkpt lat="38.075618" lon="-0.882281">
        <ele>15.6</ele>
        <time>2024-02-04T12:15:05Z</time>
      </trkpt>
      <trkpt lat="38.075587" lon="-0.882039">
        <ele>15.6</ele>
        <time>2024-02-04T12:15:21Z</time>
      </trkpt>
      <trkpt lat="38.075558" lon="-0.881804">
        <ele>15.9</ele>
        <time>2024-02-04T12:15:36Z</time>
      </trkpt>
      <trkpt lat="38.075538" lon="-0.881569">
        <ele>15.6</ele>
        <time>2024-02-04T12:15:51Z</time>
      </trkpt>
      <trkpt lat="38.075521" lon="-0.881334">
        <ele>15.7</ele>
        <time>2024-02-04T12:16:07Z</time>
      </trkpt>
      <trkpt lat="38.075484" lon="-0.881110">
        <ele>14.9</ele>
        <time>2024-02-04T12:16:22Z</time>
      </trkpt>
      <trkpt lat="38.075456" lon="-0.880878">
        <ele>15.6</ele>
        <time>2024-02-04T12:16:38Z</time>
      </trkpt>
      <trkpt lat="38.075417" lon="-0.880642">
        <ele>16.6</ele>
        <time>2024-02-04T12:16:54Z</time>
      </trkpt>
      <trkpt lat="38.075380" lon="-0.880415">
        <ele>17.3</ele>
        <time>2024-02-04T12:17:09Z</time>
      </trkpt>
      <trkpt lat="38.075347" lon="-0.880183">
        <ele>17.5</ele>
        <time>2024-02-04T12:17:25Z</time>
      </trkpt>
      <trkpt lat="38.075303" lon="-0.879955">
        <ele>14.6</ele>
        <time>2024-02-04T12:17:42Z</time>
      </trkpt>
      <trkpt lat="38.075256" lon="-0.879735">
        <ele>16.5</ele>
        <time>2024-02-04T12:17:56Z</time>
      </trkpt>
      <trkpt lat="38.075212" lon="-0.879503">
        <ele>15.6</ele>
        <time>2024-02-04T12:18:11Z</time>
      </trkpt>
      <trkpt lat="38.075174" lon="-0.879280">
        <ele>15.9</ele>
        <time>2024-02-04T12:18:27Z</time>
      </trkpt>
      <trkpt lat="38.075136" lon="-0.879054">
        <ele>15.6</ele>
        <time>2024-02-04T12:18:41Z</time>
      </trkpt>
      <trkpt lat="38.075074" lon="-0.878822">
        <ele>15.6</ele>
        <time>2024-02-04T12:18:57Z</time>
      </trkpt>
      <trkpt lat="38.075021" lon="-0.878594">
        <ele>14.6</ele>
        <time>2024-02-04T12:19:12Z</time>
      </trkpt>
      <trkpt lat="38.074965" lon="-0.878359">
        <ele>14.6</ele>
        <time>2024-02-04T12:19:28Z</time>
      </trkpt>
      <trkpt lat="38.074914" lon="-0.878131">
        <ele>14.8</ele>
        <time>2024-02-04T12:19:43Z</time>
      </trkpt>
      <trkpt lat="38.074848" lon="-0.877905">
        <ele>15.6</ele>
        <time>2024-02-04T12:19:59Z</time>
      </trkpt>
      <trkpt lat="38.074789" lon="-0.877674">
        <ele>15.4</ele>
        <time>2024-02-04T12:20:14Z</time>
      </trkpt>
      <trkpt lat="38.074725" lon="-0.877449">
        <ele>13.6</ele>
        <time>2024-02-04T12:20:30Z</time>
      </trkpt>
      <trkpt lat="38.074646" lon="-0.877241">
        <ele>13.6</ele>
        <time>2024-02-04T12:20:44Z</time>
      </trkpt>
      <trkpt lat="38.074586" lon="-0.877018">
        <ele>14.6</ele>
        <time>2024-02-04T12:21:00Z</time>
      </trkpt>
      <trkpt lat="38.074515" lon="-0.876804">
        <ele>14.6</ele>
        <time>2024-02-04T12:21:15Z</time>
      </trkpt>
      <trkpt lat="38.074447" lon="-0.876586">
        <ele>15.6</ele>
        <time>2024-02-04T12:21:30Z</time>
      </trkpt>
      <trkpt lat="38.074362" lon="-0.876375">
        <ele>15.6</ele>
        <time>2024-02-04T12:21:45Z</time>
      </trkpt>
      <trkpt lat="38.074279" lon="-0.876172">
        <ele>15.3</ele>
        <time>2024-02-04T12:22:00Z</time>
      </trkpt>
      <trkpt lat="38.074202" lon="-0.875964">
        <ele>14.6</ele>
        <time>2024-02-04T12:22:15Z</time>
      </trkpt>
      <trkpt lat="38.074135" lon="-0.875748">
        <ele>15.5</ele>
        <time>2024-02-04T12:22:34Z</time>
      </trkpt>
      <trkpt lat="38.074069" lon="-0.875534">
        <ele>13.6</ele>
        <time>2024-02-04T12:27:24Z</time>
      </trkpt>
      <trkpt lat="38.073994" lon="-0.875308">
        <ele>14.7</ele>
        <time>2024-02-04T12:27:45Z</time>
      </trkpt>
      <trkpt lat="38.073917" lon="-0.875099">
        <ele>13.6</ele>
        <time>2024-02-04T12:28:02Z</time>
      </trkpt>
      <trkpt lat="38.073831" lon="-0.874894">
        <ele>14.6</ele>
        <time>2024-02-04T12:28:17Z</time>
      </trkpt>
      <trkpt lat="38.073755" lon="-0.874680">
        <ele>14.6</ele>
        <time>2024-02-04T12:28:31Z</time>
      </trkpt>
      <trkpt lat="38.073684" lon="-0.874466">
        <ele>15.6</ele>
        <time>2024-02-04T12:28:46Z</time>
      </trkpt>
      <trkpt lat="38.073616" lon="-0.874253">
        <ele>14.6</ele>
        <time>2024-02-04T12:29:02Z</time>
      </trkpt>
      <trkpt lat="38.073524" lon="-0.874038">
        <ele>13.6</ele>
        <time>2024-02-04T12:29:17Z</time>
      </trkpt>
      <trkpt lat="38.073452" lon="-0.873824">
        <ele>15.6</ele>
        <time>2024-02-04T12:29:32Z</time>
      </trkpt>
      <trkpt lat="38.073377" lon="-0.873605">
        <ele>15.6</ele>
        <time>2024-02-04T12:29:47Z</time>
      </trkpt>
      <trkpt lat="38.073310" lon="-0.873385">
        <ele>14.6</ele>
        <time>2024-02-04T12:30:02Z</time>
      </trkpt>
      <trkpt lat="38.073231" lon="-0.873162">
        <ele>15.6</ele>
        <time>2024-02-04T12:30:18Z</time>
      </trkpt>
      <trkpt lat="38.073163" lon="-0.872938">
        <ele>12.6</ele>
        <time>2024-02-04T12:30:33Z</time>
      </trkpt>
      <trkpt lat="38.073094" lon="-0.872715">
        <ele>13.5</ele>
        <time>2024-02-04T12:30:48Z</time>
      </trkpt>
      <trkpt lat="38.073038" lon="-0.872485">
        <ele>12.6</ele>
        <time>2024-02-04T12:31:02Z</time>
      </trkpt>
      <trkpt lat="38.072997" lon="-0.872255">
        <ele>12.3</ele>
        <time>2024-02-04T12:31:17Z</time>
      </trkpt>
      <trkpt lat="38.072958" lon="-0.872024">
        <ele>11.6</ele>
        <time>2024-02-04T12:31:32Z</time>
      </trkpt>
      <trkpt lat="38.072885" lon="-0.871804">
        <ele>12.6</ele>
        <time>2024-02-04T12:31:46Z</time>
      </trkpt>
      <trkpt lat="38.072839" lon="-0.871578">
        <ele>13.6</ele>
        <time>2024-02-04T12:32:01Z</time>
      </trkpt>
      <trkpt lat="38.072808" lon="-0.871350">
        <ele>12.7</ele>
        <time>2024-02-04T12:32:15Z</time>
      </trkpt>
      <trkpt lat="38.072767" lon="-0.871123">
        <ele>13.6</ele>
        <time>2024-02-04T12:32:30Z</time>
      </trkpt>
      <trkpt lat="38.072715" lon="-0.870888">
        <ele>14.6</ele>
        <time>2024-02-04T12:32:45Z</time>
      </trkpt>
      <trkpt lat="38.072663" lon="-0.870665">
        <ele>14.6</ele>
        <time>2024-02-04T12:33:00Z</time>
      </trkpt>
      <trkpt lat="38.072602" lon="-0.870434">
        <ele>14.6</ele>
        <time>2024-02-04T12:33:16Z</time>
      </trkpt>
      <trkpt lat="38.072552" lon="-0.870204">
        <ele>14.6</ele>
        <time>2024-02-04T12:33:31Z</time>
      </trkpt>
      <trkpt lat="38.072527" lon="-0.869970">
        <ele>13.8</ele>
        <time>2024-02-04T12:33:47Z</time>
      </trkpt>
      <trkpt lat="38.072401" lon="-0.869517">
        <ele>15.7</ele>
        <time>2024-02-04T12:35:19Z</time>
      </trkpt>
      <trkpt lat="38.072350" lon="-0.869298">
        <ele>15.6</ele>
        <time>2024-02-04T12:35:34Z</time>
      </trkpt>
      <trkpt lat="38.072306" lon="-0.869065">
        <ele>14.9</ele>
        <time>2024-02-04T12:35:47Z</time>
      </trkpt>
      <trkpt lat="38.072261" lon="-0.868838">
        <ele>14.6</ele>
        <time>2024-02-04T12:36:01Z</time>
      </trkpt>
      <trkpt lat="38.072210" lon="-0.868616">
        <ele>14.6</ele>
        <time>2024-02-04T12:36:13Z</time>
      </trkpt>
      <trkpt lat="38.072175" lon="-0.868392">
        <ele>14.6</ele>
        <time>2024-02-04T12:36:26Z</time>
      </trkpt>
      <trkpt lat="38.072112" lon="-0.868159">
        <ele>12.6</ele>
        <time>2024-02-04T12:36:55Z</time>
      </trkpt>
      <trkpt lat="38.072085" lon="-0.867927">
        <ele>10.9</ele>
        <time>2024-02-04T12:37:09Z</time>
      </trkpt>
      <trkpt lat="38.072019" lon="-0.867704">
        <ele>12.5</ele>
        <time>2024-02-04T12:37:22Z</time>
      </trkpt>
      <trkpt lat="38.071968" lon="-0.867469">
        <ele>13.3</ele>
        <time>2024-02-04T12:37:35Z</time>
      </trkpt>
      <trkpt lat="38.071921" lon="-0.867230">
        <ele>11.6</ele>
        <time>2024-02-04T12:37:49Z</time>
      </trkpt>
      <trkpt lat="38.071879" lon="-0.866993">
        <ele>11.7</ele>
        <time>2024-02-04T12:38:02Z</time>
      </trkpt>
      <trkpt lat="38.071818" lon="-0.866761">
        <ele>13.6</ele>
        <time>2024-02-04T12:38:16Z</time>
      </trkpt>
      <trkpt lat="38.071778" lon="-0.866530">
        <ele>13.7</ele>
        <time>2024-02-04T12:38:29Z</time>
      </trkpt>
      <trkpt lat="38.071714" lon="-0.866307">
        <ele>14.6</ele>
        <time>2024-02-04T12:38:43Z</time>
      </trkpt>
      <trkpt lat="38.071665" lon="-0.866087">
        <ele>14.9</ele>
        <time>2024-02-04T12:38:56Z</time>
      </trkpt>
      <trkpt lat="38.071626" lon="-0.865849">
        <ele>14.6</ele>
        <time>2024-02-04T12:39:09Z</time>
      </trkpt>
      <trkpt lat="38.071584" lon="-0.865622">
        <ele>14.6</ele>
        <time>2024-02-04T12:39:23Z</time>
      </trkpt>
      <trkpt lat="38.071529" lon="-0.865401">
        <ele>13.6</ele>
        <time>2024-02-04T12:39:35Z</time>
      </trkpt>
      <trkpt lat="38.071477" lon="-0.865176">
        <ele>13.9</ele>
        <time>2024-02-04T12:39:48Z</time>
      </trkpt>
      <trkpt lat="38.071447" lon="-0.864950">
        <ele>13.7</ele>
        <time>2024-02-04T12:40:01Z</time>
      </trkpt>
      <trkpt lat="38.071401" lon="-0.864724">
        <ele>14.6</ele>
        <time>2024-02-04T12:40:14Z</time>
      </trkpt>
      <trkpt lat="38.071354" lon="-0.864502">
        <ele>14.6</ele>
        <time>2024-02-04T12:40:28Z</time>
      </trkpt>
      <trkpt lat="38.071318" lon="-0.864266">
        <ele>14.6</ele>
        <time>2024-02-04T12:40:41Z</time>
      </trkpt>
      <trkpt lat="38.071306" lon="-0.864026">
        <ele>13.6</ele>
        <time>2024-02-04T12:40:55Z</time>
      </trkpt>
      <trkpt lat="38.071287" lon="-0.863792">
        <ele>12.6</ele>
        <time>2024-02-04T12:41:08Z</time>
      </trkpt>
      <trkpt lat="38.071277" lon="-0.863556">
        <ele>13.3</ele>
        <time>2024-02-04T12:41:22Z</time>
      </trkpt>
      <trkpt lat="38.071288" lon="-0.863315">
        <ele>13.6</ele>
        <time>2024-02-04T12:41:36Z</time>
      </trkpt>
      <trkpt lat="38.071288" lon="-0.863074">
        <ele>15.3</ele>
        <time>2024-02-04T12:41:50Z</time>
      </trkpt>
      <trkpt lat="38.071305" lon="-0.862838">
        <ele>15.9</ele>
        <time>2024-02-04T12:42:03Z</time>
      </trkpt>
      <trkpt lat="38.071328" lon="-0.862603">
        <ele>14.6</ele>
        <time>2024-02-04T12:42:16Z</time>
      </trkpt>
      <trkpt lat="38.071360" lon="-0.862374">
        <ele>15.6</ele>
        <time>2024-02-04T12:42:29Z</time>
      </trkpt>
      <trkpt lat="38.071400" lon="-0.862147">
        <ele>15.5</ele>
        <time>2024-02-04T12:42:42Z</time>
      </trkpt>
      <trkpt lat="38.071460" lon="-0.861930">
        <ele>16.6</ele>
        <time>2024-02-04T12:42:55Z</time>
      </trkpt>
      <trkpt lat="38.071524" lon="-0.861701">
        <ele>15.6</ele>
        <time>2024-02-04T12:43:09Z</time>
      </trkpt>
      <trkpt lat="38.071585" lon="-0.861481">
        <ele>13.6</ele>
        <time>2024-02-04T12:43:24Z</time>
      </trkpt>
      <trkpt lat="38.071644" lon="-0.861260">
        <ele>12.6</ele>
        <time>2024-02-04T12:43:38Z</time>
      </trkpt>
      <trkpt lat="38.071727" lon="-0.861053">
        <ele>12.6</ele>
        <time>2024-02-04T12:43:53Z</time>
      </trkpt>
      <trkpt lat="38.071804" lon="-0.860842">
        <ele>13.6</ele>
        <time>2024-02-04T12:44:08Z</time>
      </trkpt>
      <trkpt lat="38.071899" lon="-0.860641">
        <ele>12.6</ele>
        <time>2024-02-04T12:44:24Z</time>
      </trkpt>
      <trkpt lat="38.071986" lon="-0.860437">
        <ele>12.6</ele>
        <time>2024-02-04T12:44:40Z</time>
      </trkpt>
      <trkpt lat="38.072075" lon="-0.860234">
        <ele>12.7</ele>
        <time>2024-02-04T12:44:56Z</time>
      </trkpt>
      <trkpt lat="38.072155" lon="-0.860022">
        <ele>14.6</ele>
        <time>2024-02-04T12:45:11Z</time>
      </trkpt>
      <trkpt lat="38.072244" lon="-0.859822">
        <ele>15.6</ele>
        <time>2024-02-04T12:45:25Z</time>
      </trkpt>
      <trkpt lat="38.072336" lon="-0.859620">
        <ele>14.6</ele>
        <time>2024-02-04T12:45:39Z</time>
      </trkpt>
      <trkpt lat="38.072449" lon="-0.859427">
        <ele>14.6</ele>
        <time>2024-02-04T12:45:54Z</time>
      </trkpt>
      <trkpt lat="38.072557" lon="-0.859231">
        <ele>13.6</ele>
        <time>2024-02-04T12:46:09Z</time>
      </trkpt>
      <trkpt lat="38.072669" lon="-0.859037">
        <ele>13.6</ele>
        <time>2024-02-04T12:46:24Z</time>
      </trkpt>
      <trkpt lat="38.072792" lon="-0.858858">
        <ele>12.6</ele>
        <time>2024-02-04T12:46:39Z</time>
      </trkpt>
      <trkpt lat="38.072919" lon="-0.858682">
        <ele>14.6</ele>
        <time>2024-02-04T12:46:55Z</time>
      </trkpt>
      <trkpt lat="38.073053" lon="-0.858512">
        <ele>15.3</ele>
        <time>2024-02-04T12:47:11Z</time>
      </trkpt>
      <trkpt lat="38.073186" lon="-0.858342">
        <ele>13.6</ele>
        <time>2024-02-04T12:47:27Z</time>
      </trkpt>
      <trkpt lat="38.073321" lon="-0.858176">
        <ele>13.6</ele>
        <time>2024-02-04T12:47:43Z</time>
      </trkpt>
      <trkpt lat="38.073456" lon="-0.858024">
        <ele>15.6</ele>
        <time>2024-02-04T12:47:58Z</time>
      </trkpt>
      <trkpt lat="38.073589" lon="-0.857861">
        <ele>15.6</ele>
        <time>2024-02-04T12:48:13Z</time>
      </trkpt>
      <trkpt lat="38.073731" lon="-0.857701">
        <ele>14.6</ele>
        <time>2024-02-04T12:48:29Z</time>
      </trkpt>
      <trkpt lat="38.073859" lon="-0.857536">
        <ele>13.6</ele>
        <time>2024-02-04T12:48:45Z</time>
      </trkpt>
      <trkpt lat="38.074005" lon="-0.857393">
        <ele>13.6</ele>
        <time>2024-02-04T12:49:03Z</time>
      </trkpt>
      <trkpt lat="38.074136" lon="-0.857224">
        <ele>12.6</ele>
        <time>2024-02-04T12:49:18Z</time>
      </trkpt>
      <trkpt lat="38.074271" lon="-0.857056">
        <ele>13.6</ele>
        <time>2024-02-04T12:49:33Z</time>
      </trkpt>
      <trkpt lat="38.074421" lon="-0.856911">
        <ele>12.6</ele>
        <time>2024-02-04T12:49:48Z</time>
      </trkpt>
      <trkpt lat="38.074551" lon="-0.856735">
        <ele>11.6</ele>
        <time>2024-02-04T12:50:03Z</time>
      </trkpt>
      <trkpt lat="38.074686" lon="-0.856567">
        <ele>13.6</ele>
        <time>2024-02-04T12:50:18Z</time>
      </trkpt>
      <trkpt lat="38.074818" lon="-0.856393">
        <ele>13.6</ele>
        <time>2024-02-04T12:50:33Z</time>
      </trkpt>
      <trkpt lat="38.074949" lon="-0.856237">
        <ele>13.8</ele>
        <time>2024-02-04T12:50:48Z</time>
      </trkpt>
      <trkpt lat="38.075086" lon="-0.856074">
        <ele>13.4</ele>
        <time>2024-02-04T12:51:04Z</time>
      </trkpt>
      <trkpt lat="38.075227" lon="-0.855922">
        <ele>14.5</ele>
        <time>2024-02-04T12:51:19Z</time>
      </trkpt>
      <trkpt lat="38.075357" lon="-0.855761">
        <ele>14.6</ele>
        <time>2024-02-04T12:51:34Z</time>
      </trkpt>
      <trkpt lat="38.075494" lon="-0.855598">
        <ele>14.6</ele>
        <time>2024-02-04T12:51:50Z</time>
      </trkpt>
      <trkpt lat="38.075630" lon="-0.855435">
        <ele>13.7</ele>
        <time>2024-02-04T12:52:05Z</time>
      </trkpt>
      <trkpt lat="38.075762" lon="-0.855267">
        <ele>13.9</ele>
        <time>2024-02-04T12:52:21Z</time>
      </trkpt>
      <trkpt lat="38.075892" lon="-0.855104">
        <ele>12.6</ele>
        <time>2024-02-04T12:52:37Z</time>
      </trkpt>
      <trkpt lat="38.076032" lon="-0.854945">
        <ele>14.6</ele>
        <time>2024-02-04T12:52:53Z</time>
      </trkpt>
      <trkpt lat="38.076165" lon="-0.854785">
        <ele>14.6</ele>
        <time>2024-02-04T12:53:09Z</time>
      </trkpt>
      <trkpt lat="38.076295" lon="-0.854620">
        <ele>14.6</ele>
        <time>2024-02-04T12:53:24Z</time>
      </trkpt>
      <trkpt lat="38.076427" lon="-0.854456">
        <ele>14.6</ele>
        <time>2024-02-04T12:53:39Z</time>
      </trkpt>
      <trkpt lat="38.076558" lon="-0.854298">
        <ele>15.6</ele>
        <time>2024-02-04T12:53:54Z</time>
      </trkpt>
      <trkpt lat="38.076701" lon="-0.854148">
        <ele>13.6</ele>
        <time>2024-02-04T12:54:09Z</time>
      </trkpt>
      <trkpt lat="38.076828" lon="-0.853987">
        <ele>14.6</ele>
        <time>2024-02-04T12:54:24Z</time>
      </trkpt>
      <trkpt lat="38.076956" lon="-0.853825">
        <ele>15.6</ele>
        <time>2024-02-04T12:54:39Z</time>
      </trkpt>
      <trkpt lat="38.077092" lon="-0.853656">
        <ele>13.6</ele>
        <time>2024-02-04T12:54:55Z</time>
      </trkpt>
      <trkpt lat="38.077227" lon="-0.853500">
        <ele>12.6</ele>
        <time>2024-02-04T12:55:10Z</time>
      </trkpt>
      <trkpt lat="38.077368" lon="-0.853337">
        <ele>14.6</ele>
        <time>2024-02-04T12:55:26Z</time>
      </trkpt>
      <trkpt lat="38.077496" lon="-0.853172">
        <ele>14.6</ele>
        <time>2024-02-04T12:55:42Z</time>
      </trkpt>
      <trkpt lat="38.077629" lon="-0.853008">
        <ele>12.6</ele>
        <time>2024-02-04T12:55:57Z</time>
      </trkpt>
      <trkpt lat="38.077763" lon="-0.852852">
        <ele>12.6</ele>
        <time>2024-02-04T12:56:12Z</time>
      </trkpt>
      <trkpt lat="38.077897" lon="-0.852686">
        <ele>11.6</ele>
        <time>2024-02-04T12:56:27Z</time>
      </trkpt>
      <trkpt lat="38.078039" lon="-0.852536">
        <ele>11.6</ele>
        <time>2024-02-04T12:56:42Z</time>
      </trkpt>
      <trkpt lat="38.078166" lon="-0.852354">
        <ele>13.7</ele>
        <time>2024-02-04T12:57:05Z</time>
      </trkpt>
      <trkpt lat="38.078305" lon="-0.852205">
        <ele>13.6</ele>
        <time>2024-02-04T12:57:20Z</time>
      </trkpt>
      <trkpt lat="38.078435" lon="-0.852039">
        <ele>14.3</ele>
        <time>2024-02-04T12:57:35Z</time>
      </trkpt>
      <trkpt lat="38.078570" lon="-0.851874">
        <ele>13.6</ele>
        <time>2024-02-04T12:57:51Z</time>
      </trkpt>
      <trkpt lat="38.078704" lon="-0.851704">
        <ele>13.6</ele>
        <time>2024-02-04T12:58:06Z</time>
      </trkpt>
      <trkpt lat="38.078834" lon="-0.851534">
        <ele>13.6</ele>
        <time>2024-02-04T12:58:21Z</time>
      </trkpt>
      <trkpt lat="38.078973" lon="-0.851387">
        <ele>13.6</ele>
        <time>2024-02-04T12:58:37Z</time>
      </trkpt>
      <trkpt lat="38.079107" lon="-0.851214">
        <ele>14.5</ele>
        <time>2024-02-04T12:58:54Z</time>
      </trkpt>
      <trkpt lat="38.079252" lon="-0.851057">
        <ele>13.6</ele>
        <time>2024-02-04T12:59:11Z</time>
      </trkpt>
      <trkpt lat="38.079386" lon="-0.850898">
        <ele>13.6</ele>
        <time>2024-02-04T12:59:26Z</time>
      </trkpt>
      <trkpt lat="38.079521" lon="-0.850723">
        <ele>13.6</ele>
        <time>2024-02-04T12:59:42Z</time>
      </trkpt>
      <trkpt lat="38.079656" lon="-0.850555">
        <ele>13.6</ele>
        <time>2024-02-04T12:59:58Z</time>
      </trkpt>
      <trkpt lat="38.079793" lon="-0.850402">
        <ele>14.6</ele>
        <time>2024-02-04T13:00:13Z</time>
      </trkpt>
      <trkpt lat="38.079934" lon="-0.850252">
        <ele>14.8</ele>
        <time>2024-02-04T13:00:28Z</time>
      </trkpt>
      <trkpt lat="38.080064" lon="-0.850084">
        <ele>14.4</ele>
        <time>2024-02-04T13:00:43Z</time>
      </trkpt>
      <trkpt lat="38.080196" lon="-0.849917">
        <ele>14.6</ele>
        <time>2024-02-04T13:00:59Z</time>
      </trkpt>
      <trkpt lat="38.080333" lon="-0.849751">
        <ele>17.0</ele>
        <time>2024-02-04T13:01:14Z</time>
      </trkpt>
      <trkpt lat="38.080473" lon="-0.849589">
        <ele>16.4</ele>
        <time>2024-02-04T13:01:30Z</time>
      </trkpt>
      <trkpt lat="38.080597" lon="-0.849423">
        <ele>17.0</ele>
        <time>2024-02-04T13:01:46Z</time>
      </trkpt>
      <trkpt lat="38.080741" lon="-0.849274">
        <ele>17.0</ele>
        <time>2024-02-04T13:02:01Z</time>
      </trkpt>
      <trkpt lat="38.080871" lon="-0.849095">
        <ele>17.0</ele>
        <time>2024-02-04T13:02:17Z</time>
      </trkpt>
      <trkpt lat="38.081007" lon="-0.848938">
        <ele>17.9</ele>
        <time>2024-02-04T13:02:32Z</time>
      </trkpt>
      <trkpt lat="38.081147" lon="-0.848784">
        <ele>13.6</ele>
        <time>2024-02-04T13:02:48Z</time>
      </trkpt>
      <trkpt lat="38.081280" lon="-0.848616">
        <ele>13.6</ele>
        <time>2024-02-04T13:03:03Z</time>
      </trkpt>
      <trkpt lat="38.081412" lon="-0.848455">
        <ele>13.6</ele>
        <time>2024-02-04T13:03:20Z</time>
      </trkpt>
      <trkpt lat="38.081538" lon="-0.848279">
        <ele>14.6</ele>
        <time>2024-02-04T13:03:36Z</time>
      </trkpt>
      <trkpt lat="38.081668" lon="-0.848102">
        <ele>15.4</ele>
        <time>2024-02-04T13:03:57Z</time>
      </trkpt>
      <trkpt lat="38.081803" lon="-0.847936">
        <ele>14.6</ele>
        <time>2024-02-04T13:04:12Z</time>
      </trkpt>
      <trkpt lat="38.081941" lon="-0.847777">
        <ele>14.6</ele>
        <time>2024-02-04T13:04:25Z</time>
      </trkpt>
      <trkpt lat="38.082068" lon="-0.847599">
        <ele>14.6</ele>
        <time>2024-02-04T13:04:41Z</time>
      </trkpt>
      <trkpt lat="38.082177" lon="-0.847414">
        <ele>14.5</ele>
        <time>2024-02-04T13:04:56Z</time>
      </trkpt>
      <trkpt lat="38.082290" lon="-0.847233">
        <ele>13.7</ele>
        <time>2024-02-04T13:05:12Z</time>
      </trkpt>
      <trkpt lat="38.082403" lon="-0.847051">
        <ele>14.3</ele>
        <time>2024-02-04T13:05:27Z</time>
      </trkpt>
      <trkpt lat="38.082511" lon="-0.846861">
        <ele>15.3</ele>
        <time>2024-02-04T13:05:43Z</time>
      </trkpt>
      <trkpt lat="38.082621" lon="-0.846675">
        <ele>15.5</ele>
        <time>2024-02-04T13:05:58Z</time>
      </trkpt>
      <trkpt lat="38.082729" lon="-0.846493">
        <ele>16.5</ele>
        <time>2024-02-04T13:06:13Z</time>
      </trkpt>
      <trkpt lat="38.082823" lon="-0.846294">
        <ele>15.6</ele>
        <time>2024-02-04T13:06:29Z</time>
      </trkpt>
      <trkpt lat="38.082913" lon="-0.846088">
        <ele>16.6</ele>
        <time>2024-02-04T13:06:44Z</time>
      </trkpt>
      <trkpt lat="38.083004" lon="-0.845879">
        <ele>15.6</ele>
        <time>2024-02-04T13:07:00Z</time>
      </trkpt>
      <trkpt lat="38.083096" lon="-0.845667">
        <ele>15.6</ele>
        <time>2024-02-04T13:07:16Z</time>
      </trkpt>
      <trkpt lat="38.083188" lon="-0.845462">
        <ele>14.6</ele>
        <time>2024-02-04T13:07:32Z</time>
      </trkpt>
      <trkpt lat="38.083266" lon="-0.845252">
        <ele>15.5</ele>
        <time>2024-02-04T13:07:48Z</time>
      </trkpt>
      <trkpt lat="38.083347" lon="-0.845044">
        <ele>16.6</ele>
        <time>2024-02-04T13:08:04Z</time>
      </trkpt>
      <trkpt lat="38.083431" lon="-0.844839">
        <ele>17.6</ele>
        <time>2024-02-04T13:08:19Z</time>
      </trkpt>
      <trkpt lat="38.083502" lon="-0.844612">
        <ele>17.6</ele>
        <time>2024-02-04T13:08:34Z</time>
      </trkpt>
      <trkpt lat="38.083571" lon="-0.844392">
        <ele>16.6</ele>
        <time>2024-02-04T13:08:50Z</time>
      </trkpt>
      <trkpt lat="38.083641" lon="-0.844168">
        <ele>15.6</ele>
        <time>2024-02-04T13:09:07Z</time>
      </trkpt>
      <trkpt lat="38.083711" lon="-0.843949">
        <ele>13.6</ele>
        <time>2024-02-04T13:09:23Z</time>
      </trkpt>
      <trkpt lat="38.083761" lon="-0.843723">
        <ele>13.6</ele>
        <time>2024-02-04T13:09:39Z</time>
      </trkpt>
      <trkpt lat="38.083823" lon="-0.843502">
        <ele>14.6</ele>
        <time>2024-02-04T13:09:55Z</time>
      </trkpt>
      <trkpt lat="38.083872" lon="-0.843274">
        <ele>16.3</ele>
        <time>2024-02-04T13:10:10Z</time>
      </trkpt>
      <trkpt lat="38.083920" lon="-0.843042">
        <ele>16.5</ele>
        <time>2024-02-04T13:10:27Z</time>
      </trkpt>
      <trkpt lat="38.083961" lon="-0.842817">
        <ele>17.6</ele>
        <time>2024-02-04T13:10:42Z</time>
      </trkpt>
      <trkpt lat="38.084005" lon="-0.842582">
        <ele>17.6</ele>
        <time>2024-02-04T13:10:58Z</time>
      </trkpt>
      <trkpt lat="38.084055" lon="-0.842356">
        <ele>17.7</ele>
        <time>2024-02-04T13:11:12Z</time>
      </trkpt>
      <trkpt lat="38.084081" lon="-0.842119">
        <ele>17.6</ele>
        <time>2024-02-04T13:11:28Z</time>
      </trkpt>
      <trkpt lat="38.084123" lon="-0.841894">
        <ele>17.6</ele>
        <time>2024-02-04T13:11:43Z</time>
      </trkpt>
      <trkpt lat="38.084166" lon="-0.841661">
        <ele>19.6</ele>
        <time>2024-02-04T13:12:00Z</time>
      </trkpt>
      <trkpt lat="38.084203" lon="-0.841425">
        <ele>18.6</ele>
        <time>2024-02-04T13:12:15Z</time>
      </trkpt>
      <trkpt lat="38.084231" lon="-0.841191">
        <ele>17.7</ele>
        <time>2024-02-04T13:12:31Z</time>
      </trkpt>
      <trkpt lat="38.084243" lon="-0.840962">
        <ele>17.6</ele>
        <time>2024-02-04T13:12:47Z</time>
      </trkpt>
      <trkpt lat="38.084238" lon="-0.840724">
        <ele>16.6</ele>
        <time>2024-02-04T13:13:03Z</time>
      </trkpt>
      <trkpt lat="38.084240" lon="-0.840490">
        <ele>17.5</ele>
        <time>2024-02-04T13:13:19Z</time>
      </trkpt>
      <trkpt lat="38.084266" lon="-0.840249">
        <ele>17.6</ele>
        <time>2024-02-04T13:13:36Z</time>
      </trkpt>
      <trkpt lat="38.084301" lon="-0.840013">
        <ele>17.6</ele>
        <time>2024-02-04T13:13:52Z</time>
      </trkpt>
      <trkpt lat="38.084362" lon="-0.839786">
        <ele>19.6</ele>
        <time>2024-02-04T13:14:09Z</time>
      </trkpt>
      <trkpt lat="38.084410" lon="-0.839555">
        <ele>19.6</ele>
        <time>2024-02-04T13:14:25Z</time>
      </trkpt>
      <trkpt lat="38.084516" lon="-0.839363">
        <ele>19.6</ele>
        <time>2024-02-04T13:14:48Z</time>
      </trkpt>
      <trkpt lat="38.084583" lon="-0.839150">
        <ele>19.6</ele>
        <time>2024-02-04T13:15:21Z</time>
      </trkpt>
      <trkpt lat="38.084487" lon="-0.839129">
        <ele>19.2</ele>
        <time>2024-02-04T13:18:23Z</time>
      </trkpt>
      <trkpt lat="38.084370" lon="-0.839103">
        <ele>19.2</ele>
        <time>2024-02-04T13:18:36Z</time>
      </trkpt>
      <trkpt lat="38.084269" lon="-0.839077">
        <ele>19.2</ele>
        <time>2024-02-04T13:18:51Z</time>
      </trkpt>
      <trkpt lat="38.084162" lon="-0.839070">
        <ele>11.6</ele>
        <time>2024-02-04T13:21:35Z</time>
      </trkpt>
      <trkpt lat="38.084000" lon="-0.838969">
        <ele>12.3</ele>
        <time>2024-02-04T13:21:49Z</time>
      </trkpt>
      <trkpt lat="38.083860" lon="-0.838953">
        <ele>14.5</ele>
        <time>2024-02-04T13:22:03Z</time>
      </trkpt>
      <trkpt lat="38.083699" lon="-0.838950">
        <ele>16.3</ele>
        <time>2024-02-04T13:22:24Z</time>
      </trkpt>
      <trkpt lat="38.083680" lon="-0.838733">
        <ele>15.6</ele>
        <time>2024-03-17T07:16:03Z</time>
      </trkpt>
      <trkpt lat="38.083709" lon="-0.838615">
        <ele>15.6</ele>
        <time>2024-03-17T07:16:27Z</time>
      </trkpt>
      <trkpt lat="38.083840" lon="-0.838458">
        <ele>13.6</ele>
        <time>2024-03-17T07:16:49Z</time>
      </trkpt>
      <trkpt lat="38.083932" lon="-0.838257">
        <ele>11.6</ele>
        <time>2024-03-17T07:17:08Z</time>
      </trkpt>
      <trkpt lat="38.083917" lon="-0.838026">
        <ele>13.5</ele>
        <time>2024-03-17T07:17:23Z</time>
      </trkpt>
      <trkpt lat="38.083904" lon="-0.837790">
        <ele>15.6</ele>
        <time>2024-03-17T07:17:40Z</time>
      </trkpt>
      <trkpt lat="38.083875" lon="-0.837558">
        <ele>16.6</ele>
        <time>2024-03-17T07:17:56Z</time>
      </trkpt>
      <trkpt lat="38.083866" lon="-0.837325">
        <ele>16.6</ele>
        <time>2024-03-17T07:18:12Z</time>
      </trkpt>
      <trkpt lat="38.083840" lon="-0.837096">
        <ele>15.6</ele>
        <time>2024-03-17T07:18:27Z</time>
      </trkpt>
      <trkpt lat="38.083822" lon="-0.836865">
        <ele>16.6</ele>
        <time>2024-03-17T07:18:42Z</time>
      </trkpt>
      <trkpt lat="38.083809" lon="-0.836629">
        <ele>17.6</ele>
        <time>2024-03-17T07:18:57Z</time>
      </trkpt>
      <trkpt lat="38.083799" lon="-0.836395">
        <ele>15.6</ele>
        <time>2024-03-17T07:19:12Z</time>
      </trkpt>
      <trkpt lat="38.083771" lon="-0.836164">
        <ele>15.6</ele>
        <time>2024-03-17T07:19:27Z</time>
      </trkpt>
      <trkpt lat="38.083752" lon="-0.835932">
        <ele>17.6</ele>
        <time>2024-03-17T07:19:43Z</time>
      </trkpt>
      <trkpt lat="38.083765" lon="-0.835701">
        <ele>18.6</ele>
        <time>2024-03-17T07:19:58Z</time>
      </trkpt>
      <trkpt lat="38.083814" lon="-0.835480">
        <ele>19.6</ele>
        <time>2024-03-17T07:20:11Z</time>
      </trkpt>
      <trkpt lat="38.083856" lon="-0.835250">
        <ele>19.5</ele>
        <time>2024-03-17T07:20:26Z</time>
      </trkpt>
      <trkpt lat="38.083896" lon="-0.835018">
        <ele>18.7</ele>
        <time>2024-03-17T07:20:41Z</time>
      </trkpt>
      <trkpt lat="38.083943" lon="-0.834788">
        <ele>17.7</ele>
        <time>2024-03-17T07:20:55Z</time>
      </trkpt>
      <trkpt lat="38.084050" lon="-0.834590">
        <ele>16.6</ele>
        <time>2024-03-17T07:21:11Z</time>
      </trkpt>
      <trkpt lat="38.084164" lon="-0.834408">
        <ele>17.6</ele>
        <time>2024-03-17T07:21:25Z</time>
      </trkpt>
      <trkpt lat="38.084260" lon="-0.834211">
        <ele>18.6</ele>
        <time>2024-03-17T07:21:39Z</time>
      </trkpt>
      <trkpt lat="38.084356" lon="-0.834015">
        <ele>19.6</ele>
        <time>2024-03-17T07:21:53Z</time>
      </trkpt>
      <trkpt lat="38.084461" lon="-0.833820">
        <ele>19.6</ele>
        <time>2024-03-17T07:22:08Z</time>
      </trkpt>
      <trkpt lat="38.084552" lon="-0.833612">
        <ele>18.6</ele>
        <time>2024-03-17T07:22:22Z</time>
      </trkpt>
      <trkpt lat="38.084637" lon="-0.833407">
        <ele>18.6</ele>
        <time>2024-03-17T07:22:37Z</time>
      </trkpt>
      <trkpt lat="38.084717" lon="-0.833200">
        <ele>18.9</ele>
        <time>2024-03-17T07:22:51Z</time>
      </trkpt>
      <trkpt lat="38.084793" lon="-0.832986">
        <ele>18.6</ele>
        <time>2024-03-17T07:23:06Z</time>
      </trkpt>
      <trkpt lat="38.084844" lon="-0.832762">
        <ele>17.6</ele>
        <time>2024-03-17T07:23:19Z</time>
      </trkpt>
      <trkpt lat="38.084895" lon="-0.832541">
        <ele>16.3</ele>
        <time>2024-03-17T07:23:34Z</time>
      </trkpt>
      <trkpt lat="38.084952" lon="-0.832317">
        <ele>16.6</ele>
        <time>2024-03-17T07:23:48Z</time>
      </trkpt>
      <trkpt lat="38.084978" lon="-0.832089">
        <ele>18.6</ele>
        <time>2024-03-17T07:24:02Z</time>
      </trkpt>
      <trkpt lat="38.085028" lon="-0.831869">
        <ele>17.6</ele>
        <time>2024-03-17T07:24:17Z</time>
      </trkpt>
      <trkpt lat="38.085061" lon="-0.831634">
        <ele>17.4</ele>
        <time>2024-03-17T07:24:32Z</time>
      </trkpt>
      <trkpt lat="38.085099" lon="-0.831404">
        <ele>18.6</ele>
        <time>2024-03-17T07:24:46Z</time>
      </trkpt>
      <trkpt lat="38.085139" lon="-0.831180">
        <ele>16.6</ele>
        <time>2024-03-17T07:25:00Z</time>
      </trkpt>
      <trkpt lat="38.085187" lon="-0.830957">
        <ele>16.6</ele>
        <time>2024-03-17T07:25:15Z</time>
      </trkpt>
      <trkpt lat="38.085247" lon="-0.830738">
        <ele>17.5</ele>
        <time>2024-03-17T07:25:27Z</time>
      </trkpt>
      <trkpt lat="38.085313" lon="-0.830515">
        <ele>17.5</ele>
        <time>2024-03-17T07:25:41Z</time>
      </trkpt>
      <trkpt lat="38.085405" lon="-0.830316">
        <ele>16.6</ele>
        <time>2024-03-17T07:25:55Z</time>
      </trkpt>
      <trkpt lat="38.085465" lon="-0.830087">
        <ele>17.6</ele>
        <time>2024-03-17T07:26:09Z</time>
      </trkpt>
      <trkpt lat="38.085521" lon="-0.829862">
        <ele>16.5</ele>
        <time>2024-03-17T07:26:24Z</time>
      </trkpt>
      <trkpt lat="38.085565" lon="-0.829640">
        <ele>17.6</ele>
        <time>2024-03-17T07:26:37Z</time>
      </trkpt>
      <trkpt lat="38.085618" lon="-0.829419">
        <ele>16.6</ele>
        <time>2024-03-17T07:26:52Z</time>
      </trkpt>
      <trkpt lat="38.085640" lon="-0.829192">
        <ele>17.6</ele>
        <time>2024-03-17T07:27:05Z</time>
      </trkpt>
      <trkpt lat="38.085651" lon="-0.828956">
        <ele>18.5</ele>
        <time>2024-03-17T07:27:19Z</time>
      </trkpt>
      <trkpt lat="38.085671" lon="-0.828726">
        <ele>17.6</ele>
        <time>2024-03-17T07:27:33Z</time>
      </trkpt>
      <trkpt lat="38.085679" lon="-0.828497">
        <ele>16.9</ele>
        <time>2024-03-17T07:27:48Z</time>
      </trkpt>
      <trkpt lat="38.085664" lon="-0.828264">
        <ele>15.6</ele>
        <time>2024-03-17T07:28:03Z</time>
      </trkpt>
      <trkpt lat="38.085649" lon="-0.828036">
        <ele>14.7</ele>
        <time>2024-03-17T07:28:16Z</time>
      </trkpt>
      <trkpt lat="38.085623" lon="-0.827800">
        <ele>15.6</ele>
        <time>2024-03-17T07:28:30Z</time>
      </trkpt>
      <trkpt lat="38.085576" lon="-0.827573">
        <ele>15.6</ele>
        <time>2024-03-17T07:28:45Z</time>
      </trkpt>
      <trkpt lat="38.085544" lon="-0.827344">
        <ele>15.6</ele>
        <time>2024-03-17T07:29:00Z</time>
      </trkpt>
      <trkpt lat="38.085533" lon="-0.827105">
        <ele>15.6</ele>
        <time>2024-03-17T07:29:14Z</time>
      </trkpt>
      <trkpt lat="38.085507" lon="-0.826875">
        <ele>14.6</ele>
        <time>2024-03-17T07:29:28Z</time>
      </trkpt>
      <trkpt lat="38.085514" lon="-0.826638">
        <ele>14.6</ele>
        <time>2024-03-17T07:29:43Z</time>
      </trkpt>
      <trkpt lat="38.085537" lon="-0.826406">
        <ele>15.6</ele>
        <time>2024-03-17T07:29:56Z</time>
      </trkpt>
      <trkpt lat="38.085553" lon="-0.826175">
        <ele>15.6</ele>
        <time>2024-03-17T07:30:10Z</time>
      </trkpt>
      <trkpt lat="38.085617" lon="-0.825954">
        <ele>14.7</ele>
        <time>2024-03-17T07:30:24Z</time>
      </trkpt>
      <trkpt lat="38.085647" lon="-0.825726">
        <ele>14.3</ele>
        <time>2024-03-17T07:30:39Z</time>
      </trkpt>
      <trkpt lat="38.085684" lon="-0.825494">
        <ele>15.6</ele>
        <time>2024-03-17T07:30:52Z</time>
      </trkpt>
      <trkpt lat="38.085775" lon="-0.825285">
        <ele>16.5</ele>
        <time>2024-03-17T07:31:06Z</time>
      </trkpt>
      <trkpt lat="38.085842" lon="-0.825069">
        <ele>17.6</ele>
        <time>2024-03-17T07:31:20Z</time>
      </trkpt>
      <trkpt lat="38.085920" lon="-0.824861">
        <ele>17.6</ele>
        <time>2024-03-17T07:31:35Z</time>
      </trkpt>
      <trkpt lat="38.086001" lon="-0.824643">
        <ele>16.6</ele>
        <time>2024-03-17T07:31:49Z</time>
      </trkpt>
      <trkpt lat="38.086078" lon="-0.824430">
        <ele>16.6</ele>
        <time>2024-03-17T07:32:03Z</time>
      </trkpt>
      <trkpt lat="38.086166" lon="-0.824231">
        <ele>16.9</ele>
        <time>2024-03-17T07:32:29Z</time>
      </trkpt>
      <trkpt lat="38.086243" lon="-0.824009">
        <ele>16.7</ele>
        <time>2024-03-17T07:32:57Z</time>
      </trkpt>
      <trkpt lat="38.086323" lon="-0.823803">
        <ele>19.5</ele>
        <time>2024-03-17T07:33:09Z</time>
      </trkpt>
      <trkpt lat="38.086407" lon="-0.823594">
        <ele>16.6</ele>
        <time>2024-03-17T07:33:22Z</time>
      </trkpt>
      <trkpt lat="38.086493" lon="-0.823386">
        <ele>15.6</ele>
        <time>2024-03-17T07:33:34Z</time>
      </trkpt>
      <trkpt lat="38.086570" lon="-0.823172">
        <ele>16.6</ele>
        <time>2024-03-17T07:33:54Z</time>
      </trkpt>
      <trkpt lat="38.086634" lon="-0.822941">
        <ele>16.4</ele>
        <time>2024-03-17T07:34:07Z</time>
      </trkpt>
      <trkpt lat="38.086686" lon="-0.822717">
        <ele>15.6</ele>
        <time>2024-03-17T07:34:19Z</time>
      </trkpt>
      <trkpt lat="38.086682" lon="-0.822486">
        <ele>16.6</ele>
        <time>2024-03-17T07:34:32Z</time>
      </trkpt>
      <trkpt lat="38.086641" lon="-0.822257">
        <ele>17.6</ele>
        <time>2024-03-17T07:34:44Z</time>
      </trkpt>
      <trkpt lat="38.086598" lon="-0.822036">
        <ele>17.6</ele>
        <time>2024-03-17T07:34:55Z</time>
      </trkpt>
      <trkpt lat="38.086547" lon="-0.821797">
        <ele>16.6</ele>
        <time>2024-03-17T07:35:09Z</time>
      </trkpt>
      <trkpt lat="38.086511" lon="-0.821564">
        <ele>18.6</ele>
        <time>2024-03-17T07:35:21Z</time>
      </trkpt>
      <trkpt lat="38.086490" lon="-0.821332">
        <ele>18.7</ele>
        <time>2024-03-17T07:35:34Z</time>
      </trkpt>
      <trkpt lat="38.086466" lon="-0.821098">
        <ele>18.9</ele>
        <time>2024-03-17T07:35:47Z</time>
      </trkpt>
      <trkpt lat="38.086461" lon="-0.820865">
        <ele>19.5</ele>
        <time>2024-03-17T07:36:00Z</time>
      </trkpt>
      <trkpt lat="38.086449" lon="-0.820633">
        <ele>17.6</ele>
        <time>2024-03-17T07:36:12Z</time>
      </trkpt>
      <trkpt lat="38.086463" lon="-0.820394">
        <ele>17.6</ele>
        <time>2024-03-17T07:36:26Z</time>
      </trkpt>
      <trkpt lat="38.086480" lon="-0.820157">
        <ele>18.6</ele>
        <time>2024-03-17T07:36:39Z</time>
      </trkpt>
      <trkpt lat="38.086507" lon="-0.819928">
        <ele>17.6</ele>
        <time>2024-03-17T07:36:52Z</time>
      </trkpt>
      <trkpt lat="38.086538" lon="-0.819699">
        <ele>19.6</ele>
        <time>2024-03-17T07:37:06Z</time>
      </trkpt>
      <trkpt lat="38.086588" lon="-0.819467">
        <ele>19.3</ele>
        <time>2024-03-17T07:37:20Z</time>
      </trkpt>
      <trkpt lat="38.086633" lon="-0.819236">
        <ele>18.6</ele>
        <time>2024-03-17T07:37:34Z</time>
      </trkpt>
      <trkpt lat="38.086701" lon="-0.819024">
        <ele>18.6</ele>
        <time>2024-03-17T07:37:49Z</time>
      </trkpt>
      <trkpt lat="38.086771" lon="-0.818803">
        <ele>18.6</ele>
        <time>2024-03-17T07:38:03Z</time>
      </trkpt>
      <trkpt lat="38.086841" lon="-0.818587">
        <ele>19.6</ele>
        <time>2024-03-17T07:38:16Z</time>
      </trkpt>
      <trkpt lat="38.086923" lon="-0.818378">
        <ele>18.6</ele>
        <time>2024-03-17T07:38:30Z</time>
      </trkpt>
      <trkpt lat="38.087002" lon="-0.818160">
        <ele>18.6</ele>
        <time>2024-03-17T07:38:45Z</time>
      </trkpt>
      <trkpt lat="38.087072" lon="-0.817940">
        <ele>17.6</ele>
        <time>2024-03-17T07:38:59Z</time>
      </trkpt>
      <trkpt lat="38.087155" lon="-0.817734">
        <ele>16.6</ele>
        <time>2024-03-17T07:39:12Z</time>
      </trkpt>
      <trkpt lat="38.087229" lon="-0.817523">
        <ele>18.6</ele>
        <time>2024-03-17T07:39:26Z</time>
      </trkpt>
      <trkpt lat="38.087304" lon="-0.817306">
        <ele>18.6</ele>
        <time>2024-03-17T07:39:40Z</time>
      </trkpt>
      <trkpt lat="38.087383" lon="-0.817101">
        <ele>16.6</ele>
        <time>2024-03-17T07:39:53Z</time>
      </trkpt>
      <trkpt lat="38.087458" lon="-0.816890">
        <ele>16.6</ele>
        <time>2024-03-17T07:40:06Z</time>
      </trkpt>
      <trkpt lat="38.087543" lon="-0.816684">
        <ele>15.6</ele>
        <time>2024-03-17T07:40:21Z</time>
      </trkpt>
      <trkpt lat="38.087606" lon="-0.816465">
        <ele>16.6</ele>
        <time>2024-03-17T07:40:35Z</time>
      </trkpt>
      <trkpt lat="38.087682" lon="-0.816256">
        <ele>17.6</ele>
        <time>2024-03-17T07:40:50Z</time>
      </trkpt>
      <trkpt lat="38.087764" lon="-0.816050">
        <ele>17.6</ele>
        <time>2024-03-17T07:41:04Z</time>
      </trkpt>
      <trkpt lat="38.087830" lon="-0.815831">
        <ele>16.6</ele>
        <time>2024-03-17T07:41:18Z</time>
      </trkpt>
      <trkpt lat="38.087903" lon="-0.815621">
        <ele>18.6</ele>
        <time>2024-03-17T07:41:32Z</time>
      </trkpt>
      <trkpt lat="38.087973" lon="-0.815404">
        <ele>16.6</ele>
        <time>2024-03-17T07:41:46Z</time>
      </trkpt>
      <trkpt lat="38.088070" lon="-0.815206">
        <ele>17.6</ele>
        <time>2024-03-17T07:41:59Z</time>
      </trkpt>
      <trkpt lat="38.088140" lon="-0.814994">
        <ele>17.9</ele>
        <time>2024-03-17T07:42:13Z</time>
      </trkpt>
      <trkpt lat="38.088221" lon="-0.814785">
        <ele>17.6</ele>
        <time>2024-03-17T07:42:25Z</time>
      </trkpt>
      <trkpt lat="38.088302" lon="-0.814578">
        <ele>18.6</ele>
        <time>2024-03-17T07:42:39Z</time>
      </trkpt>
      <trkpt lat="38.088375" lon="-0.814356">
        <ele>18.6</ele>
        <time>2024-03-17T07:42:53Z</time>
      </trkpt>
      <trkpt lat="38.088450" lon="-0.814148">
        <ele>19.6</ele>
        <time>2024-03-17T07:43:08Z</time>
      </trkpt>
      <trkpt lat="38.088525" lon="-0.813935">
        <ele>19.3</ele>
        <time>2024-03-17T07:43:21Z</time>
      </trkpt>
      <trkpt lat="38.088607" lon="-0.813730">
        <ele>19.6</ele>
        <time>2024-03-17T07:43:35Z</time>
      </trkpt>
      <trkpt lat="38.088691" lon="-0.813526">
        <ele>18.7</ele>
        <time>2024-03-17T07:43:51Z</time>
      </trkpt>
      <trkpt lat="38.088770" lon="-0.813319">
        <ele>18.5</ele>
        <time>2024-03-17T07:44:06Z</time>
      </trkpt>
      <trkpt lat="38.088836" lon="-0.813101">
        <ele>17.7</ele>
        <time>2024-03-17T07:44:20Z</time>
      </trkpt>
      <trkpt lat="38.088906" lon="-0.812888">
        <ele>18.6</ele>
        <time>2024-03-17T07:44:35Z</time>
      </trkpt>
      <trkpt lat="38.088983" lon="-0.812676">
        <ele>18.6</ele>
        <time>2024-03-17T07:44:49Z</time>
      </trkpt>
      <trkpt lat="38.089080" lon="-0.812481">
        <ele>19.6</ele>
        <time>2024-03-17T07:45:04Z</time>
      </trkpt>
      <trkpt lat="38.089169" lon="-0.812271">
        <ele>19.6</ele>
        <time>2024-03-17T07:46:00Z</time>
      </trkpt>
      <trkpt lat="38.089233" lon="-0.812042">
        <ele>19.6</ele>
        <time>2024-03-17T07:46:14Z</time>
      </trkpt>
      <trkpt lat="38.089311" lon="-0.811833">
        <ele>20.6</ele>
        <time>2024-03-17T07:46:28Z</time>
      </trkpt>
      <trkpt lat="38.089391" lon="-0.811624">
        <ele>19.6</ele>
        <time>2024-03-17T07:46:41Z</time>
      </trkpt>
      <trkpt lat="38.089472" lon="-0.811419">
        <ele>19.6</ele>
        <time>2024-03-17T07:46:54Z</time>
      </trkpt>
      <trkpt lat="38.089554" lon="-0.811203">
        <ele>20.6</ele>
        <time>2024-03-17T07:47:08Z</time>
      </trkpt>
      <trkpt lat="38.089649" lon="-0.811003">
        <ele>20.6</ele>
        <time>2024-03-17T07:47:22Z</time>
      </trkpt>
      <trkpt lat="38.089715" lon="-0.810784">
        <ele>18.6</ele>
        <time>2024-03-17T07:47:35Z</time>
      </trkpt>
      <trkpt lat="38.089789" lon="-0.810561">
        <ele>17.6</ele>
        <time>2024-03-17T07:47:49Z</time>
      </trkpt>
      <trkpt lat="38.089868" lon="-0.810354">
        <ele>18.6</ele>
        <time>2024-03-17T07:48:03Z</time>
      </trkpt>
      <trkpt lat="38.089940" lon="-0.810137">
        <ele>16.7</ele>
        <time>2024-03-17T07:48:16Z</time>
      </trkpt>
      <trkpt lat="38.090019" lon="-0.809923">
        <ele>17.3</ele>
        <time>2024-03-17T07:48:31Z</time>
      </trkpt>
      <trkpt lat="38.090107" lon="-0.809722">
        <ele>15.6</ele>
        <time>2024-03-17T07:48:43Z</time>
      </trkpt>
      <trkpt lat="38.090180" lon="-0.809514">
        <ele>16.6</ele>
        <time>2024-03-17T07:48:56Z</time>
      </trkpt>
      <trkpt lat="38.090262" lon="-0.809303">
        <ele>17.6</ele>
        <time>2024-03-17T07:49:09Z</time>
      </trkpt>
      <trkpt lat="38.090330" lon="-0.809090">
        <ele>17.6</ele>
        <time>2024-03-17T07:49:22Z</time>
      </trkpt>
      <trkpt lat="38.090412" lon="-0.808886">
        <ele>16.6</ele>
        <time>2024-03-17T07:49:35Z</time>
      </trkpt>
      <trkpt lat="38.090496" lon="-0.808672">
        <ele>17.6</ele>
        <time>2024-03-17T07:49:49Z</time>
      </trkpt>
      <trkpt lat="38.090570" lon="-0.808458">
        <ele>17.9</ele>
        <time>2024-03-17T07:50:01Z</time>
      </trkpt>
      <trkpt lat="38.090643" lon="-0.808247">
        <ele>17.5</ele>
        <time>2024-03-17T07:50:15Z</time>
      </trkpt>
      <trkpt lat="38.090723" lon="-0.808035">
        <ele>16.6</ele>
        <time>2024-03-17T07:50:28Z</time>
      </trkpt>
      <trkpt lat="38.090790" lon="-0.807818">
        <ele>18.6</ele>
        <time>2024-03-17T07:50:41Z</time>
      </trkpt>
      <trkpt lat="38.090863" lon="-0.807598">
        <ele>18.6</ele>
        <time>2024-03-17T07:50:54Z</time>
      </trkpt>
      <trkpt lat="38.090947" lon="-0.807391">
        <ele>18.6</ele>
        <time>2024-03-17T07:51:07Z</time>
      </trkpt>
      <trkpt lat="38.091035" lon="-0.807191">
        <ele>18.6</ele>
        <time>2024-03-17T07:51:20Z</time>
      </trkpt>
      <trkpt lat="38.091116" lon="-0.806975">
        <ele>18.6</ele>
        <time>2024-03-17T07:51:34Z</time>
      </trkpt>
      <trkpt lat="38.091185" lon="-0.806756">
        <ele>16.7</ele>
        <time>2024-03-17T07:51:47Z</time>
      </trkpt>
      <trkpt lat="38.091244" lon="-0.806538">
        <ele>17.6</ele>
        <time>2024-03-17T07:52:00Z</time>
      </trkpt>
      <trkpt lat="38.091306" lon="-0.806311">
        <ele>18.6</ele>
        <time>2024-03-17T07:52:13Z</time>
      </trkpt>
      <trkpt lat="38.091390" lon="-0.806102">
        <ele>16.3</ele>
        <time>2024-03-17T07:52:27Z</time>
      </trkpt>
      <trkpt lat="38.091455" lon="-0.805887">
        <ele>17.4</ele>
        <time>2024-03-17T07:52:40Z</time>
      </trkpt>
      <trkpt lat="38.091557" lon="-0.805687">
        <ele>16.6</ele>
        <time>2024-03-17T07:52:53Z</time>
      </trkpt>
      <trkpt lat="38.091657" lon="-0.805489">
        <ele>16.6</ele>
        <time>2024-03-17T07:53:07Z</time>
      </trkpt>
      <trkpt lat="38.091732" lon="-0.805277">
        <ele>17.3</ele>
        <time>2024-03-17T07:53:20Z</time>
      </trkpt>
      <trkpt lat="38.091804" lon="-0.805061">
        <ele>17.6</ele>
        <time>2024-03-17T07:53:33Z</time>
      </trkpt>
      <trkpt lat="38.091880" lon="-0.804850">
        <ele>18.6</ele>
        <time>2024-03-17T07:53:47Z</time>
      </trkpt>
      <trkpt lat="38.091964" lon="-0.804635">
        <ele>17.6</ele>
        <time>2024-03-17T07:54:01Z</time>
      </trkpt>
      <trkpt lat="38.092048" lon="-0.804425">
        <ele>17.6</ele>
        <time>2024-03-17T07:54:14Z</time>
      </trkpt>
      <trkpt lat="38.092116" lon="-0.804211">
        <ele>17.6</ele>
        <time>2024-03-17T07:54:27Z</time>
      </trkpt>
      <trkpt lat="38.092203" lon="-0.804007">
        <ele>18.5</ele>
        <time>2024-03-17T07:54:41Z</time>
      </trkpt>
      <trkpt lat="38.092276" lon="-0.803789">
        <ele>18.6</ele>
        <time>2024-03-17T07:54:54Z</time>
      </trkpt>
      <trkpt lat="38.092354" lon="-0.803581">
        <ele>18.6</ele>
        <time>2024-03-17T07:55:08Z</time>
      </trkpt>
      <trkpt lat="38.092422" lon="-0.803360">
        <ele>17.6</ele>
        <time>2024-03-17T07:55:22Z</time>
      </trkpt>
      <trkpt lat="38.092514" lon="-0.803154">
        <ele>18.5</ele>
        <time>2024-03-17T07:55:36Z</time>
      </trkpt>
      <trkpt lat="38.092593" lon="-0.802946">
        <ele>16.6</ele>
        <time>2024-03-17T07:55:49Z</time>
      </trkpt>
      <trkpt lat="38.092674" lon="-0.802732">
        <ele>17.6</ele>
        <time>2024-03-17T07:56:03Z</time>
      </trkpt>
      <trkpt lat="38.092739" lon="-0.802511">
        <ele>19.6</ele>
        <time>2024-03-17T07:56:17Z</time>
      </trkpt>
      <trkpt lat="38.092831" lon="-0.802303">
        <ele>16.7</ele>
        <time>2024-03-17T07:56:33Z</time>
      </trkpt>
      <trkpt lat="38.092925" lon="-0.802097">
        <ele>16.3</ele>
        <time>2024-03-17T07:56:46Z</time>
      </trkpt>
      <trkpt lat="38.092979" lon="-0.801870">
        <ele>16.6</ele>
        <time>2024-03-17T07:57:00Z</time>
      </trkpt>
      <trkpt lat="38.093045" lon="-0.801654">
        <ele>17.6</ele>
        <time>2024-03-17T07:57:14Z</time>
      </trkpt>
      <trkpt lat="38.093138" lon="-0.801446">
        <ele>17.6</ele>
        <time>2024-03-17T07:57:28Z</time>
      </trkpt>
      <trkpt lat="38.093205" lon="-0.801227">
        <ele>17.6</ele>
        <time>2024-03-17T07:57:42Z</time>
      </trkpt>
      <trkpt lat="38.093272" lon="-0.801009">
        <ele>17.6</ele>
        <time>2024-03-17T07:57:56Z</time>
      </trkpt>
      <trkpt lat="38.093328" lon="-0.800786">
        <ele>17.6</ele>
        <time>2024-03-17T07:58:10Z</time>
      </trkpt>
      <trkpt lat="38.093383" lon="-0.800557">
        <ele>18.6</ele>
        <time>2024-03-17T07:58:23Z</time>
      </trkpt>
      <trkpt lat="38.093409" lon="-0.800374">
        <ele>19.5</ele>
        <time>2024-03-17T07:58:41Z</time>
      </trkpt>
      <trkpt lat="38.093474" lon="-0.800218">
        <ele>18.6</ele>
        <time>2024-03-17T08:00:29Z</time>
      </trkpt>
      <trkpt lat="38.093513" lon="-0.799994">
        <ele>16.6</ele>
        <time>2024-03-17T08:00:45Z</time>
      </trkpt>
      <trkpt lat="38.093538" lon="-0.799768">
        <ele>16.6</ele>
        <time>2024-03-17T08:00:58Z</time>
      </trkpt>
      <trkpt lat="38.093545" lon="-0.799531">
        <ele>17.6</ele>
        <time>2024-03-17T08:01:16Z</time>
      </trkpt>
      <trkpt lat="38.093529" lon="-0.799300">
        <ele>17.6</ele>
        <time>2024-03-17T08:01:30Z</time>
      </trkpt>
      <trkpt lat="38.093503" lon="-0.799068">
        <ele>16.6</ele>
        <time>2024-03-17T08:01:45Z</time>
      </trkpt>
      <trkpt lat="38.093487" lon="-0.798839">
        <ele>16.6</ele>
        <time>2024-03-17T08:01:58Z</time>
      </trkpt>
      <trkpt lat="38.093507" lon="-0.798607">
        <ele>16.7</ele>
        <time>2024-03-17T08:02:12Z</time>
      </trkpt>
      <trkpt lat="38.093551" lon="-0.798379">
        <ele>17.6</ele>
        <time>2024-03-17T08:02:25Z</time>
      </trkpt>
      <trkpt lat="38.093578" lon="-0.798143">
        <ele>20.5</ele>
        <time>2024-03-17T08:02:38Z</time>
      </trkpt>
      <trkpt lat="38.093633" lon="-0.797915">
        <ele>18.7</ele>
        <time>2024-03-17T08:02:52Z</time>
      </trkpt>
      <trkpt lat="38.093633" lon="-0.797682">
        <ele>17.7</ele>
        <time>2024-03-17T08:03:05Z</time>
      </trkpt>
      <trkpt lat="38.093633" lon="-0.797450">
        <ele>18.7</ele>
        <time>2024-03-17T08:03:18Z</time>
      </trkpt>
      <trkpt lat="38.093593" lon="-0.797219">
        <ele>19.3</ele>
        <time>2024-03-17T08:03:32Z</time>
      </trkpt>
      <trkpt lat="38.093548" lon="-0.796996">
        <ele>18.7</ele>
        <time>2024-03-17T08:03:45Z</time>
      </trkpt>
      <trkpt lat="38.093532" lon="-0.796765">
        <ele>17.6</ele>
        <time>2024-03-17T08:03:58Z</time>
      </trkpt>
      <trkpt lat="38.093483" lon="-0.796542">
        <ele>17.7</ele>
        <time>2024-03-17T08:04:12Z</time>
      </trkpt>
      <trkpt lat="38.093451" lon="-0.796311">
        <ele>17.7</ele>
        <time>2024-03-17T08:04:26Z</time>
      </trkpt>
      <trkpt lat="38.093381" lon="-0.796091">
        <ele>17.6</ele>
        <time>2024-03-17T08:04:40Z</time>
      </trkpt>
      <trkpt lat="38.093312" lon="-0.795871">
        <ele>17.6</ele>
        <time>2024-03-17T08:04:55Z</time>
      </trkpt>
      <trkpt lat="38.093235" lon="-0.795663">
        <ele>15.6</ele>
        <time>2024-03-17T08:05:10Z</time>
      </trkpt>
      <trkpt lat="38.093101" lon="-0.795500">
        <ele>15.6</ele>
        <time>2024-03-17T08:05:23Z</time>
      </trkpt>
      <trkpt lat="38.092952" lon="-0.795352">
        <ele>15.6</ele>
        <time>2024-03-17T08:05:37Z</time>
      </trkpt>
      <trkpt lat="38.092780" lon="-0.795263">
        <ele>16.6</ele>
        <time>2024-03-17T08:05:50Z</time>
      </trkpt>
      <trkpt lat="38.092606" lon="-0.795181">
        <ele>16.7</ele>
        <time>2024-03-17T08:06:09Z</time>
      </trkpt>
      <trkpt lat="38.092445" lon="-0.795079">
        <ele>15.6</ele>
        <time>2024-03-17T08:06:22Z</time>
      </trkpt>
      <trkpt lat="38.092281" lon="-0.794984">
        <ele>14.6</ele>
        <time>2024-03-17T08:06:35Z</time>
      </trkpt>
      <trkpt lat="38.092107" lon="-0.794906">
        <ele>14.7</ele>
        <time>2024-03-17T08:06:47Z</time>
      </trkpt>
      <trkpt lat="38.091940" lon="-0.794816">
        <ele>13.6</ele>
        <time>2024-03-17T08:07:00Z</time>
      </trkpt>
      <trkpt lat="38.091767" lon="-0.794730">
        <ele>14.6</ele>
        <time>2024-03-17T08:07:14Z</time>
      </trkpt>
      <trkpt lat="38.091601" lon="-0.794621">
        <ele>15.6</ele>
        <time>2024-03-17T08:07:27Z</time>
      </trkpt>
      <trkpt lat="38.091462" lon="-0.794463">
        <ele>16.6</ele>
        <time>2024-03-17T08:07:40Z</time>
      </trkpt>
      <trkpt lat="38.091347" lon="-0.794283">
        <ele>17.4</ele>
        <time>2024-03-17T08:07:54Z</time>
      </trkpt>
      <trkpt lat="38.091270" lon="-0.794066">
        <ele>18.7</ele>
        <time>2024-03-17T08:08:08Z</time>
      </trkpt>
      <trkpt lat="38.091187" lon="-0.793856">
        <ele>18.6</ele>
        <time>2024-03-17T08:08:22Z</time>
      </trkpt>
      <trkpt lat="38.091134" lon="-0.793632">
        <ele>17.6</ele>
        <time>2024-03-17T08:08:36Z</time>
      </trkpt>
      <trkpt lat="38.091091" lon="-0.793399">
        <ele>18.6</ele>
        <time>2024-03-17T08:08:50Z</time>
      </trkpt>
      <trkpt lat="38.091082" lon="-0.793167">
        <ele>18.6</ele>
        <time>2024-03-17T08:09:04Z</time>
      </trkpt>
      <trkpt lat="38.091078" lon="-0.792935">
        <ele>17.6</ele>
        <time>2024-03-17T08:09:18Z</time>
      </trkpt>
      <trkpt lat="38.091103" lon="-0.792707">
        <ele>18.6</ele>
        <time>2024-03-17T08:09:32Z</time>
      </trkpt>
      <trkpt lat="38.091115" lon="-0.792478">
        <ele>18.6</ele>
        <time>2024-03-17T08:09:46Z</time>
      </trkpt>
      <trkpt lat="38.091132" lon="-0.792250">
        <ele>17.7</ele>
        <time>2024-03-17T08:10:00Z</time>
      </trkpt>
      <trkpt lat="38.091144" lon="-0.792016">
        <ele>17.6</ele>
        <time>2024-03-17T08:10:14Z</time>
      </trkpt>
      <trkpt lat="38.091147" lon="-0.791774">
        <ele>17.9</ele>
        <time>2024-03-17T08:10:28Z</time>
      </trkpt>
      <trkpt lat="38.091182" lon="-0.791536">
        <ele>17.6</ele>
        <time>2024-03-17T08:10:42Z</time>
      </trkpt>
      <trkpt lat="38.091202" lon="-0.791301">
        <ele>17.6</ele>
        <time>2024-03-17T08:10:56Z</time>
      </trkpt>
      <trkpt lat="38.091200" lon="-0.791062">
        <ele>17.6</ele>
        <time>2024-03-17T08:11:10Z</time>
      </trkpt>
      <trkpt lat="38.091209" lon="-0.790832">
        <ele>17.7</ele>
        <time>2024-03-17T08:11:24Z</time>
      </trkpt>
      <trkpt lat="38.091187" lon="-0.790602">
        <ele>19.6</ele>
        <time>2024-03-17T08:11:38Z</time>
      </trkpt>
      <trkpt lat="38.091170" lon="-0.790375">
        <ele>19.5</ele>
        <time>2024-03-17T08:11:52Z</time>
      </trkpt>
      <trkpt lat="38.091124" lon="-0.790142">
        <ele>18.6</ele>
        <time>2024-03-17T08:12:06Z</time>
      </trkpt>
      <trkpt lat="38.091075" lon="-0.789918">
        <ele>18.6</ele>
        <time>2024-03-17T08:12:19Z</time>
      </trkpt>
      <trkpt lat="38.091021" lon="-0.789691">
        <ele>18.6</ele>
        <time>2024-03-17T08:12:33Z</time>
      </trkpt>
      <trkpt lat="38.090958" lon="-0.789476">
        <ele>19.6</ele>
        <time>2024-03-17T08:12:46Z</time>
      </trkpt>
      <trkpt lat="38.090880" lon="-0.789265">
        <ele>19.6</ele>
        <time>2024-03-17T08:12:59Z</time>
      </trkpt>
      <trkpt lat="38.090787" lon="-0.789064">
        <ele>18.6</ele>
        <time>2024-03-17T08:13:12Z</time>
      </trkpt>
      <trkpt lat="38.090690" lon="-0.788854">
        <ele>17.6</ele>
        <time>2024-03-17T08:13:26Z</time>
      </trkpt>
      <trkpt lat="38.090596" lon="-0.788656">
        <ele>17.6</ele>
        <time>2024-03-17T08:13:39Z</time>
      </trkpt>
      <trkpt lat="38.090486" lon="-0.788465">
        <ele>16.6</ele>
        <time>2024-03-17T08:13:53Z</time>
      </trkpt>
      <trkpt lat="38.090358" lon="-0.788304">
        <ele>16.7</ele>
        <time>2024-03-17T08:14:06Z</time>
      </trkpt>
      <trkpt lat="38.090245" lon="-0.788123">
        <ele>16.6</ele>
        <time>2024-03-17T08:14:19Z</time>
      </trkpt>
      <trkpt lat="38.090118" lon="-0.787959">
        <ele>17.6</ele>
        <time>2024-03-17T08:14:34Z</time>
      </trkpt>
      <trkpt lat="38.089972" lon="-0.787819">
        <ele>16.7</ele>
        <time>2024-03-17T08:14:48Z</time>
      </trkpt>
      <trkpt lat="38.089845" lon="-0.787646">
        <ele>17.6</ele>
        <time>2024-03-17T08:15:02Z</time>
      </trkpt>
      <trkpt lat="38.089706" lon="-0.787482">
        <ele>15.6</ele>
        <time>2024-03-17T08:15:16Z</time>
      </trkpt>
      <trkpt lat="38.089583" lon="-0.787300">
        <ele>16.7</ele>
        <time>2024-03-17T08:15:30Z</time>
      </trkpt>
      <trkpt lat="38.089487" lon="-0.787101">
        <ele>18.6</ele>
        <time>2024-03-17T08:16:26Z</time>
      </trkpt>
      <trkpt lat="38.089391" lon="-0.786905">
        <ele>17.6</ele>
        <time>2024-03-17T08:17:19Z</time>
      </trkpt>
      <trkpt lat="38.089332" lon="-0.786680">
        <ele>16.6</ele>
        <time>2024-03-17T08:17:34Z</time>
      </trkpt>
      <trkpt lat="38.089261" lon="-0.786459">
        <ele>16.6</ele>
        <time>2024-03-17T08:17:48Z</time>
      </trkpt>
      <trkpt lat="38.089209" lon="-0.786239">
        <ele>16.6</ele>
        <time>2024-03-17T08:18:02Z</time>
      </trkpt>
      <trkpt lat="38.089175" lon="-0.786014">
        <ele>14.9</ele>
        <time>2024-03-17T08:18:16Z</time>
      </trkpt>
      <trkpt lat="38.089177" lon="-0.785779">
        <ele>15.6</ele>
        <time>2024-03-17T08:18:30Z</time>
      </trkpt>
      <trkpt lat="38.089157" lon="-0.785546">
        <ele>16.6</ele>
        <time>2024-03-17T08:18:42Z</time>
      </trkpt>
      <trkpt lat="38.089171" lon="-0.785316">
        <ele>15.6</ele>
        <time>2024-03-17T08:18:56Z</time>
      </trkpt>
      <trkpt lat="38.089149" lon="-0.785073">
        <ele>16.6</ele>
        <time>2024-03-17T08:19:10Z</time>
      </trkpt>
      <trkpt lat="38.089138" lon="-0.784843">
        <ele>16.7</ele>
        <time>2024-03-17T08:19:23Z</time>
      </trkpt>
      <trkpt lat="38.089133" lon="-0.784608">
        <ele>16.6</ele>
        <time>2024-03-17T08:19:37Z</time>
      </trkpt>
      <trkpt lat="38.089127" lon="-0.784369">
        <ele>15.6</ele>
        <time>2024-03-17T08:19:51Z</time>
      </trkpt>
      <trkpt lat="38.089124" lon="-0.784136">
        <ele>15.6</ele>
        <time>2024-03-17T08:20:05Z</time>
      </trkpt>
      <trkpt lat="38.089124" lon="-0.783901">
        <ele>17.3</ele>
        <time>2024-03-17T08:26:21Z</time>
      </trkpt>
      <trkpt lat="38.089111" lon="-0.783665">
        <ele>16.7</ele>
        <time>2024-03-17T08:26:38Z</time>
      </trkpt>
      <trkpt lat="38.089088" lon="-0.783433">
        <ele>17.5</ele>
        <time>2024-03-17T08:26:55Z</time>
      </trkpt>
      <trkpt lat="38.089089" lon="-0.783200">
        <ele>17.6</ele>
        <time>2024-03-17T08:27:10Z</time>
      </trkpt>
      <trkpt lat="38.089075" lon="-0.782968">
        <ele>16.6</ele>
        <time>2024-03-17T08:27:24Z</time>
      </trkpt>
      <trkpt lat="38.089060" lon="-0.782735">
        <ele>17.6</ele>
        <time>2024-03-17T08:27:38Z</time>
      </trkpt>
      <trkpt lat="38.089032" lon="-0.782506">
        <ele>16.6</ele>
        <time>2024-03-17T08:27:52Z</time>
      </trkpt>
      <trkpt lat="38.088995" lon="-0.782268">
        <ele>15.7</ele>
        <time>2024-03-17T08:29:01Z</time>
      </trkpt>
      <trkpt lat="38.088971" lon="-0.782036">
        <ele>15.6</ele>
        <time>2024-03-17T08:29:23Z</time>
      </trkpt>
      <trkpt lat="38.088958" lon="-0.781805">
        <ele>16.6</ele>
        <time>2024-03-17T08:29:36Z</time>
      </trkpt>
      <trkpt lat="38.088909" lon="-0.781580">
        <ele>16.6</ele>
        <time>2024-03-17T08:29:51Z</time>
      </trkpt>
      <trkpt lat="38.088864" lon="-0.781354">
        <ele>16.6</ele>
        <time>2024-03-17T08:30:07Z</time>
      </trkpt>
      <trkpt lat="38.088808" lon="-0.781136">
        <ele>15.6</ele>
        <time>2024-03-17T08:30:22Z</time>
      </trkpt>
      <trkpt lat="38.088767" lon="-0.780912">
        <ele>17.6</ele>
        <time>2024-03-17T08:30:37Z</time>
      </trkpt>
      <trkpt lat="38.088686" lon="-0.780704">
        <ele>16.7</ele>
        <time>2024-03-17T08:30:52Z</time>
      </trkpt>
      <trkpt lat="38.088614" lon="-0.780490">
        <ele>14.7</ele>
        <time>2024-03-17T08:31:08Z</time>
      </trkpt>
      <trkpt lat="38.088544" lon="-0.780276">
        <ele>14.6</ele>
        <time>2024-03-17T08:31:23Z</time>
      </trkpt>
      <trkpt lat="38.088468" lon="-0.780065">
        <ele>14.7</ele>
        <time>2024-03-17T08:31:38Z</time>
      </trkpt>
      <trkpt lat="38.088357" lon="-0.779880">
        <ele>15.6</ele>
        <time>2024-03-17T08:31:53Z</time>
      </trkpt>
      <trkpt lat="38.088265" lon="-0.779682">
        <ele>17.5</ele>
        <time>2024-03-17T08:32:07Z</time>
      </trkpt>
      <trkpt lat="38.088165" lon="-0.779478">
        <ele>16.6</ele>
        <time>2024-03-17T08:32:23Z</time>
      </trkpt>
      <trkpt lat="38.088060" lon="-0.779285">
        <ele>15.6</ele>
        <time>2024-03-17T08:32:39Z</time>
      </trkpt>
      <trkpt lat="38.087950" lon="-0.779092">
        <ele>14.7</ele>
        <time>2024-03-17T08:32:55Z</time>
      </trkpt>
      <trkpt lat="38.087857" lon="-0.778892">
        <ele>15.6</ele>
        <time>2024-03-17T08:33:09Z</time>
      </trkpt>
      <trkpt lat="38.087750" lon="-0.778699">
        <ele>14.9</ele>
        <time>2024-03-17T08:33:25Z</time>
      </trkpt>
      <trkpt lat="38.087654" lon="-0.778503">
        <ele>15.6</ele>
        <time>2024-03-17T08:33:39Z</time>
      </trkpt>
      <trkpt lat="38.087554" lon="-0.778306">
        <ele>16.6</ele>
        <time>2024-03-17T08:33:53Z</time>
      </trkpt>
      <trkpt lat="38.087440" lon="-0.778119">
        <ele>15.6</ele>
        <time>2024-03-17T08:34:09Z</time>
      </trkpt>
      <trkpt lat="38.087341" lon="-0.777927">
        <ele>14.6</ele>
        <time>2024-03-17T08:34:26Z</time>
      </trkpt>
      <trkpt lat="38.087244" lon="-0.777725">
        <ele>14.9</ele>
        <time>2024-03-17T08:34:40Z</time>
      </trkpt>
      <trkpt lat="38.087140" lon="-0.777532">
        <ele>14.6</ele>
        <time>2024-03-17T08:34:54Z</time>
      </trkpt>
      <trkpt lat="38.087036" lon="-0.777328">
        <ele>14.6</ele>
        <time>2024-03-17T08:35:09Z</time>
      </trkpt>
      <trkpt lat="38.086923" lon="-0.777141">
        <ele>14.7</ele>
        <time>2024-03-17T08:35:24Z</time>
      </trkpt>
      <trkpt lat="38.086819" lon="-0.776948">
        <ele>15.7</ele>
        <time>2024-03-17T08:35:38Z</time>
      </trkpt>
      <trkpt lat="38.086719" lon="-0.776757">
        <ele>15.7</ele>
        <time>2024-03-17T08:35:56Z</time>
      </trkpt>
      <trkpt lat="38.086625" lon="-0.776555">
        <ele>16.6</ele>
        <time>2024-03-17T08:36:10Z</time>
      </trkpt>
      <trkpt lat="38.086528" lon="-0.776356">
        <ele>16.6</ele>
        <time>2024-03-17T08:36:25Z</time>
      </trkpt>
      <trkpt lat="38.086417" lon="-0.776166">
        <ele>13.6</ele>
        <time>2024-03-17T08:36:44Z</time>
      </trkpt>
      <trkpt lat="38.086312" lon="-0.775979">
        <ele>15.6</ele>
        <time>2024-03-17T08:37:01Z</time>
      </trkpt>
      <trkpt lat="38.086201" lon="-0.775795">
        <ele>14.7</ele>
        <time>2024-03-17T08:37:16Z</time>
      </trkpt>
      <trkpt lat="38.086096" lon="-0.775601">
        <ele>15.6</ele>
        <time>2024-03-17T08:37:34Z</time>
      </trkpt>
      <trkpt lat="38.085983" lon="-0.775419">
        <ele>13.7</ele>
        <time>2024-03-17T08:37:49Z</time>
      </trkpt>
      <trkpt lat="38.085915" lon="-0.775202">
        <ele>14.3</ele>
        <time>2024-03-17T08:38:03Z</time>
      </trkpt>
      <trkpt lat="38.085861" lon="-0.774981">
        <ele>14.6</ele>
        <time>2024-03-17T08:38:17Z</time>
      </trkpt>
      <trkpt lat="38.085783" lon="-0.774771">
        <ele>15.6</ele>
        <time>2024-03-17T08:38:30Z</time>
      </trkpt>
      <trkpt lat="38.085712" lon="-0.774558">
        <ele>15.6</ele>
        <time>2024-03-17T08:38:44Z</time>
      </trkpt>
      <trkpt lat="38.085659" lon="-0.774333">
        <ele>15.6</ele>
        <time>2024-03-17T08:38:57Z</time>
      </trkpt>
      <trkpt lat="38.085594" lon="-0.774114">
        <ele>16.6</ele>
        <time>2024-03-17T08:39:11Z</time>
      </trkpt>
      <trkpt lat="38.085532" lon="-0.773888">
        <ele>16.6</ele>
        <time>2024-03-17T08:39:26Z</time>
      </trkpt>
      <trkpt lat="38.085479" lon="-0.773663">
        <ele>16.6</ele>
        <time>2024-03-17T08:39:39Z</time>
      </trkpt>
      <trkpt lat="38.085443" lon="-0.773433">
        <ele>16.6</ele>
        <time>2024-03-17T08:39:53Z</time>
      </trkpt>
      <trkpt lat="38.085407" lon="-0.773201">
        <ele>15.6</ele>
        <time>2024-03-17T08:40:08Z</time>
      </trkpt>
      <trkpt lat="38.085368" lon="-0.772970">
        <ele>14.6</ele>
        <time>2024-03-17T08:40:23Z</time>
      </trkpt>
      <trkpt lat="38.085339" lon="-0.772737">
        <ele>13.6</ele>
        <time>2024-03-17T08:40:37Z</time>
      </trkpt>
      <trkpt lat="38.085318" lon="-0.772507">
        <ele>14.6</ele>
        <time>2024-03-17T08:40:51Z</time>
      </trkpt>
      <trkpt lat="38.085297" lon="-0.772280">
        <ele>13.6</ele>
        <time>2024-03-17T08:41:04Z</time>
      </trkpt>
      <trkpt lat="38.085277" lon="-0.772042">
        <ele>14.6</ele>
        <time>2024-03-17T08:41:18Z</time>
      </trkpt>
      <trkpt lat="38.085253" lon="-0.771802">
        <ele>14.6</ele>
        <time>2024-03-17T08:41:33Z</time>
      </trkpt>
      <trkpt lat="38.085251" lon="-0.771567">
        <ele>14.7</ele>
        <time>2024-03-17T08:41:49Z</time>
      </trkpt>
      <trkpt lat="38.085204" lon="-0.771341">
        <ele>14.6</ele>
        <time>2024-03-17T08:42:04Z</time>
      </trkpt>
      <trkpt lat="38.085184" lon="-0.771108">
        <ele>13.6</ele>
        <time>2024-03-17T08:42:20Z</time>
      </trkpt>
      <trkpt lat="38.085158" lon="-0.770880">
        <ele>14.6</ele>
        <time>2024-03-17T08:42:34Z</time>
      </trkpt>
      <trkpt lat="38.085134" lon="-0.770654">
        <ele>14.6</ele>
        <time>2024-03-17T08:42:49Z</time>
      </trkpt>
      <trkpt lat="38.085113" lon="-0.770419">
        <ele>14.6</ele>
        <time>2024-03-17T08:43:04Z</time>
      </trkpt>
      <trkpt lat="38.085089" lon="-0.770185">
        <ele>13.6</ele>
        <time>2024-03-17T08:43:19Z</time>
      </trkpt>
      <trkpt lat="38.085065" lon="-0.769956">
        <ele>13.6</ele>
        <time>2024-03-17T08:43:34Z</time>
      </trkpt>
      <trkpt lat="38.085038" lon="-0.769721">
        <ele>14.7</ele>
        <time>2024-03-17T08:43:48Z</time>
      </trkpt>
      <trkpt lat="38.085015" lon="-0.769494">
        <ele>14.3</ele>
        <time>2024-03-17T08:44:02Z</time>
      </trkpt>
      <trkpt lat="38.085018" lon="-0.769262">
        <ele>13.6</ele>
        <time>2024-03-17T08:44:17Z</time>
      </trkpt>
      <trkpt lat="38.084957" lon="-0.769045">
        <ele>14.6</ele>
        <time>2024-03-17T08:44:31Z</time>
      </trkpt>
      <trkpt lat="38.084951" lon="-0.768808">
        <ele>14.6</ele>
        <time>2024-03-17T08:44:45Z</time>
      </trkpt>
      <trkpt lat="38.084904" lon="-0.768587">
        <ele>15.6</ele>
        <time>2024-03-17T08:45:00Z</time>
      </trkpt>
      <trkpt lat="38.084899" lon="-0.768358">
        <ele>14.6</ele>
        <time>2024-03-17T08:45:14Z</time>
      </trkpt>
      <trkpt lat="38.084875" lon="-0.768123">
        <ele>14.6</ele>
        <time>2024-03-17T08:45:29Z</time>
      </trkpt>
      <trkpt lat="38.084859" lon="-0.767887">
        <ele>14.6</ele>
        <time>2024-03-17T08:45:44Z</time>
      </trkpt>
      <trkpt lat="38.084825" lon="-0.767658">
        <ele>14.6</ele>
        <time>2024-03-17T08:45:58Z</time>
      </trkpt>
      <trkpt lat="38.084808" lon="-0.767420">
        <ele>12.9</ele>
        <time>2024-03-17T08:46:12Z</time>
      </trkpt>
      <trkpt lat="38.084780" lon="-0.767183">
        <ele>14.6</ele>
        <time>2024-03-17T08:46:26Z</time>
      </trkpt>
      <trkpt lat="38.084739" lon="-0.766955">
        <ele>13.6</ele>
        <time>2024-03-17T08:46:41Z</time>
      </trkpt>
      <trkpt lat="38.084700" lon="-0.766723">
        <ele>13.6</ele>
        <time>2024-03-17T08:46:59Z</time>
      </trkpt>
      <trkpt lat="38.084620" lon="-0.766509">
        <ele>15.3</ele>
        <time>2024-03-17T08:47:13Z</time>
      </trkpt>
      <trkpt lat="38.084537" lon="-0.766302">
        <ele>14.9</ele>
        <time>2024-03-17T08:47:27Z</time>
      </trkpt>
      <trkpt lat="38.084436" lon="-0.766091">
        <ele>14.6</ele>
        <time>2024-03-17T08:47:41Z</time>
      </trkpt>
      <trkpt lat="38.084327" lon="-0.765909">
        <ele>14.6</ele>
        <time>2024-03-17T08:47:55Z</time>
      </trkpt>
      <trkpt lat="38.084195" lon="-0.765746">
        <ele>14.6</ele>
        <time>2024-03-17T08:48:09Z</time>
      </trkpt>
      <trkpt lat="38.084051" lon="-0.765602">
        <ele>16.3</ele>
        <time>2024-03-17T08:48:22Z</time>
      </trkpt>
      <trkpt lat="38.083933" lon="-0.765427">
        <ele>16.6</ele>
        <time>2024-03-17T08:48:37Z</time>
      </trkpt>
      <trkpt lat="38.083816" lon="-0.765247">
        <ele>14.6</ele>
        <time>2024-03-17T08:48:50Z</time>
      </trkpt>
      <trkpt lat="38.083694" lon="-0.765071">
        <ele>14.6</ele>
        <time>2024-03-17T08:49:05Z</time>
      </trkpt>
      <trkpt lat="38.083556" lon="-0.764911">
        <ele>15.6</ele>
        <time>2024-03-17T08:49:19Z</time>
      </trkpt>
      <trkpt lat="38.083442" lon="-0.764726">
        <ele>15.6</ele>
        <time>2024-03-17T08:49:35Z</time>
      </trkpt>
      <trkpt lat="38.083316" lon="-0.764560">
        <ele>14.6</ele>
        <time>2024-03-17T08:49:48Z</time>
      </trkpt>
      <trkpt lat="38.083166" lon="-0.764419">
        <ele>15.3</ele>
        <time>2024-03-17T08:50:02Z</time>
      </trkpt>
      <trkpt lat="38.083034" lon="-0.764256">
        <ele>15.6</ele>
        <time>2024-03-17T08:50:17Z</time>
      </trkpt>
      <trkpt lat="38.082936" lon="-0.764062">
        <ele>13.9</ele>
        <time>2024-03-17T08:50:32Z</time>
      </trkpt>
      <trkpt lat="38.082844" lon="-0.763865">
        <ele>14.6</ele>
        <time>2024-03-17T08:50:45Z</time>
      </trkpt>
      <trkpt lat="38.082771" lon="-0.763650">
        <ele>13.9</ele>
        <time>2024-03-17T08:50:59Z</time>
      </trkpt>
      <trkpt lat="38.082726" lon="-0.763418">
        <ele>13.6</ele>
        <time>2024-03-17T08:51:15Z</time>
      </trkpt>
      <trkpt lat="38.082661" lon="-0.763192">
        <ele>14.6</ele>
        <time>2024-03-17T08:51:29Z</time>
      </trkpt>
      <trkpt lat="38.082649" lon="-0.762959">
        <ele>13.7</ele>
        <time>2024-03-17T08:52:09Z</time>
      </trkpt>
      <trkpt lat="38.082650" lon="-0.762733">
        <ele>14.6</ele>
        <time>2024-03-17T08:52:23Z</time>
      </trkpt>
      <trkpt lat="38.082658" lon="-0.762488">
        <ele>15.6</ele>
        <time>2024-03-17T08:52:47Z</time>
      </trkpt>
      <trkpt lat="38.082612" lon="-0.762267">
        <ele>13.7</ele>
        <time>2024-03-17T08:53:02Z</time>
      </trkpt>
      <trkpt lat="38.082646" lon="-0.762034">
        <ele>10.6</ele>
        <time>2024-03-17T08:53:27Z</time>
      </trkpt>
      <trkpt lat="38.082733" lon="-0.761816">
        <ele>9.6</ele>
        <time>2024-03-17T08:53:40Z</time>
      </trkpt>
      <trkpt lat="38.082835" lon="-0.761612">
        <ele>6.9</ele>
        <time>2024-03-17T08:54:15Z</time>
      </trkpt>
      <trkpt lat="38.082949" lon="-0.761435">
        <ele>9.6</ele>
        <time>2024-03-17T08:54:24Z</time>
      </trkpt>
      <trkpt lat="38.083108" lon="-0.761309">
        <ele>10.6</ele>
        <time>2024-03-17T08:54:36Z</time>
      </trkpt>
      <trkpt lat="38.083280" lon="-0.761229">
        <ele>11.6</ele>
        <time>2024-03-17T08:54:58Z</time>
      </trkpt>
      <trkpt lat="38.083443" lon="-0.761126">
        <ele>12.6</ele>
        <time>2024-03-17T08:55:09Z</time>
      </trkpt>
      <trkpt lat="38.083593" lon="-0.760992">
        <ele>11.6</ele>
        <time>2024-03-17T08:55:23Z</time>
      </trkpt>
      <trkpt lat="38.083731" lon="-0.760833">
        <ele>11.6</ele>
        <time>2024-03-17T08:55:36Z</time>
      </trkpt>
      <trkpt lat="38.083882" lon="-0.760689">
        <ele>11.9</ele>
        <time>2024-03-17T08:55:49Z</time>
      </trkpt>
      <trkpt lat="38.084024" lon="-0.760549">
        <ele>11.7</ele>
        <time>2024-03-17T08:56:02Z</time>
      </trkpt>
      <trkpt lat="38.084169" lon="-0.760406">
        <ele>12.6</ele>
        <time>2024-03-17T08:56:15Z</time>
      </trkpt>
      <trkpt lat="38.084292" lon="-0.760234">
        <ele>13.6</ele>
        <time>2024-03-17T08:56:30Z</time>
      </trkpt>
      <trkpt lat="38.084395" lon="-0.760044">
        <ele>14.6</ele>
        <time>2024-03-17T08:56:46Z</time>
      </trkpt>
      <trkpt lat="38.084468" lon="-0.759825">
        <ele>15.6</ele>
        <time>2024-03-17T08:57:04Z</time>
      </trkpt>
      <trkpt lat="38.084498" lon="-0.759596">
        <ele>15.6</ele>
        <time>2024-03-17T08:57:19Z</time>
      </trkpt>
      <trkpt lat="38.084491" lon="-0.759361">
        <ele>15.6</ele>
        <time>2024-03-17T08:57:43Z</time>
      </trkpt>
      <trkpt lat="38.084471" lon="-0.759119">
        <ele>11.9</ele>
        <time>2024-03-17T08:57:57Z</time>
      </trkpt>
      <trkpt lat="38.084424" lon="-0.758896">
        <ele>12.6</ele>
        <time>2024-03-17T08:58:11Z</time>
      </trkpt>
      <trkpt lat="38.084344" lon="-0.758688">
        <ele>13.6</ele>
        <time>2024-03-17T08:58:25Z</time>
      </trkpt>
      <trkpt lat="38.084237" lon="-0.758497">
        <ele>14.6</ele>
        <time>2024-03-17T08:58:41Z</time>
      </trkpt>
      <trkpt lat="38.084108" lon="-0.758327">
        <ele>14.6</ele>
        <time>2024-03-17T08:58:58Z</time>
      </trkpt>
      <trkpt lat="38.083956" lon="-0.758192">
        <ele>15.6</ele>
        <time>2024-03-17T08:59:13Z</time>
      </trkpt>
      <trkpt lat="38.083804" lon="-0.758059">
        <ele>15.6</ele>
        <time>2024-03-17T08:59:28Z</time>
      </trkpt>
      <trkpt lat="38.083655" lon="-0.757931">
        <ele>15.6</ele>
        <time>2024-03-17T08:59:43Z</time>
      </trkpt>
      <trkpt lat="38.083497" lon="-0.757819">
        <ele>16.6</ele>
        <time>2024-03-17T08:59:57Z</time>
      </trkpt>
      <trkpt lat="38.083339" lon="-0.757699">
        <ele>15.6</ele>
        <time>2024-03-17T09:00:13Z</time>
      </trkpt>
      <trkpt lat="38.083168" lon="-0.757623">
        <ele>16.6</ele>
        <time>2024-03-17T09:00:43Z</time>
      </trkpt>
      <trkpt lat="38.083012" lon="-0.757504">
        <ele>17.6</ele>
        <time>2024-03-17T09:00:56Z</time>
      </trkpt>
      <trkpt lat="38.082857" lon="-0.757359">
        <ele>18.6</ele>
        <time>2024-03-17T09:01:10Z</time>
      </trkpt>
      <trkpt lat="38.082698" lon="-0.757251">
        <ele>19.6</ele>
        <time>2024-03-17T09:01:24Z</time>
      </trkpt>
      <trkpt lat="38.082562" lon="-0.757092">
        <ele>18.6</ele>
        <time>2024-03-17T09:01:37Z</time>
      </trkpt>
      <trkpt lat="38.082496" lon="-0.756878">
        <ele>14.6</ele>
        <time>2024-03-17T09:01:59Z</time>
      </trkpt>
      <trkpt lat="38.082445" lon="-0.756657">
        <ele>14.6</ele>
        <time>2024-03-17T09:02:12Z</time>
      </trkpt>
      <trkpt lat="38.082428" lon="-0.756422">
        <ele>15.6</ele>
        <time>2024-03-17T09:02:26Z</time>
      </trkpt>
      <trkpt lat="38.082425" lon="-0.756194">
        <ele>15.6</ele>
        <time>2024-03-17T09:02:40Z</time>
      </trkpt>
      <trkpt lat="38.082472" lon="-0.755967">
        <ele>14.6</ele>
        <time>2024-03-17T09:02:54Z</time>
      </trkpt>
      <trkpt lat="38.082502" lon="-0.755727">
        <ele>13.6</ele>
        <time>2024-03-17T09:03:08Z</time>
      </trkpt>
      <trkpt lat="38.082555" lon="-0.755498">
        <ele>13.6</ele>
        <time>2024-03-17T09:03:22Z</time>
      </trkpt>
      <trkpt lat="38.082588" lon="-0.755265">
        <ele>12.6</ele>
        <time>2024-03-17T09:03:36Z</time>
      </trkpt>
      <trkpt lat="38.082620" lon="-0.755036">
        <ele>12.6</ele>
        <time>2024-03-17T09:03:50Z</time>
      </trkpt>
      <trkpt lat="38.082666" lon="-0.754800">
        <ele>12.6</ele>
        <time>2024-03-17T09:04:04Z</time>
      </trkpt>
      <trkpt lat="38.082711" lon="-0.754576">
        <ele>11.6</ele>
        <time>2024-03-17T09:04:18Z</time>
      </trkpt>
      <trkpt lat="38.082736" lon="-0.754349">
        <ele>12.9</ele>
        <time>2024-03-17T09:04:32Z</time>
      </trkpt>
      <trkpt lat="38.082779" lon="-0.754121">
        <ele>11.6</ele>
        <time>2024-03-17T09:04:47Z</time>
      </trkpt>
      <trkpt lat="38.082815" lon="-0.753896">
        <ele>12.6</ele>
        <time>2024-03-17T09:05:01Z</time>
      </trkpt>
      <trkpt lat="38.082868" lon="-0.753669">
        <ele>12.7</ele>
        <time>2024-03-17T09:05:19Z</time>
      </trkpt>
      <trkpt lat="38.082908" lon="-0.753443">
        <ele>13.6</ele>
        <time>2024-03-17T09:05:34Z</time>
      </trkpt>
      <trkpt lat="38.082967" lon="-0.753226">
        <ele>12.7</ele>
        <time>2024-03-17T09:05:49Z</time>
      </trkpt>
      <trkpt lat="38.083013" lon="-0.752996">
        <ele>12.9</ele>
        <time>2024-03-17T09:06:04Z</time>
      </trkpt>
      <trkpt lat="38.083015" lon="-0.752766">
        <ele>12.6</ele>
        <time>2024-03-17T09:06:20Z</time>
      </trkpt>
      <trkpt lat="38.083045" lon="-0.752537">
        <ele>9.6</ele>
        <time>2024-03-17T09:08:46Z</time>
      </trkpt>
      <trkpt lat="38.083062" lon="-0.752305">
        <ele>10.6</ele>
        <time>2024-03-17T09:08:59Z</time>
      </trkpt>
      <trkpt lat="38.083082" lon="-0.752065">
        <ele>10.6</ele>
        <time>2024-03-17T09:09:12Z</time>
      </trkpt>
      <trkpt lat="38.083099" lon="-0.751829">
        <ele>10.6</ele>
        <time>2024-03-17T09:09:25Z</time>
      </trkpt>
      <trkpt lat="38.083110" lon="-0.751595">
        <ele>10.6</ele>
        <time>2024-03-17T09:09:37Z</time>
      </trkpt>
      <trkpt lat="38.083089" lon="-0.751358">
        <ele>11.6</ele>
        <time>2024-03-17T09:09:50Z</time>
      </trkpt>
      <trkpt lat="38.082959" lon="-0.751193">
        <ele>10.6</ele>
        <time>2024-03-17T09:10:03Z</time>
      </trkpt>
      <trkpt lat="38.082799" lon="-0.751059">
        <ele>9.7</ele>
        <time>2024-03-17T09:10:17Z</time>
      </trkpt>
      <trkpt lat="38.082626" lon="-0.750969">
        <ele>9.3</ele>
        <time>2024-03-17T09:10:28Z</time>
      </trkpt>
      <trkpt lat="38.082451" lon="-0.750873">
        <ele>8.6</ele>
        <time>2024-03-17T09:10:41Z</time>
      </trkpt>
      <trkpt lat="38.082311" lon="-0.750728">
        <ele>8.6</ele>
        <time>2024-03-17T09:10:54Z</time>
      </trkpt>
      <trkpt lat="38.082192" lon="-0.750543">
        <ele>9.6</ele>
        <time>2024-03-17T09:11:06Z</time>
      </trkpt>
      <trkpt lat="38.082127" lon="-0.750324">
        <ele>11.6</ele>
        <time>2024-03-17T09:11:19Z</time>
      </trkpt>
      <trkpt lat="38.082067" lon="-0.750105">
        <ele>12.6</ele>
        <time>2024-03-17T09:11:31Z</time>
      </trkpt>
      <trkpt lat="38.082022" lon="-0.749873">
        <ele>11.9</ele>
        <time>2024-03-17T09:11:44Z</time>
      </trkpt>
      <trkpt lat="38.081975" lon="-0.749641">
        <ele>11.6</ele>
        <time>2024-03-17T09:11:57Z</time>
      </trkpt>
      <trkpt lat="38.081936" lon="-0.749416">
        <ele>7.7</ele>
        <time>2024-03-17T09:12:20Z</time>
      </trkpt>
      <trkpt lat="38.081948" lon="-0.749171">
        <ele>9.9</ele>
        <time>2024-03-17T09:12:33Z</time>
      </trkpt>
      <trkpt lat="38.081981" lon="-0.748938">
        <ele>11.6</ele>
        <time>2024-03-17T09:12:46Z</time>
      </trkpt>
      <trkpt lat="38.082071" lon="-0.748731">
        <ele>10.6</ele>
        <time>2024-03-17T09:12:59Z</time>
      </trkpt>
      <trkpt lat="38.082179" lon="-0.748546">
        <ele>9.6</ele>
        <time>2024-03-17T09:13:10Z</time>
      </trkpt>
      <trkpt lat="38.082335" lon="-0.748424">
        <ele>8.9</ele>
        <time>2024-03-17T09:13:22Z</time>
      </trkpt>
      <trkpt lat="38.082514" lon="-0.748386">
        <ele>9.6</ele>
        <time>2024-03-17T09:13:35Z</time>
      </trkpt>
      <trkpt lat="38.082698" lon="-0.748389">
        <ele>12.6</ele>
        <time>2024-03-17T09:13:47Z</time>
      </trkpt>
      <trkpt lat="38.082850" lon="-0.748517">
        <ele>11.6</ele>
        <time>2024-03-17T09:14:00Z</time>
      </trkpt>
      <trkpt lat="38.082919" lon="-0.748727">
        <ele>12.6</ele>
        <time>2024-03-17T09:16:05Z</time>
      </trkpt>
      <trkpt lat="38.082873" lon="-0.748505">
        <ele>10.6</ele>
        <time>2024-03-17T09:18:54Z</time>
      </trkpt>
      <trkpt lat="38.083001" lon="-0.748344">
        <ele>10.6</ele>
        <time>2024-03-17T09:19:05Z</time>
      </trkpt>
      <trkpt lat="38.083154" lon="-0.748194">
        <ele>10.6</ele>
        <time>2024-03-17T09:19:18Z</time>
      </trkpt>
      <trkpt lat="38.083240" lon="-0.747988">
        <ele>11.6</ele>
        <time>2024-03-17T09:19:31Z</time>
      </trkpt>
      <trkpt lat="38.083246" lon="-0.747751">
        <ele>10.6</ele>
        <time>2024-03-17T09:19:43Z</time>
      </trkpt>
      <trkpt lat="38.083175" lon="-0.747536">
        <ele>9.6</ele>
        <time>2024-03-17T09:19:57Z</time>
      </trkpt>
      <trkpt lat="38.083059" lon="-0.747360">
        <ele>9.6</ele>
        <time>2024-03-17T09:20:10Z</time>
      </trkpt>
      <trkpt lat="38.082939" lon="-0.747189">
        <ele>9.6</ele>
        <time>2024-03-17T09:20:24Z</time>
      </trkpt>
      <trkpt lat="38.082830" lon="-0.746996">
        <ele>8.6</ele>
        <time>2024-03-17T09:20:37Z</time>
      </trkpt>
      <trkpt lat="38.082734" lon="-0.746802">
        <ele>8.6</ele>
        <time>2024-03-17T09:20:49Z</time>
      </trkpt>
      <trkpt lat="38.082643" lon="-0.746596">
        <ele>7.7</ele>
        <time>2024-03-17T09:21:03Z</time>
      </trkpt>
      <trkpt lat="38.082563" lon="-0.746384">
        <ele>7.7</ele>
        <time>2024-03-17T09:21:17Z</time>
      </trkpt>
      <trkpt lat="38.082499" lon="-0.746167">
        <ele>10.4</ele>
        <time>2024-03-17T09:21:29Z</time>
      </trkpt>
      <trkpt lat="38.082444" lon="-0.745937">
        <ele>10.6</ele>
        <time>2024-03-17T09:21:43Z</time>
      </trkpt>
      <trkpt lat="38.082419" lon="-0.745710">
        <ele>9.6</ele>
        <time>2024-03-17T09:21:56Z</time>
      </trkpt>
      <trkpt lat="38.082458" lon="-0.745472">
        <ele>10.6</ele>
        <time>2024-03-17T09:22:21Z</time>
      </trkpt>
      <trkpt lat="38.082464" lon="-0.745243">
        <ele>10.7</ele>
        <time>2024-03-17T09:22:40Z</time>
      </trkpt>
      <trkpt lat="38.082504" lon="-0.745015">
        <ele>11.7</ele>
        <time>2024-03-17T09:22:52Z</time>
      </trkpt>
      <trkpt lat="38.082573" lon="-0.744790">
        <ele>11.6</ele>
        <time>2024-03-17T09:23:04Z</time>
      </trkpt>
      <trkpt lat="38.082658" lon="-0.744573">
        <ele>10.6</ele>
        <time>2024-03-17T09:23:17Z</time>
      </trkpt>
      <trkpt lat="38.082762" lon="-0.744376">
        <ele>10.6</ele>
        <time>2024-03-17T09:23:29Z</time>
      </trkpt>
      <trkpt lat="38.082878" lon="-0.744201">
        <ele>10.6</ele>
        <time>2024-03-17T09:23:42Z</time>
      </trkpt>
      <trkpt lat="38.082991" lon="-0.744016">
        <ele>10.6</ele>
        <time>2024-03-17T09:23:54Z</time>
      </trkpt>
      <trkpt lat="38.083108" lon="-0.743842">
        <ele>10.6</ele>
        <time>2024-03-17T09:24:05Z</time>
      </trkpt>
      <trkpt lat="38.083162" lon="-0.743746">
        <ele>11.6</ele>
        <time>2024-03-17T09:24:22Z</time>
      </trkpt>
      <trkpt lat="38.083240" lon="-0.743611">
        <ele>11.9</ele>
        <time>2024-03-17T09:24:36Z</time>
      </trkpt>
      <trkpt lat="38.083362" lon="-0.743493">
        <ele>10.6</ele>
        <time>2024-03-17T09:25:01Z</time>
      </trkpt>
      <trkpt lat="38.083423" lon="-0.743410">
        <ele>11.7</ele>
        <time>2024-03-17T09:26:15Z</time>
      </trkpt>
      <trkpt lat="38.083463" lon="-0.743379">
        <ele>12.7</ele>
        <time>2024-03-17T09:26:32Z</time>
      </trkpt>
      <trkpt lat="38.083646" lon="-0.743580">
        <ele>11.7</ele>
        <time>2024-03-17T09:26:49Z</time>
      </trkpt>
      <trkpt lat="38.083658" lon="-0.743524">
        <ele>10.6</ele>
        <time>2024-03-17T09:49:30Z</time>
      </trkpt>
      <trkpt lat="38.083520" lon="-0.743328">
        <ele>10.6</ele>
        <time>2024-03-17T09:49:57Z</time>
      </trkpt>
      <trkpt lat="38.083568" lon="-0.743230">
        <ele>8.6</ele>
        <time>2024-03-17T09:50:23Z</time>
      </trkpt>
      <trkpt lat="38.083626" lon="-0.743142">
        <ele>7.4</ele>
        <time>2024-03-17T09:50:52Z</time>
      </trkpt>
      <trkpt lat="38.083711" lon="-0.743013">
        <ele>7.7</ele>
        <time>2024-03-17T09:51:10Z</time>
      </trkpt>
      <trkpt lat="38.083752" lon="-0.742951">
        <ele>7.6</ele>
        <time>2024-03-17T09:51:23Z</time>
      </trkpt>
      <trkpt lat="38.083817" lon="-0.742880">
        <ele>6.7</ele>
        <time>2024-03-17T09:51:38Z</time>
      </trkpt>
      <trkpt lat="38.083904" lon="-0.742669">
        <ele>7.7</ele>
        <time>2024-03-17T09:51:50Z</time>
      </trkpt>
      <trkpt lat="38.084027" lon="-0.742499">
        <ele>9.6</ele>
        <time>2024-03-17T09:52:02Z</time>
      </trkpt>
      <trkpt lat="38.084144" lon="-0.742314">
        <ele>9.6</ele>
        <time>2024-03-17T09:52:16Z</time>
      </trkpt>
      <trkpt lat="38.084267" lon="-0.742140">
        <ele>9.6</ele>
        <time>2024-03-17T09:52:28Z</time>
      </trkpt>
      <trkpt lat="38.084391" lon="-0.741964">
        <ele>8.7</ele>
        <time>2024-03-17T09:52:41Z</time>
      </trkpt>
      <trkpt lat="38.084517" lon="-0.741792">
        <ele>8.6</ele>
        <time>2024-03-17T09:52:54Z</time>
      </trkpt>
      <trkpt lat="38.084622" lon="-0.741603">
        <ele>7.7</ele>
        <time>2024-03-17T09:53:24Z</time>
      </trkpt>
      <trkpt lat="38.084746" lon="-0.741432">
        <ele>9.6</ele>
        <time>2024-03-17T09:54:01Z</time>
      </trkpt>
      <trkpt lat="38.084859" lon="-0.741252">
        <ele>8.9</ele>
        <time>2024-03-17T09:54:16Z</time>
      </trkpt>
      <trkpt lat="38.084972" lon="-0.741072">
        <ele>9.7</ele>
        <time>2024-03-17T09:55:05Z</time>
      </trkpt>
      <trkpt lat="38.085089" lon="-0.740893">
        <ele>7.9</ele>
        <time>2024-03-17T09:55:19Z</time>
      </trkpt>
      <trkpt lat="38.085229" lon="-0.740736">
        <ele>8.6</ele>
        <time>2024-03-17T09:55:33Z</time>
      </trkpt>
      <trkpt lat="38.085329" lon="-0.740545">
        <ele>8.6</ele>
        <time>2024-03-17T09:55:46Z</time>
      </trkpt>
      <trkpt lat="38.085419" lon="-0.740337">
        <ele>10.6</ele>
        <time>2024-03-17T09:56:02Z</time>
      </trkpt>
      <trkpt lat="38.085499" lon="-0.740126">
        <ele>9.6</ele>
        <time>2024-03-17T09:56:17Z</time>
      </trkpt>
      <trkpt lat="38.085569" lon="-0.739907">
        <ele>9.6</ele>
        <time>2024-03-17T09:56:34Z</time>
      </trkpt>
      <trkpt lat="38.085642" lon="-0.739694">
        <ele>9.6</ele>
        <time>2024-03-17T09:56:49Z</time>
      </trkpt>
      <trkpt lat="38.085710" lon="-0.739481">
        <ele>10.6</ele>
        <time>2024-03-17T09:57:07Z</time>
      </trkpt>
      <trkpt lat="38.085741" lon="-0.739256">
        <ele>9.6</ele>
        <time>2024-03-17T09:57:23Z</time>
      </trkpt>
      <trkpt lat="38.085786" lon="-0.739030">
        <ele>10.4</ele>
        <time>2024-03-17T09:57:39Z</time>
      </trkpt>
      <trkpt lat="38.085816" lon="-0.738800">
        <ele>10.6</ele>
        <time>2024-03-17T09:57:56Z</time>
      </trkpt>
      <trkpt lat="38.085861" lon="-0.738574">
        <ele>7.7</ele>
        <time>2024-03-17T09:58:18Z</time>
      </trkpt>
      <trkpt lat="38.085898" lon="-0.738344">
        <ele>7.7</ele>
        <time>2024-03-17T09:58:35Z</time>
      </trkpt>
      <trkpt lat="38.085931" lon="-0.738113">
        <ele>8.6</ele>
        <time>2024-03-17T09:58:50Z</time>
      </trkpt>
      <trkpt lat="38.085930" lon="-0.737877">
        <ele>9.6</ele>
        <time>2024-03-17T09:59:09Z</time>
      </trkpt>
      <trkpt lat="38.085913" lon="-0.737648">
        <ele>8.7</ele>
        <time>2024-03-17T09:59:26Z</time>
      </trkpt>
      <trkpt lat="38.085867" lon="-0.737425">
        <ele>9.7</ele>
        <time>2024-03-17T09:59:40Z</time>
      </trkpt>
      <trkpt lat="38.085808" lon="-0.737205">
        <ele>9.6</ele>
        <time>2024-03-17T09:59:54Z</time>
      </trkpt>
      <trkpt lat="38.085798" lon="-0.736972">
        <ele>9.6</ele>
        <time>2024-03-17T10:00:07Z</time>
      </trkpt>
      <trkpt lat="38.085761" lon="-0.736738">
        <ele>9.6</ele>
        <time>2024-03-17T10:00:21Z</time>
      </trkpt>
      <trkpt lat="38.085729" lon="-0.736508">
        <ele>8.6</ele>
        <time>2024-03-17T10:00:34Z</time>
      </trkpt>
      <trkpt lat="38.085681" lon="-0.736285">
        <ele>9.6</ele>
        <time>2024-03-17T10:00:48Z</time>
      </trkpt>
      <trkpt lat="38.085652" lon="-0.736053">
        <ele>8.7</ele>
        <time>2024-03-17T10:01:04Z</time>
      </trkpt>
      <trkpt lat="38.085595" lon="-0.735827">
        <ele>8.6</ele>
        <time>2024-03-17T10:01:21Z</time>
      </trkpt>
      <trkpt lat="38.085574" lon="-0.735597">
        <ele>7.7</ele>
        <time>2024-03-17T10:01:35Z</time>
      </trkpt>
      <trkpt lat="38.085524" lon="-0.735375">
        <ele>9.7</ele>
        <time>2024-03-17T10:01:51Z</time>
      </trkpt>
      <trkpt lat="38.085487" lon="-0.735150">
        <ele>9.7</ele>
        <time>2024-03-17T10:02:07Z</time>
      </trkpt>
      <trkpt lat="38.085453" lon="-0.734920">
        <ele>9.7</ele>
        <time>2024-03-17T10:02:23Z</time>
      </trkpt>
      <trkpt lat="38.085400" lon="-0.734698">
        <ele>8.7</ele>
        <time>2024-03-17T10:02:40Z</time>
      </trkpt>
      <trkpt lat="38.085360" lon="-0.734473">
        <ele>10.6</ele>
        <time>2024-03-17T10:02:57Z</time>
      </trkpt>
      <trkpt lat="38.085331" lon="-0.734247">
        <ele>8.7</ele>
        <time>2024-03-17T10:03:12Z</time>
      </trkpt>
      <trkpt lat="38.085292" lon="-0.734023">
        <ele>9.7</ele>
        <time>2024-03-17T10:03:28Z</time>
      </trkpt>
      <trkpt lat="38.085247" lon="-0.733795">
        <ele>10.7</ele>
        <time>2024-03-17T10:03:43Z</time>
      </trkpt>
      <trkpt lat="38.085219" lon="-0.733564">
        <ele>9.7</ele>
        <time>2024-03-17T10:03:59Z</time>
      </trkpt>
      <trkpt lat="38.085197" lon="-0.733325">
        <ele>9.4</ele>
        <time>2024-03-17T10:04:16Z</time>
      </trkpt>
      <trkpt lat="38.085170" lon="-0.733094">
        <ele>9.7</ele>
        <time>2024-03-17T10:04:32Z</time>
      </trkpt>
      <trkpt lat="38.085152" lon="-0.732861">
        <ele>8.7</ele>
        <time>2024-03-17T10:04:47Z</time>
      </trkpt>
      <trkpt lat="38.085169" lon="-0.732631">
        <ele>8.7</ele>
        <time>2024-03-17T10:05:03Z</time>
      </trkpt>
      <trkpt lat="38.085174" lon="-0.732400">
        <ele>7.7</ele>
        <time>2024-03-17T10:05:20Z</time>
      </trkpt>
      <trkpt lat="38.085228" lon="-0.732178">
        <ele>6.7</ele>
        <time>2024-03-17T10:05:35Z</time>
      </trkpt>
      <trkpt lat="38.085314" lon="-0.731977">
        <ele>4.7</ele>
        <time>2024-03-17T10:05:51Z</time>
      </trkpt>
      <trkpt lat="38.085356" lon="-0.731743">
        <ele>2.7</ele>
        <time>2024-03-17T10:06:11Z</time>
      </trkpt>
      <trkpt lat="38.085426" lon="-0.731528">
        <ele>2.7</ele>
        <time>2024-03-17T10:06:25Z</time>
      </trkpt>
      <trkpt lat="38.085483" lon="-0.731317">
        <ele>5.7</ele>
        <time>2024-03-17T10:06:42Z</time>
      </trkpt>
      <trkpt lat="38.085591" lon="-0.731118">
        <ele>4.7</ele>
        <time>2024-03-17T10:07:02Z</time>
      </trkpt>
      <trkpt lat="38.085724" lon="-0.730956">
        <ele>3.7</ele>
        <time>2024-03-17T10:07:15Z</time>
      </trkpt>
      <trkpt lat="38.085851" lon="-0.730788">
        <ele>3.7</ele>
        <time>2024-03-17T10:07:30Z</time>
      </trkpt>
      <trkpt lat="38.085957" lon="-0.730600">
        <ele>4.7</ele>
        <time>2024-03-17T10:07:45Z</time>
      </trkpt>
      <trkpt lat="38.086102" lon="-0.730457">
        <ele>7.6</ele>
        <time>2024-03-17T10:08:02Z</time>
      </trkpt>
      <trkpt lat="38.086205" lon="-0.730267">
        <ele>7.7</ele>
        <time>2024-03-17T10:08:18Z</time>
      </trkpt>
      <trkpt lat="38.086351" lon="-0.730118">
        <ele>9.0</ele>
        <time>2024-03-17T10:08:34Z</time>
      </trkpt>
      <trkpt lat="38.086495" lon="-0.729981">
        <ele>6.7</ele>
        <time>2024-03-17T10:08:51Z</time>
      </trkpt>
      <trkpt lat="38.086646" lon="-0.729852">
        <ele>7.7</ele>
        <time>2024-03-17T10:09:05Z</time>
      </trkpt>
      <trkpt lat="38.086806" lon="-0.729740">
        <ele>7.6</ele>
        <time>2024-03-17T10:09:20Z</time>
      </trkpt>
      <trkpt lat="38.086962" lon="-0.729614">
        <ele>5.8</ele>
        <time>2024-03-17T10:09:38Z</time>
      </trkpt>
      <trkpt lat="38.087111" lon="-0.729475">
        <ele>2.7</ele>
        <time>2024-03-17T10:09:57Z</time>
      </trkpt>
      <trkpt lat="38.087268" lon="-0.729349">
        <ele>3.7</ele>
        <time>2024-03-17T10:10:11Z</time>
      </trkpt>
      <trkpt lat="38.087437" lon="-0.729262">
        <ele>6.7</ele>
        <time>2024-03-17T10:10:36Z</time>
      </trkpt>
      <trkpt lat="38.087594" lon="-0.729140">
        <ele>7.7</ele>
        <time>2024-03-17T10:10:50Z</time>
      </trkpt>
      <trkpt lat="38.087742" lon="-0.728997">
        <ele>9.4</ele>
        <time>2024-03-17T10:11:03Z</time>
      </trkpt>
      <trkpt lat="38.087803" lon="-0.728773">
        <ele>9.9</ele>
        <time>2024-03-17T10:11:17Z</time>
      </trkpt>
      <trkpt lat="38.087829" lon="-0.728540">
        <ele>9.0</ele>
        <time>2024-03-17T10:11:38Z</time>
      </trkpt>
      <trkpt lat="38.087849" lon="-0.728304">
        <ele>6.7</ele>
        <time>2024-03-17T10:11:52Z</time>
      </trkpt>
      <trkpt lat="38.087813" lon="-0.728070">
        <ele>7.7</ele>
        <time>2024-03-17T10:12:06Z</time>
      </trkpt>
      <trkpt lat="38.087735" lon="-0.727856">
        <ele>7.7</ele>
        <time>2024-03-17T10:12:19Z</time>
      </trkpt>
      <trkpt lat="38.087671" lon="-0.727639">
        <ele>6.7</ele>
        <time>2024-03-17T10:12:33Z</time>
      </trkpt>
      <trkpt lat="38.087600" lon="-0.727430">
        <ele>4.7</ele>
        <time>2024-03-17T10:12:47Z</time>
      </trkpt>
      <trkpt lat="38.087505" lon="-0.727221">
        <ele>4.7</ele>
        <time>2024-03-17T10:13:03Z</time>
      </trkpt>
      <trkpt lat="38.087386" lon="-0.727046">
        <ele>6.7</ele>
        <time>2024-03-17T10:13:17Z</time>
      </trkpt>
      <trkpt lat="38.087287" lon="-0.726845">
        <ele>3.7</ele>
        <time>2024-03-17T10:13:34Z</time>
      </trkpt>
      <trkpt lat="38.087180" lon="-0.726660">
        <ele>2.7</ele>
        <time>2024-03-17T10:13:49Z</time>
      </trkpt>
      <trkpt lat="38.087075" lon="-0.726465">
        <ele>0.7</ele>
        <time>2024-03-17T10:14:19Z</time>
      </trkpt>
      <trkpt lat="38.086997" lon="-0.726254">
        <ele>0.7</ele>
        <time>2024-03-17T10:14:34Z</time>
      </trkpt>
      <trkpt lat="38.086913" lon="-0.726039">
        <ele>2.8</ele>
        <time>2024-03-17T10:14:58Z</time>
      </trkpt>
      <trkpt lat="38.086900" lon="-0.725800">
        <ele>4.6</ele>
        <time>2024-03-17T10:15:10Z</time>
      </trkpt>
      <trkpt lat="38.086911" lon="-0.725570">
        <ele>6.8</ele>
        <time>2024-03-17T10:15:55Z</time>
      </trkpt>
      <trkpt lat="38.086960" lon="-0.725345">
        <ele>5.7</ele>
        <time>2024-03-17T10:17:01Z</time>
      </trkpt>
      <trkpt lat="38.087062" lon="-0.725149">
        <ele>6.7</ele>
        <time>2024-03-17T10:17:17Z</time>
      </trkpt>
      <trkpt lat="38.087094" lon="-0.724920">
        <ele>5.7</ele>
        <time>2024-03-17T10:17:36Z</time>
      </trkpt>
      <trkpt lat="38.087165" lon="-0.724709">
        <ele>5.7</ele>
        <time>2024-03-17T10:25:50Z</time>
      </trkpt>
      <trkpt lat="38.087223" lon="-0.724491">
        <ele>2.7</ele>
        <time>2024-03-17T10:26:08Z</time>
      </trkpt>
      <trkpt lat="38.087280" lon="-0.724272">
        <ele>3.7</ele>
        <time>2024-03-17T10:26:24Z</time>
      </trkpt>
      <trkpt lat="38.087329" lon="-0.724051">
        <ele>2.7</ele>
        <time>2024-03-17T10:26:51Z</time>
      </trkpt>
      <trkpt lat="38.087419" lon="-0.723846">
        <ele>6.4</ele>
        <time>2024-03-17T10:27:15Z</time>
      </trkpt>
      <trkpt lat="38.087517" lon="-0.723644">
        <ele>4.7</ele>
        <time>2024-03-17T10:27:41Z</time>
      </trkpt>
      <trkpt lat="38.087529" lon="-0.723416">
        <ele>3.7</ele>
        <time>2024-03-17T10:28:04Z</time>
      </trkpt>
      <trkpt lat="38.087466" lon="-0.723183">
        <ele>4.0</ele>
        <time>2024-03-17T10:29:42Z</time>
      </trkpt>
      <trkpt lat="38.087502" lon="-0.722948">
        <ele>4.7</ele>
        <time>2024-03-17T10:30:02Z</time>
      </trkpt>
      <trkpt lat="38.087682" lon="-0.722895">
        <ele>5.6</ele>
        <time>2024-03-17T10:30:20Z</time>
      </trkpt>
      <trkpt lat="38.087828" lon="-0.722746">
        <ele>5.7</ele>
        <time>2024-03-17T10:30:33Z</time>
      </trkpt>
      <trkpt lat="38.088010" lon="-0.722708">
        <ele>5.8</ele>
        <time>2024-03-17T10:30:45Z</time>
      </trkpt>
      <trkpt lat="38.088186" lon="-0.722624">
        <ele>4.6</ele>
        <time>2024-03-17T10:31:00Z</time>
      </trkpt>
      <trkpt lat="38.088324" lon="-0.722469">
        <ele>3.7</ele>
        <time>2024-03-17T10:32:03Z</time>
      </trkpt>
      <trkpt lat="38.088427" lon="-0.722282">
        <ele>4.7</ele>
        <time>2024-03-17T10:32:41Z</time>
      </trkpt>
      <trkpt lat="38.088562" lon="-0.722123">
        <ele>8.3</ele>
        <time>2024-03-17T10:32:56Z</time>
      </trkpt>
      <trkpt lat="38.088673" lon="-0.721942">
        <ele>10.7</ele>
        <time>2024-03-17T10:33:11Z</time>
      </trkpt>
      <trkpt lat="38.088790" lon="-0.721758">
        <ele>9.7</ele>
        <time>2024-03-17T10:33:32Z</time>
      </trkpt>
      <trkpt lat="38.088919" lon="-0.721599">
        <ele>9.7</ele>
        <time>2024-03-17T10:33:46Z</time>
      </trkpt>
      <trkpt lat="38.089009" lon="-0.721386">
        <ele>7.7</ele>
        <time>2024-03-17T10:34:05Z</time>
      </trkpt>
      <trkpt lat="38.089115" lon="-0.721196">
        <ele>6.7</ele>
        <time>2024-03-17T10:34:21Z</time>
      </trkpt>
      <trkpt lat="38.089252" lon="-0.721037">
        <ele>6.6</ele>
        <time>2024-03-17T10:34:35Z</time>
      </trkpt>
      <trkpt lat="38.089356" lon="-0.720833">
        <ele>6.7</ele>
        <time>2024-03-17T10:34:50Z</time>
      </trkpt>
      <trkpt lat="38.089419" lon="-0.720619">
        <ele>7.7</ele>
        <time>2024-03-17T10:35:04Z</time>
      </trkpt>
      <trkpt lat="38.089423" lon="-0.720384">
        <ele>7.7</ele>
        <time>2024-03-17T10:35:18Z</time>
      </trkpt>
      <trkpt lat="38.089394" lon="-0.720156">
        <ele>5.7</ele>
        <time>2024-03-17T10:35:46Z</time>
      </trkpt>
      <trkpt lat="38.089329" lon="-0.719939">
        <ele>4.7</ele>
        <time>2024-03-17T10:35:59Z</time>
      </trkpt>
      <trkpt lat="38.089215" lon="-0.719757">
        <ele>5.4</ele>
        <time>2024-03-17T10:36:12Z</time>
      </trkpt>
      <trkpt lat="38.089095" lon="-0.719566">
        <ele>4.7</ele>
        <time>2024-03-17T10:36:24Z</time>
      </trkpt>
      <trkpt lat="38.088977" lon="-0.719386">
        <ele>6.7</ele>
        <time>2024-03-17T10:36:36Z</time>
      </trkpt>
      <trkpt lat="38.088897" lon="-0.719173">
        <ele>5.8</ele>
        <time>2024-03-17T10:36:49Z</time>
      </trkpt>
      <trkpt lat="38.088840" lon="-0.718937">
        <ele>6.0</ele>
        <time>2024-03-17T10:37:03Z</time>
      </trkpt>
      <trkpt lat="38.088777" lon="-0.718722">
        <ele>4.7</ele>
        <time>2024-03-17T10:37:16Z</time>
      </trkpt>
      <trkpt lat="38.088732" lon="-0.718497">
        <ele>3.7</ele>
        <time>2024-03-17T10:37:29Z</time>
      </trkpt>
      <trkpt lat="38.088760" lon="-0.718267">
        <ele>3.7</ele>
        <time>2024-03-17T10:37:44Z</time>
      </trkpt>
      <trkpt lat="38.088730" lon="-0.718038">
        <ele>3.0</ele>
        <time>2024-03-17T10:37:57Z</time>
      </trkpt>
      <trkpt lat="38.088752" lon="-0.717801">
        <ele>3.7</ele>
        <time>2024-03-17T10:38:11Z</time>
      </trkpt>
      <trkpt lat="38.088771" lon="-0.717565">
        <ele>2.7</ele>
        <time>2024-03-17T10:38:25Z</time>
      </trkpt>
      <trkpt lat="38.088840" lon="-0.717338">
        <ele>2.7</ele>
        <time>2024-03-17T10:38:39Z</time>
      </trkpt>
      <trkpt lat="38.088889" lon="-0.717113">
        <ele>2.7</ele>
        <time>2024-03-17T10:38:53Z</time>
      </trkpt>
      <trkpt lat="38.088973" lon="-0.716905">
        <ele>2.7</ele>
        <time>2024-03-17T10:39:06Z</time>
      </trkpt>
      <trkpt lat="38.089075" lon="-0.716716">
        <ele>2.0</ele>
        <time>2024-03-17T10:39:20Z</time>
      </trkpt>
      <trkpt lat="38.089196" lon="-0.716539">
        <ele>2.7</ele>
        <time>2024-03-17T10:39:34Z</time>
      </trkpt>
      <trkpt lat="38.089347" lon="-0.716395">
        <ele>2.7</ele>
        <time>2024-03-17T10:39:47Z</time>
      </trkpt>
      <trkpt lat="38.089487" lon="-0.716242">
        <ele>3.7</ele>
        <time>2024-03-17T10:40:00Z</time>
      </trkpt>
      <trkpt lat="38.089642" lon="-0.716120">
        <ele>2.7</ele>
        <time>2024-03-17T10:40:15Z</time>
      </trkpt>
      <trkpt lat="38.089798" lon="-0.715998">
        <ele>3.7</ele>
        <time>2024-03-17T10:40:31Z</time>
      </trkpt>
      <trkpt lat="38.089931" lon="-0.715837">
        <ele>2.7</ele>
        <time>2024-03-17T10:40:44Z</time>
      </trkpt>
      <trkpt lat="38.090081" lon="-0.715707">
        <ele>4.6</ele>
        <time>2024-03-17T10:40:58Z</time>
      </trkpt>
      <trkpt lat="38.090217" lon="-0.715549">
        <ele>4.7</ele>
        <time>2024-03-17T10:41:12Z</time>
      </trkpt>
      <trkpt lat="38.090332" lon="-0.715372">
        <ele>5.7</ele>
        <time>2024-03-17T10:41:26Z</time>
      </trkpt>
      <trkpt lat="38.090425" lon="-0.715175">
        <ele>4.7</ele>
        <time>2024-03-17T10:41:40Z</time>
      </trkpt>
      <trkpt lat="38.090503" lon="-0.714966">
        <ele>6.7</ele>
        <time>2024-03-17T10:41:54Z</time>
      </trkpt>
      <trkpt lat="38.090573" lon="-0.714744">
        <ele>3.7</ele>
        <time>2024-03-17T10:42:11Z</time>
      </trkpt>
      <trkpt lat="38.090615" lon="-0.714520">
        <ele>5.7</ele>
        <time>2024-03-17T10:42:24Z</time>
      </trkpt>
      <trkpt lat="38.090643" lon="-0.714289">
        <ele>5.7</ele>
        <time>2024-03-17T10:42:38Z</time>
      </trkpt>
      <trkpt lat="38.090689" lon="-0.714063">
        <ele>4.7</ele>
        <time>2024-03-17T10:42:52Z</time>
      </trkpt>
      <trkpt lat="38.090738" lon="-0.713836">
        <ele>4.7</ele>
        <time>2024-03-17T10:43:05Z</time>
      </trkpt>
      <trkpt lat="38.090815" lon="-0.713627">
        <ele>4.7</ele>
        <time>2024-03-17T10:43:19Z</time>
      </trkpt>
      <trkpt lat="38.090895" lon="-0.713414">
        <ele>4.7</ele>
        <time>2024-03-17T10:43:33Z</time>
      </trkpt>
      <trkpt lat="38.090978" lon="-0.713204">
        <ele>3.7</ele>
        <time>2024-03-17T10:43:48Z</time>
      </trkpt>
      <trkpt lat="38.091108" lon="-0.713004">
        <ele>1.7</ele>
        <time>2024-03-17T10:44:15Z</time>
      </trkpt>
      <trkpt lat="38.091172" lon="-0.712788">
        <ele>2.7</ele>
        <time>2024-03-17T10:44:23Z</time>
      </trkpt>
      <trkpt lat="38.091329" lon="-0.712669">
        <ele>3.7</ele>
        <time>2024-03-17T10:44:36Z</time>
      </trkpt>
      <trkpt lat="38.091478" lon="-0.712537">
        <ele>4.7</ele>
        <time>2024-03-17T10:44:49Z</time>
      </trkpt>
      <trkpt lat="38.091640" lon="-0.712422">
        <ele>4.7</ele>
        <time>2024-03-17T10:45:03Z</time>
      </trkpt>
      <trkpt lat="38.091799" lon="-0.712309">
        <ele>4.7</ele>
        <time>2024-03-17T10:45:16Z</time>
      </trkpt>
      <trkpt lat="38.091959" lon="-0.712194">
        <ele>5.7</ele>
        <time>2024-03-17T10:45:30Z</time>
      </trkpt>
      <trkpt lat="38.092126" lon="-0.712081">
        <ele>4.7</ele>
        <time>2024-03-17T10:45:43Z</time>
      </trkpt>
      <trkpt lat="38.092288" lon="-0.711975">
        <ele>4.7</ele>
        <time>2024-03-17T10:45:56Z</time>
      </trkpt>
      <trkpt lat="38.092447" lon="-0.711857">
        <ele>5.7</ele>
        <time>2024-03-17T10:46:10Z</time>
      </trkpt>
      <trkpt lat="38.092596" lon="-0.711721">
        <ele>5.6</ele>
        <time>2024-03-17T10:46:23Z</time>
      </trkpt>
      <trkpt lat="38.092723" lon="-0.711557">
        <ele>4.7</ele>
        <time>2024-03-17T10:46:36Z</time>
      </trkpt>
      <trkpt lat="38.092847" lon="-0.711377">
        <ele>3.0</ele>
        <time>2024-03-17T10:46:49Z</time>
      </trkpt>
      <trkpt lat="38.092936" lon="-0.711174">
        <ele>3.7</ele>
        <time>2024-03-17T10:47:02Z</time>
      </trkpt>
      <trkpt lat="38.092999" lon="-0.710951">
        <ele>4.7</ele>
        <time>2024-03-17T10:47:15Z</time>
      </trkpt>
      <trkpt lat="38.093075" lon="-0.710740">
        <ele>5.4</ele>
        <time>2024-03-17T10:47:29Z</time>
      </trkpt>
      <trkpt lat="38.093080" lon="-0.710506">
        <ele>4.0</ele>
        <time>2024-03-17T10:47:44Z</time>
      </trkpt>
      <trkpt lat="38.093102" lon="-0.710266">
        <ele>3.7</ele>
        <time>2024-03-17T10:47:57Z</time>
      </trkpt>
      <trkpt lat="38.093112" lon="-0.710031">
        <ele>3.7</ele>
        <time>2024-03-17T10:48:10Z</time>
      </trkpt>
      <trkpt lat="38.093087" lon="-0.709797">
        <ele>3.7</ele>
        <time>2024-03-17T10:48:23Z</time>
      </trkpt>
      <trkpt lat="38.093033" lon="-0.709576">
        <ele>4.7</ele>
        <time>2024-03-17T10:48:35Z</time>
      </trkpt>
      <trkpt lat="38.092975" lon="-0.709354">
        <ele>3.7</ele>
        <time>2024-03-17T10:48:49Z</time>
      </trkpt>
      <trkpt lat="38.092904" lon="-0.709142">
        <ele>5.4</ele>
        <time>2024-03-17T10:49:02Z</time>
      </trkpt>
      <trkpt lat="38.092811" lon="-0.708945">
        <ele>5.7</ele>
        <time>2024-03-17T10:49:15Z</time>
      </trkpt>
      <trkpt lat="38.092724" lon="-0.708742">
        <ele>5.7</ele>
        <time>2024-03-17T10:49:27Z</time>
      </trkpt>
      <trkpt lat="38.092669" lon="-0.708523">
        <ele>5.7</ele>
        <time>2024-03-17T10:49:40Z</time>
      </trkpt>
      <trkpt lat="38.092617" lon="-0.708301">
        <ele>4.7</ele>
        <time>2024-03-17T10:49:54Z</time>
      </trkpt>
      <trkpt lat="38.092579" lon="-0.708069">
        <ele>4.7</ele>
        <time>2024-03-17T10:50:07Z</time>
      </trkpt>
      <trkpt lat="38.092572" lon="-0.707832">
        <ele>4.7</ele>
        <time>2024-03-17T10:50:22Z</time>
      </trkpt>
      <trkpt lat="38.092577" lon="-0.707600">
        <ele>5.7</ele>
        <time>2024-03-17T10:50:36Z</time>
      </trkpt>
      <trkpt lat="38.092605" lon="-0.707369">
        <ele>5.7</ele>
        <time>2024-03-17T10:50:50Z</time>
      </trkpt>
      <trkpt lat="38.092647" lon="-0.707140">
        <ele>7.7</ele>
        <time>2024-03-17T10:51:04Z</time>
      </trkpt>
      <trkpt lat="38.092683" lon="-0.706916">
        <ele>6.7</ele>
        <time>2024-03-17T10:51:18Z</time>
      </trkpt>
      <trkpt lat="38.092719" lon="-0.706690">
        <ele>5.7</ele>
        <time>2024-03-17T10:51:31Z</time>
      </trkpt>
      <trkpt lat="38.092800" lon="-0.706484">
        <ele>5.7</ele>
        <time>2024-03-17T10:51:44Z</time>
      </trkpt>
      <trkpt lat="38.092841" lon="-0.706256">
        <ele>4.6</ele>
        <time>2024-03-17T10:51:58Z</time>
      </trkpt>
      <trkpt lat="38.092877" lon="-0.706030">
        <ele>5.7</ele>
        <time>2024-03-17T10:52:12Z</time>
      </trkpt>
      <trkpt lat="38.092908" lon="-0.705796">
        <ele>5.7</ele>
        <time>2024-03-17T10:52:27Z</time>
      </trkpt>
      <trkpt lat="38.092956" lon="-0.705574">
        <ele>5.7</ele>
        <time>2024-03-17T10:52:40Z</time>
      </trkpt>
      <trkpt lat="38.093003" lon="-0.705345">
        <ele>4.7</ele>
        <time>2024-03-17T10:52:54Z</time>
      </trkpt>
      <trkpt lat="38.093027" lon="-0.705113">
        <ele>3.7</ele>
        <time>2024-03-17T10:53:10Z</time>
      </trkpt>
      <trkpt lat="38.093085" lon="-0.704892">
        <ele>3.7</ele>
        <time>2024-03-17T10:53:25Z</time>
      </trkpt>
      <trkpt lat="38.093122" lon="-0.704667">
        <ele>4.7</ele>
        <time>2024-03-17T10:53:50Z</time>
      </trkpt>
      <trkpt lat="38.093151" lon="-0.704434">
        <ele>4.7</ele>
        <time>2024-03-17T10:54:06Z</time>
      </trkpt>
      <trkpt lat="38.093190" lon="-0.704209">
        <ele>4.7</ele>
        <time>2024-03-17T10:54:19Z</time>
      </trkpt>
      <trkpt lat="38.093197" lon="-0.703976">
        <ele>4.7</ele>
        <time>2024-03-17T10:54:36Z</time>
      </trkpt>
      <trkpt lat="38.093269" lon="-0.703761">
        <ele>2.7</ele>
        <time>2024-03-17T10:55:03Z</time>
      </trkpt>
      <trkpt lat="38.093325" lon="-0.703539">
        <ele>4.7</ele>
        <time>2024-03-17T10:55:17Z</time>
      </trkpt>
      <trkpt lat="38.093367" lon="-0.703311">
        <ele>4.6</ele>
        <time>2024-03-17T10:56:32Z</time>
      </trkpt>
      <trkpt lat="38.093418" lon="-0.703075">
        <ele>4.7</ele>
        <time>2024-03-17T10:56:46Z</time>
      </trkpt>
      <trkpt lat="38.093461" lon="-0.702852">
        <ele>4.7</ele>
        <time>2024-03-17T10:56:58Z</time>
      </trkpt>
      <trkpt lat="38.093511" lon="-0.702618">
        <ele>4.7</ele>
        <time>2024-03-17T10:57:12Z</time>
      </trkpt>
      <trkpt lat="38.093553" lon="-0.702393">
        <ele>4.7</ele>
        <time>2024-03-17T10:57:25Z</time>
      </trkpt>
      <trkpt lat="38.093595" lon="-0.702165">
        <ele>4.7</ele>
        <time>2024-03-17T10:57:37Z</time>
      </trkpt>
      <trkpt lat="38.093634" lon="-0.701936">
        <ele>4.7</ele>
        <time>2024-03-17T10:57:49Z</time>
      </trkpt>
      <trkpt lat="38.093694" lon="-0.701707">
        <ele>4.7</ele>
        <time>2024-03-17T10:58:03Z</time>
      </trkpt>
      <trkpt lat="38.093731" lon="-0.701481">
        <ele>4.7</ele>
        <time>2024-03-17T10:58:16Z</time>
      </trkpt>
      <trkpt lat="38.093775" lon="-0.701257">
        <ele>3.7</ele>
        <time>2024-03-17T10:58:29Z</time>
      </trkpt>
      <trkpt lat="38.093839" lon="-0.701023">
        <ele>3.7</ele>
        <time>2024-03-17T10:58:42Z</time>
      </trkpt>
      <trkpt lat="38.093906" lon="-0.700800">
        <ele>4.7</ele>
        <time>2024-03-17T10:58:55Z</time>
      </trkpt>
      <trkpt lat="38.094003" lon="-0.700588">
        <ele>5.7</ele>
        <time>2024-03-17T10:59:08Z</time>
      </trkpt>
      <trkpt lat="38.094088" lon="-0.700381">
        <ele>4.7</ele>
        <time>2024-03-17T10:59:21Z</time>
      </trkpt>
      <trkpt lat="38.094192" lon="-0.700176">
        <ele>3.7</ele>
        <time>2024-03-17T10:59:34Z</time>
      </trkpt>
      <trkpt lat="38.094306" lon="-0.699984">
        <ele>3.7</ele>
        <time>2024-03-17T10:59:47Z</time>
      </trkpt>
      <trkpt lat="38.094437" lon="-0.699820">
        <ele>3.7</ele>
        <time>2024-03-17T11:00:00Z</time>
      </trkpt>
      <trkpt lat="38.094570" lon="-0.699659">
        <ele>3.7</ele>
        <time>2024-03-17T11:00:12Z</time>
      </trkpt>
      <trkpt lat="38.094717" lon="-0.699503">
        <ele>2.7</ele>
        <time>2024-03-17T11:00:26Z</time>
      </trkpt>
      <trkpt lat="38.094864" lon="-0.699365">
        <ele>2.7</ele>
        <time>2024-03-17T11:00:38Z</time>
      </trkpt>
      <trkpt lat="38.095017" lon="-0.699225">
        <ele>3.6</ele>
        <time>2024-03-17T11:00:51Z</time>
      </trkpt>
      <trkpt lat="38.095183" lon="-0.699093">
        <ele>2.7</ele>
        <time>2024-03-17T11:01:04Z</time>
      </trkpt>
      <trkpt lat="38.095340" lon="-0.698978">
        <ele>2.7</ele>
        <time>2024-03-17T11:01:17Z</time>
      </trkpt>
      <trkpt lat="38.095484" lon="-0.698834">
        <ele>2.7</ele>
        <time>2024-03-17T11:01:29Z</time>
      </trkpt>
      <trkpt lat="38.095603" lon="-0.698660">
        <ele>3.7</ele>
        <time>2024-03-17T11:01:42Z</time>
      </trkpt>
      <trkpt lat="38.095707" lon="-0.698469">
        <ele>4.6</ele>
        <time>2024-03-17T11:01:55Z</time>
      </trkpt>
      <trkpt lat="38.095794" lon="-0.698268">
        <ele>4.4</ele>
        <time>2024-03-17T11:02:08Z</time>
      </trkpt>
      <trkpt lat="38.095845" lon="-0.698046">
        <ele>4.7</ele>
        <time>2024-03-17T11:02:21Z</time>
      </trkpt>
      <trkpt lat="38.095887" lon="-0.697818">
        <ele>3.7</ele>
        <time>2024-03-17T11:02:35Z</time>
      </trkpt>
      <trkpt lat="38.095915" lon="-0.697586">
        <ele>3.7</ele>
        <time>2024-03-17T11:02:50Z</time>
      </trkpt>
      <trkpt lat="38.095901" lon="-0.697352">
        <ele>4.7</ele>
        <time>2024-03-17T11:03:04Z</time>
      </trkpt>
      <trkpt lat="38.095870" lon="-0.697118">
        <ele>5.6</ele>
        <time>2024-03-17T11:03:19Z</time>
      </trkpt>
      <trkpt lat="38.095825" lon="-0.696893">
        <ele>3.7</ele>
        <time>2024-03-17T11:03:33Z</time>
      </trkpt>
      <trkpt lat="38.095746" lon="-0.696685">
        <ele>2.7</ele>
        <time>2024-03-17T11:03:47Z</time>
      </trkpt>
      <trkpt lat="38.095653" lon="-0.696478">
        <ele>3.7</ele>
        <time>2024-03-17T11:04:02Z</time>
      </trkpt>
      <trkpt lat="38.095518" lon="-0.696322">
        <ele>3.7</ele>
        <time>2024-03-17T11:04:16Z</time>
      </trkpt>
      <trkpt lat="38.095379" lon="-0.696162">
        <ele>3.7</ele>
        <time>2024-03-17T11:04:29Z</time>
      </trkpt>
      <trkpt lat="38.095238" lon="-0.696012">
        <ele>4.7</ele>
        <time>2024-03-17T11:04:43Z</time>
      </trkpt>
      <trkpt lat="38.095101" lon="-0.695853">
        <ele>5.6</ele>
        <time>2024-03-17T11:04:57Z</time>
      </trkpt>
      <trkpt lat="38.094984" lon="-0.695669">
        <ele>5.7</ele>
        <time>2024-03-17T11:05:12Z</time>
      </trkpt>
      <trkpt lat="38.094866" lon="-0.695491">
        <ele>5.7</ele>
        <time>2024-03-17T11:05:26Z</time>
      </trkpt>
      <trkpt lat="38.094744" lon="-0.695314">
        <ele>5.8</ele>
        <time>2024-03-17T11:05:40Z</time>
      </trkpt>
      <trkpt lat="38.094643" lon="-0.695115">
        <ele>5.7</ele>
        <time>2024-03-17T11:05:55Z</time>
      </trkpt>
      <trkpt lat="38.094535" lon="-0.694925">
        <ele>4.7</ele>
        <time>2024-03-17T11:06:09Z</time>
      </trkpt>
      <trkpt lat="38.094454" lon="-0.694717">
        <ele>4.7</ele>
        <time>2024-03-17T11:06:23Z</time>
      </trkpt>
      <trkpt lat="38.094370" lon="-0.694512">
        <ele>4.7</ele>
        <time>2024-03-17T11:06:37Z</time>
      </trkpt>
      <trkpt lat="38.094288" lon="-0.694307">
        <ele>4.7</ele>
        <time>2024-03-17T11:06:51Z</time>
      </trkpt>
      <trkpt lat="38.094234" lon="-0.694089">
        <ele>4.7</ele>
        <time>2024-03-17T11:07:05Z</time>
      </trkpt>
      <trkpt lat="38.094166" lon="-0.693870">
        <ele>3.7</ele>
        <time>2024-03-17T11:07:18Z</time>
      </trkpt>
      <trkpt lat="38.094129" lon="-0.693646">
        <ele>4.7</ele>
        <time>2024-03-17T11:07:32Z</time>
      </trkpt>
      <trkpt lat="38.094079" lon="-0.693419">
        <ele>5.7</ele>
        <time>2024-03-17T11:07:47Z</time>
      </trkpt>
      <trkpt lat="38.094028" lon="-0.693195">
        <ele>4.7</ele>
        <time>2024-03-17T11:08:02Z</time>
      </trkpt>
      <trkpt lat="38.094004" lon="-0.692964">
        <ele>5.7</ele>
        <time>2024-03-17T11:08:17Z</time>
      </trkpt>
      <trkpt lat="38.093962" lon="-0.692733">
        <ele>4.7</ele>
        <time>2024-03-17T11:08:32Z</time>
      </trkpt>
      <trkpt lat="38.093924" lon="-0.692503">
        <ele>4.4</ele>
        <time>2024-03-17T11:08:48Z</time>
      </trkpt>
      <trkpt lat="38.093877" lon="-0.692277">
        <ele>3.7</ele>
        <time>2024-03-17T11:09:02Z</time>
      </trkpt>
      <trkpt lat="38.093831" lon="-0.692052">
        <ele>3.7</ele>
        <time>2024-03-17T11:09:18Z</time>
      </trkpt>
      <trkpt lat="38.093796" lon="-0.691828">
        <ele>3.7</ele>
        <time>2024-03-17T11:09:32Z</time>
      </trkpt>
      <trkpt lat="38.093748" lon="-0.691597">
        <ele>4.7</ele>
        <time>2024-03-17T11:09:47Z</time>
      </trkpt>
      <trkpt lat="38.093701" lon="-0.691368">
        <ele>3.7</ele>
        <time>2024-03-17T11:10:02Z</time>
      </trkpt>
      <trkpt lat="38.093657" lon="-0.691138">
        <ele>2.8</ele>
        <time>2024-03-17T11:10:17Z</time>
      </trkpt>
      <trkpt lat="38.093623" lon="-0.690911">
        <ele>3.7</ele>
        <time>2024-03-17T11:10:32Z</time>
      </trkpt>
      <trkpt lat="38.093572" lon="-0.690690">
        <ele>4.7</ele>
        <time>2024-03-17T11:10:49Z</time>
      </trkpt>
      <trkpt lat="38.093542" lon="-0.690462">
        <ele>3.7</ele>
        <time>2024-03-17T11:11:04Z</time>
      </trkpt>
      <trkpt lat="38.093491" lon="-0.690241">
        <ele>4.0</ele>
        <time>2024-03-17T11:11:18Z</time>
      </trkpt>
      <trkpt lat="38.093454" lon="-0.690012">
        <ele>4.7</ele>
        <time>2024-03-17T11:11:31Z</time>
      </trkpt>
      <trkpt lat="38.093397" lon="-0.689786">
        <ele>4.7</ele>
        <time>2024-03-17T11:11:48Z</time>
      </trkpt>
      <trkpt lat="38.093364" lon="-0.689561">
        <ele>4.7</ele>
        <time>2024-03-17T11:12:02Z</time>
      </trkpt>
      <trkpt lat="38.093308" lon="-0.689340">
        <ele>3.7</ele>
        <time>2024-03-17T11:12:18Z</time>
      </trkpt>
      <trkpt lat="38.093293" lon="-0.689106">
        <ele>3.4</ele>
        <time>2024-03-17T11:12:33Z</time>
      </trkpt>
      <trkpt lat="38.093276" lon="-0.688871">
        <ele>4.7</ele>
        <time>2024-03-17T11:12:49Z</time>
      </trkpt>
      <trkpt lat="38.093259" lon="-0.688643">
        <ele>3.7</ele>
        <time>2024-03-17T11:13:03Z</time>
      </trkpt>
      <trkpt lat="38.093249" lon="-0.688406">
        <ele>3.7</ele>
        <time>2024-03-17T11:13:18Z</time>
      </trkpt>
      <trkpt lat="38.093238" lon="-0.688169">
        <ele>5.7</ele>
        <time>2024-03-17T11:13:34Z</time>
      </trkpt>
      <trkpt lat="38.093247" lon="-0.687937">
        <ele>4.6</ele>
        <time>2024-03-17T11:13:49Z</time>
      </trkpt>
      <trkpt lat="38.093260" lon="-0.687702">
        <ele>4.7</ele>
        <time>2024-03-17T11:14:10Z</time>
      </trkpt>
      <trkpt lat="38.093288" lon="-0.687473">
        <ele>6.0</ele>
        <time>2024-03-17T11:14:25Z</time>
      </trkpt>
      <trkpt lat="38.093291" lon="-0.687238">
        <ele>4.7</ele>
        <time>2024-03-17T11:14:40Z</time>
      </trkpt>
      <trkpt lat="38.093289" lon="-0.687004">
        <ele>4.7</ele>
        <time>2024-03-17T11:14:55Z</time>
      </trkpt>
      <trkpt lat="38.093313" lon="-0.686777">
        <ele>5.4</ele>
        <time>2024-03-17T11:15:12Z</time>
      </trkpt>
      <trkpt lat="38.093343" lon="-0.686540">
        <ele>4.7</ele>
        <time>2024-03-17T11:15:28Z</time>
      </trkpt>
      <trkpt lat="38.093360" lon="-0.686312">
        <ele>5.7</ele>
        <time>2024-03-17T11:15:43Z</time>
      </trkpt>
      <trkpt lat="38.093373" lon="-0.686079">
        <ele>4.7</ele>
        <time>2024-03-17T11:15:58Z</time>
      </trkpt>
      <trkpt lat="38.093386" lon="-0.685844">
        <ele>3.8</ele>
        <time>2024-03-17T11:16:13Z</time>
      </trkpt>
      <trkpt lat="38.093405" lon="-0.685614">
        <ele>4.7</ele>
        <time>2024-03-17T11:16:28Z</time>
      </trkpt>
      <trkpt lat="38.093421" lon="-0.685378">
        <ele>3.7</ele>
        <time>2024-03-17T11:16:42Z</time>
      </trkpt>
      <trkpt lat="38.093458" lon="-0.685152">
        <ele>4.7</ele>
        <time>2024-03-17T11:16:58Z</time>
      </trkpt>
      <trkpt lat="38.093494" lon="-0.684919">
        <ele>4.7</ele>
        <time>2024-03-17T11:17:13Z</time>
      </trkpt>
      <trkpt lat="38.093540" lon="-0.684696">
        <ele>4.7</ele>
        <time>2024-03-17T11:17:28Z</time>
      </trkpt>
      <trkpt lat="38.093607" lon="-0.684484">
        <ele>4.7</ele>
        <time>2024-03-17T11:17:44Z</time>
      </trkpt>
      <trkpt lat="38.093681" lon="-0.684274">
        <ele>3.8</ele>
        <time>2024-03-17T11:17:58Z</time>
      </trkpt>
      <trkpt lat="38.093769" lon="-0.684071">
        <ele>5.6</ele>
        <time>2024-03-17T11:18:12Z</time>
      </trkpt>
      <trkpt lat="38.093862" lon="-0.683867">
        <ele>5.7</ele>
        <time>2024-03-17T11:18:26Z</time>
      </trkpt>
      <trkpt lat="38.093968" lon="-0.683681">
        <ele>6.7</ele>
        <time>2024-03-17T11:18:41Z</time>
      </trkpt>
      <trkpt lat="38.094093" lon="-0.683507">
        <ele>5.4</ele>
        <time>2024-03-17T11:18:56Z</time>
      </trkpt>
      <trkpt lat="38.094215" lon="-0.683335">
        <ele>4.4</ele>
        <time>2024-03-17T11:19:11Z</time>
      </trkpt>
      <trkpt lat="38.094325" lon="-0.683154">
        <ele>4.4</ele>
        <time>2024-03-17T11:19:27Z</time>
      </trkpt>
      <trkpt lat="38.094375" lon="-0.682925">
        <ele>2.8</ele>
        <time>2024-03-17T11:19:42Z</time>
      </trkpt>
      <trkpt lat="38.094484" lon="-0.682741">
        <ele>1.7</ele>
        <time>2024-03-17T11:19:57Z</time>
      </trkpt>
      <trkpt lat="38.094650" lon="-0.682650">
        <ele>-0.0</ele>
        <time>2024-03-17T11:20:12Z</time>
      </trkpt>
      <trkpt lat="38.094828" lon="-0.682591">
        <ele>0.7</ele>
        <time>2024-03-17T11:20:26Z</time>
      </trkpt>
      <trkpt lat="38.095005" lon="-0.682537">
        <ele>3.7</ele>
        <time>2024-03-17T11:20:41Z</time>
      </trkpt>
      <trkpt lat="38.095162" lon="-0.682407">
        <ele>4.6</ele>
        <time>2024-03-17T11:20:57Z</time>
      </trkpt>
      <trkpt lat="38.095292" lon="-0.682239">
        <ele>4.7</ele>
        <time>2024-03-17T11:21:12Z</time>
      </trkpt>
      <trkpt lat="38.095410" lon="-0.682063">
        <ele>4.7</ele>
        <time>2024-03-17T11:21:27Z</time>
      </trkpt>
      <trkpt lat="38.095510" lon="-0.681869">
        <ele>5.6</ele>
        <time>2024-03-17T11:21:42Z</time>
      </trkpt>
      <trkpt lat="38.095604" lon="-0.681674">
        <ele>4.7</ele>
        <time>2024-03-17T11:21:55Z</time>
      </trkpt>
      <trkpt lat="38.095690" lon="-0.681472">
        <ele>3.8</ele>
        <time>2024-03-17T11:22:10Z</time>
      </trkpt>
      <trkpt lat="38.095775" lon="-0.681266">
        <ele>1.7</ele>
        <time>2024-03-17T11:22:24Z</time>
      </trkpt>
      <trkpt lat="38.095835" lon="-0.681040">
        <ele>3.7</ele>
        <time>2024-03-17T11:22:38Z</time>
      </trkpt>
      <trkpt lat="38.095888" lon="-0.680807">
        <ele>4.7</ele>
        <time>2024-03-17T11:22:51Z</time>
      </trkpt>
      <trkpt lat="38.095912" lon="-0.680572">
        <ele>4.7</ele>
        <time>2024-03-17T11:23:05Z</time>
      </trkpt>
      <trkpt lat="38.095925" lon="-0.680331">
        <ele>4.7</ele>
        <time>2024-03-17T11:23:19Z</time>
      </trkpt>
      <trkpt lat="38.095929" lon="-0.680091">
        <ele>3.7</ele>
        <time>2024-03-17T11:23:33Z</time>
      </trkpt>
      <trkpt lat="38.095951" lon="-0.679863">
        <ele>3.7</ele>
        <time>2024-03-17T11:23:47Z</time>
      </trkpt>
      <trkpt lat="38.095956" lon="-0.679624">
        <ele>3.7</ele>
        <time>2024-03-17T11:24:00Z</time>
      </trkpt>
      <trkpt lat="38.095956" lon="-0.679390">
        <ele>2.8</ele>
        <time>2024-03-17T11:24:13Z</time>
      </trkpt>
      <trkpt lat="38.095958" lon="-0.679157">
        <ele>3.7</ele>
        <time>2024-03-17T11:24:28Z</time>
      </trkpt>
      <trkpt lat="38.095968" lon="-0.678921">
        <ele>2.7</ele>
        <time>2024-03-17T11:24:41Z</time>
      </trkpt>
      <trkpt lat="38.095971" lon="-0.678687">
        <ele>1.7</ele>
        <time>2024-03-17T11:24:55Z</time>
      </trkpt>
      <trkpt lat="38.095964" lon="-0.678449">
        <ele>2.7</ele>
        <time>2024-03-17T11:25:10Z</time>
      </trkpt>
      <trkpt lat="38.095948" lon="-0.678220">
        <ele>2.6</ele>
        <time>2024-03-17T11:25:25Z</time>
      </trkpt>
      <trkpt lat="38.095943" lon="-0.677989">
        <ele>3.7</ele>
        <time>2024-03-17T11:25:40Z</time>
      </trkpt>
      <trkpt lat="38.095932" lon="-0.677758">
        <ele>1.7</ele>
        <time>2024-03-17T11:26:35Z</time>
      </trkpt>
      <trkpt lat="38.095861" lon="-0.677546">
        <ele>3.6</ele>
        <time>2024-03-17T11:26:55Z</time>
      </trkpt>
      <trkpt lat="38.095950" lon="-0.677336">
        <ele>0.8</ele>
        <time>2024-03-17T11:27:12Z</time>
      </trkpt>
      <trkpt lat="38.096037" lon="-0.677134">
        <ele>1.7</ele>
        <time>2024-03-17T11:27:27Z</time>
      </trkpt>
      <trkpt lat="38.096034" lon="-0.676899">
        <ele>3.7</ele>
        <time>2024-03-17T11:27:42Z</time>
      </trkpt>
      <trkpt lat="38.096031" lon="-0.676652">
        <ele>3.4</ele>
        <time>2024-03-17T11:27:58Z</time>
      </trkpt>
      <trkpt lat="38.096039" lon="-0.676417">
        <ele>3.7</ele>
        <time>2024-03-17T11:28:12Z</time>
      </trkpt>
      <trkpt lat="38.096037" lon="-0.676181">
        <ele>4.7</ele>
        <time>2024-03-17T11:28:27Z</time>
      </trkpt>
      <trkpt lat="38.096041" lon="-0.675948">
        <ele>3.7</ele>
        <time>2024-03-17T11:28:43Z</time>
      </trkpt>
      <trkpt lat="38.096036" lon="-0.675711">
        <ele>2.8</ele>
        <time>2024-03-17T11:28:58Z</time>
      </trkpt>
      <trkpt lat="38.096045" lon="-0.675482">
        <ele>3.7</ele>
        <time>2024-03-17T11:29:14Z</time>
      </trkpt>
      <trkpt lat="38.096041" lon="-0.675252">
        <ele>2.7</ele>
        <time>2024-03-17T11:29:29Z</time>
      </trkpt>
      <trkpt lat="38.096044" lon="-0.675022">
        <ele>2.7</ele>
        <time>2024-03-17T11:29:44Z</time>
      </trkpt>
      <trkpt lat="38.096049" lon="-0.674785">
        <ele>2.7</ele>
        <time>2024-03-17T11:30:00Z</time>
      </trkpt>
      <trkpt lat="38.096063" lon="-0.674544">
        <ele>3.6</ele>
        <time>2024-03-17T11:30:16Z</time>
      </trkpt>
      <trkpt lat="38.096080" lon="-0.674315">
        <ele>4.7</ele>
        <time>2024-03-17T11:30:31Z</time>
      </trkpt>
      <trkpt lat="38.096085" lon="-0.674081">
        <ele>4.7</ele>
        <time>2024-03-17T11:30:46Z</time>
      </trkpt>
      <trkpt lat="38.096098" lon="-0.673845">
        <ele>4.7</ele>
        <time>2024-03-17T11:31:03Z</time>
      </trkpt>
      <trkpt lat="38.096102" lon="-0.673615">
        <ele>4.7</ele>
        <time>2024-03-17T11:31:18Z</time>
      </trkpt>
      <trkpt lat="38.096107" lon="-0.673379">
        <ele>2.7</ele>
        <time>2024-03-17T11:31:35Z</time>
      </trkpt>
      <trkpt lat="38.096110" lon="-0.673148">
        <ele>3.7</ele>
        <time>2024-03-17T11:31:50Z</time>
      </trkpt>
      <trkpt lat="38.096116" lon="-0.672919">
        <ele>2.7</ele>
        <time>2024-03-17T11:32:05Z</time>
      </trkpt>
      <trkpt lat="38.096138" lon="-0.672688">
        <ele>3.7</ele>
        <time>2024-03-17T11:32:21Z</time>
      </trkpt>
      <trkpt lat="38.096139" lon="-0.672454">
        <ele>3.7</ele>
        <time>2024-03-17T11:32:37Z</time>
      </trkpt>
      <trkpt lat="38.096138" lon="-0.672222">
        <ele>3.7</ele>
        <time>2024-03-17T11:32:53Z</time>
      </trkpt>
      <trkpt lat="38.096149" lon="-0.671988">
        <ele>3.7</ele>
        <time>2024-03-17T11:33:10Z</time>
      </trkpt>
      <trkpt lat="38.096155" lon="-0.671758">
        <ele>4.4</ele>
        <time>2024-03-17T11:33:26Z</time>
      </trkpt>
      <trkpt lat="38.096159" lon="-0.671526">
        <ele>4.7</ele>
        <time>2024-03-17T11:33:41Z</time>
      </trkpt>
      <trkpt lat="38.096165" lon="-0.671296">
        <ele>4.7</ele>
        <time>2024-03-17T11:33:57Z</time>
      </trkpt>
      <trkpt lat="38.096168" lon="-0.671064">
        <ele>5.7</ele>
        <time>2024-03-17T11:34:13Z</time>
      </trkpt>
      <trkpt lat="38.096169" lon="-0.670834">
        <ele>5.7</ele>
        <time>2024-03-17T11:34:28Z</time>
      </trkpt>
      <trkpt lat="38.096186" lon="-0.670600">
        <ele>5.7</ele>
        <time>2024-03-17T11:34:44Z</time>
      </trkpt>
      <trkpt lat="38.096188" lon="-0.670364">
        <ele>3.8</ele>
        <time>2024-03-17T11:35:01Z</time>
      </trkpt>
      <trkpt lat="38.096189" lon="-0.670128">
        <ele>4.7</ele>
        <time>2024-03-17T11:35:17Z</time>
      </trkpt>
      <trkpt lat="38.096209" lon="-0.669896">
        <ele>5.7</ele>
        <time>2024-03-17T11:35:33Z</time>
      </trkpt>
      <trkpt lat="38.096217" lon="-0.669664">
        <ele>3.7</ele>
        <time>2024-03-17T11:35:48Z</time>
      </trkpt>
      <trkpt lat="38.096225" lon="-0.669428">
        <ele>3.7</ele>
        <time>2024-03-17T11:36:05Z</time>
      </trkpt>
      <trkpt lat="38.096222" lon="-0.669197">
        <ele>4.7</ele>
        <time>2024-03-17T11:36:20Z</time>
      </trkpt>
      <trkpt lat="38.096219" lon="-0.668964">
        <ele>4.8</ele>
        <time>2024-03-17T11:36:36Z</time>
      </trkpt>
      <trkpt lat="38.096232" lon="-0.668736">
        <ele>4.7</ele>
        <time>2024-03-17T11:36:51Z</time>
      </trkpt>
      <trkpt lat="38.096242" lon="-0.668502">
        <ele>4.7</ele>
        <time>2024-03-17T11:37:06Z</time>
      </trkpt>
      <trkpt lat="38.096247" lon="-0.668272">
        <ele>3.8</ele>
        <time>2024-03-17T11:37:23Z</time>
      </trkpt>
      <trkpt lat="38.096244" lon="-0.668037">
        <ele>4.7</ele>
        <time>2024-03-17T11:37:39Z</time>
      </trkpt>
      <trkpt lat="38.096262" lon="-0.667805">
        <ele>4.7</ele>
        <time>2024-03-17T11:37:55Z</time>
      </trkpt>
      <trkpt lat="38.096267" lon="-0.667575">
        <ele>4.7</ele>
        <time>2024-03-17T11:38:11Z</time>
      </trkpt>
      <trkpt lat="38.096273" lon="-0.667338">
        <ele>5.7</ele>
        <time>2024-03-17T11:38:27Z</time>
      </trkpt>
      <trkpt lat="38.096291" lon="-0.667103">
        <ele>4.7</ele>
        <time>2024-03-17T11:38:45Z</time>
      </trkpt>
      <trkpt lat="38.096296" lon="-0.666873">
        <ele>5.4</ele>
        <time>2024-03-17T11:39:00Z</time>
      </trkpt>
      <trkpt lat="38.096303" lon="-0.666641">
        <ele>4.7</ele>
        <time>2024-03-17T11:39:17Z</time>
      </trkpt>
      <trkpt lat="38.096318" lon="-0.666407">
        <ele>5.7</ele>
        <time>2024-03-17T11:39:32Z</time>
      </trkpt>
      <trkpt lat="38.096327" lon="-0.666321">
        <ele>4.7</ele>
        <time>2024-03-17T11:39:49Z</time>
      </trkpt>
      <trkpt lat="38.096331" lon="-0.666247">
        <ele>0.7</ele>
        <time>2024-03-17T11:42:05Z</time>
      </trkpt>
      <trkpt lat="38.096340" lon="-0.666167">
        <ele>1.7</ele>
        <time>2024-03-17T11:42:18Z</time>
      </trkpt>
      <trkpt lat="38.096341" lon="-0.665938">
        <ele>1.7</ele>
        <time>2024-03-17T11:42:30Z</time>
      </trkpt>
      <trkpt lat="38.096355" lon="-0.665703">
        <ele>2.7</ele>
        <time>2024-03-17T11:42:51Z</time>
      </trkpt>
      <trkpt lat="38.096371" lon="-0.665465">
        <ele>1.4</ele>
        <time>2024-03-17T11:43:06Z</time>
      </trkpt>
      <trkpt lat="38.096377" lon="-0.665225">
        <ele>2.7</ele>
        <time>2024-03-17T11:43:20Z</time>
      </trkpt>
      <trkpt lat="38.096379" lon="-0.664995">
        <ele>1.7</ele>
        <time>2024-03-17T11:43:36Z</time>
      </trkpt>
      <trkpt lat="38.096388" lon="-0.664753">
        <ele>3.0</ele>
        <time>2024-03-17T11:46:02Z</time>
      </trkpt>
      <trkpt lat="38.096376" lon="-0.664518">
        <ele>3.0</ele>
        <time>2024-03-17T11:46:29Z</time>
      </trkpt>
      <trkpt lat="38.096390" lon="-0.664290">
        <ele>2.6</ele>
        <time>2024-03-17T11:46:42Z</time>
      </trkpt>
      <trkpt lat="38.096386" lon="-0.664054">
        <ele>2.7</ele>
        <time>2024-03-17T11:46:56Z</time>
      </trkpt>
      <trkpt lat="38.096416" lon="-0.663826">
        <ele>3.7</ele>
        <time>2024-03-17T11:47:10Z</time>
      </trkpt>
      <trkpt lat="38.096318" lon="-0.663633">
        <ele>1.7</ele>
        <time>2024-03-17T11:47:35Z</time>
      </trkpt>
      <trkpt lat="38.096185" lon="-0.663467">
        <ele>0.7</ele>
        <time>2024-03-17T11:48:07Z</time>
      </trkpt>
      <trkpt lat="38.096017" lon="-0.663368">
        <ele>0.6</ele>
        <time>2024-03-17T11:48:39Z</time>
      </trkpt>
      <trkpt lat="38.095834" lon="-0.663340">
        <ele>0.7</ele>
        <time>2024-03-17T11:48:53Z</time>
      </trkpt>
      <trkpt lat="38.095652" lon="-0.663330">
        <ele>0.7</ele>
        <time>2024-03-17T11:49:07Z</time>
      </trkpt>
      <trkpt lat="38.095476" lon="-0.663274">
        <ele>0.7</ele>
        <time>2024-03-17T11:49:20Z</time>
      </trkpt>
      <trkpt lat="38.095304" lon="-0.663201">
        <ele>1.7</ele>
        <time>2024-03-17T11:49:34Z</time>
      </trkpt>
      <trkpt lat="38.095134" lon="-0.663111">
        <ele>0.7</ele>
        <time>2024-03-17T11:49:48Z</time>
      </trkpt>
      <trkpt lat="38.094977" lon="-0.662994">
        <ele>4.4</ele>
        <time>2024-03-17T11:50:03Z</time>
      </trkpt>
      <trkpt lat="38.094938" lon="-0.662767">
        <ele>4.7</ele>
        <time>2024-03-17T11:50:20Z</time>
      </trkpt>
      <trkpt lat="38.095063" lon="-0.662598">
        <ele>3.7</ele>
        <time>2024-03-17T11:50:33Z</time>
      </trkpt>
      <trkpt lat="38.095159" lon="-0.662390">
        <ele>3.7</ele>
        <time>2024-03-17T11:50:47Z</time>
      </trkpt>
      <trkpt lat="38.095313" lon="-0.662514">
        <ele>2.7</ele>
        <time>2024-03-17T11:51:28Z</time>
      </trkpt>
      <trkpt lat="38.095446" lon="-0.662675">
        <ele>3.7</ele>
        <time>2024-03-17T11:51:41Z</time>
      </trkpt>
      <trkpt lat="38.095611" lon="-0.662781">
        <ele>5.7</ele>
        <time>2024-03-17T11:52:58Z</time>
      </trkpt>
      <trkpt lat="38.095790" lon="-0.662810">
        <ele>6.4</ele>
        <time>2024-03-17T11:53:08Z</time>
      </trkpt>
      <trkpt lat="38.095973" lon="-0.662839">
        <ele>6.7</ele>
        <time>2024-03-17T11:53:22Z</time>
      </trkpt>
      <trkpt lat="38.096163" lon="-0.662827">
        <ele>6.7</ele>
        <time>2024-03-17T11:53:35Z</time>
      </trkpt>
      <trkpt lat="38.096328" lon="-0.662732">
        <ele>6.7</ele>
        <time>2024-03-17T11:53:48Z</time>
      </trkpt>
      <trkpt lat="38.096485" lon="-0.662595">
        <ele>4.7</ele>
        <time>2024-03-17T11:54:01Z</time>
      </trkpt>
      <trkpt lat="38.096588" lon="-0.662396">
        <ele>5.0</ele>
        <time>2024-03-17T11:54:13Z</time>
      </trkpt>
      <trkpt lat="38.096643" lon="-0.662172">
        <ele>6.7</ele>
        <time>2024-03-17T11:54:26Z</time>
      </trkpt>
      <trkpt lat="38.096720" lon="-0.661964">
        <ele>8.6</ele>
        <time>2024-03-17T11:54:38Z</time>
      </trkpt>
      <trkpt lat="38.096798" lon="-0.661756">
        <ele>9.6</ele>
        <time>2024-03-17T11:54:52Z</time>
      </trkpt>
      <trkpt lat="38.096888" lon="-0.661550">
        <ele>6.8</ele>
        <time>2024-03-17T11:55:06Z</time>
      </trkpt>
      <trkpt lat="38.096976" lon="-0.661331">
        <ele>4.4</ele>
        <time>2024-03-17T11:55:22Z</time>
      </trkpt>
      <trkpt lat="38.097051" lon="-0.661115">
        <ele>4.8</ele>
        <time>2024-03-17T11:55:37Z</time>
      </trkpt>
      <trkpt lat="38.097149" lon="-0.660921">
        <ele>3.8</ele>
        <time>2024-03-17T11:55:50Z</time>
      </trkpt>
      <trkpt lat="38.097228" lon="-0.660712">
        <ele>4.7</ele>
        <time>2024-03-17T11:56:16Z</time>
      </trkpt>
      <trkpt lat="38.097333" lon="-0.660527">
        <ele>5.0</ele>
        <time>2024-03-17T11:56:28Z</time>
      </trkpt>
      <trkpt lat="38.097455" lon="-0.660359">
        <ele>5.7</ele>
        <time>2024-03-17T11:56:42Z</time>
      </trkpt>
      <trkpt lat="38.097547" lon="-0.660156">
        <ele>7.7</ele>
        <time>2024-03-17T11:57:13Z</time>
      </trkpt>
      <trkpt lat="38.097655" lon="-0.659962">
        <ele>7.7</ele>
        <time>2024-03-17T11:57:26Z</time>
      </trkpt>
      <trkpt lat="38.097769" lon="-0.659766">
        <ele>9.7</ele>
        <time>2024-03-17T11:57:39Z</time>
      </trkpt>
      <trkpt lat="38.097915" lon="-0.659616">
        <ele>8.7</ele>
        <time>2024-03-17T11:57:53Z</time>
      </trkpt>
      <trkpt lat="38.098040" lon="-0.659434">
        <ele>8.7</ele>
        <time>2024-03-17T11:58:06Z</time>
      </trkpt>
      <trkpt lat="38.098183" lon="-0.659282">
        <ele>6.7</ele>
        <time>2024-03-17T11:58:20Z</time>
      </trkpt>
      <trkpt lat="38.098314" lon="-0.659124">
        <ele>6.7</ele>
        <time>2024-03-17T11:58:33Z</time>
      </trkpt>
      <trkpt lat="38.098465" lon="-0.658984">
        <ele>7.6</ele>
        <time>2024-03-17T11:58:45Z</time>
      </trkpt>
      <trkpt lat="38.098611" lon="-0.658841">
        <ele>7.7</ele>
        <time>2024-03-17T11:58:57Z</time>
      </trkpt>
      <trkpt lat="38.098773" lon="-0.658735">
        <ele>8.7</ele>
        <time>2024-03-17T11:59:57Z</time>
      </trkpt>
      <trkpt lat="38.098924" lon="-0.658604">
        <ele>7.7</ele>
        <time>2024-03-17T12:00:11Z</time>
      </trkpt>
      <trkpt lat="38.099094" lon="-0.658503">
        <ele>5.0</ele>
        <time>2024-03-17T12:00:28Z</time>
      </trkpt>
      <trkpt lat="38.099257" lon="-0.658399">
        <ele>4.7</ele>
        <time>2024-03-17T12:00:43Z</time>
      </trkpt>
      <trkpt lat="38.099423" lon="-0.658299">
        <ele>5.7</ele>
        <time>2024-03-17T12:00:59Z</time>
      </trkpt>
      <trkpt lat="38.099580" lon="-0.658185">
        <ele>6.0</ele>
        <time>2024-03-17T12:01:15Z</time>
      </trkpt>
      <trkpt lat="38.099692" lon="-0.658002">
        <ele>5.7</ele>
        <time>2024-03-17T12:03:51Z</time>
      </trkpt>
      <trkpt lat="38.099875" lon="-0.657961">
        <ele>5.7</ele>
        <time>2024-03-17T12:04:32Z</time>
      </trkpt>
      <trkpt lat="38.100057" lon="-0.657914">
        <ele>5.7</ele>
        <time>2024-03-17T12:04:48Z</time>
      </trkpt>
      <trkpt lat="38.100210" lon="-0.657786">
        <ele>4.7</ele>
        <time>2024-03-17T12:05:03Z</time>
      </trkpt>
      <trkpt lat="38.100376" lon="-0.657679">
        <ele>5.8</ele>
        <time>2024-03-17T12:05:31Z</time>
      </trkpt>
      <trkpt lat="38.100556" lon="-0.657647">
        <ele>4.7</ele>
        <time>2024-03-17T12:05:49Z</time>
      </trkpt>
      <trkpt lat="38.100686" lon="-0.657481">
        <ele>3.7</ele>
        <time>2024-03-17T12:06:01Z</time>
      </trkpt>
      <trkpt lat="38.100849" lon="-0.657360">
        <ele>4.7</ele>
        <time>2024-03-17T12:06:20Z</time>
      </trkpt>
      <trkpt lat="38.101021" lon="-0.657276">
        <ele>5.7</ele>
        <time>2024-03-17T12:06:43Z</time>
      </trkpt>
      <trkpt lat="38.101182" lon="-0.657170">
        <ele>2.6</ele>
        <time>2024-03-17T12:08:18Z</time>
      </trkpt>
      <trkpt lat="38.101358" lon="-0.657108">
        <ele>2.7</ele>
        <time>2024-03-17T12:08:36Z</time>
      </trkpt>
      <trkpt lat="38.101500" lon="-0.656962">
        <ele>2.8</ele>
        <time>2024-03-17T12:08:48Z</time>
      </trkpt>
      <trkpt lat="38.101665" lon="-0.656855">
        <ele>3.7</ele>
        <time>2024-03-17T12:09:03Z</time>
      </trkpt>
      <trkpt lat="38.101825" lon="-0.656729">
        <ele>3.7</ele>
        <time>2024-03-17T12:09:18Z</time>
      </trkpt>
      <trkpt lat="38.101997" lon="-0.656646">
        <ele>3.0</ele>
        <time>2024-03-17T12:09:32Z</time>
      </trkpt>
      <trkpt lat="38.102162" lon="-0.656549">
        <ele>3.7</ele>
        <time>2024-03-17T12:09:47Z</time>
      </trkpt>
      <trkpt lat="38.102324" lon="-0.656434">
        <ele>4.7</ele>
        <time>2024-03-17T12:10:01Z</time>
      </trkpt>
      <trkpt lat="38.102495" lon="-0.656352">
        <ele>2.8</ele>
        <time>2024-03-17T12:10:16Z</time>
      </trkpt>
      <trkpt lat="38.102651" lon="-0.656218">
        <ele>1.7</ele>
        <time>2024-03-17T12:10:31Z</time>
      </trkpt>
      <trkpt lat="38.102813" lon="-0.656118">
        <ele>3.7</ele>
        <time>2024-03-17T12:10:45Z</time>
      </trkpt>
      <trkpt lat="38.102976" lon="-0.656017">
        <ele>5.0</ele>
        <time>2024-03-17T12:11:19Z</time>
      </trkpt>
      <trkpt lat="38.103116" lon="-0.655866">
        <ele>2.7</ele>
        <time>2024-03-17T12:11:37Z</time>
      </trkpt>
      <trkpt lat="38.103299" lon="-0.655828">
        <ele>6.7</ele>
        <time>2024-03-17T12:16:46Z</time>
      </trkpt>
      <trkpt lat="38.103463" lon="-0.655730">
        <ele>6.8</ele>
        <time>2024-03-17T12:17:24Z</time>
      </trkpt>
      <trkpt lat="38.103620" lon="-0.655612">
        <ele>11.7</ele>
        <time>2024-03-17T12:17:57Z</time>
      </trkpt>
      <trkpt lat="38.103779" lon="-0.655500">
        <ele>10.7</ele>
        <time>2024-03-17T12:18:17Z</time>
      </trkpt>
      <trkpt lat="38.103947" lon="-0.655399">
        <ele>9.7</ele>
        <time>2024-03-17T12:18:40Z</time>
      </trkpt>
      <trkpt lat="38.104098" lon="-0.655268">
        <ele>8.7</ele>
        <time>2024-03-17T12:18:58Z</time>
      </trkpt>
      <trkpt lat="38.104277" lon="-0.655205">
        <ele>7.7</ele>
        <time>2024-03-17T12:19:14Z</time>
      </trkpt>
      <trkpt lat="38.104446" lon="-0.655119">
        <ele>5.7</ele>
        <time>2024-03-17T12:19:32Z</time>
      </trkpt>
      <trkpt lat="38.104605" lon="-0.655009">
        <ele>6.7</ele>
        <time>2024-03-17T12:19:50Z</time>
      </trkpt>
      <trkpt lat="38.104782" lon="-0.654957">
        <ele>5.4</ele>
        <time>2024-03-17T12:20:07Z</time>
      </trkpt>
      <trkpt lat="38.104928" lon="-0.654816">
        <ele>5.7</ele>
        <time>2024-03-17T12:20:50Z</time>
      </trkpt>
      <trkpt lat="38.105104" lon="-0.654733">
        <ele>5.8</ele>
        <time>2024-03-17T12:21:07Z</time>
      </trkpt>
      <trkpt lat="38.105231" lon="-0.654566">
        <ele>6.0</ele>
        <time>2024-03-17T12:21:29Z</time>
      </trkpt>
      <trkpt lat="38.105382" lon="-0.654426">
        <ele>5.7</ele>
        <time>2024-03-17T12:21:46Z</time>
      </trkpt>
      <trkpt lat="38.105545" lon="-0.654324">
        <ele>5.7</ele>
        <time>2024-03-17T12:21:59Z</time>
      </trkpt>
      <trkpt lat="38.105715" lon="-0.654224">
        <ele>5.0</ele>
        <time>2024-03-17T12:22:14Z</time>
      </trkpt>
      <trkpt lat="38.105888" lon="-0.654121">
        <ele>5.4</ele>
        <time>2024-03-17T12:22:31Z</time>
      </trkpt>
      <trkpt lat="38.106048" lon="-0.654016">
        <ele>3.8</ele>
        <time>2024-03-17T12:22:46Z</time>
      </trkpt>
      <trkpt lat="38.106223" lon="-0.653928">
        <ele>4.7</ele>
        <time>2024-03-17T12:23:03Z</time>
      </trkpt>
      <trkpt lat="38.106380" lon="-0.653817">
        <ele>4.7</ele>
        <time>2024-03-17T12:23:17Z</time>
      </trkpt>
      <trkpt lat="38.106549" lon="-0.653727">
        <ele>2.7</ele>
        <time>2024-03-17T12:23:33Z</time>
      </trkpt>
      <trkpt lat="38.106713" lon="-0.653624">
        <ele>1.7</ele>
        <time>2024-03-17T12:23:48Z</time>
      </trkpt>
      <trkpt lat="38.106752" lon="-0.653663">
        <ele>2.4</ele>
        <time>2024-03-17T12:24:04Z</time>
      </trkpt>
      <trkpt lat="38.106794" lon="-0.653725">
        <ele>6.7</ele>
        <time>2024-03-17T12:24:40Z</time>
      </trkpt>
      <trkpt lat="38.106964" lon="-0.653635">
        <ele>4.3</ele>
        <time>2024-03-17T12:36:35Z</time>
      </trkpt>
      <trkpt lat="38.107129" lon="-0.653529">
        <ele>4.4</ele>
        <time>2024-03-17T12:36:55Z</time>
      </trkpt>
      <trkpt lat="38.107297" lon="-0.653439">
        <ele>4.6</ele>
        <time>2024-03-17T12:37:16Z</time>
      </trkpt>
      <trkpt lat="38.107458" lon="-0.653338">
        <ele>4.3</ele>
        <time>2024-03-17T12:37:35Z</time>
      </trkpt>
      <trkpt lat="38.107629" lon="-0.653241">
        <ele>4.3</ele>
        <time>2024-03-17T12:37:58Z</time>
      </trkpt>
      <trkpt lat="38.107804" lon="-0.653175">
        <ele>6.2</ele>
        <time>2024-03-17T12:38:20Z</time>
      </trkpt>
      <trkpt lat="38.107943" lon="-0.653028">
        <ele>4.3</ele>
        <time>2024-03-17T12:38:39Z</time>
      </trkpt>
      <trkpt lat="38.108105" lon="-0.652928">
        <ele>4.4</ele>
        <time>2024-03-17T12:39:01Z</time>
      </trkpt>
      <trkpt lat="38.108256" lon="-0.652796">
        <ele>4.6</ele>
        <time>2024-03-17T12:39:24Z</time>
      </trkpt>
      <trkpt lat="38.108409" lon="-0.652651">
        <ele>6.2</ele>
        <time>2024-03-17T12:39:46Z</time>
      </trkpt>
      <trkpt lat="38.108549" lon="-0.652502">
        <ele>4.4</ele>
        <time>2024-03-17T12:40:06Z</time>
      </trkpt>
      <trkpt lat="38.108688" lon="-0.652351">
        <ele>4.7</ele>
        <time>2024-03-17T12:40:27Z</time>
      </trkpt>
      <trkpt lat="38.108803" lon="-0.652174">
        <ele>4.5</ele>
        <time>2024-03-17T12:40:46Z</time>
      </trkpt>
      <trkpt lat="38.108920" lon="-0.651994">
        <ele>4.4</ele>
        <time>2024-03-17T12:41:05Z</time>
      </trkpt>
      <trkpt lat="38.108987" lon="-0.651782">
        <ele>4.7</ele>
        <time>2024-03-17T12:41:25Z</time>
      </trkpt>
      <trkpt lat="38.109061" lon="-0.651564">
        <ele>4.3</ele>
        <time>2024-03-17T12:41:45Z</time>
      </trkpt>
      <trkpt lat="38.109140" lon="-0.651353">
        <ele>8.7</ele>
        <time>2024-03-17T12:42:04Z</time>
      </trkpt>
      <trkpt lat="38.109173" lon="-0.651120">
        <ele>5.0</ele>
        <time>2024-03-17T12:42:22Z</time>
      </trkpt>
      <trkpt lat="38.109213" lon="-0.650888">
        <ele>4.2</ele>
        <time>2024-03-17T12:42:40Z</time>
      </trkpt>
      <trkpt lat="38.109261" lon="-0.650664">
        <ele>4.4</ele>
        <time>2024-03-17T12:42:59Z</time>
      </trkpt>
      <trkpt lat="38.109265" lon="-0.650426">
        <ele>4.2</ele>
        <time>2024-03-17T12:43:51Z</time>
      </trkpt>
      <trkpt lat="38.109305" lon="-0.650192">
        <ele>4.2</ele>
        <time>2024-03-17T12:44:04Z</time>
      </trkpt>
      <trkpt lat="38.109343" lon="-0.649959">
        <ele>4.2</ele>
        <time>2024-03-17T12:44:17Z</time>
      </trkpt>
      <trkpt lat="38.109410" lon="-0.649746">
        <ele>3.9</ele>
        <time>2024-03-17T12:44:37Z</time>
      </trkpt>
      <trkpt lat="38.109438" lon="-0.649518">
        <ele>3.9</ele>
        <time>2024-03-17T12:44:50Z</time>
      </trkpt>
      <trkpt lat="38.109485" lon="-0.649289">
        <ele>4.0</ele>
        <time>2024-03-17T12:45:13Z</time>
      </trkpt>
      <trkpt lat="38.109457" lon="-0.649061">
        <ele>4.2</ele>
        <time>2024-03-17T12:45:36Z</time>
      </trkpt>
      <trkpt lat="38.109539" lon="-0.648846">
        <ele>4.0</ele>
        <time>2024-03-17T12:46:01Z</time>
      </trkpt>
      <trkpt lat="38.109595" lon="-0.648623">
        <ele>4.0</ele>
        <time>2024-03-17T12:46:22Z</time>
      </trkpt>
      <trkpt lat="38.109680" lon="-0.648411">
        <ele>4.0</ele>
        <time>2024-03-17T12:47:03Z</time>
      </trkpt>
      <trkpt lat="38.109681" lon="-0.648181">
        <ele>4.0</ele>
        <time>2024-03-17T12:47:17Z</time>
      </trkpt>
      <trkpt lat="38.109706" lon="-0.647946">
        <ele>4.9</ele>
        <time>2024-03-17T12:47:47Z</time>
      </trkpt>
      <trkpt lat="38.109752" lon="-0.647713">
        <ele>4.9</ele>
        <time>2024-03-17T12:48:00Z</time>
      </trkpt>
      <trkpt lat="38.109794" lon="-0.647486">
        <ele>4.0</ele>
        <time>2024-03-17T12:48:22Z</time>
      </trkpt>
      <trkpt lat="38.109722" lon="-0.647274">
        <ele>4.0</ele>
        <time>2024-03-17T12:48:38Z</time>
      </trkpt>
      <trkpt lat="38.109680" lon="-0.647051">
        <ele>5.0</ele>
        <time>2024-03-17T12:48:54Z</time>
      </trkpt>
      <trkpt lat="38.109558" lon="-0.646883">
        <ele>5.0</ele>
        <time>2024-03-17T12:49:11Z</time>
      </trkpt>
      <trkpt lat="38.109376" lon="-0.646872">
        <ele>5.0</ele>
        <time>2024-03-17T12:49:32Z</time>
      </trkpt>
      <trkpt lat="38.109191" lon="-0.646854">
        <ele>3.9</ele>
        <time>2024-03-17T12:50:00Z</time>
      </trkpt>
      <trkpt lat="38.108965" lon="-0.646766">
        <ele>3.9</ele>
        <time>2024-03-17T12:50:14Z</time>
      </trkpt>
      <trkpt lat="38.108808" lon="-0.646795">
        <ele>3.9</ele>
        <time>2024-03-17T12:50:30Z</time>
      </trkpt>
      <trkpt lat="38.108632" lon="-0.646832">
        <ele>10.7</ele>
        <time>2024-03-17T12:50:46Z</time>
      </trkpt>
      <trkpt lat="38.108455" lon="-0.646872">
        <ele>9.7</ele>
        <time>2024-03-17T12:51:03Z</time>
      </trkpt>
      <trkpt lat="38.108282" lon="-0.646901">
        <ele>10.8</ele>
        <time>2024-03-17T12:51:18Z</time>
      </trkpt>
      <trkpt lat="38.108089" lon="-0.646958">
        <ele>11.7</ele>
        <time>2024-03-17T12:51:44Z</time>
      </trkpt>
      <trkpt lat="38.107977" lon="-0.646949">
        <ele>10.7</ele>
        <time>2024-03-17T12:52:01Z</time>
      </trkpt>
      <trkpt lat="38.107913" lon="-0.646881">
        <ele>4.3</ele>
        <time>2024-03-17T12:52:42Z</time>
      </trkpt>
      <trkpt lat="38.107852" lon="-0.646689">
        <ele>4.3</ele>
        <time>2024-03-17T12:52:58Z</time>
      </trkpt>
      <trkpt lat="38.107817" lon="-0.646485">
        <ele>4.3</ele>
        <time>2024-03-17T12:53:17Z</time>
      </trkpt>
      <trkpt lat="38.107785" lon="-0.646245">
        <ele>4.3</ele>
        <time>2024-03-17T12:53:36Z</time>
      </trkpt>
      <trkpt lat="38.107749" lon="-0.646032">
        <ele>7.4</ele>
        <time>2024-03-17T12:53:54Z</time>
      </trkpt>
      <trkpt lat="38.107734" lon="-0.645772">
        <ele>7.8</ele>
        <time>2024-03-17T12:54:15Z</time>
      </trkpt>
      <trkpt lat="38.107701" lon="-0.645564">
        <ele>8.7</ele>
        <time>2024-03-17T12:54:35Z</time>
      </trkpt>
      <trkpt lat="38.107669" lon="-0.645340">
        <ele>8.4</ele>
        <time>2024-03-17T12:54:52Z</time>
      </trkpt>
      <trkpt lat="38.107618" lon="-0.645102">
        <ele>10.7</ele>
        <time>2024-03-17T12:55:14Z</time>
      </trkpt>
      <trkpt lat="38.107572" lon="-0.644877">
        <ele>11.0</ele>
        <time>2024-03-17T12:55:31Z</time>
      </trkpt>
      <trkpt lat="38.107583" lon="-0.644667">
        <ele>10.0</ele>
        <time>2024-03-17T12:55:50Z</time>
      </trkpt>
      <trkpt lat="38.107674" lon="-0.644506">
        <ele>9.7</ele>
        <time>2024-03-17T12:56:15Z</time>
      </trkpt>
      <trkpt lat="38.107855" lon="-0.644489">
        <ele>8.7</ele>
        <time>2024-03-17T12:56:31Z</time>
      </trkpt>
      <trkpt lat="38.108040" lon="-0.644449">
        <ele>6.7</ele>
        <time>2024-03-17T12:56:52Z</time>
      </trkpt>
      <trkpt lat="38.108221" lon="-0.644393">
        <ele>8.7</ele>
        <time>2024-03-17T12:57:11Z</time>
      </trkpt>
      <trkpt lat="38.108399" lon="-0.644353">
        <ele>7.7</ele>
        <time>2024-03-17T12:57:30Z</time>
      </trkpt>
      <trkpt lat="38.108581" lon="-0.644303">
        <ele>9.7</ele>
        <time>2024-03-17T12:57:51Z</time>
      </trkpt>
      <trkpt lat="38.108753" lon="-0.644233">
        <ele>10.7</ele>
        <time>2024-03-17T12:58:10Z</time>
      </trkpt>
      <trkpt lat="38.108930" lon="-0.644183">
        <ele>10.4</ele>
        <time>2024-03-17T12:58:31Z</time>
      </trkpt>
      <trkpt lat="38.109108" lon="-0.644130">
        <ele>10.7</ele>
        <time>2024-03-17T12:58:54Z</time>
      </trkpt>
      <trkpt lat="38.109189" lon="-0.643922">
        <ele>10.7</ele>
        <time>2024-03-17T12:59:14Z</time>
      </trkpt>
      <trkpt lat="38.109327" lon="-0.643773">
        <ele>12.4</ele>
        <time>2024-03-17T12:59:30Z</time>
      </trkpt>
      <trkpt lat="38.109486" lon="-0.643662">
        <ele>10.9</ele>
        <time>2024-03-17T12:59:48Z</time>
      </trkpt>
      <trkpt lat="38.109667" lon="-0.643630">
        <ele>9.7</ele>
        <time>2024-03-17T13:00:06Z</time>
      </trkpt>
      <trkpt lat="38.109844" lon="-0.643560">
        <ele>9.7</ele>
        <time>2024-03-17T13:00:23Z</time>
      </trkpt>
      <trkpt lat="38.110012" lon="-0.643469">
        <ele>9.7</ele>
        <time>2024-03-17T13:00:39Z</time>
      </trkpt>
      <trkpt lat="38.110184" lon="-0.643387">
        <ele>9.7</ele>
        <time>2024-03-17T13:00:59Z</time>
      </trkpt>
      <trkpt lat="38.110307" lon="-0.643217">
        <ele>7.7</ele>
        <time>2024-03-17T13:01:34Z</time>
      </trkpt>
      <trkpt lat="38.110406" lon="-0.643025">
        <ele>4.7</ele>
        <time>2024-03-17T13:01:50Z</time>
      </trkpt>
      <trkpt lat="38.110414" lon="-0.642795">
        <ele>7.7</ele>
        <time>2024-03-17T13:02:11Z</time>
      </trkpt>
      <trkpt lat="38.110394" lon="-0.642558">
        <ele>7.8</ele>
        <time>2024-03-17T13:02:36Z</time>
      </trkpt>
      <trkpt lat="38.110425" lon="-0.642331">
        <ele>9.7</ele>
        <time>2024-03-17T13:04:14Z</time>
      </trkpt>
      <trkpt lat="38.110434" lon="-0.642093">
        <ele>6.4</ele>
        <time>2024-03-17T13:04:41Z</time>
      </trkpt>
      <trkpt lat="38.110447" lon="-0.641860">
        <ele>7.7</ele>
        <time>2024-03-17T13:05:00Z</time>
      </trkpt>
      <trkpt lat="38.110459" lon="-0.641626">
        <ele>9.7</ele>
        <time>2024-03-17T13:05:14Z</time>
      </trkpt>
      <trkpt lat="38.110471" lon="-0.641397">
        <ele>10.7</ele>
        <time>2024-03-17T13:05:36Z</time>
      </trkpt>
      <trkpt lat="38.110479" lon="-0.641161">
        <ele>9.8</ele>
        <time>2024-03-17T13:05:51Z</time>
      </trkpt>
      <trkpt lat="38.110485" lon="-0.640916">
        <ele>9.7</ele>
        <time>2024-03-17T13:06:05Z</time>
      </trkpt>
      <trkpt lat="38.110505" lon="-0.640697">
        <ele>9.7</ele>
        <time>2024-03-17T13:06:25Z</time>
      </trkpt>
      <trkpt lat="38.110535" lon="-0.640471">
        <ele>9.4</ele>
        <time>2024-03-17T13:06:38Z</time>
      </trkpt>
      <trkpt lat="38.110527" lon="-0.640242">
        <ele>10.6</ele>
        <time>2024-03-17T13:06:53Z</time>
      </trkpt>
      <trkpt lat="38.110546" lon="-0.640006">
        <ele>9.7</ele>
        <time>2024-03-17T13:07:07Z</time>
      </trkpt>
      <trkpt lat="38.110581" lon="-0.639781">
        <ele>9.7</ele>
        <time>2024-03-17T13:07:22Z</time>
      </trkpt>
      <trkpt lat="38.110605" lon="-0.639562">
        <ele>8.7</ele>
        <time>2024-03-17T13:07:37Z</time>
      </trkpt>
      <trkpt lat="38.110584" lon="-0.639318">
        <ele>9.7</ele>
        <time>2024-03-17T13:07:51Z</time>
      </trkpt>
      <trkpt lat="38.110613" lon="-0.639058">
        <ele>10.7</ele>
        <time>2024-03-17T13:08:08Z</time>
      </trkpt>
      <trkpt lat="38.110715" lon="-0.638863">
        <ele>8.7</ele>
        <time>2024-03-17T13:08:27Z</time>
      </trkpt>
      <trkpt lat="38.110780" lon="-0.638685">
        <ele>9.7</ele>
        <time>2024-03-17T13:08:43Z</time>
      </trkpt>
      <trkpt lat="38.110916" lon="-0.638476">
        <ele>9.7</ele>
        <time>2024-03-17T13:08:58Z</time>
      </trkpt>
      <trkpt lat="38.111026" lon="-0.638327">
        <ele>8.7</ele>
        <time>2024-03-17T13:09:15Z</time>
      </trkpt>
      <trkpt lat="38.111148" lon="-0.638149">
        <ele>9.7</ele>
        <time>2024-03-17T13:09:32Z</time>
      </trkpt>
      <trkpt lat="38.111288" lon="-0.638001">
        <ele>7.7</ele>
        <time>2024-03-17T13:09:46Z</time>
      </trkpt>
      <trkpt lat="38.111461" lon="-0.637794">
        <ele>4.3</ele>
        <time>2024-03-17T13:11:23Z</time>
      </trkpt>
      <trkpt lat="38.111593" lon="-0.637707">
        <ele>7.7</ele>
        <time>2024-03-17T13:17:10Z</time>
      </trkpt>
      <trkpt lat="38.111741" lon="-0.637615">
        <ele>6.8</ele>
        <time>2024-03-17T13:17:34Z</time>
      </trkpt>
      <trkpt lat="38.111949" lon="-0.637447">
        <ele>8.7</ele>
        <time>2024-03-17T13:17:56Z</time>
      </trkpt>
      <trkpt lat="38.112053" lon="-0.637529">
        <ele>4.7</ele>
        <time>2024-03-17T13:31:18Z</time>
      </trkpt>
      <trkpt lat="38.112037" lon="-0.637605">
        <ele>6.1</ele>
        <time>2024-03-17T13:31:41Z</time>
      </trkpt>
      <trkpt lat="38.111961" lon="-0.637625">
        <ele>6.7</ele>
        <time>2024-03-17T13:31:57Z</time>
      </trkpt>
      <trkpt lat="38.111889" lon="-0.637636">
        <ele>4.3</ele>
        <time>2024-03-17T13:32:11Z</time>
      </trkpt>
      <trkpt lat="38.111813" lon="-0.637656">
        <ele>4.3</ele>
        <time>2024-03-17T13:32:28Z</time>
      </trkpt>
      <trkpt lat="38.111773" lon="-0.637677">
        <ele>4.3</ele>
        <time>2024-03-17T13:32:41Z</time>
      </trkpt>
      <trkpt lat="38.111713" lon="-0.637717">
        <ele>4.3</ele>
        <time>2024-03-17T13:32:56Z</time>
      </trkpt>
      <trkpt lat="38.111661" lon="-0.637742">
        <ele>4.3</ele>
        <time>2024-03-17T13:33:11Z</time>
      </trkpt>
      <trkpt lat="38.111613" lon="-0.637784">
        <ele>4.3</ele>
        <time>2024-03-17T13:33:24Z</time>
      </trkpt>
      <trkpt lat="38.111545" lon="-0.637819">
        <ele>4.7</ele>
        <time>2024-03-17T13:33:39Z</time>
      </trkpt>
      <trkpt lat="38.111476" lon="-0.637855">
        <ele>4.7</ele>
        <time>2024-03-17T13:33:53Z</time>
      </trkpt>
      <trkpt lat="38.111396" lon="-0.637956">
        <ele>5.8</ele>
        <time>2024-03-17T13:34:08Z</time>
      </trkpt>
      <trkpt lat="38.111320" lon="-0.638038">
        <ele>5.0</ele>
        <time>2024-03-17T13:34:25Z</time>
      </trkpt>
    </trkseg>
  </trk>
</gpx>
